<?xml version='1.0' encoding='UTF-8'?><gpx version="1.1" creator="JPX - https://github.com/jenetics/jpx" xmlns="http://www.topografix.com/GPX/1/1"><trk><trkseg><trkpt lat="39.79440000548473" lon="8.548821761611837"><ele>10.0</ele><time>2026-05-01T06:29:13.999Z</time></trkpt><trkpt lat="39.79441434137191" lon="8.54890307624912"><ele>10.0</ele><time>2026-05-01T06:29:35.998Z</time></trkpt><trkpt lat="39.79440948726288" lon="8.549000306582155"><ele>10.0</ele><time>2026-05-01T06:30:14.001Z</time></trkpt><trkpt lat="39.79439142597994" lon="8.54909685860601"><ele>10.0</ele><time>2026-05-01T06:30:16.001Z</time></trkpt><trkpt lat="39.79438137511587" lon="8.549239277237971"><ele>10.0</ele><time>2026-05-01T06:30:18.001Z</time></trkpt><trkpt lat="39.794391928721055" lon="8.549357674626764"><ele>10.0</ele><time>2026-05-01T06:30:20.001Z</time></trkpt><trkpt lat="39.794383149650216" lon="8.549447880564227"><ele>10.0</ele><time>2026-05-01T06:30:22.001Z</time></trkpt><trkpt lat="39.794380606503935" lon="8.549561670476876"><ele>10.0</ele><time>2026-05-01T06:30:24.001Z</time></trkpt><trkpt lat="39.79438769612011" lon="8.549682869902552"><ele>10.0</ele><time>2026-05-01T06:30:26.001Z</time></trkpt><trkpt lat="39.79438675692451" lon="8.54978062791815"><ele>10.0</ele><time>2026-05-01T06:30:28Z</time></trkpt><trkpt lat="39.79439122279254" lon="8.549878688807956"><ele>10.0</ele><time>2026-05-01T06:30:30Z</time></trkpt><trkpt lat="39.79438622513645" lon="8.54998054666442"><ele>10.0</ele><time>2026-05-01T06:30:32Z</time></trkpt><trkpt lat="39.794388924416964" lon="8.550105288462555"><ele>10.0</ele><time>2026-05-01T06:30:34Z</time></trkpt><trkpt lat="39.79439192752683" lon="8.550234249824275"><ele>10.0</ele><time>2026-05-01T06:30:36Z</time></trkpt><trkpt lat="39.79438649621889" lon="8.550383656680507"><ele>10.0</ele><time>2026-05-01T06:30:38Z</time></trkpt><trkpt lat="39.79438931698641" lon="8.550532832874891"><ele>10.0</ele><time>2026-05-01T06:30:40Z</time></trkpt><trkpt lat="39.79439110154457" lon="8.55068137953218"><ele>10.0</ele><time>2026-05-01T06:30:42Z</time></trkpt><trkpt lat="39.794401572171004" lon="8.550819566933285"><ele>9.4</ele><time>2026-05-01T06:30:44Z</time></trkpt><trkpt lat="39.79441673849345" lon="8.5509712691768"><ele>8.8</ele><time>2026-05-01T06:30:46Z</time></trkpt><trkpt lat="39.7944221048621" lon="8.551138284552074"><ele>8.2</ele><time>2026-05-01T06:30:48Z</time></trkpt><trkpt lat="39.79441810581239" lon="8.551225909102765"><ele>7.6</ele><time>2026-05-01T06:30:49Z</time></trkpt><trkpt lat="39.79441433134727" lon="8.551389863500061"><ele>7.0</ele><time>2026-05-01T06:30:51Z</time></trkpt><trkpt lat="39.79441878415854" lon="8.551474603860028"><ele>7.0</ele><time>2026-05-01T06:30:52Z</time></trkpt><trkpt lat="39.794422593047486" lon="8.551634371192046"><ele>6.999999999999999</ele><time>2026-05-01T06:30:54Z</time></trkpt><trkpt lat="39.79440973317043" lon="8.55171982203192"><ele>6.999999999999999</ele><time>2026-05-01T06:30:55Z</time></trkpt><trkpt lat="39.794408928967044" lon="8.551848546494698"><ele>7.0</ele><time>2026-05-01T06:30:57Z</time></trkpt><trkpt lat="39.79440790947816" lon="8.552011730293989"><ele>7.0</ele><time>2026-05-01T06:30:59Z</time></trkpt><trkpt lat="39.794407127270425" lon="8.552120010131102"><ele>7.0</ele><time>2026-05-01T06:31:00Z</time></trkpt><trkpt lat="39.79440564455587" lon="8.552238844377746"><ele>6.999999999999999</ele><time>2026-05-01T06:31:01Z</time></trkpt><trkpt lat="39.794404119545646" lon="8.552361068450475"><ele>6.999999999999999</ele><time>2026-05-01T06:31:02Z</time></trkpt><trkpt lat="39.794402553090556" lon="8.552486614572294"><ele>7.0</ele><time>2026-05-01T06:31:03Z</time></trkpt><trkpt lat="39.79441334574501" lon="8.55261934117084"><ele>7.0</ele><time>2026-05-01T06:31:04Z</time></trkpt><trkpt lat="39.79440678158298" lon="8.552752834412559"><ele>6.199999999999999</ele><time>2026-05-01T06:31:05Z</time></trkpt><trkpt lat="39.79440823592952" lon="8.552888955948443"><ele>5.3999999999999995</ele><time>2026-05-01T06:31:06Z</time></trkpt><trkpt lat="39.794412620828574" lon="8.553030585589424"><ele>4.6</ele><time>2026-05-01T06:31:07Z</time></trkpt><trkpt lat="39.79441714932062" lon="8.55317687111165"><ele>3.8</ele><time>2026-05-01T06:31:08Z</time></trkpt><trkpt lat="39.79442077746775" lon="8.553323407142862"><ele>3.0</ele><time>2026-05-01T06:31:09Z</time></trkpt><trkpt lat="39.794424485605276" lon="8.553473161500888"><ele>3.0</ele><time>2026-05-01T06:31:10Z</time></trkpt><trkpt lat="39.79441046188538" lon="8.553623855418378"><ele>3.0</ele><time>2026-05-01T06:31:11Z</time></trkpt><trkpt lat="39.794412611252696" lon="8.553773039154374"><ele>3.0</ele><time>2026-05-01T06:31:12Z</time></trkpt><trkpt lat="39.7944300933897" lon="8.553919007114274"><ele>3.0</ele><time>2026-05-01T06:31:13Z</time></trkpt><trkpt lat="39.79442755971167" lon="8.554066198410847"><ele>3.0</ele><time>2026-05-01T06:31:14Z</time></trkpt><trkpt lat="39.79442361252543" lon="8.554214222355037"><ele>3.0</ele><time>2026-05-01T06:31:15Z</time></trkpt><trkpt lat="39.79442224130379" lon="8.554366679376717"><ele>3.0</ele><time>2026-05-01T06:31:16Z</time></trkpt><trkpt lat="39.79442513888706" lon="8.554522011316827"><ele>3.0</ele><time>2026-05-01T06:31:17Z</time></trkpt><trkpt lat="39.79442878234065" lon="8.55467690045267"><ele>3.25</ele><time>2026-05-01T06:31:18Z</time></trkpt><trkpt lat="39.79443129214115" lon="8.554831728657257"><ele>3.5</ele><time>2026-05-01T06:31:19Z</time></trkpt><trkpt lat="39.794431114902935" lon="8.55498374263954"><ele>3.75</ele><time>2026-05-01T06:31:20Z</time></trkpt><trkpt lat="39.79443054196645" lon="8.555134898503063"><ele>4.0</ele><time>2026-05-01T06:31:21Z</time></trkpt><trkpt lat="39.79443225771709" lon="8.55528909865197"><ele>4.25</ele><time>2026-05-01T06:31:22Z</time></trkpt><trkpt lat="39.79442886969827" lon="8.555444246143898"><ele>4.5</ele><time>2026-05-01T06:31:23Z</time></trkpt><trkpt lat="39.79442957149352" lon="8.555600978687076"><ele>4.75</ele><time>2026-05-01T06:31:24Z</time></trkpt><trkpt lat="39.79443132947903" lon="8.555756773763017"><ele>5.0</ele><time>2026-05-01T06:31:25Z</time></trkpt><trkpt lat="39.79443299788467" lon="8.555916956489238"><ele>5.0</ele><time>2026-05-01T06:31:26Z</time></trkpt><trkpt lat="39.79443408493247" lon="8.556077576281629"><ele>5.0</ele><time>2026-05-01T06:31:27Z</time></trkpt><trkpt lat="39.79443291914129" lon="8.556237484524432"><ele>5.0</ele><time>2026-05-01T06:31:27.999Z</time></trkpt><trkpt lat="39.79443286794835" lon="8.556396329316543"><ele>5.0</ele><time>2026-05-01T06:31:28.999Z</time></trkpt><trkpt lat="39.79443474847149" lon="8.556550276551686"><ele>5.0</ele><time>2026-05-01T06:31:29.999Z</time></trkpt><trkpt lat="39.794436810297654" lon="8.556708081295193"><ele>5.0</ele><time>2026-05-01T06:31:30.999Z</time></trkpt><trkpt lat="39.79443678952259" lon="8.556867927625309"><ele>5.0</ele><time>2026-05-01T06:31:31.999Z</time></trkpt><trkpt lat="39.79443714374228" lon="8.557029323778941"><ele>5.0</ele><time>2026-05-01T06:31:32.999Z</time></trkpt><trkpt lat="39.79443724661195" lon="8.557192282441989"><ele>5.25</ele><time>2026-05-01T06:31:33.999Z</time></trkpt><trkpt lat="39.79442109796955" lon="8.55735608669529"><ele>5.5</ele><time>2026-05-01T06:31:34.999Z</time></trkpt><trkpt lat="39.794420673331224" lon="8.557520124543268"><ele>5.75</ele><time>2026-05-01T06:31:35.999Z</time></trkpt><trkpt lat="39.79442018389344" lon="8.557684645181102"><ele>6.0</ele><time>2026-05-01T06:31:36.999Z</time></trkpt><trkpt lat="39.79443145543599" lon="8.55784951762619"><ele>6.0</ele><time>2026-05-01T06:31:37.999Z</time></trkpt><trkpt lat="39.79442781935662" lon="8.5580125054832"><ele>6.0</ele><time>2026-05-01T06:31:38.999Z</time></trkpt><trkpt lat="39.794430349240336" lon="8.558178101525776"><ele>6.0</ele><time>2026-05-01T06:31:39.999Z</time></trkpt><trkpt lat="39.7944329293607" lon="8.558346697640971"><ele>6.0</ele><time>2026-05-01T06:31:40.999Z</time></trkpt><trkpt lat="39.794429096730845" lon="8.55851455483993"><ele>6.0</ele><time>2026-05-01T06:31:41.999Z</time></trkpt><trkpt lat="39.794425121261305" lon="8.558682454287931"><ele>6.0</ele><time>2026-05-01T06:31:42.999Z</time></trkpt><trkpt lat="39.79442306331732" lon="8.558849896455925"><ele>6.0</ele><time>2026-05-01T06:31:43.999Z</time></trkpt><trkpt lat="39.794424710993574" lon="8.559019412640662"><ele>6.0</ele><time>2026-05-01T06:31:44.999Z</time></trkpt><trkpt lat="39.79442385226118" lon="8.559190399632989"><ele>5.75</ele><time>2026-05-01T06:31:45.999Z</time></trkpt><trkpt lat="39.79442485122342" lon="8.55936408367059"><ele>5.5</ele><time>2026-05-01T06:31:46.999Z</time></trkpt><trkpt lat="39.79442637393743" lon="8.559539620453258"><ele>5.25</ele><time>2026-05-01T06:31:47.999Z</time></trkpt><trkpt lat="39.79443114228691" lon="8.559714758028834"><ele>5.0</ele><time>2026-05-01T06:31:48.999Z</time></trkpt><trkpt lat="39.79443408973924" lon="8.559891869920431"><ele>4.75</ele><time>2026-05-01T06:31:49.999Z</time></trkpt><trkpt lat="39.79443559030161" lon="8.56006771939289"><ele>4.5</ele><time>2026-05-01T06:31:50.999Z</time></trkpt><trkpt lat="39.794433551353364" lon="8.560244061889733"><ele>4.25</ele><time>2026-05-01T06:31:51.999Z</time></trkpt><trkpt lat="39.79443170277113" lon="8.56041883624108"><ele>4.0</ele><time>2026-05-01T06:31:52.999Z</time></trkpt><trkpt lat="39.794432611474804" lon="8.560594687591866"><ele>3.75</ele><time>2026-05-01T06:31:53.999Z</time></trkpt><trkpt lat="39.79443110708893" lon="8.560770205553016"><ele>3.5</ele><time>2026-05-01T06:31:54.999Z</time></trkpt><trkpt lat="39.79443383867095" lon="8.560946163491854"><ele>3.25</ele><time>2026-05-01T06:31:55.999Z</time></trkpt><trkpt lat="39.79443528455553" lon="8.561124256195566"><ele>3.0</ele><time>2026-05-01T06:31:56.999Z</time></trkpt><trkpt lat="39.79443539927202" lon="8.56130119015975"><ele>2.75</ele><time>2026-05-01T06:31:57.999Z</time></trkpt><trkpt lat="39.79443316929964" lon="8.561475579454825"><ele>2.5</ele><time>2026-05-01T06:31:58.999Z</time></trkpt><trkpt lat="39.794433005372134" lon="8.561651027466295"><ele>2.25</ele><time>2026-05-01T06:31:59.999Z</time></trkpt><trkpt lat="39.79443356071729" lon="8.561828059698508"><ele>2.0</ele><time>2026-05-01T06:32:00.999Z</time></trkpt><trkpt lat="39.79443168904096" lon="8.562005989560609"><ele>2.5</ele><time>2026-05-01T06:32:01.999Z</time></trkpt><trkpt lat="39.794431131053784" lon="8.562183906947002"><ele>3.0</ele><time>2026-05-01T06:32:02.999Z</time></trkpt><trkpt lat="39.7944324489348" lon="8.562362453681983"><ele>3.5</ele><time>2026-05-01T06:32:03.999Z</time></trkpt><trkpt lat="39.7944343189313" lon="8.562543107554223"><ele>4.0</ele><time>2026-05-01T06:32:04.999Z</time></trkpt><trkpt lat="39.79443659472244" lon="8.56272440342967"><ele>4.25</ele><time>2026-05-01T06:32:06.001Z</time></trkpt><trkpt lat="39.794437883003596" lon="8.562902848643144"><ele>4.5</ele><time>2026-05-01T06:32:07.001Z</time></trkpt><trkpt lat="39.794439639270365" lon="8.563083048117692"><ele>4.75</ele><time>2026-05-01T06:32:08.001Z</time></trkpt><trkpt lat="39.794437659569425" lon="8.563260434032967"><ele>5.0</ele><time>2026-05-01T06:32:09.001Z</time></trkpt><trkpt lat="39.79443592664472" lon="8.563437376573207"><ele>5.0</ele><time>2026-05-01T06:32:10.001Z</time></trkpt><trkpt lat="39.79443558891354" lon="8.56361415189765"><ele>5.0</ele><time>2026-05-01T06:32:11.001Z</time></trkpt><trkpt lat="39.794435320946505" lon="8.563790996498872"><ele>5.0</ele><time>2026-05-01T06:32:12.001Z</time></trkpt><trkpt lat="39.79443600650393" lon="8.56396748315475"><ele>5.0</ele><time>2026-05-01T06:32:13.001Z</time></trkpt><trkpt lat="39.79443720126167" lon="8.564144390608568"><ele>4.75</ele><time>2026-05-01T06:32:14.001Z</time></trkpt><trkpt lat="39.79443973004467" lon="8.56432247602148"><ele>4.5</ele><time>2026-05-01T06:32:15.001Z</time></trkpt><trkpt lat="39.79444262945283" lon="8.564499480891104"><ele>4.25</ele><time>2026-05-01T06:32:16.001Z</time></trkpt><trkpt lat="39.79444392998071" lon="8.56467823917965"><ele>4.0</ele><time>2026-05-01T06:32:17.001Z</time></trkpt><trkpt lat="39.79444444741484" lon="8.564855398627017"><ele>4.0</ele><time>2026-05-01T06:32:18.001Z</time></trkpt><trkpt lat="39.794442044585445" lon="8.565036598217143"><ele>4.0</ele><time>2026-05-01T06:32:19.001Z</time></trkpt><trkpt lat="39.79443948465888" lon="8.565213730130164"><ele>4.0</ele><time>2026-05-01T06:32:20.001Z</time></trkpt><trkpt lat="39.79443946869258" lon="8.565392141317508"><ele>4.0</ele><time>2026-05-01T06:32:21.001Z</time></trkpt><trkpt lat="39.794441073350136" lon="8.565572174754356"><ele>4.25</ele><time>2026-05-01T06:32:22.001Z</time></trkpt><trkpt lat="39.79444133287177" lon="8.56575235679842"><ele>4.5</ele><time>2026-05-01T06:32:23.001Z</time></trkpt><trkpt lat="39.7944417781395" lon="8.5659300924011"><ele>4.75</ele><time>2026-05-01T06:32:24.001Z</time></trkpt><trkpt lat="39.794444366192685" lon="8.566110730493472"><ele>5.0</ele><time>2026-05-01T06:32:25.001Z</time></trkpt><trkpt lat="39.79444483260847" lon="8.566290480594294"><ele>5.0</ele><time>2026-05-01T06:32:26.001Z</time></trkpt><trkpt lat="39.79444217578078" lon="8.566471142069895"><ele>5.0</ele><time>2026-05-01T06:32:27.001Z</time></trkpt><trkpt lat="39.79444078782141" lon="8.566651880342881"><ele>5.0</ele><time>2026-05-01T06:32:28Z</time></trkpt><trkpt lat="39.794437717464284" lon="8.566829107174977"><ele>5.0</ele><time>2026-05-01T06:32:29Z</time></trkpt><trkpt lat="39.79443998556003" lon="8.567015177573674"><ele>5.25</ele><time>2026-05-01T06:32:30Z</time></trkpt><trkpt lat="39.794443765462525" lon="8.56719642863628"><ele>5.5</ele><time>2026-05-01T06:32:31Z</time></trkpt><trkpt lat="39.79444470387781" lon="8.567377993494373"><ele>5.75</ele><time>2026-05-01T06:32:32Z</time></trkpt><trkpt lat="39.79444593839895" lon="8.567558962786537"><ele>6.0</ele><time>2026-05-01T06:32:33Z</time></trkpt><trkpt lat="39.79444448698557" lon="8.567740803711738"><ele>5.5</ele><time>2026-05-01T06:32:34Z</time></trkpt><trkpt lat="39.79444269490663" lon="8.567920291577066"><ele>5.0</ele><time>2026-05-01T06:32:35Z</time></trkpt><trkpt lat="39.79444409920188" lon="8.568103037834529"><ele>4.5</ele><time>2026-05-01T06:32:36Z</time></trkpt><trkpt lat="39.794445192809114" lon="8.568283880407899"><ele>4.0</ele><time>2026-05-01T06:32:37Z</time></trkpt><trkpt lat="39.79444775225042" lon="8.568468800682377"><ele>4.0</ele><time>2026-05-01T06:32:38Z</time></trkpt><trkpt lat="39.794450737377794" lon="8.56864924331798"><ele>4.0</ele><time>2026-05-01T06:32:39Z</time></trkpt><trkpt lat="39.79445125049114" lon="8.568835757470502"><ele>4.0</ele><time>2026-05-01T06:32:40Z</time></trkpt><trkpt lat="39.79444824391107" lon="8.569019907979214"><ele>4.0</ele><time>2026-05-01T06:32:41Z</time></trkpt><trkpt lat="39.79444762828413" lon="8.569206337314064"><ele>4.0</ele><time>2026-05-01T06:32:42Z</time></trkpt><trkpt lat="39.79444718825381" lon="8.569393586803402"><ele>4.0</ele><time>2026-05-01T06:32:43Z</time></trkpt><trkpt lat="39.79444751162983" lon="8.569578919130453"><ele>4.0</ele><time>2026-05-01T06:32:44Z</time></trkpt><trkpt lat="39.79444844138049" lon="8.569764691677026"><ele>4.0</ele><time>2026-05-01T06:32:45Z</time></trkpt><trkpt lat="39.79444799989956" lon="8.569949361889616"><ele>4.25</ele><time>2026-05-01T06:32:46Z</time></trkpt><trkpt lat="39.79444758207436" lon="8.57013499204603"><ele>4.5</ele><time>2026-05-01T06:32:47Z</time></trkpt><trkpt lat="39.79444777827003" lon="8.570319705781689"><ele>4.75</ele><time>2026-05-01T06:32:48Z</time></trkpt><trkpt lat="39.79444768715919" lon="8.57050521418127"><ele>5.0</ele><time>2026-05-01T06:32:49Z</time></trkpt><trkpt lat="39.794447644315966" lon="8.570689827978915"><ele>5.25</ele><time>2026-05-01T06:32:50Z</time></trkpt><trkpt lat="39.794446971100456" lon="8.570877004184991"><ele>5.5</ele><time>2026-05-01T06:32:51Z</time></trkpt><trkpt lat="39.79444766140674" lon="8.571064480386006"><ele>5.75</ele><time>2026-05-01T06:32:52Z</time></trkpt><trkpt lat="39.794446632739046" lon="8.571251228725835"><ele>6.0</ele><time>2026-05-01T06:32:53Z</time></trkpt><trkpt lat="39.79444720262951" lon="8.57144060844112"><ele>6.5</ele><time>2026-05-01T06:32:54Z</time></trkpt><trkpt lat="39.79444775598443" lon="8.571632097889017"><ele>7.0</ele><time>2026-05-01T06:32:55Z</time></trkpt><trkpt lat="39.7944501757377" lon="8.571824721004173"><ele>7.5</ele><time>2026-05-01T06:32:56Z</time></trkpt><trkpt lat="39.79445179728395" lon="8.57201571604581"><ele>8.0</ele><time>2026-05-01T06:32:57Z</time></trkpt><trkpt lat="39.794454166187904" lon="8.57220735519409"><ele>8.0</ele><time>2026-05-01T06:32:58Z</time></trkpt><trkpt lat="39.79445550811662" lon="8.572397359564654"><ele>8.0</ele><time>2026-05-01T06:32:59Z</time></trkpt><trkpt lat="39.79445496758856" lon="8.572588431298273"><ele>8.0</ele><time>2026-05-01T06:33:00Z</time></trkpt><trkpt lat="39.79445254584436" lon="8.572778246171412"><ele>8.0</ele><time>2026-05-01T06:33:01Z</time></trkpt><trkpt lat="39.79445199948829" lon="8.572969673592521"><ele>8.0</ele><time>2026-05-01T06:33:02Z</time></trkpt><trkpt lat="39.794451655705345" lon="8.573158618188344"><ele>8.0</ele><time>2026-05-01T06:33:03Z</time></trkpt><trkpt lat="39.794451815088784" lon="8.57334983564009"><ele>8.0</ele><time>2026-05-01T06:33:04Z</time></trkpt><trkpt lat="39.79445145280857" lon="8.573542286936018"><ele>8.0</ele><time>2026-05-01T06:33:05Z</time></trkpt><trkpt lat="39.794451219054054" lon="8.57373217144968"><ele>7.5</ele><time>2026-05-01T06:33:06Z</time></trkpt><trkpt lat="39.7944497834542" lon="8.573924296006368"><ele>7.0</ele><time>2026-05-01T06:33:07Z</time></trkpt><trkpt lat="39.794448823291354" lon="8.574120012852523"><ele>6.5</ele><time>2026-05-01T06:33:08Z</time></trkpt><trkpt lat="39.79445073900384" lon="8.57431554860839"><ele>6.0</ele><time>2026-05-01T06:33:09Z</time></trkpt><trkpt lat="39.79445146669497" lon="8.574511409300397"><ele>6.0</ele><time>2026-05-01T06:33:10Z</time></trkpt><trkpt lat="39.79445275857442" lon="8.574709232139236"><ele>6.0</ele><time>2026-05-01T06:33:11Z</time></trkpt><trkpt lat="39.79445374530396" lon="8.574905239485709"><ele>6.0</ele><time>2026-05-01T06:33:12Z</time></trkpt><trkpt lat="39.7944523782433" lon="8.575101590183031"><ele>6.0</ele><time>2026-05-01T06:33:13Z</time></trkpt><trkpt lat="39.79445290208649" lon="8.575297767403953"><ele>6.0</ele><time>2026-05-01T06:33:14Z</time></trkpt><trkpt lat="39.79445411283586" lon="8.575492703682752"><ele>6.0</ele><time>2026-05-01T06:33:15Z</time></trkpt><trkpt lat="39.79445423422465" lon="8.575688762096041"><ele>5.666666666666667</ele><time>2026-05-01T06:33:16Z</time></trkpt><trkpt lat="39.794456504574214" lon="8.575886168314877"><ele>5.333333333333334</ele><time>2026-05-01T06:33:17Z</time></trkpt><trkpt lat="39.794458139968974" lon="8.576080651015175"><ele>5.0</ele><time>2026-05-01T06:33:18Z</time></trkpt><trkpt lat="39.794455679592716" lon="8.57627672742771"><ele>5.0</ele><time>2026-05-01T06:33:19Z</time></trkpt><trkpt lat="39.7944553928887" lon="8.576472266617234"><ele>5.0</ele><time>2026-05-01T06:33:20Z</time></trkpt><trkpt lat="39.79445393509269" lon="8.576668516271672"><ele>5.0</ele><time>2026-05-01T06:33:21Z</time></trkpt><trkpt lat="39.794457098623624" lon="8.576865986488121"><ele>5.0</ele><time>2026-05-01T06:33:22Z</time></trkpt><trkpt lat="39.79445808396435" lon="8.57706173427222"><ele>5.0</ele><time>2026-05-01T06:33:23Z</time></trkpt><trkpt lat="39.79445954856269" lon="8.57725761506442"><ele>5.0</ele><time>2026-05-01T06:33:24Z</time></trkpt><trkpt lat="39.79446050335457" lon="8.577454202850085"><ele>5.0</ele><time>2026-05-01T06:33:25Z</time></trkpt><trkpt lat="39.79446188989066" lon="8.577651539542392"><ele>5.0</ele><time>2026-05-01T06:33:25.999Z</time></trkpt><trkpt lat="39.79446211949842" lon="8.577847282469998"><ele>5.0</ele><time>2026-05-01T06:33:26.999Z</time></trkpt><trkpt lat="39.79446222961239" lon="8.57804589612312"><ele>5.666666666666667</ele><time>2026-05-01T06:33:27.999Z</time></trkpt><trkpt lat="39.794461886041674" lon="8.578243789944905"><ele>6.333333333333334</ele><time>2026-05-01T06:33:28.999Z</time></trkpt><trkpt lat="39.7944620230092" lon="8.578443836282796"><ele>7.0</ele><time>2026-05-01T06:33:29.999Z</time></trkpt><trkpt lat="39.794461993566046" lon="8.578642185887825"><ele>7.333333333333334</ele><time>2026-05-01T06:33:30.999Z</time></trkpt><trkpt lat="39.794463083346834" lon="8.578838334810001"><ele>7.666666666666666</ele><time>2026-05-01T06:33:31.999Z</time></trkpt><trkpt lat="39.79446384067915" lon="8.579034584391403"><ele>8.0</ele><time>2026-05-01T06:33:32.999Z</time></trkpt><trkpt lat="39.79446449569024" lon="8.5792298894335"><ele>8.0</ele><time>2026-05-01T06:33:33.999Z</time></trkpt><trkpt lat="39.79446796273075" lon="8.579424859557204"><ele>8.0</ele><time>2026-05-01T06:33:34.999Z</time></trkpt><trkpt lat="39.79446984788609" lon="8.579621505248676"><ele>8.0</ele><time>2026-05-01T06:33:35.999Z</time></trkpt><trkpt lat="39.79447152633697" lon="8.579816311773376"><ele>7.75</ele><time>2026-05-01T06:33:36.999Z</time></trkpt><trkpt lat="39.794471497419835" lon="8.580008574096139"><ele>7.5</ele><time>2026-05-01T06:33:37.999Z</time></trkpt><trkpt lat="39.794470287966675" lon="8.580202864753039"><ele>7.25</ele><time>2026-05-01T06:33:38.999Z</time></trkpt><trkpt lat="39.794470002952124" lon="8.580399587021587"><ele>7.0</ele><time>2026-05-01T06:33:39.999Z</time></trkpt><trkpt lat="39.794470220043216" lon="8.58059451702359"><ele>6.0</ele><time>2026-05-01T06:33:40.999Z</time></trkpt><trkpt lat="39.79447148978993" lon="8.580788733089756"><ele>5.0</ele><time>2026-05-01T06:33:41.999Z</time></trkpt><trkpt lat="39.79447287212483" lon="8.58098536802137"><ele>4.0</ele><time>2026-05-01T06:33:42.999Z</time></trkpt><trkpt lat="39.79447418055981" lon="8.581181575921601"><ele>5.25</ele><time>2026-05-01T06:33:43.999Z</time></trkpt><trkpt lat="39.79447515983582" lon="8.581365543538118"><ele>6.5</ele><time>2026-05-01T06:33:44.999Z</time></trkpt><trkpt lat="39.7944758219792" lon="8.581536245629804"><ele>7.75</ele><time>2026-05-01T06:33:45.999Z</time></trkpt><trkpt lat="39.79447733351424" lon="8.581689254805397"><ele>9.0</ele><time>2026-05-01T06:33:46.999Z</time></trkpt><trkpt lat="39.79447570055431" lon="8.581830033241"><ele>9.0</ele><time>2026-05-01T06:33:47.999Z</time></trkpt><trkpt lat="39.79447440406861" lon="8.58195813139592"><ele>9.0</ele><time>2026-05-01T06:33:48.999Z</time></trkpt><trkpt lat="39.79446979785401" lon="8.582061824709106"><ele>9.0</ele><time>2026-05-01T06:33:49.999Z</time></trkpt><trkpt lat="39.794450252309915" lon="8.582170593437814"><ele>9.0</ele><time>2026-05-01T06:33:51.999Z</time></trkpt><trkpt lat="39.79433051486235" lon="8.582196872213837"><ele>9.0</ele><time>2026-05-01T06:33:52.999Z</time></trkpt><trkpt lat="39.79425136436334" lon="8.582209785822734"><ele>9.25</ele><time>2026-05-01T06:33:53.999Z</time></trkpt><trkpt lat="39.79414671116944" lon="8.58220927218355"><ele>9.5</ele><time>2026-05-01T06:33:54.999Z</time></trkpt><trkpt lat="39.79402895918383" lon="8.582212393232012"><ele>9.75</ele><time>2026-05-01T06:33:55.999Z</time></trkpt><trkpt lat="39.793906788524424" lon="8.582214802786641"><ele>10.0</ele><time>2026-05-01T06:33:56.999Z</time></trkpt><trkpt lat="39.793770816086145" lon="8.582216142164844"><ele>10.0</ele><time>2026-05-01T06:33:57.999Z</time></trkpt><trkpt lat="39.79362111686561" lon="8.582216523762334"><ele>10.0</ele><time>2026-05-01T06:33:58.999Z</time></trkpt><trkpt lat="39.79347000005504" lon="8.582220704198598"><ele>10.0</ele><time>2026-05-01T06:33:59.999Z</time></trkpt><trkpt lat="39.79331942220997" lon="8.582221873441265"><ele>9.333333333333334</ele><time>2026-05-01T06:34:00.999Z</time></trkpt><trkpt lat="39.79316639206709" lon="8.582221250431756"><ele>8.666666666666666</ele><time>2026-05-01T06:34:01.999Z</time></trkpt><trkpt lat="39.79300643776881" lon="8.582221703917186"><ele>8.0</ele><time>2026-05-01T06:34:02.999Z</time></trkpt><trkpt lat="39.792846304930904" lon="8.582225475081142"><ele>8.0</ele><time>2026-05-01T06:34:03.999Z</time></trkpt><trkpt lat="39.79268637812461" lon="8.582224080069947"><ele>8.0</ele><time>2026-05-01T06:34:04.999Z</time></trkpt><trkpt lat="39.79252812424314" lon="8.582216887502112"><ele>8.0</ele><time>2026-05-01T06:34:05.999Z</time></trkpt><trkpt lat="39.792368389038536" lon="8.582216302982136"><ele>8.0</ele><time>2026-05-01T06:34:06.999Z</time></trkpt><trkpt lat="39.79220733807741" lon="8.582218325688501"><ele>8.0</ele><time>2026-05-01T06:34:07.999Z</time></trkpt><trkpt lat="39.792047649457835" lon="8.582218824528178"><ele>8.0</ele><time>2026-05-01T06:34:08.999Z</time></trkpt><trkpt lat="39.791889839678426" lon="8.582222224405543"><ele>8.0</ele><time>2026-05-01T06:34:09.999Z</time></trkpt><trkpt lat="39.79172928498678" lon="8.582224994115617"><ele>8.0</ele><time>2026-05-01T06:34:10.999Z</time></trkpt><trkpt lat="39.791570300113804" lon="8.582224965691417"><ele>8.0</ele><time>2026-05-01T06:34:12.001Z</time></trkpt><trkpt lat="39.79141247568952" lon="8.582223813664513"><ele>8.0</ele><time>2026-05-01T06:34:13.001Z</time></trkpt><trkpt lat="39.79125428951286" lon="8.582225184435536"><ele>8.0</ele><time>2026-05-01T06:34:14.001Z</time></trkpt><trkpt lat="39.79109568301495" lon="8.582228319105035"><ele>8.0</ele><time>2026-05-01T06:34:15.001Z</time></trkpt><trkpt lat="39.790938565415" lon="8.582227010994004"><ele>8.0</ele><time>2026-05-01T06:34:16.001Z</time></trkpt><trkpt lat="39.79078146521388" lon="8.582227989154052"><ele>8.0</ele><time>2026-05-01T06:34:17.001Z</time></trkpt><trkpt lat="39.790624750935905" lon="8.582227087060657"><ele>8.0</ele><time>2026-05-01T06:34:18.001Z</time></trkpt><trkpt lat="39.79046614121483" lon="8.582228848195909"><ele>8.0</ele><time>2026-05-01T06:34:19.001Z</time></trkpt><trkpt lat="39.790307019312465" lon="8.582230598463909"><ele>8.0</ele><time>2026-05-01T06:34:20.001Z</time></trkpt><trkpt lat="39.79014764605488" lon="8.582234366363025"><ele>8.0</ele><time>2026-05-01T06:34:21.001Z</time></trkpt><trkpt lat="39.78999099300322" lon="8.582235791161136"><ele>8.0</ele><time>2026-05-01T06:34:22.001Z</time></trkpt><trkpt lat="39.789832454711714" lon="8.582237865776008"><ele>8.0</ele><time>2026-05-01T06:34:23.001Z</time></trkpt><trkpt lat="39.789673784102675" lon="8.582239553478253"><ele>8.0</ele><time>2026-05-01T06:34:24.001Z</time></trkpt><trkpt lat="39.78951752010213" lon="8.582239804783637"><ele>8.0</ele><time>2026-05-01T06:34:25.001Z</time></trkpt><trkpt lat="39.78935973272833" lon="8.582241112218773"><ele>8.0</ele><time>2026-05-01T06:34:26.001Z</time></trkpt><trkpt lat="39.78920145593763" lon="8.582244856351542"><ele>8.0</ele><time>2026-05-01T06:34:27.001Z</time></trkpt><trkpt lat="39.789043655863615" lon="8.58224437827402"><ele>8.333333333333332</ele><time>2026-05-01T06:34:28Z</time></trkpt><trkpt lat="39.788886992678016" lon="8.582242412675207"><ele>8.666666666666666</ele><time>2026-05-01T06:34:29Z</time></trkpt><trkpt lat="39.788732654595194" lon="8.582243217245763"><ele>9.0</ele><time>2026-05-01T06:34:30Z</time></trkpt><trkpt lat="39.78858099426391" lon="8.582248027990287"><ele>9.0</ele><time>2026-05-01T06:34:31Z</time></trkpt><trkpt lat="39.78842874183333" lon="8.582247267852658"><ele>9.0</ele><time>2026-05-01T06:34:32Z</time></trkpt><trkpt lat="39.78827486353797" lon="8.582248282579377"><ele>9.0</ele><time>2026-05-01T06:34:33Z</time></trkpt><trkpt lat="39.7881246521254" lon="8.58224987039059"><ele>9.0</ele><time>2026-05-01T06:34:34Z</time></trkpt><trkpt lat="39.78797132142193" lon="8.582251198277545"><ele>9.0</ele><time>2026-05-01T06:34:35Z</time></trkpt><trkpt lat="39.78781839623989" lon="8.582251992436754"><ele>9.0</ele><time>2026-05-01T06:34:36Z</time></trkpt><trkpt lat="39.78766448400248" lon="8.582253699299635"><ele>9.333333333333334</ele><time>2026-05-01T06:34:37Z</time></trkpt><trkpt lat="39.787509583925825" lon="8.582254220425622"><ele>9.666666666666668</ele><time>2026-05-01T06:34:38Z</time></trkpt><trkpt lat="39.78735383927372" lon="8.582252996301506"><ele>10.0</ele><time>2026-05-01T06:34:39Z</time></trkpt><trkpt lat="39.787199011771484" lon="8.582255950112144"><ele>10.0</ele><time>2026-05-01T06:34:40Z</time></trkpt><trkpt lat="39.787043105842564" lon="8.58225765123124"><ele>10.0</ele><time>2026-05-01T06:34:41Z</time></trkpt><trkpt lat="39.78688659230854" lon="8.582259300727108"><ele>10.0</ele><time>2026-05-01T06:34:42Z</time></trkpt><trkpt lat="39.78673035033473" lon="8.582260210536978"><ele>9.666666666666668</ele><time>2026-05-01T06:34:43Z</time></trkpt><trkpt lat="39.78657286635423" lon="8.582262095857995"><ele>9.333333333333334</ele><time>2026-05-01T06:34:44Z</time></trkpt><trkpt lat="39.786413508149664" lon="8.582260249952814"><ele>9.0</ele><time>2026-05-01T06:34:45Z</time></trkpt><trkpt lat="39.786255927429686" lon="8.582262955484108"><ele>9.0</ele><time>2026-05-01T06:34:46Z</time></trkpt><trkpt lat="39.78610052555534" lon="8.58226663215764"><ele>9.0</ele><time>2026-05-01T06:34:47Z</time></trkpt><trkpt lat="39.78594167503284" lon="8.582271595702947"><ele>9.0</ele><time>2026-05-01T06:34:48Z</time></trkpt><trkpt lat="39.785784483615245" lon="8.582270604529297"><ele>8.0</ele><time>2026-05-01T06:34:49Z</time></trkpt><trkpt lat="39.78562606460373" lon="8.582273258573908"><ele>7.0</ele><time>2026-05-01T06:34:50Z</time></trkpt><trkpt lat="39.785469202457094" lon="8.582268647780117"><ele>6.0</ele><time>2026-05-01T06:34:51Z</time></trkpt><trkpt lat="39.78531337250234" lon="8.582263182668925"><ele>6.0</ele><time>2026-05-01T06:34:52Z</time></trkpt><trkpt lat="39.7851573434463" lon="8.582263041564758"><ele>6.0</ele><time>2026-05-01T06:34:53Z</time></trkpt><trkpt lat="39.785002629067456" lon="8.582268060537508"><ele>6.0</ele><time>2026-05-01T06:34:54Z</time></trkpt><trkpt lat="39.78484955529016" lon="8.582272764122738"><ele>6.0</ele><time>2026-05-01T06:34:55Z</time></trkpt><trkpt lat="39.78469451006859" lon="8.582271515745637"><ele>6.0</ele><time>2026-05-01T06:34:56Z</time></trkpt><trkpt lat="39.784540722400365" lon="8.582268624988902"><ele>6.0</ele><time>2026-05-01T06:34:57Z</time></trkpt><trkpt lat="39.78438375446409" lon="8.582269109718059"><ele>6.0</ele><time>2026-05-01T06:34:58Z</time></trkpt><trkpt lat="39.784228364645024" lon="8.58227247950313"><ele>6.0</ele><time>2026-05-01T06:34:59Z</time></trkpt><trkpt lat="39.78407161577863" lon="8.582274650135817"><ele>6.0</ele><time>2026-05-01T06:35:00Z</time></trkpt><trkpt lat="39.7839164875299" lon="8.582276049613125"><ele>6.0</ele><time>2026-05-01T06:35:01Z</time></trkpt><trkpt lat="39.78375893745141" lon="8.582276903201956"><ele>6.0</ele><time>2026-05-01T06:35:02Z</time></trkpt><trkpt lat="39.78359736376851" lon="8.58227567211312"><ele>6.0</ele><time>2026-05-01T06:35:03Z</time></trkpt><trkpt lat="39.783438365952705" lon="8.582275940021349"><ele>6.333333333333334</ele><time>2026-05-01T06:35:04Z</time></trkpt><trkpt lat="39.78327963678359" lon="8.582278075794683"><ele>6.666666666666667</ele><time>2026-05-01T06:35:05Z</time></trkpt><trkpt lat="39.783116094373696" lon="8.582281482804232"><ele>7.0</ele><time>2026-05-01T06:35:06Z</time></trkpt><trkpt lat="39.78295564225852" lon="8.582282024896964"><ele>7.0</ele><time>2026-05-01T06:35:07Z</time></trkpt><trkpt lat="39.78279522126919" lon="8.582283590792187"><ele>7.0</ele><time>2026-05-01T06:35:08Z</time></trkpt><trkpt lat="39.78263429511434" lon="8.582282219888153"><ele>7.0</ele><time>2026-05-01T06:35:09Z</time></trkpt><trkpt lat="39.78247410524398" lon="8.582282603218017"><ele>7.0</ele><time>2026-05-01T06:35:10Z</time></trkpt><trkpt lat="39.78231453335722" lon="8.582284409731297"><ele>7.0</ele><time>2026-05-01T06:35:11Z</time></trkpt><trkpt lat="39.782152281242944" lon="8.5822855417812"><ele>7.0</ele><time>2026-05-01T06:35:12Z</time></trkpt><trkpt lat="39.78199138860377" lon="8.582284009531648"><ele>7.666666666666667</ele><time>2026-05-01T06:35:13Z</time></trkpt><trkpt lat="39.78183273649654" lon="8.582282896839056"><ele>8.333333333333334</ele><time>2026-05-01T06:35:14Z</time></trkpt><trkpt lat="39.78167296152088" lon="8.582281907613542"><ele>9.0</ele><time>2026-05-01T06:35:15Z</time></trkpt><trkpt lat="39.781513253253635" lon="8.58228266272262"><ele>9.0</ele><time>2026-05-01T06:35:16Z</time></trkpt><trkpt lat="39.7813519672196" lon="8.582286291803106"><ele>9.0</ele><time>2026-05-01T06:35:17Z</time></trkpt><trkpt lat="39.781190057594664" lon="8.582290137749249"><ele>9.0</ele><time>2026-05-01T06:35:18Z</time></trkpt><trkpt lat="39.78102795348292" lon="8.582291921981565"><ele>8.666666666666666</ele><time>2026-05-01T06:35:19Z</time></trkpt><trkpt lat="39.78086559479028" lon="8.58229251871622"><ele>8.333333333333332</ele><time>2026-05-01T06:35:20Z</time></trkpt><trkpt lat="39.78070404946633" lon="8.582294296363647"><ele>8.0</ele><time>2026-05-01T06:35:21Z</time></trkpt><trkpt lat="39.78054298291987" lon="8.582296031762699"><ele>8.0</ele><time>2026-05-01T06:35:22Z</time></trkpt><trkpt lat="39.78038157275219" lon="8.58229951019678"><ele>8.0</ele><time>2026-05-01T06:35:23Z</time></trkpt><trkpt lat="39.78021995993918" lon="8.58230235669231"><ele>8.0</ele><time>2026-05-01T06:35:24Z</time></trkpt><trkpt lat="39.78005719273221" lon="8.582299997497172"><ele>8.333333333333332</ele><time>2026-05-01T06:35:25Z</time></trkpt><trkpt lat="39.779894883978685" lon="8.582298543686777"><ele>8.666666666666666</ele><time>2026-05-01T06:35:25.999Z</time></trkpt><trkpt lat="39.779732736555836" lon="8.582299787740018"><ele>9.0</ele><time>2026-05-01T06:35:26.999Z</time></trkpt><trkpt lat="39.7795706294197" lon="8.582300618124188"><ele>9.0</ele><time>2026-05-01T06:35:27.999Z</time></trkpt><trkpt lat="39.77940909574893" lon="8.582299355489553"><ele>9.0</ele><time>2026-05-01T06:35:28.999Z</time></trkpt><trkpt lat="39.779248253711856" lon="8.582297707415895"><ele>9.0</ele><time>2026-05-01T06:35:29.999Z</time></trkpt><trkpt lat="39.77908717611788" lon="8.582296728958559"><ele>9.333333333333334</ele><time>2026-05-01T06:35:30.999Z</time></trkpt><trkpt lat="39.77892714208427" lon="8.582298402387021"><ele>9.666666666666668</ele><time>2026-05-01T06:35:31.999Z</time></trkpt><trkpt lat="39.77876686511247" lon="8.582300696984515"><ele>10.0</ele><time>2026-05-01T06:35:32.999Z</time></trkpt><trkpt lat="39.77860746015624" lon="8.582301240417001"><ele>10.666666666666668</ele><time>2026-05-01T06:35:33.999Z</time></trkpt><trkpt lat="39.778447828002804" lon="8.582301879879491"><ele>11.333333333333334</ele><time>2026-05-01T06:35:34.999Z</time></trkpt><trkpt lat="39.778287794031044" lon="8.582302568864526"><ele>12.0</ele><time>2026-05-01T06:35:35.999Z</time></trkpt><trkpt lat="39.778128943100555" lon="8.582305620006874"><ele>12.0</ele><time>2026-05-01T06:35:36.999Z</time></trkpt><trkpt lat="39.77796982488732" lon="8.58230774182896"><ele>12.0</ele><time>2026-05-01T06:35:37.999Z</time></trkpt><trkpt lat="39.77781068296545" lon="8.582309945005271"><ele>12.0</ele><time>2026-05-01T06:35:38.999Z</time></trkpt><trkpt lat="39.77765372471294" lon="8.582312182803987"><ele>11.5</ele><time>2026-05-01T06:35:39.999Z</time></trkpt><trkpt lat="39.77749846084171" lon="8.582313980733016"><ele>11.0</ele><time>2026-05-01T06:35:40.999Z</time></trkpt><trkpt lat="39.77734927649233" lon="8.582317321968143"><ele>10.5</ele><time>2026-05-01T06:35:41.999Z</time></trkpt><trkpt lat="39.77721183279434" lon="8.582318261876198"><ele>10.0</ele><time>2026-05-01T06:35:42.999Z</time></trkpt><trkpt lat="39.7770791335786" lon="8.582321785322192"><ele>10.0</ele><time>2026-05-01T06:35:43.999Z</time></trkpt><trkpt lat="39.77695968063345" lon="8.582324438936139"><ele>10.0</ele><time>2026-05-01T06:35:44.999Z</time></trkpt><trkpt lat="39.776848770653274" lon="8.582324824473018"><ele>10.0</ele><time>2026-05-01T06:35:45.999Z</time></trkpt><trkpt lat="39.77674562525495" lon="8.582323435658719"><ele>10.0</ele><time>2026-05-01T06:35:46.999Z</time></trkpt><trkpt lat="39.776649294987735" lon="8.582324067732896"><ele>10.0</ele><time>2026-05-01T06:35:47.999Z</time></trkpt><trkpt lat="39.77655946057921" lon="8.582323647486604"><ele>10.333333333333334</ele><time>2026-05-01T06:35:48.999Z</time></trkpt><trkpt lat="39.77647611272321" lon="8.582324287322766"><ele>10.666666666666668</ele><time>2026-05-01T06:35:49.999Z</time></trkpt><trkpt lat="39.77639673809648" lon="8.58232519785921"><ele>11.0</ele><time>2026-05-01T06:35:50.999Z</time></trkpt><trkpt lat="39.77632073761632" lon="8.582324702293814"><ele>11.333333333333334</ele><time>2026-05-01T06:35:51.999Z</time></trkpt><trkpt lat="39.7762489100935" lon="8.582326765103282"><ele>11.666666666666666</ele><time>2026-05-01T06:35:52.999Z</time></trkpt><trkpt lat="39.7761808512428" lon="8.582328407343164"><ele>12.0</ele><time>2026-05-01T06:35:53.999Z</time></trkpt><trkpt lat="39.77608737398902" lon="8.58232506506553"><ele>11.75</ele><time>2026-05-01T06:35:55.999Z</time></trkpt><trkpt lat="39.77594852899669" lon="8.582342754067835"><ele>11.5</ele><time>2026-05-01T06:36:13.999Z</time></trkpt><trkpt lat="39.775852789744484" lon="8.58235122260942"><ele>11.25</ele><time>2026-05-01T06:36:14.999Z</time></trkpt><trkpt lat="39.775743026205646" lon="8.582355398761939"><ele>11.0</ele><time>2026-05-01T06:36:15.999Z</time></trkpt><trkpt lat="39.77562431536915" lon="8.58235388882412"><ele>11.0</ele><time>2026-05-01T06:36:16.999Z</time></trkpt><trkpt lat="39.775506275777985" lon="8.582351265398616"><ele>11.0</ele><time>2026-05-01T06:36:18Z</time></trkpt><trkpt lat="39.77538577337839" lon="8.582350581806196"><ele>11.0</ele><time>2026-05-01T06:36:19Z</time></trkpt><trkpt lat="39.775259180578736" lon="8.582351712782433"><ele>11.0</ele><time>2026-05-01T06:36:20Z</time></trkpt><trkpt lat="39.775129464293066" lon="8.58235468235146"><ele>10.75</ele><time>2026-05-01T06:36:21Z</time></trkpt><trkpt lat="39.774999989235916" lon="8.582354835132964"><ele>10.5</ele><time>2026-05-01T06:36:22Z</time></trkpt><trkpt lat="39.774874195166376" lon="8.582355468740227"><ele>10.25</ele><time>2026-05-01T06:36:23Z</time></trkpt><trkpt lat="39.774747754840014" lon="8.582354162261215"><ele>10.0</ele><time>2026-05-01T06:36:24Z</time></trkpt><trkpt lat="39.774617001501554" lon="8.582356963234748"><ele>10.0</ele><time>2026-05-01T06:36:25Z</time></trkpt><trkpt lat="39.774486862270656" lon="8.582358166494453"><ele>10.0</ele><time>2026-05-01T06:36:26Z</time></trkpt><trkpt lat="39.77435644728008" lon="8.58235865035917"><ele>10.0</ele><time>2026-05-01T06:36:27Z</time></trkpt><trkpt lat="39.77422037256851" lon="8.582358350951658"><ele>10.0</ele><time>2026-05-01T06:36:28Z</time></trkpt><trkpt lat="39.77408263124073" lon="8.582359590195454"><ele>10.5</ele><time>2026-05-01T06:36:29Z</time></trkpt><trkpt lat="39.773948803571834" lon="8.582362448220005"><ele>11.0</ele><time>2026-05-01T06:36:30Z</time></trkpt><trkpt lat="39.77381929345481" lon="8.582367490742632"><ele>11.5</ele><time>2026-05-01T06:36:31Z</time></trkpt><trkpt lat="39.773700655434276" lon="8.582368117177515"><ele>12.0</ele><time>2026-05-01T06:36:32Z</time></trkpt><trkpt lat="39.77358352117024" lon="8.582366828914305"><ele>11.5</ele><time>2026-05-01T06:36:33Z</time></trkpt><trkpt lat="39.77346478882863" lon="8.582366982476263"><ele>11.0</ele><time>2026-05-01T06:36:34Z</time></trkpt><trkpt lat="39.773346994197475" lon="8.582367666621796"><ele>10.5</ele><time>2026-05-01T06:36:35Z</time></trkpt><trkpt lat="39.77323023778808" lon="8.582366741930208"><ele>10.0</ele><time>2026-05-01T06:36:36Z</time></trkpt><trkpt lat="39.773113322474664" lon="8.58236699113803"><ele>10.0</ele><time>2026-05-01T06:36:37Z</time></trkpt><trkpt lat="39.77299863075096" lon="8.582368546523005"><ele>10.0</ele><time>2026-05-01T06:36:38Z</time></trkpt><trkpt lat="39.77287865352578" lon="8.582370430279179"><ele>10.0</ele><time>2026-05-01T06:36:39Z</time></trkpt><trkpt lat="39.77275787412771" lon="8.582370889826064"><ele>10.0</ele><time>2026-05-01T06:36:40Z</time></trkpt><trkpt lat="39.772640059415316" lon="8.582372952321771"><ele>9.75</ele><time>2026-05-01T06:36:41Z</time></trkpt><trkpt lat="39.77252130689225" lon="8.582375257177306"><ele>9.5</ele><time>2026-05-01T06:36:42Z</time></trkpt><trkpt lat="39.77240328492183" lon="8.582376084000066"><ele>9.25</ele><time>2026-05-01T06:36:43Z</time></trkpt><trkpt lat="39.7722866479749" lon="8.58238048027037"><ele>9.0</ele><time>2026-05-01T06:36:44Z</time></trkpt><trkpt lat="39.772170510064974" lon="8.58237594585786"><ele>9.0</ele><time>2026-05-01T06:36:45Z</time></trkpt><trkpt lat="39.77205232354778" lon="8.582375282685764"><ele>9.0</ele><time>2026-05-01T06:36:46Z</time></trkpt><trkpt lat="39.7719353871144" lon="8.582376814540304"><ele>9.0</ele><time>2026-05-01T06:36:47Z</time></trkpt><trkpt lat="39.77181493082134" lon="8.582377126534201"><ele>9.0</ele><time>2026-05-01T06:36:48Z</time></trkpt><trkpt lat="39.77169156421887" lon="8.58237746275519"><ele>9.0</ele><time>2026-05-01T06:36:49Z</time></trkpt><trkpt lat="39.77156804236853" lon="8.58238100539217"><ele>9.0</ele><time>2026-05-01T06:36:50Z</time></trkpt><trkpt lat="39.77144502657128" lon="8.58238334107226"><ele>9.0</ele><time>2026-05-01T06:36:51Z</time></trkpt><trkpt lat="39.77132093581875" lon="8.582381115736473"><ele>9.0</ele><time>2026-05-01T06:36:52Z</time></trkpt><trkpt lat="39.77119726550639" lon="8.582378823650224"><ele>9.0</ele><time>2026-05-01T06:36:53Z</time></trkpt><trkpt lat="39.771073263935484" lon="8.582378457704896"><ele>9.0</ele><time>2026-05-01T06:36:54Z</time></trkpt><trkpt lat="39.77094780021361" lon="8.582379135481002"><ele>9.0</ele><time>2026-05-01T06:36:55Z</time></trkpt><trkpt lat="39.77082254683946" lon="8.582382115823249"><ele>9.0</ele><time>2026-05-01T06:36:56Z</time></trkpt><trkpt lat="39.77069812652702" lon="8.582382032726136"><ele>9.2</ele><time>2026-05-01T06:36:57Z</time></trkpt><trkpt lat="39.77058023622425" lon="8.582383899962014"><ele>9.4</ele><time>2026-05-01T06:36:58Z</time></trkpt><trkpt lat="39.77047169199097" lon="8.582383156479743"><ele>9.6</ele><time>2026-05-01T06:36:59Z</time></trkpt><trkpt lat="39.77036940491924" lon="8.58238424766398"><ele>9.8</ele><time>2026-05-01T06:37:00Z</time></trkpt><trkpt lat="39.77026846823692" lon="8.582383330628302"><ele>10.0</ele><time>2026-05-01T06:37:01Z</time></trkpt><trkpt lat="39.770162341802724" lon="8.582381441612597"><ele>10.25</ele><time>2026-05-01T06:37:02Z</time></trkpt><trkpt lat="39.77005442575752" lon="8.58238212602111"><ele>10.5</ele><time>2026-05-01T06:37:03Z</time></trkpt><trkpt lat="39.76994041973115" lon="8.58238464966692"><ele>10.75</ele><time>2026-05-01T06:37:04Z</time></trkpt><trkpt lat="39.76982526336897" lon="8.58238443174088"><ele>11.0</ele><time>2026-05-01T06:37:05Z</time></trkpt><trkpt lat="39.769707796231245" lon="8.582383419870919"><ele>11.0</ele><time>2026-05-01T06:37:06Z</time></trkpt><trkpt lat="39.769587085075834" lon="8.582382058858485"><ele>11.0</ele><time>2026-05-01T06:37:07Z</time></trkpt><trkpt lat="39.769466409148194" lon="8.582388161262843"><ele>11.0</ele><time>2026-05-01T06:37:08Z</time></trkpt><trkpt lat="39.76934046665086" lon="8.582392576546859"><ele>11.0</ele><time>2026-05-01T06:37:09Z</time></trkpt><trkpt lat="39.7692147214414" lon="8.582395200525552"><ele>11.0</ele><time>2026-05-01T06:37:10Z</time></trkpt><trkpt lat="39.76908719859581" lon="8.582394016683137"><ele>11.0</ele><time>2026-05-01T06:37:11Z</time></trkpt><trkpt lat="39.7689592986214" lon="8.58239317526155"><ele>11.0</ele><time>2026-05-01T06:37:12Z</time></trkpt><trkpt lat="39.76883033532446" lon="8.58239444608356"><ele>11.0</ele><time>2026-05-01T06:37:13Z</time></trkpt><trkpt lat="39.768697489048506" lon="8.582393958356914"><ele>11.0</ele><time>2026-05-01T06:37:14Z</time></trkpt><trkpt lat="39.76856478879585" lon="8.58239315314825"><ele>11.0</ele><time>2026-05-01T06:37:15Z</time></trkpt><trkpt lat="39.76843108142358" lon="8.582393687470088"><ele>11.0</ele><time>2026-05-01T06:37:16Z</time></trkpt><trkpt lat="39.76829612701084" lon="8.582390686699314"><ele>11.0</ele><time>2026-05-01T06:37:17Z</time></trkpt><trkpt lat="39.76815892863019" lon="8.582388292611748"><ele>11.0</ele><time>2026-05-01T06:37:18Z</time></trkpt><trkpt lat="39.768022018571756" lon="8.58239025463824"><ele>11.0</ele><time>2026-05-01T06:37:19Z</time></trkpt><trkpt lat="39.76788297301323" lon="8.5823887050289"><ele>11.0</ele><time>2026-05-01T06:37:20Z</time></trkpt><trkpt lat="39.7677421383886" lon="8.582387669531894"><ele>11.0</ele><time>2026-05-01T06:37:21Z</time></trkpt><trkpt lat="39.767599268738394" lon="8.582390687150772"><ele>11.0</ele><time>2026-05-01T06:37:22Z</time></trkpt><trkpt lat="39.76745395274376" lon="8.58239277014898"><ele>11.0</ele><time>2026-05-01T06:37:23Z</time></trkpt><trkpt lat="39.76730452492938" lon="8.582390228363613"><ele>11.0</ele><time>2026-05-01T06:37:24Z</time></trkpt><trkpt lat="39.76715595407531" lon="8.582389679081336"><ele>11.0</ele><time>2026-05-01T06:37:25Z</time></trkpt><trkpt lat="39.76700556144159" lon="8.582389058119132"><ele>10.666666666666666</ele><time>2026-05-01T06:37:26Z</time></trkpt><trkpt lat="39.766850988454976" lon="8.582390198306747"><ele>10.333333333333334</ele><time>2026-05-01T06:37:26.999Z</time></trkpt><trkpt lat="39.76669786640353" lon="8.582394822071812"><ele>10.0</ele><time>2026-05-01T06:37:27.999Z</time></trkpt><trkpt lat="39.766543761879774" lon="8.582394757050288"><ele>10.0</ele><time>2026-05-01T06:37:28.999Z</time></trkpt><trkpt lat="39.76639162905519" lon="8.582396467741967"><ele>10.0</ele><time>2026-05-01T06:37:29.999Z</time></trkpt><trkpt lat="39.76623676604542" lon="8.58239725604622"><ele>10.0</ele><time>2026-05-01T06:37:30.999Z</time></trkpt><trkpt lat="39.76608268270214" lon="8.582397679294452"><ele>10.0</ele><time>2026-05-01T06:37:31.999Z</time></trkpt><trkpt lat="39.76592935814255" lon="8.582398840572289"><ele>10.0</ele><time>2026-05-01T06:37:32.999Z</time></trkpt><trkpt lat="39.76577675822005" lon="8.582398833050208"><ele>10.0</ele><time>2026-05-01T06:37:33.999Z</time></trkpt><trkpt lat="39.7656271523905" lon="8.58240013865293"><ele>10.0</ele><time>2026-05-01T06:37:34.999Z</time></trkpt><trkpt lat="39.76547824819082" lon="8.582403249126033"><ele>10.0</ele><time>2026-05-01T06:37:35.999Z</time></trkpt><trkpt lat="39.7653286355547" lon="8.582405674945559"><ele>10.0</ele><time>2026-05-01T06:37:36.999Z</time></trkpt><trkpt lat="39.765179389243386" lon="8.582408389212775"><ele>10.0</ele><time>2026-05-01T06:37:37.999Z</time></trkpt><trkpt lat="39.76503018490438" lon="8.582408145237242"><ele>10.5</ele><time>2026-05-01T06:37:38.999Z</time></trkpt><trkpt lat="39.764880046968955" lon="8.582407330679738"><ele>11.0</ele><time>2026-05-01T06:37:39.999Z</time></trkpt><trkpt lat="39.764731432084105" lon="8.582406109711403"><ele>11.5</ele><time>2026-05-01T06:37:40.999Z</time></trkpt><trkpt lat="39.76458399921375" lon="8.582406814629076"><ele>12.0</ele><time>2026-05-01T06:37:41.999Z</time></trkpt><trkpt lat="39.7644346335864" lon="8.58240897177489"><ele>11.5</ele><time>2026-05-01T06:37:42.999Z</time></trkpt><trkpt lat="39.76428410173121" lon="8.582409711531316"><ele>11.0</ele><time>2026-05-01T06:37:43.999Z</time></trkpt><trkpt lat="39.764134971609735" lon="8.582413916627052"><ele>10.5</ele><time>2026-05-01T06:37:44.999Z</time></trkpt><trkpt lat="39.76398576646154" lon="8.582416842602097"><ele>10.0</ele><time>2026-05-01T06:37:45.999Z</time></trkpt><trkpt lat="39.76383541871185" lon="8.582418564214555"><ele>10.0</ele><time>2026-05-01T06:37:46.999Z</time></trkpt><trkpt lat="39.76368545755656" lon="8.582418863075556"><ele>10.0</ele><time>2026-05-01T06:37:47.999Z</time></trkpt><trkpt lat="39.763534262024486" lon="8.58241951397027"><ele>10.0</ele><time>2026-05-01T06:37:48.999Z</time></trkpt><trkpt lat="39.76338525382768" lon="8.582418803323984"><ele>9.333333333333334</ele><time>2026-05-01T06:37:49.999Z</time></trkpt><trkpt lat="39.763235498701064" lon="8.582422682298484"><ele>8.666666666666666</ele><time>2026-05-01T06:37:50.999Z</time></trkpt><trkpt lat="39.76308611574438" lon="8.582427790532133"><ele>8.0</ele><time>2026-05-01T06:37:51.999Z</time></trkpt><trkpt lat="39.7629348949386" lon="8.582428153563663"><ele>8.0</ele><time>2026-05-01T06:37:52.999Z</time></trkpt><trkpt lat="39.76278518628461" lon="8.58242612840602"><ele>8.0</ele><time>2026-05-01T06:37:53.999Z</time></trkpt><trkpt lat="39.762637216859005" lon="8.582424847883987"><ele>8.0</ele><time>2026-05-01T06:37:54.999Z</time></trkpt><trkpt lat="39.76248742276581" lon="8.582427791463305"><ele>8.0</ele><time>2026-05-01T06:37:55.999Z</time></trkpt><trkpt lat="39.76233980921691" lon="8.582431228272142"><ele>8.0</ele><time>2026-05-01T06:37:56.999Z</time></trkpt><trkpt lat="39.76219046104553" lon="8.582434263360305"><ele>8.0</ele><time>2026-05-01T06:37:57.999Z</time></trkpt><trkpt lat="39.76204176752275" lon="8.582437184981206"><ele>8.0</ele><time>2026-05-01T06:37:58.999Z</time></trkpt><trkpt lat="39.76189578907407" lon="8.582441097700576"><ele>8.0</ele><time>2026-05-01T06:37:59.999Z</time></trkpt><trkpt lat="39.76175427982518" lon="8.582440885699544"><ele>8.0</ele><time>2026-05-01T06:38:00.999Z</time></trkpt><trkpt lat="39.761613549808054" lon="8.58244213823419"><ele>8.0</ele><time>2026-05-01T06:38:01.999Z</time></trkpt><trkpt lat="39.761472961908396" lon="8.58244464732734"><ele>8.0</ele><time>2026-05-01T06:38:02.999Z</time></trkpt><trkpt lat="39.7613339764391" lon="8.582445643392088"><ele>8.0</ele><time>2026-05-01T06:38:03.999Z</time></trkpt><trkpt lat="39.76119672895363" lon="8.582445485580843"><ele>8.0</ele><time>2026-05-01T06:38:04.999Z</time></trkpt><trkpt lat="39.76106352157123" lon="8.582445256996222"><ele>8.0</ele><time>2026-05-01T06:38:05.999Z</time></trkpt><trkpt lat="39.76093305926798" lon="8.582447337793784"><ele>8.0</ele><time>2026-05-01T06:38:06.999Z</time></trkpt><trkpt lat="39.76080060958362" lon="8.582450642681524"><ele>8.0</ele><time>2026-05-01T06:38:07.999Z</time></trkpt><trkpt lat="39.76066444020282" lon="8.582452290679276"><ele>8.0</ele><time>2026-05-01T06:38:08.999Z</time></trkpt><trkpt lat="39.76052447775484" lon="8.582450941441605"><ele>8.0</ele><time>2026-05-01T06:38:09.999Z</time></trkpt><trkpt lat="39.7603837370752" lon="8.582454465810246"><ele>8.0</ele><time>2026-05-01T06:38:10.999Z</time></trkpt><trkpt lat="39.760240118754716" lon="8.582455655406958"><ele>8.0</ele><time>2026-05-01T06:38:11.999Z</time></trkpt><trkpt lat="39.76009702760002" lon="8.582454610714304"><ele>8.75</ele><time>2026-05-01T06:38:12.999Z</time></trkpt><trkpt lat="39.7599513862335" lon="8.582456170449309"><ele>9.5</ele><time>2026-05-01T06:38:13.999Z</time></trkpt><trkpt lat="39.75980654722417" lon="8.582457285718117"><ele>10.25</ele><time>2026-05-01T06:38:14.999Z</time></trkpt><trkpt lat="39.7596613845007" lon="8.582459353119964"><ele>11.0</ele><time>2026-05-01T06:38:15.999Z</time></trkpt><trkpt lat="39.75951575220914" lon="8.58246160259793"><ele>11.0</ele><time>2026-05-01T06:38:16.999Z</time></trkpt><trkpt lat="39.7593713597259" lon="8.582462633117629"><ele>11.0</ele><time>2026-05-01T06:38:17.999Z</time></trkpt><trkpt lat="39.759224834873876" lon="8.582460728862959"><ele>11.0</ele><time>2026-05-01T06:38:18.999Z</time></trkpt><trkpt lat="39.759084696581" lon="8.582467345639134"><ele>11.0</ele><time>2026-05-01T06:38:19.999Z</time></trkpt><trkpt lat="39.758945080513506" lon="8.582472331166326"><ele>10.5</ele><time>2026-05-01T06:38:20.999Z</time></trkpt><trkpt lat="39.75880259497646" lon="8.582463551108537"><ele>10.0</ele><time>2026-05-01T06:38:21.999Z</time></trkpt><trkpt lat="39.758662385442804" lon="8.582460747834492"><ele>9.5</ele><time>2026-05-01T06:38:22.999Z</time></trkpt><trkpt lat="39.758520346961454" lon="8.582463907249203"><ele>9.0</ele><time>2026-05-01T06:38:24Z</time></trkpt><trkpt lat="39.75838040692501" lon="8.582466198325108"><ele>9.0</ele><time>2026-05-01T06:38:25Z</time></trkpt><trkpt lat="39.75824253481462" lon="8.582473471619837"><ele>9.0</ele><time>2026-05-01T06:38:26Z</time></trkpt><trkpt lat="39.758103178442454" lon="8.582477308771821"><ele>9.0</ele><time>2026-05-01T06:38:27Z</time></trkpt><trkpt lat="39.75796989871444" lon="8.582468576768509"><ele>9.0</ele><time>2026-05-01T06:38:28Z</time></trkpt><trkpt lat="39.75784658019236" lon="8.582446536493283"><ele>9.0</ele><time>2026-05-01T06:38:29Z</time></trkpt><trkpt lat="39.75773169419276" lon="8.582401531404798"><ele>9.0</ele><time>2026-05-01T06:38:30Z</time></trkpt><trkpt lat="39.757618172521504" lon="8.582324925606606"><ele>9.0</ele><time>2026-05-01T06:38:31Z</time></trkpt><trkpt lat="39.75751334709432" lon="8.582248207588382"><ele>9.0</ele><time>2026-05-01T06:38:32Z</time></trkpt><trkpt lat="39.75740796294659" lon="8.58220642981219"><ele>9.0</ele><time>2026-05-01T06:38:33Z</time></trkpt><trkpt lat="39.75730301373671" lon="8.582188842085596"><ele>9.0</ele><time>2026-05-01T06:38:34Z</time></trkpt><trkpt lat="39.75719275179861" lon="8.582253262394156"><ele>9.0</ele><time>2026-05-01T06:38:35Z</time></trkpt><trkpt lat="39.75709229663588" lon="8.582328714189337"><ele>9.0</ele><time>2026-05-01T06:38:36Z</time></trkpt><trkpt lat="39.757036690986375" lon="8.582431615779658"><ele>9.0</ele><time>2026-05-01T06:38:37Z</time></trkpt><trkpt lat="39.75692276308498" lon="8.582461740611159"><ele>9.0</ele><time>2026-05-01T06:38:38Z</time></trkpt><trkpt lat="39.75680939799661" lon="8.582481661801658"><ele>9.0</ele><time>2026-05-01T06:38:39Z</time></trkpt><trkpt lat="39.75668861468547" lon="8.58250858242973"><ele>9.0</ele><time>2026-05-01T06:38:40Z</time></trkpt><trkpt lat="39.75655299927754" lon="8.582482795456498"><ele>9.0</ele><time>2026-05-01T06:38:41Z</time></trkpt><trkpt lat="39.75642116209973" lon="8.582478433905193"><ele>9.0</ele><time>2026-05-01T06:38:42Z</time></trkpt><trkpt lat="39.756289219735365" lon="8.582477421657261"><ele>9.0</ele><time>2026-05-01T06:38:43Z</time></trkpt><trkpt lat="39.75614849434988" lon="8.58248236939239"><ele>9.0</ele><time>2026-05-01T06:38:44Z</time></trkpt><trkpt lat="39.756000920788615" lon="8.582482267882417"><ele>9.0</ele><time>2026-05-01T06:38:45Z</time></trkpt><trkpt lat="39.75585150639925" lon="8.582481301989489"><ele>9.0</ele><time>2026-05-01T06:38:46Z</time></trkpt><trkpt lat="39.75570148382479" lon="8.582481101484543"><ele>9.0</ele><time>2026-05-01T06:38:47Z</time></trkpt><trkpt lat="39.75555072990692" lon="8.582479870865795"><ele>9.0</ele><time>2026-05-01T06:38:48Z</time></trkpt><trkpt lat="39.75539973160746" lon="8.582477975040964"><ele>9.0</ele><time>2026-05-01T06:38:49Z</time></trkpt><trkpt lat="39.75524748243871" lon="8.582477830445109"><ele>9.0</ele><time>2026-05-01T06:38:50Z</time></trkpt><trkpt lat="39.75509713691212" lon="8.582478502149423"><ele>9.0</ele><time>2026-05-01T06:38:51Z</time></trkpt><trkpt lat="39.75494408961292" lon="8.58247840326851"><ele>9.0</ele><time>2026-05-01T06:38:52Z</time></trkpt><trkpt lat="39.75479120988167" lon="8.582475497212313"><ele>9.0</ele><time>2026-05-01T06:38:53Z</time></trkpt><trkpt lat="39.754639634845255" lon="8.582475404111877"><ele>9.0</ele><time>2026-05-01T06:38:54Z</time></trkpt><trkpt lat="39.7544890253773" lon="8.582476132907587"><ele>9.333333333333334</ele><time>2026-05-01T06:38:55Z</time></trkpt><trkpt lat="39.75433739927646" lon="8.582476678487058"><ele>9.666666666666668</ele><time>2026-05-01T06:38:56Z</time></trkpt><trkpt lat="39.75418584186931" lon="8.5824788661343"><ele>10.0</ele><time>2026-05-01T06:38:57Z</time></trkpt><trkpt lat="39.75403415301889" lon="8.582481177849301"><ele>10.0</ele><time>2026-05-01T06:38:58Z</time></trkpt><trkpt lat="39.75388011339155" lon="8.582480532880696"><ele>10.0</ele><time>2026-05-01T06:38:59Z</time></trkpt><trkpt lat="39.75372793575789" lon="8.582483353255316"><ele>10.0</ele><time>2026-05-01T06:39:00Z</time></trkpt><trkpt lat="39.75357522007087" lon="8.582486639212792"><ele>10.0</ele><time>2026-05-01T06:39:01Z</time></trkpt><trkpt lat="39.753419597958114" lon="8.582490011545186"><ele>10.0</ele><time>2026-05-01T06:39:02Z</time></trkpt><trkpt lat="39.75326438129459" lon="8.582491999770935"><ele>10.0</ele><time>2026-05-01T06:39:03Z</time></trkpt><trkpt lat="39.75310876822489" lon="8.582492130257434"><ele>10.0</ele><time>2026-05-01T06:39:04Z</time></trkpt><trkpt lat="39.75295416123992" lon="8.582492857258469"><ele>10.0</ele><time>2026-05-01T06:39:05Z</time></trkpt><trkpt lat="39.75279794762694" lon="8.58249376884265"><ele>10.0</ele><time>2026-05-01T06:39:06Z</time></trkpt><trkpt lat="39.75264371348458" lon="8.582495848719256"><ele>10.0</ele><time>2026-05-01T06:39:07Z</time></trkpt><trkpt lat="39.7524903043005" lon="8.582492204115995"><ele>10.0</ele><time>2026-05-01T06:39:08Z</time></trkpt><trkpt lat="39.75233930879856" lon="8.582493921469915"><ele>10.0</ele><time>2026-05-01T06:39:09Z</time></trkpt><trkpt lat="39.752187477690505" lon="8.582495726341628"><ele>10.0</ele><time>2026-05-01T06:39:10Z</time></trkpt><trkpt lat="39.75203585002216" lon="8.582500978517675"><ele>10.0</ele><time>2026-05-01T06:39:11Z</time></trkpt><trkpt lat="39.751888040403465" lon="8.582505150900227"><ele>10.0</ele><time>2026-05-01T06:39:12Z</time></trkpt><trkpt lat="39.75173787608155" lon="8.582508930180817"><ele>9.333333333333334</ele><time>2026-05-01T06:39:13Z</time></trkpt><trkpt lat="39.75158735653992" lon="8.582514529749906"><ele>8.666666666666666</ele><time>2026-05-01T06:39:14Z</time></trkpt><trkpt lat="39.75143770085923" lon="8.582520081921663"><ele>8.0</ele><time>2026-05-01T06:39:15Z</time></trkpt><trkpt lat="39.751286929193014" lon="8.58251944479636"><ele>8.0</ele><time>2026-05-01T06:39:16Z</time></trkpt><trkpt lat="39.75113615516896" lon="8.582520791021043"><ele>8.0</ele><time>2026-05-01T06:39:17Z</time></trkpt><trkpt lat="39.750986273010184" lon="8.582527927755482"><ele>8.0</ele><time>2026-05-01T06:39:18Z</time></trkpt><trkpt lat="39.75084053268633" lon="8.582535676395679"><ele>8.0</ele><time>2026-05-01T06:39:19Z</time></trkpt><trkpt lat="39.750698054188184" lon="8.582540616400514"><ele>8.0</ele><time>2026-05-01T06:39:20Z</time></trkpt><trkpt lat="39.75056202360945" lon="8.582545103048721"><ele>8.0</ele><time>2026-05-01T06:39:21Z</time></trkpt><trkpt lat="39.75043597388131" lon="8.58254761114035"><ele>8.0</ele><time>2026-05-01T06:39:22Z</time></trkpt><trkpt lat="39.750324327013985" lon="8.582547723371936"><ele>8.0</ele><time>2026-05-01T06:39:23Z</time></trkpt><trkpt lat="39.75022693965722" lon="8.582535618332484"><ele>8.0</ele><time>2026-05-01T06:39:24Z</time></trkpt><trkpt lat="39.750132764149534" lon="8.58250338738055"><ele>8.0</ele><time>2026-05-01T06:39:25Z</time></trkpt><trkpt lat="39.75004571939245" lon="8.582446307465794"><ele>8.0</ele><time>2026-05-01T06:39:26Z</time></trkpt><trkpt lat="39.74994565722553" lon="8.582436962647522"><ele>8.0</ele><time>2026-05-01T06:39:27Z</time></trkpt><trkpt lat="39.74983346254959" lon="8.582473109073684"><ele>8.0</ele><time>2026-05-01T06:39:28Z</time></trkpt><trkpt lat="39.74971280264042" lon="8.58252558294937"><ele>8.0</ele><time>2026-05-01T06:39:29Z</time></trkpt><trkpt lat="39.74958116113722" lon="8.582544601838197"><ele>8.0</ele><time>2026-05-01T06:39:29.999Z</time></trkpt><trkpt lat="39.74943671543932" lon="8.582543935869221"><ele>8.0</ele><time>2026-05-01T06:39:30.999Z</time></trkpt><trkpt lat="39.74928684017934" lon="8.582545577584876"><ele>8.0</ele><time>2026-05-01T06:39:31.999Z</time></trkpt><trkpt lat="39.74913192409596" lon="8.582534059819862"><ele>8.666666666666666</ele><time>2026-05-01T06:39:32.999Z</time></trkpt><trkpt lat="39.74897569268682" lon="8.582525742411791"><ele>9.333333333333334</ele><time>2026-05-01T06:39:33.999Z</time></trkpt><trkpt lat="39.74881188386534" lon="8.582528943613884"><ele>10.0</ele><time>2026-05-01T06:39:34.999Z</time></trkpt><trkpt lat="39.74864210202604" lon="8.582528332860113"><ele>10.333333333333334</ele><time>2026-05-01T06:39:35.999Z</time></trkpt><trkpt lat="39.74847086249643" lon="8.582519778354325"><ele>10.666666666666666</ele><time>2026-05-01T06:39:36.999Z</time></trkpt><trkpt lat="39.74829845184945" lon="8.582513198243129"><ele>11.0</ele><time>2026-05-01T06:39:37.999Z</time></trkpt><trkpt lat="39.74812570658859" lon="8.582518810749674"><ele>11.0</ele><time>2026-05-01T06:39:38.999Z</time></trkpt><trkpt lat="39.747953850964784" lon="8.58252391646182"><ele>11.0</ele><time>2026-05-01T06:39:39.999Z</time></trkpt><trkpt lat="39.74778696625529" lon="8.582523153671612"><ele>11.0</ele><time>2026-05-01T06:39:40.999Z</time></trkpt><trkpt lat="39.74762176982637" lon="8.582528871371759"><ele>11.333333333333332</ele><time>2026-05-01T06:39:41.999Z</time></trkpt><trkpt lat="39.74745921870175" lon="8.58253332002335"><ele>11.666666666666666</ele><time>2026-05-01T06:39:42.999Z</time></trkpt><trkpt lat="39.74730253141833" lon="8.582535016167812"><ele>12.0</ele><time>2026-05-01T06:39:43.999Z</time></trkpt><trkpt lat="39.74714887966656" lon="8.582534855707031"><ele>12.0</ele><time>2026-05-01T06:39:44.999Z</time></trkpt><trkpt lat="39.7469942113262" lon="8.582540020051423"><ele>12.0</ele><time>2026-05-01T06:39:45.999Z</time></trkpt><trkpt lat="39.746837996161275" lon="8.582543703695967"><ele>12.0</ele><time>2026-05-01T06:39:46.999Z</time></trkpt><trkpt lat="39.746680013889524" lon="8.582545375186257"><ele>11.666666666666666</ele><time>2026-05-01T06:39:47.999Z</time></trkpt><trkpt lat="39.74651995625697" lon="8.582545551202237"><ele>11.333333333333332</ele><time>2026-05-01T06:39:48.999Z</time></trkpt><trkpt lat="39.7463574463914" lon="8.58254509359738"><ele>11.0</ele><time>2026-05-01T06:39:49.999Z</time></trkpt><trkpt lat="39.746192023093414" lon="8.58254581764172"><ele>11.333333333333332</ele><time>2026-05-01T06:39:50.999Z</time></trkpt><trkpt lat="39.746027367167045" lon="8.582545806718617"><ele>11.666666666666666</ele><time>2026-05-01T06:39:51.999Z</time></trkpt><trkpt lat="39.74586364536971" lon="8.582543345078761"><ele>12.0</ele><time>2026-05-01T06:39:52.999Z</time></trkpt><trkpt lat="39.74569970770722" lon="8.582541545811539"><ele>12.0</ele><time>2026-05-01T06:39:53.999Z</time></trkpt><trkpt lat="39.74553587996783" lon="8.582540496126152"><ele>12.0</ele><time>2026-05-01T06:39:54.999Z</time></trkpt><trkpt lat="39.74537178236162" lon="8.582541122687099"><ele>12.0</ele><time>2026-05-01T06:39:55.999Z</time></trkpt><trkpt lat="39.745208034592615" lon="8.582540982979852"><ele>12.0</ele><time>2026-05-01T06:39:56.999Z</time></trkpt><trkpt lat="39.74504483112359" lon="8.58254217273149"><ele>12.0</ele><time>2026-05-01T06:39:57.999Z</time></trkpt><trkpt lat="39.744880942912125" lon="8.58254517708455"><ele>12.0</ele><time>2026-05-01T06:39:58.999Z</time></trkpt><trkpt lat="39.744719197553884" lon="8.582547796852422"><ele>12.0</ele><time>2026-05-01T06:39:59.999Z</time></trkpt><trkpt lat="39.74455432942483" lon="8.582548736152368"><ele>12.0</ele><time>2026-05-01T06:40:00.999Z</time></trkpt><trkpt lat="39.74438868329345" lon="8.5825476376453"><ele>12.0</ele><time>2026-05-01T06:40:01.999Z</time></trkpt><trkpt lat="39.74422616005848" lon="8.582547992897616"><ele>12.333333333333332</ele><time>2026-05-01T06:40:02.999Z</time></trkpt><trkpt lat="39.744059917040346" lon="8.582549682907503"><ele>12.666666666666666</ele><time>2026-05-01T06:40:03.999Z</time></trkpt><trkpt lat="39.743898085517124" lon="8.5825480207804"><ele>13.0</ele><time>2026-05-01T06:40:04.999Z</time></trkpt><trkpt lat="39.74373553903905" lon="8.582549633663186"><ele>13.0</ele><time>2026-05-01T06:40:05.999Z</time></trkpt><trkpt lat="39.743571055606104" lon="8.5825509417321"><ele>13.0</ele><time>2026-05-01T06:40:06.999Z</time></trkpt><trkpt lat="39.743407011159796" lon="8.58255153737967"><ele>13.0</ele><time>2026-05-01T06:40:07.999Z</time></trkpt><trkpt lat="39.74324473506022" lon="8.58255216135148"><ele>12.666666666666666</ele><time>2026-05-01T06:40:08.999Z</time></trkpt><trkpt lat="39.74308104645136" lon="8.582553008757882"><ele>12.333333333333332</ele><time>2026-05-01T06:40:09.999Z</time></trkpt><trkpt lat="39.74291767132578" lon="8.582554459995729"><ele>12.0</ele><time>2026-05-01T06:40:10.999Z</time></trkpt><trkpt lat="39.742753357955614" lon="8.582555181446958"><ele>11.333333333333334</ele><time>2026-05-01T06:40:11.999Z</time></trkpt><trkpt lat="39.74258713395089" lon="8.58255589103702"><ele>10.666666666666668</ele><time>2026-05-01T06:40:12.999Z</time></trkpt><trkpt lat="39.74241894044112" lon="8.582555048308564"><ele>10.0</ele><time>2026-05-01T06:40:13.999Z</time></trkpt><trkpt lat="39.74225244964684" lon="8.5825553313405"><ele>10.0</ele><time>2026-05-01T06:40:14.999Z</time></trkpt><trkpt lat="39.74208520355749" lon="8.582557156179321"><ele>10.0</ele><time>2026-05-01T06:40:15.999Z</time></trkpt><trkpt lat="39.74191805142407" lon="8.582560434100873"><ele>10.0</ele><time>2026-05-01T06:40:16.999Z</time></trkpt><trkpt lat="39.741752320932456" lon="8.582560959424152"><ele>10.0</ele><time>2026-05-01T06:40:17.999Z</time></trkpt><trkpt lat="39.74158813137229" lon="8.582562795628084"><ele>10.0</ele><time>2026-05-01T06:40:18.999Z</time></trkpt><trkpt lat="39.74142273021817" lon="8.582566612735475"><ele>10.0</ele><time>2026-05-01T06:40:19.999Z</time></trkpt><trkpt lat="39.741258596872626" lon="8.58256974430838"><ele>10.0</ele><time>2026-05-01T06:40:20.999Z</time></trkpt><trkpt lat="39.74109561009492" lon="8.58257083194094"><ele>10.0</ele><time>2026-05-01T06:40:21.999Z</time></trkpt><trkpt lat="39.74093221934411" lon="8.582574574496967"><ele>10.0</ele><time>2026-05-01T06:40:22.999Z</time></trkpt><trkpt lat="39.740770084044435" lon="8.582575615778433"><ele>10.0</ele><time>2026-05-01T06:40:23.999Z</time></trkpt><trkpt lat="39.74060683619644" lon="8.582578138044436"><ele>10.0</ele><time>2026-05-01T06:40:24.999Z</time></trkpt><trkpt lat="39.74044293480695" lon="8.582577361395707"><ele>10.0</ele><time>2026-05-01T06:40:25.999Z</time></trkpt><trkpt lat="39.740278210814665" lon="8.582576640214102"><ele>10.333333333333334</ele><time>2026-05-01T06:40:26.999Z</time></trkpt><trkpt lat="39.74011378310716" lon="8.582576074114359"><ele>10.666666666666666</ele><time>2026-05-01T06:40:27.999Z</time></trkpt><trkpt lat="39.73994893326492" lon="8.582577123186832"><ele>11.0</ele><time>2026-05-01T06:40:28.999Z</time></trkpt><trkpt lat="39.73978252941889" lon="8.582577435728284"><ele>11.0</ele><time>2026-05-01T06:40:30Z</time></trkpt><trkpt lat="39.73961628765652" lon="8.582579287616452"><ele>11.0</ele><time>2026-05-01T06:40:31Z</time></trkpt><trkpt lat="39.739450320135035" lon="8.582577305342939"><ele>11.0</ele><time>2026-05-01T06:40:32Z</time></trkpt><trkpt lat="39.739289731713406" lon="8.582578691492282"><ele>11.333333333333332</ele><time>2026-05-01T06:40:33Z</time></trkpt><trkpt lat="39.73912583569325" lon="8.582582199455526"><ele>11.666666666666666</ele><time>2026-05-01T06:40:34Z</time></trkpt><trkpt lat="39.73896213600008" lon="8.582579212875002"><ele>12.0</ele><time>2026-05-01T06:40:35Z</time></trkpt><trkpt lat="39.738802638734654" lon="8.582589960291935"><ele>12.0</ele><time>2026-05-01T06:40:36Z</time></trkpt><trkpt lat="39.73865097733538" lon="8.582593328528736"><ele>12.0</ele><time>2026-05-01T06:40:37Z</time></trkpt><trkpt lat="39.73849669530119" lon="8.582591146171517"><ele>12.0</ele><time>2026-05-01T06:40:38Z</time></trkpt><trkpt lat="39.73834270087921" lon="8.582588367461776"><ele>11.333333333333334</ele><time>2026-05-01T06:40:39Z</time></trkpt><trkpt lat="39.73818797976217" lon="8.582590087508358"><ele>10.666666666666668</ele><time>2026-05-01T06:40:40Z</time></trkpt><trkpt lat="39.73803490462072" lon="8.58259191759733"><ele>10.0</ele><time>2026-05-01T06:40:41Z</time></trkpt><trkpt lat="39.73788213132729" lon="8.58259195268503"><ele>10.0</ele><time>2026-05-01T06:40:42Z</time></trkpt><trkpt lat="39.737729963058655" lon="8.582594276530363"><ele>10.0</ele><time>2026-05-01T06:40:43Z</time></trkpt><trkpt lat="39.73757729092304" lon="8.582598008329779"><ele>10.0</ele><time>2026-05-01T06:40:44Z</time></trkpt><trkpt lat="39.7374243014136" lon="8.582599934470085"><ele>10.333333333333334</ele><time>2026-05-01T06:40:45Z</time></trkpt><trkpt lat="39.737271891979915" lon="8.582601334359074"><ele>10.666666666666666</ele><time>2026-05-01T06:40:46Z</time></trkpt><trkpt lat="39.737117879872365" lon="8.582601534560846"><ele>11.0</ele><time>2026-05-01T06:40:47Z</time></trkpt><trkpt lat="39.7369629894002" lon="8.582603748987912"><ele>10.666666666666666</ele><time>2026-05-01T06:40:48Z</time></trkpt><trkpt lat="39.73680950664062" lon="8.582604027963683"><ele>10.333333333333334</ele><time>2026-05-01T06:40:49Z</time></trkpt><trkpt lat="39.73665479814288" lon="8.58260570125884"><ele>10.0</ele><time>2026-05-01T06:40:50Z</time></trkpt><trkpt lat="39.7365005747911" lon="8.582604684924277"><ele>10.0</ele><time>2026-05-01T06:40:51Z</time></trkpt><trkpt lat="39.7363454010876" lon="8.582601970876699"><ele>10.0</ele><time>2026-05-01T06:40:52Z</time></trkpt><trkpt lat="39.73619772355102" lon="8.582601585868087"><ele>10.0</ele><time>2026-05-01T06:40:53Z</time></trkpt><trkpt lat="39.736066982581875" lon="8.582599978876594"><ele>10.0</ele><time>2026-05-01T06:40:54Z</time></trkpt><trkpt lat="39.735942636166456" lon="8.582596743826043"><ele>10.0</ele><time>2026-05-01T06:40:55Z</time></trkpt><trkpt lat="39.73583193695451" lon="8.582569906228848"><ele>10.0</ele><time>2026-05-01T06:40:56Z</time></trkpt><trkpt lat="39.73573771935854" lon="8.582517503626818"><ele>10.0</ele><time>2026-05-01T06:40:57Z</time></trkpt><trkpt lat="39.73567604291095" lon="8.582453939171284"><ele>10.0</ele><time>2026-05-01T06:40:58Z</time></trkpt><trkpt lat="39.73564077569418" lon="8.582364571270762"><ele>10.0</ele><time>2026-05-01T06:40:59Z</time></trkpt><trkpt lat="39.735630310669016" lon="8.582240645186014"><ele>10.0</ele><time>2026-05-01T06:41:00Z</time></trkpt><trkpt lat="39.73563504416275" lon="8.58208825061211"><ele>10.0</ele><time>2026-05-01T06:41:01Z</time></trkpt><trkpt lat="39.73563345656295" lon="8.581922444384823"><ele>10.0</ele><time>2026-05-01T06:41:02Z</time></trkpt><trkpt lat="39.73563280408742" lon="8.581749542411636"><ele>10.0</ele><time>2026-05-01T06:41:03Z</time></trkpt><trkpt lat="39.735631972768424" lon="8.581567811824794"><ele>10.0</ele><time>2026-05-01T06:41:04Z</time></trkpt><trkpt lat="39.735630993500635" lon="8.581377202543948"><ele>10.0</ele><time>2026-05-01T06:41:05Z</time></trkpt><trkpt lat="39.73562755792832" lon="8.581177067964433"><ele>10.0</ele><time>2026-05-01T06:41:06Z</time></trkpt><trkpt lat="39.73562752293969" lon="8.580974460589239"><ele>10.0</ele><time>2026-05-01T06:41:07Z</time></trkpt><trkpt lat="39.73562674428396" lon="8.58078144630813"><ele>10.0</ele><time>2026-05-01T06:41:08Z</time></trkpt><trkpt lat="39.73562406522008" lon="8.580581856734444"><ele>10.0</ele><time>2026-05-01T06:41:09Z</time></trkpt><trkpt lat="39.73562155926007" lon="8.58037671576008"><ele>10.0</ele><time>2026-05-01T06:41:10Z</time></trkpt><trkpt lat="39.735621752048566" lon="8.58017102016051"><ele>10.0</ele><time>2026-05-01T06:41:11Z</time></trkpt><trkpt lat="39.73562104136138" lon="8.57996225762829"><ele>10.0</ele><time>2026-05-01T06:41:12Z</time></trkpt><trkpt lat="39.73562093801178" lon="8.579751895605272"><ele>10.0</ele><time>2026-05-01T06:41:13Z</time></trkpt><trkpt lat="39.73562021551832" lon="8.579539448984328"><ele>10.0</ele><time>2026-05-01T06:41:14Z</time></trkpt><trkpt lat="39.73561858156846" lon="8.57932562893704"><ele>10.0</ele><time>2026-05-01T06:41:15Z</time></trkpt><trkpt lat="39.7356187376761" lon="8.579112355326712"><ele>10.0</ele><time>2026-05-01T06:41:16Z</time></trkpt><trkpt lat="39.73561906073187" lon="8.578904561146114"><ele>10.0</ele><time>2026-05-01T06:41:17Z</time></trkpt><trkpt lat="39.735618921651046" lon="8.578697896500218"><ele>10.0</ele><time>2026-05-01T06:41:18Z</time></trkpt><trkpt lat="39.73561844724285" lon="8.57849527013346"><ele>10.0</ele><time>2026-05-01T06:41:19Z</time></trkpt><trkpt lat="39.7356183271334" lon="8.578292460981062"><ele>10.0</ele><time>2026-05-01T06:41:20Z</time></trkpt><trkpt lat="39.73561672102916" lon="8.578091601742964"><ele>10.0</ele><time>2026-05-01T06:41:21Z</time></trkpt><trkpt lat="39.73561691102685" lon="8.57789073142844"><ele>9.666666666666668</ele><time>2026-05-01T06:41:22Z</time></trkpt><trkpt lat="39.73561306727131" lon="8.577689533456248"><ele>9.333333333333334</ele><time>2026-05-01T06:41:23Z</time></trkpt><trkpt lat="39.73561133806858" lon="8.577485248336886"><ele>9.0</ele><time>2026-05-01T06:41:24Z</time></trkpt><trkpt lat="39.73561056759431" lon="8.57728359814988"><ele>9.0</ele><time>2026-05-01T06:41:25Z</time></trkpt><trkpt lat="39.735610388936095" lon="8.57708318734594"><ele>9.0</ele><time>2026-05-01T06:41:26Z</time></trkpt><trkpt lat="39.73560984129031" lon="8.576886254853756"><ele>9.0</ele><time>2026-05-01T06:41:27Z</time></trkpt><trkpt lat="39.73561118392623" lon="8.576704857832539"><ele>9.0</ele><time>2026-05-01T06:41:28Z</time></trkpt><trkpt lat="39.735612499241434" lon="8.576571211868849"><ele>8.8</ele><time>2026-05-01T06:41:29Z</time></trkpt><trkpt lat="39.73562160585023" lon="8.576487509671518"><ele>8.600000000000001</ele><time>2026-05-01T06:41:30Z</time></trkpt><trkpt lat="39.73552892866133" lon="8.57650683131048"><ele>8.4</ele><time>2026-05-01T06:41:34.999Z</time></trkpt><trkpt lat="39.73538248644508" lon="8.57650148484099"><ele>8.200000000000001</ele><time>2026-05-01T06:41:36.999Z</time></trkpt><trkpt lat="39.73527512709936" lon="8.576497586079821"><ele>8.0</ele><time>2026-05-01T06:41:37.999Z</time></trkpt><trkpt lat="39.73515398147756" lon="8.576494179305252"><ele>8.0</ele><time>2026-05-01T06:41:38.999Z</time></trkpt><trkpt lat="39.735033040713525" lon="8.576497625684068"><ele>8.0</ele><time>2026-05-01T06:41:39.999Z</time></trkpt><trkpt lat="39.73491333706398" lon="8.576503658996712"><ele>8.0</ele><time>2026-05-01T06:41:40.999Z</time></trkpt><trkpt lat="39.73479556557188" lon="8.576504676535086"><ele>8.0</ele><time>2026-05-01T06:41:41.999Z</time></trkpt><trkpt lat="39.734676664288685" lon="8.576503891120598"><ele>8.0</ele><time>2026-05-01T06:41:42.999Z</time></trkpt><trkpt lat="39.73455481400454" lon="8.57650105616485"><ele>8.0</ele><time>2026-05-01T06:41:43.999Z</time></trkpt><trkpt lat="39.734431620895535" lon="8.57649874838192"><ele>8.0</ele><time>2026-05-01T06:41:44.999Z</time></trkpt><trkpt lat="39.73431471600085" lon="8.576494756245609"><ele>8.0</ele><time>2026-05-01T06:41:45.999Z</time></trkpt><trkpt lat="39.734199949976635" lon="8.576493891219583"><ele>8.25</ele><time>2026-05-01T06:41:46.999Z</time></trkpt><trkpt lat="39.734094089988176" lon="8.576490040716394"><ele>8.5</ele><time>2026-05-01T06:41:47.999Z</time></trkpt><trkpt lat="39.73397918111332" lon="8.576487755582148"><ele>8.75</ele><time>2026-05-01T06:41:48.999Z</time></trkpt><trkpt lat="39.733859364734776" lon="8.576489547367547"><ele>9.0</ele><time>2026-05-01T06:41:49.999Z</time></trkpt><trkpt lat="39.733740591070166" lon="8.5764913966228"><ele>9.0</ele><time>2026-05-01T06:41:50.999Z</time></trkpt><trkpt lat="39.73362646069646" lon="8.57649076604885"><ele>9.0</ele><time>2026-05-01T06:41:51.999Z</time></trkpt><trkpt lat="39.7335172464159" lon="8.576488790508511"><ele>9.0</ele><time>2026-05-01T06:41:52.999Z</time></trkpt><trkpt lat="39.733409062455344" lon="8.576484951127089"><ele>9.0</ele><time>2026-05-01T06:41:53.999Z</time></trkpt><trkpt lat="39.73330891680551" lon="8.576485706844736"><ele>9.0</ele><time>2026-05-01T06:41:54.999Z</time></trkpt><trkpt lat="39.733216586591624" lon="8.576495606032225"><ele>9.0</ele><time>2026-05-01T06:41:55.999Z</time></trkpt><trkpt lat="39.733134379388666" lon="8.576504880326986"><ele>9.0</ele><time>2026-05-01T06:41:56.999Z</time></trkpt><trkpt lat="39.73306371617888" lon="8.57650287393892"><ele>9.0</ele><time>2026-05-01T06:41:57.999Z</time></trkpt><trkpt lat="39.73300355785067" lon="8.57644047827603"><ele>9.0</ele><time>2026-05-01T06:41:59.999Z</time></trkpt><trkpt lat="39.733003736187555" lon="8.576249419179316"><ele>9.0</ele><time>2026-05-01T06:42:01.999Z</time></trkpt><trkpt lat="39.733016356064894" lon="8.576104208750648"><ele>9.0</ele><time>2026-05-01T06:42:02.999Z</time></trkpt><trkpt lat="39.73302179174633" lon="8.575947655469143"><ele>9.0</ele><time>2026-05-01T06:42:03.999Z</time></trkpt><trkpt lat="39.733023128221994" lon="8.575772609747283"><ele>9.0</ele><time>2026-05-01T06:42:04.999Z</time></trkpt><trkpt lat="39.73302236056647" lon="8.575590386089836"><ele>9.0</ele><time>2026-05-01T06:42:05.999Z</time></trkpt><trkpt lat="39.73302108534709" lon="8.575398453722967"><ele>8.333333333333334</ele><time>2026-05-01T06:42:06.999Z</time></trkpt><trkpt lat="39.73302237227526" lon="8.575199490857077"><ele>7.666666666666667</ele><time>2026-05-01T06:42:07.999Z</time></trkpt><trkpt lat="39.733021257374034" lon="8.575000648595665"><ele>7.0</ele><time>2026-05-01T06:42:08.999Z</time></trkpt><trkpt lat="39.73302111778113" lon="8.574805825185605"><ele>7.0</ele><time>2026-05-01T06:42:09.999Z</time></trkpt><trkpt lat="39.73301766794098" lon="8.574605728412452"><ele>7.0</ele><time>2026-05-01T06:42:10.999Z</time></trkpt><trkpt lat="39.73301540806874" lon="8.574403435764223"><ele>7.0</ele><time>2026-05-01T06:42:11.999Z</time></trkpt><trkpt lat="39.7330167767765" lon="8.574205628662757"><ele>7.333333333333334</ele><time>2026-05-01T06:42:12.999Z</time></trkpt><trkpt lat="39.73301636083413" lon="8.57400537402748"><ele>7.666666666666666</ele><time>2026-05-01T06:42:13.999Z</time></trkpt><trkpt lat="39.733014270307415" lon="8.573802258335443"><ele>8.0</ele><time>2026-05-01T06:42:14.999Z</time></trkpt><trkpt lat="39.733014924413204" lon="8.573602500331583"><ele>7.333333333333333</ele><time>2026-05-01T06:42:15.999Z</time></trkpt><trkpt lat="39.73301470629394" lon="8.573402585829006"><ele>6.666666666666666</ele><time>2026-05-01T06:42:16.999Z</time></trkpt><trkpt lat="39.73301166206926" lon="8.573202803003658"><ele>6.0</ele><time>2026-05-01T06:42:17.999Z</time></trkpt><trkpt lat="39.73300895459965" lon="8.573002108178809"><ele>5.333333333333333</ele><time>2026-05-01T06:42:18.999Z</time></trkpt><trkpt lat="39.73300644340146" lon="8.572798321424031"><ele>4.666666666666666</ele><time>2026-05-01T06:42:19.999Z</time></trkpt><trkpt lat="39.73300561244497" lon="8.572594983890749"><ele>4.0</ele><time>2026-05-01T06:42:20.999Z</time></trkpt><trkpt lat="39.7330025331041" lon="8.572389098155154"><ele>4.0</ele><time>2026-05-01T06:42:21.999Z</time></trkpt><trkpt lat="39.7330018324394" lon="8.572182509620852"><ele>4.0</ele><time>2026-05-01T06:42:22.999Z</time></trkpt><trkpt lat="39.733000016426644" lon="8.57198337452991"><ele>4.0</ele><time>2026-05-01T06:42:23.999Z</time></trkpt><trkpt lat="39.73300127022416" lon="8.571799253529742"><ele>4.0</ele><time>2026-05-01T06:42:24.999Z</time></trkpt><trkpt lat="39.73300233506416" lon="8.571631783225097"><ele>4.0</ele><time>2026-05-01T06:42:25.999Z</time></trkpt><trkpt lat="39.73300171656749" lon="8.571475484931122"><ele>4.0</ele><time>2026-05-01T06:42:26.999Z</time></trkpt><trkpt lat="39.732994915566714" lon="8.571333741621672"><ele>4.0</ele><time>2026-05-01T06:42:27.999Z</time></trkpt><trkpt lat="39.7329968024574" lon="8.571205042956873"><ele>4.5</ele><time>2026-05-01T06:42:28.999Z</time></trkpt><trkpt lat="39.733004072842625" lon="8.571056074699072"><ele>5.0</ele><time>2026-05-01T06:42:29.999Z</time></trkpt><trkpt lat="39.733015920400476" lon="8.570899312363359"><ele>5.5</ele><time>2026-05-01T06:42:30.999Z</time></trkpt><trkpt lat="39.733015039143304" lon="8.570716173983982"><ele>6.0</ele><time>2026-05-01T06:42:31.998Z</time></trkpt><trkpt lat="39.73301281534523" lon="8.570524208378137"><ele>5.75</ele><time>2026-05-01T06:42:32.998Z</time></trkpt><trkpt lat="39.733008125458284" lon="8.570334680929717"><ele>5.5</ele><time>2026-05-01T06:42:33.998Z</time></trkpt><trkpt lat="39.73300882249826" lon="8.570148449608773"><ele>5.25</ele><time>2026-05-01T06:42:34.998Z</time></trkpt><trkpt lat="39.73300894924503" lon="8.569962347906744"><ele>5.0</ele><time>2026-05-01T06:42:36Z</time></trkpt><trkpt lat="39.73300789520604" lon="8.569780359247154"><ele>5.0</ele><time>2026-05-01T06:42:37Z</time></trkpt><trkpt lat="39.73300876757321" lon="8.569608022183822"><ele>5.0</ele><time>2026-05-01T06:42:38Z</time></trkpt><trkpt lat="39.733003075560596" lon="8.569441496434798"><ele>5.0</ele><time>2026-05-01T06:42:39Z</time></trkpt><trkpt lat="39.73300200148621" lon="8.569262472464374"><ele>5.0</ele><time>2026-05-01T06:42:40Z</time></trkpt><trkpt lat="39.73300042151874" lon="8.569074496824964"><ele>5.0</ele><time>2026-05-01T06:42:41Z</time></trkpt><trkpt lat="39.73299816867982" lon="8.568880235542379"><ele>5.0</ele><time>2026-05-01T06:42:42Z</time></trkpt><trkpt lat="39.732996525237304" lon="8.568679946982936"><ele>5.0</ele><time>2026-05-01T06:42:43Z</time></trkpt><trkpt lat="39.732994042985545" lon="8.568469300445773"><ele>5.666666666666667</ele><time>2026-05-01T06:42:44Z</time></trkpt><trkpt lat="39.73299142906434" lon="8.568247155737058"><ele>6.333333333333334</ele><time>2026-05-01T06:42:45Z</time></trkpt><trkpt lat="39.73299064973649" lon="8.568023863927708"><ele>7.0</ele><time>2026-05-01T06:42:46Z</time></trkpt><trkpt lat="39.73298942583951" lon="8.567814339987654"><ele>7.333333333333334</ele><time>2026-05-01T06:42:47Z</time></trkpt><trkpt lat="39.732990005991475" lon="8.567614111727575"><ele>7.666666666666666</ele><time>2026-05-01T06:42:48Z</time></trkpt><trkpt lat="39.73298938828695" lon="8.567414180042864"><ele>8.0</ele><time>2026-05-01T06:42:49Z</time></trkpt><trkpt lat="39.73298921353519" lon="8.567208264222556"><ele>7.666666666666666</ele><time>2026-05-01T06:42:50Z</time></trkpt><trkpt lat="39.73298691558038" lon="8.567001934815767"><ele>7.333333333333334</ele><time>2026-05-01T06:42:51Z</time></trkpt><trkpt lat="39.73298690022504" lon="8.566800238791856"><ele>7.0</ele><time>2026-05-01T06:42:52Z</time></trkpt><trkpt lat="39.73298568293885" lon="8.566597886730387"><ele>7.0</ele><time>2026-05-01T06:42:53Z</time></trkpt><trkpt lat="39.732983518905115" lon="8.566395403897019"><ele>7.0</ele><time>2026-05-01T06:42:54Z</time></trkpt><trkpt lat="39.73298168669915" lon="8.56618871922584"><ele>7.0</ele><time>2026-05-01T06:42:55Z</time></trkpt><trkpt lat="39.73297889595606" lon="8.565982394631007"><ele>7.0</ele><time>2026-05-01T06:42:56Z</time></trkpt><trkpt lat="39.73297857084254" lon="8.565772526358487"><ele>7.0</ele><time>2026-05-01T06:42:57Z</time></trkpt><trkpt lat="39.732975712335" lon="8.56556177810976"><ele>7.0</ele><time>2026-05-01T06:42:58Z</time></trkpt><trkpt lat="39.732976707257514" lon="8.56535314573453"><ele>6.666666666666667</ele><time>2026-05-01T06:42:59Z</time></trkpt><trkpt lat="39.73297863238191" lon="8.565143695917463"><ele>6.333333333333334</ele><time>2026-05-01T06:43:00Z</time></trkpt><trkpt lat="39.732980136483704" lon="8.564936270534558"><ele>6.0</ele><time>2026-05-01T06:43:01Z</time></trkpt><trkpt lat="39.732980211860145" lon="8.564728863220255"><ele>6.5</ele><time>2026-05-01T06:43:02Z</time></trkpt><trkpt lat="39.73298075206971" lon="8.564526534248026"><ele>7.0</ele><time>2026-05-01T06:43:03Z</time></trkpt><trkpt lat="39.732981808712616" lon="8.564331696668605"><ele>7.5</ele><time>2026-05-01T06:43:04Z</time></trkpt><trkpt lat="39.73298026157078" lon="8.564146078895842"><ele>8.0</ele><time>2026-05-01T06:43:05Z</time></trkpt><trkpt lat="39.73297598964567" lon="8.563946385228522"><ele>8.0</ele><time>2026-05-01T06:43:06Z</time></trkpt><trkpt lat="39.732968662942625" lon="8.563737420577805"><ele>8.0</ele><time>2026-05-01T06:43:07Z</time></trkpt><trkpt lat="39.732962544546275" lon="8.563527943441295"><ele>8.0</ele><time>2026-05-01T06:43:08Z</time></trkpt><trkpt lat="39.732960020713705" lon="8.563315898888101"><ele>8.0</ele><time>2026-05-01T06:43:09Z</time></trkpt><trkpt lat="39.73296639247376" lon="8.56310808050286"><ele>8.0</ele><time>2026-05-01T06:43:10Z</time></trkpt><trkpt lat="39.7329684156149" lon="8.562903362123656"><ele>8.0</ele><time>2026-05-01T06:43:11Z</time></trkpt><trkpt lat="39.73296612548902" lon="8.56269375761756"><ele>8.0</ele><time>2026-05-01T06:43:12Z</time></trkpt><trkpt lat="39.73296581917755" lon="8.56248216581201"><ele>8.0</ele><time>2026-05-01T06:43:13Z</time></trkpt><trkpt lat="39.73296306060575" lon="8.562273825677332"><ele>8.0</ele><time>2026-05-01T06:43:14Z</time></trkpt><trkpt lat="39.73296214726398" lon="8.562073441473185"><ele>8.25</ele><time>2026-05-01T06:43:15Z</time></trkpt><trkpt lat="39.73296518006571" lon="8.561877895201203"><ele>8.5</ele><time>2026-05-01T06:43:16Z</time></trkpt><trkpt lat="39.73297295252683" lon="8.561704670726554"><ele>8.75</ele><time>2026-05-01T06:43:17Z</time></trkpt><trkpt lat="39.732966323273736" lon="8.56151641971875"><ele>9.0</ele><time>2026-05-01T06:43:18Z</time></trkpt><trkpt lat="39.73295409894406" lon="8.561320606948074"><ele>8.666666666666666</ele><time>2026-05-01T06:43:19Z</time></trkpt><trkpt lat="39.73295004870441" lon="8.561125571805823"><ele>8.333333333333332</ele><time>2026-05-01T06:43:20Z</time></trkpt><trkpt lat="39.73294861223404" lon="8.560929617406597"><ele>8.0</ele><time>2026-05-01T06:43:21Z</time></trkpt><trkpt lat="39.73294781013801" lon="8.560731906787518"><ele>8.0</ele><time>2026-05-01T06:43:22Z</time></trkpt><trkpt lat="39.73294129679918" lon="8.560538323327046"><ele>8.0</ele><time>2026-05-01T06:43:23Z</time></trkpt><trkpt lat="39.732931310909194" lon="8.560346518935445"><ele>8.0</ele><time>2026-05-01T06:43:24Z</time></trkpt><trkpt lat="39.73292143839922" lon="8.560166664697883"><ele>8.0</ele><time>2026-05-01T06:43:25Z</time></trkpt><trkpt lat="39.732921931189615" lon="8.559988081630703"><ele>8.0</ele><time>2026-05-01T06:43:26Z</time></trkpt><trkpt lat="39.73292211453136" lon="8.559818928298505"><ele>8.0</ele><time>2026-05-01T06:43:27Z</time></trkpt><trkpt lat="39.73292193701871" lon="8.559659410548067"><ele>8.0</ele><time>2026-05-01T06:43:28Z</time></trkpt><trkpt lat="39.7329220077516" lon="8.559495461315777"><ele>8.0</ele><time>2026-05-01T06:43:29Z</time></trkpt><trkpt lat="39.73292509267449" lon="8.55933684261681"><ele>8.0</ele><time>2026-05-01T06:43:30Z</time></trkpt><trkpt lat="39.73293769098216" lon="8.559179720130285"><ele>8.0</ele><time>2026-05-01T06:43:31Z</time></trkpt><trkpt lat="39.73295483336241" lon="8.559018487875198"><ele>8.0</ele><time>2026-05-01T06:43:32Z</time></trkpt><trkpt lat="39.7329634699214" lon="8.558856128786356"><ele>8.0</ele><time>2026-05-01T06:43:33Z</time></trkpt><trkpt lat="39.73295411937311" lon="8.558694896482772"><ele>7.75</ele><time>2026-05-01T06:43:34Z</time></trkpt><trkpt lat="39.73294639094807" lon="8.558537787549884"><ele>7.5</ele><time>2026-05-01T06:43:35Z</time></trkpt><trkpt lat="39.732947143236025" lon="8.55838104131898"><ele>7.25</ele><time>2026-05-01T06:43:35.999Z</time></trkpt><trkpt lat="39.73294940103305" lon="8.558219054286026"><ele>7.0</ele><time>2026-05-01T06:43:36.999Z</time></trkpt><trkpt lat="39.732945139979535" lon="8.55804924408806"><ele>7.0</ele><time>2026-05-01T06:43:37.999Z</time></trkpt><trkpt lat="39.732946166464195" lon="8.55787440170492"><ele>7.0</ele><time>2026-05-01T06:43:38.999Z</time></trkpt><trkpt lat="39.73294412023428" lon="8.557694661390526"><ele>7.0</ele><time>2026-05-01T06:43:39.999Z</time></trkpt><trkpt lat="39.73293848227109" lon="8.557517990441838"><ele>7.0</ele><time>2026-05-01T06:43:40.999Z</time></trkpt><trkpt lat="39.73293577279468" lon="8.557343038159889"><ele>7.0</ele><time>2026-05-01T06:43:41.999Z</time></trkpt><trkpt lat="39.732934102713045" lon="8.557169110887177"><ele>7.0</ele><time>2026-05-01T06:43:42.999Z</time></trkpt><trkpt lat="39.73293341399947" lon="8.556995602490245"><ele>7.0</ele><time>2026-05-01T06:43:43.999Z</time></trkpt><trkpt lat="39.732933499506096" lon="8.55682250372386"><ele>7.0</ele><time>2026-05-01T06:43:44.999Z</time></trkpt><trkpt lat="39.73293403631578" lon="8.556658086103074"><ele>6.75</ele><time>2026-05-01T06:43:45.999Z</time></trkpt><trkpt lat="39.732935672806605" lon="8.556493300205592"><ele>6.5</ele><time>2026-05-01T06:43:46.999Z</time></trkpt><trkpt lat="39.73292940046745" lon="8.556322068996947"><ele>6.25</ele><time>2026-05-01T06:43:47.999Z</time></trkpt><trkpt lat="39.732926786610925" lon="8.556149296584913"><ele>6.0</ele><time>2026-05-01T06:43:48.999Z</time></trkpt><trkpt lat="39.73292555899972" lon="8.555984392340275"><ele>5.8</ele><time>2026-05-01T06:43:49.999Z</time></trkpt><trkpt lat="39.732922785871146" lon="8.55583479691598"><ele>5.6</ele><time>2026-05-01T06:43:50.999Z</time></trkpt><trkpt lat="39.7329219713325" lon="8.555696898210707"><ele>5.4</ele><time>2026-05-01T06:43:51.999Z</time></trkpt><trkpt lat="39.73292305109421" lon="8.555591432574627"><ele>5.2</ele><time>2026-05-01T06:43:52.999Z</time></trkpt><trkpt lat="39.732929440431356" lon="8.555491135296133"><ele>5.0</ele><time>2026-05-01T06:43:54.999Z</time></trkpt><trkpt lat="39.73294647542282" lon="8.555336660521442"><ele>5.0</ele><time>2026-05-01T06:43:58.999Z</time></trkpt><trkpt lat="39.73293054767048" lon="8.555215536931165"><ele>5.0</ele><time>2026-05-01T06:43:59.999Z</time></trkpt><trkpt lat="39.73292769569856" lon="8.555082348720239"><ele>5.0</ele><time>2026-05-01T06:44:00.999Z</time></trkpt><trkpt lat="39.732928746275434" lon="8.55492832038767"><ele>5.0</ele><time>2026-05-01T06:44:01.999Z</time></trkpt><trkpt lat="39.732929036583535" lon="8.5547654036716"><ele>5.0</ele><time>2026-05-01T06:44:02.999Z</time></trkpt><trkpt lat="39.73292825045041" lon="8.5545918678582"><ele>5.666666666666667</ele><time>2026-05-01T06:44:03.999Z</time></trkpt><trkpt lat="39.73292059518641" lon="8.554401847048398"><ele>6.333333333333334</ele><time>2026-05-01T06:44:04.999Z</time></trkpt><trkpt lat="39.732920726085716" lon="8.554200400719267"><ele>7.0</ele><time>2026-05-01T06:44:05.999Z</time></trkpt><trkpt lat="39.73291903992615" lon="8.553995763823165"><ele>7.0</ele><time>2026-05-01T06:44:06.999Z</time></trkpt><trkpt lat="39.73291730293692" lon="8.553787382116909"><ele>7.0</ele><time>2026-05-01T06:44:07.999Z</time></trkpt><trkpt lat="39.732915316031" lon="8.55360107913908"><ele>7.0</ele><time>2026-05-01T06:44:08.999Z</time></trkpt><trkpt lat="39.732911728502174" lon="8.553436326589736"><ele>7.0</ele><time>2026-05-01T06:44:09.999Z</time></trkpt><trkpt lat="39.73290957116964" lon="8.553279582761334"><ele>7.5</ele><time>2026-05-01T06:44:10.999Z</time></trkpt><trkpt lat="39.732909767601335" lon="8.553113886106038"><ele>8.0</ele><time>2026-05-01T06:44:11.999Z</time></trkpt><trkpt lat="39.73291388136077" lon="8.552951631241061"><ele>8.5</ele><time>2026-05-01T06:44:12.999Z</time></trkpt><trkpt lat="39.73291149440791" lon="8.55280170604965"><ele>9.0</ele><time>2026-05-01T06:44:13.999Z</time></trkpt><trkpt lat="39.732897862955866" lon="8.552635698392612"><ele>9.0</ele><time>2026-05-01T06:44:14.999Z</time></trkpt><trkpt lat="39.73288881089286" lon="8.552450546474228"><ele>9.0</ele><time>2026-05-01T06:44:15.999Z</time></trkpt><trkpt lat="39.73288693025334" lon="8.552264829884262"><ele>9.0</ele><time>2026-05-01T06:44:16.999Z</time></trkpt><trkpt lat="39.73288892248918" lon="8.552081010891943"><ele>9.0</ele><time>2026-05-01T06:44:17.999Z</time></trkpt><trkpt lat="39.73289027018134" lon="8.55189804566249"><ele>8.75</ele><time>2026-05-01T06:44:18.999Z</time></trkpt><trkpt lat="39.73289349189591" lon="8.551713320170053"><ele>8.5</ele><time>2026-05-01T06:44:19.999Z</time></trkpt><trkpt lat="39.732895740685535" lon="8.551524342077277"><ele>8.25</ele><time>2026-05-01T06:44:20.999Z</time></trkpt><trkpt lat="39.73289895412019" lon="8.551331477186418"><ele>8.0</ele><time>2026-05-01T06:44:21.999Z</time></trkpt><trkpt lat="39.73290183516429" lon="8.551137147702002"><ele>7.75</ele><time>2026-05-01T06:44:22.999Z</time></trkpt><trkpt lat="39.73290088793704" lon="8.55094645743553"><ele>7.5</ele><time>2026-05-01T06:44:23.999Z</time></trkpt><trkpt lat="39.732903468578876" lon="8.550756365118138"><ele>7.25</ele><time>2026-05-01T06:44:24.999Z</time></trkpt><trkpt lat="39.73291000859394" lon="8.55056396227188"><ele>7.0</ele><time>2026-05-01T06:44:25.999Z</time></trkpt><trkpt lat="39.73291751163423" lon="8.550371597439709"><ele>7.0</ele><time>2026-05-01T06:44:26.999Z</time></trkpt><trkpt lat="39.73291694243971" lon="8.550174678674878"><ele>7.0</ele><time>2026-05-01T06:44:27.999Z</time></trkpt><trkpt lat="39.73291574683088" lon="8.54997654820663"><ele>7.0</ele><time>2026-05-01T06:44:28.999Z</time></trkpt><trkpt lat="39.73291525573022" lon="8.549778732206969"><ele>7.0</ele><time>2026-05-01T06:44:29.999Z</time></trkpt><trkpt lat="39.73291526556972" lon="8.549584311851998"><ele>7.0</ele><time>2026-05-01T06:44:30.999Z</time></trkpt><trkpt lat="39.73291630115667" lon="8.549407610243955"><ele>7.0</ele><time>2026-05-01T06:44:31.999Z</time></trkpt><trkpt lat="39.73291853967305" lon="8.5492347808432"><ele>7.0</ele><time>2026-05-01T06:44:32.999Z</time></trkpt><trkpt lat="39.73292245653946" lon="8.54906440224457"><ele>6.8</ele><time>2026-05-01T06:44:33.999Z</time></trkpt><trkpt lat="39.73292678050788" lon="8.548909350483836"><ele>6.6</ele><time>2026-05-01T06:44:34.999Z</time></trkpt><trkpt lat="39.73292590359272" lon="8.548768588173177"><ele>6.3999999999999995</ele><time>2026-05-01T06:44:35.998Z</time></trkpt><trkpt lat="39.732923836631194" lon="8.54864172654783"><ele>6.199999999999999</ele><time>2026-05-01T06:44:36.998Z</time></trkpt><trkpt lat="39.732925130437934" lon="8.548522725527338"><ele>6.0</ele><time>2026-05-01T06:44:37.998Z</time></trkpt><trkpt lat="39.73292652791039" lon="8.548417055462219"><ele>6.0</ele><time>2026-05-01T06:44:38.998Z</time></trkpt><trkpt lat="39.73292990970428" lon="8.548311739962656"><ele>6.0</ele><time>2026-05-01T06:44:39.998Z</time></trkpt><trkpt lat="39.73293341010043" lon="8.548205459501288"><ele>6.0</ele><time>2026-05-01T06:44:40.998Z</time></trkpt><trkpt lat="39.73292861427319" lon="8.548081523504237"><ele>6.0</ele><time>2026-05-01T06:44:42Z</time></trkpt><trkpt lat="39.732919453087156" lon="8.547927892812988"><ele>6.0</ele><time>2026-05-01T06:44:43Z</time></trkpt><trkpt lat="39.732908473831564" lon="8.547753912921223"><ele>6.0</ele><time>2026-05-01T06:44:44Z</time></trkpt><trkpt lat="39.73290552318822" lon="8.547564836760632"><ele>6.0</ele><time>2026-05-01T06:44:45Z</time></trkpt><trkpt lat="39.732906752076225" lon="8.547364564378624"><ele>6.0</ele><time>2026-05-01T06:44:46Z</time></trkpt><trkpt lat="39.73290468532286" lon="8.547153515391011"><ele>6.333333333333334</ele><time>2026-05-01T06:44:47Z</time></trkpt><trkpt lat="39.732892444002815" lon="8.546930722774709"><ele>6.666666666666667</ele><time>2026-05-01T06:44:48Z</time></trkpt><trkpt lat="39.73289581238905" lon="8.54670904102546"><ele>7.0</ele><time>2026-05-01T06:44:49Z</time></trkpt><trkpt lat="39.732890662773045" lon="8.546471169556353"><ele>7.0</ele><time>2026-05-01T06:44:50Z</time></trkpt><trkpt lat="39.732888282023936" lon="8.546230763922871"><ele>7.0</ele><time>2026-05-01T06:44:51Z</time></trkpt><trkpt lat="39.73288414837468" lon="8.54599625804258"><ele>7.0</ele><time>2026-05-01T06:44:52Z</time></trkpt><trkpt lat="39.73288322347592" lon="8.54577634460023"><ele>6.5</ele><time>2026-05-01T06:44:53Z</time></trkpt><trkpt lat="39.73288157274345" lon="8.54557863355045"><ele>6.0</ele><time>2026-05-01T06:44:54Z</time></trkpt><trkpt lat="39.73288699827619" lon="8.545393512769113"><ele>5.5</ele><time>2026-05-01T06:44:55Z</time></trkpt><trkpt lat="39.7328915669487" lon="8.545206624200338"><ele>5.0</ele><time>2026-05-01T06:44:56Z</time></trkpt><trkpt lat="39.73289044141374" lon="8.545018220606599"><ele>5.0</ele><time>2026-05-01T06:44:57Z</time></trkpt><trkpt lat="39.73288322422576" lon="8.544835164836904"><ele>5.0</ele><time>2026-05-01T06:44:58Z</time></trkpt><trkpt lat="39.73287825641432" lon="8.544650604530897"><ele>5.0</ele><time>2026-05-01T06:44:59Z</time></trkpt><trkpt lat="39.7328772368912" lon="8.544479706296247"><ele>5.0</ele><time>2026-05-01T06:45:00Z</time></trkpt><trkpt lat="39.732878364506654" lon="8.544322215591277"><ele>4.5</ele><time>2026-05-01T06:45:01Z</time></trkpt><trkpt lat="39.73287183562981" lon="8.544170658571653"><ele>4.0</ele><time>2026-05-01T06:45:02Z</time></trkpt><trkpt lat="39.73285897038363" lon="8.544014636622906"><ele>3.5</ele><time>2026-05-01T06:45:03Z</time></trkpt><trkpt lat="39.732839030181026" lon="8.543861910067983"><ele>3.0</ele><time>2026-05-01T06:45:04Z</time></trkpt><trkpt lat="39.73283367742468" lon="8.543714681311885"><ele>3.0</ele><time>2026-05-01T06:45:05Z</time></trkpt><trkpt lat="39.732841533122006" lon="8.543546099692637"><ele>3.0</ele><time>2026-05-01T06:45:06Z</time></trkpt><trkpt lat="39.73283640000479" lon="8.543372255485309"><ele>3.0</ele><time>2026-05-01T06:45:07Z</time></trkpt><trkpt lat="39.732840442654634" lon="8.543195440960446"><ele>3.0</ele><time>2026-05-01T06:45:08Z</time></trkpt><trkpt lat="39.73285757699293" lon="8.5430194647936"><ele>3.0</ele><time>2026-05-01T06:45:09Z</time></trkpt><trkpt lat="39.73286747507436" lon="8.542846013533223"><ele>3.0</ele><time>2026-05-01T06:45:10Z</time></trkpt><trkpt lat="39.73286891116023" lon="8.542662802525934"><ele>3.0</ele><time>2026-05-01T06:45:11Z</time></trkpt><trkpt lat="39.732872893639275" lon="8.542479203447229"><ele>3.0</ele><time>2026-05-01T06:45:12Z</time></trkpt><trkpt lat="39.73287787136762" lon="8.542290126337996"><ele>3.0</ele><time>2026-05-01T06:45:13Z</time></trkpt><trkpt lat="39.73287810316737" lon="8.542093446747867"><ele>3.0</ele><time>2026-05-01T06:45:14Z</time></trkpt><trkpt lat="39.73287470598733" lon="8.541889556231638"><ele>3.0</ele><time>2026-05-01T06:45:15Z</time></trkpt><trkpt lat="39.73287336854267" lon="8.541689389439112"><ele>3.333333333333333</ele><time>2026-05-01T06:45:16Z</time></trkpt><trkpt lat="39.73287167226065" lon="8.541479681741693"><ele>3.6666666666666665</ele><time>2026-05-01T06:45:17Z</time></trkpt><trkpt lat="39.732870452574474" lon="8.54127107157919"><ele>4.0</ele><time>2026-05-01T06:45:18Z</time></trkpt><trkpt lat="39.73286851906697" lon="8.541058395298107"><ele>4.0</ele><time>2026-05-01T06:45:19Z</time></trkpt><trkpt lat="39.732864582173015" lon="8.540845463248074"><ele>4.0</ele><time>2026-05-01T06:45:20Z</time></trkpt><trkpt lat="39.732863165360456" lon="8.540640876957907"><ele>4.0</ele><time>2026-05-01T06:45:21Z</time></trkpt><trkpt lat="39.73286231609169" lon="8.540433938522508"><ele>4.0</ele><time>2026-05-01T06:45:22Z</time></trkpt><trkpt lat="39.732860373921426" lon="8.540227418203575"><ele>4.0</ele><time>2026-05-01T06:45:23Z</time></trkpt><trkpt lat="39.73286102717452" lon="8.54002666111587"><ele>4.0</ele><time>2026-05-01T06:45:24Z</time></trkpt><trkpt lat="39.7328570638024" lon="8.539831172175207"><ele>4.0</ele><time>2026-05-01T06:45:25Z</time></trkpt><trkpt lat="39.73285439493842" lon="8.539654820871753"><ele>4.0</ele><time>2026-05-01T06:45:26Z</time></trkpt><trkpt lat="39.73285488525518" lon="8.539496278814399"><ele>4.0</ele><time>2026-05-01T06:45:27Z</time></trkpt><trkpt lat="39.732854428578705" lon="8.539349853063008"><ele>4.0</ele><time>2026-05-01T06:45:28Z</time></trkpt><trkpt lat="39.732844300880224" lon="8.539193255361853"><ele>4.0</ele><time>2026-05-01T06:45:29Z</time></trkpt><trkpt lat="39.73284024942074" lon="8.539026643981522"><ele>4.0</ele><time>2026-05-01T06:45:30Z</time></trkpt><trkpt lat="39.73284356762728" lon="8.538843705893985"><ele>4.0</ele><time>2026-05-01T06:45:31Z</time></trkpt><trkpt lat="39.732843038431874" lon="8.538654230440649"><ele>4.0</ele><time>2026-05-01T06:45:32Z</time></trkpt><trkpt lat="39.732841543143884" lon="8.538461787332269"><ele>3.6666666666666665</ele><time>2026-05-01T06:45:33Z</time></trkpt><trkpt lat="39.73283945983314" lon="8.538265402695455"><ele>3.333333333333333</ele><time>2026-05-01T06:45:34Z</time></trkpt><trkpt lat="39.73283555805265" lon="8.538065772735454"><ele>3.0</ele><time>2026-05-01T06:45:35Z</time></trkpt><trkpt lat="39.73283263471611" lon="8.537863212301248"><ele>3.666666666666667</ele><time>2026-05-01T06:45:36Z</time></trkpt><trkpt lat="39.73283023762934" lon="8.537664171017504"><ele>4.333333333333334</ele><time>2026-05-01T06:45:37Z</time></trkpt><trkpt lat="39.73283128480595" lon="8.537469355143747"><ele>5.0</ele><time>2026-05-01T06:45:38Z</time></trkpt><trkpt lat="39.732837156194584" lon="8.53727674667526"><ele>5.0</ele><time>2026-05-01T06:45:38.999Z</time></trkpt><trkpt lat="39.73284267430031" lon="8.537081893029713"><ele>5.0</ele><time>2026-05-01T06:45:39.999Z</time></trkpt><trkpt lat="39.73284475822006" lon="8.536882570296267"><ele>5.0</ele><time>2026-05-01T06:45:40.999Z</time></trkpt><trkpt lat="39.732840638786364" lon="8.536676014472546"><ele>5.333333333333334</ele><time>2026-05-01T06:45:41.999Z</time></trkpt><trkpt lat="39.73283753734044" lon="8.536469349810702"><ele>5.666666666666667</ele><time>2026-05-01T06:45:42.999Z</time></trkpt><trkpt lat="39.73283639752144" lon="8.536261863859997"><ele>6.0</ele><time>2026-05-01T06:45:43.999Z</time></trkpt><trkpt lat="39.7328365837006" lon="8.536055941132954"><ele>5.5</ele><time>2026-05-01T06:45:44.999Z</time></trkpt><trkpt lat="39.732835362690224" lon="8.535868470372078"><ele>5.0</ele><time>2026-05-01T06:45:45.999Z</time></trkpt><trkpt lat="39.732834695949656" lon="8.53570987333969"><ele>4.5</ele><time>2026-05-01T06:45:46.999Z</time></trkpt><trkpt lat="39.732836135358475" lon="8.535556388080359"><ele>4.0</ele><time>2026-05-01T06:45:47.999Z</time></trkpt><trkpt lat="39.732838357611385" lon="8.535387735558954"><ele>4.75</ele><time>2026-05-01T06:45:48.999Z</time></trkpt><trkpt lat="39.73283773620864" lon="8.535201550818961"><ele>5.5</ele><time>2026-05-01T06:45:49.999Z</time></trkpt><trkpt lat="39.7328410536063" lon="8.535011095221865"><ele>6.25</ele><time>2026-05-01T06:45:50.999Z</time></trkpt><trkpt lat="39.732842261195266" lon="8.534822456661416"><ele>7.0</ele><time>2026-05-01T06:45:51.999Z</time></trkpt><trkpt lat="39.73283961737594" lon="8.534635392296192"><ele>6.5</ele><time>2026-05-01T06:45:52.999Z</time></trkpt><trkpt lat="39.73283356211336" lon="8.534470630448865"><ele>6.0</ele><time>2026-05-01T06:45:53.999Z</time></trkpt><trkpt lat="39.732821413049315" lon="8.53431564137834"><ele>5.5</ele><time>2026-05-01T06:45:54.999Z</time></trkpt><trkpt lat="39.732811432686205" lon="8.534159762921867"><ele>5.0</ele><time>2026-05-01T06:45:55.999Z</time></trkpt><trkpt lat="39.73280470960198" lon="8.534010602365868"><ele>5.0</ele><time>2026-05-01T06:45:56.999Z</time></trkpt><trkpt lat="39.73280845209189" lon="8.533875114520885"><ele>5.0</ele><time>2026-05-01T06:45:57.999Z</time></trkpt><trkpt lat="39.73281266168334" lon="8.533751482533683"><ele>5.0</ele><time>2026-05-01T06:45:58.999Z</time></trkpt><trkpt lat="39.73281322810611" lon="8.533640353317463"><ele>5.0</ele><time>2026-05-01T06:45:59.999Z</time></trkpt><trkpt lat="39.73280914055875" lon="8.533541887011273"><ele>5.0</ele><time>2026-05-01T06:46:00.999Z</time></trkpt><trkpt lat="39.732805862080674" lon="8.533449513421958"><ele>5.0</ele><time>2026-05-01T06:46:01.999Z</time></trkpt><trkpt lat="39.73281013228129" lon="8.533354525168855"><ele>5.0</ele><time>2026-05-01T06:46:02.999Z</time></trkpt><trkpt lat="39.73281729193793" lon="8.533239982753097"><ele>5.0</ele><time>2026-05-01T06:46:04.999Z</time></trkpt><trkpt lat="39.73272146980211" lon="8.53319034622397"><ele>5.0</ele><time>2026-05-01T06:46:09.999Z</time></trkpt><trkpt lat="39.732629473487414" lon="8.533204320062678"><ele>5.0</ele><time>2026-05-01T06:46:10.999Z</time></trkpt><trkpt lat="39.732528671666266" lon="8.533206142104104"><ele>5.0</ele><time>2026-05-01T06:46:11.999Z</time></trkpt><trkpt lat="39.732412104685494" lon="8.53320576403424"><ele>5.0</ele><time>2026-05-01T06:46:12.999Z</time></trkpt><trkpt lat="39.732278129451096" lon="8.533183133440597"><ele>5.0</ele><time>2026-05-01T06:46:13.999Z</time></trkpt><trkpt lat="39.732136180279355" lon="8.53318553393802"><ele>5.0</ele><time>2026-05-01T06:46:14.999Z</time></trkpt><trkpt lat="39.7319906510862" lon="8.533188554057011"><ele>5.0</ele><time>2026-05-01T06:46:15.999Z</time></trkpt><trkpt lat="39.73183984646992" lon="8.533191683657597"><ele>5.0</ele><time>2026-05-01T06:46:16.999Z</time></trkpt><trkpt lat="39.73168259785954" lon="8.533194946987425"><ele>5.0</ele><time>2026-05-01T06:46:17.999Z</time></trkpt><trkpt lat="39.73151899904265" lon="8.533196719913125"><ele>5.0</ele><time>2026-05-01T06:46:18.999Z</time></trkpt><trkpt lat="39.731359085411455" lon="8.533196608115253"><ele>5.0</ele><time>2026-05-01T06:46:19.999Z</time></trkpt><trkpt lat="39.73119194947622" lon="8.533195399580297"><ele>5.0</ele><time>2026-05-01T06:46:20.999Z</time></trkpt><trkpt lat="39.73102028205022" lon="8.533194158277665"><ele>5.0</ele><time>2026-05-01T06:46:21.999Z</time></trkpt><trkpt lat="39.73084628931385" lon="8.533194701772002"><ele>4.666666666666667</ele><time>2026-05-01T06:46:22.999Z</time></trkpt><trkpt lat="39.73067428436688" lon="8.533195686937878"><ele>4.333333333333333</ele><time>2026-05-01T06:46:23.999Z</time></trkpt><trkpt lat="39.730506108860695" lon="8.533197637726087"><ele>4.0</ele><time>2026-05-01T06:46:24.999Z</time></trkpt><trkpt lat="39.73033869925145" lon="8.533199579631352"><ele>4.0</ele><time>2026-05-01T06:46:25.999Z</time></trkpt><trkpt lat="39.73017437854854" lon="8.533201485706076"><ele>4.0</ele><time>2026-05-01T06:46:26.999Z</time></trkpt><trkpt lat="39.73001058144311" lon="8.533225422767542"><ele>4.0</ele><time>2026-05-01T06:46:27.999Z</time></trkpt><trkpt lat="39.72985215704712" lon="8.53322661466486"><ele>4.0</ele><time>2026-05-01T06:46:28.999Z</time></trkpt><trkpt lat="39.7296995861945" lon="8.53322842780174"><ele>4.0</ele><time>2026-05-01T06:46:29.999Z</time></trkpt><trkpt lat="39.7295555562927" lon="8.533230923400584"><ele>4.0</ele><time>2026-05-01T06:46:30.999Z</time></trkpt><trkpt lat="39.72942687575051" lon="8.533229993438422"><ele>4.0</ele><time>2026-05-01T06:46:31.999Z</time></trkpt><trkpt lat="39.729323713995996" lon="8.5332335094971"><ele>4.4</ele><time>2026-05-01T06:46:32.999Z</time></trkpt><trkpt lat="39.7292462204004" lon="8.533211898853688"><ele>4.800000000000001</ele><time>2026-05-01T06:46:33.999Z</time></trkpt><trkpt lat="39.72916331856882" lon="8.533226587307784"><ele>5.199999999999999</ele><time>2026-05-01T06:46:35.999Z</time></trkpt><trkpt lat="39.72903530948999" lon="8.533191036287121"><ele>5.6</ele><time>2026-05-01T06:46:39.998Z</time></trkpt><trkpt lat="39.72893647381182" lon="8.533196333874548"><ele>6.0</ele><time>2026-05-01T06:46:40.998Z</time></trkpt><trkpt lat="39.728818433114675" lon="8.533203522608138"><ele>6.0</ele><time>2026-05-01T06:46:41.998Z</time></trkpt><trkpt lat="39.72869251757522" lon="8.533206202839875"><ele>6.0</ele><time>2026-05-01T06:46:42.998Z</time></trkpt><trkpt lat="39.72854964334659" lon="8.533208588495697"><ele>6.0</ele><time>2026-05-01T06:46:43.998Z</time></trkpt><trkpt lat="39.728400596787935" lon="8.533214803008672"><ele>6.0</ele><time>2026-05-01T06:46:44.998Z</time></trkpt><trkpt lat="39.72823785128198" lon="8.53321894516296"><ele>6.333333333333334</ele><time>2026-05-01T06:46:45.998Z</time></trkpt><trkpt lat="39.728069877602756" lon="8.53322047709895"><ele>6.666666666666667</ele><time>2026-05-01T06:46:46.998Z</time></trkpt><trkpt lat="39.72788856990313" lon="8.53321929783019"><ele>7.0</ele><time>2026-05-01T06:46:48Z</time></trkpt><trkpt lat="39.72770774345748" lon="8.533221329163695"><ele>6.0</ele><time>2026-05-01T06:46:49Z</time></trkpt><trkpt lat="39.72752345859785" lon="8.533224289721822"><ele>5.0</ele><time>2026-05-01T06:46:50Z</time></trkpt><trkpt lat="39.72733422321341" lon="8.533226788957869"><ele>4.0</ele><time>2026-05-01T06:46:51Z</time></trkpt><trkpt lat="39.72713687723365" lon="8.533229112431576"><ele>4.0</ele><time>2026-05-01T06:46:52Z</time></trkpt><trkpt lat="39.72694069158486" lon="8.533231056068184"><ele>4.0</ele><time>2026-05-01T06:46:53Z</time></trkpt><trkpt lat="39.726746134034435" lon="8.533231501111702"><ele>4.0</ele><time>2026-05-01T06:46:54Z</time></trkpt><trkpt lat="39.72655095549259" lon="8.533232031487694"><ele>4.333333333333333</ele><time>2026-05-01T06:46:55Z</time></trkpt><trkpt lat="39.726355558687274" lon="8.53323279777389"><ele>4.666666666666667</ele><time>2026-05-01T06:46:56Z</time></trkpt><trkpt lat="39.72616042964702" lon="8.533236283806293"><ele>5.0</ele><time>2026-05-01T06:46:57Z</time></trkpt><trkpt lat="39.72596755305933" lon="8.533238898648259"><ele>5.666666666666667</ele><time>2026-05-01T06:46:58Z</time></trkpt><trkpt lat="39.725777954141" lon="8.533240031518753"><ele>6.333333333333334</ele><time>2026-05-01T06:46:59Z</time></trkpt><trkpt lat="39.72558828961964" lon="8.533238641967648"><ele>7.0</ele><time>2026-05-01T06:47:00Z</time></trkpt><trkpt lat="39.72540026448223" lon="8.533239362455921"><ele>6.666666666666667</ele><time>2026-05-01T06:47:01Z</time></trkpt><trkpt lat="39.725213613528624" lon="8.533240415072981"><ele>6.333333333333334</ele><time>2026-05-01T06:47:02Z</time></trkpt><trkpt lat="39.725025630213764" lon="8.533242658933046"><ele>6.0</ele><time>2026-05-01T06:47:03Z</time></trkpt><trkpt lat="39.72483823559541" lon="8.533243851470992"><ele>6.0</ele><time>2026-05-01T06:47:04Z</time></trkpt><trkpt lat="39.724650010569746" lon="8.533248041466617"><ele>6.0</ele><time>2026-05-01T06:47:05Z</time></trkpt><trkpt lat="39.72446215844983" lon="8.533249139556764"><ele>6.0</ele><time>2026-05-01T06:47:06Z</time></trkpt><trkpt lat="39.7242756079542" lon="8.533249227074075"><ele>6.0</ele><time>2026-05-01T06:47:07Z</time></trkpt><trkpt lat="39.7240887548076" lon="8.533250008999035"><ele>6.0</ele><time>2026-05-01T06:47:08Z</time></trkpt><trkpt lat="39.72390160664235" lon="8.533250783162456"><ele>6.0</ele><time>2026-05-01T06:47:09Z</time></trkpt><trkpt lat="39.723714685842786" lon="8.533254136597629"><ele>5.666666666666667</ele><time>2026-05-01T06:47:10Z</time></trkpt><trkpt lat="39.72353041905802" lon="8.533257201863467"><ele>5.333333333333334</ele><time>2026-05-01T06:47:11Z</time></trkpt><trkpt lat="39.72334607902181" lon="8.533259412509826"><ele>5.0</ele><time>2026-05-01T06:47:12Z</time></trkpt><trkpt lat="39.723162667850495" lon="8.533264070761073"><ele>5.0</ele><time>2026-05-01T06:47:13Z</time></trkpt><trkpt lat="39.722979909657184" lon="8.533266073636074"><ele>5.0</ele><time>2026-05-01T06:47:14Z</time></trkpt><trkpt lat="39.72279786230698" lon="8.533268051367614"><ele>5.0</ele><time>2026-05-01T06:47:15Z</time></trkpt><trkpt lat="39.722623057333195" lon="8.533266912067832"><ele>4.666666666666667</ele><time>2026-05-01T06:47:16Z</time></trkpt><trkpt lat="39.722461378044784" lon="8.53327155603817"><ele>4.333333333333333</ele><time>2026-05-01T06:47:17Z</time></trkpt><trkpt lat="39.72231098145961" lon="8.533271092221597"><ele>4.0</ele><time>2026-05-01T06:47:18Z</time></trkpt><trkpt lat="39.72217298434692" lon="8.533274116383325"><ele>4.0</ele><time>2026-05-01T06:47:19Z</time></trkpt><trkpt lat="39.722051024196645" lon="8.53327895783483"><ele>4.0</ele><time>2026-05-01T06:47:20Z</time></trkpt><trkpt lat="39.72194739214737" lon="8.533266423417956"><ele>4.0</ele><time>2026-05-01T06:47:21Z</time></trkpt><trkpt lat="39.72185377818474" lon="8.53323473489025"><ele>4.0</ele><time>2026-05-01T06:47:22Z</time></trkpt><trkpt lat="39.721787308915495" lon="8.533217651625602"><ele>4.0</ele><time>2026-05-01T06:47:23Z</time></trkpt><trkpt lat="39.72174654733362" lon="8.533094792337613"><ele>4.2</ele><time>2026-05-01T06:47:24Z</time></trkpt><trkpt lat="39.721727005278936" lon="8.532981603882515"><ele>4.4</ele><time>2026-05-01T06:47:25Z</time></trkpt><trkpt lat="39.721720784979695" lon="8.532844206901158"><ele>4.6</ele><time>2026-05-01T06:47:26Z</time></trkpt><trkpt lat="39.721717649146676" lon="8.532688396898006"><ele>4.8</ele><time>2026-05-01T06:47:27Z</time></trkpt><trkpt lat="39.72171485393252" lon="8.532520002709079"><ele>5.0</ele><time>2026-05-01T06:47:28Z</time></trkpt><trkpt lat="39.72171607820984" lon="8.532337825199136"><ele>5.333333333333334</ele><time>2026-05-01T06:47:29Z</time></trkpt><trkpt lat="39.72171754018069" lon="8.53214300133166"><ele>5.666666666666667</ele><time>2026-05-01T06:47:30Z</time></trkpt><trkpt lat="39.72171493729681" lon="8.531943436013345"><ele>6.0</ele><time>2026-05-01T06:47:31Z</time></trkpt><trkpt lat="39.72171102020206" lon="8.531741012339134"><ele>6.0</ele><time>2026-05-01T06:47:32Z</time></trkpt><trkpt lat="39.72171318438721" lon="8.531538345013939"><ele>6.0</ele><time>2026-05-01T06:47:33Z</time></trkpt><trkpt lat="39.721714389486394" lon="8.53133708108258"><ele>6.0</ele><time>2026-05-01T06:47:34Z</time></trkpt><trkpt lat="39.72171144343786" lon="8.531130894465482"><ele>6.0</ele><time>2026-05-01T06:47:35Z</time></trkpt><trkpt lat="39.72171140425819" lon="8.530918664850342"><ele>6.0</ele><time>2026-05-01T06:47:36Z</time></trkpt><trkpt lat="39.721711632299794" lon="8.530702729270322"><ele>6.0</ele><time>2026-05-01T06:47:37Z</time></trkpt><trkpt lat="39.72171343577809" lon="8.530483495832177"><ele>6.0</ele><time>2026-05-01T06:47:38Z</time></trkpt><trkpt lat="39.72170986983969" lon="8.530260696868238"><ele>6.0</ele><time>2026-05-01T06:47:39Z</time></trkpt><trkpt lat="39.72170910972884" lon="8.530038169760493"><ele>6.0</ele><time>2026-05-01T06:47:40Z</time></trkpt><trkpt lat="39.72170848719253" lon="8.529813005109084"><ele>6.0</ele><time>2026-05-01T06:47:40.999Z</time></trkpt><trkpt lat="39.72170788069067" lon="8.529587723965225"><ele>6.0</ele><time>2026-05-01T06:47:41.999Z</time></trkpt><trkpt lat="39.721708229515556" lon="8.529360679404178"><ele>6.0</ele><time>2026-05-01T06:47:42.999Z</time></trkpt><trkpt lat="39.72170877036466" lon="8.529133799201587"><ele>6.0</ele><time>2026-05-01T06:47:43.999Z</time></trkpt><trkpt lat="39.721708842584334" lon="8.528907113984483"><ele>6.0</ele><time>2026-05-01T06:47:44.999Z</time></trkpt><trkpt lat="39.72171013959352" lon="8.528680810314512"><ele>6.0</ele><time>2026-05-01T06:47:45.999Z</time></trkpt><trkpt lat="39.72170956631748" lon="8.52845220351539"><ele>5.333333333333333</ele><time>2026-05-01T06:47:46.999Z</time></trkpt><trkpt lat="39.7217068707556" lon="8.52822359171406"><ele>4.666666666666666</ele><time>2026-05-01T06:47:47.999Z</time></trkpt><trkpt lat="39.72170449089107" lon="8.52799422676121"><ele>4.0</ele><time>2026-05-01T06:47:48.999Z</time></trkpt><trkpt lat="39.7217046513711" lon="8.527763822610762"><ele>3.6666666666666665</ele><time>2026-05-01T06:47:49.999Z</time></trkpt><trkpt lat="39.721705608825836" lon="8.527536196800114"><ele>3.333333333333333</ele><time>2026-05-01T06:47:50.999Z</time></trkpt><trkpt lat="39.72170428872743" lon="8.527304906003048"><ele>3.0</ele><time>2026-05-01T06:47:51.999Z</time></trkpt><trkpt lat="39.72170153390368" lon="8.527073030762503"><ele>3.0</ele><time>2026-05-01T06:47:52.999Z</time></trkpt><trkpt lat="39.72170083974632" lon="8.52684527129116"><ele>3.0</ele><time>2026-05-01T06:47:53.999Z</time></trkpt><trkpt lat="39.72170001308306" lon="8.526614586704323"><ele>3.0</ele><time>2026-05-01T06:47:54.999Z</time></trkpt><trkpt lat="39.72170218145541" lon="8.526386006289039"><ele>3.0</ele><time>2026-05-01T06:47:55.999Z</time></trkpt><trkpt lat="39.72170011393754" lon="8.52615619709732"><ele>3.0</ele><time>2026-05-01T06:47:56.999Z</time></trkpt><trkpt lat="39.7216984260484" lon="8.525926371916768"><ele>3.0</ele><time>2026-05-01T06:47:57.999Z</time></trkpt><trkpt lat="39.72169680453894" lon="8.525697083039923"><ele>3.0</ele><time>2026-05-01T06:47:58.999Z</time></trkpt><trkpt lat="39.72169584641997" lon="8.525467377442618"><ele>3.0</ele><time>2026-05-01T06:47:59.999Z</time></trkpt><trkpt lat="39.721695377612285" lon="8.525236284349475"><ele>3.0</ele><time>2026-05-01T06:48:00.999Z</time></trkpt><trkpt lat="39.72169339095755" lon="8.525005330421969"><ele>3.0</ele><time>2026-05-01T06:48:01.999Z</time></trkpt><trkpt lat="39.7216925020294" lon="8.5247739854795"><ele>3.0</ele><time>2026-05-01T06:48:02.999Z</time></trkpt><trkpt lat="39.72169288898644" lon="8.524541732416266"><ele>3.0</ele><time>2026-05-01T06:48:03.999Z</time></trkpt><trkpt lat="39.7216909536937" lon="8.524308100503632"><ele>3.0</ele><time>2026-05-01T06:48:04.999Z</time></trkpt><trkpt lat="39.72168835220903" lon="8.52407236735167"><ele>3.0</ele><time>2026-05-01T06:48:05.999Z</time></trkpt><trkpt lat="39.72168794823281" lon="8.52383908534589"><ele>3.0</ele><time>2026-05-01T06:48:06.999Z</time></trkpt><trkpt lat="39.721686949385386" lon="8.523607603680277"><ele>3.0</ele><time>2026-05-01T06:48:07.999Z</time></trkpt><trkpt lat="39.72168602471651" lon="8.523375130390273"><ele>3.0</ele><time>2026-05-01T06:48:08.999Z</time></trkpt><trkpt lat="39.72168445631719" lon="8.523142142921081"><ele>3.0</ele><time>2026-05-01T06:48:09.999Z</time></trkpt><trkpt lat="39.7216826101975" lon="8.522910504230712"><ele>3.0</ele><time>2026-05-01T06:48:10.999Z</time></trkpt><trkpt lat="39.72168110377267" lon="8.52267663041981"><ele>3.0</ele><time>2026-05-01T06:48:11.999Z</time></trkpt><trkpt lat="39.72167932772579" lon="8.522442959261856"><ele>3.0</ele><time>2026-05-01T06:48:12.999Z</time></trkpt><trkpt lat="39.72167783651324" lon="8.522209373324213"><ele>3.0</ele><time>2026-05-01T06:48:13.999Z</time></trkpt><trkpt lat="39.721676432122884" lon="8.521974796157291"><ele>3.0</ele><time>2026-05-01T06:48:14.999Z</time></trkpt><trkpt lat="39.7216777774906" lon="8.521741263019093"><ele>3.0</ele><time>2026-05-01T06:48:15.999Z</time></trkpt><trkpt lat="39.72167890655287" lon="8.52150694471947"><ele>3.0</ele><time>2026-05-01T06:48:16.999Z</time></trkpt><trkpt lat="39.72167809420538" lon="8.521273347365314"><ele>3.0</ele><time>2026-05-01T06:48:17.999Z</time></trkpt><trkpt lat="39.72167413610299" lon="8.521041288529158"><ele>3.0</ele><time>2026-05-01T06:48:18.999Z</time></trkpt><trkpt lat="39.721671622989156" lon="8.520810651705157"><ele>3.0</ele><time>2026-05-01T06:48:19.999Z</time></trkpt><trkpt lat="39.72167079983805" lon="8.520579333480317"><ele>3.0</ele><time>2026-05-01T06:48:20.999Z</time></trkpt><trkpt lat="39.721669890727334" lon="8.52034522701111"><ele>3.0</ele><time>2026-05-01T06:48:21.999Z</time></trkpt><trkpt lat="39.72166962939194" lon="8.520111456044535"><ele>3.0</ele><time>2026-05-01T06:48:22.999Z</time></trkpt><trkpt lat="39.721670110885896" lon="8.519877642745184"><ele>3.0</ele><time>2026-05-01T06:48:23.999Z</time></trkpt><trkpt lat="39.72167067436456" lon="8.519642205689337"><ele>3.0</ele><time>2026-05-01T06:48:24.999Z</time></trkpt><trkpt lat="39.72166916387904" lon="8.519406099961154"><ele>2.6666666666666665</ele><time>2026-05-01T06:48:25.999Z</time></trkpt><trkpt lat="39.721664972716205" lon="8.519171836206977"><ele>2.333333333333333</ele><time>2026-05-01T06:48:26.999Z</time></trkpt><trkpt lat="39.72166325610639" lon="8.518939742743475"><ele>2.0</ele><time>2026-05-01T06:48:27.999Z</time></trkpt><trkpt lat="39.721663633911135" lon="8.518705551469253"><ele>1.3333333333333333</ele><time>2026-05-01T06:48:28.999Z</time></trkpt><trkpt lat="39.72166346346886" lon="8.518469443631393"><ele>0.6666666666666666</ele><time>2026-05-01T06:48:29.999Z</time></trkpt><trkpt lat="39.721663079444056" lon="8.518235843562385"><ele>0.0</ele><time>2026-05-01T06:48:30.999Z</time></trkpt><trkpt lat="39.721662624253064" lon="8.518002799580497"><ele>0.6666666666666666</ele><time>2026-05-01T06:48:31.999Z</time></trkpt><trkpt lat="39.721662423698916" lon="8.51776995118052"><ele>1.3333333333333333</ele><time>2026-05-01T06:48:32.999Z</time></trkpt><trkpt lat="39.721661867474076" lon="8.517536783832005"><ele>2.0</ele><time>2026-05-01T06:48:33.999Z</time></trkpt><trkpt lat="39.72166080903206" lon="8.517302770937937"><ele>1.6666666666666665</ele><time>2026-05-01T06:48:34.999Z</time></trkpt><trkpt lat="39.721659766090596" lon="8.517067766918304"><ele>1.3333333333333333</ele><time>2026-05-01T06:48:35.999Z</time></trkpt><trkpt lat="39.72165876592763" lon="8.516832946479791"><ele>1.0</ele><time>2026-05-01T06:48:36.999Z</time></trkpt><trkpt lat="39.72165777394198" lon="8.516598416897615"><ele>1.0</ele><time>2026-05-01T06:48:37.999Z</time></trkpt><trkpt lat="39.721657548909434" lon="8.516365544278404"><ele>1.0</ele><time>2026-05-01T06:48:38.999Z</time></trkpt><trkpt lat="39.721657439891594" lon="8.516132535448234"><ele>1.0</ele><time>2026-05-01T06:48:39.999Z</time></trkpt><trkpt lat="39.72165567374045" lon="8.515898978318653"><ele>1.6666666666666665</ele><time>2026-05-01T06:48:40.999Z</time></trkpt><trkpt lat="39.721654700367715" lon="8.51566577698603"><ele>2.3333333333333335</ele><time>2026-05-01T06:48:41.998Z</time></trkpt><trkpt lat="39.72165312570255" lon="8.515433563605347"><ele>3.0</ele><time>2026-05-01T06:48:42.998Z</time></trkpt><trkpt lat="39.72165137083347" lon="8.515203793616928"><ele>4.0</ele><time>2026-05-01T06:48:43.998Z</time></trkpt><trkpt lat="39.72164897240794" lon="8.514973272872352"><ele>5.0</ele><time>2026-05-01T06:48:44.998Z</time></trkpt><trkpt lat="39.721648320716355" lon="8.514744316411422"><ele>6.0</ele><time>2026-05-01T06:48:45.998Z</time></trkpt><trkpt lat="39.72165155737978" lon="8.514518020996944"><ele>7.0</ele><time>2026-05-01T06:48:46.998Z</time></trkpt><trkpt lat="39.721654550797666" lon="8.51428889751317"><ele>8.0</ele><time>2026-05-01T06:48:47.998Z</time></trkpt><trkpt lat="39.721654436763885" lon="8.51406069718725"><ele>9.0</ele><time>2026-05-01T06:48:48.998Z</time></trkpt><trkpt lat="39.72164947419065" lon="8.513834825305697"><ele>9.0</ele><time>2026-05-01T06:48:49.998Z</time></trkpt><trkpt lat="39.7216373913061" lon="8.513607793258078"><ele>9.0</ele><time>2026-05-01T06:48:50.998Z</time></trkpt><trkpt lat="39.72161409194606" lon="8.513382095009494"><ele>9.0</ele><time>2026-05-01T06:48:51.998Z</time></trkpt><trkpt lat="39.72157475927178" lon="8.513159072152247"><ele>9.0</ele><time>2026-05-01T06:48:53Z</time></trkpt><trkpt lat="39.72155303946889" lon="8.512930800280838"><ele>9.0</ele><time>2026-05-01T06:48:54Z</time></trkpt><trkpt lat="39.721500017518004" lon="8.512708444627826"><ele>9.0</ele><time>2026-05-01T06:48:55Z</time></trkpt><trkpt lat="39.72146371061728" lon="8.512480326086676"><ele>7.666666666666667</ele><time>2026-05-01T06:48:56Z</time></trkpt><trkpt lat="39.721426273804205" lon="8.51225318622197"><ele>6.333333333333334</ele><time>2026-05-01T06:48:57Z</time></trkpt><trkpt lat="39.72140497487789" lon="8.512024653932908"><ele>5.0</ele><time>2026-05-01T06:48:58Z</time></trkpt><trkpt lat="39.72136885071807" lon="8.511803574989866"><ele>5.0</ele><time>2026-05-01T06:48:59Z</time></trkpt><trkpt lat="39.72133306394211" lon="8.511582987810666"><ele>5.0</ele><time>2026-05-01T06:49:00Z</time></trkpt><trkpt lat="39.7212819540825" lon="8.511367735289415"><ele>5.0</ele><time>2026-05-01T06:49:01Z</time></trkpt><trkpt lat="39.72124694016073" lon="8.511147263518566"><ele>5.0</ele><time>2026-05-01T06:49:02Z</time></trkpt><trkpt lat="39.721209403315235" lon="8.510926568141478"><ele>5.0</ele><time>2026-05-01T06:49:03Z</time></trkpt><trkpt lat="39.721174281188695" lon="8.510705650054017"><ele>5.0</ele><time>2026-05-01T06:49:04Z</time></trkpt><trkpt lat="39.72114128662164" lon="8.51049801776995"><ele>4.75</ele><time>2026-05-01T06:49:05Z</time></trkpt><trkpt lat="39.72111252462325" lon="8.51030617142048"><ele>4.5</ele><time>2026-05-01T06:49:06Z</time></trkpt><trkpt lat="39.721083671674656" lon="8.510127147922958"><ele>4.25</ele><time>2026-05-01T06:49:07Z</time></trkpt><trkpt lat="39.72105518062753" lon="8.509957015798289"><ele>4.0</ele><time>2026-05-01T06:49:08Z</time></trkpt><trkpt lat="39.72103005722472" lon="8.509795906596498"><ele>4.0</ele><time>2026-05-01T06:49:09Z</time></trkpt><trkpt lat="39.72100256916316" lon="8.50963401942736"><ele>4.0</ele><time>2026-05-01T06:49:10Z</time></trkpt><trkpt lat="39.720975995153836" lon="8.509472302471798"><ele>4.0</ele><time>2026-05-01T06:49:11Z</time></trkpt><trkpt lat="39.72095021883594" lon="8.509322920337837"><ele>4.0</ele><time>2026-05-01T06:49:12Z</time></trkpt><trkpt lat="39.7209258594701" lon="8.509183915447956"><ele>3.8000000000000003</ele><time>2026-05-01T06:49:13Z</time></trkpt><trkpt lat="39.72089808256022" lon="8.509051197425428"><ele>3.6000000000000005</ele><time>2026-05-01T06:49:14Z</time></trkpt><trkpt lat="39.72088159729343" lon="8.508920887069118"><ele>3.4</ele><time>2026-05-01T06:49:15Z</time></trkpt><trkpt lat="39.72084684277132" lon="8.508806148297916"><ele>3.2</ele><time>2026-05-01T06:49:16Z</time></trkpt><trkpt lat="39.720794369122466" lon="8.50869695225546"><ele>3.0</ele><time>2026-05-01T06:49:17Z</time></trkpt><trkpt lat="39.72075247454771" lon="8.50857616837172"><ele>3.0</ele><time>2026-05-01T06:49:18Z</time></trkpt><trkpt lat="39.720712425614835" lon="8.508466238443752"><ele>3.0</ele><time>2026-05-01T06:49:19Z</time></trkpt><trkpt lat="39.72067601079465" lon="8.50836605435592"><ele>3.0</ele><time>2026-05-01T06:49:20Z</time></trkpt><trkpt lat="39.72063964331827" lon="8.508271098810464"><ele>3.0</ele><time>2026-05-01T06:49:21Z</time></trkpt><trkpt lat="39.72060424913308" lon="8.50818101789411"><ele>3.0</ele><time>2026-05-01T06:49:22Z</time></trkpt><trkpt lat="39.72057192125568" lon="8.50809566904059"><ele>3.0</ele><time>2026-05-01T06:49:23Z</time></trkpt><trkpt lat="39.72053632823879" lon="8.508014653103322"><ele>3.0</ele><time>2026-05-01T06:49:24Z</time></trkpt><trkpt lat="39.72050164431292" lon="8.507943896804823"><ele>3.0</ele><time>2026-05-01T06:49:25Z</time></trkpt><trkpt lat="39.72044091629171" lon="8.507822066987922"><ele>3.0</ele><time>2026-05-01T06:49:27Z</time></trkpt><trkpt lat="39.720395197536654" lon="8.50774119648907"><ele>3.0</ele><time>2026-05-01T06:49:30Z</time></trkpt><trkpt lat="39.72033106672376" lon="8.50765222242524"><ele>3.0</ele><time>2026-05-01T06:50:29.999Z</time></trkpt><trkpt lat="39.720273338800226" lon="8.507530792867929"><ele>3.0</ele><time>2026-05-01T06:50:31.999Z</time></trkpt><trkpt lat="39.72021160482793" lon="8.507411657980196"><ele>3.0</ele><time>2026-05-01T06:50:33.999Z</time></trkpt><trkpt lat="39.72014419178244" lon="8.507316815655575"><ele>3.0</ele><time>2026-05-01T06:50:35.999Z</time></trkpt><trkpt lat="39.72008548948332" lon="8.507248215677093"><ele>3.0</ele><time>2026-05-01T06:50:37.999Z</time></trkpt><trkpt lat="39.72003146362011" lon="8.507182303352094"><ele>3.0</ele><time>2026-05-01T06:50:39.999Z</time></trkpt><trkpt lat="39.71998303666358" lon="8.507116490964622"><ele>3.0</ele><time>2026-05-01T06:50:41.999Z</time></trkpt><trkpt lat="39.719950511611685" lon="8.507038651315645"><ele>2.6</ele><time>2026-05-01T06:50:43.998Z</time></trkpt><trkpt lat="39.71995117605158" lon="8.506946281878657"><ele>2.1999999999999997</ele><time>2026-05-01T06:50:45.998Z</time></trkpt><trkpt lat="39.7199134577023" lon="8.506839336815219"><ele>1.8</ele><time>2026-05-01T06:50:48.998Z</time></trkpt><trkpt lat="39.71985577762868" lon="8.506743689152541"><ele>1.4</ele><time>2026-05-01T06:50:50.998Z</time></trkpt><trkpt lat="39.71975917744812" lon="8.506679686861315"><ele>1.0</ele><time>2026-05-01T06:50:52.998Z</time></trkpt><trkpt lat="39.71967273507968" lon="8.506622315847933"><ele>0.9999999999999999</ele><time>2026-05-01T06:50:54.998Z</time></trkpt><trkpt lat="39.719557144119285" lon="8.506545599013867"><ele>1.0</ele><time>2026-05-01T06:50:56.998Z</time></trkpt><trkpt lat="39.71948786766282" lon="8.506499620819291"><ele>1.0</ele><time>2026-05-01T06:50:57.998Z</time></trkpt><trkpt lat="39.71942721245303" lon="8.506459364455218"><ele>1.0</ele><time>2026-05-01T06:50:59Z</time></trkpt><trkpt lat="39.719369915809864" lon="8.506421337151602"><ele>0.9999999999999999</ele><time>2026-05-01T06:51:00Z</time></trkpt><trkpt lat="39.71930628881164" lon="8.506379108421143"><ele>1.0</ele><time>2026-05-01T06:51:01Z</time></trkpt><trkpt lat="39.71923516858412" lon="8.506331906499627"><ele>0.8333333333333333</ele><time>2026-05-01T06:51:02Z</time></trkpt><trkpt lat="39.71916663197875" lon="8.506286419308118"><ele>0.6666666666666666</ele><time>2026-05-01T06:51:03Z</time></trkpt><trkpt lat="39.71910475866421" lon="8.50624535449632"><ele>0.5</ele><time>2026-05-01T06:51:04Z</time></trkpt><trkpt lat="39.71904748446129" lon="8.506207342060906"><ele>0.3333333333333333</ele><time>2026-05-01T06:51:05Z</time></trkpt><trkpt lat="39.71898577849117" lon="8.506166388338807"><ele>0.16666666666666666</ele><time>2026-05-01T06:51:06Z</time></trkpt><trkpt lat="39.71891104485243" lon="8.506116788244448"><ele>0.0</ele><time>2026-05-01T06:51:07Z</time></trkpt><trkpt lat="39.71883419092813" lon="8.506065780907303"><ele>0.0</ele><time>2026-05-01T06:51:08Z</time></trkpt><trkpt lat="39.718762418568204" lon="8.506018146204486"><ele>0.0</ele><time>2026-05-01T06:51:09Z</time></trkpt><trkpt lat="39.718692996952065" lon="8.505972181110984"><ele>0.0</ele><time>2026-05-01T06:51:10Z</time></trkpt><trkpt lat="39.71862091309316" lon="8.505924652965513"><ele>0.0</ele><time>2026-05-01T06:51:11Z</time></trkpt><trkpt lat="39.71854698628133" lon="8.505875909683532"><ele>0.0</ele><time>2026-05-01T06:51:12Z</time></trkpt><trkpt lat="39.71847215730846" lon="8.505826571582576"><ele>0.0</ele><time>2026-05-01T06:51:13Z</time></trkpt><trkpt lat="39.71840198605509" lon="8.505780304534891"><ele>0.0</ele><time>2026-05-01T06:51:14Z</time></trkpt><trkpt lat="39.71833459266317" lon="8.505735869018332"><ele>0.0</ele><time>2026-05-01T06:51:15Z</time></trkpt><trkpt lat="39.71827082751695" lon="8.505693825799018"><ele>0.0</ele><time>2026-05-01T06:51:16Z</time></trkpt><trkpt lat="39.718210687897944" lon="8.50565417300497"><ele>0.0</ele><time>2026-05-01T06:51:17Z</time></trkpt><trkpt lat="39.71815346489661" lon="8.505616443305883"><ele>0.0</ele><time>2026-05-01T06:51:18Z</time></trkpt><trkpt lat="39.71804869977093" lon="8.505547366961896"><ele>0.0</ele><time>2026-05-01T06:51:20Z</time></trkpt><trkpt lat="39.717952600075094" lon="8.505484004119312"><ele>0.0</ele><time>2026-05-01T06:51:22Z</time></trkpt><trkpt lat="39.71788996265475" lon="8.505442704407573"><ele>0.0</ele><time>2026-05-01T06:51:23Z</time></trkpt><trkpt lat="39.71781824963404" lon="8.505395420741756"><ele>0.0</ele><time>2026-05-01T06:51:24Z</time></trkpt><trkpt lat="39.71774032963139" lon="8.505344044612388"><ele>0.0</ele><time>2026-05-01T06:51:25Z</time></trkpt><trkpt lat="39.717665130347804" lon="8.50529446235698"><ele>0.0</ele><time>2026-05-01T06:51:26Z</time></trkpt><trkpt lat="39.71759709894054" lon="8.505249606217303"><ele>0.0</ele><time>2026-05-01T06:51:27Z</time></trkpt><trkpt lat="39.71753397654273" lon="8.505207986778384"><ele>0.0</ele><time>2026-05-01T06:51:28Z</time></trkpt><trkpt lat="39.717473082738984" lon="8.505167836747999"><ele>0.0</ele><time>2026-05-01T06:51:29Z</time></trkpt><trkpt lat="39.71741229445971" lon="8.505127756287296"><ele>0.0</ele><time>2026-05-01T06:51:30Z</time></trkpt><trkpt lat="39.717344062340544" lon="8.505082767778218"><ele>0.0</ele><time>2026-05-01T06:51:31Z</time></trkpt><trkpt lat="39.71727393920882" lon="8.50503653244902"><ele>0.0</ele><time>2026-05-01T06:51:32Z</time></trkpt><trkpt lat="39.71721083308622" lon="8.504994923723064"><ele>0.0</ele><time>2026-05-01T06:51:33Z</time></trkpt><trkpt lat="39.71714312492594" lon="8.504950455741351"><ele>0.0</ele><time>2026-05-01T06:51:34Z</time></trkpt><trkpt lat="39.71706773169976" lon="8.504900953334527"><ele>0.0</ele><time>2026-05-01T06:51:35Z</time></trkpt><trkpt lat="39.71698821496093" lon="8.504848743491397"><ele>0.0</ele><time>2026-05-01T06:51:36Z</time></trkpt><trkpt lat="39.716910845453704" lon="8.504797943453209"><ele>0.0</ele><time>2026-05-01T06:51:37Z</time></trkpt><trkpt lat="39.716839773717716" lon="8.504751278500255"><ele>0.0</ele><time>2026-05-01T06:51:38Z</time></trkpt><trkpt lat="39.716772703862226" lon="8.50470724113842"><ele>0.0</ele><time>2026-05-01T06:51:39Z</time></trkpt><trkpt lat="39.71670861784541" lon="8.50466516294228"><ele>0.0</ele><time>2026-05-01T06:51:40Z</time></trkpt><trkpt lat="39.71664219474648" lon="8.504621550200866"><ele>0.0</ele><time>2026-05-01T06:51:41Z</time></trkpt><trkpt lat="39.71658017870296" lon="8.504580831104233"><ele>0.0</ele><time>2026-05-01T06:51:42Z</time></trkpt><trkpt lat="39.71651434789169" lon="8.50453760729165"><ele>0.0</ele><time>2026-05-01T06:51:43Z</time></trkpt><trkpt lat="39.716451746974236" lon="8.504496504178567"><ele>0.0</ele><time>2026-05-01T06:51:44Z</time></trkpt><trkpt lat="39.716385386644916" lon="8.504452932692013"><ele>0.0</ele><time>2026-05-01T06:51:45Z</time></trkpt><trkpt lat="39.716316073534884" lon="8.504407422398305"><ele>0.0</ele><time>2026-05-01T06:51:46Z</time></trkpt><trkpt lat="39.716249833347334" lon="8.504363762596366"><ele>0.0</ele><time>2026-05-01T06:51:47Z</time></trkpt><trkpt lat="39.716184341001146" lon="8.504320360322504"><ele>0.0</ele><time>2026-05-01T06:51:47.999Z</time></trkpt><trkpt lat="39.71611577945567" lon="8.504274924077032"><ele>0.0</ele><time>2026-05-01T06:51:48.999Z</time></trkpt><trkpt lat="39.71605064548008" lon="8.504231759216463"><ele>0.0</ele><time>2026-05-01T06:51:49.999Z</time></trkpt><trkpt lat="39.715992678049275" lon="8.50419334372803"><ele>0.0</ele><time>2026-05-01T06:51:50.999Z</time></trkpt><trkpt lat="39.71586907412567" lon="8.504111430504576"><ele>0.0</ele><time>2026-05-01T06:51:52.999Z</time></trkpt><trkpt lat="39.715793259101865" lon="8.504061187289333"><ele>0.0</ele><time>2026-05-01T06:51:53.999Z</time></trkpt><trkpt lat="39.715712718192414" lon="8.504007812205824"><ele>0.0</ele><time>2026-05-01T06:51:54.999Z</time></trkpt><trkpt lat="39.715635252225226" lon="8.50395617823127"><ele>0.0</ele><time>2026-05-01T06:51:55.999Z</time></trkpt><trkpt lat="39.71556186472105" lon="8.50390727138453"><ele>0.0</ele><time>2026-05-01T06:51:56.999Z</time></trkpt><trkpt lat="39.71549365267349" lon="8.503862550561562"><ele>0.0</ele><time>2026-05-01T06:51:57.999Z</time></trkpt><trkpt lat="39.71542961116558" lon="8.503820563978945"><ele>0.0</ele><time>2026-05-01T06:51:58.999Z</time></trkpt><trkpt lat="39.71536711210469" lon="8.503779588642244"><ele>0.0</ele><time>2026-05-01T06:51:59.999Z</time></trkpt><trkpt lat="39.71529827521528" lon="8.503734458047733"><ele>0.0</ele><time>2026-05-01T06:52:00.999Z</time></trkpt><trkpt lat="39.71522654630948" lon="8.50368743171691"><ele>0.0</ele><time>2026-05-01T06:52:01.999Z</time></trkpt><trkpt lat="39.71515277792789" lon="8.503639068048184"><ele>0.0</ele><time>2026-05-01T06:52:02.999Z</time></trkpt><trkpt lat="39.71508525506143" lon="8.50359479915782"><ele>0.0</ele><time>2026-05-01T06:52:03.999Z</time></trkpt><trkpt lat="39.71501715997106" lon="8.503550154909874"><ele>0.0</ele><time>2026-05-01T06:52:04.999Z</time></trkpt><trkpt lat="39.714943123129046" lon="8.503501615260879"><ele>0.0</ele><time>2026-05-01T06:52:05.999Z</time></trkpt><trkpt lat="39.71486481153206" lon="8.50345027308268"><ele>0.0</ele><time>2026-05-01T06:52:06.999Z</time></trkpt><trkpt lat="39.7147875467646" lon="8.503399617268487"><ele>0.0</ele><time>2026-05-01T06:52:07.999Z</time></trkpt><trkpt lat="39.71470929660408" lon="8.503348311229862"><ele>0.0</ele><time>2026-05-01T06:52:08.999Z</time></trkpt><trkpt lat="39.71463121039565" lon="8.503297112728164"><ele>0.0</ele><time>2026-05-01T06:52:09.999Z</time></trkpt><trkpt lat="39.714558993808815" lon="8.50324976271899"><ele>0.0</ele><time>2026-05-01T06:52:10.999Z</time></trkpt><trkpt lat="39.71449169526094" lon="8.50320563734104"><ele>0.0</ele><time>2026-05-01T06:52:11.999Z</time></trkpt><trkpt lat="39.714427806753804" lon="8.503163747811922"><ele>0.16666666666666666</ele><time>2026-05-01T06:52:12.999Z</time></trkpt><trkpt lat="39.714365908053225" lon="8.50312316289678"><ele>0.3333333333333333</ele><time>2026-05-01T06:52:13.999Z</time></trkpt><trkpt lat="39.7142562838794" lon="8.50305128605315"><ele>0.5</ele><time>2026-05-01T06:52:15.999Z</time></trkpt><trkpt lat="39.71419376801088" lon="8.503010296545687"><ele>0.6666666666666666</ele><time>2026-05-01T06:52:16.999Z</time></trkpt><trkpt lat="39.714122944849" lon="8.502963860139426"><ele>0.8333333333333333</ele><time>2026-05-01T06:52:17.999Z</time></trkpt><trkpt lat="39.71404771929917" lon="8.502914537292577"><ele>1.0</ele><time>2026-05-01T06:52:18.999Z</time></trkpt><trkpt lat="39.71396831466455" lon="8.502862474373302"><ele>0.9999999999999999</ele><time>2026-05-01T06:52:19.999Z</time></trkpt><trkpt lat="39.71388480793187" lon="8.502807721819995"><ele>1.0</ele><time>2026-05-01T06:52:20.999Z</time></trkpt><trkpt lat="39.71380218060942" lon="8.502753545885335"><ele>1.0</ele><time>2026-05-01T06:52:21.999Z</time></trkpt><trkpt lat="39.71372665504156" lon="8.502704026303206"><ele>1.0</ele><time>2026-05-01T06:52:22.999Z</time></trkpt><trkpt lat="39.71365753583423" lon="8.50265870721738"><ele>0.9999999999999999</ele><time>2026-05-01T06:52:23.999Z</time></trkpt><trkpt lat="39.713593148416315" lon="8.502616490574832"><ele>1.0</ele><time>2026-05-01T06:52:24.999Z</time></trkpt><trkpt lat="39.71353053846381" lon="8.502575439328364"><ele>0.9999999999999999</ele><time>2026-05-01T06:52:25.999Z</time></trkpt><trkpt lat="39.71347175970678" lon="8.50253690002545"><ele>1.0</ele><time>2026-05-01T06:52:26.999Z</time></trkpt><trkpt lat="39.713362701470636" lon="8.50246539422233"><ele>1.0</ele><time>2026-05-01T06:52:28.999Z</time></trkpt><trkpt lat="39.713305299633674" lon="8.50242775780846"><ele>1.0</ele><time>2026-05-01T06:52:29.999Z</time></trkpt><trkpt lat="39.71323893280567" lon="8.502384460118213"><ele>0.9999999999999999</ele><time>2026-05-01T06:52:30.999Z</time></trkpt><trkpt lat="39.71317756072782" lon="8.502345440840134"><ele>1.0</ele><time>2026-05-01T06:52:31.999Z</time></trkpt><trkpt lat="39.71307400537077" lon="8.502279602111518"><ele>1.0</ele><time>2026-05-01T06:52:33.999Z</time></trkpt><trkpt lat="39.71297166002178" lon="8.502217742992077"><ele>1.0</ele><time>2026-05-01T06:52:35.999Z</time></trkpt><trkpt lat="39.71285381954298" lon="8.50215615171522"><ele>1.0</ele><time>2026-05-01T06:52:37.999Z</time></trkpt><trkpt lat="39.71277857626311" lon="8.502134607292216"><ele>1.0</ele><time>2026-05-01T06:52:38.999Z</time></trkpt><trkpt lat="39.712709008098834" lon="8.50208233509192"><ele>1.0</ele><time>2026-05-01T06:52:39.999Z</time></trkpt><trkpt lat="39.712640437554654" lon="8.502029474720647"><ele>1.3333333333333333</ele><time>2026-05-01T06:52:40.999Z</time></trkpt><trkpt lat="39.71254669080496" lon="8.501958302604127"><ele>1.6666666666666665</ele><time>2026-05-01T06:52:42.999Z</time></trkpt><trkpt lat="39.71250253183872" lon="8.501839343276295"><ele>2.0</ele><time>2026-05-01T06:52:44.999Z</time></trkpt><trkpt lat="39.71249357420716" lon="8.501753635516952"><ele>2.3333333333333335</ele><time>2026-05-01T06:52:45.999Z</time></trkpt><trkpt lat="39.712515970656874" lon="8.501647239007577"><ele>2.6666666666666665</ele><time>2026-05-01T06:52:46.999Z</time></trkpt><trkpt lat="39.71252636132546" lon="8.50153865283178"><ele>3.0</ele><time>2026-05-01T06:52:47.998Z</time></trkpt><trkpt lat="39.71253505336895" lon="8.501424033317019"><ele>3.0</ele><time>2026-05-01T06:52:48.998Z</time></trkpt><trkpt lat="39.712553239994534" lon="8.50131412892686"><ele>3.0</ele><time>2026-05-01T06:52:49.998Z</time></trkpt><trkpt lat="39.71258111463141" lon="8.501198260674737"><ele>3.0</ele><time>2026-05-01T06:52:50.998Z</time></trkpt><trkpt lat="39.71262118384489" lon="8.501082620243137"><ele>3.0</ele><time>2026-05-01T06:52:51.998Z</time></trkpt><trkpt lat="39.71267301810925" lon="8.500965705769543"><ele>3.0</ele><time>2026-05-01T06:52:52.998Z</time></trkpt><trkpt lat="39.7127337272618" lon="8.500852850232569"><ele>3.2</ele><time>2026-05-01T06:52:53.998Z</time></trkpt><trkpt lat="39.712792149985376" lon="8.500740178093741"><ele>3.4</ele><time>2026-05-01T06:52:54.998Z</time></trkpt><trkpt lat="39.71285067956206" lon="8.500625857358484"><ele>3.6000000000000005</ele><time>2026-05-01T06:52:55.998Z</time></trkpt><trkpt lat="39.712911204862976" lon="8.500507728136435"><ele>3.8000000000000003</ele><time>2026-05-01T06:52:56.998Z</time></trkpt><trkpt lat="39.712976245854016" lon="8.500391370551114"><ele>4.0</ele><time>2026-05-01T06:52:57.998Z</time></trkpt><trkpt lat="39.713046210360204" lon="8.500275783935033"><ele>4.0</ele><time>2026-05-01T06:52:58.998Z</time></trkpt><trkpt lat="39.71312126564097" lon="8.500157339575454"><ele>4.0</ele><time>2026-05-01T06:52:59.998Z</time></trkpt><trkpt lat="39.713200084117595" lon="8.500037505621135"><ele>4.0</ele><time>2026-05-01T06:53:00.998Z</time></trkpt><trkpt lat="39.71327985242877" lon="8.499913767565737"><ele>4.0</ele><time>2026-05-01T06:53:01.998Z</time></trkpt><trkpt lat="39.713353696290845" lon="8.499780717201253"><ele>4.0</ele><time>2026-05-01T06:53:02.998Z</time></trkpt><trkpt lat="39.71342723334163" lon="8.499645552628863"><ele>4.0</ele><time>2026-05-01T06:53:03.998Z</time></trkpt><trkpt lat="39.713501276887534" lon="8.499511891862586"><ele>4.0</ele><time>2026-05-01T06:53:05Z</time></trkpt><trkpt lat="39.713574341657086" lon="8.499378713266825"><ele>4.0</ele><time>2026-05-01T06:53:06Z</time></trkpt><trkpt lat="39.71364280298241" lon="8.49923146163905"><ele>3.25</ele><time>2026-05-01T06:53:07Z</time></trkpt><trkpt lat="39.71370772904052" lon="8.49906942480315"><ele>2.5</ele><time>2026-05-01T06:53:08Z</time></trkpt><trkpt lat="39.71376896144603" lon="8.498904120330236"><ele>1.75</ele><time>2026-05-01T06:53:09Z</time></trkpt><trkpt lat="39.713824481022804" lon="8.498735435346322"><ele>1.0</ele><time>2026-05-01T06:53:10Z</time></trkpt><trkpt lat="39.71386595739027" lon="8.498564354514842"><ele>1.0</ele><time>2026-05-01T06:53:11Z</time></trkpt><trkpt lat="39.71388180664524" lon="8.498388894228064"><ele>1.0</ele><time>2026-05-01T06:53:12Z</time></trkpt><trkpt lat="39.71387169741663" lon="8.498211499132282"><ele>1.0</ele><time>2026-05-01T06:53:13Z</time></trkpt><trkpt lat="39.71385326199243" lon="8.498030743423293"><ele>1.0</ele><time>2026-05-01T06:53:14Z</time></trkpt><trkpt lat="39.7138455509241" lon="8.49784960378263"><ele>1.0</ele><time>2026-05-01T06:53:15Z</time></trkpt><trkpt lat="39.71385187514213" lon="8.497669210227487"><ele>1.0</ele><time>2026-05-01T06:53:16Z</time></trkpt><trkpt lat="39.71387030251784" lon="8.497488993951803"><ele>1.0</ele><time>2026-05-01T06:53:17Z</time></trkpt><trkpt lat="39.71389256738149" lon="8.497312844432162"><ele>1.0</ele><time>2026-05-01T06:53:18Z</time></trkpt><trkpt lat="39.71391399222397" lon="8.497137274980084"><ele>0.75</ele><time>2026-05-01T06:53:19Z</time></trkpt><trkpt lat="39.71392687217991" lon="8.496966602994496"><ele>0.5</ele><time>2026-05-01T06:53:20Z</time></trkpt><trkpt lat="39.71391888735058" lon="8.496806356341475"><ele>0.25</ele><time>2026-05-01T06:53:21Z</time></trkpt><trkpt lat="39.71389025781204" lon="8.496657416587343"><ele>0.0</ele><time>2026-05-01T06:53:22Z</time></trkpt><trkpt lat="39.71383666120034" lon="8.496525452998043"><ele>0.0</ele><time>2026-05-01T06:53:23Z</time></trkpt><trkpt lat="39.7137544820595" lon="8.49642627502145"><ele>0.0</ele><time>2026-05-01T06:53:24Z</time></trkpt><trkpt lat="39.71365469431189" lon="8.496367434477557"><ele>0.0</ele><time>2026-05-01T06:53:25Z</time></trkpt><trkpt lat="39.71356801450855" lon="8.496306033030764"><ele>0.0</ele><time>2026-05-01T06:53:26Z</time></trkpt><trkpt lat="39.71347706642633" lon="8.496259587033167"><ele>0.0</ele><time>2026-05-01T06:53:27Z</time></trkpt><trkpt lat="39.713382310564974" lon="8.496223599808452"><ele>0.4</ele><time>2026-05-01T06:53:28Z</time></trkpt><trkpt lat="39.71327514425685" lon="8.496213748308575"><ele>0.8</ele><time>2026-05-01T06:53:29Z</time></trkpt><trkpt lat="39.71316781650976" lon="8.49619859935597"><ele>1.2000000000000002</ele><time>2026-05-01T06:53:30Z</time></trkpt><trkpt lat="39.713069572570404" lon="8.496215077043193"><ele>1.6</ele><time>2026-05-01T06:53:31Z</time></trkpt><trkpt lat="39.71298330798808" lon="8.49620366362876"><ele>2.0</ele><time>2026-05-01T06:53:32Z</time></trkpt><trkpt lat="39.712919633795366" lon="8.496201088797761"><ele>1.9999999999999998</ele><time>2026-05-01T06:53:33Z</time></trkpt><trkpt lat="39.71283405459563" lon="8.496153725220351"><ele>2.0</ele><time>2026-05-01T06:53:35Z</time></trkpt><trkpt lat="39.712785640294555" lon="8.496101294415604"><ele>2.0</ele><time>2026-05-01T06:53:37Z</time></trkpt><trkpt lat="39.71275350500424" lon="8.4960293323504"><ele>2.0</ele><time>2026-05-01T06:53:39Z</time></trkpt><trkpt lat="39.712756697718916" lon="8.495890958729595"><ele>1.9999999999999998</ele><time>2026-05-01T06:53:41Z</time></trkpt><trkpt lat="39.71282276834468" lon="8.495788460100576"><ele>2.0</ele><time>2026-05-01T06:53:42Z</time></trkpt><trkpt lat="39.71288565908119" lon="8.495641277399072"><ele>2.0</ele><time>2026-05-01T06:53:43Z</time></trkpt><trkpt lat="39.71294037572294" lon="8.495467938678301"><ele>2.0</ele><time>2026-05-01T06:53:44Z</time></trkpt><trkpt lat="39.713006362808734" lon="8.495301893256048"><ele>2.0</ele><time>2026-05-01T06:53:45Z</time></trkpt><trkpt lat="39.71307274993941" lon="8.495120285647943"><ele>2.0</ele><time>2026-05-01T06:53:46Z</time></trkpt><trkpt lat="39.71316183807969" lon="8.49493094175345"><ele>1.6666666666666665</ele><time>2026-05-01T06:53:47Z</time></trkpt><trkpt lat="39.71322591754189" lon="8.494716684492785"><ele>1.3333333333333333</ele><time>2026-05-01T06:53:48Z</time></trkpt><trkpt lat="39.71330726743606" lon="8.49451270895826"><ele>1.0</ele><time>2026-05-01T06:53:49Z</time></trkpt><trkpt lat="39.713391134563494" lon="8.494304140852154"><ele>1.3333333333333333</ele><time>2026-05-01T06:53:50Z</time></trkpt><trkpt lat="39.71348097651972" lon="8.494089925360772"><ele>1.6666666666666665</ele><time>2026-05-01T06:53:50.999Z</time></trkpt><trkpt lat="39.71357099937671" lon="8.493876760756953"><ele>2.0</ele><time>2026-05-01T06:53:51.999Z</time></trkpt><trkpt lat="39.71365655941842" lon="8.493662502008494"><ele>2.0</ele><time>2026-05-01T06:53:52.999Z</time></trkpt><trkpt lat="39.71374065597867" lon="8.49344865345569"><ele>2.0</ele><time>2026-05-01T06:53:53.999Z</time></trkpt><trkpt lat="39.71382364846204" lon="8.4932407615479"><ele>2.0</ele><time>2026-05-01T06:53:54.999Z</time></trkpt><trkpt lat="39.713908391864884" lon="8.493039603156092"><ele>3.666666666666667</ele><time>2026-05-01T06:53:55.999Z</time></trkpt><trkpt lat="39.71399708128787" lon="8.492844972096549"><ele>5.333333333333334</ele><time>2026-05-01T06:53:56.999Z</time></trkpt><trkpt lat="39.71409076510764" lon="8.492657272203713"><ele>7.0</ele><time>2026-05-01T06:53:57.999Z</time></trkpt><trkpt lat="39.714186824235505" lon="8.49247467253369"><ele>7.0</ele><time>2026-05-01T06:53:58.999Z</time></trkpt><trkpt lat="39.714285414511885" lon="8.492294322470281"><ele>7.0</ele><time>2026-05-01T06:53:59.999Z</time></trkpt><trkpt lat="39.714383524906715" lon="8.492116017447145"><ele>7.0</ele><time>2026-05-01T06:54:00.999Z</time></trkpt><trkpt lat="39.714477075780835" lon="8.491931668648368"><ele>4.666666666666667</ele><time>2026-05-01T06:54:01.999Z</time></trkpt><trkpt lat="39.714562532982114" lon="8.491741968307261"><ele>2.3333333333333335</ele><time>2026-05-01T06:54:02.999Z</time></trkpt><trkpt lat="39.714640112740476" lon="8.491546688053079"><ele>0.0</ele><time>2026-05-01T06:54:03.999Z</time></trkpt><trkpt lat="39.71470448340361" lon="8.491343439290032"><ele>0.3333333333333333</ele><time>2026-05-01T06:54:04.999Z</time></trkpt><trkpt lat="39.71475678585884" lon="8.491135978677221"><ele>0.6666666666666666</ele><time>2026-05-01T06:54:05.999Z</time></trkpt><trkpt lat="39.71479819729847" lon="8.490926512665634"><ele>1.0</ele><time>2026-05-01T06:54:06.999Z</time></trkpt><trkpt lat="39.714838702404236" lon="8.490715842726006"><ele>1.0</ele><time>2026-05-01T06:54:07.999Z</time></trkpt><trkpt lat="39.71487606271035" lon="8.490506699395084"><ele>1.0</ele><time>2026-05-01T06:54:08.999Z</time></trkpt><trkpt lat="39.71491522560421" lon="8.490298160674946"><ele>1.0</ele><time>2026-05-01T06:54:09.999Z</time></trkpt><trkpt lat="39.714955565719144" lon="8.49008839275509"><ele>1.3333333333333333</ele><time>2026-05-01T06:54:10.999Z</time></trkpt><trkpt lat="39.714996400500596" lon="8.489878908595745"><ele>1.6666666666666665</ele><time>2026-05-01T06:54:11.999Z</time></trkpt><trkpt lat="39.71503697497061" lon="8.489670000906948"><ele>2.0</ele><time>2026-05-01T06:54:12.999Z</time></trkpt><trkpt lat="39.715073668499095" lon="8.489466224990723"><ele>2.25</ele><time>2026-05-01T06:54:13.999Z</time></trkpt><trkpt lat="39.71510258087329" lon="8.489265592042786"><ele>2.5</ele><time>2026-05-01T06:54:14.999Z</time></trkpt><trkpt lat="39.715117126197235" lon="8.489078491913231"><ele>2.75</ele><time>2026-05-01T06:54:15.999Z</time></trkpt><trkpt lat="39.715118504074546" lon="8.488896695470162"><ele>3.0</ele><time>2026-05-01T06:54:16.999Z</time></trkpt><trkpt lat="39.71509594286062" lon="8.488731615883575"><ele>2.5</ele><time>2026-05-01T06:54:17.999Z</time></trkpt><trkpt lat="39.715058328675006" lon="8.488579709540746"><ele>2.0</ele><time>2026-05-01T06:54:18.999Z</time></trkpt><trkpt lat="39.7150136373804" lon="8.488429007478466"><ele>1.5</ele><time>2026-05-01T06:54:19.999Z</time></trkpt><trkpt lat="39.71495607707233" lon="8.488275480939478"><ele>1.0</ele><time>2026-05-01T06:54:20.999Z</time></trkpt><trkpt lat="39.71488419424485" lon="8.488125369341901"><ele>1.0</ele><time>2026-05-01T06:54:21.999Z</time></trkpt><trkpt lat="39.71479565030089" lon="8.487984424870671"><ele>1.0</ele><time>2026-05-01T06:54:22.999Z</time></trkpt><trkpt lat="39.71470225885093" lon="8.487843704703534"><ele>1.0</ele><time>2026-05-01T06:54:23.999Z</time></trkpt><trkpt lat="39.71461357878831" lon="8.487707741442732"><ele>1.0</ele><time>2026-05-01T06:54:24.999Z</time></trkpt><trkpt lat="39.714523991617796" lon="8.487574263257427"><ele>1.0</ele><time>2026-05-01T06:54:25.999Z</time></trkpt><trkpt lat="39.7144324298231" lon="8.48743680315918"><ele>1.0</ele><time>2026-05-01T06:54:26.999Z</time></trkpt><trkpt lat="39.71433816451908" lon="8.487289896592463"><ele>1.0</ele><time>2026-05-01T06:54:27.999Z</time></trkpt><trkpt lat="39.7142315519846" lon="8.487129667792924"><ele>2.0</ele><time>2026-05-01T06:54:28.999Z</time></trkpt><trkpt lat="39.714116570301556" lon="8.486968553920324"><ele>3.0</ele><time>2026-05-01T06:54:29.999Z</time></trkpt><trkpt lat="39.71400773921299" lon="8.48680986572013"><ele>4.0</ele><time>2026-05-01T06:54:30.999Z</time></trkpt><trkpt lat="39.713908197641224" lon="8.486664314494991"><ele>4.0</ele><time>2026-05-01T06:54:31.999Z</time></trkpt><trkpt lat="39.71381677332809" lon="8.486531410011526"><ele>4.0</ele><time>2026-05-01T06:54:32.999Z</time></trkpt><trkpt lat="39.71372761023772" lon="8.486403718221679"><ele>4.0</ele><time>2026-05-01T06:54:33.999Z</time></trkpt><trkpt lat="39.713645673007754" lon="8.486291900512192"><ele>4.0</ele><time>2026-05-01T06:54:34.999Z</time></trkpt><trkpt lat="39.71357834165473" lon="8.486216156499575"><ele>5.2</ele><time>2026-05-01T06:54:35.999Z</time></trkpt><trkpt lat="39.71351468655566" lon="8.486162921979952"><ele>6.4</ele><time>2026-05-01T06:54:37.999Z</time></trkpt><trkpt lat="39.71344369158489" lon="8.486138024430208"><ele>7.6</ele><time>2026-05-01T06:54:39.999Z</time></trkpt><trkpt lat="39.7133392603035" lon="8.486105539882736"><ele>8.8</ele><time>2026-05-01T06:54:40.999Z</time></trkpt><trkpt lat="39.71322312983225" lon="8.48599614689827"><ele>10.0</ele><time>2026-05-01T06:54:41.999Z</time></trkpt><trkpt lat="39.71308631179928" lon="8.48587819551356"><ele>10.0</ele><time>2026-05-01T06:54:42.999Z</time></trkpt><trkpt lat="39.71292740095983" lon="8.485763935329285"><ele>10.0</ele><time>2026-05-01T06:54:43.999Z</time></trkpt><trkpt lat="39.71278774396708" lon="8.48564513961575"><ele>10.0</ele><time>2026-05-01T06:54:44.999Z</time></trkpt><trkpt lat="39.71267655413019" lon="8.485549898324546"><ele>10.0</ele><time>2026-05-01T06:54:45.999Z</time></trkpt><trkpt lat="39.712586263165285" lon="8.48547083469319"><ele>10.0</ele><time>2026-05-01T06:54:46.999Z</time></trkpt><trkpt lat="39.71251131361475" lon="8.485410953216665"><ele>10.0</ele><time>2026-05-01T06:54:47.999Z</time></trkpt><trkpt lat="39.71244210983851" lon="8.48534919527709"><ele>10.0</ele><time>2026-05-01T06:54:48.999Z</time></trkpt><trkpt lat="39.71235849343457" lon="8.48528004134135"><ele>10.0</ele><time>2026-05-01T06:54:49.999Z</time></trkpt><trkpt lat="39.71225541934211" lon="8.48519669388295"><ele>11.2</ele><time>2026-05-01T06:54:50.998Z</time></trkpt><trkpt lat="39.71216379863695" lon="8.485127796506319"><ele>12.4</ele><time>2026-05-01T06:54:51.998Z</time></trkpt><trkpt lat="39.71209246790837" lon="8.485066187519644"><ele>13.600000000000001</ele><time>2026-05-01T06:54:52.998Z</time></trkpt><trkpt lat="39.7120272409645" lon="8.485008346462667"><ele>14.8</ele><time>2026-05-01T06:54:53.998Z</time></trkpt><trkpt lat="39.71196898633444" lon="8.484956568466949"><ele>16.0</ele><time>2026-05-01T06:54:54.998Z</time></trkpt><trkpt lat="39.71187389668983" lon="8.484862537469962"><ele>16.333333333333332</ele><time>2026-05-01T06:54:56.998Z</time></trkpt><trkpt lat="39.71180318768475" lon="8.484773748591781"><ele>16.666666666666664</ele><time>2026-05-01T06:54:58.998Z</time></trkpt><trkpt lat="39.71177225196932" lon="8.484693026934318"><ele>17.0</ele><time>2026-05-01T06:54:59.998Z</time></trkpt><trkpt lat="39.71176046114297" lon="8.48459826865112"><ele>17.333333333333332</ele><time>2026-05-01T06:55:00.998Z</time></trkpt><trkpt lat="39.711776874980714" lon="8.484498538715247"><ele>17.666666666666668</ele><time>2026-05-01T06:55:01.998Z</time></trkpt><trkpt lat="39.71180963505886" lon="8.484410490212207"><ele>18.0</ele><time>2026-05-01T06:55:02.998Z</time></trkpt><trkpt lat="39.71183626124887" lon="8.484336027094516"><ele>18.0</ele><time>2026-05-01T06:55:03.998Z</time></trkpt><trkpt lat="39.71187978209701" lon="8.484243960410465"><ele>18.0</ele><time>2026-05-01T06:55:05.998Z</time></trkpt><trkpt lat="39.71179927973609" lon="8.484369237465348"><ele>18.0</ele><time>2026-05-01T06:55:09.998Z</time></trkpt><trkpt lat="39.71177978381576" lon="8.48447453285101"><ele>18.0</ele><time>2026-05-01T06:55:11Z</time></trkpt><trkpt lat="39.711756892499785" lon="8.484593638879003"><ele>18.0</ele><time>2026-05-01T06:55:12Z</time></trkpt><trkpt lat="39.71174844481066" lon="8.484705801207996"><ele>18.0</ele><time>2026-05-01T06:55:13Z</time></trkpt><trkpt lat="39.71177252988795" lon="8.48480504714221"><ele>18.0</ele><time>2026-05-01T06:55:14Z</time></trkpt><trkpt lat="39.711840598876734" lon="8.484888244411733"><ele>18.0</ele><time>2026-05-01T06:55:15Z</time></trkpt><trkpt lat="39.71193638849889" lon="8.484964971606844"><ele>18.0</ele><time>2026-05-01T06:55:16Z</time></trkpt><trkpt lat="39.71202917450751" lon="8.485031962934078"><ele>18.0</ele><time>2026-05-01T06:55:17Z</time></trkpt><trkpt lat="39.71210882887269" lon="8.485095706145529"><ele>17.666666666666668</ele><time>2026-05-01T06:55:18Z</time></trkpt><trkpt lat="39.71218274804479" lon="8.485160192607507"><ele>17.333333333333332</ele><time>2026-05-01T06:55:19Z</time></trkpt><trkpt lat="39.71225157200968" lon="8.485223726567336"><ele>17.0</ele><time>2026-05-01T06:55:20Z</time></trkpt><trkpt lat="39.71231778633" lon="8.485281069414443"><ele>16.666666666666664</ele><time>2026-05-01T06:55:21Z</time></trkpt><trkpt lat="39.71238460438265" lon="8.485340863922072"><ele>16.333333333333332</ele><time>2026-05-01T06:55:22Z</time></trkpt><trkpt lat="39.71245334616764" lon="8.485403257890761"><ele>16.0</ele><time>2026-05-01T06:55:23Z</time></trkpt><trkpt lat="39.71251844997122" lon="8.485454376429578"><ele>14.999999999999998</ele><time>2026-05-01T06:55:24Z</time></trkpt><trkpt lat="39.71257268662323" lon="8.485497582935407"><ele>14.0</ele><time>2026-05-01T06:55:25Z</time></trkpt><trkpt lat="39.71268822265699" lon="8.485597965437199"><ele>13.0</ele><time>2026-05-01T06:55:27Z</time></trkpt><trkpt lat="39.71275916178686" lon="8.485661131432748"><ele>12.0</ele><time>2026-05-01T06:55:28Z</time></trkpt><trkpt lat="39.71283096493026" lon="8.485719039646122"><ele>11.0</ele><time>2026-05-01T06:55:29Z</time></trkpt><trkpt lat="39.712893932276614" lon="8.485770347657706"><ele>10.0</ele><time>2026-05-01T06:55:30Z</time></trkpt><trkpt lat="39.71297925867398" lon="8.485860659671616"><ele>10.0</ele><time>2026-05-01T06:55:32Z</time></trkpt><trkpt lat="39.71307676500041" lon="8.48592947768669"><ele>10.0</ele><time>2026-05-01T06:55:34Z</time></trkpt><trkpt lat="39.71312831985417" lon="8.485980489958303"><ele>10.0</ele><time>2026-05-01T06:55:49Z</time></trkpt><trkpt lat="39.71319245470488" lon="8.486024637721242"><ele>10.0</ele><time>2026-05-01T06:55:51Z</time></trkpt><trkpt lat="39.71325954959617" lon="8.48607639007113"><ele>10.0</ele><time>2026-05-01T06:55:52Z</time></trkpt><trkpt lat="39.71334518009185" lon="8.48612440754839"><ele>10.0</ele><time>2026-05-01T06:55:52.999Z</time></trkpt><trkpt lat="39.713399963953215" lon="8.486186814149862"><ele>10.0</ele><time>2026-05-01T06:55:53.999Z</time></trkpt><trkpt lat="39.71346238796635" lon="8.486233773907164"><ele>10.0</ele><time>2026-05-01T06:55:54.999Z</time></trkpt><trkpt lat="39.71351898823313" lon="8.486276368431879"><ele>10.0</ele><time>2026-05-01T06:55:55.999Z</time></trkpt><trkpt lat="39.71357704978293" lon="8.486320062346131"><ele>10.0</ele><time>2026-05-01T06:55:56.999Z</time></trkpt><trkpt lat="39.71368660975001" lon="8.486412095706664"><ele>10.0</ele><time>2026-05-01T06:55:58.999Z</time></trkpt><trkpt lat="39.713751982607945" lon="8.486476794646883"><ele>10.0</ele><time>2026-05-01T06:55:59.999Z</time></trkpt><trkpt lat="39.713810053837065" lon="8.4865779593349"><ele>9.0</ele><time>2026-05-01T06:56:00.999Z</time></trkpt><trkpt lat="39.713861147346705" lon="8.486666889524004"><ele>8.0</ele><time>2026-05-01T06:56:01.999Z</time></trkpt><trkpt lat="39.7139050105385" lon="8.486740454041236"><ele>7.0</ele><time>2026-05-01T06:56:02.999Z</time></trkpt><trkpt lat="39.71396835747689" lon="8.486828325193638"><ele>6.0</ele><time>2026-05-01T06:56:04.999Z</time></trkpt><trkpt lat="39.713985624406554" lon="8.486747688078898"><ele>5.0</ele><time>2026-05-01T06:56:09.999Z</time></trkpt><trkpt lat="39.713895244817" lon="8.486645539920987"><ele>4.0</ele><time>2026-05-01T06:56:11.999Z</time></trkpt><trkpt lat="39.71383784089591" lon="8.486566472511877"><ele>3.9999999999999996</ele><time>2026-05-01T06:56:12.999Z</time></trkpt><trkpt lat="39.713776941031945" lon="8.48648807443141"><ele>4.0</ele><time>2026-05-01T06:56:13.999Z</time></trkpt><trkpt lat="39.7137206884033" lon="8.486416262361868"><ele>4.0</ele><time>2026-05-01T06:56:14.999Z</time></trkpt><trkpt lat="39.71367296341414" lon="8.486353021112459"><ele>4.0</ele><time>2026-05-01T06:56:15.999Z</time></trkpt><trkpt lat="39.71364746767933" lon="8.48626837125145"><ele>3.9999999999999996</ele><time>2026-05-01T06:56:16.999Z</time></trkpt><trkpt lat="39.71365849412044" lon="8.48615989545643"><ele>4.0</ele><time>2026-05-01T06:56:17.999Z</time></trkpt><trkpt lat="39.71368725701871" lon="8.486052193259232"><ele>3.8571428571428568</ele><time>2026-05-01T06:56:18.999Z</time></trkpt><trkpt lat="39.71371003899655" lon="8.485953691000372"><ele>3.714285714285714</ele><time>2026-05-01T06:56:19.999Z</time></trkpt><trkpt lat="39.71371989087765" lon="8.485867681017968"><ele>3.571428571428571</ele><time>2026-05-01T06:56:20.999Z</time></trkpt><trkpt lat="39.7137205503271" lon="8.485782914434848"><ele>3.4285714285714284</ele><time>2026-05-01T06:56:21.999Z</time></trkpt><trkpt lat="39.71369678174221" lon="8.485706332782064"><ele>3.2857142857142856</ele><time>2026-05-01T06:56:22.999Z</time></trkpt><trkpt lat="39.713664142903845" lon="8.485634698775536"><ele>3.1428571428571423</ele><time>2026-05-01T06:56:23.999Z</time></trkpt><trkpt lat="39.713647932696404" lon="8.4855531492972"><ele>3.0</ele><time>2026-05-01T06:56:24.999Z</time></trkpt><trkpt lat="39.713662425074276" lon="8.48545751451346"><ele>2.8</ele><time>2026-05-01T06:56:25.999Z</time></trkpt><trkpt lat="39.713680681617475" lon="8.485362009287822"><ele>2.5999999999999996</ele><time>2026-05-01T06:56:26.999Z</time></trkpt><trkpt lat="39.71369607045745" lon="8.485250130424888"><ele>2.4000000000000004</ele><time>2026-05-01T06:56:27.999Z</time></trkpt><trkpt lat="39.713718133090524" lon="8.485112236717638"><ele>2.2</ele><time>2026-05-01T06:56:28.999Z</time></trkpt><trkpt lat="39.713737330459686" lon="8.484970588748439"><ele>2.0</ele><time>2026-05-01T06:56:29.999Z</time></trkpt><trkpt lat="39.71376553232183" lon="8.484814804468437"><ele>2.0</ele><time>2026-05-01T06:56:30.999Z</time></trkpt><trkpt lat="39.71379303060416" lon="8.484647633021439"><ele>2.0</ele><time>2026-05-01T06:56:31.999Z</time></trkpt><trkpt lat="39.71381708145043" lon="8.484485855049485"><ele>2.0</ele><time>2026-05-01T06:56:32.999Z</time></trkpt><trkpt lat="39.713840173208595" lon="8.484323332807644"><ele>2.0</ele><time>2026-05-01T06:56:33.999Z</time></trkpt><trkpt lat="39.71386820357745" lon="8.484156420354472"><ele>2.0</ele><time>2026-05-01T06:56:34.999Z</time></trkpt><trkpt lat="39.713891375711164" lon="8.48398470743932"><ele>2.0</ele><time>2026-05-01T06:56:35.999Z</time></trkpt><trkpt lat="39.71391488331132" lon="8.483810781633471"><ele>2.0</ele><time>2026-05-01T06:56:36.999Z</time></trkpt><trkpt lat="39.713944524592016" lon="8.483636985523484"><ele>2.0</ele><time>2026-05-01T06:56:37.999Z</time></trkpt><trkpt lat="39.713977359802364" lon="8.483467497911866"><ele>2.0</ele><time>2026-05-01T06:56:38.999Z</time></trkpt><trkpt lat="39.71400765447353" lon="8.483295256280378"><ele>2.0</ele><time>2026-05-01T06:56:39.999Z</time></trkpt><trkpt lat="39.71403760110928" lon="8.483121587776912"><ele>2.0</ele><time>2026-05-01T06:56:40.999Z</time></trkpt><trkpt lat="39.714066913185086" lon="8.482945604177223"><ele>2.0</ele><time>2026-05-01T06:56:41.999Z</time></trkpt><trkpt lat="39.714096541367105" lon="8.482767705407507"><ele>2.0</ele><time>2026-05-01T06:56:42.999Z</time></trkpt><trkpt lat="39.71412875793915" lon="8.482592356764572"><ele>2.0</ele><time>2026-05-01T06:56:43.999Z</time></trkpt><trkpt lat="39.71415780944647" lon="8.48241973210309"><ele>2.0</ele><time>2026-05-01T06:56:44.999Z</time></trkpt><trkpt lat="39.71418197604509" lon="8.482251060835715"><ele>2.0</ele><time>2026-05-01T06:56:45.999Z</time></trkpt><trkpt lat="39.71419708761428" lon="8.482097462282018"><ele>2.4000000000000004</ele><time>2026-05-01T06:56:46.999Z</time></trkpt><trkpt lat="39.71421055622852" lon="8.481957589116096"><ele>2.8000000000000003</ele><time>2026-05-01T06:56:47.999Z</time></trkpt><trkpt lat="39.71421833693137" lon="8.481828667177068"><ele>3.2</ele><time>2026-05-01T06:56:48.999Z</time></trkpt><trkpt lat="39.71421802439233" lon="8.48171196314638"><ele>3.6</ele><time>2026-05-01T06:56:49.999Z</time></trkpt><trkpt lat="39.71420843267866" lon="8.481582272198507"><ele>4.0</ele><time>2026-05-01T06:56:50.999Z</time></trkpt><trkpt lat="39.71419020777951" lon="8.481435626850233"><ele>4.0</ele><time>2026-05-01T06:56:51.999Z</time></trkpt><trkpt lat="39.71416573747364" lon="8.481272809614707"><ele>4.0</ele><time>2026-05-01T06:56:52.999Z</time></trkpt><trkpt lat="39.714138298801004" lon="8.481102971334318"><ele>4.0</ele><time>2026-05-01T06:56:53.998Z</time></trkpt><trkpt lat="39.71411006952072" lon="8.480927482660322"><ele>4.0</ele><time>2026-05-01T06:56:54.998Z</time></trkpt><trkpt lat="39.714079586228905" lon="8.480753392130344"><ele>4.0</ele><time>2026-05-01T06:56:55.998Z</time></trkpt><trkpt lat="39.71405702121259" lon="8.480582943748274"><ele>4.0</ele><time>2026-05-01T06:56:56.998Z</time></trkpt><trkpt lat="39.71404259044617" lon="8.48040700391869"><ele>4.0</ele><time>2026-05-01T06:56:57.998Z</time></trkpt><trkpt lat="39.71403884597224" lon="8.48023026802387"><ele>4.0</ele><time>2026-05-01T06:56:58.998Z</time></trkpt><trkpt lat="39.714060527376276" lon="8.480046227112474"><ele>3.75</ele><time>2026-05-01T06:56:59.998Z</time></trkpt><trkpt lat="39.714093098955544" lon="8.479864431199571"><ele>3.5</ele><time>2026-05-01T06:57:00.998Z</time></trkpt><trkpt lat="39.71413216740658" lon="8.479686170415091"><ele>3.25</ele><time>2026-05-01T06:57:01.998Z</time></trkpt><trkpt lat="39.714169102071274" lon="8.479511500584044"><ele>3.0</ele><time>2026-05-01T06:57:02.998Z</time></trkpt><trkpt lat="39.71419597230207" lon="8.479338742813685"><ele>3.0</ele><time>2026-05-01T06:57:03.998Z</time></trkpt><trkpt lat="39.71421151768988" lon="8.479178546078458"><ele>3.0</ele><time>2026-05-01T06:57:04.998Z</time></trkpt><trkpt lat="39.714210609002876" lon="8.479013012819692"><ele>3.0</ele><time>2026-05-01T06:57:05.998Z</time></trkpt><trkpt lat="39.71420110781466" lon="8.478843939455862"><ele>3.0</ele><time>2026-05-01T06:57:06.998Z</time></trkpt><trkpt lat="39.71417815639791" lon="8.478669819379105"><ele>2.5</ele><time>2026-05-01T06:57:07.998Z</time></trkpt><trkpt lat="39.71414517810581" lon="8.478497413446915"><ele>2.0</ele><time>2026-05-01T06:57:08.998Z</time></trkpt><trkpt lat="39.714115160472275" lon="8.478315961005867"><ele>1.5</ele><time>2026-05-01T06:57:09.998Z</time></trkpt><trkpt lat="39.71408625341764" lon="8.478131913937364"><ele>1.0</ele><time>2026-05-01T06:57:10.998Z</time></trkpt><trkpt lat="39.71406028580955" lon="8.477948481905448"><ele>1.75</ele><time>2026-05-01T06:57:11.998Z</time></trkpt><trkpt lat="39.71403811414113" lon="8.477762370967618"><ele>2.5</ele><time>2026-05-01T06:57:12.998Z</time></trkpt><trkpt lat="39.71402000681859" lon="8.47757509569002"><ele>3.25</ele><time>2026-05-01T06:57:13.998Z</time></trkpt><trkpt lat="39.7139999649288" lon="8.477386727469986"><ele>4.0</ele><time>2026-05-01T06:57:14.998Z</time></trkpt><trkpt lat="39.7139841823377" lon="8.47719778884528"><ele>4.5</ele><time>2026-05-01T06:57:16Z</time></trkpt><trkpt lat="39.71397173983859" lon="8.477008513941202"><ele>5.0</ele><time>2026-05-01T06:57:17Z</time></trkpt><trkpt lat="39.71396554031135" lon="8.47682320716078"><ele>5.5</ele><time>2026-05-01T06:57:18Z</time></trkpt><trkpt lat="39.71396525276397" lon="8.476641551900356"><ele>6.0</ele><time>2026-05-01T06:57:19Z</time></trkpt><trkpt lat="39.71397179302345" lon="8.476459592321216"><ele>6.0</ele><time>2026-05-01T06:57:20Z</time></trkpt><trkpt lat="39.71397767812054" lon="8.476274475092682"><ele>6.0</ele><time>2026-05-01T06:57:21Z</time></trkpt><trkpt lat="39.71398670299699" lon="8.476089030937729"><ele>6.0</ele><time>2026-05-01T06:57:22Z</time></trkpt><trkpt lat="39.713997741867544" lon="8.475904313923591"><ele>6.0</ele><time>2026-05-01T06:57:23Z</time></trkpt><trkpt lat="39.71400367250942" lon="8.475722977524798"><ele>5.75</ele><time>2026-05-01T06:57:24Z</time></trkpt><trkpt lat="39.714003770410976" lon="8.475542254758107"><ele>5.5</ele><time>2026-05-01T06:57:25Z</time></trkpt><trkpt lat="39.71399657897301" lon="8.475364986315677"><ele>5.25</ele><time>2026-05-01T06:57:26Z</time></trkpt><trkpt lat="39.713968923868286" lon="8.475194645429683"><ele>5.0</ele><time>2026-05-01T06:57:27Z</time></trkpt><trkpt lat="39.71390659836213" lon="8.475034376678382"><ele>5.0</ele><time>2026-05-01T06:57:28Z</time></trkpt><trkpt lat="39.713797750791194" lon="8.474910510471066"><ele>5.0</ele><time>2026-05-01T06:57:29Z</time></trkpt><trkpt lat="39.7136885541312" lon="8.474798593908195"><ele>5.0</ele><time>2026-05-01T06:57:30Z</time></trkpt><trkpt lat="39.71358108745189" lon="8.474679156504319"><ele>5.0</ele><time>2026-05-01T06:57:31Z</time></trkpt><trkpt lat="39.713462784049305" lon="8.474571686495542"><ele>5.75</ele><time>2026-05-01T06:57:32Z</time></trkpt><trkpt lat="39.71333403912516" lon="8.474481232071183"><ele>6.5</ele><time>2026-05-01T06:57:33Z</time></trkpt><trkpt lat="39.71322203871079" lon="8.474354795065306"><ele>7.25</ele><time>2026-05-01T06:57:34Z</time></trkpt><trkpt lat="39.71310344314151" lon="8.474248487580862"><ele>8.0</ele><time>2026-05-01T06:57:35Z</time></trkpt><trkpt lat="39.712981299001235" lon="8.474141017967533"><ele>8.0</ele><time>2026-05-01T06:57:36Z</time></trkpt><trkpt lat="39.71285631524337" lon="8.4740310499279"><ele>8.0</ele><time>2026-05-01T06:57:37Z</time></trkpt><trkpt lat="39.71273010695165" lon="8.473920774040636"><ele>8.0</ele><time>2026-05-01T06:57:38Z</time></trkpt><trkpt lat="39.712602726922185" lon="8.473813310957414"><ele>8.0</ele><time>2026-05-01T06:57:39Z</time></trkpt><trkpt lat="39.712477129069924" lon="8.473709820773365"><ele>8.0</ele><time>2026-05-01T06:57:40Z</time></trkpt><trkpt lat="39.71234558665709" lon="8.473628758515295"><ele>8.0</ele><time>2026-05-01T06:57:41Z</time></trkpt><trkpt lat="39.71222843679942" lon="8.473531704821468"><ele>8.0</ele><time>2026-05-01T06:57:42Z</time></trkpt><trkpt lat="39.71212098187663" lon="8.473430561245621"><ele>8.0</ele><time>2026-05-01T06:57:43Z</time></trkpt><trkpt lat="39.71203595543618" lon="8.473296455076644"><ele>8.0</ele><time>2026-05-01T06:57:44Z</time></trkpt><trkpt lat="39.711990246550684" lon="8.473126602035897"><ele>8.0</ele><time>2026-05-01T06:57:45Z</time></trkpt><trkpt lat="39.711949090830934" lon="8.472950635326912"><ele>8.0</ele><time>2026-05-01T06:57:46Z</time></trkpt><trkpt lat="39.71191266436834" lon="8.472766753931117"><ele>8.666666666666666</ele><time>2026-05-01T06:57:47Z</time></trkpt><trkpt lat="39.71186475968555" lon="8.47258219146688"><ele>9.333333333333334</ele><time>2026-05-01T06:57:48Z</time></trkpt><trkpt lat="39.71183315248886" lon="8.472388627855334"><ele>10.0</ele><time>2026-05-01T06:57:49Z</time></trkpt><trkpt lat="39.71179917261246" lon="8.472190345223595"><ele>9.666666666666668</ele><time>2026-05-01T06:57:50Z</time></trkpt><trkpt lat="39.711764094886625" lon="8.471991499039936"><ele>9.333333333333334</ele><time>2026-05-01T06:57:51Z</time></trkpt><trkpt lat="39.71172693314935" lon="8.471791313789145"><ele>9.0</ele><time>2026-05-01T06:57:52Z</time></trkpt><trkpt lat="39.71169166801742" lon="8.471592121719596"><ele>9.0</ele><time>2026-05-01T06:57:53Z</time></trkpt><trkpt lat="39.71166054516503" lon="8.471390306607244"><ele>9.0</ele><time>2026-05-01T06:57:54Z</time></trkpt><trkpt lat="39.711636994784875" lon="8.47118815654783"><ele>9.0</ele><time>2026-05-01T06:57:55Z</time></trkpt><trkpt lat="39.71161535550292" lon="8.470986046352738"><ele>9.333333333333334</ele><time>2026-05-01T06:57:55.999Z</time></trkpt><trkpt lat="39.711594737610916" lon="8.470783748697164"><ele>9.666666666666668</ele><time>2026-05-01T06:57:56.999Z</time></trkpt><trkpt lat="39.711576842966394" lon="8.470586253042871"><ele>10.0</ele><time>2026-05-01T06:57:57.999Z</time></trkpt><trkpt lat="39.711562269882826" lon="8.470386769575237"><ele>11.0</ele><time>2026-05-01T06:57:58.999Z</time></trkpt><trkpt lat="39.711550367574716" lon="8.47018851934638"><ele>12.0</ele><time>2026-05-01T06:57:59.999Z</time></trkpt><trkpt lat="39.71154524397474" lon="8.46999025750738"><ele>13.0</ele><time>2026-05-01T06:58:00.999Z</time></trkpt><trkpt lat="39.711548168930186" lon="8.46979259209735"><ele>13.333333333333332</ele><time>2026-05-01T06:58:01.999Z</time></trkpt><trkpt lat="39.711555680044704" lon="8.469594654673744"><ele>13.666666666666668</ele><time>2026-05-01T06:58:02.999Z</time></trkpt><trkpt lat="39.711561710605956" lon="8.469398783576398"><ele>14.0</ele><time>2026-05-01T06:58:03.999Z</time></trkpt><trkpt lat="39.71156707057295" lon="8.469201272653253"><ele>14.0</ele><time>2026-05-01T06:58:04.999Z</time></trkpt><trkpt lat="39.711571661277155" lon="8.469003401843812"><ele>14.0</ele><time>2026-05-01T06:58:05.999Z</time></trkpt><trkpt lat="39.71157812375834" lon="8.468804001170508"><ele>14.0</ele><time>2026-05-01T06:58:06.999Z</time></trkpt><trkpt lat="39.711581726107646" lon="8.468603526114979"><ele>14.0</ele><time>2026-05-01T06:58:07.999Z</time></trkpt><trkpt lat="39.71157722888443" lon="8.468404257368658"><ele>14.0</ele><time>2026-05-01T06:58:08.999Z</time></trkpt><trkpt lat="39.71156180380257" lon="8.46820532570851"><ele>14.0</ele><time>2026-05-01T06:58:09.999Z</time></trkpt><trkpt lat="39.711539206579" lon="8.468014275886446"><ele>14.25</ele><time>2026-05-01T06:58:10.999Z</time></trkpt><trkpt lat="39.7115157683461" lon="8.467825320635907"><ele>14.5</ele><time>2026-05-01T06:58:11.999Z</time></trkpt><trkpt lat="39.71149021318008" lon="8.467636511669328"><ele>14.75</ele><time>2026-05-01T06:58:12.999Z</time></trkpt><trkpt lat="39.71146047138679" lon="8.467446981376021"><ele>15.0</ele><time>2026-05-01T06:58:13.999Z</time></trkpt><trkpt lat="39.71143205537535" lon="8.467255428433198"><ele>16.0</ele><time>2026-05-01T06:58:14.999Z</time></trkpt><trkpt lat="39.71140758326589" lon="8.467059560055494"><ele>17.0</ele><time>2026-05-01T06:58:15.999Z</time></trkpt><trkpt lat="39.71138225394232" lon="8.466859552960843"><ele>18.0</ele><time>2026-05-01T06:58:16.999Z</time></trkpt><trkpt lat="39.71135502530348" lon="8.466656226392065"><ele>18.0</ele><time>2026-05-01T06:58:17.999Z</time></trkpt><trkpt lat="39.71132858131826" lon="8.466457615521369"><ele>18.0</ele><time>2026-05-01T06:58:18.999Z</time></trkpt><trkpt lat="39.71130526867655" lon="8.466277630081875"><ele>18.0</ele><time>2026-05-01T06:58:19.999Z</time></trkpt><trkpt lat="39.71128416463881" lon="8.46612753418752"><ele>18.0</ele><time>2026-05-01T06:58:20.999Z</time></trkpt><trkpt lat="39.71126701188876" lon="8.466010401071701"><ele>18.0</ele><time>2026-05-01T06:58:21.999Z</time></trkpt><trkpt lat="39.71125284350468" lon="8.465927084147836"><ele>18.0</ele><time>2026-05-01T06:58:22.999Z</time></trkpt><trkpt lat="39.71123918494464" lon="8.465846577083939"><ele>18.0</ele><time>2026-05-01T06:58:24.999Z</time></trkpt><trkpt lat="39.71107469982988" lon="8.465909720218637"><ele>18.0</ele><time>2026-05-01T06:58:26.999Z</time></trkpt><trkpt lat="39.71100556425742" lon="8.465937850422273"><ele>18.0</ele><time>2026-05-01T06:58:27.999Z</time></trkpt><trkpt lat="39.710940111927904" lon="8.465984858516437"><ele>18.0</ele><time>2026-05-01T06:58:28.999Z</time></trkpt><trkpt lat="39.710862662146226" lon="8.466049688113545"><ele>18.6</ele><time>2026-05-01T06:58:29.999Z</time></trkpt><trkpt lat="39.71078218078974" lon="8.466136051429686"><ele>19.200000000000003</ele><time>2026-05-01T06:58:30.999Z</time></trkpt><trkpt lat="39.710701420731446" lon="8.466234646963173"><ele>19.8</ele><time>2026-05-01T06:58:31.999Z</time></trkpt><trkpt lat="39.71061399741885" lon="8.466336259430374"><ele>20.400000000000002</ele><time>2026-05-01T06:58:32.999Z</time></trkpt><trkpt lat="39.71053020447708" lon="8.466426563785483"><ele>21.0</ele><time>2026-05-01T06:58:33.999Z</time></trkpt><trkpt lat="39.710455834334745" lon="8.466501398611445"><ele>21.0</ele><time>2026-05-01T06:58:34.999Z</time></trkpt><trkpt lat="39.710392902107266" lon="8.466558032779973"><ele>21.0</ele><time>2026-05-01T06:58:35.999Z</time></trkpt><trkpt lat="39.71028039619972" lon="8.466567826070197"><ele>21.0</ele><time>2026-05-01T06:58:37.999Z</time></trkpt><trkpt lat="39.71023126700192" lon="8.466501431698358"><ele>21.0</ele><time>2026-05-01T06:58:38.999Z</time></trkpt><trkpt lat="39.71016151998294" lon="8.4664234898139"><ele>21.0</ele><time>2026-05-01T06:58:39.999Z</time></trkpt><trkpt lat="39.71007656713986" lon="8.466325544686907"><ele>22.25</ele><time>2026-05-01T06:58:40.999Z</time></trkpt><trkpt lat="39.70998261111742" lon="8.466229232893657"><ele>23.5</ele><time>2026-05-01T06:58:41.999Z</time></trkpt><trkpt lat="39.709885686151914" lon="8.466128094395255"><ele>24.75</ele><time>2026-05-01T06:58:42.999Z</time></trkpt><trkpt lat="39.70978656159987" lon="8.466018028330646"><ele>26.0</ele><time>2026-05-01T06:58:43.999Z</time></trkpt><trkpt lat="39.709686809633496" lon="8.465907265646882"><ele>26.0</ele><time>2026-05-01T06:58:44.999Z</time></trkpt><trkpt lat="39.709588717056334" lon="8.465798345542552"><ele>26.0</ele><time>2026-05-01T06:58:45.999Z</time></trkpt><trkpt lat="39.709491416211925" lon="8.465705424508377"><ele>26.0</ele><time>2026-05-01T06:58:46.999Z</time></trkpt><trkpt lat="39.70939954754759" lon="8.465638005620983"><ele>26.0</ele><time>2026-05-01T06:58:47.999Z</time></trkpt><trkpt lat="39.7093050108135" lon="8.465569524908318"><ele>27.0</ele><time>2026-05-01T06:58:48.999Z</time></trkpt><trkpt lat="39.7092026680721" lon="8.465491961986412"><ele>28.0</ele><time>2026-05-01T06:58:49.999Z</time></trkpt><trkpt lat="39.70909918014345" lon="8.465409080613629"><ele>29.0</ele><time>2026-05-01T06:58:50.999Z</time></trkpt><trkpt lat="39.70900444624745" lon="8.465318795046034"><ele>30.0</ele><time>2026-05-01T06:58:51.999Z</time></trkpt><trkpt lat="39.70892986120602" lon="8.465209999384951"><ele>30.75</ele><time>2026-05-01T06:58:52.999Z</time></trkpt><trkpt lat="39.70885813330569" lon="8.465097398547195"><ele>31.5</ele><time>2026-05-01T06:58:53.999Z</time></trkpt><trkpt lat="39.70878319315638" lon="8.46497714352278"><ele>32.25</ele><time>2026-05-01T06:58:54.999Z</time></trkpt><trkpt lat="39.708704405228836" lon="8.464855902686745"><ele>33.0</ele><time>2026-05-01T06:58:55.999Z</time></trkpt><trkpt lat="39.708627000217454" lon="8.464738967205472"><ele>33.5</ele><time>2026-05-01T06:58:56.998Z</time></trkpt><trkpt lat="39.708550575152636" lon="8.464623512313905"><ele>34.0</ele><time>2026-05-01T06:58:57.998Z</time></trkpt><trkpt lat="39.70847844830352" lon="8.464510692670316"><ele>34.5</ele><time>2026-05-01T06:58:58.998Z</time></trkpt><trkpt lat="39.708404423887856" lon="8.464393375043185"><ele>35.0</ele><time>2026-05-01T06:58:59.998Z</time></trkpt><trkpt lat="39.70832391208663" lon="8.464278289130686"><ele>35.0</ele><time>2026-05-01T06:59:00.998Z</time></trkpt><trkpt lat="39.708240423796425" lon="8.464169064658149"><ele>35.0</ele><time>2026-05-01T06:59:01.998Z</time></trkpt><trkpt lat="39.70815309801172" lon="8.464068030834369"><ele>35.0</ele><time>2026-05-01T06:59:02.998Z</time></trkpt><trkpt lat="39.708072427566016" lon="8.463990115333"><ele>35.0</ele><time>2026-05-01T06:59:03.998Z</time></trkpt><trkpt lat="39.70799661918012" lon="8.46393147680628"><ele>35.0</ele><time>2026-05-01T06:59:04.998Z</time></trkpt><trkpt lat="39.70789831831393" lon="8.463895157676355"><ele>35.0</ele><time>2026-05-01T06:59:05.998Z</time></trkpt><trkpt lat="39.70779642228136" lon="8.463859434708814"><ele>35.0</ele><time>2026-05-01T06:59:06.998Z</time></trkpt><trkpt lat="39.707707906909334" lon="8.463843229892625"><ele>35.0</ele><time>2026-05-01T06:59:07.998Z</time></trkpt><trkpt lat="39.70763542410362" lon="8.463868229965962"><ele>35.0</ele><time>2026-05-01T06:59:08.998Z</time></trkpt><trkpt lat="39.70755859734511" lon="8.463871491067767"><ele>35.0</ele><time>2026-05-01T06:59:09.998Z</time></trkpt><trkpt lat="39.70746237146881" lon="8.463886842966524"><ele>35.0</ele><time>2026-05-01T06:59:10.998Z</time></trkpt><trkpt lat="39.707349901307076" lon="8.463904817347201"><ele>36.6</ele><time>2026-05-01T06:59:11.998Z</time></trkpt><trkpt lat="39.70726075728296" lon="8.463924075159598"><ele>38.2</ele><time>2026-05-01T06:59:12.998Z</time></trkpt><trkpt lat="39.70718906802901" lon="8.463950365159214"><ele>39.8</ele><time>2026-05-01T06:59:13.998Z</time></trkpt><trkpt lat="39.70710898059739" lon="8.463980530785909"><ele>41.4</ele><time>2026-05-01T06:59:14.998Z</time></trkpt><trkpt lat="39.7070130358839" lon="8.464038589884348"><ele>43.0</ele><time>2026-05-01T06:59:15.998Z</time></trkpt><trkpt lat="39.706905220756894" lon="8.464083903668808"><ele>44.2</ele><time>2026-05-01T06:59:16.998Z</time></trkpt><trkpt lat="39.70680063680548" lon="8.464126172548093"><ele>45.4</ele><time>2026-05-01T06:59:17.998Z</time></trkpt><trkpt lat="39.70670984693571" lon="8.464159331536091"><ele>46.6</ele><time>2026-05-01T06:59:18.998Z</time></trkpt><trkpt lat="39.70662743858775" lon="8.464165405884975"><ele>47.800000000000004</ele><time>2026-05-01T06:59:19.998Z</time></trkpt><trkpt lat="39.706541886395655" lon="8.464200960019085"><ele>49.0</ele><time>2026-05-01T06:59:20.998Z</time></trkpt><trkpt lat="39.706446983481044" lon="8.464267960318395"><ele>48.99999999999999</ele><time>2026-05-01T06:59:22Z</time></trkpt><trkpt lat="39.70635282726247" lon="8.464336528337341"><ele>49.0</ele><time>2026-05-01T06:59:23Z</time></trkpt><trkpt lat="39.70626817623525" lon="8.464393111547015"><ele>49.0</ele><time>2026-05-01T06:59:24Z</time></trkpt><trkpt lat="39.70620389692138" lon="8.464410599658544"><ele>49.0</ele><time>2026-05-01T06:59:25Z</time></trkpt><trkpt lat="39.706113806007686" lon="8.464383752433536"><ele>48.99999999999999</ele><time>2026-05-01T06:59:27Z</time></trkpt><trkpt lat="39.7060517967648" lon="8.464357137210811"><ele>49.0</ele><time>2026-05-01T06:59:28Z</time></trkpt><trkpt lat="39.70596126673396" lon="8.464337790654511"><ele>49.800000000000004</ele><time>2026-05-01T06:59:29Z</time></trkpt><trkpt lat="39.705870605961216" lon="8.464276281420792"><ele>50.6</ele><time>2026-05-01T06:59:30Z</time></trkpt><trkpt lat="39.70577254928959" lon="8.464226349343294"><ele>51.4</ele><time>2026-05-01T06:59:31Z</time></trkpt><trkpt lat="39.70567892987181" lon="8.464163934159707"><ele>52.2</ele><time>2026-05-01T06:59:32Z</time></trkpt><trkpt lat="39.70559771839001" lon="8.464086471937685"><ele>53.0</ele><time>2026-05-01T06:59:33Z</time></trkpt><trkpt lat="39.70550906062696" lon="8.463992453614813"><ele>53.0</ele><time>2026-05-01T06:59:34Z</time></trkpt><trkpt lat="39.70539905548249" lon="8.463925497047837"><ele>53.0</ele><time>2026-05-01T06:59:35Z</time></trkpt><trkpt lat="39.70529213051123" lon="8.463848106244257"><ele>53.0</ele><time>2026-05-01T06:59:36Z</time></trkpt><trkpt lat="39.705195656300695" lon="8.46376058763352"><ele>53.0</ele><time>2026-05-01T06:59:37Z</time></trkpt><trkpt lat="39.70510902797197" lon="8.463701511937863"><ele>55.0</ele><time>2026-05-01T06:59:38Z</time></trkpt><trkpt lat="39.70503879374291" lon="8.463653111252933"><ele>57.0</ele><time>2026-05-01T06:59:39Z</time></trkpt><trkpt lat="39.70494064502816" lon="8.463569820808825"><ele>59.0</ele><time>2026-05-01T06:59:41Z</time></trkpt><trkpt lat="39.70483684969757" lon="8.463573273332551"><ele>61.0</ele><time>2026-05-01T06:59:42Z</time></trkpt><trkpt lat="39.70473732918923" lon="8.463541361068827"><ele>63.0</ele><time>2026-05-01T06:59:43Z</time></trkpt><trkpt lat="39.70464122217245" lon="8.463506528336758"><ele>63.0</ele><time>2026-05-01T06:59:44Z</time></trkpt><trkpt lat="39.70453691552464" lon="8.463456248053857"><ele>63.0</ele><time>2026-05-01T06:59:45Z</time></trkpt><trkpt lat="39.704416794669" lon="8.463424804627888"><ele>63.0</ele><time>2026-05-01T06:59:46Z</time></trkpt><trkpt lat="39.70429566552339" lon="8.463406357516835"><ele>63.0</ele><time>2026-05-01T06:59:47Z</time></trkpt><trkpt lat="39.7041727114033" lon="8.463375361969607"><ele>63.4</ele><time>2026-05-01T06:59:48Z</time></trkpt><trkpt lat="39.704062971465866" lon="8.463342749842434"><ele>63.8</ele><time>2026-05-01T06:59:49Z</time></trkpt><trkpt lat="39.70396666024935" lon="8.463307597826894"><ele>64.2</ele><time>2026-05-01T06:59:50Z</time></trkpt><trkpt lat="39.703865105358624" lon="8.463255851616012"><ele>64.6</ele><time>2026-05-01T06:59:51Z</time></trkpt><trkpt lat="39.70376980360224" lon="8.463201193238898"><ele>65.0</ele><time>2026-05-01T06:59:52Z</time></trkpt><trkpt lat="39.70365582059627" lon="8.463163363637964"><ele>65.4</ele><time>2026-05-01T06:59:53Z</time></trkpt><trkpt lat="39.703560823282174" lon="8.46311212867548"><ele>65.8</ele><time>2026-05-01T06:59:54Z</time></trkpt><trkpt lat="39.70347350406702" lon="8.463150573095978"><ele>66.2</ele><time>2026-05-01T06:59:55Z</time></trkpt><trkpt lat="39.70340330902157" lon="8.463210558306239"><ele>66.6</ele><time>2026-05-01T06:59:56Z</time></trkpt><trkpt lat="39.70333856221664" lon="8.463289860892523"><ele>67.0</ele><time>2026-05-01T06:59:57Z</time></trkpt><trkpt lat="39.703251866855915" lon="8.463373557819923"><ele>67.0</ele><time>2026-05-01T06:59:58Z</time></trkpt><trkpt lat="39.70317240516102" lon="8.463462339387982"><ele>67.0</ele><time>2026-05-01T06:59:59Z</time></trkpt><trkpt lat="39.70308607926933" lon="8.46355174584494"><ele>67.0</ele><time>2026-05-01T06:59:59.999Z</time></trkpt><trkpt lat="39.702996578522075" lon="8.463641968972208"><ele>67.0</ele><time>2026-05-01T07:00:00.999Z</time></trkpt><trkpt lat="39.70290782597428" lon="8.463729748413407"><ele>67.0</ele><time>2026-05-01T07:00:01.999Z</time></trkpt><trkpt lat="39.70283132983171" lon="8.46380209759351"><ele>67.0</ele><time>2026-05-01T07:00:02.999Z</time></trkpt><trkpt lat="39.70277381034473" lon="8.463858292358083"><ele>67.0</ele><time>2026-05-01T07:00:03.999Z</time></trkpt><trkpt lat="39.70272026363691" lon="8.463921849345141"><ele>67.0</ele><time>2026-05-01T07:00:04.999Z</time></trkpt><trkpt lat="39.702679418241246" lon="8.46401548035829"><ele>67.0</ele><time>2026-05-01T07:00:05.999Z</time></trkpt><trkpt lat="39.70260849924965" lon="8.464089598883422"><ele>67.0</ele><time>2026-05-01T07:00:06.999Z</time></trkpt><trkpt lat="39.70253536837174" lon="8.464179270287193"><ele>67.0</ele><time>2026-05-01T07:00:07.999Z</time></trkpt><trkpt lat="39.70245546798546" lon="8.46425820542515"><ele>67.8</ele><time>2026-05-01T07:00:08.999Z</time></trkpt><trkpt lat="39.702375476468646" lon="8.464317189313789"><ele>68.6</ele><time>2026-05-01T07:00:09.999Z</time></trkpt><trkpt lat="39.70228160572863" lon="8.464334748091579"><ele>69.39999999999999</ele><time>2026-05-01T07:00:10.999Z</time></trkpt><trkpt lat="39.70217856806537" lon="8.464382237829408"><ele>70.2</ele><time>2026-05-01T07:00:11.999Z</time></trkpt><trkpt lat="39.70208885397266" lon="8.464426153868194"><ele>71.0</ele><time>2026-05-01T07:00:12.999Z</time></trkpt><trkpt lat="39.70199672403633" lon="8.464471275331693"><ele>71.2</ele><time>2026-05-01T07:00:13.999Z</time></trkpt><trkpt lat="39.7018938392892" lon="8.464518055879363"><ele>71.39999999999999</ele><time>2026-05-01T07:00:14.999Z</time></trkpt><trkpt lat="39.70178362612481" lon="8.464555118126663"><ele>71.6</ele><time>2026-05-01T07:00:15.999Z</time></trkpt><trkpt lat="39.70167527265652" lon="8.46459764650414"><ele>71.8</ele><time>2026-05-01T07:00:16.999Z</time></trkpt><trkpt lat="39.70156991488966" lon="8.464621838715448"><ele>72.0</ele><time>2026-05-01T07:00:17.999Z</time></trkpt><trkpt lat="39.70146065623292" lon="8.464629961730454"><ele>72.0</ele><time>2026-05-01T07:00:18.999Z</time></trkpt><trkpt lat="39.70135064727709" lon="8.46465929097143"><ele>72.0</ele><time>2026-05-01T07:00:19.999Z</time></trkpt><trkpt lat="39.70124340958546" lon="8.464653636188823"><ele>72.0</ele><time>2026-05-01T07:00:20.999Z</time></trkpt><trkpt lat="39.701127364336514" lon="8.464696111394913"><ele>72.0</ele><time>2026-05-01T07:00:21.999Z</time></trkpt><trkpt lat="39.701027209036575" lon="8.464779021815339"><ele>72.0</ele><time>2026-05-01T07:00:22.999Z</time></trkpt><trkpt lat="39.70093976739027" lon="8.464861946865666"><ele>72.0</ele><time>2026-05-01T07:00:23.999Z</time></trkpt><trkpt lat="39.70086126827172" lon="8.464963435342598"><ele>72.0</ele><time>2026-05-01T07:00:24.999Z</time></trkpt><trkpt lat="39.70076955630752" lon="8.465043366480117"><ele>72.0</ele><time>2026-05-01T07:00:25.999Z</time></trkpt><trkpt lat="39.70067995874289" lon="8.465132896202338"><ele>72.0</ele><time>2026-05-01T07:00:26.999Z</time></trkpt><trkpt lat="39.70059950717986" lon="8.465235156448042"><ele>72.0</ele><time>2026-05-01T07:00:27.999Z</time></trkpt><trkpt lat="39.700494206442336" lon="8.465301396484932"><ele>72.0</ele><time>2026-05-01T07:00:28.999Z</time></trkpt><trkpt lat="39.70040232324543" lon="8.465374046242871"><ele>72.0</ele><time>2026-05-01T07:00:29.999Z</time></trkpt><trkpt lat="39.70032154595425" lon="8.465442361172267"><ele>72.0</ele><time>2026-05-01T07:00:30.999Z</time></trkpt><trkpt lat="39.700241321919755" lon="8.46551151157475"><ele>72.0</ele><time>2026-05-01T07:00:31.999Z</time></trkpt><trkpt lat="39.70015925006682" lon="8.465561831338952"><ele>72.4</ele><time>2026-05-01T07:00:32.999Z</time></trkpt><trkpt lat="39.7000772620296" lon="8.46556935582747"><ele>72.80000000000001</ele><time>2026-05-01T07:00:33.999Z</time></trkpt><trkpt lat="39.699988331193396" lon="8.465573915377767"><ele>73.2</ele><time>2026-05-01T07:00:34.999Z</time></trkpt><trkpt lat="39.6998889702554" lon="8.465583386416618"><ele>73.60000000000001</ele><time>2026-05-01T07:00:35.999Z</time></trkpt><trkpt lat="39.6997961422565" lon="8.465620347962357"><ele>74.0</ele><time>2026-05-01T07:00:36.999Z</time></trkpt><trkpt lat="39.69971289750614" lon="8.465644396580725"><ele>74.0</ele><time>2026-05-01T07:00:37.999Z</time></trkpt><trkpt lat="39.69962692582705" lon="8.465711837398029"><ele>74.0</ele><time>2026-05-01T07:00:38.999Z</time></trkpt><trkpt lat="39.69952478594972" lon="8.465751586412456"><ele>74.0</ele><time>2026-05-01T07:00:39.999Z</time></trkpt><trkpt lat="39.699434243175865" lon="8.465806644339063"><ele>74.0</ele><time>2026-05-01T07:00:40.999Z</time></trkpt><trkpt lat="39.69936226491846" lon="8.465854333472668"><ele>74.0</ele><time>2026-05-01T07:00:41.999Z</time></trkpt><trkpt lat="39.69930616965674" lon="8.46589149934301"><ele>74.2</ele><time>2026-05-01T07:00:42.999Z</time></trkpt><trkpt lat="39.69923533847234" lon="8.465965035506004"><ele>74.4</ele><time>2026-05-01T07:00:44.999Z</time></trkpt><trkpt lat="39.69914426004782" lon="8.466078901728189"><ele>74.6</ele><time>2026-05-01T07:00:46.999Z</time></trkpt><trkpt lat="39.69908804617001" lon="8.466162888411876"><ele>74.8</ele><time>2026-05-01T07:00:47.999Z</time></trkpt><trkpt lat="39.69902714212411" lon="8.466263589216103"><ele>75.0</ele><time>2026-05-01T07:00:48.999Z</time></trkpt><trkpt lat="39.698961906351364" lon="8.466370908240314"><ele>75.0</ele><time>2026-05-01T07:00:49.999Z</time></trkpt><trkpt lat="39.69889900288439" lon="8.466489612968257"><ele>75.0</ele><time>2026-05-01T07:00:50.999Z</time></trkpt><trkpt lat="39.69883932217674" lon="8.466617919206708"><ele>75.0</ele><time>2026-05-01T07:00:51.999Z</time></trkpt><trkpt lat="39.69878168067259" lon="8.466750417772989"><ele>75.0</ele><time>2026-05-01T07:00:52.999Z</time></trkpt><trkpt lat="39.69872148023158" lon="8.466887461626888"><ele>75.0</ele><time>2026-05-01T07:00:53.999Z</time></trkpt><trkpt lat="39.69866334309203" lon="8.467019701001016"><ele>75.0</ele><time>2026-05-01T07:00:54.999Z</time></trkpt><trkpt lat="39.698595136330546" lon="8.467145845384756"><ele>75.0</ele><time>2026-05-01T07:00:55.999Z</time></trkpt><trkpt lat="39.69854346739101" lon="8.467293368255072"><ele>75.0</ele><time>2026-05-01T07:00:56.999Z</time></trkpt><trkpt lat="39.69845745741579" lon="8.467414106198614"><ele>74.8</ele><time>2026-05-01T07:00:57.999Z</time></trkpt><trkpt lat="39.698386851363544" lon="8.467547950186175"><ele>74.6</ele><time>2026-05-01T07:00:58.999Z</time></trkpt><trkpt lat="39.69832111652227" lon="8.467676128523062"><ele>74.4</ele><time>2026-05-01T07:00:59.999Z</time></trkpt><trkpt lat="39.69825567211552" lon="8.46777643570743"><ele>74.2</ele><time>2026-05-01T07:01:00.999Z</time></trkpt><trkpt lat="39.6981804426118" lon="8.467851631776853"><ele>74.0</ele><time>2026-05-01T07:01:01.998Z</time></trkpt><trkpt lat="39.698087589794056" lon="8.46788819163664"><ele>74.0</ele><time>2026-05-01T07:01:02.998Z</time></trkpt><trkpt lat="39.69797550783136" lon="8.467942156314937"><ele>74.0</ele><time>2026-05-01T07:01:03.998Z</time></trkpt><trkpt lat="39.697872953073905" lon="8.467978721468285"><ele>74.0</ele><time>2026-05-01T07:01:04.998Z</time></trkpt><trkpt lat="39.69775718570753" lon="8.468012829490394"><ele>74.0</ele><time>2026-05-01T07:01:05.998Z</time></trkpt><trkpt lat="39.6976479595075" lon="8.468045011808343"><ele>76.0</ele><time>2026-05-01T07:01:06.998Z</time></trkpt><trkpt lat="39.69753473061384" lon="8.46808595200186"><ele>78.0</ele><time>2026-05-01T07:01:07.998Z</time></trkpt><trkpt lat="39.697425917544784" lon="8.46813395590714"><ele>80.0</ele><time>2026-05-01T07:01:08.998Z</time></trkpt><trkpt lat="39.697320461983104" lon="8.468183306110921"><ele>82.0</ele><time>2026-05-01T07:01:09.998Z</time></trkpt><trkpt lat="39.69721967349706" lon="8.468239763058737"><ele>82.0</ele><time>2026-05-01T07:01:10.998Z</time></trkpt><trkpt lat="39.69712090820766" lon="8.468303900270028"><ele>82.0</ele><time>2026-05-01T07:01:11.998Z</time></trkpt><trkpt lat="39.69702952002989" lon="8.468374880037114"><ele>82.0</ele><time>2026-05-01T07:01:12.998Z</time></trkpt><trkpt lat="39.696941705130754" lon="8.468460221269478"><ele>82.0</ele><time>2026-05-01T07:01:13.998Z</time></trkpt><trkpt lat="39.69686080381326" lon="8.468572938181143"><ele>82.0</ele><time>2026-05-01T07:01:14.998Z</time></trkpt><trkpt lat="39.69675469951279" lon="8.46864986456943"><ele>82.0</ele><time>2026-05-01T07:01:15.998Z</time></trkpt><trkpt lat="39.69666843730876" lon="8.468728991898795"><ele>82.0</ele><time>2026-05-01T07:01:16.998Z</time></trkpt><trkpt lat="39.69658669285605" lon="8.468798403940044"><ele>82.0</ele><time>2026-05-01T07:01:17.998Z</time></trkpt><trkpt lat="39.6965067285562" lon="8.468854551906281"><ele>82.0</ele><time>2026-05-01T07:01:18.998Z</time></trkpt><trkpt lat="39.69640670434812" lon="8.468919370802073"><ele>82.0</ele><time>2026-05-01T07:01:19.998Z</time></trkpt><trkpt lat="39.69628601608642" lon="8.468985170186405"><ele>82.0</ele><time>2026-05-01T07:01:20.998Z</time></trkpt><trkpt lat="39.696163972822895" lon="8.469053459161602"><ele>82.0</ele><time>2026-05-01T07:01:21.998Z</time></trkpt><trkpt lat="39.69605789095154" lon="8.469122139175536"><ele>82.0</ele><time>2026-05-01T07:01:22.998Z</time></trkpt><trkpt lat="39.695966071553464" lon="8.469195710616264"><ele>82.0</ele><time>2026-05-01T07:01:23.998Z</time></trkpt><trkpt lat="39.69587412202837" lon="8.469275435205029"><ele>82.0</ele><time>2026-05-01T07:01:24.998Z</time></trkpt><trkpt lat="39.69577581372712" lon="8.469362815596021"><ele>82.0</ele><time>2026-05-01T07:01:25.998Z</time></trkpt><trkpt lat="39.69567188859431" lon="8.469455836803755"><ele>82.0</ele><time>2026-05-01T07:01:27Z</time></trkpt><trkpt lat="39.69557548502299" lon="8.469537682900398"><ele>82.0</ele><time>2026-05-01T07:01:28Z</time></trkpt><trkpt lat="39.695496184429224" lon="8.469600951919778"><ele>82.6</ele><time>2026-05-01T07:01:29Z</time></trkpt><trkpt lat="39.69543633239442" lon="8.469645597601836"><ele>83.19999999999999</ele><time>2026-05-01T07:01:30Z</time></trkpt><trkpt lat="39.69531342945318" lon="8.469723067851614"><ele>83.8</ele><time>2026-05-01T07:01:32Z</time></trkpt><trkpt lat="39.695232063660946" lon="8.469755257825412"><ele>84.4</ele><time>2026-05-01T07:01:33Z</time></trkpt><trkpt lat="39.69514491529719" lon="8.469754933457704"><ele>85.0</ele><time>2026-05-01T07:01:34Z</time></trkpt><trkpt lat="39.69504582862477" lon="8.469746682602405"><ele>83.8</ele><time>2026-05-01T07:01:35Z</time></trkpt><trkpt lat="39.69495761015998" lon="8.469738727550228"><ele>82.6</ele><time>2026-05-01T07:01:36Z</time></trkpt><trkpt lat="39.694874797549716" lon="8.46972427104467"><ele>81.4</ele><time>2026-05-01T07:01:37Z</time></trkpt><trkpt lat="39.69477095205795" lon="8.469707976497283"><ele>80.2</ele><time>2026-05-01T07:01:38Z</time></trkpt><trkpt lat="39.69465568647525" lon="8.469689889995177"><ele>79.0</ele><time>2026-05-01T07:01:39Z</time></trkpt><trkpt lat="39.69453863705486" lon="8.469671523577924"><ele>79.0</ele><time>2026-05-01T07:01:40Z</time></trkpt><trkpt lat="39.69442781693932" lon="8.46967728110035"><ele>79.0</ele><time>2026-05-01T07:01:41Z</time></trkpt><trkpt lat="39.69432753896694" lon="8.469688764814123"><ele>79.0</ele><time>2026-05-01T07:01:42Z</time></trkpt><trkpt lat="39.69423384962712" lon="8.469679669988611"><ele>79.0</ele><time>2026-05-01T07:01:43Z</time></trkpt><trkpt lat="39.694162239353496" lon="8.469678230793821"><ele>79.0</ele><time>2026-05-01T07:01:44Z</time></trkpt><trkpt lat="39.69408837925133" lon="8.469624843094365"><ele>78.4</ele><time>2026-05-01T07:01:45Z</time></trkpt><trkpt lat="39.69398781966093" lon="8.469591048265288"><ele>77.80000000000001</ele><time>2026-05-01T07:01:46Z</time></trkpt><trkpt lat="39.69388780834628" lon="8.469537494515347"><ele>77.19999999999999</ele><time>2026-05-01T07:01:47Z</time></trkpt><trkpt lat="39.69378456853006" lon="8.46945949230535"><ele>76.6</ele><time>2026-05-01T07:01:48Z</time></trkpt><trkpt lat="39.69368121355741" lon="8.469385514657738"><ele>76.0</ele><time>2026-05-01T07:01:49Z</time></trkpt><trkpt lat="39.6935707025511" lon="8.469309538281793"><ele>76.0</ele><time>2026-05-01T07:01:50Z</time></trkpt><trkpt lat="39.69347056488772" lon="8.469249319175288"><ele>76.0</ele><time>2026-05-01T07:01:51Z</time></trkpt><trkpt lat="39.69337902355628" lon="8.469188164467154"><ele>76.0</ele><time>2026-05-01T07:01:52Z</time></trkpt><trkpt lat="39.69330326034502" lon="8.469117116101248"><ele>76.0</ele><time>2026-05-01T07:01:53Z</time></trkpt><trkpt lat="39.69320924001638" lon="8.469028585094751"><ele>76.0</ele><time>2026-05-01T07:01:54Z</time></trkpt><trkpt lat="39.69312125947086" lon="8.468951881842315"><ele>76.0</ele><time>2026-05-01T07:01:55Z</time></trkpt><trkpt lat="39.69302500235884" lon="8.468886347019884"><ele>76.0</ele><time>2026-05-01T07:01:56Z</time></trkpt><trkpt lat="39.69293486890033" lon="8.468818384644985"><ele>76.0</ele><time>2026-05-01T07:01:57Z</time></trkpt><trkpt lat="39.692862120753794" lon="8.468742219898953"><ele>76.0</ele><time>2026-05-01T07:01:58Z</time></trkpt><trkpt lat="39.69279157588603" lon="8.468654862309112"><ele>76.0</ele><time>2026-05-01T07:01:59Z</time></trkpt><trkpt lat="39.69272252377876" lon="8.46857701057446"><ele>77.19999999999999</ele><time>2026-05-01T07:02:00Z</time></trkpt><trkpt lat="39.692646120870506" lon="8.468504799260518"><ele>78.39999999999999</ele><time>2026-05-01T07:02:01Z</time></trkpt><trkpt lat="39.69255392505008" lon="8.46846144788101"><ele>79.6</ele><time>2026-05-01T07:02:01.999Z</time></trkpt><trkpt lat="39.69244630157309" lon="8.468445253812645"><ele>80.8</ele><time>2026-05-01T07:02:02.999Z</time></trkpt><trkpt lat="39.69232514841714" lon="8.468446440141102"><ele>82.0</ele><time>2026-05-01T07:02:03.999Z</time></trkpt><trkpt lat="39.69220570290342" lon="8.468459927012129"><ele>82.0</ele><time>2026-05-01T07:02:04.999Z</time></trkpt><trkpt lat="39.692089252225585" lon="8.468475827651009"><ele>82.0</ele><time>2026-05-01T07:02:05.999Z</time></trkpt><trkpt lat="39.69197946295906" lon="8.468496406511857"><ele>82.0</ele><time>2026-05-01T07:02:06.999Z</time></trkpt><trkpt lat="39.69186738108431" lon="8.46852125821417"><ele>82.0</ele><time>2026-05-01T07:02:07.999Z</time></trkpt><trkpt lat="39.6917603066289" lon="8.468554962993675"><ele>81.6</ele><time>2026-05-01T07:02:08.999Z</time></trkpt><trkpt lat="39.69165511130612" lon="8.468601925492758"><ele>81.19999999999999</ele><time>2026-05-01T07:02:09.999Z</time></trkpt><trkpt lat="39.69154768999414" lon="8.468650993710089"><ele>80.8</ele><time>2026-05-01T07:02:10.999Z</time></trkpt><trkpt lat="39.69146317454872" lon="8.468678745800474"><ele>80.4</ele><time>2026-05-01T07:02:11.999Z</time></trkpt><trkpt lat="39.69138331657631" lon="8.468675612163658"><ele>80.0</ele><time>2026-05-01T07:02:13.999Z</time></trkpt><trkpt lat="39.69133488713277" lon="8.468795922807363"><ele>80.0</ele><time>2026-05-01T07:02:14.999Z</time></trkpt><trkpt lat="39.691251577143056" lon="8.468864061560627"><ele>80.0</ele><time>2026-05-01T07:02:15.999Z</time></trkpt><trkpt lat="39.69117041851573" lon="8.468965103060402"><ele>80.0</ele><time>2026-05-01T07:02:16.999Z</time></trkpt><trkpt lat="39.69108642127706" lon="8.469081323667789"><ele>80.0</ele><time>2026-05-01T07:02:17.999Z</time></trkpt><trkpt lat="39.69099555945847" lon="8.469206297380222"><ele>80.5</ele><time>2026-05-01T07:02:18.999Z</time></trkpt><trkpt lat="39.690899017277594" lon="8.469328594805447"><ele>81.0</ele><time>2026-05-01T07:02:19.999Z</time></trkpt><trkpt lat="39.690805988736145" lon="8.469460160812657"><ele>81.5</ele><time>2026-05-01T07:02:20.999Z</time></trkpt><trkpt lat="39.690732630182474" lon="8.46961068775793"><ele>82.0</ele><time>2026-05-01T07:02:21.999Z</time></trkpt><trkpt lat="39.69066987465131" lon="8.469755064212993"><ele>82.0</ele><time>2026-05-01T07:02:22.999Z</time></trkpt><trkpt lat="39.69062437336194" lon="8.469887580092445"><ele>82.0</ele><time>2026-05-01T07:02:23.999Z</time></trkpt><trkpt lat="39.690599418829834" lon="8.469994340230276"><ele>82.0</ele><time>2026-05-01T07:02:24.999Z</time></trkpt><trkpt lat="39.69059464744585" lon="8.470117897719254"><ele>82.0</ele><time>2026-05-01T07:02:26.999Z</time></trkpt><trkpt lat="39.69062373531852" lon="8.470192147973119"><ele>82.0</ele><time>2026-05-01T07:02:29.999Z</time></trkpt><trkpt lat="39.69057360574867" lon="8.470277246782238"><ele>82.0</ele><time>2026-05-01T07:02:31.999Z</time></trkpt><trkpt lat="39.69048746065581" lon="8.470313591228319"><ele>82.0</ele><time>2026-05-01T07:02:32.999Z</time></trkpt><trkpt lat="39.6904112305313" lon="8.470374274544474"><ele>82.0</ele><time>2026-05-01T07:02:33.999Z</time></trkpt><trkpt lat="39.69032260494996" lon="8.470464573484659"><ele>82.0</ele><time>2026-05-01T07:02:34.999Z</time></trkpt><trkpt lat="39.69022715434886" lon="8.470573074807131"><ele>82.0</ele><time>2026-05-01T07:02:35.999Z</time></trkpt><trkpt lat="39.690121334351346" lon="8.470687324758151"><ele>82.25</ele><time>2026-05-01T07:02:36.999Z</time></trkpt><trkpt lat="39.69001110854183" lon="8.470804560526506"><ele>82.5</ele><time>2026-05-01T07:02:37.999Z</time></trkpt><trkpt lat="39.689906564506046" lon="8.470937417422904"><ele>82.75</ele><time>2026-05-01T07:02:38.999Z</time></trkpt><trkpt lat="39.689815232905126" lon="8.471099395878404"><ele>83.0</ele><time>2026-05-01T07:02:39.999Z</time></trkpt><trkpt lat="39.68973177949827" lon="8.471281522578805"><ele>82.33333333333334</ele><time>2026-05-01T07:02:40.999Z</time></trkpt><trkpt lat="39.68964276536417" lon="8.471458807401389"><ele>81.66666666666667</ele><time>2026-05-01T07:02:41.999Z</time></trkpt><trkpt lat="39.68953478352884" lon="8.47161446743059"><ele>81.0</ele><time>2026-05-01T07:02:42.999Z</time></trkpt><trkpt lat="39.68941621188731" lon="8.471737489755041"><ele>81.0</ele><time>2026-05-01T07:02:43.999Z</time></trkpt><trkpt lat="39.68930475292682" lon="8.471813175706451"><ele>81.0</ele><time>2026-05-01T07:02:44.999Z</time></trkpt><trkpt lat="39.68919529048885" lon="8.47177712213821"><ele>81.0</ele><time>2026-05-01T07:02:45.999Z</time></trkpt><trkpt lat="39.689089505080794" lon="8.471704622206861"><ele>81.0</ele><time>2026-05-01T07:02:46.999Z</time></trkpt><trkpt lat="39.68896472697058" lon="8.471684253301483"><ele>81.0</ele><time>2026-05-01T07:02:47.999Z</time></trkpt><trkpt lat="39.6888389924557" lon="8.471694779445395"><ele>81.0</ele><time>2026-05-01T07:02:48.999Z</time></trkpt><trkpt lat="39.68869644898807" lon="8.471776352511963"><ele>81.0</ele><time>2026-05-01T07:02:49.999Z</time></trkpt><trkpt lat="39.688548929705156" lon="8.47184519036995"><ele>81.0</ele><time>2026-05-01T07:02:50.999Z</time></trkpt><trkpt lat="39.68839628754681" lon="8.471898919198264"><ele>79.33333333333333</ele><time>2026-05-01T07:02:51.999Z</time></trkpt><trkpt lat="39.688246410397916" lon="8.471967128345904"><ele>77.66666666666666</ele><time>2026-05-01T07:02:52.999Z</time></trkpt><trkpt lat="39.688099013299755" lon="8.472060107982273"><ele>76.0</ele><time>2026-05-01T07:02:53.999Z</time></trkpt><trkpt lat="39.687955465437874" lon="8.472171327964222"><ele>77.66666666666666</ele><time>2026-05-01T07:02:54.999Z</time></trkpt><trkpt lat="39.68781116871778" lon="8.472279122295083"><ele>79.33333333333333</ele><time>2026-05-01T07:02:55.999Z</time></trkpt><trkpt lat="39.68765545441744" lon="8.47233973871636"><ele>81.0</ele><time>2026-05-01T07:02:56.999Z</time></trkpt><trkpt lat="39.68751294815473" lon="8.472398565283518"><ele>81.0</ele><time>2026-05-01T07:02:57.999Z</time></trkpt><trkpt lat="39.68737345872926" lon="8.472452487765327"><ele>81.0</ele><time>2026-05-01T07:02:58.999Z</time></trkpt><trkpt lat="39.687244533799614" lon="8.472502479249004"><ele>81.0</ele><time>2026-05-01T07:02:59.999Z</time></trkpt><trkpt lat="39.6871309750118" lon="8.472536290992727"><ele>81.0</ele><time>2026-05-01T07:03:00.999Z</time></trkpt><trkpt lat="39.68703218082953" lon="8.472544805051003"><ele>81.0</ele><time>2026-05-01T07:03:01.999Z</time></trkpt><trkpt lat="39.68694523660296" lon="8.472510200440658"><ele>81.0</ele><time>2026-05-01T07:03:02.999Z</time></trkpt><trkpt lat="39.68690042218911" lon="8.472400562775473"><ele>81.0</ele><time>2026-05-01T07:03:03.998Z</time></trkpt><trkpt lat="39.68689741917556" lon="8.47225961674754"><ele>81.0</ele><time>2026-05-01T07:03:04.998Z</time></trkpt><trkpt lat="39.68693991019068" lon="8.47211702892093"><ele>81.0</ele><time>2026-05-01T07:03:05.998Z</time></trkpt><trkpt lat="39.686996439406705" lon="8.471970528923254"><ele>81.0</ele><time>2026-05-01T07:03:06.998Z</time></trkpt><trkpt lat="39.6870733708542" lon="8.471854182523655"><ele>81.0</ele><time>2026-05-01T07:03:07.998Z</time></trkpt><trkpt lat="39.68718561125294" lon="8.471808528140944"><ele>81.0</ele><time>2026-05-01T07:03:08.998Z</time></trkpt><trkpt lat="39.68731048470415" lon="8.471826077874802"><ele>81.0</ele><time>2026-05-01T07:03:09.998Z</time></trkpt><trkpt lat="39.68742566349836" lon="8.471816042789163"><ele>81.0</ele><time>2026-05-01T07:03:10.998Z</time></trkpt><trkpt lat="39.68752375902127" lon="8.471722135270195"><ele>81.0</ele><time>2026-05-01T07:03:11.998Z</time></trkpt><trkpt lat="39.68760196942589" lon="8.471574893172514"><ele>81.0</ele><time>2026-05-01T07:03:12.998Z</time></trkpt><trkpt lat="39.68766296248929" lon="8.471413819855396"><ele>81.0</ele><time>2026-05-01T07:03:13.998Z</time></trkpt><trkpt lat="39.68772181857755" lon="8.471251517306376"><ele>81.5</ele><time>2026-05-01T07:03:14.998Z</time></trkpt><trkpt lat="39.68777812985151" lon="8.471091618976969"><ele>82.0</ele><time>2026-05-01T07:03:15.998Z</time></trkpt><trkpt lat="39.68781532445422" lon="8.470929564276508"><ele>82.5</ele><time>2026-05-01T07:03:16.998Z</time></trkpt><trkpt lat="39.68780891665546" lon="8.47076138848848"><ele>83.0</ele><time>2026-05-01T07:03:17.998Z</time></trkpt><trkpt lat="39.68776033717587" lon="8.470599166604712"><ele>84.25</ele><time>2026-05-01T07:03:18.998Z</time></trkpt><trkpt lat="39.687678496828816" lon="8.470449969865083"><ele>85.5</ele><time>2026-05-01T07:03:19.998Z</time></trkpt><trkpt lat="39.68758624297817" lon="8.470308135123412"><ele>86.75</ele><time>2026-05-01T07:03:20.998Z</time></trkpt><trkpt lat="39.68749421265819" lon="8.470162498276045"><ele>88.0</ele><time>2026-05-01T07:03:21.998Z</time></trkpt><trkpt lat="39.68740510380457" lon="8.470008694625905"><ele>88.0</ele><time>2026-05-01T07:03:22.998Z</time></trkpt><trkpt lat="39.68731765258362" lon="8.469858783459488"><ele>88.0</ele><time>2026-05-01T07:03:23.998Z</time></trkpt><trkpt lat="39.68722449445038" lon="8.469706182094832"><ele>88.0</ele><time>2026-05-01T07:03:24.998Z</time></trkpt><trkpt lat="39.68712291533518" lon="8.46955271701879"><ele>90.0</ele><time>2026-05-01T07:03:25.998Z</time></trkpt><trkpt lat="39.68700472975409" lon="8.469417680790805"><ele>92.0</ele><time>2026-05-01T07:03:26.998Z</time></trkpt><trkpt lat="39.686876133599434" lon="8.469302021890204"><ele>94.0</ele><time>2026-05-01T07:03:27.998Z</time></trkpt><trkpt lat="39.68675981253739" lon="8.469166849083956"><ele>94.0</ele><time>2026-05-01T07:03:28.998Z</time></trkpt><trkpt lat="39.686630929321566" lon="8.469071333108566"><ele>94.0</ele><time>2026-05-01T07:03:29.998Z</time></trkpt><trkpt lat="39.68652970507702" lon="8.468939066073535"><ele>94.0</ele><time>2026-05-01T07:03:30.998Z</time></trkpt><trkpt lat="39.686492409551775" lon="8.46876737963873"><ele>94.0</ele><time>2026-05-01T07:03:31.998Z</time></trkpt><trkpt lat="39.68644633004707" lon="8.468631430533138"><ele>93.80000000000001</ele><time>2026-05-01T07:03:33Z</time></trkpt><trkpt lat="39.68644237223167" lon="8.468517227876442"><ele>93.60000000000001</ele><time>2026-05-01T07:03:34Z</time></trkpt><trkpt lat="39.686424770931616" lon="8.46840274528598"><ele>93.4</ele><time>2026-05-01T07:03:36Z</time></trkpt><trkpt lat="39.68630558263495" lon="8.468522857723631"><ele>93.2</ele><time>2026-05-01T07:03:42Z</time></trkpt><trkpt lat="39.686232501971546" lon="8.468634204285303"><ele>93.0</ele><time>2026-05-01T07:03:44Z</time></trkpt><trkpt lat="39.686197382734406" lon="8.46873671428879"><ele>93.2</ele><time>2026-05-01T07:03:45Z</time></trkpt><trkpt lat="39.68613493648073" lon="8.468815098138707"><ele>93.4</ele><time>2026-05-01T07:03:46Z</time></trkpt><trkpt lat="39.68605792036438" lon="8.468871268952498"><ele>93.60000000000001</ele><time>2026-05-01T07:03:47Z</time></trkpt><trkpt lat="39.68599688106253" lon="8.468939003996264"><ele>93.80000000000001</ele><time>2026-05-01T07:03:48Z</time></trkpt><trkpt lat="39.68594445189909" lon="8.46900811339667"><ele>94.0</ele><time>2026-05-01T07:03:49Z</time></trkpt><trkpt lat="39.68587198574989" lon="8.469161810036583"><ele>95.0</ele><time>2026-05-01T07:03:51Z</time></trkpt><trkpt lat="39.68582687324441" lon="8.469256174280355"><ele>96.0</ele><time>2026-05-01T07:03:52Z</time></trkpt><trkpt lat="39.685778467103816" lon="8.469338545440039"><ele>97.0</ele><time>2026-05-01T07:03:53Z</time></trkpt><trkpt lat="39.68574758704939" lon="8.469414897729571"><ele>98.0</ele><time>2026-05-01T07:03:54Z</time></trkpt><trkpt lat="39.685730187442715" lon="8.469509436903442"><ele>99.00000000000001</ele><time>2026-05-01T07:03:55Z</time></trkpt><trkpt lat="39.6857113183232" lon="8.469612075269884"><ele>100.0</ele><time>2026-05-01T07:03:56Z</time></trkpt><trkpt lat="39.68566861028612" lon="8.469724450776749"><ele>100.66666666666667</ele><time>2026-05-01T07:03:57Z</time></trkpt><trkpt lat="39.68562422137411" lon="8.469822297702922"><ele>101.33333333333334</ele><time>2026-05-01T07:03:58Z</time></trkpt><trkpt lat="39.68558796767841" lon="8.469911557210485"><ele>102.0</ele><time>2026-05-01T07:03:59Z</time></trkpt><trkpt lat="39.68555668794407" lon="8.469996454768902"><ele>102.66666666666666</ele><time>2026-05-01T07:04:00Z</time></trkpt><trkpt lat="39.68551859933643" lon="8.470082416720276"><ele>103.33333333333333</ele><time>2026-05-01T07:04:01Z</time></trkpt><trkpt lat="39.6854615643073" lon="8.470186103076704"><ele>104.0</ele><time>2026-05-01T07:04:02Z</time></trkpt><trkpt lat="39.68541499640873" lon="8.47028647753947"><ele>104.0</ele><time>2026-05-01T07:04:03Z</time></trkpt><trkpt lat="39.68539016148149" lon="8.4703822168606"><ele>104.0</ele><time>2026-05-01T07:04:04Z</time></trkpt><trkpt lat="39.68538768941198" lon="8.470506260593574"><ele>104.0</ele><time>2026-05-01T07:04:05Z</time></trkpt><trkpt lat="39.68538671579238" lon="8.470647752109148"><ele>104.0</ele><time>2026-05-01T07:04:06Z</time></trkpt><trkpt lat="39.6853771544484" lon="8.470797241008954"><ele>104.0</ele><time>2026-05-01T07:04:06.999Z</time></trkpt><trkpt lat="39.685362718587456" lon="8.470944808608115"><ele>103.83333333333333</ele><time>2026-05-01T07:04:07.999Z</time></trkpt><trkpt lat="39.68534649299575" lon="8.47109121506856"><ele>103.66666666666666</ele><time>2026-05-01T07:04:08.999Z</time></trkpt><trkpt lat="39.685341114434074" lon="8.47121874971418"><ele>103.5</ele><time>2026-05-01T07:04:09.999Z</time></trkpt><trkpt lat="39.685354033610956" lon="8.471328331415862"><ele>103.33333333333334</ele><time>2026-05-01T07:04:10.999Z</time></trkpt><trkpt lat="39.685385029365534" lon="8.471422184422728"><ele>103.16666666666667</ele><time>2026-05-01T07:04:11.999Z</time></trkpt><trkpt lat="39.68541167789508" lon="8.471508002976796"><ele>103.0</ele><time>2026-05-01T07:04:12.999Z</time></trkpt><trkpt lat="39.68543857316336" lon="8.471657866413786"><ele>103.0</ele><time>2026-05-01T07:04:14.999Z</time></trkpt><trkpt lat="39.68546227629008" lon="8.47179818659096"><ele>103.0</ele><time>2026-05-01T07:04:16.999Z</time></trkpt><trkpt lat="39.68548804869977" lon="8.471936017466447"><ele>103.0</ele><time>2026-05-01T07:04:18.999Z</time></trkpt><trkpt lat="39.68552666138928" lon="8.47211814951305"><ele>103.0</ele><time>2026-05-01T07:04:20.999Z</time></trkpt><trkpt lat="39.68555977653989" lon="8.472244709775579"><ele>102.2</ele><time>2026-05-01T07:04:21.999Z</time></trkpt><trkpt lat="39.68558585552461" lon="8.472383947122953"><ele>101.4</ele><time>2026-05-01T07:04:22.999Z</time></trkpt><trkpt lat="39.68560139081219" lon="8.472512597273969"><ele>100.60000000000001</ele><time>2026-05-01T07:04:23.999Z</time></trkpt><trkpt lat="39.68560399232911" lon="8.472639771749657"><ele>99.80000000000001</ele><time>2026-05-01T07:04:24.999Z</time></trkpt><trkpt lat="39.685594767589926" lon="8.47274692700716"><ele>99.0</ele><time>2026-05-01T07:04:25.999Z</time></trkpt><trkpt lat="39.685566427344554" lon="8.472849564586989"><ele>98.4</ele><time>2026-05-01T07:04:26.999Z</time></trkpt><trkpt lat="39.68551787866564" lon="8.472961787005797"><ele>97.80000000000001</ele><time>2026-05-01T07:04:27.999Z</time></trkpt><trkpt lat="39.685480794997815" lon="8.473071396859519"><ele>97.19999999999999</ele><time>2026-05-01T07:04:28.999Z</time></trkpt><trkpt lat="39.68544786725807" lon="8.473159508545084"><ele>96.6</ele><time>2026-05-01T07:04:29.999Z</time></trkpt><trkpt lat="39.685463704665096" lon="8.47333945398509"><ele>96.0</ele><time>2026-05-01T07:04:31.999Z</time></trkpt><trkpt lat="39.68547866805652" lon="8.473464344679053"><ele>96.0</ele><time>2026-05-01T07:04:32.999Z</time></trkpt><trkpt lat="39.68548856809915" lon="8.473577694622758"><ele>96.0</ele><time>2026-05-01T07:04:33.999Z</time></trkpt><trkpt lat="39.68551465363801" lon="8.473691296260384"><ele>96.0</ele><time>2026-05-01T07:04:34.999Z</time></trkpt><trkpt lat="39.685547276648" lon="8.473806062266807"><ele>96.0</ele><time>2026-05-01T07:04:35.999Z</time></trkpt><trkpt lat="39.68558423278303" lon="8.473924447749678"><ele>96.0</ele><time>2026-05-01T07:04:36.999Z</time></trkpt><trkpt lat="39.68563476357661" lon="8.474041474235332"><ele>96.33333333333333</ele><time>2026-05-01T07:04:37.999Z</time></trkpt><trkpt lat="39.68568114973765" lon="8.474156154750158"><ele>96.66666666666666</ele><time>2026-05-01T07:04:38.999Z</time></trkpt><trkpt lat="39.68571983067153" lon="8.474248622599042"><ele>97.0</ele><time>2026-05-01T07:04:39.999Z</time></trkpt><trkpt lat="39.68574889865839" lon="8.47434250326813"><ele>97.33333333333333</ele><time>2026-05-01T07:04:40.999Z</time></trkpt><trkpt lat="39.685760026335316" lon="8.474447048332735"><ele>97.66666666666666</ele><time>2026-05-01T07:04:41.999Z</time></trkpt><trkpt lat="39.68574291626221" lon="8.474556727580255"><ele>98.0</ele><time>2026-05-01T07:04:42.999Z</time></trkpt><trkpt lat="39.68570502463084" lon="8.474666968234489"><ele>98.4</ele><time>2026-05-01T07:04:43.999Z</time></trkpt><trkpt lat="39.68565857172257" lon="8.474773289104428"><ele>98.80000000000001</ele><time>2026-05-01T07:04:44.999Z</time></trkpt><trkpt lat="39.68560133578626" lon="8.474871537727893"><ele>99.2</ele><time>2026-05-01T07:04:45.999Z</time></trkpt><trkpt lat="39.68553916178041" lon="8.474964984170205"><ele>99.6</ele><time>2026-05-01T07:04:46.999Z</time></trkpt><trkpt lat="39.68547929887733" lon="8.475059119662095"><ele>100.0</ele><time>2026-05-01T07:04:47.999Z</time></trkpt><trkpt lat="39.68541795993553" lon="8.475153876894318"><ele>100.00000000000001</ele><time>2026-05-01T07:04:48.999Z</time></trkpt><trkpt lat="39.685351028502424" lon="8.475252764492476"><ele>100.0</ele><time>2026-05-01T07:04:49.999Z</time></trkpt><trkpt lat="39.685279438104644" lon="8.475339272292098"><ele>100.0</ele><time>2026-05-01T07:04:50.999Z</time></trkpt><trkpt lat="39.68522835546685" lon="8.475415794859373"><ele>100.0</ele><time>2026-05-01T07:04:51.999Z</time></trkpt><trkpt lat="39.68519357881615" lon="8.475487658768303"><ele>100.00000000000001</ele><time>2026-05-01T07:04:52.999Z</time></trkpt><trkpt lat="39.68514218808218" lon="8.47554620757658"><ele>100.0</ele><time>2026-05-01T07:04:53.999Z</time></trkpt><trkpt lat="39.685068200986514" lon="8.4755988531905"><ele>101.4</ele><time>2026-05-01T07:04:54.999Z</time></trkpt><trkpt lat="39.684983697565855" lon="8.475642682636714"><ele>102.8</ele><time>2026-05-01T07:04:55.999Z</time></trkpt><trkpt lat="39.6848917693473" lon="8.475678609557974"><ele>104.19999999999999</ele><time>2026-05-01T07:04:56.999Z</time></trkpt><trkpt lat="39.68479767062185" lon="8.475718741640472"><ele>105.6</ele><time>2026-05-01T07:04:57.999Z</time></trkpt><trkpt lat="39.68471284589577" lon="8.47575994015004"><ele>107.0</ele><time>2026-05-01T07:04:58.999Z</time></trkpt><trkpt lat="39.6846351990459" lon="8.475807303595719"><ele>106.99999999999999</ele><time>2026-05-01T07:04:59.999Z</time></trkpt><trkpt lat="39.684562611934545" lon="8.475872651648166"><ele>107.0</ele><time>2026-05-01T07:05:00.999Z</time></trkpt><trkpt lat="39.684506725337805" lon="8.475956867748156"><ele>107.0</ele><time>2026-05-01T07:05:01.999Z</time></trkpt><trkpt lat="39.684456183531054" lon="8.476023733286763"><ele>107.0</ele><time>2026-05-01T07:05:02.999Z</time></trkpt><trkpt lat="39.684353386490244" lon="8.476073678806095"><ele>106.99999999999999</ele><time>2026-05-01T07:05:04.999Z</time></trkpt><trkpt lat="39.684299440326235" lon="8.47602999826314"><ele>107.0</ele><time>2026-05-01T07:05:06.999Z</time></trkpt><trkpt lat="39.68426700139243" lon="8.475886982095675"><ele>109.19999999999999</ele><time>2026-05-01T07:05:08.998Z</time></trkpt><trkpt lat="39.684217862554306" lon="8.475810770674647"><ele>111.39999999999999</ele><time>2026-05-01T07:05:09.998Z</time></trkpt><trkpt lat="39.68415627264201" lon="8.475738337993777"><ele>113.60000000000001</ele><time>2026-05-01T07:05:10.998Z</time></trkpt><trkpt lat="39.6840466434371" lon="8.475681403511247"><ele>115.80000000000001</ele><time>2026-05-01T07:05:12.998Z</time></trkpt><trkpt lat="39.68393019362416" lon="8.475738435605466"><ele>118.0</ele><time>2026-05-01T07:05:14.998Z</time></trkpt><trkpt lat="39.683876807303285" lon="8.475807090512275"><ele>118.00000000000001</ele><time>2026-05-01T07:05:15.998Z</time></trkpt><trkpt lat="39.68383476230485" lon="8.475891556955691"><ele>118.0</ele><time>2026-05-01T07:05:16.998Z</time></trkpt><trkpt lat="39.68380226983888" lon="8.475992853114146"><ele>118.0</ele><time>2026-05-01T07:05:17.998Z</time></trkpt><trkpt lat="39.68376546935136" lon="8.476093713964076"><ele>118.0</ele><time>2026-05-01T07:05:18.998Z</time></trkpt><trkpt lat="39.68370635697026" lon="8.47619532588659"><ele>118.00000000000001</ele><time>2026-05-01T07:05:19.998Z</time></trkpt><trkpt lat="39.68364484451353" lon="8.476289445568337"><ele>118.0</ele><time>2026-05-01T07:05:20.998Z</time></trkpt><trkpt lat="39.68360264513238" lon="8.476400272270624"><ele>120.2</ele><time>2026-05-01T07:05:21.998Z</time></trkpt><trkpt lat="39.68357735177878" lon="8.476509874567357"><ele>122.4</ele><time>2026-05-01T07:05:22.998Z</time></trkpt><trkpt lat="39.683546767231505" lon="8.476624626713924"><ele>124.60000000000001</ele><time>2026-05-01T07:05:23.998Z</time></trkpt><trkpt lat="39.683515445652276" lon="8.476745266092625"><ele>126.80000000000001</ele><time>2026-05-01T07:05:24.998Z</time></trkpt><trkpt lat="39.68349055782476" lon="8.47686127495808"><ele>129.0</ele><time>2026-05-01T07:05:25.998Z</time></trkpt><trkpt lat="39.68347426988491" lon="8.476984061813745"><ele>129.33333333333334</ele><time>2026-05-01T07:05:26.998Z</time></trkpt><trkpt lat="39.683477166099564" lon="8.477110688847674"><ele>129.66666666666666</ele><time>2026-05-01T07:05:27.998Z</time></trkpt><trkpt lat="39.68347187996695" lon="8.477237140131024"><ele>130.0</ele><time>2026-05-01T07:05:28.998Z</time></trkpt><trkpt lat="39.683450064700146" lon="8.477363892662142"><ele>130.33333333333331</ele><time>2026-05-01T07:05:29.998Z</time></trkpt><trkpt lat="39.68342861073662" lon="8.477472255828218"><ele>130.66666666666666</ele><time>2026-05-01T07:05:30.998Z</time></trkpt><trkpt lat="39.68342478085628" lon="8.477556155500348"><ele>131.0</ele><time>2026-05-01T07:05:31.998Z</time></trkpt><trkpt lat="39.6834396503019" lon="8.477641758950535"><ele>131.0</ele><time>2026-05-01T07:05:32.998Z</time></trkpt><trkpt lat="39.68351360442519" lon="8.477768962025"><ele>131.0</ele><time>2026-05-01T07:05:34.998Z</time></trkpt><trkpt lat="39.68357748357815" lon="8.477835421913637"><ele>131.0</ele><time>2026-05-01T07:05:35.998Z</time></trkpt><trkpt lat="39.68364043273183" lon="8.477888211043542"><ele>131.0</ele><time>2026-05-01T07:05:36.998Z</time></trkpt><trkpt lat="39.68371609799051" lon="8.47793825857912"><ele>131.0</ele><time>2026-05-01T07:05:38Z</time></trkpt><trkpt lat="39.683800849217505" lon="8.47799322016137"><ele>130.2</ele><time>2026-05-01T07:05:39Z</time></trkpt><trkpt lat="39.68386792166469" lon="8.478065350637399"><ele>129.39999999999998</ele><time>2026-05-01T07:05:40Z</time></trkpt><trkpt lat="39.683900898252645" lon="8.478160900257569"><ele>128.6</ele><time>2026-05-01T07:05:41Z</time></trkpt><trkpt lat="39.68392944465186" lon="8.478271589133419"><ele>127.8</ele><time>2026-05-01T07:05:42Z</time></trkpt><trkpt lat="39.683971123842284" lon="8.478390249956101"><ele>127.0</ele><time>2026-05-01T07:05:43Z</time></trkpt><trkpt lat="39.6840166382887" lon="8.478512390804319"><ele>127.0</ele><time>2026-05-01T07:05:44Z</time></trkpt><trkpt lat="39.68406224328696" lon="8.478636090715412"><ele>126.99999999999999</ele><time>2026-05-01T07:05:45Z</time></trkpt><trkpt lat="39.684108213084585" lon="8.478745570402396"><ele>126.99999999999999</ele><time>2026-05-01T07:05:46Z</time></trkpt><trkpt lat="39.68414765450795" lon="8.478863638066146"><ele>127.0</ele><time>2026-05-01T07:05:47Z</time></trkpt><trkpt lat="39.68418264292616" lon="8.478991607811635"><ele>127.0</ele><time>2026-05-01T07:05:48Z</time></trkpt><trkpt lat="39.68422033339989" lon="8.479124085737537"><ele>126.6</ele><time>2026-05-01T07:05:49Z</time></trkpt><trkpt lat="39.68425699313979" lon="8.479252426362962"><ele>126.19999999999999</ele><time>2026-05-01T07:05:50Z</time></trkpt><trkpt lat="39.68429542308207" lon="8.479384204500501"><ele>125.8</ele><time>2026-05-01T07:05:51Z</time></trkpt><trkpt lat="39.6843417632765" lon="8.479503565645068"><ele>125.4</ele><time>2026-05-01T07:05:52Z</time></trkpt><trkpt lat="39.68439350289844" lon="8.479621272226083"><ele>125.0</ele><time>2026-05-01T07:05:53Z</time></trkpt><trkpt lat="39.68443452013836" lon="8.479734208372017"><ele>124.99999999999999</ele><time>2026-05-01T07:05:54Z</time></trkpt><trkpt lat="39.68446924114139" lon="8.47982980426721"><ele>125.0</ele><time>2026-05-01T07:05:55Z</time></trkpt><trkpt lat="39.68449868437479" lon="8.479903364954037"><ele>125.0</ele><time>2026-05-01T07:05:56Z</time></trkpt><trkpt lat="39.68452494096778" lon="8.480023039177233"><ele>125.0</ele><time>2026-05-01T07:05:58Z</time></trkpt><trkpt lat="39.684530009985586" lon="8.480163725438072"><ele>124.99999999999999</ele><time>2026-05-01T07:06:00Z</time></trkpt><trkpt lat="39.6845260744842" lon="8.480248281235852"><ele>125.0</ele><time>2026-05-01T07:06:01Z</time></trkpt><trkpt lat="39.68451643300124" lon="8.480337086589833"><ele>124.99999999999999</ele><time>2026-05-01T07:06:02Z</time></trkpt><trkpt lat="39.68450080297393" lon="8.480419723376277"><ele>125.0</ele><time>2026-05-01T07:06:03Z</time></trkpt><trkpt lat="39.68448425531837" lon="8.480499720733283"><ele>125.0</ele><time>2026-05-01T07:06:04Z</time></trkpt><trkpt lat="39.68448743831198" lon="8.480590891312591"><ele>125.0</ele><time>2026-05-01T07:06:05Z</time></trkpt><trkpt lat="39.684500467890544" lon="8.480700225139113"><ele>124.99999999999999</ele><time>2026-05-01T07:06:06Z</time></trkpt><trkpt lat="39.684516881332264" lon="8.480817241013902"><ele>125.0</ele><time>2026-05-01T07:06:07Z</time></trkpt><trkpt lat="39.68452571259536" lon="8.480925932155309"><ele>124.6</ele><time>2026-05-01T07:06:08Z</time></trkpt><trkpt lat="39.6845190224386" lon="8.481030386461013"><ele>124.2</ele><time>2026-05-01T07:06:09Z</time></trkpt><trkpt lat="39.684499834812094" lon="8.481132717120813"><ele>123.80000000000001</ele><time>2026-05-01T07:06:09.999Z</time></trkpt><trkpt lat="39.68448157938145" lon="8.481219547773138"><ele>123.4</ele><time>2026-05-01T07:06:10.999Z</time></trkpt><trkpt lat="39.684462794179964" lon="8.48136419262639"><ele>123.0</ele><time>2026-05-01T07:06:12.999Z</time></trkpt><trkpt lat="39.684387370294445" lon="8.481468701192506"><ele>122.2</ele><time>2026-05-01T07:06:14.999Z</time></trkpt><trkpt lat="39.68429152694114" lon="8.4815509994712"><ele>121.4</ele><time>2026-05-01T07:06:16.999Z</time></trkpt><trkpt lat="39.68418602728064" lon="8.481613679507861"><ele>120.60000000000001</ele><time>2026-05-01T07:06:18.999Z</time></trkpt><trkpt lat="39.68412674506576" lon="8.4816517519103"><ele>119.80000000000001</ele><time>2026-05-01T07:06:19.999Z</time></trkpt><trkpt lat="39.68404750959455" lon="8.48176634623449"><ele>119.0</ele><time>2026-05-01T07:06:21.999Z</time></trkpt><trkpt lat="39.68399640016863" lon="8.48184602107165"><ele>118.99999999999999</ele><time>2026-05-01T07:06:22.999Z</time></trkpt><trkpt lat="39.68394041468427" lon="8.48190717108052"><ele>119.0</ele><time>2026-05-01T07:06:23.999Z</time></trkpt><trkpt lat="39.68388339775936" lon="8.481954998742612"><ele>119.0</ele><time>2026-05-01T07:06:24.999Z</time></trkpt><trkpt lat="39.683832592806745" lon="8.482012603108345"><ele>119.0</ele><time>2026-05-01T07:06:25.999Z</time></trkpt><trkpt lat="39.68380262103631" lon="8.482140438746608"><ele>118.99999999999999</ele><time>2026-05-01T07:06:27.999Z</time></trkpt><trkpt lat="39.68376059357555" lon="8.482261241502352"><ele>119.0</ele><time>2026-05-01T07:06:29.999Z</time></trkpt><trkpt lat="39.68367838737066" lon="8.482406997980815"><ele>119.2</ele><time>2026-05-01T07:06:31.999Z</time></trkpt><trkpt lat="39.68364481311776" lon="8.482507184864854"><ele>119.4</ele><time>2026-05-01T07:06:32.999Z</time></trkpt><trkpt lat="39.6836118276133" lon="8.482633447697287"><ele>119.6</ele><time>2026-05-01T07:06:33.999Z</time></trkpt><trkpt lat="39.68357361368684" lon="8.482767488498965"><ele>119.8</ele><time>2026-05-01T07:06:34.999Z</time></trkpt><trkpt lat="39.6835378962436" lon="8.48292689492271"><ele>120.0</ele><time>2026-05-01T07:06:35.999Z</time></trkpt><trkpt lat="39.6835022668755" lon="8.48309040537532"><ele>120.75</ele><time>2026-05-01T07:06:36.999Z</time></trkpt><trkpt lat="39.683473821960426" lon="8.483244157939724"><ele>121.5</ele><time>2026-05-01T07:06:37.999Z</time></trkpt><trkpt lat="39.6834493012097" lon="8.483394027713246"><ele>122.25</ele><time>2026-05-01T07:06:38.999Z</time></trkpt><trkpt lat="39.68341748162366" lon="8.483531585588388"><ele>123.0</ele><time>2026-05-01T07:06:39.999Z</time></trkpt><trkpt lat="39.683374548471065" lon="8.483671691497792"><ele>122.60000000000001</ele><time>2026-05-01T07:06:40.999Z</time></trkpt><trkpt lat="39.68332447471689" lon="8.48377889031566"><ele>122.20000000000002</ele><time>2026-05-01T07:06:41.999Z</time></trkpt><trkpt lat="39.68326541491135" lon="8.483876726852735"><ele>121.8</ele><time>2026-05-01T07:06:42.999Z</time></trkpt><trkpt lat="39.68319228828741" lon="8.48397812752218"><ele>121.4</ele><time>2026-05-01T07:06:43.999Z</time></trkpt><trkpt lat="39.68311143529738" lon="8.484093335803685"><ele>121.0</ele><time>2026-05-01T07:06:44.999Z</time></trkpt><trkpt lat="39.683034792421594" lon="8.484235379991611"><ele>121.0</ele><time>2026-05-01T07:06:45.999Z</time></trkpt><trkpt lat="39.68296919396677" lon="8.48437944156553"><ele>121.0</ele><time>2026-05-01T07:06:46.999Z</time></trkpt><trkpt lat="39.68290220902462" lon="8.48451171549068"><ele>121.0</ele><time>2026-05-01T07:06:47.999Z</time></trkpt><trkpt lat="39.68282876401452" lon="8.484635401359617"><ele>121.0</ele><time>2026-05-01T07:06:48.999Z</time></trkpt><trkpt lat="39.68275940562795" lon="8.484762657101008"><ele>120.75</ele><time>2026-05-01T07:06:49.999Z</time></trkpt><trkpt lat="39.68269019181401" lon="8.48488748644075"><ele>120.5</ele><time>2026-05-01T07:06:50.999Z</time></trkpt><trkpt lat="39.68261998917457" lon="8.48500153611254"><ele>120.25</ele><time>2026-05-01T07:06:51.999Z</time></trkpt><trkpt lat="39.682551284818054" lon="8.485114248118359"><ele>120.0</ele><time>2026-05-01T07:06:52.999Z</time></trkpt><trkpt lat="39.682493411422186" lon="8.48523367125404"><ele>120.0</ele><time>2026-05-01T07:06:53.999Z</time></trkpt><trkpt lat="39.68242369808932" lon="8.485360400039236"><ele>120.0</ele><time>2026-05-01T07:06:54.999Z</time></trkpt><trkpt lat="39.682354009341935" lon="8.485485182595275"><ele>120.0</ele><time>2026-05-01T07:06:55.999Z</time></trkpt><trkpt lat="39.68228494572563" lon="8.485606125897768"><ele>120.0</ele><time>2026-05-01T07:06:56.999Z</time></trkpt><trkpt lat="39.68220575399783" lon="8.485712293673362"><ele>120.66666666666667</ele><time>2026-05-01T07:06:57.999Z</time></trkpt><trkpt lat="39.68215546637262" lon="8.485793492658766"><ele>121.33333333333334</ele><time>2026-05-01T07:06:58.999Z</time></trkpt><trkpt lat="39.68207029939184" lon="8.485857319914242"><ele>122.0</ele><time>2026-05-01T07:07:00.999Z</time></trkpt><trkpt lat="39.68200459856035" lon="8.48588053225794"><ele>122.66666666666667</ele><time>2026-05-01T07:07:01.999Z</time></trkpt><trkpt lat="39.68193845662747" lon="8.485912851746383"><ele>123.33333333333334</ele><time>2026-05-01T07:07:02.999Z</time></trkpt><trkpt lat="39.68187489444465" lon="8.485956910939747"><ele>124.0</ele><time>2026-05-01T07:07:03.999Z</time></trkpt><trkpt lat="39.68183569717064" lon="8.486050554956721"><ele>124.80000000000001</ele><time>2026-05-01T07:07:04.999Z</time></trkpt><trkpt lat="39.68177555073783" lon="8.486150173931165"><ele>125.60000000000001</ele><time>2026-05-01T07:07:05.999Z</time></trkpt><trkpt lat="39.68172762587571" lon="8.48626387971857"><ele>126.4</ele><time>2026-05-01T07:07:06.999Z</time></trkpt><trkpt lat="39.68167691240807" lon="8.486369361703039"><ele>127.2</ele><time>2026-05-01T07:07:07.999Z</time></trkpt><trkpt lat="39.681613080812184" lon="8.486470093560476"><ele>128.0</ele><time>2026-05-01T07:07:08.999Z</time></trkpt><trkpt lat="39.68153780760621" lon="8.486572675647503"><ele>128.4</ele><time>2026-05-01T07:07:09.999Z</time></trkpt><trkpt lat="39.68146338789461" lon="8.486696313947952"><ele>128.8</ele><time>2026-05-01T07:07:10.999Z</time></trkpt><trkpt lat="39.68139859365333" lon="8.486796589328836"><ele>129.2</ele><time>2026-05-01T07:07:11.998Z</time></trkpt><trkpt lat="39.68133637890297" lon="8.486864882345897"><ele>129.6</ele><time>2026-05-01T07:07:12.998Z</time></trkpt><trkpt lat="39.68126867206172" lon="8.48689694182713"><ele>130.0</ele><time>2026-05-01T07:07:13.998Z</time></trkpt><trkpt lat="39.681179963680826" lon="8.48693273588651"><ele>130.0</ele><time>2026-05-01T07:07:14.998Z</time></trkpt><trkpt lat="39.681104008434964" lon="8.486982272341283"><ele>130.0</ele><time>2026-05-01T07:07:15.998Z</time></trkpt><trkpt lat="39.68103633930212" lon="8.487053742870234"><ele>130.0</ele><time>2026-05-01T07:07:16.998Z</time></trkpt><trkpt lat="39.680963068305054" lon="8.487135559311001"><ele>130.0</ele><time>2026-05-01T07:07:17.998Z</time></trkpt><trkpt lat="39.68087892474654" lon="8.487231303045137"><ele>130.0</ele><time>2026-05-01T07:07:18.998Z</time></trkpt><trkpt lat="39.68079314795004" lon="8.48732890505529"><ele>129.75</ele><time>2026-05-01T07:07:19.998Z</time></trkpt><trkpt lat="39.680718896778345" lon="8.487430917274715"><ele>129.5</ele><time>2026-05-01T07:07:20.998Z</time></trkpt><trkpt lat="39.68062714395128" lon="8.487516694896748"><ele>129.25</ele><time>2026-05-01T07:07:21.998Z</time></trkpt><trkpt lat="39.6805315790144" lon="8.487635973375733"><ele>129.0</ele><time>2026-05-01T07:07:22.998Z</time></trkpt><trkpt lat="39.680451633815245" lon="8.487759234763312"><ele>129.0</ele><time>2026-05-01T07:07:23.998Z</time></trkpt><trkpt lat="39.6804084186089" lon="8.487875448892463"><ele>129.0</ele><time>2026-05-01T07:07:24.998Z</time></trkpt><trkpt lat="39.6803574928859" lon="8.487993188606874"><ele>129.0</ele><time>2026-05-01T07:07:25.998Z</time></trkpt><trkpt lat="39.68028063187302" lon="8.48809976842645"><ele>129.0</ele><time>2026-05-01T07:07:26.998Z</time></trkpt><trkpt lat="39.68021640331489" lon="8.488183303765268"><ele>129.0</ele><time>2026-05-01T07:07:27.998Z</time></trkpt><trkpt lat="39.680147401523165" lon="8.488258899527583"><ele>129.6</ele><time>2026-05-01T07:07:28.998Z</time></trkpt><trkpt lat="39.68006106751496" lon="8.488355016531099"><ele>130.2</ele><time>2026-05-01T07:07:29.998Z</time></trkpt><trkpt lat="39.67999793232962" lon="8.488458712168544"><ele>130.79999999999998</ele><time>2026-05-01T07:07:30.998Z</time></trkpt><trkpt lat="39.67995061675856" lon="8.48855275940684"><ele>131.4</ele><time>2026-05-01T07:07:31.998Z</time></trkpt><trkpt lat="39.67988648430271" lon="8.488609610714297"><ele>132.0</ele><time>2026-05-01T07:07:32.998Z</time></trkpt><trkpt lat="39.67981617244298" lon="8.488679302974496"><ele>131.4</ele><time>2026-05-01T07:07:33.998Z</time></trkpt><trkpt lat="39.679727906622354" lon="8.48876707894937"><ele>130.79999999999998</ele><time>2026-05-01T07:07:34.998Z</time></trkpt><trkpt lat="39.679639107099796" lon="8.48885514666049"><ele>130.2</ele><time>2026-05-01T07:07:35.998Z</time></trkpt><trkpt lat="39.67955500394408" lon="8.488937595188915"><ele>129.6</ele><time>2026-05-01T07:07:36.998Z</time></trkpt><trkpt lat="39.67949434758812" lon="8.489002327000614"><ele>129.0</ele><time>2026-05-01T07:07:37.998Z</time></trkpt><trkpt lat="39.67946074888768" lon="8.48909683266859"><ele>130.0</ele><time>2026-05-01T07:07:38.998Z</time></trkpt><trkpt lat="39.679408192250115" lon="8.489176583681623"><ele>131.0</ele><time>2026-05-01T07:07:39.998Z</time></trkpt><trkpt lat="39.67935679110113" lon="8.489248061395466"><ele>132.0</ele><time>2026-05-01T07:07:40.998Z</time></trkpt><trkpt lat="39.67927929418839" lon="8.489261920445275"><ele>133.0</ele><time>2026-05-01T07:07:41.998Z</time></trkpt><trkpt lat="39.67918935302577" lon="8.489215173573347"><ele>134.0</ele><time>2026-05-01T07:07:42.998Z</time></trkpt><trkpt lat="39.679079113028216" lon="8.48923153835835"><ele>135.0</ele><time>2026-05-01T07:07:44Z</time></trkpt><trkpt lat="39.67898526731017" lon="8.489263877548293"><ele>135.0</ele><time>2026-05-01T07:07:45Z</time></trkpt><trkpt lat="39.678911258617646" lon="8.489304967343047"><ele>135.0</ele><time>2026-05-01T07:07:46Z</time></trkpt><trkpt lat="39.67882452371931" lon="8.489379969052083"><ele>135.0</ele><time>2026-05-01T07:07:47Z</time></trkpt><trkpt lat="39.67874767483666" lon="8.489494067772716"><ele>135.0</ele><time>2026-05-01T07:07:48Z</time></trkpt><trkpt lat="39.67870176609313" lon="8.489564272956914"><ele>135.0</ele><time>2026-05-01T07:07:49Z</time></trkpt><trkpt lat="39.67866437035657" lon="8.489632310335976"><ele>135.0</ele><time>2026-05-01T07:07:50Z</time></trkpt><trkpt lat="39.67859617899931" lon="8.489735269889737"><ele>137.0</ele><time>2026-05-01T07:07:51Z</time></trkpt><trkpt lat="39.678493573882626" lon="8.489847528622219"><ele>139.0</ele><time>2026-05-01T07:07:52Z</time></trkpt><trkpt lat="39.67839728406366" lon="8.489980579210938"><ele>141.0</ele><time>2026-05-01T07:07:53Z</time></trkpt><trkpt lat="39.678314330154" lon="8.490081968401006"><ele>143.0</ele><time>2026-05-01T07:07:54Z</time></trkpt><trkpt lat="39.67822121874498" lon="8.49017563397987"><ele>143.0</ele><time>2026-05-01T07:07:55Z</time></trkpt><trkpt lat="39.67811166789153" lon="8.490271959307027"><ele>143.0</ele><time>2026-05-01T07:07:56Z</time></trkpt><trkpt lat="39.67801890377473" lon="8.490394206414877"><ele>143.0</ele><time>2026-05-01T07:07:57Z</time></trkpt><trkpt lat="39.67793532502175" lon="8.490491813639867"><ele>143.0</ele><time>2026-05-01T07:07:58Z</time></trkpt><trkpt lat="39.677872160954756" lon="8.490576357332909"><ele>142.66666666666666</ele><time>2026-05-01T07:07:59Z</time></trkpt><trkpt lat="39.677826575987886" lon="8.490676236871632"><ele>142.33333333333331</ele><time>2026-05-01T07:08:00Z</time></trkpt><trkpt lat="39.67780612980442" lon="8.490799402034824"><ele>142.0</ele><time>2026-05-01T07:08:01Z</time></trkpt><trkpt lat="39.677813954438044" lon="8.490909430243832"><ele>141.66666666666666</ele><time>2026-05-01T07:08:02Z</time></trkpt><trkpt lat="39.67783178090143" lon="8.490999788291754"><ele>141.33333333333334</ele><time>2026-05-01T07:08:03Z</time></trkpt><trkpt lat="39.677828242092815" lon="8.49108724182488"><ele>141.0</ele><time>2026-05-01T07:08:04Z</time></trkpt><trkpt lat="39.67776323567432" lon="8.491131891190205"><ele>144.25</ele><time>2026-05-01T07:08:05Z</time></trkpt><trkpt lat="39.67762459334823" lon="8.491178348574454"><ele>147.5</ele><time>2026-05-01T07:08:07Z</time></trkpt><trkpt lat="39.67752336673119" lon="8.491174596355364"><ele>150.75</ele><time>2026-05-01T07:08:08Z</time></trkpt><trkpt lat="39.67739027479935" lon="8.491204641510741"><ele>154.0</ele><time>2026-05-01T07:08:09Z</time></trkpt><trkpt lat="39.67725456562199" lon="8.4912440061803"><ele>153.25</ele><time>2026-05-01T07:08:10Z</time></trkpt><trkpt lat="39.67714791308614" lon="8.491303731255632"><ele>152.5</ele><time>2026-05-01T07:08:11Z</time></trkpt><trkpt lat="39.67704540892116" lon="8.491334423504357"><ele>151.75</ele><time>2026-05-01T07:08:12Z</time></trkpt><trkpt lat="39.67696358528651" lon="8.491441355385811"><ele>151.0</ele><time>2026-05-01T07:08:12.999Z</time></trkpt><trkpt lat="39.67686838177245" lon="8.491526134375066"><ele>153.5</ele><time>2026-05-01T07:08:13.999Z</time></trkpt><trkpt lat="39.67678660104194" lon="8.49162246323291"><ele>156.0</ele><time>2026-05-01T07:08:14.999Z</time></trkpt><trkpt lat="39.676695320681524" lon="8.491738761458508"><ele>158.5</ele><time>2026-05-01T07:08:15.999Z</time></trkpt><trkpt lat="39.676620118858374" lon="8.491875945276878"><ele>161.0</ele><time>2026-05-01T07:08:16.999Z</time></trkpt><trkpt lat="39.67654715241691" lon="8.49203159455657"><ele>161.8</ele><time>2026-05-01T07:08:17.999Z</time></trkpt><trkpt lat="39.67649047447626" lon="8.49217999695828"><ele>162.60000000000002</ele><time>2026-05-01T07:08:18.999Z</time></trkpt><trkpt lat="39.676456054546335" lon="8.49230364033425"><ele>163.4</ele><time>2026-05-01T07:08:19.999Z</time></trkpt><trkpt lat="39.67640229255442" lon="8.492402333437312"><ele>164.2</ele><time>2026-05-01T07:08:20.999Z</time></trkpt><trkpt lat="39.67636081661523" lon="8.492492998469782"><ele>165.0</ele><time>2026-05-01T07:08:21.999Z</time></trkpt><trkpt lat="39.67631594983668" lon="8.492575117517939"><ele>165.0</ele><time>2026-05-01T07:08:22.999Z</time></trkpt><trkpt lat="39.67626699849771" lon="8.492640184405008"><ele>165.0</ele><time>2026-05-01T07:08:23.999Z</time></trkpt><trkpt lat="39.67614098584515" lon="8.492667277275533"><ele>165.0</ele><time>2026-05-01T07:08:25.999Z</time></trkpt><trkpt lat="39.67608770705835" lon="8.492599445801954"><ele>165.0</ele><time>2026-05-01T07:08:26.999Z</time></trkpt><trkpt lat="39.67598864580838" lon="8.492540554511544"><ele>165.0</ele><time>2026-05-01T07:08:27.999Z</time></trkpt><trkpt lat="39.67588277397504" lon="8.492483424110587"><ele>165.6</ele><time>2026-05-01T07:08:28.999Z</time></trkpt><trkpt lat="39.675768841740144" lon="8.492429546309882"><ele>166.2</ele><time>2026-05-01T07:08:29.999Z</time></trkpt><trkpt lat="39.6756606510141" lon="8.492363219762069"><ele>166.8</ele><time>2026-05-01T07:08:30.999Z</time></trkpt><trkpt lat="39.67556518158589" lon="8.492316027232759"><ele>167.4</ele><time>2026-05-01T07:08:31.999Z</time></trkpt><trkpt lat="39.675477918860715" lon="8.492291418310089"><ele>168.0</ele><time>2026-05-01T07:08:32.999Z</time></trkpt><trkpt lat="39.6753804043878" lon="8.492296415906205"><ele>168.0</ele><time>2026-05-01T07:08:33.999Z</time></trkpt><trkpt lat="39.675272448017935" lon="8.49230143719449"><ele>168.0</ele><time>2026-05-01T07:08:34.999Z</time></trkpt><trkpt lat="39.67516842400228" lon="8.492271377921174"><ele>168.0</ele><time>2026-05-01T07:08:35.999Z</time></trkpt><trkpt lat="39.675055992519944" lon="8.49222656383229"><ele>168.0</ele><time>2026-05-01T07:08:36.999Z</time></trkpt><trkpt lat="39.674938055362" lon="8.492176002694755"><ele>168.0</ele><time>2026-05-01T07:08:37.999Z</time></trkpt><trkpt lat="39.67485461984984" lon="8.492137310610818"><ele>168.0</ele><time>2026-05-01T07:08:38.999Z</time></trkpt><trkpt lat="39.67478424516867" lon="8.492089129564587"><ele>168.0</ele><time>2026-05-01T07:08:39.999Z</time></trkpt><trkpt lat="39.67471014269503" lon="8.491995894609975"><ele>168.0</ele><time>2026-05-01T07:08:40.999Z</time></trkpt><trkpt lat="39.67462679627596" lon="8.491913835276687"><ele>168.0</ele><time>2026-05-01T07:08:41.999Z</time></trkpt><trkpt lat="39.674546692783096" lon="8.491876727430784"><ele>168.0</ele><time>2026-05-01T07:08:42.999Z</time></trkpt><trkpt lat="39.67445687122896" lon="8.49185006466419"><ele>168.0</ele><time>2026-05-01T07:08:43.999Z</time></trkpt><trkpt lat="39.674355409134854" lon="8.491817430188828"><ele>168.0</ele><time>2026-05-01T07:08:44.999Z</time></trkpt><trkpt lat="39.674255427388836" lon="8.491783664153832"><ele>168.0</ele><time>2026-05-01T07:08:45.999Z</time></trkpt><trkpt lat="39.67415644336761" lon="8.491732969369549"><ele>168.0</ele><time>2026-05-01T07:08:46.999Z</time></trkpt><trkpt lat="39.674066664914406" lon="8.491679041540491"><ele>168.0</ele><time>2026-05-01T07:08:47.999Z</time></trkpt><trkpt lat="39.67400877937442" lon="8.49161801117129"><ele>168.0</ele><time>2026-05-01T07:08:48.999Z</time></trkpt><trkpt lat="39.67391943832345" lon="8.491568102128555"><ele>168.0</ele><time>2026-05-01T07:08:50.999Z</time></trkpt><trkpt lat="39.673828484819786" lon="8.491604426529065"><ele>168.0</ele><time>2026-05-01T07:08:52.999Z</time></trkpt><trkpt lat="39.67373321272932" lon="8.491718171596023"><ele>168.0</ele><time>2026-05-01T07:08:54.999Z</time></trkpt><trkpt lat="39.67368716500941" lon="8.491782763592001"><ele>168.0</ele><time>2026-05-01T07:08:55.999Z</time></trkpt><trkpt lat="39.67364430664393" lon="8.491851279300292"><ele>168.0</ele><time>2026-05-01T07:08:56.999Z</time></trkpt><trkpt lat="39.673603887003594" lon="8.491919975984494"><ele>168.0</ele><time>2026-05-01T07:08:57.999Z</time></trkpt><trkpt lat="39.673561293355505" lon="8.491992956070847"><ele>168.0</ele><time>2026-05-01T07:08:58.999Z</time></trkpt><trkpt lat="39.673515465117376" lon="8.49207699675219"><ele>168.0</ele><time>2026-05-01T07:08:59.999Z</time></trkpt><trkpt lat="39.673471401215885" lon="8.492163011981418"><ele>168.0</ele><time>2026-05-01T07:09:00.999Z</time></trkpt><trkpt lat="39.673430526522175" lon="8.49224347180132"><ele>168.0</ele><time>2026-05-01T07:09:01.999Z</time></trkpt><trkpt lat="39.67338897420868" lon="8.492325265619806"><ele>170.4</ele><time>2026-05-01T07:09:02.999Z</time></trkpt><trkpt lat="39.67334818701256" lon="8.492405133875726"><ele>172.8</ele><time>2026-05-01T07:09:03.999Z</time></trkpt><trkpt lat="39.673302856892434" lon="8.492511942111225"><ele>175.2</ele><time>2026-05-01T07:09:04.999Z</time></trkpt><trkpt lat="39.673237562399926" lon="8.492628806972029"><ele>177.6</ele><time>2026-05-01T07:09:05.999Z</time></trkpt><trkpt lat="39.67314528614106" lon="8.492700166062463"><ele>180.0</ele><time>2026-05-01T07:09:06.999Z</time></trkpt><trkpt lat="39.67305968689004" lon="8.49278419543625"><ele>180.0</ele><time>2026-05-01T07:09:07.999Z</time></trkpt><trkpt lat="39.67298576172141" lon="8.492858771622972"><ele>180.0</ele><time>2026-05-01T07:09:08.999Z</time></trkpt><trkpt lat="39.67292048391955" lon="8.492942465132781"><ele>180.0</ele><time>2026-05-01T07:09:09.999Z</time></trkpt><trkpt lat="39.672839899242064" lon="8.49300619074548"><ele>180.0</ele><time>2026-05-01T07:09:10.999Z</time></trkpt><trkpt lat="39.67275514361557" lon="8.493094877033878"><ele>180.0</ele><time>2026-05-01T07:09:11.999Z</time></trkpt><trkpt lat="39.67266790720935" lon="8.49319863898029"><ele>181.0</ele><time>2026-05-01T07:09:12.999Z</time></trkpt><trkpt lat="39.672589473707326" lon="8.493287749481636"><ele>182.0</ele><time>2026-05-01T07:09:13.999Z</time></trkpt><trkpt lat="39.6725174491322" lon="8.493373565901143"><ele>183.0</ele><time>2026-05-01T07:09:14.998Z</time></trkpt><trkpt lat="39.67246120767256" lon="8.493468509840815"><ele>184.0</ele><time>2026-05-01T07:09:15.998Z</time></trkpt><trkpt lat="39.67239486930607" lon="8.493573344223119"><ele>185.0</ele><time>2026-05-01T07:09:16.998Z</time></trkpt><trkpt lat="39.67234239263039" lon="8.493725496882133"><ele>185.66666666666666</ele><time>2026-05-01T07:09:17.998Z</time></trkpt><trkpt lat="39.672291937872764" lon="8.493902421843257"><ele>186.33333333333334</ele><time>2026-05-01T07:09:18.998Z</time></trkpt><trkpt lat="39.67223047280152" lon="8.494090352137727"><ele>187.0</ele><time>2026-05-01T07:09:19.998Z</time></trkpt><trkpt lat="39.67216235478001" lon="8.494287604342391"><ele>187.0</ele><time>2026-05-01T07:09:20.998Z</time></trkpt><trkpt lat="39.67210137602221" lon="8.4944385817172"><ele>187.0</ele><time>2026-05-01T07:09:21.998Z</time></trkpt><trkpt lat="39.672036705919254" lon="8.4945840105592"><ele>187.0</ele><time>2026-05-01T07:09:22.998Z</time></trkpt><trkpt lat="39.67196710818006" lon="8.494707096270053"><ele>187.0</ele><time>2026-05-01T07:09:23.998Z</time></trkpt><trkpt lat="39.67190574913708" lon="8.494826189060895"><ele>186.6</ele><time>2026-05-01T07:09:24.998Z</time></trkpt><trkpt lat="39.67179449095666" lon="8.494879432952054"><ele>186.2</ele><time>2026-05-01T07:09:25.998Z</time></trkpt><trkpt lat="39.67171935713862" lon="8.49497265675955"><ele>185.8</ele><time>2026-05-01T07:09:26.998Z</time></trkpt><trkpt lat="39.67166019487312" lon="8.495040643549467"><ele>185.4</ele><time>2026-05-01T07:09:27.998Z</time></trkpt><trkpt lat="39.67160628775016" lon="8.495102590492726"><ele>185.0</ele><time>2026-05-01T07:09:28.998Z</time></trkpt><trkpt lat="39.671540923653716" lon="8.495158316447306"><ele>185.33333333333331</ele><time>2026-05-01T07:09:29.998Z</time></trkpt><trkpt lat="39.67157904462074" lon="8.49544568031131"><ele>185.66666666666666</ele><time>2026-05-01T07:09:30.998Z</time></trkpt><trkpt lat="39.67150585484235" lon="8.495619454576195"><ele>186.0</ele><time>2026-05-01T07:09:31.998Z</time></trkpt><trkpt lat="39.67142453338577" lon="8.495785676843317"><ele>186.0</ele><time>2026-05-01T07:09:32.998Z</time></trkpt><trkpt lat="39.671358346069646" lon="8.495923924401813"><ele>186.0</ele><time>2026-05-01T07:09:33.998Z</time></trkpt><trkpt lat="39.67132366088742" lon="8.496069739351434"><ele>186.0</ele><time>2026-05-01T07:09:34.998Z</time></trkpt><trkpt lat="39.67132012352958" lon="8.49621466260743"><ele>186.0</ele><time>2026-05-01T07:09:35.998Z</time></trkpt><trkpt lat="39.67132240727146" lon="8.49635242958338"><ele>185.0</ele><time>2026-05-01T07:09:36.998Z</time></trkpt><trkpt lat="39.67131759273234" lon="8.496491973253601"><ele>184.0</ele><time>2026-05-01T07:09:37.998Z</time></trkpt><trkpt lat="39.67130538910135" lon="8.496633173042966"><ele>183.0</ele><time>2026-05-01T07:09:38.998Z</time></trkpt><trkpt lat="39.67127287366704" lon="8.496786451310227"><ele>182.0</ele><time>2026-05-01T07:09:39.998Z</time></trkpt><trkpt lat="39.67123138843255" lon="8.496954170777174"><ele>182.0</ele><time>2026-05-01T07:09:40.998Z</time></trkpt><trkpt lat="39.67119345065246" lon="8.497113058136579"><ele>182.0</ele><time>2026-05-01T07:09:41.998Z</time></trkpt><trkpt lat="39.67116337144406" lon="8.49727772057693"><ele>182.0</ele><time>2026-05-01T07:09:42.998Z</time></trkpt><trkpt lat="39.67113611955059" lon="8.497406700713988"><ele>182.0</ele><time>2026-05-01T07:09:43.998Z</time></trkpt><trkpt lat="39.67109935501184" lon="8.497519227685133"><ele>182.0</ele><time>2026-05-01T07:09:44.998Z</time></trkpt><trkpt lat="39.671036582610334" lon="8.497628646067337"><ele>182.0</ele><time>2026-05-01T07:09:45.998Z</time></trkpt><trkpt lat="39.67094227533154" lon="8.497742536058587"><ele>182.0</ele><time>2026-05-01T07:09:46.998Z</time></trkpt><trkpt lat="39.67084309502336" lon="8.497861775303932"><ele>182.0</ele><time>2026-05-01T07:09:47.998Z</time></trkpt><trkpt lat="39.67074417184627" lon="8.497995381890323"><ele>181.8</ele><time>2026-05-01T07:09:48.998Z</time></trkpt><trkpt lat="39.67065918353184" lon="8.498102909761934"><ele>181.6</ele><time>2026-05-01T07:09:50Z</time></trkpt><trkpt lat="39.670578381679576" lon="8.498168110497614"><ele>181.4</ele><time>2026-05-01T07:09:51Z</time></trkpt><trkpt lat="39.6704886213571" lon="8.498186719308224"><ele>181.20000000000002</ele><time>2026-05-01T07:09:52Z</time></trkpt><trkpt lat="39.67038265048213" lon="8.498182475511063"><ele>181.0</ele><time>2026-05-01T07:09:53Z</time></trkpt><trkpt lat="39.67027117496429" lon="8.498189466149249"><ele>180.5</ele><time>2026-05-01T07:09:54Z</time></trkpt><trkpt lat="39.67017905390255" lon="8.498242725355599"><ele>180.0</ele><time>2026-05-01T07:09:55Z</time></trkpt><trkpt lat="39.670083394168586" lon="8.498334300415737"><ele>179.5</ele><time>2026-05-01T07:09:56Z</time></trkpt><trkpt lat="39.66997373695895" lon="8.498413841467343"><ele>179.0</ele><time>2026-05-01T07:09:57Z</time></trkpt><trkpt lat="39.6698686933956" lon="8.49849052463656"><ele>179.0</ele><time>2026-05-01T07:09:58Z</time></trkpt><trkpt lat="39.66976988251879" lon="8.498601474452277"><ele>179.0</ele><time>2026-05-01T07:09:59Z</time></trkpt><trkpt lat="39.66965435407408" lon="8.498739042507871"><ele>179.0</ele><time>2026-05-01T07:10:00Z</time></trkpt><trkpt lat="39.66953041345076" lon="8.498855585139554"><ele>179.0</ele><time>2026-05-01T07:10:01Z</time></trkpt><trkpt lat="39.669417005785455" lon="8.49893156743134"><ele>180.0</ele><time>2026-05-01T07:10:02Z</time></trkpt><trkpt lat="39.66931303494555" lon="8.49897168386219"><ele>181.0</ele><time>2026-05-01T07:10:03Z</time></trkpt><trkpt lat="39.66921844254995" lon="8.498981266388347"><ele>182.0</ele><time>2026-05-01T07:10:04Z</time></trkpt><trkpt lat="39.669125975842476" lon="8.49900019724185"><ele>183.0</ele><time>2026-05-01T07:10:05Z</time></trkpt><trkpt lat="39.66904700806314" lon="8.499026611142849"><ele>184.0</ele><time>2026-05-01T07:10:06Z</time></trkpt><trkpt lat="39.6689888959144" lon="8.499074862995371"><ele>185.0</ele><time>2026-05-01T07:10:07Z</time></trkpt><trkpt lat="39.668945312473966" lon="8.499184736387091"><ele>185.0</ele><time>2026-05-01T07:10:08Z</time></trkpt><trkpt lat="39.66887413661107" lon="8.49930927685221"><ele>185.0</ele><time>2026-05-01T07:10:09Z</time></trkpt><trkpt lat="39.66878943981211" lon="8.49942251952227"><ele>185.0</ele><time>2026-05-01T07:10:10Z</time></trkpt><trkpt lat="39.668723919166375" lon="8.499540749720916"><ele>185.0</ele><time>2026-05-01T07:10:11Z</time></trkpt><trkpt lat="39.66865677234411" lon="8.499657366797422"><ele>186.5</ele><time>2026-05-01T07:10:12Z</time></trkpt><trkpt lat="39.66855402585855" lon="8.49976481529478"><ele>188.0</ele><time>2026-05-01T07:10:13Z</time></trkpt><trkpt lat="39.66843812813672" lon="8.499858791592589"><ele>189.5</ele><time>2026-05-01T07:10:14Z</time></trkpt><trkpt lat="39.66832393429339" lon="8.499939833434318"><ele>191.0</ele><time>2026-05-01T07:10:14.999Z</time></trkpt><trkpt lat="39.668231033850105" lon="8.500015467788213"><ele>191.0</ele><time>2026-05-01T07:10:15.999Z</time></trkpt><trkpt lat="39.668159902731624" lon="8.500090910150965"><ele>191.0</ele><time>2026-05-01T07:10:16.999Z</time></trkpt><trkpt lat="39.66810395975789" lon="8.500184846149027"><ele>191.0</ele><time>2026-05-01T07:10:17.999Z</time></trkpt><trkpt lat="39.668058599293786" lon="8.5003172196157"><ele>191.0</ele><time>2026-05-01T07:10:18.999Z</time></trkpt><trkpt lat="39.668005045288815" lon="8.500465339547347"><ele>191.0</ele><time>2026-05-01T07:10:19.999Z</time></trkpt><trkpt lat="39.66793591873842" lon="8.500578525114015"><ele>190.8</ele><time>2026-05-01T07:10:20.999Z</time></trkpt><trkpt lat="39.66786743876224" lon="8.500654228345189"><ele>190.60000000000002</ele><time>2026-05-01T07:10:21.999Z</time></trkpt><trkpt lat="39.667806775559505" lon="8.500728990909717"><ele>190.4</ele><time>2026-05-01T07:10:22.999Z</time></trkpt><trkpt lat="39.667766663172905" lon="8.500829108332146"><ele>190.2</ele><time>2026-05-01T07:10:23.999Z</time></trkpt><trkpt lat="39.667741768835725" lon="8.50095905905862"><ele>190.0</ele><time>2026-05-01T07:10:24.999Z</time></trkpt><trkpt lat="39.66772087247896" lon="8.501118000041776"><ele>192.5</ele><time>2026-05-01T07:10:25.999Z</time></trkpt><trkpt lat="39.66768166737508" lon="8.501275648185581"><ele>195.0</ele><time>2026-05-01T07:10:26.999Z</time></trkpt><trkpt lat="39.66762668239603" lon="8.501437005463533"><ele>197.5</ele><time>2026-05-01T07:10:27.999Z</time></trkpt><trkpt lat="39.66757031854613" lon="8.501575170859738"><ele>200.0</ele><time>2026-05-01T07:10:28.999Z</time></trkpt><trkpt lat="39.667509006621934" lon="8.501681296653025"><ele>200.00000000000003</ele><time>2026-05-01T07:10:29.999Z</time></trkpt><trkpt lat="39.66744207444114" lon="8.501733958058683"><ele>200.0</ele><time>2026-05-01T07:10:30.999Z</time></trkpt><trkpt lat="39.667365300186" lon="8.501750547335115"><ele>200.0</ele><time>2026-05-01T07:10:31.999Z</time></trkpt><trkpt lat="39.667291109750174" lon="8.501786528568951"><ele>200.0</ele><time>2026-05-01T07:10:32.999Z</time></trkpt><trkpt lat="39.66724049183045" lon="8.501855993521241"><ele>200.00000000000003</ele><time>2026-05-01T07:10:33.999Z</time></trkpt><trkpt lat="39.66718919105827" lon="8.50195857740548"><ele>200.0</ele><time>2026-05-01T07:10:34.999Z</time></trkpt><trkpt lat="39.66712402411219" lon="8.502057456960726"><ele>200.8</ele><time>2026-05-01T07:10:35.999Z</time></trkpt><trkpt lat="39.6670519893547" lon="8.502133129057047"><ele>201.6</ele><time>2026-05-01T07:10:36.999Z</time></trkpt><trkpt lat="39.66698489493924" lon="8.50217977903535"><ele>202.39999999999998</ele><time>2026-05-01T07:10:37.999Z</time></trkpt><trkpt lat="39.66690175662011" lon="8.502286373822326"><ele>203.2</ele><time>2026-05-01T07:10:39.999Z</time></trkpt><trkpt lat="39.66679563433597" lon="8.50236211787803"><ele>204.0</ele><time>2026-05-01T07:10:41.999Z</time></trkpt><trkpt lat="39.66670746061187" lon="8.50239020805939"><ele>202.33333333333334</ele><time>2026-05-01T07:10:42.999Z</time></trkpt><trkpt lat="39.6666082383345" lon="8.502427327841605"><ele>200.66666666666669</ele><time>2026-05-01T07:10:43.999Z</time></trkpt><trkpt lat="39.666520158548835" lon="8.50244753186355"><ele>199.0</ele><time>2026-05-01T07:10:44.999Z</time></trkpt><trkpt lat="39.666450948229915" lon="8.502449279851719"><ele>197.33333333333334</ele><time>2026-05-01T07:10:45.999Z</time></trkpt><trkpt lat="39.666358917227036" lon="8.502478288083669"><ele>195.66666666666669</ele><time>2026-05-01T07:10:47.999Z</time></trkpt><trkpt lat="39.66630183171135" lon="8.502540148087093"><ele>194.0</ele><time>2026-05-01T07:10:48.999Z</time></trkpt><trkpt lat="39.66624179975558" lon="8.50260962910944"><ele>194.00000000000003</ele><time>2026-05-01T07:10:49.999Z</time></trkpt><trkpt lat="39.6661960909649" lon="8.502681276356862"><ele>194.0</ele><time>2026-05-01T07:10:50.999Z</time></trkpt><trkpt lat="39.66611112902281" lon="8.502785726393402"><ele>194.0</ele><time>2026-05-01T07:10:52.999Z</time></trkpt><trkpt lat="39.66604361068301" lon="8.5028227247101"><ele>194.0</ele><time>2026-05-01T07:10:53.999Z</time></trkpt><trkpt lat="39.66597713202678" lon="8.502872056950553"><ele>194.00000000000003</ele><time>2026-05-01T07:10:54.999Z</time></trkpt><trkpt lat="39.66591420181623" lon="8.502916905127787"><ele>194.0</ele><time>2026-05-01T07:10:55.999Z</time></trkpt><trkpt lat="39.665847081310844" lon="8.502959951697514"><ele>196.2</ele><time>2026-05-01T07:10:56.999Z</time></trkpt><trkpt lat="39.66578189474113" lon="8.503000029230455"><ele>198.39999999999998</ele><time>2026-05-01T07:10:57.999Z</time></trkpt><trkpt lat="39.66569818257071" lon="8.503110005965395"><ele>200.6</ele><time>2026-05-01T07:10:59.999Z</time></trkpt><trkpt lat="39.665655022299106" lon="8.503178095330004"><ele>202.8</ele><time>2026-05-01T07:11:00.999Z</time></trkpt><trkpt lat="39.665592124457916" lon="8.503215142114167"><ele>205.0</ele><time>2026-05-01T07:11:01.999Z</time></trkpt><trkpt lat="39.665480153900305" lon="8.503277141317847"><ele>204.99999999999997</ele><time>2026-05-01T07:11:03.999Z</time></trkpt><trkpt lat="39.66541263580895" lon="8.503305053348928"><ele>205.0</ele><time>2026-05-01T07:11:04.999Z</time></trkpt><trkpt lat="39.66535736655347" lon="8.503362068116026"><ele>205.0</ele><time>2026-05-01T07:11:05.999Z</time></trkpt><trkpt lat="39.665301654175856" lon="8.503424914371134"><ele>205.0</ele><time>2026-05-01T07:11:06.999Z</time></trkpt><trkpt lat="39.66518904643111" lon="8.503500941647731"><ele>204.99999999999997</ele><time>2026-05-01T07:11:08.999Z</time></trkpt><trkpt lat="39.665098829530145" lon="8.50355784649611"><ele>205.0</ele><time>2026-05-01T07:11:10.999Z</time></trkpt><trkpt lat="39.66503818462152" lon="8.503593476035018"><ele>206.8</ele><time>2026-05-01T07:11:11.999Z</time></trkpt><trkpt lat="39.66491761135606" lon="8.503630801059685"><ele>208.6</ele><time>2026-05-01T07:11:13.999Z</time></trkpt><trkpt lat="39.664856113167524" lon="8.503654807731033"><ele>210.39999999999998</ele><time>2026-05-01T07:11:14.999Z</time></trkpt><trkpt lat="39.66475659402817" lon="8.503676673748917"><ele>212.2</ele><time>2026-05-01T07:11:16.998Z</time></trkpt><trkpt lat="39.66465651300716" lon="8.50373233210187"><ele>214.0</ele><time>2026-05-01T07:11:18.998Z</time></trkpt><trkpt lat="39.66458473136335" lon="8.503677854309405"><ele>214.0</ele><time>2026-05-01T07:11:20.998Z</time></trkpt><trkpt lat="39.66445709677569" lon="8.503690885628751"><ele>213.99999999999997</ele><time>2026-05-01T07:11:22.998Z</time></trkpt><trkpt lat="39.66437869755815" lon="8.503688711957622"><ele>213.99999999999997</ele><time>2026-05-01T07:11:23.998Z</time></trkpt><trkpt lat="39.66430807794515" lon="8.503695542973556"><ele>214.0</ele><time>2026-05-01T07:11:24.998Z</time></trkpt><trkpt lat="39.66423631979736" lon="8.503710634839104"><ele>214.0</ele><time>2026-05-01T07:11:25.998Z</time></trkpt><trkpt lat="39.664131179105496" lon="8.503688891486014"><ele>214.99999999999997</ele><time>2026-05-01T07:11:27.998Z</time></trkpt><trkpt lat="39.66408850844644" lon="8.50362339570679"><ele>216.0</ele><time>2026-05-01T07:11:30.998Z</time></trkpt><trkpt lat="39.66412000733416" lon="8.503533360193458"><ele>217.0</ele><time>2026-05-01T07:11:32.998Z</time></trkpt><trkpt lat="39.664154026186985" lon="8.5033831846486"><ele>218.0</ele><time>2026-05-01T07:11:34.998Z</time></trkpt><trkpt lat="39.664151533124375" lon="8.503298547734964"><ele>218.99999999999997</ele><time>2026-05-01T07:11:35.998Z</time></trkpt><trkpt lat="39.66414790033891" lon="8.503208293132921"><ele>220.0</ele><time>2026-05-01T07:11:36.998Z</time></trkpt><trkpt lat="39.6641486512908" lon="8.503117325587983"><ele>220.0</ele><time>2026-05-01T07:11:37.998Z</time></trkpt><trkpt lat="39.664149711298315" lon="8.503026150175181"><ele>220.0</ele><time>2026-05-01T07:11:38.998Z</time></trkpt><trkpt lat="39.66416369828229" lon="8.502864763465046"><ele>220.0</ele><time>2026-05-01T07:11:40.998Z</time></trkpt><trkpt lat="39.66416734827697" lon="8.502716982938807"><ele>220.0</ele><time>2026-05-01T07:11:42.998Z</time></trkpt><trkpt lat="39.66414442900434" lon="8.502635603146688"><ele>220.0</ele><time>2026-05-01T07:11:43.998Z</time></trkpt><trkpt lat="39.66413936796308" lon="8.502501045380004"><ele>221.66666666666666</ele><time>2026-05-01T07:11:45.998Z</time></trkpt><trkpt lat="39.66416540054072" lon="8.502339095563027"><ele>223.33333333333331</ele><time>2026-05-01T07:11:47.998Z</time></trkpt><trkpt lat="39.664163214215776" lon="8.50224381863073"><ele>225.0</ele><time>2026-05-01T07:11:48.998Z</time></trkpt><trkpt lat="39.66417039180025" lon="8.502132997569863"><ele>226.66666666666669</ele><time>2026-05-01T07:11:49.998Z</time></trkpt><trkpt lat="39.664180464608215" lon="8.502031712518301"><ele>228.33333333333334</ele><time>2026-05-01T07:11:50.998Z</time></trkpt><trkpt lat="39.66420113873316" lon="8.501926463226761"><ele>230.0</ele><time>2026-05-01T07:11:51.998Z</time></trkpt><trkpt lat="39.66422418025312" lon="8.501815169725997"><ele>230.50000000000003</ele><time>2026-05-01T07:11:52.998Z</time></trkpt><trkpt lat="39.664237587619034" lon="8.501712727876338"><ele>231.0</ele><time>2026-05-01T07:11:53.998Z</time></trkpt><trkpt lat="39.66426065576856" lon="8.501623290329894"><ele>231.5</ele><time>2026-05-01T07:11:54.998Z</time></trkpt><trkpt lat="39.664300988142145" lon="8.50154137907803"><ele>232.0</ele><time>2026-05-01T07:11:56Z</time></trkpt><trkpt lat="39.66433948978026" lon="8.501460476996904"><ele>232.50000000000003</ele><time>2026-05-01T07:11:57Z</time></trkpt><trkpt lat="39.66436715336386" lon="8.50137301345957"><ele>233.0</ele><time>2026-05-01T07:11:58Z</time></trkpt><trkpt lat="39.664381476419756" lon="8.50127111485052"><ele>232.16666666666669</ele><time>2026-05-01T07:11:59Z</time></trkpt><trkpt lat="39.66440168084862" lon="8.501158785764206"><ele>231.33333333333334</ele><time>2026-05-01T07:12:00Z</time></trkpt><trkpt lat="39.6644276505533" lon="8.501043048275115"><ele>230.5</ele><time>2026-05-01T07:12:01Z</time></trkpt><trkpt lat="39.664453694109774" lon="8.500943278149162"><ele>229.66666666666669</ele><time>2026-05-01T07:12:02Z</time></trkpt><trkpt lat="39.66447085841357" lon="8.500826832092196"><ele>228.83333333333334</ele><time>2026-05-01T07:12:03Z</time></trkpt><trkpt lat="39.664488575713605" lon="8.500715421039994"><ele>228.0</ele><time>2026-05-01T07:12:04Z</time></trkpt><trkpt lat="39.66451250196423" lon="8.500597698318373"><ele>228.16666666666666</ele><time>2026-05-01T07:12:05Z</time></trkpt><trkpt lat="39.66453584982831" lon="8.500491858046118"><ele>228.33333333333331</ele><time>2026-05-01T07:12:06Z</time></trkpt><trkpt lat="39.66456780204071" lon="8.500387468527371"><ele>228.5</ele><time>2026-05-01T07:12:07Z</time></trkpt><trkpt lat="39.66460703259332" lon="8.500275761245376"><ele>228.66666666666666</ele><time>2026-05-01T07:12:08Z</time></trkpt><trkpt lat="39.664647138323296" lon="8.500183967905093"><ele>228.83333333333331</ele><time>2026-05-01T07:12:09Z</time></trkpt><trkpt lat="39.66467355370211" lon="8.500077519185378"><ele>229.0</ele><time>2026-05-01T07:12:10Z</time></trkpt><trkpt lat="39.66468793193284" lon="8.499954586626684"><ele>229.0</ele><time>2026-05-01T07:12:11Z</time></trkpt><trkpt lat="39.66469606660986" lon="8.499819867863613"><ele>228.99999999999997</ele><time>2026-05-01T07:12:12Z</time></trkpt><trkpt lat="39.66469977913609" lon="8.499690719946045"><ele>228.99999999999997</ele><time>2026-05-01T07:12:13Z</time></trkpt><trkpt lat="39.66470565345941" lon="8.499581356159057"><ele>229.0</ele><time>2026-05-01T07:12:14Z</time></trkpt><trkpt lat="39.66471575427064" lon="8.499473133624239"><ele>229.0</ele><time>2026-05-01T07:12:15Z</time></trkpt><trkpt lat="39.66472590498989" lon="8.499372284348404"><ele>229.66666666666666</ele><time>2026-05-01T07:12:16Z</time></trkpt><trkpt lat="39.66472525731206" lon="8.499269604905358"><ele>230.33333333333331</ele><time>2026-05-01T07:12:17Z</time></trkpt><trkpt lat="39.664722870501826" lon="8.49916351597437"><ele>231.0</ele><time>2026-05-01T07:12:18Z</time></trkpt><trkpt lat="39.664720104994224" lon="8.49905372927507"><ele>231.66666666666669</ele><time>2026-05-01T07:12:18.999Z</time></trkpt><trkpt lat="39.66470119794931" lon="8.498942975216908"><ele>232.33333333333334</ele><time>2026-05-01T07:12:19.999Z</time></trkpt><trkpt lat="39.664676455967594" lon="8.49882378506647"><ele>233.0</ele><time>2026-05-01T07:12:20.999Z</time></trkpt><trkpt lat="39.664650489400344" lon="8.49868712167216"><ele>233.4</ele><time>2026-05-01T07:12:21.999Z</time></trkpt><trkpt lat="39.66462469285266" lon="8.498554405196916"><ele>233.8</ele><time>2026-05-01T07:12:22.999Z</time></trkpt><trkpt lat="39.66460946006161" lon="8.49843625338027"><ele>234.2</ele><time>2026-05-01T07:12:23.999Z</time></trkpt><trkpt lat="39.66459522100525" lon="8.498318857487119"><ele>234.6</ele><time>2026-05-01T07:12:24.999Z</time></trkpt><trkpt lat="39.66456637257507" lon="8.498206699624845"><ele>235.0</ele><time>2026-05-01T07:12:25.999Z</time></trkpt><trkpt lat="39.664532218224004" lon="8.498119609485482"><ele>235.0</ele><time>2026-05-01T07:12:26.999Z</time></trkpt><trkpt lat="39.66447670329811" lon="8.49801666522018"><ele>235.0</ele><time>2026-05-01T07:12:28.999Z</time></trkpt><trkpt lat="39.66440455483986" lon="8.497970050321443"><ele>235.0</ele><time>2026-05-01T07:12:30.999Z</time></trkpt><trkpt lat="39.664301269429316" lon="8.497898526483016"><ele>235.0</ele><time>2026-05-01T07:12:32.999Z</time></trkpt><trkpt lat="39.6642074386744" lon="8.497790876963263"><ele>235.0</ele><time>2026-05-01T07:12:34.999Z</time></trkpt><trkpt lat="39.664168994795034" lon="8.497726080490283"><ele>235.33333333333331</ele><time>2026-05-01T07:12:35.999Z</time></trkpt><trkpt lat="39.66413547196429" lon="8.497654962689444"><ele>235.66666666666666</ele><time>2026-05-01T07:12:36.999Z</time></trkpt><trkpt lat="39.66408839043935" lon="8.497582960673588"><ele>236.0</ele><time>2026-05-01T07:12:37.999Z</time></trkpt><trkpt lat="39.664027812629065" lon="8.497508440502902"><ele>236.33333333333331</ele><time>2026-05-01T07:12:38.999Z</time></trkpt><trkpt lat="39.66396853790507" lon="8.49743448364951"><ele>236.66666666666666</ele><time>2026-05-01T07:12:39.999Z</time></trkpt><trkpt lat="39.66391947505838" lon="8.497377771302045"><ele>237.0</ele><time>2026-05-01T07:12:40.999Z</time></trkpt><trkpt lat="39.66381595908001" lon="8.497262318818919"><ele>237.0</ele><time>2026-05-01T07:12:42.999Z</time></trkpt><trkpt lat="39.663763714089995" lon="8.49719819629489"><ele>237.0</ele><time>2026-05-01T07:12:43.999Z</time></trkpt><trkpt lat="39.663718636613446" lon="8.497139299118144"><ele>237.0</ele><time>2026-05-01T07:12:44.999Z</time></trkpt><trkpt lat="39.66376703965676" lon="8.497080218967298"><ele>237.0</ele><time>2026-05-01T07:12:51.999Z</time></trkpt><trkpt lat="39.66382880116306" lon="8.497052226768622"><ele>237.0</ele><time>2026-05-01T07:12:54.999Z</time></trkpt><trkpt lat="39.66388750210949" lon="8.496911562149457"><ele>237.0</ele><time>2026-05-01T07:12:56.999Z</time></trkpt><trkpt lat="39.663924995929754" lon="8.496801405829125"><ele>235.39999999999998</ele><time>2026-05-01T07:12:58.999Z</time></trkpt><trkpt lat="39.66393153825148" lon="8.496682310284331"><ele>233.79999999999998</ele><time>2026-05-01T07:13:00.999Z</time></trkpt><trkpt lat="39.66393869383138" lon="8.496580376447945"><ele>232.2</ele><time>2026-05-01T07:13:02.999Z</time></trkpt><trkpt lat="39.663969630051334" lon="8.496475899506695"><ele>230.6</ele><time>2026-05-01T07:13:04.999Z</time></trkpt><trkpt lat="39.663992065671124" lon="8.49632751113343"><ele>229.0</ele><time>2026-05-01T07:13:06.999Z</time></trkpt><trkpt lat="39.66401412583314" lon="8.496158447426643"><ele>227.49999999999997</ele><time>2026-05-01T07:13:08.999Z</time></trkpt><trkpt lat="39.664059526645936" lon="8.496015693267395"><ele>226.0</ele><time>2026-05-01T07:13:10.999Z</time></trkpt><trkpt lat="39.66410379914147" lon="8.495923909365104"><ele>224.5</ele><time>2026-05-01T07:13:12.999Z</time></trkpt><trkpt lat="39.66415534771431" lon="8.49584598194284"><ele>223.0</ele><time>2026-05-01T07:13:15.999Z</time></trkpt><trkpt lat="39.66421356592202" lon="8.495771605372855"><ele>221.49999999999997</ele><time>2026-05-01T07:13:17.999Z</time></trkpt><trkpt lat="39.66426634418313" lon="8.495708270809429"><ele>220.0</ele><time>2026-05-01T07:13:19.999Z</time></trkpt><trkpt lat="39.66431602463871" lon="8.495614756307733"><ele>219.99999999999997</ele><time>2026-05-01T07:13:21.999Z</time></trkpt><trkpt lat="39.66437975838581" lon="8.495526769823282"><ele>220.0</ele><time>2026-05-01T07:13:24.998Z</time></trkpt><trkpt lat="39.66443816650997" lon="8.49542871054148"><ele>220.0</ele><time>2026-05-01T07:13:26.998Z</time></trkpt><trkpt lat="39.66443080496875" lon="8.49534714653636"><ele>220.0</ele><time>2026-05-01T07:13:28.998Z</time></trkpt><trkpt lat="39.66442896260788" lon="8.495258727779019"><ele>219.99999999999997</ele><time>2026-05-01T07:13:29.998Z</time></trkpt><trkpt lat="39.664472581506146" lon="8.495109728986176"><ele>220.0</ele><time>2026-05-01T07:13:31.998Z</time></trkpt><trkpt lat="39.66450974255707" lon="8.495000208637546"><ele>217.83333333333331</ele><time>2026-05-01T07:13:32.998Z</time></trkpt><trkpt lat="39.664537197624604" lon="8.494891190057194"><ele>215.66666666666666</ele><time>2026-05-01T07:13:33.998Z</time></trkpt><trkpt lat="39.66453320792471" lon="8.494785857088829"><ele>213.5</ele><time>2026-05-01T07:13:34.998Z</time></trkpt><trkpt lat="39.66453285194527" lon="8.494692481851528"><ele>211.33333333333331</ele><time>2026-05-01T07:13:35.998Z</time></trkpt><trkpt lat="39.664553479720674" lon="8.494569666371666"><ele>209.16666666666666</ele><time>2026-05-01T07:13:37.998Z</time></trkpt><trkpt lat="39.66457704782149" lon="8.494480635723146"><ele>207.0</ele><time>2026-05-01T07:13:38.998Z</time></trkpt><trkpt lat="39.66459215346845" lon="8.494374824821438"><ele>207.0</ele><time>2026-05-01T07:13:39.998Z</time></trkpt><trkpt lat="39.664591405195374" lon="8.494268343277387"><ele>207.0</ele><time>2026-05-01T07:13:40.998Z</time></trkpt><trkpt lat="39.664544624874814" lon="8.49410867929858"><ele>207.0</ele><time>2026-05-01T07:13:42.998Z</time></trkpt><trkpt lat="39.664524958026504" lon="8.494010825818659"><ele>207.0</ele><time>2026-05-01T07:13:43.998Z</time></trkpt><trkpt lat="39.66452326204959" lon="8.493901289192372"><ele>207.0</ele><time>2026-05-01T07:13:44.998Z</time></trkpt><trkpt lat="39.664515032204385" lon="8.493797131931133"><ele>206.39999999999998</ele><time>2026-05-01T07:13:45.998Z</time></trkpt><trkpt lat="39.664486152477515" lon="8.493704261449215"><ele>205.79999999999998</ele><time>2026-05-01T07:13:46.998Z</time></trkpt><trkpt lat="39.66444824488594" lon="8.493623972194346"><ele>205.2</ele><time>2026-05-01T07:13:47.998Z</time></trkpt><trkpt lat="39.664422164344714" lon="8.493540623378415"><ele>204.6</ele><time>2026-05-01T07:13:48.998Z</time></trkpt><trkpt lat="39.664407580993384" lon="8.493401502571482"><ele>204.0</ele><time>2026-05-01T07:13:50.998Z</time></trkpt><trkpt lat="39.66441324937959" lon="8.493219024206542"><ele>204.0</ele><time>2026-05-01T07:13:52.998Z</time></trkpt><trkpt lat="39.66440154373871" lon="8.493124629248607"><ele>204.0</ele><time>2026-05-01T07:13:53.998Z</time></trkpt><trkpt lat="39.66436194800728" lon="8.492975693278282"><ele>204.0</ele><time>2026-05-01T07:13:55.998Z</time></trkpt><trkpt lat="39.664328326366714" lon="8.49289271124745"><ele>204.0</ele><time>2026-05-01T07:13:56.998Z</time></trkpt><trkpt lat="39.664290371609866" lon="8.492813361914168"><ele>204.0</ele><time>2026-05-01T07:13:57.998Z</time></trkpt><trkpt lat="39.66425338188235" lon="8.49273982661546"><ele>204.0</ele><time>2026-05-01T07:13:58.998Z</time></trkpt><trkpt lat="39.66423321283869" lon="8.492623317176001"><ele>203.0</ele><time>2026-05-01T07:14:00.998Z</time></trkpt><trkpt lat="39.66429412261826" lon="8.49249677157352"><ele>202.0</ele><time>2026-05-01T07:14:03Z</time></trkpt><trkpt lat="39.664336838614204" lon="8.492402164343844"><ele>201.0</ele><time>2026-05-01T07:14:05Z</time></trkpt><trkpt lat="39.66433682158252" lon="8.492292107340704"><ele>200.0</ele><time>2026-05-01T07:14:08Z</time></trkpt><trkpt lat="39.66429869879908" lon="8.492186375511618"><ele>199.0</ele><time>2026-05-01T07:14:10Z</time></trkpt><trkpt lat="39.66424682361007" lon="8.492128542386386"><ele>198.0</ele><time>2026-05-01T07:14:13Z</time></trkpt><trkpt lat="39.66422568608519" lon="8.492043884721802"><ele>197.0</ele><time>2026-05-01T07:14:14Z</time></trkpt><trkpt lat="39.66421839578795" lon="8.491947132887816"><ele>196.0</ele><time>2026-05-01T07:14:15Z</time></trkpt><trkpt lat="39.66418153630508" lon="8.491801811646289"><ele>195.0</ele><time>2026-05-01T07:14:17Z</time></trkpt><trkpt lat="39.66418732450622" lon="8.491695492959547"><ele>194.0</ele><time>2026-05-01T07:14:19Z</time></trkpt><trkpt lat="39.664248644421825" lon="8.491633293553095"><ele>193.0</ele><time>2026-05-01T07:14:21Z</time></trkpt><trkpt lat="39.664286137921046" lon="8.491506822234802"><ele>193.0</ele><time>2026-05-01T07:14:22.999Z</time></trkpt><trkpt lat="39.664268766244795" lon="8.491393255317753"><ele>193.0</ele><time>2026-05-01T07:14:24.999Z</time></trkpt><trkpt lat="39.66426074188266" lon="8.491266670547034"><ele>193.0</ele><time>2026-05-01T07:14:26.999Z</time></trkpt><trkpt lat="39.66420983256866" lon="8.49113423899069"><ele>193.0</ele><time>2026-05-01T07:14:28.999Z</time></trkpt><trkpt lat="39.66417399511489" lon="8.491018371919585"><ele>193.0</ele><time>2026-05-01T07:14:30.999Z</time></trkpt><trkpt lat="39.664187323866834" lon="8.490904384569596"><ele>190.99999999999997</ele><time>2026-05-01T07:14:32.999Z</time></trkpt><trkpt lat="39.66419438784195" lon="8.49079196636458"><ele>189.0</ele><time>2026-05-01T07:14:34.999Z</time></trkpt><trkpt lat="39.66413776449505" lon="8.49066939258215"><ele>187.0</ele><time>2026-05-01T07:14:36.999Z</time></trkpt><trkpt lat="39.66409087874586" lon="8.490547458300501"><ele>185.0</ele><time>2026-05-01T07:14:38.999Z</time></trkpt><trkpt lat="39.66407462348195" lon="8.49046822106313"><ele>183.0</ele><time>2026-05-01T07:14:39.999Z</time></trkpt><trkpt lat="39.66406353537924" lon="8.490387265152277"><ele>181.0</ele><time>2026-05-01T07:14:40.999Z</time></trkpt><trkpt lat="39.66404558779295" lon="8.490244760485878"><ele>176.75</ele><time>2026-05-01T07:14:42.999Z</time></trkpt><trkpt lat="39.66402930774742" lon="8.490109320100723"><ele>172.5</ele><time>2026-05-01T07:14:44.999Z</time></trkpt><trkpt lat="39.66400837811626" lon="8.489963579450531"><ele>168.25</ele><time>2026-05-01T07:14:46.999Z</time></trkpt><trkpt lat="39.66398977946453" lon="8.489810043065436"><ele>164.0</ele><time>2026-05-01T07:14:48.999Z</time></trkpt><trkpt lat="39.66396694036627" lon="8.48965883807978"><ele>160.79999999999998</ele><time>2026-05-01T07:14:50.999Z</time></trkpt><trkpt lat="39.663942890627474" lon="8.489515305323325"><ele>157.6</ele><time>2026-05-01T07:14:52.999Z</time></trkpt><trkpt lat="39.663921544507154" lon="8.489377739384777"><ele>154.4</ele><time>2026-05-01T07:14:54.999Z</time></trkpt><trkpt lat="39.66390520302327" lon="8.48926705301547"><ele>151.2</ele><time>2026-05-01T07:14:56.999Z</time></trkpt><trkpt lat="39.663895683383736" lon="8.48916433999608"><ele>148.0</ele><time>2026-05-01T07:14:58.999Z</time></trkpt><trkpt lat="39.66388477022664" lon="8.489059593617029"><ele>148.0</ele><time>2026-05-01T07:15:03.999Z</time></trkpt><trkpt lat="39.66384568207124" lon="8.488965372482257"><ele>148.0</ele><time>2026-05-01T07:15:06.999Z</time></trkpt><trkpt lat="39.66383730128099" lon="8.48887410456317"><ele>148.0</ele><time>2026-05-01T07:15:08.999Z</time></trkpt><trkpt lat="39.66389975032516" lon="8.488824045711594"><ele>148.0</ele><time>2026-05-01T07:15:11.999Z</time></trkpt><trkpt lat="39.66396294120468" lon="8.48880734153187"><ele>148.0</ele><time>2026-05-01T07:15:12.999Z</time></trkpt><trkpt lat="39.6640393893103" lon="8.488783704750402"><ele>148.0</ele><time>2026-05-01T07:15:14.999Z</time></trkpt><trkpt lat="39.66410549544937" lon="8.488748289478297"><ele>148.0</ele><time>2026-05-01T07:15:15.999Z</time></trkpt><trkpt lat="39.66419674659248" lon="8.488683147043082"><ele>145.6</ele><time>2026-05-01T07:15:17.999Z</time></trkpt><trkpt lat="39.66431412440582" lon="8.48866826987814"><ele>143.20000000000002</ele><time>2026-05-01T07:15:19.999Z</time></trkpt><trkpt lat="39.66441816836947" lon="8.488651197577967"><ele>140.8</ele><time>2026-05-01T07:15:21.999Z</time></trkpt><trkpt lat="39.664516948628055" lon="8.488680751885354"><ele>138.4</ele><time>2026-05-01T07:15:26.998Z</time></trkpt><trkpt lat="39.66456273455456" lon="8.488744004014801"><ele>136.0</ele><time>2026-05-01T07:15:28.998Z</time></trkpt><trkpt lat="39.664625302879976" lon="8.488732074495447"><ele>136.0</ele><time>2026-05-01T07:15:30.998Z</time></trkpt><trkpt lat="39.66471939147611" lon="8.48877835795386"><ele>136.0</ele><time>2026-05-01T07:15:32.998Z</time></trkpt><trkpt lat="39.66478902249747" lon="8.488824399238982"><ele>136.0</ele><time>2026-05-01T07:15:34.998Z</time></trkpt><trkpt lat="39.66484870349709" lon="8.488892550512956"><ele>136.0</ele><time>2026-05-01T07:15:36.998Z</time></trkpt><trkpt lat="39.664943019846596" lon="8.48888292652909"><ele>136.0</ele><time>2026-05-01T07:15:40.998Z</time></trkpt><trkpt lat="39.66502503159346" lon="8.488846785069311"><ele>136.0</ele><time>2026-05-01T07:15:43.998Z</time></trkpt><trkpt lat="39.6650391555318" lon="8.48874078298077"><ele>136.0</ele><time>2026-05-01T07:15:45.998Z</time></trkpt><trkpt lat="39.66505245289095" lon="8.48863659320668"><ele>136.0</ele><time>2026-05-01T07:15:47.998Z</time></trkpt><trkpt lat="39.66511268859196" lon="8.488553608682505"><ele>136.0</ele><time>2026-05-01T07:15:50.998Z</time></trkpt><trkpt lat="39.66520526919913" lon="8.488514138994198"><ele>136.0</ele><time>2026-05-01T07:15:52.998Z</time></trkpt><trkpt lat="39.665251819121686" lon="8.48841274770125"><ele>136.0</ele><time>2026-05-01T07:15:54.998Z</time></trkpt><trkpt lat="39.66531455772797" lon="8.488402675916982"><ele>136.0</ele><time>2026-05-01T07:15:55.998Z</time></trkpt><trkpt lat="39.665432299852576" lon="8.488371376152466"><ele>136.2</ele><time>2026-05-01T07:15:57.998Z</time></trkpt><trkpt lat="39.66551359578868" lon="8.488245727820729"><ele>136.39999999999998</ele><time>2026-05-01T07:15:59.998Z</time></trkpt><trkpt lat="39.66555550963688" lon="8.488141583755754"><ele>136.6</ele><time>2026-05-01T07:16:00.998Z</time></trkpt><trkpt lat="39.66561097432509" lon="8.488032841796382"><ele>136.79999999999998</ele><time>2026-05-01T07:16:01.998Z</time></trkpt><trkpt lat="39.6656693349846" lon="8.487909848254937"><ele>137.0</ele><time>2026-05-01T07:16:02.998Z</time></trkpt><trkpt lat="39.66571774525436" lon="8.487825054811902"><ele>135.2</ele><time>2026-05-01T07:16:03.998Z</time></trkpt><trkpt lat="39.66576545920098" lon="8.487768051625268"><ele>133.39999999999998</ele><time>2026-05-01T07:16:04.998Z</time></trkpt><trkpt lat="39.665756188129215" lon="8.487625065546618"><ele>131.60000000000002</ele><time>2026-05-01T07:16:06.998Z</time></trkpt><trkpt lat="39.66573146062732" lon="8.48747489727047"><ele>129.8</ele><time>2026-05-01T07:16:09Z</time></trkpt><trkpt lat="39.665726671572976" lon="8.48738457407442"><ele>128.0</ele><time>2026-05-01T07:16:10Z</time></trkpt><trkpt lat="39.66571981711244" lon="8.487268694635352"><ele>128.0</ele><time>2026-05-01T07:16:11Z</time></trkpt><trkpt lat="39.665710834587834" lon="8.487138245883383"><ele>128.0</ele><time>2026-05-01T07:16:12Z</time></trkpt><trkpt lat="39.665711661105" lon="8.486969008913197"><ele>128.0</ele><time>2026-05-01T07:16:13Z</time></trkpt><trkpt lat="39.66569148071249" lon="8.486825745694183"><ele>128.0</ele><time>2026-05-01T07:16:14Z</time></trkpt><trkpt lat="39.66571132473314" lon="8.486699985981675"><ele>128.0</ele><time>2026-05-01T07:16:15Z</time></trkpt><trkpt lat="39.665729148383015" lon="8.486572114896509"><ele>126.0</ele><time>2026-05-01T07:16:16Z</time></trkpt><trkpt lat="39.66576803594572" lon="8.486454651828229"><ele>124.00000000000001</ele><time>2026-05-01T07:16:17Z</time></trkpt><trkpt lat="39.66581386143332" lon="8.486348977663141"><ele>122.00000000000001</ele><time>2026-05-01T07:16:18Z</time></trkpt><trkpt lat="39.665876941087674" lon="8.486263927132233"><ele>120.0</ele><time>2026-05-01T07:16:19Z</time></trkpt><trkpt lat="39.66594138994104" lon="8.486162638151438"><ele>118.0</ele><time>2026-05-01T07:16:20Z</time></trkpt><trkpt lat="39.66602860846603" lon="8.486089100552858"><ele>117.75</ele><time>2026-05-01T07:16:21Z</time></trkpt><trkpt lat="39.66609003946293" lon="8.485992868323644"><ele>117.5</ele><time>2026-05-01T07:16:22Z</time></trkpt><trkpt lat="39.66611217522972" lon="8.485859201462917"><ele>117.25</ele><time>2026-05-01T07:16:23Z</time></trkpt><trkpt lat="39.666110473768136" lon="8.485710781333488"><ele>117.0</ele><time>2026-05-01T07:16:24Z</time></trkpt><trkpt lat="39.66611303745726" lon="8.485535277479904"><ele>119.33333333333334</ele><time>2026-05-01T07:16:25Z</time></trkpt><trkpt lat="39.66608675077651" lon="8.485336511773676"><ele>121.66666666666667</ele><time>2026-05-01T07:16:26Z</time></trkpt><trkpt lat="39.66607745447148" lon="8.4851279857601"><ele>124.0</ele><time>2026-05-01T07:16:26.999Z</time></trkpt><trkpt lat="39.66607405371526" lon="8.484913084262253"><ele>124.0</ele><time>2026-05-01T07:16:27.999Z</time></trkpt><trkpt lat="39.66606536456082" lon="8.484718337468847"><ele>124.0</ele><time>2026-05-01T07:16:28.999Z</time></trkpt><trkpt lat="39.666033986380626" lon="8.484553333254564"><ele>124.0</ele><time>2026-05-01T07:16:29.999Z</time></trkpt><trkpt lat="39.666042031001496" lon="8.484374826233744"><ele>124.0</ele><time>2026-05-01T07:16:30.999Z</time></trkpt><trkpt lat="39.66604607944665" lon="8.484171158608378"><ele>123.75</ele><time>2026-05-01T07:16:31.999Z</time></trkpt><trkpt lat="39.666042362107966" lon="8.483974814930244"><ele>123.5</ele><time>2026-05-01T07:16:32.999Z</time></trkpt><trkpt lat="39.66606132637714" lon="8.483801880299355"><ele>123.25</ele><time>2026-05-01T07:16:33.999Z</time></trkpt><trkpt lat="39.66612099141766" lon="8.483638480919259"><ele>123.0</ele><time>2026-05-01T07:16:34.999Z</time></trkpt><trkpt lat="39.666161583730485" lon="8.483459057232423"><ele>117.25</ele><time>2026-05-01T07:16:35.999Z</time></trkpt><trkpt lat="39.66617204915727" lon="8.483273939619066"><ele>111.5</ele><time>2026-05-01T07:16:36.999Z</time></trkpt><trkpt lat="39.6661880922613" lon="8.483091740870691"><ele>105.75</ele><time>2026-05-01T07:16:37.999Z</time></trkpt><trkpt lat="39.66617987632457" lon="8.482912007403261"><ele>100.0</ele><time>2026-05-01T07:16:38.999Z</time></trkpt><trkpt lat="39.66616009245628" lon="8.482726516525672"><ele>100.0</ele><time>2026-05-01T07:16:39.999Z</time></trkpt><trkpt lat="39.666129453659444" lon="8.48253215193593"><ele>100.0</ele><time>2026-05-01T07:16:40.999Z</time></trkpt><trkpt lat="39.666103066481256" lon="8.48232221596383"><ele>100.0</ele><time>2026-05-01T07:16:41.999Z</time></trkpt><trkpt lat="39.66606985920796" lon="8.482119354544807"><ele>103.5</ele><time>2026-05-01T07:16:42.999Z</time></trkpt><trkpt lat="39.666042079463764" lon="8.481928045745345"><ele>107.0</ele><time>2026-05-01T07:16:43.999Z</time></trkpt><trkpt lat="39.66602075212067" lon="8.481768685271753"><ele>110.5</ele><time>2026-05-01T07:16:44.999Z</time></trkpt><trkpt lat="39.66601308472799" lon="8.481613297365959"><ele>114.0</ele><time>2026-05-01T07:16:45.999Z</time></trkpt><trkpt lat="39.6660232385969" lon="8.481440882238811"><ele>113.0</ele><time>2026-05-01T07:16:46.999Z</time></trkpt><trkpt lat="39.66603143912886" lon="8.481245880633123"><ele>112.0</ele><time>2026-05-01T07:16:47.999Z</time></trkpt><trkpt lat="39.66603819603432" lon="8.481021052706616"><ele>111.0</ele><time>2026-05-01T07:16:48.999Z</time></trkpt><trkpt lat="39.666037978842276" lon="8.480759179859616"><ele>111.0</ele><time>2026-05-01T07:16:49.999Z</time></trkpt><trkpt lat="39.66602603575487" lon="8.480507032691648"><ele>111.0</ele><time>2026-05-01T07:16:50.999Z</time></trkpt><trkpt lat="39.66600781448084" lon="8.480258170499104"><ele>111.0</ele><time>2026-05-01T07:16:51.999Z</time></trkpt><trkpt lat="39.66598852884615" lon="8.47997860895398"><ele>109.66666666666666</ele><time>2026-05-01T07:16:52.999Z</time></trkpt><trkpt lat="39.665999264395474" lon="8.479731158093983"><ele>108.33333333333333</ele><time>2026-05-01T07:16:53.999Z</time></trkpt><trkpt lat="39.66599906211624" lon="8.479526878430041"><ele>107.0</ele><time>2026-05-01T07:16:54.999Z</time></trkpt><trkpt lat="39.665983104771286" lon="8.479324071766273"><ele>106.75</ele><time>2026-05-01T07:16:55.999Z</time></trkpt><trkpt lat="39.665982131972505" lon="8.479133057581292"><ele>106.5</ele><time>2026-05-01T07:16:56.999Z</time></trkpt><trkpt lat="39.66597627650197" lon="8.478965217963156"><ele>106.25</ele><time>2026-05-01T07:16:57.999Z</time></trkpt><trkpt lat="39.665976279437615" lon="8.478810533823237"><ele>106.0</ele><time>2026-05-01T07:16:58.999Z</time></trkpt><trkpt lat="39.66598563735793" lon="8.478672837918428"><ele>105.5</ele><time>2026-05-01T07:16:59.999Z</time></trkpt><trkpt lat="39.66603257366397" lon="8.478557019269186"><ele>105.0</ele><time>2026-05-01T07:17:00.999Z</time></trkpt><trkpt lat="39.666084968437104" lon="8.478432778742876"><ele>104.5</ele><time>2026-05-01T07:17:01.999Z</time></trkpt><trkpt lat="39.66613673288965" lon="8.478280164251945"><ele>104.0</ele><time>2026-05-01T07:17:02.999Z</time></trkpt><trkpt lat="39.66618545589783" lon="8.47811316603248"><ele>99.25</ele><time>2026-05-01T07:17:03.999Z</time></trkpt><trkpt lat="39.66619703260968" lon="8.477943729026872"><ele>94.5</ele><time>2026-05-01T07:17:04.999Z</time></trkpt><trkpt lat="39.66624261859109" lon="8.477790615806432"><ele>89.75</ele><time>2026-05-01T07:17:05.999Z</time></trkpt><trkpt lat="39.666263100492294" lon="8.47764664628159"><ele>85.0</ele><time>2026-05-01T07:17:06.999Z</time></trkpt><trkpt lat="39.66625969758913" lon="8.477497046161208"><ele>84.0</ele><time>2026-05-01T07:17:07.999Z</time></trkpt><trkpt lat="39.66628303947713" lon="8.477337549386274"><ele>83.0</ele><time>2026-05-01T07:17:08.999Z</time></trkpt><trkpt lat="39.666283778518306" lon="8.477173957710669"><ele>82.0</ele><time>2026-05-01T07:17:09.999Z</time></trkpt><trkpt lat="39.66629124690552" lon="8.477033183323027"><ele>81.0</ele><time>2026-05-01T07:17:10.999Z</time></trkpt><trkpt lat="39.666332188775606" lon="8.476909798690752"><ele>79.5</ele><time>2026-05-01T07:17:11.999Z</time></trkpt><trkpt lat="39.66639526246235" lon="8.476760133570947"><ele>78.0</ele><time>2026-05-01T07:17:12.999Z</time></trkpt><trkpt lat="39.66642522688454" lon="8.476591159503048"><ele>76.5</ele><time>2026-05-01T07:17:13.999Z</time></trkpt><trkpt lat="39.66646623089606" lon="8.476408811969524"><ele>75.0</ele><time>2026-05-01T07:17:14.999Z</time></trkpt><trkpt lat="39.66649977037558" lon="8.476202412081658"><ele>73.0</ele><time>2026-05-01T07:17:15.999Z</time></trkpt><trkpt lat="39.66657917386166" lon="8.476025640836884"><ele>71.0</ele><time>2026-05-01T07:17:16.999Z</time></trkpt><trkpt lat="39.66666917498363" lon="8.475815733497855"><ele>69.0</ele><time>2026-05-01T07:17:17.999Z</time></trkpt><trkpt lat="39.66671060920723" lon="8.475592774128605"><ele>68.25</ele><time>2026-05-01T07:17:18.999Z</time></trkpt><trkpt lat="39.66675286961706" lon="8.475394766182045"><ele>67.5</ele><time>2026-05-01T07:17:19.999Z</time></trkpt><trkpt lat="39.6668158521431" lon="8.475238680908951"><ele>66.75</ele><time>2026-05-01T07:17:20.999Z</time></trkpt><trkpt lat="39.666858842523396" lon="8.475069764077038"><ele>66.0</ele><time>2026-05-01T07:17:21.999Z</time></trkpt><trkpt lat="39.66691206139842" lon="8.474894018544568"><ele>66.0</ele><time>2026-05-01T07:17:22.999Z</time></trkpt><trkpt lat="39.66693518093251" lon="8.474716603882856"><ele>66.0</ele><time>2026-05-01T07:17:23.999Z</time></trkpt><trkpt lat="39.66697200078431" lon="8.474580057042399"><ele>66.0</ele><time>2026-05-01T07:17:24.999Z</time></trkpt><trkpt lat="39.6669653091923" lon="8.474445256738758"><ele>66.0</ele><time>2026-05-01T07:17:25.999Z</time></trkpt><trkpt lat="39.66693873764944" lon="8.474304268933563"><ele>65.5</ele><time>2026-05-01T07:17:26.999Z</time></trkpt><trkpt lat="39.66692904560562" lon="8.474149552328315"><ele>65.0</ele><time>2026-05-01T07:17:27.999Z</time></trkpt><trkpt lat="39.666916817809806" lon="8.473995625755206"><ele>64.5</ele><time>2026-05-01T07:17:28.998Z</time></trkpt><trkpt lat="39.66692654831372" lon="8.473855073400959"><ele>64.0</ele><time>2026-05-01T07:17:29.998Z</time></trkpt><trkpt lat="39.666947566744334" lon="8.473719862229828"><ele>62.6</ele><time>2026-05-01T07:17:30.998Z</time></trkpt><trkpt lat="39.666954062233074" lon="8.473589345651563"><ele>61.2</ele><time>2026-05-01T07:17:31.998Z</time></trkpt><trkpt lat="39.66692858187002" lon="8.473456000638604"><ele>59.800000000000004</ele><time>2026-05-01T07:17:32.998Z</time></trkpt><trkpt lat="39.66690898152123" lon="8.473322183779953"><ele>58.400000000000006</ele><time>2026-05-01T07:17:33.998Z</time></trkpt><trkpt lat="39.666893686277774" lon="8.473195623005395"><ele>57.0</ele><time>2026-05-01T07:17:34.998Z</time></trkpt><trkpt lat="39.66688517565072" lon="8.473084790382034"><ele>57.0</ele><time>2026-05-01T07:17:35.998Z</time></trkpt><trkpt lat="39.66688217250841" lon="8.472993736857031"><ele>57.0</ele><time>2026-05-01T07:17:36.998Z</time></trkpt><trkpt lat="39.66688512944087" lon="8.472905795337022"><ele>57.0</ele><time>2026-05-01T07:17:37.998Z</time></trkpt><trkpt lat="39.66690685870718" lon="8.472811268770101"><ele>57.0</ele><time>2026-05-01T07:17:38.998Z</time></trkpt><trkpt lat="39.666934709993605" lon="8.472712472912578"><ele>57.0</ele><time>2026-05-01T07:17:39.998Z</time></trkpt><trkpt lat="39.666987857864164" lon="8.472632218486913"><ele>57.0</ele><time>2026-05-01T07:17:40.998Z</time></trkpt><trkpt lat="39.66705020136778" lon="8.472559256912554"><ele>55.0</ele><time>2026-05-01T07:17:41.998Z</time></trkpt><trkpt lat="39.66711507936012" lon="8.472478534119215"><ele>53.0</ele><time>2026-05-01T07:17:42.998Z</time></trkpt><trkpt lat="39.66718987213492" lon="8.47243529592238"><ele>51.0</ele><time>2026-05-01T07:17:43.998Z</time></trkpt><trkpt lat="39.66724779728011" lon="8.47239056536107"><ele>49.0</ele><time>2026-05-01T07:17:44.998Z</time></trkpt><trkpt lat="39.66730981624106" lon="8.472415224143493"><ele>47.0</ele><time>2026-05-01T07:17:45.998Z</time></trkpt><trkpt lat="39.667381540965046" lon="8.472398662626501"><ele>45.0</ele><time>2026-05-01T07:17:47.998Z</time></trkpt><trkpt lat="39.66740505828117" lon="8.472290985353645"><ele>45.0</ele><time>2026-05-01T07:17:49.998Z</time></trkpt><trkpt lat="39.66736719940832" lon="8.472196413811428"><ele>45.0</ele><time>2026-05-01T07:17:50.998Z</time></trkpt><trkpt lat="39.667190319887865" lon="8.472097158078611"><ele>45.0</ele><time>2026-05-01T07:17:52.998Z</time></trkpt><trkpt lat="39.66709246041518" lon="8.47205317530004"><ele>45.0</ele><time>2026-05-01T07:17:53.998Z</time></trkpt><trkpt lat="39.667020637717364" lon="8.471989816582415"><ele>43.2</ele><time>2026-05-01T07:17:55.998Z</time></trkpt><trkpt lat="39.667039374486805" lon="8.471866437242063"><ele>41.4</ele><time>2026-05-01T07:17:59.998Z</time></trkpt><trkpt lat="39.6670489267434" lon="8.471777324227709"><ele>39.6</ele><time>2026-05-01T07:18:00.998Z</time></trkpt><trkpt lat="39.667069503137334" lon="8.471692974976406"><ele>37.8</ele><time>2026-05-01T07:18:01.998Z</time></trkpt><trkpt lat="39.66714713623942" lon="8.471579128098796"><ele>36.0</ele><time>2026-05-01T07:18:03.998Z</time></trkpt><trkpt lat="39.66722107111775" lon="8.471478514427373"><ele>36.0</ele><time>2026-05-01T07:18:05.998Z</time></trkpt><trkpt lat="39.667294244830146" lon="8.471414523808685"><ele>36.0</ele><time>2026-05-01T07:18:07.998Z</time></trkpt><trkpt lat="39.66739655967135" lon="8.471379548615973"><ele>36.0</ele><time>2026-05-01T07:18:09.998Z</time></trkpt><trkpt lat="39.667484325323656" lon="8.471293029347885"><ele>36.0</ele><time>2026-05-01T07:18:11.998Z</time></trkpt><trkpt lat="39.66750145814265" lon="8.471210453590668"><ele>36.0</ele><time>2026-05-01T07:18:12.998Z</time></trkpt><trkpt lat="39.66757309541452" lon="8.471086569357253"><ele>35.666666666666664</ele><time>2026-05-01T07:18:15Z</time></trkpt><trkpt lat="39.66763446265253" lon="8.471022955847522"><ele>35.333333333333336</ele><time>2026-05-01T07:18:16Z</time></trkpt><trkpt lat="39.667701140951095" lon="8.470979871342998"><ele>35.0</ele><time>2026-05-01T07:18:17Z</time></trkpt><trkpt lat="39.66776623961623" lon="8.470983104169099"><ele>34.66666666666667</ele><time>2026-05-01T07:18:18Z</time></trkpt><trkpt lat="39.66783539932531" lon="8.471002752812069"><ele>34.333333333333336</ele><time>2026-05-01T07:18:19Z</time></trkpt><trkpt lat="39.66790038587302" lon="8.47101480547478"><ele>34.0</ele><time>2026-05-01T07:18:20Z</time></trkpt><trkpt lat="39.66799424395181" lon="8.470947056063793"><ele>34.66666666666667</ele><time>2026-05-01T07:18:22Z</time></trkpt><trkpt lat="39.66801596368289" lon="8.470857654353972"><ele>35.333333333333336</ele><time>2026-05-01T07:18:23Z</time></trkpt><trkpt lat="39.6680658868241" lon="8.47075451573195"><ele>36.0</ele><time>2026-05-01T07:18:24Z</time></trkpt><trkpt lat="39.66810262259814" lon="8.470653118482657"><ele>36.666666666666664</ele><time>2026-05-01T07:18:25Z</time></trkpt><trkpt lat="39.66813524934472" lon="8.47057982329562"><ele>37.33333333333333</ele><time>2026-05-01T07:18:26Z</time></trkpt><trkpt lat="39.668164475715805" lon="8.470475249273527"><ele>38.0</ele><time>2026-05-01T07:18:28Z</time></trkpt><trkpt lat="39.668202638355595" lon="8.470404093196452"><ele>38.0</ele><time>2026-05-01T07:18:29Z</time></trkpt><trkpt lat="39.66823744583483" lon="8.470317581453601"><ele>38.0</ele><time>2026-05-01T07:18:30Z</time></trkpt><trkpt lat="39.6682718826605" lon="8.47021123070203"><ele>38.0</ele><time>2026-05-01T07:18:30.999Z</time></trkpt><trkpt lat="39.66832690966181" lon="8.470118442681517"><ele>38.0</ele><time>2026-05-01T07:18:31.999Z</time></trkpt><trkpt lat="39.66838452993543" lon="8.470022738333032"><ele>38.0</ele><time>2026-05-01T07:18:32.999Z</time></trkpt><trkpt lat="39.668463501777566" lon="8.469929972462536"><ele>38.0</ele><time>2026-05-01T07:18:33.999Z</time></trkpt><trkpt lat="39.66852404567828" lon="8.469813111376068"><ele>38.0</ele><time>2026-05-01T07:18:34.999Z</time></trkpt><trkpt lat="39.66861282184912" lon="8.469717178190415"><ele>38.0</ele><time>2026-05-01T07:18:35.999Z</time></trkpt><trkpt lat="39.668705844532965" lon="8.469616377865428"><ele>38.0</ele><time>2026-05-01T07:18:36.999Z</time></trkpt><trkpt lat="39.6687960913045" lon="8.469501810335021"><ele>38.4</ele><time>2026-05-01T07:18:37.999Z</time></trkpt><trkpt lat="39.668879185863524" lon="8.469395930888371"><ele>38.8</ele><time>2026-05-01T07:18:38.999Z</time></trkpt><trkpt lat="39.66894716614687" lon="8.469297516457656"><ele>39.2</ele><time>2026-05-01T07:18:39.999Z</time></trkpt><trkpt lat="39.66899568792793" lon="8.469203559920405"><ele>39.6</ele><time>2026-05-01T07:18:40.999Z</time></trkpt><trkpt lat="39.6690385763203" lon="8.469139687011452"><ele>40.0</ele><time>2026-05-01T07:18:41.999Z</time></trkpt><trkpt lat="39.669121015748004" lon="8.469043421436037"><ele>40.0</ele><time>2026-05-01T07:18:43.999Z</time></trkpt><trkpt lat="39.66921227965989" lon="8.468940463124694"><ele>40.0</ele><time>2026-05-01T07:18:45.999Z</time></trkpt><trkpt lat="39.66930323985315" lon="8.468843520800974"><ele>40.0</ele><time>2026-05-01T07:18:47.999Z</time></trkpt><trkpt lat="39.66939358927957" lon="8.468733187600703"><ele>40.0</ele><time>2026-05-01T07:18:49.999Z</time></trkpt><trkpt lat="39.66945531884668" lon="8.468660533788375"><ele>40.0</ele><time>2026-05-01T07:18:50.999Z</time></trkpt><trkpt lat="39.66952609841864" lon="8.468582033307078"><ele>39.5</ele><time>2026-05-01T07:18:51.999Z</time></trkpt><trkpt lat="39.66960745409366" lon="8.468521229635687"><ele>39.0</ele><time>2026-05-01T07:18:52.999Z</time></trkpt><trkpt lat="39.669689314633096" lon="8.468498655375189"><ele>38.5</ele><time>2026-05-01T07:18:53.999Z</time></trkpt><trkpt lat="39.66976781865602" lon="8.468490231714304"><ele>38.0</ele><time>2026-05-01T07:18:54.999Z</time></trkpt><trkpt lat="39.669850101054166" lon="8.468473725310936"><ele>37.5</ele><time>2026-05-01T07:18:55.999Z</time></trkpt><trkpt lat="39.66991302195528" lon="8.468427155902537"><ele>37.0</ele><time>2026-05-01T07:18:56.999Z</time></trkpt><trkpt lat="39.66995228174034" lon="8.468256817934305"><ele>37.0</ele><time>2026-05-01T07:18:58.999Z</time></trkpt><trkpt lat="39.66999324385916" lon="8.468150918104682"><ele>37.0</ele><time>2026-05-01T07:18:59.999Z</time></trkpt><trkpt lat="39.67004307071045" lon="8.468052810883648"><ele>37.0</ele><time>2026-05-01T07:19:00.999Z</time></trkpt><trkpt lat="39.670089819180376" lon="8.46797084612157"><ele>37.0</ele><time>2026-05-01T07:19:01.999Z</time></trkpt><trkpt lat="39.67012429765625" lon="8.467883869429723"><ele>37.0</ele><time>2026-05-01T07:19:02.999Z</time></trkpt><trkpt lat="39.67017285137956" lon="8.467809625167062"><ele>37.0</ele><time>2026-05-01T07:19:04.999Z</time></trkpt><trkpt lat="39.670236418612404" lon="8.467741577283185"><ele>37.0</ele><time>2026-05-01T07:19:06.999Z</time></trkpt><trkpt lat="39.67029656522698" lon="8.467589554495841"><ele>37.0</ele><time>2026-05-01T07:19:09.999Z</time></trkpt><trkpt lat="39.670177929335274" lon="8.467485274487142"><ele>37.0</ele><time>2026-05-01T07:19:11.999Z</time></trkpt><trkpt lat="39.67005809140227" lon="8.467396994489325"><ele>37.0</ele><time>2026-05-01T07:19:13.999Z</time></trkpt><trkpt lat="39.66997330421658" lon="8.467330681337888"><ele>37.0</ele><time>2026-05-01T07:19:14.999Z</time></trkpt><trkpt lat="39.669902911607714" lon="8.467276294763646"><ele>37.0</ele><time>2026-05-01T07:19:15.999Z</time></trkpt><trkpt lat="39.6698226936607" lon="8.467221852378737"><ele>37.0</ele><time>2026-05-01T07:19:16.999Z</time></trkpt><trkpt lat="39.66974044496775" lon="8.467173827936842"><ele>37.0</ele><time>2026-05-01T07:19:17.999Z</time></trkpt><trkpt lat="39.6696454179185" lon="8.467126389747726"><ele>37.0</ele><time>2026-05-01T07:19:18.999Z</time></trkpt><trkpt lat="39.66954540591572" lon="8.467078866389246"><ele>36.4</ele><time>2026-05-01T07:19:19.999Z</time></trkpt><trkpt lat="39.669454050934846" lon="8.467040945140406"><ele>35.800000000000004</ele><time>2026-05-01T07:19:20.999Z</time></trkpt><trkpt lat="39.669368951948755" lon="8.467003017658016"><ele>35.2</ele><time>2026-05-01T07:19:21.999Z</time></trkpt><trkpt lat="39.669286121396915" lon="8.466961566798265"><ele>34.6</ele><time>2026-05-01T07:19:22.999Z</time></trkpt><trkpt lat="39.669203254131936" lon="8.46691472126475"><ele>34.0</ele><time>2026-05-01T07:19:23.999Z</time></trkpt><trkpt lat="39.66912904740272" lon="8.46685925678897"><ele>33.0</ele><time>2026-05-01T07:19:24.999Z</time></trkpt><trkpt lat="39.66906166272765" lon="8.466784251010194"><ele>32.0</ele><time>2026-05-01T07:19:25.999Z</time></trkpt><trkpt lat="39.669011559692066" lon="8.46671150010892"><ele>31.0</ele><time>2026-05-01T07:19:26.999Z</time></trkpt><trkpt lat="39.66897127363548" lon="8.466640162890709"><ele>30.0</ele><time>2026-05-01T07:19:27.999Z</time></trkpt><trkpt lat="39.66893623570796" lon="8.466561850099692"><ele>29.000000000000004</ele><time>2026-05-01T07:19:28.999Z</time></trkpt><trkpt lat="39.668905023756686" lon="8.466469707287677"><ele>28.0</ele><time>2026-05-01T07:19:29.999Z</time></trkpt><trkpt lat="39.66887685157127" lon="8.466374795184302"><ele>28.000000000000004</ele><time>2026-05-01T07:19:30.999Z</time></trkpt><trkpt lat="39.66885142898243" lon="8.46626251052141"><ele>28.0</ele><time>2026-05-01T07:19:31.999Z</time></trkpt><trkpt lat="39.668834679085236" lon="8.46615392373894"><ele>28.0</ele><time>2026-05-01T07:19:32.999Z</time></trkpt><trkpt lat="39.66882447999397" lon="8.466051725911733"><ele>28.0</ele><time>2026-05-01T07:19:33.999Z</time></trkpt><trkpt lat="39.66881445025012" lon="8.465954889150199"><ele>28.000000000000004</ele><time>2026-05-01T07:19:34.998Z</time></trkpt><trkpt lat="39.668790131835756" lon="8.465856691526444"><ele>28.0</ele><time>2026-05-01T07:19:35.998Z</time></trkpt><trkpt lat="39.66878929030445" lon="8.465762464050249"><ele>28.000000000000004</ele><time>2026-05-01T07:19:36.998Z</time></trkpt><trkpt lat="39.66877094067901" lon="8.465683642148745"><ele>28.0</ele><time>2026-05-01T07:19:37.998Z</time></trkpt><trkpt lat="39.66874503835462" lon="8.465561906052887"><ele>28.0</ele><time>2026-05-01T07:19:39.998Z</time></trkpt><trkpt lat="39.66876244618464" lon="8.465477371734366"><ele>28.0</ele><time>2026-05-01T07:19:42.998Z</time></trkpt><trkpt lat="39.6686432145982" lon="8.465403153995666"><ele>28.000000000000004</ele><time>2026-05-01T07:19:45.998Z</time></trkpt><trkpt lat="39.66857682574546" lon="8.465367512754307"><ele>28.0</ele><time>2026-05-01T07:19:46.998Z</time></trkpt><trkpt lat="39.66850030299219" lon="8.46531970357413"><ele>27.0</ele><time>2026-05-01T07:19:47.998Z</time></trkpt><trkpt lat="39.66840788458187" lon="8.465220103848159"><ele>26.0</ele><time>2026-05-01T07:19:48.998Z</time></trkpt><trkpt lat="39.66833503710652" lon="8.465068601447074"><ele>25.0</ele><time>2026-05-01T07:19:49.998Z</time></trkpt><trkpt lat="39.66831815544502" lon="8.464899982890985"><ele>24.0</ele><time>2026-05-01T07:19:50.998Z</time></trkpt><trkpt lat="39.66833272796008" lon="8.464715787101923"><ele>25.0</ele><time>2026-05-01T07:19:51.998Z</time></trkpt><trkpt lat="39.668357818750465" lon="8.464524658608914"><ele>26.0</ele><time>2026-05-01T07:19:52.998Z</time></trkpt><trkpt lat="39.66841379281097" lon="8.464320936822395"><ele>27.0</ele><time>2026-05-01T07:19:53.998Z</time></trkpt><trkpt lat="39.668465245678966" lon="8.464103762946353"><ele>27.0</ele><time>2026-05-01T07:19:54.998Z</time></trkpt><trkpt lat="39.66851703954827" lon="8.46388369822531"><ele>27.0</ele><time>2026-05-01T07:19:55.998Z</time></trkpt><trkpt lat="39.668566414235265" lon="8.46365558494216"><ele>27.0</ele><time>2026-05-01T07:19:56.998Z</time></trkpt><trkpt lat="39.668613104117505" lon="8.463417876236612"><ele>24.333333333333332</ele><time>2026-05-01T07:19:57.998Z</time></trkpt><trkpt lat="39.668663016246875" lon="8.463175638291489"><ele>21.666666666666664</ele><time>2026-05-01T07:19:58.998Z</time></trkpt><trkpt lat="39.66871301673034" lon="8.462933460299562"><ele>19.0</ele><time>2026-05-01T07:19:59.998Z</time></trkpt><trkpt lat="39.66876218959499" lon="8.462691386437664"><ele>19.0</ele><time>2026-05-01T07:20:00.998Z</time></trkpt><trkpt lat="39.6687983745986" lon="8.46244818299056"><ele>19.0</ele><time>2026-05-01T07:20:01.998Z</time></trkpt><trkpt lat="39.66881917093888" lon="8.46220711801714"><ele>19.0</ele><time>2026-05-01T07:20:02.998Z</time></trkpt><trkpt lat="39.66881592884311" lon="8.461974350657648"><ele>18.0</ele><time>2026-05-01T07:20:03.998Z</time></trkpt><trkpt lat="39.668775283039935" lon="8.461760351282543"><ele>17.0</ele><time>2026-05-01T07:20:04.998Z</time></trkpt><trkpt lat="39.66869159046117" lon="8.461572223759404"><ele>16.0</ele><time>2026-05-01T07:20:05.998Z</time></trkpt><trkpt lat="39.66857539421159" lon="8.461413910011427"><ele>17.0</ele><time>2026-05-01T07:20:06.998Z</time></trkpt><trkpt lat="39.668431538424464" lon="8.46128273693644"><ele>18.0</ele><time>2026-05-01T07:20:07.998Z</time></trkpt><trkpt lat="39.668295306089085" lon="8.461133739758534"><ele>19.0</ele><time>2026-05-01T07:20:08.998Z</time></trkpt><trkpt lat="39.66815297607653" lon="8.460993309635839"><ele>19.0</ele><time>2026-05-01T07:20:09.998Z</time></trkpt><trkpt lat="39.66801142478427" lon="8.460884242576482"><ele>19.0</ele><time>2026-05-01T07:20:10.998Z</time></trkpt><trkpt lat="39.66789526211661" lon="8.460787338765538"><ele>19.0</ele><time>2026-05-01T07:20:11.998Z</time></trkpt><trkpt lat="39.66775756497587" lon="8.460799196320245"><ele>19.0</ele><time>2026-05-01T07:20:12.998Z</time></trkpt><trkpt lat="39.667634236407324" lon="8.460857396105162"><ele>21.75</ele><time>2026-05-01T07:20:13.998Z</time></trkpt><trkpt lat="39.667523301586314" lon="8.460961829118423"><ele>24.5</ele><time>2026-05-01T07:20:14.998Z</time></trkpt><trkpt lat="39.66744020847804" lon="8.461120659749502"><ele>27.25</ele><time>2026-05-01T07:20:15.998Z</time></trkpt><trkpt lat="39.66736771589304" lon="8.461289378095698"><ele>30.0</ele><time>2026-05-01T07:20:16.998Z</time></trkpt><trkpt lat="39.667311705503636" lon="8.46146925589089"><ele>36.0</ele><time>2026-05-01T07:20:17.998Z</time></trkpt><trkpt lat="39.66727727013345" lon="8.461662903373812"><ele>42.0</ele><time>2026-05-01T07:20:18.998Z</time></trkpt><trkpt lat="39.667268426237726" lon="8.461867768326657"><ele>48.0</ele><time>2026-05-01T07:20:20Z</time></trkpt><trkpt lat="39.667290761084224" lon="8.462075644445507"><ele>49.0</ele><time>2026-05-01T07:20:21Z</time></trkpt><trkpt lat="39.66732444950069" lon="8.462288287228883"><ele>50.0</ele><time>2026-05-01T07:20:22Z</time></trkpt><trkpt lat="39.66734487487757" lon="8.462495976543792"><ele>51.0</ele><time>2026-05-01T07:20:23Z</time></trkpt><trkpt lat="39.66735928985122" lon="8.462707936289043"><ele>51.0</ele><time>2026-05-01T07:20:24Z</time></trkpt><trkpt lat="39.667376935590404" lon="8.462917999450832"><ele>51.0</ele><time>2026-05-01T07:20:25Z</time></trkpt><trkpt lat="39.667397960949366" lon="8.463126858157494"><ele>51.0</ele><time>2026-05-01T07:20:26Z</time></trkpt><trkpt lat="39.667416085361275" lon="8.463333176577471"><ele>51.33333333333333</ele><time>2026-05-01T07:20:27Z</time></trkpt><trkpt lat="39.66743173355321" lon="8.463542166923155"><ele>51.666666666666664</ele><time>2026-05-01T07:20:28Z</time></trkpt><trkpt lat="39.66744859423233" lon="8.463752384615985"><ele>52.0</ele><time>2026-05-01T07:20:29Z</time></trkpt><trkpt lat="39.667468051761844" lon="8.463961707641582"><ele>52.33333333333333</ele><time>2026-05-01T07:20:30Z</time></trkpt><trkpt lat="39.667483487362986" lon="8.464170746840166"><ele>52.66666666666667</ele><time>2026-05-01T07:20:31Z</time></trkpt><trkpt lat="39.667463726838676" lon="8.464379951221355"><ele>53.0</ele><time>2026-05-01T07:20:32Z</time></trkpt><trkpt lat="39.66742052248631" lon="8.464578487476091"><ele>52.333333333333336</ele><time>2026-05-01T07:20:33Z</time></trkpt><trkpt lat="39.667352049773875" lon="8.464768213982376"><ele>51.66666666666667</ele><time>2026-05-01T07:20:34Z</time></trkpt><trkpt lat="39.667255261504714" lon="8.46493079560952"><ele>51.0</ele><time>2026-05-01T07:20:34.999Z</time></trkpt><trkpt lat="39.66715135831501" lon="8.465087179098584"><ele>51.0</ele><time>2026-05-01T07:20:35.999Z</time></trkpt><trkpt lat="39.667053867406615" lon="8.465248501379387"><ele>51.0</ele><time>2026-05-01T07:20:36.999Z</time></trkpt><trkpt lat="39.666946816649364" lon="8.465399121897482"><ele>51.0</ele><time>2026-05-01T07:20:37.999Z</time></trkpt><trkpt lat="39.6668413877549" lon="8.465557052632917"><ele>59.66666666666667</ele><time>2026-05-01T07:20:38.999Z</time></trkpt><trkpt lat="39.666731638826306" lon="8.46571185556731"><ele>68.33333333333334</ele><time>2026-05-01T07:20:39.999Z</time></trkpt><trkpt lat="39.6666212222218" lon="8.465866397101088"><ele>77.0</ele><time>2026-05-01T07:20:40.999Z</time></trkpt><trkpt lat="39.66651007906965" lon="8.466026697779181"><ele>77.0</ele><time>2026-05-01T07:20:41.999Z</time></trkpt><trkpt lat="39.666397997729405" lon="8.46618638831028"><ele>77.0</ele><time>2026-05-01T07:20:42.999Z</time></trkpt><trkpt lat="39.66628734799579" lon="8.466347856263713"><ele>77.0</ele><time>2026-05-01T07:20:43.999Z</time></trkpt><trkpt lat="39.66618170202559" lon="8.466502179671304"><ele>80.0</ele><time>2026-05-01T07:20:44.999Z</time></trkpt><trkpt lat="39.66607224929889" lon="8.466660245947304"><ele>83.0</ele><time>2026-05-01T07:20:45.999Z</time></trkpt><trkpt lat="39.665963526542" lon="8.466820175175787"><ele>86.0</ele><time>2026-05-01T07:20:46.999Z</time></trkpt><trkpt lat="39.66585114617398" lon="8.466979317668208"><ele>82.0</ele><time>2026-05-01T07:20:47.999Z</time></trkpt><trkpt lat="39.66573945749555" lon="8.46714002641611"><ele>78.0</ele><time>2026-05-01T07:20:48.999Z</time></trkpt><trkpt lat="39.665627147327434" lon="8.467300100499287"><ele>74.0</ele><time>2026-05-01T07:20:49.999Z</time></trkpt><trkpt lat="39.665515344576285" lon="8.467457979109957"><ele>74.0</ele><time>2026-05-01T07:20:50.999Z</time></trkpt><trkpt lat="39.665401277479425" lon="8.467612308825741"><ele>74.0</ele><time>2026-05-01T07:20:51.999Z</time></trkpt><trkpt lat="39.66528319232266" lon="8.467758040709981"><ele>74.0</ele><time>2026-05-01T07:20:52.999Z</time></trkpt><trkpt lat="39.665163852551736" lon="8.467896923546757"><ele>78.0</ele><time>2026-05-01T07:20:53.999Z</time></trkpt><trkpt lat="39.665040708114546" lon="8.468034518049006"><ele>82.0</ele><time>2026-05-01T07:20:54.999Z</time></trkpt><trkpt lat="39.66491603613378" lon="8.468172735855827"><ele>86.0</ele><time>2026-05-01T07:20:55.999Z</time></trkpt><trkpt lat="39.66480271061088" lon="8.468328366827652"><ele>86.0</ele><time>2026-05-01T07:20:56.999Z</time></trkpt><trkpt lat="39.66470425553547" lon="8.468504653168866"><ele>86.0</ele><time>2026-05-01T07:20:57.999Z</time></trkpt><trkpt lat="39.66460503390803" lon="8.46868492018892"><ele>86.0</ele><time>2026-05-01T07:20:58.999Z</time></trkpt><trkpt lat="39.66450667007681" lon="8.46886163321715"><ele>92.66666666666667</ele><time>2026-05-01T07:20:59.999Z</time></trkpt><trkpt lat="39.664405363060425" lon="8.469031646664915"><ele>99.33333333333334</ele><time>2026-05-01T07:21:00.999Z</time></trkpt><trkpt lat="39.66430718970134" lon="8.469201930392131"><ele>106.0</ele><time>2026-05-01T07:21:01.999Z</time></trkpt><trkpt lat="39.66421120607365" lon="8.469371430139613"><ele>106.0</ele><time>2026-05-01T07:21:02.999Z</time></trkpt><trkpt lat="39.66410962417502" lon="8.469535038591143"><ele>106.0</ele><time>2026-05-01T07:21:03.999Z</time></trkpt><trkpt lat="39.66402496503018" lon="8.469705517687371"><ele>106.0</ele><time>2026-05-01T07:21:04.999Z</time></trkpt><trkpt lat="39.66397822807756" lon="8.469895127914235"><ele>106.33333333333334</ele><time>2026-05-01T07:21:05.999Z</time></trkpt><trkpt lat="39.663968380600835" lon="8.470100788252743"><ele>106.66666666666666</ele><time>2026-05-01T07:21:07Z</time></trkpt><trkpt lat="39.663996109002035" lon="8.470310461803898"><ele>107.0</ele><time>2026-05-01T07:21:08Z</time></trkpt><trkpt lat="39.664061211026336" lon="8.470509244007712"><ele>108.33333333333333</ele><time>2026-05-01T07:21:09Z</time></trkpt><trkpt lat="39.664141028313146" lon="8.470697783052026"><ele>109.66666666666666</ele><time>2026-05-01T07:21:10Z</time></trkpt><trkpt lat="39.664196125662706" lon="8.470880222295026"><ele>111.0</ele><time>2026-05-01T07:21:11Z</time></trkpt><trkpt lat="39.66417805370139" lon="8.471068041241427"><ele>111.0</ele><time>2026-05-01T07:21:12Z</time></trkpt><trkpt lat="39.664128802312895" lon="8.471251991855942"><ele>111.0</ele><time>2026-05-01T07:21:13Z</time></trkpt><trkpt lat="39.664082826183545" lon="8.471452659136549"><ele>111.0</ele><time>2026-05-01T07:21:14Z</time></trkpt><trkpt lat="39.664028591746906" lon="8.47164442102364"><ele>111.66666666666666</ele><time>2026-05-01T07:21:15Z</time></trkpt><trkpt lat="39.663989595388045" lon="8.471836852446494"><ele>112.33333333333333</ele><time>2026-05-01T07:21:16Z</time></trkpt><trkpt lat="39.66398631046584" lon="8.47203846683425"><ele>113.0</ele><time>2026-05-01T07:21:17Z</time></trkpt><trkpt lat="39.664038579644846" lon="8.472240625279472"><ele>113.5</ele><time>2026-05-01T07:21:18Z</time></trkpt><trkpt lat="39.66410118617757" lon="8.47243465442484"><ele>114.0</ele><time>2026-05-01T07:21:19Z</time></trkpt><trkpt lat="39.66409330318158" lon="8.472621330664259"><ele>114.5</ele><time>2026-05-01T07:21:20Z</time></trkpt><trkpt lat="39.66403607391089" lon="8.472781621783618"><ele>115.0</ele><time>2026-05-01T07:21:21Z</time></trkpt><trkpt lat="39.663929349597" lon="8.472893981863624"><ele>114.75</ele><time>2026-05-01T07:21:22Z</time></trkpt><trkpt lat="39.66380497372788" lon="8.472986375101954"><ele>114.5</ele><time>2026-05-01T07:21:23Z</time></trkpt><trkpt lat="39.66365928356365" lon="8.473014217270181"><ele>114.25</ele><time>2026-05-01T07:21:24Z</time></trkpt><trkpt lat="39.66350831374877" lon="8.473053044710273"><ele>114.0</ele><time>2026-05-01T07:21:25Z</time></trkpt><trkpt lat="39.66335341387153" lon="8.473092882931036"><ele>119.0</ele><time>2026-05-01T07:21:26Z</time></trkpt><trkpt lat="39.66319963458112" lon="8.473132432948209"><ele>124.0</ele><time>2026-05-01T07:21:27Z</time></trkpt><trkpt lat="39.663045450480276" lon="8.47319265760913"><ele>129.0</ele><time>2026-05-01T07:21:28Z</time></trkpt><trkpt lat="39.66288983179508" lon="8.473238075954326"><ele>131.33333333333334</ele><time>2026-05-01T07:21:29Z</time></trkpt><trkpt lat="39.662729690462236" lon="8.473298164639798"><ele>133.66666666666669</ele><time>2026-05-01T07:21:30Z</time></trkpt><trkpt lat="39.66256999434305" lon="8.473367941530576"><ele>136.0</ele><time>2026-05-01T07:21:31Z</time></trkpt><trkpt lat="39.66240387950749" lon="8.473428559165994"><ele>136.0</ele><time>2026-05-01T07:21:32Z</time></trkpt><trkpt lat="39.6622433669838" lon="8.47352588469332"><ele>136.0</ele><time>2026-05-01T07:21:33Z</time></trkpt><trkpt lat="39.66207608513114" lon="8.473605186421313"><ele>136.0</ele><time>2026-05-01T07:21:34Z</time></trkpt><trkpt lat="39.66190548398326" lon="8.473685770004147"><ele>136.33333333333334</ele><time>2026-05-01T07:21:35Z</time></trkpt><trkpt lat="39.66172801743864" lon="8.473769274101963"><ele>136.66666666666666</ele><time>2026-05-01T07:21:36Z</time></trkpt><trkpt lat="39.66154808653027" lon="8.473853491812301"><ele>137.0</ele><time>2026-05-01T07:21:36.999Z</time></trkpt><trkpt lat="39.661366381034476" lon="8.473939961396564"><ele>134.0</ele><time>2026-05-01T07:21:37.999Z</time></trkpt><trkpt lat="39.66117691396276" lon="8.474008933351774"><ele>131.0</ele><time>2026-05-01T07:21:38.999Z</time></trkpt><trkpt lat="39.66099812330445" lon="8.474116599241244"><ele>128.0</ele><time>2026-05-01T07:21:39.999Z</time></trkpt><trkpt lat="39.66081351759021" lon="8.47420247323202"><ele>126.0</ele><time>2026-05-01T07:21:40.999Z</time></trkpt><trkpt lat="39.66063353845766" lon="8.474290802594085"><ele>124.0</ele><time>2026-05-01T07:21:41.999Z</time></trkpt><trkpt lat="39.66045310722599" lon="8.474376615001127"><ele>122.0</ele><time>2026-05-01T07:21:42.999Z</time></trkpt><trkpt lat="39.660272574188475" lon="8.474459294845886"><ele>122.66666666666666</ele><time>2026-05-01T07:21:43.999Z</time></trkpt><trkpt lat="39.66009168550092" lon="8.474543037993778"><ele>123.33333333333334</ele><time>2026-05-01T07:21:44.999Z</time></trkpt><trkpt lat="39.65990910333806" lon="8.47462671696619"><ele>124.0</ele><time>2026-05-01T07:21:45.999Z</time></trkpt><trkpt lat="39.65972778825889" lon="8.474709730969815"><ele>124.0</ele><time>2026-05-01T07:21:46.999Z</time></trkpt><trkpt lat="39.65954960783829" lon="8.474794441601189"><ele>124.0</ele><time>2026-05-01T07:21:47.999Z</time></trkpt><trkpt lat="39.65937038642668" lon="8.47488011216238"><ele>124.0</ele><time>2026-05-01T07:21:48.999Z</time></trkpt><trkpt lat="39.65919025705659" lon="8.474966111753103"><ele>123.33333333333334</ele><time>2026-05-01T07:21:49.999Z</time></trkpt><trkpt lat="39.659009778005135" lon="8.475055513617512"><ele>122.66666666666666</ele><time>2026-05-01T07:21:50.999Z</time></trkpt><trkpt lat="39.65883247534121" lon="8.475140069666354"><ele>122.0</ele><time>2026-05-01T07:21:51.999Z</time></trkpt><trkpt lat="39.658659267875514" lon="8.475220524129094"><ele>122.33333333333333</ele><time>2026-05-01T07:21:52.999Z</time></trkpt><trkpt lat="39.658488291517344" lon="8.475301015077823"><ele>122.66666666666666</ele><time>2026-05-01T07:21:53.999Z</time></trkpt><trkpt lat="39.65831898473559" lon="8.47538294050979"><ele>123.0</ele><time>2026-05-01T07:21:54.999Z</time></trkpt><trkpt lat="39.65815180421473" lon="8.475462047432062"><ele>123.0</ele><time>2026-05-01T07:21:55.999Z</time></trkpt><trkpt lat="39.65798510426163" lon="8.47554184338415"><ele>123.0</ele><time>2026-05-01T07:21:56.999Z</time></trkpt><trkpt lat="39.65782094232425" lon="8.475621938639678"><ele>123.0</ele><time>2026-05-01T07:21:57.999Z</time></trkpt><trkpt lat="39.65765746844075" lon="8.47570333012534"><ele>127.33333333333334</ele><time>2026-05-01T07:21:58.999Z</time></trkpt><trkpt lat="39.65749304585262" lon="8.475783726985467"><ele>131.66666666666669</ele><time>2026-05-01T07:21:59.999Z</time></trkpt><trkpt lat="39.657327132798024" lon="8.475866998684298"><ele>136.0</ele><time>2026-05-01T07:22:00.999Z</time></trkpt><trkpt lat="39.65716522757104" lon="8.475967879035267"><ele>136.0</ele><time>2026-05-01T07:22:01.999Z</time></trkpt><trkpt lat="39.65700798390673" lon="8.476093027319981"><ele>136.0</ele><time>2026-05-01T07:22:02.999Z</time></trkpt><trkpt lat="39.656850299506004" lon="8.47622076431018"><ele>136.0</ele><time>2026-05-01T07:22:03.999Z</time></trkpt><trkpt lat="39.65670169840259" lon="8.476339753666585"><ele>137.75</ele><time>2026-05-01T07:22:04.999Z</time></trkpt><trkpt lat="39.65657386204003" lon="8.476437061806307"><ele>139.5</ele><time>2026-05-01T07:22:05.999Z</time></trkpt><trkpt lat="39.656451379529884" lon="8.47648266675828"><ele>141.25</ele><time>2026-05-01T07:22:06.999Z</time></trkpt><trkpt lat="39.65632678315667" lon="8.47647525330502"><ele>143.0</ele><time>2026-05-01T07:22:07.999Z</time></trkpt><trkpt lat="39.65620736582742" lon="8.476400831177097"><ele>141.75</ele><time>2026-05-01T07:22:08.999Z</time></trkpt><trkpt lat="39.656098500338786" lon="8.476276873176774"><ele>140.5</ele><time>2026-05-01T07:22:09.999Z</time></trkpt><trkpt lat="39.65602098228951" lon="8.476111326023833"><ele>139.25</ele><time>2026-05-01T07:22:10.999Z</time></trkpt><trkpt lat="39.65595136824581" lon="8.475935254254225"><ele>138.0</ele><time>2026-05-01T07:22:11.999Z</time></trkpt><trkpt lat="39.65587438792409" lon="8.47573701228436"><ele>138.0</ele><time>2026-05-01T07:22:12.999Z</time></trkpt><trkpt lat="39.65580024472938" lon="8.475553188506291"><ele>138.0</ele><time>2026-05-01T07:22:13.999Z</time></trkpt><trkpt lat="39.655706049524284" lon="8.475394531283495"><ele>138.0</ele><time>2026-05-01T07:22:14.999Z</time></trkpt><trkpt lat="39.655586651048246" lon="8.475287307522859"><ele>139.25</ele><time>2026-05-01T07:22:15.999Z</time></trkpt><trkpt lat="39.655448756167175" lon="8.475245995092191"><ele>140.5</ele><time>2026-05-01T07:22:16.999Z</time></trkpt><trkpt lat="39.655313478487976" lon="8.475275363620026"><ele>141.75</ele><time>2026-05-01T07:22:17.999Z</time></trkpt><trkpt lat="39.655186053631255" lon="8.4753596702162"><ele>143.0</ele><time>2026-05-01T07:22:18.999Z</time></trkpt><trkpt lat="39.65504603199713" lon="8.475456606993095"><ele>143.0</ele><time>2026-05-01T07:22:19.999Z</time></trkpt><trkpt lat="39.65490441747985" lon="8.475543744125872"><ele>143.0</ele><time>2026-05-01T07:22:20.999Z</time></trkpt><trkpt lat="39.65477456409243" lon="8.475640871345156"><ele>143.0</ele><time>2026-05-01T07:22:21.999Z</time></trkpt><trkpt lat="39.654670846104345" lon="8.475780778326467"><ele>143.0</ele><time>2026-05-01T07:22:22.999Z</time></trkpt><trkpt lat="39.654592842503604" lon="8.47596417916964"><ele>143.0</ele><time>2026-05-01T07:22:23.999Z</time></trkpt><trkpt lat="39.65452289478837" lon="8.476158791315028"><ele>143.0</ele><time>2026-05-01T07:22:24.999Z</time></trkpt><trkpt lat="39.654439721974214" lon="8.4763459000116"><ele>140.0</ele><time>2026-05-01T07:22:26Z</time></trkpt><trkpt lat="39.654351561896505" lon="8.476525754978415"><ele>137.0</ele><time>2026-05-01T07:22:27Z</time></trkpt><trkpt lat="39.654283675606486" lon="8.476720631857592"><ele>134.0</ele><time>2026-05-01T07:22:28Z</time></trkpt><trkpt lat="39.65424517503809" lon="8.476928681911403"><ele>136.0</ele><time>2026-05-01T07:22:29Z</time></trkpt><trkpt lat="39.65422096519917" lon="8.477142898389586"><ele>138.0</ele><time>2026-05-01T07:22:30Z</time></trkpt><trkpt lat="39.65419611967377" lon="8.477356447716575"><ele>140.0</ele><time>2026-05-01T07:22:31Z</time></trkpt><trkpt lat="39.65416773779553" lon="8.477559234925197"><ele>140.0</ele><time>2026-05-01T07:22:32Z</time></trkpt><trkpt lat="39.65413751413775" lon="8.477742519739577"><ele>140.0</ele><time>2026-05-01T07:22:33Z</time></trkpt><trkpt lat="39.654079800837245" lon="8.477892470295926"><ele>140.0</ele><time>2026-05-01T07:22:34Z</time></trkpt><trkpt lat="39.6540244235009" lon="8.47802693177402"><ele>140.0</ele><time>2026-05-01T07:22:35Z</time></trkpt><trkpt lat="39.653948112297975" lon="8.47813969350305"><ele>142.75</ele><time>2026-05-01T07:22:36Z</time></trkpt><trkpt lat="39.65384645743776" lon="8.478201060465052"><ele>145.5</ele><time>2026-05-01T07:22:37Z</time></trkpt><trkpt lat="39.65373168087541" lon="8.478227303858317"><ele>148.25</ele><time>2026-05-01T07:22:38Z</time></trkpt><trkpt lat="39.65361250114712" lon="8.47818552182718"><ele>151.0</ele><time>2026-05-01T07:22:39Z</time></trkpt><trkpt lat="39.653498824171585" lon="8.478089884986142"><ele>147.66666666666669</ele><time>2026-05-01T07:22:40Z</time></trkpt><trkpt lat="39.653402516145356" lon="8.477931472365436"><ele>144.33333333333334</ele><time>2026-05-01T07:22:41Z</time></trkpt><trkpt lat="39.653358638638196" lon="8.477717725790276"><ele>141.0</ele><time>2026-05-01T07:22:42Z</time></trkpt><trkpt lat="39.65332132617321" lon="8.477504074377997"><ele>141.0</ele><time>2026-05-01T07:22:43Z</time></trkpt><trkpt lat="39.653302853738225" lon="8.477295839054776"><ele>141.0</ele><time>2026-05-01T07:22:44Z</time></trkpt><trkpt lat="39.653244984966534" lon="8.477097283373578"><ele>141.0</ele><time>2026-05-01T07:22:45Z</time></trkpt><trkpt lat="39.65314494697215" lon="8.476926100395339"><ele>141.0</ele><time>2026-05-01T07:22:46Z</time></trkpt><trkpt lat="39.65301559332232" lon="8.476764374845565"><ele>141.0</ele><time>2026-05-01T07:22:47Z</time></trkpt><trkpt lat="39.652891027087776" lon="8.476608126844008"><ele>141.0</ele><time>2026-05-01T07:22:48Z</time></trkpt><trkpt lat="39.652770354286595" lon="8.47646002016275"><ele>141.0</ele><time>2026-05-01T07:22:49Z</time></trkpt><trkpt lat="39.65262216795177" lon="8.476363288161101"><ele>141.0</ele><time>2026-05-01T07:22:50Z</time></trkpt><trkpt lat="39.6524609607465" lon="8.476337104205626"><ele>141.0</ele><time>2026-05-01T07:22:51Z</time></trkpt><trkpt lat="39.652312151058226" lon="8.47637645249932"><ele>141.0</ele><time>2026-05-01T07:22:52Z</time></trkpt><trkpt lat="39.65217573810054" lon="8.47646930901941"><ele>141.0</ele><time>2026-05-01T07:22:53Z</time></trkpt><trkpt lat="39.652066845887994" lon="8.476611851843252"><ele>141.0</ele><time>2026-05-01T07:22:54Z</time></trkpt><trkpt lat="39.65198029079511" lon="8.47679497584333"><ele>141.0</ele><time>2026-05-01T07:22:55Z</time></trkpt><trkpt lat="39.651911759639475" lon="8.47700020617348"><ele>141.0</ele><time>2026-05-01T07:22:56Z</time></trkpt><trkpt lat="39.65187191369885" lon="8.477208046520607"><ele>141.0</ele><time>2026-05-01T07:22:57Z</time></trkpt><trkpt lat="39.65182772647339" lon="8.477371833051693"><ele>141.0</ele><time>2026-05-01T07:22:58Z</time></trkpt><trkpt lat="39.651765318505376" lon="8.477477312817538"><ele>141.0</ele><time>2026-05-01T07:22:59Z</time></trkpt><trkpt lat="39.65166787982376" lon="8.477537400977122"><ele>141.0</ele><time>2026-05-01T07:23:00Z</time></trkpt><trkpt lat="39.651554233708296" lon="8.477519709851466"><ele>141.0</ele><time>2026-05-01T07:23:01Z</time></trkpt><trkpt lat="39.65144051172368" lon="8.477459663395841"><ele>141.0</ele><time>2026-05-01T07:23:02Z</time></trkpt><trkpt lat="39.65132676348488" lon="8.477356789509452"><ele>141.0</ele><time>2026-05-01T07:23:03Z</time></trkpt><trkpt lat="39.651281368769794" lon="8.477166573582402"><ele>141.0</ele><time>2026-05-01T07:23:04Z</time></trkpt><trkpt lat="39.651282202854" lon="8.476984499614842"><ele>141.0</ele><time>2026-05-01T07:23:05Z</time></trkpt><trkpt lat="39.651282070016286" lon="8.476786347146806"><ele>141.0</ele><time>2026-05-01T07:23:06Z</time></trkpt><trkpt lat="39.65127671685147" lon="8.47656702603651"><ele>138.0</ele><time>2026-05-01T07:23:07Z</time></trkpt><trkpt lat="39.65128217502631" lon="8.476358931898677"><ele>135.0</ele><time>2026-05-01T07:23:08Z</time></trkpt><trkpt lat="39.6512851219888" lon="8.476144437967559"><ele>132.0</ele><time>2026-05-01T07:23:09Z</time></trkpt><trkpt lat="39.651308337345945" lon="8.475938490652679"><ele>132.0</ele><time>2026-05-01T07:23:10Z</time></trkpt><trkpt lat="39.6513910896946" lon="8.475761305940729"><ele>132.0</ele><time>2026-05-01T07:23:11Z</time></trkpt><trkpt lat="39.65145572904431" lon="8.47557341181726"><ele>132.0</ele><time>2026-05-01T07:23:12Z</time></trkpt><trkpt lat="39.65152222346576" lon="8.475405334389244"><ele>132.0</ele><time>2026-05-01T07:23:13Z</time></trkpt><trkpt lat="39.651568032042775" lon="8.47524923675063"><ele>132.0</ele><time>2026-05-01T07:23:14Z</time></trkpt><trkpt lat="39.65156727962972" lon="8.475093391154555"><ele>132.0</ele><time>2026-05-01T07:23:15Z</time></trkpt><trkpt lat="39.65151309649736" lon="8.474940603339405"><ele>132.0</ele><time>2026-05-01T07:23:16Z</time></trkpt><trkpt lat="39.65140922035676" lon="8.474819420801934"><ele>132.0</ele><time>2026-05-01T07:23:17Z</time></trkpt><trkpt lat="39.651271495660325" lon="8.474759395612224"><ele>132.0</ele><time>2026-05-01T07:23:18Z</time></trkpt><trkpt lat="39.65111852072599" lon="8.47476188227792"><ele>132.0</ele><time>2026-05-01T07:23:19Z</time></trkpt><trkpt lat="39.65097363236505" lon="8.474813418712891"><ele>132.0</ele><time>2026-05-01T07:23:20Z</time></trkpt><trkpt lat="39.650835789320844" lon="8.47490831793425"><ele>131.0</ele><time>2026-05-01T07:23:21Z</time></trkpt><trkpt lat="39.65068881748321" lon="8.474985899219242"><ele>130.0</ele><time>2026-05-01T07:23:22Z</time></trkpt><trkpt lat="39.650544890139614" lon="8.475067170632562"><ele>129.0</ele><time>2026-05-01T07:23:23Z</time></trkpt><trkpt lat="39.65039354713007" lon="8.475131048211063"><ele>126.33333333333334</ele><time>2026-05-01T07:23:24Z</time></trkpt><trkpt lat="39.65022936782294" lon="8.475132344324157"><ele>123.66666666666667</ele><time>2026-05-01T07:23:25Z</time></trkpt><trkpt lat="39.65006470801211" lon="8.475086870913646"><ele>121.0</ele><time>2026-05-01T07:23:26Z</time></trkpt><trkpt lat="39.649892755917186" lon="8.4750294291502"><ele>121.0</ele><time>2026-05-01T07:23:27Z</time></trkpt><trkpt lat="39.64971253675822" lon="8.474988591587634"><ele>121.0</ele><time>2026-05-01T07:23:28Z</time></trkpt><trkpt lat="39.64953867929332" lon="8.474919995100134"><ele>121.0</ele><time>2026-05-01T07:23:29Z</time></trkpt><trkpt lat="39.64936303375647" lon="8.47486374695339"><ele>119.25</ele><time>2026-05-01T07:23:30Z</time></trkpt><trkpt lat="39.64921683669842" lon="8.47484190126168"><ele>117.5</ele><time>2026-05-01T07:23:31Z</time></trkpt><trkpt lat="39.64908973571494" lon="8.474874932139544"><ele>115.75</ele><time>2026-05-01T07:23:32Z</time></trkpt><trkpt lat="39.648991722523235" lon="8.47497024184197"><ele>114.0</ele><time>2026-05-01T07:23:33Z</time></trkpt><trkpt lat="39.648931662763566" lon="8.475089406698372"><ele>114.0</ele><time>2026-05-01T07:23:34Z</time></trkpt><trkpt lat="39.64890361948375" lon="8.475243719426519"><ele>114.0</ele><time>2026-05-01T07:23:35Z</time></trkpt><trkpt lat="39.64889585780537" lon="8.475418647858675"><ele>114.0</ele><time>2026-05-01T07:23:36Z</time></trkpt><trkpt lat="39.64887565018853" lon="8.475592201943257"><ele>114.0</ele><time>2026-05-01T07:23:37Z</time></trkpt><trkpt lat="39.648818696342666" lon="8.475746972682291"><ele>111.5</ele><time>2026-05-01T07:23:38Z</time></trkpt><trkpt lat="39.64869548996364" lon="8.475821819015176"><ele>109.0</ele><time>2026-05-01T07:23:39Z</time></trkpt><trkpt lat="39.6485655546504" lon="8.475897296165112"><ele>106.5</ele><time>2026-05-01T07:23:39.999Z</time></trkpt><trkpt lat="39.64840986870318" lon="8.47593297545283"><ele>104.0</ele><time>2026-05-01T07:23:40.999Z</time></trkpt><trkpt lat="39.64824488029784" lon="8.475957659837533"><ele>104.0</ele><time>2026-05-01T07:23:41.999Z</time></trkpt><trkpt lat="39.64807074568131" lon="8.475984271766528"><ele>104.0</ele><time>2026-05-01T07:23:42.999Z</time></trkpt><trkpt lat="39.64789088882445" lon="8.476015252362298"><ele>104.0</ele><time>2026-05-01T07:23:43.999Z</time></trkpt><trkpt lat="39.647709886634296" lon="8.476047877197905"><ele>100.33333333333333</ele><time>2026-05-01T07:23:44.999Z</time></trkpt><trkpt lat="39.64753304694965" lon="8.476073353520402"><ele>96.66666666666666</ele><time>2026-05-01T07:23:45.999Z</time></trkpt><trkpt lat="39.64736664940124" lon="8.476098730539602"><ele>93.0</ele><time>2026-05-01T07:23:46.999Z</time></trkpt><trkpt lat="39.647221735423365" lon="8.476098657837444"><ele>93.0</ele><time>2026-05-01T07:23:47.999Z</time></trkpt><trkpt lat="39.647085720146556" lon="8.476053434788877"><ele>93.0</ele><time>2026-05-01T07:23:48.999Z</time></trkpt><trkpt lat="39.64698877134686" lon="8.47592692626378"><ele>93.0</ele><time>2026-05-01T07:23:49.999Z</time></trkpt><trkpt lat="39.64689449644244" lon="8.475759349673082"><ele>93.0</ele><time>2026-05-01T07:23:50.999Z</time></trkpt><trkpt lat="39.64679467101215" lon="8.475573158774518"><ele>94.66666666666666</ele><time>2026-05-01T07:23:51.999Z</time></trkpt><trkpt lat="39.646686003249826" lon="8.475399013797256"><ele>96.33333333333333</ele><time>2026-05-01T07:23:52.999Z</time></trkpt><trkpt lat="39.646601722928" lon="8.47520387771394"><ele>98.0</ele><time>2026-05-01T07:23:53.999Z</time></trkpt><trkpt lat="39.64650978816272" lon="8.475031560007933"><ele>98.0</ele><time>2026-05-01T07:23:54.999Z</time></trkpt><trkpt lat="39.64640311584677" lon="8.474892557824468"><ele>98.0</ele><time>2026-05-01T07:23:55.999Z</time></trkpt><trkpt lat="39.646290858153186" lon="8.474761030585935"><ele>98.0</ele><time>2026-05-01T07:23:56.999Z</time></trkpt><trkpt lat="39.646151954892964" lon="8.474671966631506"><ele>98.33333333333333</ele><time>2026-05-01T07:23:57.999Z</time></trkpt><trkpt lat="39.6459878586448" lon="8.474624618334293"><ele>98.66666666666666</ele><time>2026-05-01T07:23:58.999Z</time></trkpt><trkpt lat="39.64581575879262" lon="8.474609062612306"><ele>99.0</ele><time>2026-05-01T07:23:59.999Z</time></trkpt><trkpt lat="39.645642375278186" lon="8.474558039132685"><ele>103.66666666666666</ele><time>2026-05-01T07:24:00.999Z</time></trkpt><trkpt lat="39.64547360365239" lon="8.474523804660985"><ele>108.33333333333333</ele><time>2026-05-01T07:24:01.999Z</time></trkpt><trkpt lat="39.64530527593258" lon="8.474486519494851"><ele>113.0</ele><time>2026-05-01T07:24:02.999Z</time></trkpt><trkpt lat="39.64514022875309" lon="8.474449960978184"><ele>114.33333333333333</ele><time>2026-05-01T07:24:03.999Z</time></trkpt><trkpt lat="39.64497491096699" lon="8.47443030713082"><ele>115.66666666666666</ele><time>2026-05-01T07:24:04.999Z</time></trkpt><trkpt lat="39.644815580054605" lon="8.474383623272015"><ele>117.0</ele><time>2026-05-01T07:24:05.999Z</time></trkpt><trkpt lat="39.64467404741242" lon="8.47428508067764"><ele>117.0</ele><time>2026-05-01T07:24:06.999Z</time></trkpt><trkpt lat="39.64454522300597" lon="8.474166109681846"><ele>117.0</ele><time>2026-05-01T07:24:07.999Z</time></trkpt><trkpt lat="39.64440310731226" lon="8.47407247465631"><ele>117.0</ele><time>2026-05-01T07:24:08.999Z</time></trkpt><trkpt lat="39.644272576777" lon="8.473994206809323"><ele>117.33333333333334</ele><time>2026-05-01T07:24:09.999Z</time></trkpt><trkpt lat="39.64412916508508" lon="8.473990009515761"><ele>117.66666666666667</ele><time>2026-05-01T07:24:10.999Z</time></trkpt><trkpt lat="39.64397307947255" lon="8.474070834746199"><ele>118.0</ele><time>2026-05-01T07:24:11.999Z</time></trkpt><trkpt lat="39.64382442116175" lon="8.47417623162485"><ele>118.0</ele><time>2026-05-01T07:24:12.999Z</time></trkpt><trkpt lat="39.64367075018855" lon="8.474245790419031"><ele>118.0</ele><time>2026-05-01T07:24:13.999Z</time></trkpt><trkpt lat="39.643524814479214" lon="8.474306346949687"><ele>118.0</ele><time>2026-05-01T07:24:14.999Z</time></trkpt><trkpt lat="39.64337916289224" lon="8.474291928227974"><ele>121.66666666666667</ele><time>2026-05-01T07:24:15.999Z</time></trkpt><trkpt lat="39.64322712863619" lon="8.474245148898207"><ele>125.33333333333334</ele><time>2026-05-01T07:24:16.999Z</time></trkpt><trkpt lat="39.64305389606208" lon="8.474200333212059"><ele>129.0</ele><time>2026-05-01T07:24:17.999Z</time></trkpt><trkpt lat="39.642879539025756" lon="8.474200259161018"><ele>130.66666666666666</ele><time>2026-05-01T07:24:18.999Z</time></trkpt><trkpt lat="39.6427087013912" lon="8.474243964218367"><ele>132.33333333333331</ele><time>2026-05-01T07:24:19.999Z</time></trkpt><trkpt lat="39.642544558450815" lon="8.474335142377207"><ele>134.0</ele><time>2026-05-01T07:24:20.999Z</time></trkpt><trkpt lat="39.642374223835105" lon="8.47437897080244"><ele>134.0</ele><time>2026-05-01T07:24:21.999Z</time></trkpt><trkpt lat="39.64221131198434" lon="8.474395968234473"><ele>134.0</ele><time>2026-05-01T07:24:22.999Z</time></trkpt><trkpt lat="39.642039196597246" lon="8.474384106374975"><ele>134.0</ele><time>2026-05-01T07:24:23.999Z</time></trkpt><trkpt lat="39.64186319535342" lon="8.474397213626224"><ele>135.66666666666666</ele><time>2026-05-01T07:24:24.999Z</time></trkpt><trkpt lat="39.64169015270165" lon="8.474384324523685"><ele>137.33333333333334</ele><time>2026-05-01T07:24:25.999Z</time></trkpt><trkpt lat="39.64151728267807" lon="8.474374194444806"><ele>139.0</ele><time>2026-05-01T07:24:26.999Z</time></trkpt><trkpt lat="39.64135079486105" lon="8.474345626948024"><ele>139.0</ele><time>2026-05-01T07:24:27.999Z</time></trkpt><trkpt lat="39.64118275218263" lon="8.474336309566668"><ele>139.0</ele><time>2026-05-01T07:24:28.999Z</time></trkpt><trkpt lat="39.64101800437335" lon="8.474337342009168"><ele>139.0</ele><time>2026-05-01T07:24:29.999Z</time></trkpt><trkpt lat="39.640857567195916" lon="8.474374335345564"><ele>138.66666666666669</ele><time>2026-05-01T07:24:30.999Z</time></trkpt><trkpt lat="39.64070199349602" lon="8.474431916942066"><ele>138.33333333333334</ele><time>2026-05-01T07:24:32Z</time></trkpt><trkpt lat="39.64055524668339" lon="8.474524306027941"><ele>138.0</ele><time>2026-05-01T07:24:33Z</time></trkpt><trkpt lat="39.640423702779636" lon="8.47464481185714"><ele>139.0</ele><time>2026-05-01T07:24:34Z</time></trkpt><trkpt lat="39.64031273317859" lon="8.47479554444845"><ele>140.0</ele><time>2026-05-01T07:24:35Z</time></trkpt><trkpt lat="39.64021636687014" lon="8.474964057052933"><ele>141.0</ele><time>2026-05-01T07:24:36Z</time></trkpt><trkpt lat="39.64012247931023" lon="8.475134373173207"><ele>142.0</ele><time>2026-05-01T07:24:37Z</time></trkpt><trkpt lat="39.64002394227566" lon="8.475299913870641"><ele>143.0</ele><time>2026-05-01T07:24:38Z</time></trkpt><trkpt lat="39.63992412093448" lon="8.475468714135655"><ele>144.0</ele><time>2026-05-01T07:24:39Z</time></trkpt><trkpt lat="39.63982539565733" lon="8.475639492008222"><ele>145.33333333333334</ele><time>2026-05-01T07:24:40Z</time></trkpt><trkpt lat="39.63972356289128" lon="8.475810559882438"><ele>146.66666666666669</ele><time>2026-05-01T07:24:41Z</time></trkpt><trkpt lat="39.639620882629735" lon="8.47597998554714"><ele>148.0</ele><time>2026-05-01T07:24:42Z</time></trkpt><trkpt lat="39.63952435558015" lon="8.476153473522531"><ele>148.33333333333334</ele><time>2026-05-01T07:24:43Z</time></trkpt><trkpt lat="39.63940897083324" lon="8.476293578868065"><ele>148.66666666666666</ele><time>2026-05-01T07:24:44Z</time></trkpt><trkpt lat="39.63928458405206" lon="8.476401586830377"><ele>149.0</ele><time>2026-05-01T07:24:45Z</time></trkpt><trkpt lat="39.63913863264524" lon="8.476437167348687"><ele>149.0</ele><time>2026-05-01T07:24:46Z</time></trkpt><trkpt lat="39.63897904216222" lon="8.476437226339584"><ele>149.0</ele><time>2026-05-01T07:24:47Z</time></trkpt><trkpt lat="39.63881175269394" lon="8.476431919648878"><ele>149.0</ele><time>2026-05-01T07:24:48Z</time></trkpt><trkpt lat="39.638645713323506" lon="8.476446195633311"><ele>149.66666666666666</ele><time>2026-05-01T07:24:49Z</time></trkpt><trkpt lat="39.63848097781802" lon="8.476482472095823"><ele>150.33333333333334</ele><time>2026-05-01T07:24:50Z</time></trkpt><trkpt lat="39.638323790739626" lon="8.476574083358955"><ele>151.0</ele><time>2026-05-01T07:24:51Z</time></trkpt><trkpt lat="39.63817610004261" lon="8.476696647654768"><ele>151.0</ele><time>2026-05-01T07:24:52Z</time></trkpt><trkpt lat="39.63803694165242" lon="8.476828335905166"><ele>151.0</ele><time>2026-05-01T07:24:53Z</time></trkpt><trkpt lat="39.63789453084251" lon="8.476951405777392"><ele>151.0</ele><time>2026-05-01T07:24:54Z</time></trkpt><trkpt lat="39.637751296953034" lon="8.477066101306464"><ele>151.66666666666669</ele><time>2026-05-01T07:24:55Z</time></trkpt><trkpt lat="39.63760807651664" lon="8.477180763871466"><ele>152.33333333333334</ele><time>2026-05-01T07:24:56Z</time></trkpt><trkpt lat="39.63746715212561" lon="8.477299418771127"><ele>153.0</ele><time>2026-05-01T07:24:57Z</time></trkpt><trkpt lat="39.63731970398071" lon="8.477397394958254"><ele>153.0</ele><time>2026-05-01T07:24:58Z</time></trkpt><trkpt lat="39.63718269821786" lon="8.477508764060875"><ele>153.0</ele><time>2026-05-01T07:24:59Z</time></trkpt><trkpt lat="39.637057072482364" lon="8.477631062196402"><ele>153.0</ele><time>2026-05-01T07:25:00Z</time></trkpt><trkpt lat="39.636924169580865" lon="8.477738499714368"><ele>153.66666666666666</ele><time>2026-05-01T07:25:01Z</time></trkpt><trkpt lat="39.63679398057017" lon="8.47784814656846"><ele>154.33333333333331</ele><time>2026-05-01T07:25:02Z</time></trkpt><trkpt lat="39.63666911214219" lon="8.477964840306898"><ele>155.0</ele><time>2026-05-01T07:25:03Z</time></trkpt><trkpt lat="39.636552624110415" lon="8.478104589508204"><ele>155.0</ele><time>2026-05-01T07:25:04Z</time></trkpt><trkpt lat="39.63644630025376" lon="8.478269522344444"><ele>155.0</ele><time>2026-05-01T07:25:05Z</time></trkpt><trkpt lat="39.636350133827754" lon="8.47844800908505"><ele>155.0</ele><time>2026-05-01T07:25:06Z</time></trkpt><trkpt lat="39.63625406129033" lon="8.478628098777556"><ele>152.66666666666666</ele><time>2026-05-01T07:25:07Z</time></trkpt><trkpt lat="39.63615620806178" lon="8.478805820455728"><ele>150.33333333333334</ele><time>2026-05-01T07:25:08Z</time></trkpt><trkpt lat="39.636046576309674" lon="8.478954958462603"><ele>148.0</ele><time>2026-05-01T07:25:09Z</time></trkpt><trkpt lat="39.63595434653345" lon="8.479075151938048"><ele>148.0</ele><time>2026-05-01T07:25:10Z</time></trkpt><trkpt lat="39.63587217314573" lon="8.479160186141266"><ele>148.0</ele><time>2026-05-01T07:25:11Z</time></trkpt><trkpt lat="39.63580559053651" lon="8.479212594759302"><ele>148.0</ele><time>2026-05-01T07:25:12Z</time></trkpt><trkpt lat="39.63570610257581" lon="8.47928624942105"><ele>148.0</ele><time>2026-05-01T07:25:14Z</time></trkpt><trkpt lat="39.63566296372058" lon="8.479494758924531"><ele>148.0</ele><time>2026-05-01T07:25:16Z</time></trkpt><trkpt lat="39.63558625950939" lon="8.47954200605838"><ele>148.0</ele><time>2026-05-01T07:25:17Z</time></trkpt><trkpt lat="39.635485560544645" lon="8.479577521494765"><ele>148.0</ele><time>2026-05-01T07:25:18Z</time></trkpt><trkpt lat="39.63538205573392" lon="8.479613687255128"><ele>148.0</ele><time>2026-05-01T07:25:19Z</time></trkpt><trkpt lat="39.63529127051639" lon="8.479684296008978"><ele>148.0</ele><time>2026-05-01T07:25:20Z</time></trkpt><trkpt lat="39.63520678194604" lon="8.479791983738211"><ele>149.0</ele><time>2026-05-01T07:25:21Z</time></trkpt><trkpt lat="39.63509241612023" lon="8.479883482914598"><ele>150.0</ele><time>2026-05-01T07:25:22Z</time></trkpt><trkpt lat="39.63497484339082" lon="8.479985476124831"><ele>151.0</ele><time>2026-05-01T07:25:23Z</time></trkpt><trkpt lat="39.63485055561787" lon="8.48007811743952"><ele>152.0</ele><time>2026-05-01T07:25:24Z</time></trkpt><trkpt lat="39.634735233372204" lon="8.4801766664138"><ele>152.0</ele><time>2026-05-01T07:25:25Z</time></trkpt><trkpt lat="39.634635331812326" lon="8.48027825828223"><ele>152.0</ele><time>2026-05-01T07:25:26Z</time></trkpt><trkpt lat="39.63456299586941" lon="8.480383860534578"><ele>152.0</ele><time>2026-05-01T07:25:27Z</time></trkpt><trkpt lat="39.63450768301174" lon="8.480469665362556"><ele>152.0</ele><time>2026-05-01T07:25:28Z</time></trkpt><trkpt lat="39.63448659485821" lon="8.48054784388669"><ele>152.0</ele><time>2026-05-01T07:25:29Z</time></trkpt><trkpt lat="39.634488149378164" lon="8.480635547859137"><ele>153.8</ele><time>2026-05-01T07:25:30Z</time></trkpt><trkpt lat="39.63446862373958" lon="8.480730953952424"><ele>155.6</ele><time>2026-05-01T07:25:31Z</time></trkpt><trkpt lat="39.634435442232444" lon="8.48082231926192"><ele>157.4</ele><time>2026-05-01T07:25:32Z</time></trkpt><trkpt lat="39.634382216726685" lon="8.480933398926034"><ele>159.20000000000002</ele><time>2026-05-01T07:25:33Z</time></trkpt><trkpt lat="39.634322044456255" lon="8.481048870101743"><ele>161.0</ele><time>2026-05-01T07:25:34Z</time></trkpt><trkpt lat="39.63426048948419" lon="8.481166499598855"><ele>158.5</ele><time>2026-05-01T07:25:35Z</time></trkpt><trkpt lat="39.63419651515031" lon="8.481288928274815"><ele>156.0</ele><time>2026-05-01T07:25:36Z</time></trkpt><trkpt lat="39.634130791284115" lon="8.481426635001059"><ele>153.5</ele><time>2026-05-01T07:25:37Z</time></trkpt><trkpt lat="39.63407916830476" lon="8.48158677082664"><ele>151.0</ele><time>2026-05-01T07:25:38Z</time></trkpt><trkpt lat="39.63398982889791" lon="8.481724177128704"><ele>151.0</ele><time>2026-05-01T07:25:39Z</time></trkpt><trkpt lat="39.63391503800961" lon="8.481867641415828"><ele>151.0</ele><time>2026-05-01T07:25:40Z</time></trkpt><trkpt lat="39.63384430173809" lon="8.48198541138887"><ele>151.0</ele><time>2026-05-01T07:25:41Z</time></trkpt><trkpt lat="39.6337584580987" lon="8.482083931451905"><ele>151.0</ele><time>2026-05-01T07:25:42Z</time></trkpt><trkpt lat="39.63365775527158" lon="8.482146226160115"><ele>152.33333333333334</ele><time>2026-05-01T07:25:43Z</time></trkpt><trkpt lat="39.63355851216611" lon="8.482203495812323"><ele>153.66666666666669</ele><time>2026-05-01T07:25:43.999Z</time></trkpt><trkpt lat="39.633458183796215" lon="8.482230382900745"><ele>155.0</ele><time>2026-05-01T07:25:44.999Z</time></trkpt><trkpt lat="39.63338652015096" lon="8.482279524291734"><ele>156.33333333333334</ele><time>2026-05-01T07:25:45.999Z</time></trkpt><trkpt lat="39.63334160631845" lon="8.482337869397057"><ele>157.66666666666666</ele><time>2026-05-01T07:25:46.999Z</time></trkpt><trkpt lat="39.63334849554054" lon="8.482445480988634"><ele>159.0</ele><time>2026-05-01T07:25:47.999Z</time></trkpt><trkpt lat="39.633320517757475" lon="8.48252004848518"><ele>159.0</ele><time>2026-05-01T07:25:48.999Z</time></trkpt><trkpt lat="39.63327870159358" lon="8.482645298062124"><ele>159.0</ele><time>2026-05-01T07:25:49.999Z</time></trkpt><trkpt lat="39.633231044883836" lon="8.482808628782013"><ele>159.0</ele><time>2026-05-01T07:25:50.999Z</time></trkpt><trkpt lat="39.63320731056414" lon="8.48298028196143"><ele>159.0</ele><time>2026-05-01T07:25:51.999Z</time></trkpt><trkpt lat="39.63320023546003" lon="8.483153654162384"><ele>159.0</ele><time>2026-05-01T07:25:52.999Z</time></trkpt><trkpt lat="39.63322627415355" lon="8.483332700844674"><ele>159.0</ele><time>2026-05-01T07:25:53.999Z</time></trkpt><trkpt lat="39.633276881574766" lon="8.483532810279765"><ele>159.0</ele><time>2026-05-01T07:25:54.999Z</time></trkpt><trkpt lat="39.63334727038465" lon="8.48376403591283"><ele>159.0</ele><time>2026-05-01T07:25:55.999Z</time></trkpt><trkpt lat="39.63340679087278" lon="8.483962856451198"><ele>159.0</ele><time>2026-05-01T07:25:56.999Z</time></trkpt><trkpt lat="39.63345371691386" lon="8.484103851641233"><ele>159.0</ele><time>2026-05-01T07:25:57.999Z</time></trkpt><trkpt lat="39.63348392794186" lon="8.484210460309264"><ele>159.0</ele><time>2026-05-01T07:25:58.999Z</time></trkpt><trkpt lat="39.633514632655825" lon="8.48430693906294"><ele>159.0</ele><time>2026-05-01T07:25:59.999Z</time></trkpt><trkpt lat="39.63353447111747" lon="8.484398960717424"><ele>159.0</ele><time>2026-05-01T07:26:00.999Z</time></trkpt><trkpt lat="39.633543229685934" lon="8.48448964173795"><ele>159.0</ele><time>2026-05-01T07:26:01.999Z</time></trkpt><trkpt lat="39.63355433853179" lon="8.484613931305624"><ele>159.0</ele><time>2026-05-01T07:26:02.999Z</time></trkpt><trkpt lat="39.633564537943776" lon="8.484771562630495"><ele>159.0</ele><time>2026-05-01T07:26:03.999Z</time></trkpt><trkpt lat="39.63359209523087" lon="8.484999751509733"><ele>160.25</ele><time>2026-05-01T07:26:04.999Z</time></trkpt><trkpt lat="39.633622402615984" lon="8.485247728457287"><ele>161.5</ele><time>2026-05-01T07:26:05.999Z</time></trkpt><trkpt lat="39.63364856850764" lon="8.485447086852739"><ele>162.75</ele><time>2026-05-01T07:26:06.999Z</time></trkpt><trkpt lat="39.6336435556322" lon="8.485563164000393"><ele>164.0</ele><time>2026-05-01T07:26:07.999Z</time></trkpt><trkpt lat="39.633641827600194" lon="8.485664764254693"><ele>162.75</ele><time>2026-05-01T07:26:08.999Z</time></trkpt><trkpt lat="39.63365356729629" lon="8.485806447929452"><ele>161.5</ele><time>2026-05-01T07:26:09.999Z</time></trkpt><trkpt lat="39.63364486727638" lon="8.485996643942132"><ele>160.25</ele><time>2026-05-01T07:26:10.999Z</time></trkpt><trkpt lat="39.63366576439933" lon="8.486217532322497"><ele>159.0</ele><time>2026-05-01T07:26:11.999Z</time></trkpt><trkpt lat="39.633688954175085" lon="8.486425525681978"><ele>159.0</ele><time>2026-05-01T07:26:12.999Z</time></trkpt><trkpt lat="39.63367041968968" lon="8.486609095399622"><ele>159.0</ele><time>2026-05-01T07:26:13.999Z</time></trkpt><trkpt lat="39.633683755148994" lon="8.486764557974366"><ele>159.0</ele><time>2026-05-01T07:26:14.999Z</time></trkpt><trkpt lat="39.63368212082443" lon="8.486913162656272"><ele>159.0</ele><time>2026-05-01T07:26:15.999Z</time></trkpt><trkpt lat="39.63368749194203" lon="8.4870847018875"><ele>160.0</ele><time>2026-05-01T07:26:16.999Z</time></trkpt><trkpt lat="39.633692593806025" lon="8.487286197992473"><ele>161.0</ele><time>2026-05-01T07:26:17.999Z</time></trkpt><trkpt lat="39.633692243510914" lon="8.487461256525199"><ele>162.0</ele><time>2026-05-01T07:26:18.999Z</time></trkpt><trkpt lat="39.63368176026989" lon="8.487617919401895"><ele>163.0</ele><time>2026-05-01T07:26:19.999Z</time></trkpt><trkpt lat="39.633700031722434" lon="8.48778019582478"><ele>163.75</ele><time>2026-05-01T07:26:20.999Z</time></trkpt><trkpt lat="39.63373405636477" lon="8.487951604341514"><ele>164.5</ele><time>2026-05-01T07:26:21.999Z</time></trkpt><trkpt lat="39.633762672616676" lon="8.488115193485365"><ele>165.25</ele><time>2026-05-01T07:26:22.999Z</time></trkpt><trkpt lat="39.633764558785614" lon="8.48826944510929"><ele>166.0</ele><time>2026-05-01T07:26:23.999Z</time></trkpt><trkpt lat="39.63377726900667" lon="8.48839176887727"><ele>166.0</ele><time>2026-05-01T07:26:24.999Z</time></trkpt><trkpt lat="39.63381916281391" lon="8.488479558476614"><ele>166.0</ele><time>2026-05-01T07:26:25.999Z</time></trkpt><trkpt lat="39.63386564398568" lon="8.488570200986803"><ele>166.0</ele><time>2026-05-01T07:26:26.999Z</time></trkpt><trkpt lat="39.633947437162554" lon="8.488707927438368"><ele>166.0</ele><time>2026-05-01T07:26:27.999Z</time></trkpt><trkpt lat="39.63402556356577" lon="8.488858296431317"><ele>166.0</ele><time>2026-05-01T07:26:28.999Z</time></trkpt><trkpt lat="39.63406461174488" lon="8.489008649257674"><ele>167.20000000000002</ele><time>2026-05-01T07:26:29.999Z</time></trkpt><trkpt lat="39.63409790008549" lon="8.489155161355825"><ele>168.4</ele><time>2026-05-01T07:26:30.999Z</time></trkpt><trkpt lat="39.634140919132015" lon="8.489273008203956"><ele>169.6</ele><time>2026-05-01T07:26:31.999Z</time></trkpt><trkpt lat="39.634201605703595" lon="8.48933791663969"><ele>170.8</ele><time>2026-05-01T07:26:32.999Z</time></trkpt><trkpt lat="39.634288914456505" lon="8.489379145253345"><ele>172.0</ele><time>2026-05-01T07:26:33.999Z</time></trkpt><trkpt lat="39.634393124637995" lon="8.489430092929613"><ele>171.83333333333334</ele><time>2026-05-01T07:26:34.999Z</time></trkpt><trkpt lat="39.63447249745266" lon="8.489515293633051"><ele>171.66666666666669</ele><time>2026-05-01T07:26:35.999Z</time></trkpt><trkpt lat="39.63451315485127" lon="8.489599202265238"><ele>171.5</ele><time>2026-05-01T07:26:36.999Z</time></trkpt><trkpt lat="39.63455712404531" lon="8.489680441018283"><ele>171.33333333333334</ele><time>2026-05-01T07:26:38Z</time></trkpt><trkpt lat="39.63460839748217" lon="8.489740579009686"><ele>171.16666666666666</ele><time>2026-05-01T07:26:39Z</time></trkpt><trkpt lat="39.63467156692977" lon="8.489769213403113"><ele>171.0</ele><time>2026-05-01T07:26:40Z</time></trkpt><trkpt lat="39.6347574012945" lon="8.489769883933015"><ele>171.0</ele><time>2026-05-01T07:26:41Z</time></trkpt><trkpt lat="39.63485489518747" lon="8.489742955292904"><ele>171.0</ele><time>2026-05-01T07:26:42Z</time></trkpt><trkpt lat="39.63494193637183" lon="8.489739721129476"><ele>171.0</ele><time>2026-05-01T07:26:43Z</time></trkpt><trkpt lat="39.63501619690344" lon="8.489785567343077"><ele>171.0</ele><time>2026-05-01T07:26:44Z</time></trkpt><trkpt lat="39.635087112772865" lon="8.48986379178626"><ele>171.0</ele><time>2026-05-01T07:26:45Z</time></trkpt><trkpt lat="39.635159697663184" lon="8.489941274413898"><ele>171.0</ele><time>2026-05-01T07:26:46Z</time></trkpt><trkpt lat="39.63523154551832" lon="8.490032247699835"><ele>171.0</ele><time>2026-05-01T07:26:47Z</time></trkpt><trkpt lat="39.6352729300432" lon="8.490120872058167"><ele>171.0</ele><time>2026-05-01T07:26:48Z</time></trkpt><trkpt lat="39.635309696312476" lon="8.490210378671781"><ele>171.0</ele><time>2026-05-01T07:26:49Z</time></trkpt><trkpt lat="39.635343644628044" lon="8.490318439076466"><ele>171.0</ele><time>2026-05-01T07:26:50Z</time></trkpt><trkpt lat="39.63536394835791" lon="8.4904298669333"><ele>171.0</ele><time>2026-05-01T07:26:51Z</time></trkpt><trkpt lat="39.635384886890044" lon="8.490558072055414"><ele>172.0</ele><time>2026-05-01T07:26:52Z</time></trkpt><trkpt lat="39.63543919727895" lon="8.490672685089203"><ele>173.0</ele><time>2026-05-01T07:26:53Z</time></trkpt><trkpt lat="39.63551713475385" lon="8.490775960753497"><ele>174.0</ele><time>2026-05-01T07:26:54Z</time></trkpt><trkpt lat="39.63559132827985" lon="8.490815629610385"><ele>175.0</ele><time>2026-05-01T07:26:55Z</time></trkpt><trkpt lat="39.63564580367519" lon="8.490867833654622"><ele>176.0</ele><time>2026-05-01T07:26:56Z</time></trkpt><trkpt lat="39.63566237145335" lon="8.490958140387372"><ele>177.0</ele><time>2026-05-01T07:26:57Z</time></trkpt><trkpt lat="39.63567503732513" lon="8.491060729376718"><ele>177.0</ele><time>2026-05-01T07:26:58Z</time></trkpt><trkpt lat="39.63569643980224" lon="8.49116036388959"><ele>177.0</ele><time>2026-05-01T07:26:59Z</time></trkpt><trkpt lat="39.635716448394575" lon="8.491265825674136"><ele>177.0</ele><time>2026-05-01T07:27:00Z</time></trkpt><trkpt lat="39.63572823430939" lon="8.491381931108714"><ele>177.0</ele><time>2026-05-01T07:27:01Z</time></trkpt><trkpt lat="39.635729729053836" lon="8.491499654804231"><ele>177.0</ele><time>2026-05-01T07:27:02Z</time></trkpt><trkpt lat="39.635724741122345" lon="8.491602786840263"><ele>177.0</ele><time>2026-05-01T07:27:03Z</time></trkpt><trkpt lat="39.63571806332844" lon="8.49169530126193"><ele>178.8</ele><time>2026-05-01T07:27:04Z</time></trkpt><trkpt lat="39.63570899247825" lon="8.49179394922099"><ele>180.6</ele><time>2026-05-01T07:27:05Z</time></trkpt><trkpt lat="39.63568099912518" lon="8.49190742550087"><ele>182.4</ele><time>2026-05-01T07:27:06Z</time></trkpt><trkpt lat="39.63564741494974" lon="8.49202662583283"><ele>184.20000000000002</ele><time>2026-05-01T07:27:07Z</time></trkpt><trkpt lat="39.63560122802908" lon="8.492137440355465"><ele>186.0</ele><time>2026-05-01T07:27:08Z</time></trkpt><trkpt lat="39.63554390620132" lon="8.492270546899604"><ele>187.20000000000002</ele><time>2026-05-01T07:27:09Z</time></trkpt><trkpt lat="39.63548082599455" lon="8.492409454285756"><ele>188.4</ele><time>2026-05-01T07:27:10Z</time></trkpt><trkpt lat="39.63541174873447" lon="8.492474460750689"><ele>189.6</ele><time>2026-05-01T07:27:11Z</time></trkpt><trkpt lat="39.63534305399441" lon="8.492524571919164"><ele>190.8</ele><time>2026-05-01T07:27:12Z</time></trkpt><trkpt lat="39.63530023451916" lon="8.492607823534094"><ele>192.0</ele><time>2026-05-01T07:27:13Z</time></trkpt><trkpt lat="39.63529104221777" lon="8.492729986462846"><ele>192.0</ele><time>2026-05-01T07:27:14Z</time></trkpt><trkpt lat="39.63525910117822" lon="8.492861108851436"><ele>192.0</ele><time>2026-05-01T07:27:15Z</time></trkpt><trkpt lat="39.63521496174059" lon="8.49299211859286"><ele>192.0</ele><time>2026-05-01T07:27:16Z</time></trkpt><trkpt lat="39.63519095542031" lon="8.493107353564184"><ele>192.0</ele><time>2026-05-01T07:27:17Z</time></trkpt><trkpt lat="39.635204201757674" lon="8.493214394315876"><ele>192.0</ele><time>2026-05-01T07:27:18Z</time></trkpt><trkpt lat="39.635236349860484" lon="8.493337240163065"><ele>193.39999999999998</ele><time>2026-05-01T07:27:19Z</time></trkpt><trkpt lat="39.635274338467894" lon="8.493473580264702"><ele>194.79999999999998</ele><time>2026-05-01T07:27:20Z</time></trkpt><trkpt lat="39.63528224667039" lon="8.493606537186237"><ele>196.2</ele><time>2026-05-01T07:27:21Z</time></trkpt><trkpt lat="39.6352537038704" lon="8.493748623038556"><ele>197.6</ele><time>2026-05-01T07:27:22Z</time></trkpt><trkpt lat="39.635222938623336" lon="8.493893871988647"><ele>199.0</ele><time>2026-05-01T07:27:23Z</time></trkpt><trkpt lat="39.635178462113586" lon="8.494041755701863"><ele>201.0</ele><time>2026-05-01T07:27:24Z</time></trkpt><trkpt lat="39.63508130027195" lon="8.494191229360355"><ele>203.0</ele><time>2026-05-01T07:27:25Z</time></trkpt><trkpt lat="39.63501426242339" lon="8.49435479670183"><ele>205.0</ele><time>2026-05-01T07:27:26Z</time></trkpt><trkpt lat="39.63496174922328" lon="8.494495304776864"><ele>207.0</ele><time>2026-05-01T07:27:27Z</time></trkpt><trkpt lat="39.634954783861694" lon="8.49461735742808"><ele>207.8</ele><time>2026-05-01T07:27:28Z</time></trkpt><trkpt lat="39.63494694163119" lon="8.494741656078748"><ele>208.6</ele><time>2026-05-01T07:27:29Z</time></trkpt><trkpt lat="39.63494563945539" lon="8.494882849554548"><ele>209.4</ele><time>2026-05-01T07:27:30Z</time></trkpt><trkpt lat="39.634939421581095" lon="8.495013978016475"><ele>210.20000000000002</ele><time>2026-05-01T07:27:31Z</time></trkpt><trkpt lat="39.6349361899293" lon="8.495126205170926"><ele>211.0</ele><time>2026-05-01T07:27:32Z</time></trkpt><trkpt lat="39.63493719404552" lon="8.495221652081238"><ele>210.99999999999997</ele><time>2026-05-01T07:27:33Z</time></trkpt><trkpt lat="39.634944911527455" lon="8.495312263140429"><ele>211.0</ele><time>2026-05-01T07:27:34Z</time></trkpt><trkpt lat="39.6349509979455" lon="8.495413743110998"><ele>211.0</ele><time>2026-05-01T07:27:35Z</time></trkpt><trkpt lat="39.634949370026646" lon="8.495501119870443"><ele>211.0</ele><time>2026-05-01T07:27:36Z</time></trkpt><trkpt lat="39.63495371657241" lon="8.49564792079969"><ele>210.99999999999997</ele><time>2026-05-01T07:27:38Z</time></trkpt><trkpt lat="39.63498968815476" lon="8.495790307546294"><ele>211.0</ele><time>2026-05-01T07:27:40Z</time></trkpt><trkpt lat="39.63507962344621" lon="8.495895072747887"><ele>213.4</ele><time>2026-05-01T07:27:42Z</time></trkpt><trkpt lat="39.63517438822335" lon="8.496007623074243"><ele>215.8</ele><time>2026-05-01T07:27:44Z</time></trkpt><trkpt lat="39.63521166858969" lon="8.496076175182715"><ele>218.20000000000002</ele><time>2026-05-01T07:27:45Z</time></trkpt><trkpt lat="39.63529463943701" lon="8.496183275896723"><ele>220.60000000000002</ele><time>2026-05-01T07:27:46.999Z</time></trkpt><trkpt lat="39.635305146561116" lon="8.496265185291092"><ele>223.0</ele><time>2026-05-01T07:27:47.999Z</time></trkpt><trkpt lat="39.6352900888626" lon="8.496412745932364"><ele>224.60000000000002</ele><time>2026-05-01T07:27:49.999Z</time></trkpt><trkpt lat="39.63523057460834" lon="8.49644044056865"><ele>226.20000000000002</ele><time>2026-05-01T07:27:50.999Z</time></trkpt><trkpt lat="39.635178164077274" lon="8.496572308479042"><ele>227.8</ele><time>2026-05-01T07:27:52.999Z</time></trkpt><trkpt lat="39.63517369686659" lon="8.496671406523056"><ele>229.4</ele><time>2026-05-01T07:27:54.999Z</time></trkpt><trkpt lat="39.63523861554622" lon="8.496775122594627"><ele>231.0</ele><time>2026-05-01T07:27:56.999Z</time></trkpt><trkpt lat="39.63533511955893" lon="8.496845182683069"><ele>231.0</ele><time>2026-05-01T07:27:58.999Z</time></trkpt><trkpt lat="39.63534270350962" lon="8.496980792798608"><ele>231.00000000000003</ele><time>2026-05-01T07:28:00.999Z</time></trkpt><trkpt lat="39.635412346504495" lon="8.49712610247326"><ele>231.00000000000003</ele><time>2026-05-01T07:28:02.999Z</time></trkpt><trkpt lat="39.635455501375745" lon="8.497199847742555"><ele>231.0</ele><time>2026-05-01T07:28:03.999Z</time></trkpt><trkpt lat="39.63548970264269" lon="8.497277696489853"><ele>231.0</ele><time>2026-05-01T07:28:04.999Z</time></trkpt><trkpt lat="39.6355065209461" lon="8.49740959929384"><ele>233.60000000000002</ele><time>2026-05-01T07:28:06.999Z</time></trkpt><trkpt lat="39.635515353990634" lon="8.497560521221606"><ele>236.20000000000002</ele><time>2026-05-01T07:28:08.999Z</time></trkpt><trkpt lat="39.63548836916249" lon="8.497636903446981"><ele>238.79999999999998</ele><time>2026-05-01T07:28:09.999Z</time></trkpt><trkpt lat="39.635447762561185" lon="8.497701689173148"><ele>241.39999999999998</ele><time>2026-05-01T07:28:10.999Z</time></trkpt><trkpt lat="39.63535334285544" lon="8.497806625192522"><ele>244.0</ele><time>2026-05-01T07:28:12.999Z</time></trkpt><trkpt lat="39.635280780876926" lon="8.497918597050544"><ele>247.0</ele><time>2026-05-01T07:28:14.999Z</time></trkpt><trkpt lat="39.63528967363597" lon="8.498017910970647"><ele>249.99999999999997</ele><time>2026-05-01T07:28:16.999Z</time></trkpt><trkpt lat="39.63537975820131" lon="8.498099317485952"><ele>252.99999999999997</ele><time>2026-05-01T07:28:18.999Z</time></trkpt><trkpt lat="39.635486941676405" lon="8.498139406918769"><ele>256.0</ele><time>2026-05-01T07:28:20.999Z</time></trkpt><trkpt lat="39.63547876967219" lon="8.498276793545282"><ele>259.0</ele><time>2026-05-01T07:28:22.999Z</time></trkpt><trkpt lat="39.63537512439865" lon="8.49836509839151"><ele>259.0</ele><time>2026-05-01T07:28:24.999Z</time></trkpt><trkpt lat="39.6352518181438" lon="8.498491160668799"><ele>259.0</ele><time>2026-05-01T07:28:26.999Z</time></trkpt><trkpt lat="39.63518565324239" lon="8.498558607863888"><ele>259.0</ele><time>2026-05-01T07:28:27.999Z</time></trkpt><trkpt lat="39.63513092867697" lon="8.498616394008767"><ele>259.0</ele><time>2026-05-01T07:28:28.999Z</time></trkpt><trkpt lat="39.63509157939193" lon="8.498763912196168"><ele>259.0</ele><time>2026-05-01T07:28:30.999Z</time></trkpt><trkpt lat="39.63509794228439" lon="8.49885668517257"><ele>260.8333333333333</ele><time>2026-05-01T07:28:31.999Z</time></trkpt><trkpt lat="39.635113182017705" lon="8.498940748886142"><ele>262.66666666666663</ele><time>2026-05-01T07:28:32.999Z</time></trkpt><trkpt lat="39.63514852894753" lon="8.499019181509679"><ele>264.5</ele><time>2026-05-01T07:28:33.999Z</time></trkpt><trkpt lat="39.63517154166597" lon="8.499105041732655"><ele>266.3333333333333</ele><time>2026-05-01T07:28:34.999Z</time></trkpt><trkpt lat="39.6352202864106" lon="8.499263823772853"><ele>268.1666666666667</ele><time>2026-05-01T07:28:36.999Z</time></trkpt><trkpt lat="39.63523530525341" lon="8.499352078902719"><ele>270.0</ele><time>2026-05-01T07:28:37.999Z</time></trkpt><trkpt lat="39.63529208109383" lon="8.499472760299891"><ele>271.6666666666667</ele><time>2026-05-01T07:28:39.999Z</time></trkpt><trkpt lat="39.635333317817825" lon="8.49953660814602"><ele>273.3333333333333</ele><time>2026-05-01T07:28:40.999Z</time></trkpt><trkpt lat="39.63536397121233" lon="8.499620162224174"><ele>275.0</ele><time>2026-05-01T07:28:41.999Z</time></trkpt><trkpt lat="39.63539590501353" lon="8.499722743684773"><ele>276.66666666666663</ele><time>2026-05-01T07:28:42.999Z</time></trkpt><trkpt lat="39.635432112424105" lon="8.499828786758082"><ele>278.3333333333333</ele><time>2026-05-01T07:28:44Z</time></trkpt><trkpt lat="39.63546368998379" lon="8.499931079709539"><ele>280.0</ele><time>2026-05-01T07:28:45Z</time></trkpt><trkpt lat="39.63550661977174" lon="8.500027291742255"><ele>281.5</ele><time>2026-05-01T07:28:46Z</time></trkpt><trkpt lat="39.63555332835564" lon="8.500109477084635"><ele>283.0</ele><time>2026-05-01T07:28:47Z</time></trkpt><trkpt lat="39.63559159643325" lon="8.50018871511588"><ele>284.5</ele><time>2026-05-01T07:28:48Z</time></trkpt><trkpt lat="39.63561343691165" lon="8.500275218315009"><ele>286.0</ele><time>2026-05-01T07:28:49Z</time></trkpt><trkpt lat="39.63561317968038" lon="8.500386290009471"><ele>287.5</ele><time>2026-05-01T07:28:50Z</time></trkpt><trkpt lat="39.635593307504884" lon="8.500511235206867"><ele>289.0</ele><time>2026-05-01T07:28:51Z</time></trkpt><trkpt lat="39.63556618624862" lon="8.500644986242683"><ele>289.0</ele><time>2026-05-01T07:28:52Z</time></trkpt><trkpt lat="39.63551743425528" lon="8.500769234897243"><ele>289.0</ele><time>2026-05-01T07:28:53Z</time></trkpt><trkpt lat="39.635460368634476" lon="8.500875331523483"><ele>289.0</ele><time>2026-05-01T07:28:54Z</time></trkpt><trkpt lat="39.63540684043599" lon="8.500971399748288"><ele>289.0</ele><time>2026-05-01T07:28:55Z</time></trkpt><trkpt lat="39.635310811745825" lon="8.501003948915336"><ele>289.0</ele><time>2026-05-01T07:28:56Z</time></trkpt><trkpt lat="39.63523554657945" lon="8.501092020269883"><ele>289.3333333333333</ele><time>2026-05-01T07:28:57Z</time></trkpt><trkpt lat="39.63517193113305" lon="8.501165402743663"><ele>289.66666666666663</ele><time>2026-05-01T07:28:58Z</time></trkpt><trkpt lat="39.63512186321398" lon="8.50125238167356"><ele>290.0</ele><time>2026-05-01T07:28:59Z</time></trkpt><trkpt lat="39.63507724878349" lon="8.501356128336445"><ele>290.3333333333333</ele><time>2026-05-01T07:29:00Z</time></trkpt><trkpt lat="39.63503922576197" lon="8.501463545215865"><ele>290.6666666666667</ele><time>2026-05-01T07:29:01Z</time></trkpt><trkpt lat="39.63501687992631" lon="8.501558358128054"><ele>291.0</ele><time>2026-05-01T07:29:02Z</time></trkpt><trkpt lat="39.63501689888304" lon="8.501646043604294"><ele>292.6</ele><time>2026-05-01T07:29:03Z</time></trkpt><trkpt lat="39.6350417053351" lon="8.50174006747605"><ele>294.20000000000005</ele><time>2026-05-01T07:29:04Z</time></trkpt><trkpt lat="39.63498912755656" lon="8.501841297343308"><ele>295.79999999999995</ele><time>2026-05-01T07:29:06Z</time></trkpt><trkpt lat="39.63487866060793" lon="8.501906287490863"><ele>297.4</ele><time>2026-05-01T07:29:08Z</time></trkpt><trkpt lat="39.63478824063078" lon="8.501996720296917"><ele>299.0</ele><time>2026-05-01T07:29:09Z</time></trkpt><trkpt lat="39.634681252640924" lon="8.502094726135612"><ele>299.0</ele><time>2026-05-01T07:29:10Z</time></trkpt><trkpt lat="39.63458759047788" lon="8.50220947546517"><ele>299.0</ele><time>2026-05-01T07:29:11Z</time></trkpt><trkpt lat="39.634517647850316" lon="8.50232731989217"><ele>299.0</ele><time>2026-05-01T07:29:12Z</time></trkpt><trkpt lat="39.634442198871334" lon="8.502430468226954"><ele>299.0</ele><time>2026-05-01T07:29:13Z</time></trkpt><trkpt lat="39.63438126974356" lon="8.502570743938612"><ele>299.5</ele><time>2026-05-01T07:29:14Z</time></trkpt><trkpt lat="39.634283382470116" lon="8.502684775284175"><ele>300.0</ele><time>2026-05-01T07:29:15Z</time></trkpt><trkpt lat="39.634193940732885" lon="8.502809781530514"><ele>300.5</ele><time>2026-05-01T07:29:16Z</time></trkpt><trkpt lat="39.6340972631599" lon="8.502936872862145"><ele>301.0</ele><time>2026-05-01T07:29:17Z</time></trkpt><trkpt lat="39.63400575199737" lon="8.503047625658915"><ele>300.0</ele><time>2026-05-01T07:29:18Z</time></trkpt><trkpt lat="39.633911299750025" lon="8.503125511552101"><ele>299.0</ele><time>2026-05-01T07:29:19Z</time></trkpt><trkpt lat="39.633839518222985" lon="8.503225651797962"><ele>298.0</ele><time>2026-05-01T07:29:20Z</time></trkpt><trkpt lat="39.633768545742186" lon="8.503306269909903"><ele>297.0</ele><time>2026-05-01T07:29:21Z</time></trkpt><trkpt lat="39.63368152124785" lon="8.503344541372467"><ele>296.0</ele><time>2026-05-01T07:29:22Z</time></trkpt><trkpt lat="39.633588690678096" lon="8.503386611273129"><ele>296.0</ele><time>2026-05-01T07:29:23Z</time></trkpt><trkpt lat="39.63348617437417" lon="8.503441626178603"><ele>296.0</ele><time>2026-05-01T07:29:24Z</time></trkpt><trkpt lat="39.63338985846787" lon="8.503493797502315"><ele>296.0</ele><time>2026-05-01T07:29:25Z</time></trkpt><trkpt lat="39.63329320105312" lon="8.503512431514041"><ele>296.0</ele><time>2026-05-01T07:29:26Z</time></trkpt><trkpt lat="39.63316717375508" lon="8.503536612023975"><ele>296.0</ele><time>2026-05-01T07:29:27Z</time></trkpt><trkpt lat="39.63304337446952" lon="8.503564397090212"><ele>296.0</ele><time>2026-05-01T07:29:28Z</time></trkpt><trkpt lat="39.63294165770498" lon="8.503590429361433"><ele>296.0</ele><time>2026-05-01T07:29:29Z</time></trkpt><trkpt lat="39.63285787217311" lon="8.503627940800323"><ele>296.0</ele><time>2026-05-01T07:29:30Z</time></trkpt><trkpt lat="39.63276600625442" lon="8.503699156395726"><ele>296.0</ele><time>2026-05-01T07:29:31Z</time></trkpt><trkpt lat="39.63265900584322" lon="8.5037868283813"><ele>296.0</ele><time>2026-05-01T07:29:32Z</time></trkpt><trkpt lat="39.632525681679176" lon="8.503879201741041"><ele>299.0</ele><time>2026-05-01T07:29:33Z</time></trkpt><trkpt lat="39.63238446031608" lon="8.503974522802428"><ele>302.0</ele><time>2026-05-01T07:29:34Z</time></trkpt><trkpt lat="39.63224563407117" lon="8.504071217503402"><ele>305.0</ele><time>2026-05-01T07:29:35Z</time></trkpt><trkpt lat="39.63211508776436" lon="8.504158970907266"><ele>305.0</ele><time>2026-05-01T07:29:36Z</time></trkpt><trkpt lat="39.632002907200715" lon="8.504220498775098"><ele>305.0</ele><time>2026-05-01T07:29:37Z</time></trkpt><trkpt lat="39.63187989672695" lon="8.504287278352265"><ele>305.0</ele><time>2026-05-01T07:29:38Z</time></trkpt><trkpt lat="39.63174533635905" lon="8.504360838100204"><ele>305.0</ele><time>2026-05-01T07:29:39Z</time></trkpt><trkpt lat="39.63161656049075" lon="8.504432830328565"><ele>304.4</ele><time>2026-05-01T07:29:40Z</time></trkpt><trkpt lat="39.63149036107181" lon="8.504509092792716"><ele>303.8</ele><time>2026-05-01T07:29:41Z</time></trkpt><trkpt lat="39.631387834861115" lon="8.504576812148768"><ele>303.2</ele><time>2026-05-01T07:29:42Z</time></trkpt><trkpt lat="39.6312959940435" lon="8.504644669503064"><ele>302.6</ele><time>2026-05-01T07:29:43Z</time></trkpt><trkpt lat="39.63122776367439" lon="8.504712746062308"><ele>302.0</ele><time>2026-05-01T07:29:44Z</time></trkpt><trkpt lat="39.63115401445138" lon="8.504779957947964"><ele>303.5</ele><time>2026-05-01T07:29:45Z</time></trkpt><trkpt lat="39.631073860015434" lon="8.504841515934782"><ele>305.0</ele><time>2026-05-01T07:29:46Z</time></trkpt><trkpt lat="39.63100081262046" lon="8.504891340485598"><ele>306.5</ele><time>2026-05-01T07:29:47Z</time></trkpt><trkpt lat="39.63092592816721" lon="8.504922266676692"><ele>308.0</ele><time>2026-05-01T07:29:48Z</time></trkpt><trkpt lat="39.63083875094892" lon="8.504923337241468"><ele>309.5</ele><time>2026-05-01T07:29:48.999Z</time></trkpt><trkpt lat="39.6307386482075" lon="8.50494619393577"><ele>311.0</ele><time>2026-05-01T07:29:49.999Z</time></trkpt><trkpt lat="39.63063918519204" lon="8.505005061857357"><ele>311.0</ele><time>2026-05-01T07:29:50.999Z</time></trkpt><trkpt lat="39.63054650078473" lon="8.505035255805844"><ele>311.0</ele><time>2026-05-01T07:29:51.999Z</time></trkpt><trkpt lat="39.63046106873583" lon="8.50506948946661"><ele>311.0</ele><time>2026-05-01T07:29:52.999Z</time></trkpt><trkpt lat="39.630379749142676" lon="8.505100634984231"><ele>311.0</ele><time>2026-05-01T07:29:53.999Z</time></trkpt><trkpt lat="39.630287492074885" lon="8.505134549623575"><ele>311.0</ele><time>2026-05-01T07:29:54.999Z</time></trkpt><trkpt lat="39.63018125701812" lon="8.50519959870317"><ele>311.75</ele><time>2026-05-01T07:29:55.999Z</time></trkpt><trkpt lat="39.63008337075986" lon="8.505279280929669"><ele>312.5</ele><time>2026-05-01T07:29:56.999Z</time></trkpt><trkpt lat="39.6300003211623" lon="8.505392753727332"><ele>313.25</ele><time>2026-05-01T07:29:57.999Z</time></trkpt><trkpt lat="39.62989590210765" lon="8.505472936407863"><ele>314.0</ele><time>2026-05-01T07:29:58.999Z</time></trkpt><trkpt lat="39.62980661383188" lon="8.505564328789227"><ele>314.0</ele><time>2026-05-01T07:29:59.999Z</time></trkpt><trkpt lat="39.629734020891185" lon="8.50564754494864"><ele>314.0</ele><time>2026-05-01T07:30:00.999Z</time></trkpt><trkpt lat="39.62968295129457" lon="8.50573581157347"><ele>314.0</ele><time>2026-05-01T07:30:01.999Z</time></trkpt><trkpt lat="39.629643434257275" lon="8.505852576535775"><ele>314.0</ele><time>2026-05-01T07:30:02.999Z</time></trkpt><trkpt lat="39.629568496935214" lon="8.505968846230951"><ele>314.0</ele><time>2026-05-01T07:30:03.999Z</time></trkpt><trkpt lat="39.6294731849901" lon="8.506104127260736"><ele>310.8</ele><time>2026-05-01T07:30:04.999Z</time></trkpt><trkpt lat="39.62939327742579" lon="8.506216603300992"><ele>307.59999999999997</ele><time>2026-05-01T07:30:05.999Z</time></trkpt><trkpt lat="39.62934448761194" lon="8.506317813938667"><ele>304.4</ele><time>2026-05-01T07:30:06.999Z</time></trkpt><trkpt lat="39.629294466171544" lon="8.50639828305572"><ele>301.2</ele><time>2026-05-01T07:30:07.999Z</time></trkpt><trkpt lat="39.62925154138125" lon="8.50648650383506"><ele>298.0</ele><time>2026-05-01T07:30:08.999Z</time></trkpt><trkpt lat="39.62920963921005" lon="8.506611302966865"><ele>298.0</ele><time>2026-05-01T07:30:09.999Z</time></trkpt><trkpt lat="39.62917302995888" lon="8.50677607171396"><ele>298.0</ele><time>2026-05-01T07:30:10.999Z</time></trkpt><trkpt lat="39.629144371923246" lon="8.506919398013505"><ele>298.0</ele><time>2026-05-01T07:30:11.999Z</time></trkpt><trkpt lat="39.62913160270855" lon="8.507029432359872"><ele>298.0</ele><time>2026-05-01T07:30:12.999Z</time></trkpt><trkpt lat="39.62914457590707" lon="8.507158985399485"><ele>298.0</ele><time>2026-05-01T07:30:13.999Z</time></trkpt><trkpt lat="39.629172307274196" lon="8.507312717082662"><ele>298.2</ele><time>2026-05-01T07:30:14.999Z</time></trkpt><trkpt lat="39.62916735620374" lon="8.507472312057951"><ele>298.4</ele><time>2026-05-01T07:30:15.999Z</time></trkpt><trkpt lat="39.62918764743952" lon="8.507622553100468"><ele>298.59999999999997</ele><time>2026-05-01T07:30:16.999Z</time></trkpt><trkpt lat="39.62919980845388" lon="8.507758181588091"><ele>298.8</ele><time>2026-05-01T07:30:17.999Z</time></trkpt><trkpt lat="39.629210984151754" lon="8.507874661090867"><ele>299.0</ele><time>2026-05-01T07:30:18.999Z</time></trkpt><trkpt lat="39.629194730866665" lon="8.507978944345046"><ele>299.0</ele><time>2026-05-01T07:30:19.999Z</time></trkpt><trkpt lat="39.62913473236642" lon="8.508093478662062"><ele>299.0</ele><time>2026-05-01T07:30:21.999Z</time></trkpt><trkpt lat="39.62907771596022" lon="8.508146653329373"><ele>299.0</ele><time>2026-05-01T07:30:22.999Z</time></trkpt><trkpt lat="39.62900297403538" lon="8.50815963090571"><ele>299.0</ele><time>2026-05-01T07:30:23.999Z</time></trkpt><trkpt lat="39.628934082372695" lon="8.508216957829065"><ele>299.0</ele><time>2026-05-01T07:30:24.999Z</time></trkpt><trkpt lat="39.628864603437535" lon="8.508267874438818"><ele>299.0</ele><time>2026-05-01T07:30:25.999Z</time></trkpt><trkpt lat="39.62880733983122" lon="8.508341764055622"><ele>299.0</ele><time>2026-05-01T07:30:26.999Z</time></trkpt><trkpt lat="39.62874423481823" lon="8.508403753837692"><ele>299.0</ele><time>2026-05-01T07:30:27.999Z</time></trkpt><trkpt lat="39.628652319037535" lon="8.508390696145403"><ele>299.0</ele><time>2026-05-01T07:30:29.999Z</time></trkpt><trkpt lat="39.62855828858413" lon="8.508398510581863"><ele>299.0</ele><time>2026-05-01T07:30:31.999Z</time></trkpt><trkpt lat="39.6285166218337" lon="8.508460949829397"><ele>299.0</ele><time>2026-05-01T07:30:32.999Z</time></trkpt><trkpt lat="39.6284451920775" lon="8.508543194041446"><ele>299.0</ele><time>2026-05-01T07:30:34.999Z</time></trkpt><trkpt lat="39.62839399229408" lon="8.508605377778068"><ele>299.0</ele><time>2026-05-01T07:30:35.999Z</time></trkpt><trkpt lat="39.628357627745274" lon="8.508679906376692"><ele>299.0</ele><time>2026-05-01T07:30:36.999Z</time></trkpt><trkpt lat="39.6283187670697" lon="8.508833613483425"><ele>299.0</ele><time>2026-05-01T07:30:38.999Z</time></trkpt><trkpt lat="39.628262345605286" lon="8.50892538882311"><ele>299.0</ele><time>2026-05-01T07:30:40.999Z</time></trkpt><trkpt lat="39.62816830962745" lon="8.508985752637122"><ele>299.0</ele><time>2026-05-01T07:30:42.999Z</time></trkpt><trkpt lat="39.62806269438679" lon="8.508957585270387"><ele>299.0</ele><time>2026-05-01T07:30:44.999Z</time></trkpt><trkpt lat="39.62796091617201" lon="8.50889989107191"><ele>299.0</ele><time>2026-05-01T07:30:46.999Z</time></trkpt><trkpt lat="39.62794727882054" lon="8.508815729583445"><ele>299.0</ele><time>2026-05-01T07:30:47.999Z</time></trkpt><trkpt lat="39.627880982902944" lon="8.508679759696813"><ele>299.0</ele><time>2026-05-01T07:30:50Z</time></trkpt><trkpt lat="39.62783837662335" lon="8.508577235883408"><ele>299.0</ele><time>2026-05-01T07:30:52Z</time></trkpt><trkpt lat="39.62777095269918" lon="8.50849341234539"><ele>298.8</ele><time>2026-05-01T07:30:54Z</time></trkpt><trkpt lat="39.627655758605094" lon="8.508549098974612"><ele>298.59999999999997</ele><time>2026-05-01T07:30:56Z</time></trkpt><trkpt lat="39.627564507747856" lon="8.508670262821655"><ele>298.4</ele><time>2026-05-01T07:30:58Z</time></trkpt><trkpt lat="39.62752564210202" lon="8.508765280197833"><ele>298.2</ele><time>2026-05-01T07:30:59Z</time></trkpt><trkpt lat="39.6274842347845" lon="8.508875513607938"><ele>298.0</ele><time>2026-05-01T07:31:00Z</time></trkpt><trkpt lat="39.62745189148624" lon="8.508965590430165"><ele>298.0</ele><time>2026-05-01T07:31:01Z</time></trkpt><trkpt lat="39.627418114973665" lon="8.509050502168412"><ele>298.0</ele><time>2026-05-01T07:31:02Z</time></trkpt><trkpt lat="39.62731667153106" lon="8.509122639392286"><ele>298.0</ele><time>2026-05-01T07:31:04Z</time></trkpt><trkpt lat="39.6272641566206" lon="8.509171370882136"><ele>298.0</ele><time>2026-05-01T07:31:05Z</time></trkpt><trkpt lat="39.62720816084733" lon="8.509220016592305"><ele>298.0</ele><time>2026-05-01T07:31:06Z</time></trkpt><trkpt lat="39.62714595723592" lon="8.509274191322541"><ele>298.0</ele><time>2026-05-01T07:31:07Z</time></trkpt><trkpt lat="39.62706933840755" lon="8.509369779301762"><ele>298.0</ele><time>2026-05-01T07:31:09Z</time></trkpt><trkpt lat="39.62701286270394" lon="8.509470896709802"><ele>298.0</ele><time>2026-05-01T07:31:11Z</time></trkpt><trkpt lat="39.62692494078423" lon="8.50938276150548"><ele>298.0</ele><time>2026-05-01T07:31:14Z</time></trkpt><trkpt lat="39.62686182237051" lon="8.509329428203683"><ele>298.0</ele><time>2026-05-01T07:31:15Z</time></trkpt><trkpt lat="39.626778213592345" lon="8.509270438053946"><ele>298.0</ele><time>2026-05-01T07:31:16Z</time></trkpt><trkpt lat="39.62666516757413" lon="8.509270117025443"><ele>296.5</ele><time>2026-05-01T07:31:17Z</time></trkpt><trkpt lat="39.626545692435684" lon="8.509239076573474"><ele>295.0</ele><time>2026-05-01T07:31:18Z</time></trkpt><trkpt lat="39.626413344871764" lon="8.509238034866016"><ele>293.5</ele><time>2026-05-01T07:31:19Z</time></trkpt><trkpt lat="39.6262754378777" lon="8.509257503599466"><ele>292.0</ele><time>2026-05-01T07:31:20Z</time></trkpt><trkpt lat="39.626128301623545" lon="8.509353368769963"><ele>290.25</ele><time>2026-05-01T07:31:21Z</time></trkpt><trkpt lat="39.62596776619037" lon="8.50939531914141"><ele>288.5</ele><time>2026-05-01T07:31:22Z</time></trkpt><trkpt lat="39.62582898943811" lon="8.509443322843888"><ele>286.75</ele><time>2026-05-01T07:31:23Z</time></trkpt><trkpt lat="39.62570199112954" lon="8.509485379377539"><ele>285.0</ele><time>2026-05-01T07:31:24Z</time></trkpt><trkpt lat="39.62560024520183" lon="8.509567015136227"><ele>285.5</ele><time>2026-05-01T07:31:25Z</time></trkpt><trkpt lat="39.625506319907586" lon="8.509661613213668"><ele>286.0</ele><time>2026-05-01T07:31:26Z</time></trkpt><trkpt lat="39.62543499700511" lon="8.50978121749221"><ele>286.5</ele><time>2026-05-01T07:31:27Z</time></trkpt><trkpt lat="39.62538124606844" lon="8.509919291404318"><ele>287.0</ele><time>2026-05-01T07:31:28Z</time></trkpt><trkpt lat="39.625311148759025" lon="8.510039458154637"><ele>283.25</ele><time>2026-05-01T07:31:29Z</time></trkpt><trkpt lat="39.62525078431089" lon="8.510157386487396"><ele>279.5</ele><time>2026-05-01T07:31:30Z</time></trkpt><trkpt lat="39.62517004220104" lon="8.510244013304789"><ele>275.75</ele><time>2026-05-01T07:31:31Z</time></trkpt><trkpt lat="39.62506277918929" lon="8.510317620303635"><ele>272.0</ele><time>2026-05-01T07:31:32Z</time></trkpt><trkpt lat="39.62494966367076" lon="8.51040478451648"><ele>274.0</ele><time>2026-05-01T07:31:33Z</time></trkpt><trkpt lat="39.62483354578812" lon="8.510502930923105"><ele>276.0</ele><time>2026-05-01T07:31:34Z</time></trkpt><trkpt lat="39.62473769264593" lon="8.510625950208631"><ele>278.0</ele><time>2026-05-01T07:31:35Z</time></trkpt><trkpt lat="39.624648069357214" lon="8.510749671583937"><ele>280.0</ele><time>2026-05-01T07:31:36Z</time></trkpt><trkpt lat="39.62457237591574" lon="8.510888114275735"><ele>280.0</ele><time>2026-05-01T07:31:37Z</time></trkpt><trkpt lat="39.624502091885944" lon="8.511028744048689"><ele>280.0</ele><time>2026-05-01T07:31:38Z</time></trkpt><trkpt lat="39.62444878827018" lon="8.511177810562883"><ele>280.0</ele><time>2026-05-01T07:31:39Z</time></trkpt><trkpt lat="39.62441043765202" lon="8.511335870432768"><ele>280.0</ele><time>2026-05-01T07:31:40Z</time></trkpt><trkpt lat="39.62437930835946" lon="8.511483300367154"><ele>276.6</ele><time>2026-05-01T07:31:41Z</time></trkpt><trkpt lat="39.62434289344196" lon="8.511595521099807"><ele>273.2</ele><time>2026-05-01T07:31:42Z</time></trkpt><trkpt lat="39.624277200457755" lon="8.511646159789217"><ele>269.8</ele><time>2026-05-01T07:31:43Z</time></trkpt><trkpt lat="39.6242112213809" lon="8.511687340165706"><ele>266.4</ele><time>2026-05-01T07:31:44Z</time></trkpt><trkpt lat="39.62410540713184" lon="8.51164059006998"><ele>263.0</ele><time>2026-05-01T07:31:45Z</time></trkpt><trkpt lat="39.62398622939199" lon="8.51165516441975"><ele>263.0</ele><time>2026-05-01T07:31:46Z</time></trkpt><trkpt lat="39.62389759386636" lon="8.511664825060024"><ele>263.0</ele><time>2026-05-01T07:31:47Z</time></trkpt><trkpt lat="39.62383210331027" lon="8.511620380371664"><ele>263.0</ele><time>2026-05-01T07:31:49Z</time></trkpt><trkpt lat="39.62387136187645" lon="8.51152988956191"><ele>263.0</ele><time>2026-05-01T07:31:50Z</time></trkpt><trkpt lat="39.62390764556566" lon="8.511422629810706"><ele>263.0</ele><time>2026-05-01T07:31:51Z</time></trkpt><trkpt lat="39.6239168682689" lon="8.511289765267678"><ele>263.0</ele><time>2026-05-01T07:31:52Z</time></trkpt><trkpt lat="39.62391087479348" lon="8.511149629985649"><ele>261.4</ele><time>2026-05-01T07:31:53Z</time></trkpt><trkpt lat="39.623920677488556" lon="8.510996155422077"><ele>259.8</ele><time>2026-05-01T07:31:53.999Z</time></trkpt><trkpt lat="39.62394210615697" lon="8.510851817883358"><ele>258.2</ele><time>2026-05-01T07:31:54.999Z</time></trkpt><trkpt lat="39.623937026914106" lon="8.51074058605352"><ele>256.6</ele><time>2026-05-01T07:31:55.999Z</time></trkpt><trkpt lat="39.62389652116373" lon="8.510636659217305"><ele>255.0</ele><time>2026-05-01T07:31:57.999Z</time></trkpt><trkpt lat="39.62381339724586" lon="8.510658117993371"><ele>255.0</ele><time>2026-05-01T07:31:58.999Z</time></trkpt><trkpt lat="39.6237761174317" lon="8.510802217218863"><ele>255.0</ele><time>2026-05-01T07:31:59.999Z</time></trkpt><trkpt lat="39.623717005117456" lon="8.510904888363388"><ele>255.0</ele><time>2026-05-01T07:32:00.999Z</time></trkpt><trkpt lat="39.623641648236415" lon="8.511009471594589"><ele>255.0</ele><time>2026-05-01T07:32:01.999Z</time></trkpt><trkpt lat="39.623539523168056" lon="8.511093216680798"><ele>255.0</ele><time>2026-05-01T07:32:02.999Z</time></trkpt><trkpt lat="39.62342513850331" lon="8.511162111568263"><ele>253.5</ele><time>2026-05-01T07:32:03.999Z</time></trkpt><trkpt lat="39.623311960035295" lon="8.511218386290857"><ele>252.0</ele><time>2026-05-01T07:32:04.999Z</time></trkpt><trkpt lat="39.62319071264526" lon="8.511277649631786"><ele>250.5</ele><time>2026-05-01T07:32:05.999Z</time></trkpt><trkpt lat="39.623063308728455" lon="8.511336218216183"><ele>249.0</ele><time>2026-05-01T07:32:06.999Z</time></trkpt><trkpt lat="39.622941743423794" lon="8.511387134832859"><ele>249.0</ele><time>2026-05-01T07:32:07.999Z</time></trkpt><trkpt lat="39.62283128279573" lon="8.511463131086828"><ele>249.0</ele><time>2026-05-01T07:32:08.999Z</time></trkpt><trkpt lat="39.62271407048724" lon="8.511534344854274"><ele>249.0</ele><time>2026-05-01T07:32:09.999Z</time></trkpt><trkpt lat="39.62261051572455" lon="8.511641562577644"><ele>249.0</ele><time>2026-05-01T07:32:10.999Z</time></trkpt><trkpt lat="39.6225029448148" lon="8.511767463295875"><ele>245.75</ele><time>2026-05-01T07:32:11.999Z</time></trkpt><trkpt lat="39.62239359847195" lon="8.511876846316836"><ele>242.5</ele><time>2026-05-01T07:32:12.999Z</time></trkpt><trkpt lat="39.62228155434435" lon="8.511964281849423"><ele>239.25</ele><time>2026-05-01T07:32:13.999Z</time></trkpt><trkpt lat="39.62219030048311" lon="8.512066413446139"><ele>236.0</ele><time>2026-05-01T07:32:14.999Z</time></trkpt><trkpt lat="39.62212066689262" lon="8.512210527073757"><ele>236.0</ele><time>2026-05-01T07:32:15.999Z</time></trkpt><trkpt lat="39.62204954247306" lon="8.512386979098252"><ele>236.0</ele><time>2026-05-01T07:32:16.999Z</time></trkpt><trkpt lat="39.621972167917875" lon="8.512551142181097"><ele>236.0</ele><time>2026-05-01T07:32:17.999Z</time></trkpt><trkpt lat="39.621895428940476" lon="8.512702362413059"><ele>236.0</ele><time>2026-05-01T07:32:18.999Z</time></trkpt><trkpt lat="39.62182393752692" lon="8.512849021218706"><ele>231.75</ele><time>2026-05-01T07:32:19.999Z</time></trkpt><trkpt lat="39.621763510388895" lon="8.512998699036695"><ele>227.5</ele><time>2026-05-01T07:32:20.999Z</time></trkpt><trkpt lat="39.62170027498" lon="8.513127825098614"><ele>223.25</ele><time>2026-05-01T07:32:21.999Z</time></trkpt><trkpt lat="39.62161784584002" lon="8.513228991205002"><ele>219.0</ele><time>2026-05-01T07:32:22.999Z</time></trkpt><trkpt lat="39.62151370342177" lon="8.51332687541489"><ele>219.0</ele><time>2026-05-01T07:32:23.999Z</time></trkpt><trkpt lat="39.621406538693975" lon="8.513444788969371"><ele>219.0</ele><time>2026-05-01T07:32:24.999Z</time></trkpt><trkpt lat="39.621325415177616" lon="8.513584776146773"><ele>219.0</ele><time>2026-05-01T07:32:25.999Z</time></trkpt><trkpt lat="39.62126347185558" lon="8.513733362775701"><ele>219.0</ele><time>2026-05-01T07:32:26.999Z</time></trkpt><trkpt lat="39.62120286560675" lon="8.513876057352375"><ele>218.5</ele><time>2026-05-01T07:32:27.999Z</time></trkpt><trkpt lat="39.621144294810236" lon="8.513996467820673"><ele>218.0</ele><time>2026-05-01T07:32:28.999Z</time></trkpt><trkpt lat="39.621101290689985" lon="8.514057816717134"><ele>217.5</ele><time>2026-05-01T07:32:29.999Z</time></trkpt><trkpt lat="39.62101806588122" lon="8.514077787358103"><ele>217.0</ele><time>2026-05-01T07:32:31.999Z</time></trkpt><trkpt lat="39.62094631877898" lon="8.513972871998968"><ele>216.5</ele><time>2026-05-01T07:32:33.999Z</time></trkpt><trkpt lat="39.620928039166465" lon="8.51387679694063"><ele>216.0</ele><time>2026-05-01T07:32:34.999Z</time></trkpt><trkpt lat="39.62091813343795" lon="8.513759179251657"><ele>215.60000000000002</ele><time>2026-05-01T07:32:35.999Z</time></trkpt><trkpt lat="39.62089879665861" lon="8.513621984944404"><ele>215.20000000000002</ele><time>2026-05-01T07:32:36.999Z</time></trkpt><trkpt lat="39.62087505454161" lon="8.513476822320984"><ele>214.79999999999998</ele><time>2026-05-01T07:32:37.999Z</time></trkpt><trkpt lat="39.62085570191387" lon="8.51333724424057"><ele>214.39999999999998</ele><time>2026-05-01T07:32:38.999Z</time></trkpt><trkpt lat="39.62083526830835" lon="8.513219073861885"><ele>214.0</ele><time>2026-05-01T07:32:39.999Z</time></trkpt><trkpt lat="39.62079565634471" lon="8.513106048193128"><ele>214.0</ele><time>2026-05-01T07:32:40.999Z</time></trkpt><trkpt lat="39.62072641571299" lon="8.512994115121671"><ele>214.0</ele><time>2026-05-01T07:32:41.999Z</time></trkpt><trkpt lat="39.620644494898485" lon="8.512894939147198"><ele>214.0</ele><time>2026-05-01T07:32:42.999Z</time></trkpt><trkpt lat="39.62056526995346" lon="8.5127772981408"><ele>214.0</ele><time>2026-05-01T07:32:43.999Z</time></trkpt><trkpt lat="39.620498544776396" lon="8.512641603512744"><ele>211.75</ele><time>2026-05-01T07:32:44.999Z</time></trkpt><trkpt lat="39.620445091873215" lon="8.512487041253268"><ele>209.5</ele><time>2026-05-01T07:32:45.999Z</time></trkpt><trkpt lat="39.62040243952788" lon="8.512320595568244"><ele>207.25</ele><time>2026-05-01T07:32:46.999Z</time></trkpt><trkpt lat="39.62037072299105" lon="8.512148735275453"><ele>205.0</ele><time>2026-05-01T07:32:47.999Z</time></trkpt><trkpt lat="39.620342026999275" lon="8.511972183659923"><ele>212.5</ele><time>2026-05-01T07:32:48.999Z</time></trkpt><trkpt lat="39.620311610847494" lon="8.511794513019188"><ele>220.0</ele><time>2026-05-01T07:32:49.999Z</time></trkpt><trkpt lat="39.620270659562024" lon="8.511616472350891"><ele>227.5</ele><time>2026-05-01T07:32:50.999Z</time></trkpt><trkpt lat="39.620228116706" lon="8.511446427177036"><ele>235.0</ele><time>2026-05-01T07:32:51.999Z</time></trkpt><trkpt lat="39.620167562537844" lon="8.511277068585954"><ele>233.4</ele><time>2026-05-01T07:32:52.999Z</time></trkpt><trkpt lat="39.62009686166179" lon="8.511125259709782"><ele>231.8</ele><time>2026-05-01T07:32:53.999Z</time></trkpt><trkpt lat="39.620046029130734" lon="8.51099973969264"><ele>230.2</ele><time>2026-05-01T07:32:55Z</time></trkpt><trkpt lat="39.620016744878086" lon="8.510892002587642"><ele>228.6</ele><time>2026-05-01T07:32:56Z</time></trkpt><trkpt lat="39.619994282433716" lon="8.51077194014875"><ele>227.0</ele><time>2026-05-01T07:32:58Z</time></trkpt><trkpt lat="39.61991618389032" lon="8.510789241173"><ele>227.0</ele><time>2026-05-01T07:33:00Z</time></trkpt><trkpt lat="39.61989937200905" lon="8.510950477662844"><ele>227.0</ele><time>2026-05-01T07:33:02Z</time></trkpt><trkpt lat="39.619929103220585" lon="8.51107296081898"><ele>227.0</ele><time>2026-05-01T07:33:03Z</time></trkpt><trkpt lat="39.61996252775637" lon="8.511219802418065"><ele>227.0</ele><time>2026-05-01T07:33:04Z</time></trkpt><trkpt lat="39.61999331557898" lon="8.511387819572702"><ele>229.0</ele><time>2026-05-01T07:33:05Z</time></trkpt><trkpt lat="39.62001382445536" lon="8.5115582202534"><ele>231.0</ele><time>2026-05-01T07:33:06Z</time></trkpt><trkpt lat="39.62002032295725" lon="8.51171699742185"><ele>233.0</ele><time>2026-05-01T07:33:07Z</time></trkpt><trkpt lat="39.62000457787358" lon="8.511874277254828"><ele>235.0</ele><time>2026-05-01T07:33:08Z</time></trkpt><trkpt lat="39.61996691451583" lon="8.512038718105142"><ele>234.25</ele><time>2026-05-01T07:33:09Z</time></trkpt><trkpt lat="39.61991036390282" lon="8.512213305597616"><ele>233.5</ele><time>2026-05-01T07:33:10Z</time></trkpt><trkpt lat="39.61984502387555" lon="8.512380275319359"><ele>232.75</ele><time>2026-05-01T07:33:11Z</time></trkpt><trkpt lat="39.61979715137923" lon="8.512544220277467"><ele>232.0</ele><time>2026-05-01T07:33:12Z</time></trkpt><trkpt lat="39.619778463347586" lon="8.512720153514453"><ele>232.0</ele><time>2026-05-01T07:33:13Z</time></trkpt><trkpt lat="39.61977873961331" lon="8.512903764698258"><ele>232.0</ele><time>2026-05-01T07:33:14Z</time></trkpt><trkpt lat="39.61979328468021" lon="8.513060776415454"><ele>232.0</ele><time>2026-05-01T07:33:15Z</time></trkpt><trkpt lat="39.61981912977626" lon="8.513187791944883"><ele>232.0</ele><time>2026-05-01T07:33:16Z</time></trkpt><trkpt lat="39.61983624965342" lon="8.513297494268754"><ele>232.6</ele><time>2026-05-01T07:33:17Z</time></trkpt><trkpt lat="39.61981807882285" lon="8.513384232758069"><ele>233.2</ele><time>2026-05-01T07:33:18Z</time></trkpt><trkpt lat="39.61977174688308" lon="8.513441332426584"><ele>233.8</ele><time>2026-05-01T07:33:19Z</time></trkpt><trkpt lat="39.619670259874944" lon="8.513411169686067"><ele>234.4</ele><time>2026-05-01T07:33:21Z</time></trkpt><trkpt lat="39.61964083320582" lon="8.5132332844907"><ele>235.0</ele><time>2026-05-01T07:33:23Z</time></trkpt><trkpt lat="39.619632073739034" lon="8.51310244167043"><ele>235.0</ele><time>2026-05-01T07:33:24Z</time></trkpt><trkpt lat="39.61960408455021" lon="8.51294096309234"><ele>235.0</ele><time>2026-05-01T07:33:25Z</time></trkpt><trkpt lat="39.61956788689373" lon="8.512763695312701"><ele>235.0</ele><time>2026-05-01T07:33:26Z</time></trkpt><trkpt lat="39.61953750166404" lon="8.512573429601124"><ele>235.0</ele><time>2026-05-01T07:33:27Z</time></trkpt><trkpt lat="39.61952856410392" lon="8.512404884481018"><ele>235.0</ele><time>2026-05-01T07:33:28Z</time></trkpt><trkpt lat="39.619540838189685" lon="8.512247118112978"><ele>235.0</ele><time>2026-05-01T07:33:29Z</time></trkpt><trkpt lat="39.619575369971514" lon="8.512099060403228"><ele>235.0</ele><time>2026-05-01T07:33:30Z</time></trkpt><trkpt lat="39.6196096373971" lon="8.511975701928103"><ele>235.0</ele><time>2026-05-01T07:33:31Z</time></trkpt><trkpt lat="39.61960157649732" lon="8.51184152786707"><ele>235.0</ele><time>2026-05-01T07:33:32Z</time></trkpt><trkpt lat="39.619557172391964" lon="8.511692945902961"><ele>235.0</ele><time>2026-05-01T07:33:33Z</time></trkpt><trkpt lat="39.619504831176236" lon="8.511537938834719"><ele>235.0</ele><time>2026-05-01T07:33:34Z</time></trkpt><trkpt lat="39.61945050767789" lon="8.511390241246467"><ele>235.0</ele><time>2026-05-01T07:33:35Z</time></trkpt><trkpt lat="39.6193989046474" lon="8.511258395628538"><ele>235.0</ele><time>2026-05-01T07:33:36Z</time></trkpt><trkpt lat="39.61933785695988" lon="8.511155453842065"><ele>237.49999999999997</ele><time>2026-05-01T07:33:37Z</time></trkpt><trkpt lat="39.61926710897501" lon="8.51108748433993"><ele>240.0</ele><time>2026-05-01T07:33:38Z</time></trkpt><trkpt lat="39.619190761233845" lon="8.511055146982859"><ele>242.5</ele><time>2026-05-01T07:33:39Z</time></trkpt><trkpt lat="39.619116253443075" lon="8.511064335985791"><ele>245.0</ele><time>2026-05-01T07:33:40Z</time></trkpt><trkpt lat="39.6190391901179" lon="8.511097706257392"><ele>247.49999999999997</ele><time>2026-05-01T07:33:41Z</time></trkpt><trkpt lat="39.61895365519414" lon="8.511153936014566"><ele>250.0</ele><time>2026-05-01T07:33:42Z</time></trkpt><trkpt lat="39.618844503308885" lon="8.511214451495265"><ele>252.25</ele><time>2026-05-01T07:33:43Z</time></trkpt><trkpt lat="39.6187318563629" lon="8.511244574806007"><ele>254.5</ele><time>2026-05-01T07:33:44Z</time></trkpt><trkpt lat="39.61861609697644" lon="8.511248780804953"><ele>256.75</ele><time>2026-05-01T07:33:45Z</time></trkpt><trkpt lat="39.618494630238594" lon="8.511250816781676"><ele>259.0</ele><time>2026-05-01T07:33:46Z</time></trkpt><trkpt lat="39.61834998783904" lon="8.511270582116465"><ele>263.0</ele><time>2026-05-01T07:33:47Z</time></trkpt><trkpt lat="39.618195166113544" lon="8.511310999274414"><ele>267.0</ele><time>2026-05-01T07:33:48Z</time></trkpt><trkpt lat="39.61802565673447" lon="8.511351112670697"><ele>271.0</ele><time>2026-05-01T07:33:49Z</time></trkpt><trkpt lat="39.617847857077656" lon="8.5114036858218"><ele>271.3333333333333</ele><time>2026-05-01T07:33:50Z</time></trkpt><trkpt lat="39.617681311370305" lon="8.511465888615094"><ele>271.6666666666667</ele><time>2026-05-01T07:33:51Z</time></trkpt><trkpt lat="39.61753631571688" lon="8.511526698933167"><ele>272.0</ele><time>2026-05-01T07:33:52Z</time></trkpt><trkpt lat="39.61740138815796" lon="8.51159640424562"><ele>272.0</ele><time>2026-05-01T07:33:53Z</time></trkpt><trkpt lat="39.617288734020214" lon="8.511654585571154"><ele>272.0</ele><time>2026-05-01T07:33:54Z</time></trkpt><trkpt lat="39.617179460716955" lon="8.511673891186005"><ele>272.0</ele><time>2026-05-01T07:33:55Z</time></trkpt><trkpt lat="39.61706935994711" lon="8.51168813394406"><ele>272.0</ele><time>2026-05-01T07:33:56Z</time></trkpt><trkpt lat="39.61695915780246" lon="8.511737639371079"><ele>271.0</ele><time>2026-05-01T07:33:57Z</time></trkpt><trkpt lat="39.616832504445874" lon="8.511820176683136"><ele>270.0</ele><time>2026-05-01T07:33:57.999Z</time></trkpt><trkpt lat="39.61670281265454" lon="8.511916226148221"><ele>269.0</ele><time>2026-05-01T07:33:58.999Z</time></trkpt><trkpt lat="39.616610466699036" lon="8.512010430647944"><ele>268.0</ele><time>2026-05-01T07:33:59.999Z</time></trkpt><trkpt lat="39.616540073323364" lon="8.512105481064001"><ele>273.2</ele><time>2026-05-01T07:34:00.999Z</time></trkpt><trkpt lat="39.61647112559884" lon="8.512193182391108"><ele>278.4</ele><time>2026-05-01T07:34:01.999Z</time></trkpt><trkpt lat="39.616391861923994" lon="8.51225803122159"><ele>283.59999999999997</ele><time>2026-05-01T07:34:02.999Z</time></trkpt><trkpt lat="39.616295056747944" lon="8.512303838394278"><ele>288.8</ele><time>2026-05-01T07:34:03.999Z</time></trkpt><trkpt lat="39.6161943880685" lon="8.51231173679417"><ele>294.0</ele><time>2026-05-01T07:34:04.999Z</time></trkpt><trkpt lat="39.61610040014565" lon="8.512285196532137"><ele>294.0</ele><time>2026-05-01T07:34:05.999Z</time></trkpt><trkpt lat="39.61599661074091" lon="8.512234700836247"><ele>294.0</ele><time>2026-05-01T07:34:06.999Z</time></trkpt><trkpt lat="39.61587467077525" lon="8.512190076975257"><ele>294.0</ele><time>2026-05-01T07:34:07.999Z</time></trkpt><trkpt lat="39.61575689044751" lon="8.512165994508683"><ele>294.0</ele><time>2026-05-01T07:34:08.999Z</time></trkpt><trkpt lat="39.61565754896291" lon="8.512139353347719"><ele>294.0</ele><time>2026-05-01T07:34:09.999Z</time></trkpt><trkpt lat="39.61552703901905" lon="8.512126082073006"><ele>294.0</ele><time>2026-05-01T07:34:10.999Z</time></trkpt><trkpt lat="39.61539286386301" lon="8.51211534274803"><ele>294.0</ele><time>2026-05-01T07:34:11.999Z</time></trkpt><trkpt lat="39.61525702029196" lon="8.512102130980116"><ele>294.0</ele><time>2026-05-01T07:34:12.999Z</time></trkpt><trkpt lat="39.61513698168153" lon="8.512103282437229"><ele>296.25</ele><time>2026-05-01T07:34:13.999Z</time></trkpt><trkpt lat="39.615017471023194" lon="8.512132658917524"><ele>298.5</ele><time>2026-05-01T07:34:14.999Z</time></trkpt><trkpt lat="39.614891676854015" lon="8.512174959707787"><ele>300.75</ele><time>2026-05-01T07:34:15.999Z</time></trkpt><trkpt lat="39.614749832556136" lon="8.512223289627718"><ele>303.0</ele><time>2026-05-01T07:34:16.999Z</time></trkpt><trkpt lat="39.61460885491923" lon="8.512257737456014"><ele>303.0</ele><time>2026-05-01T07:34:17.999Z</time></trkpt><trkpt lat="39.61449924910861" lon="8.512278745795635"><ele>303.0</ele><time>2026-05-01T07:34:18.999Z</time></trkpt><trkpt lat="39.614410194049555" lon="8.512324992682984"><ele>303.0</ele><time>2026-05-01T07:34:19.999Z</time></trkpt><trkpt lat="39.614325506202825" lon="8.512398627446773"><ele>303.0</ele><time>2026-05-01T07:34:20.999Z</time></trkpt><trkpt lat="39.61424525929057" lon="8.512489450651413"><ele>303.0</ele><time>2026-05-01T07:34:21.999Z</time></trkpt><trkpt lat="39.614155735519155" lon="8.512610694242493"><ele>302.0</ele><time>2026-05-01T07:34:22.999Z</time></trkpt><trkpt lat="39.61405300213184" lon="8.51277284796223"><ele>301.0</ele><time>2026-05-01T07:34:23.999Z</time></trkpt><trkpt lat="39.61395194274459" lon="8.512931559034236"><ele>300.0</ele><time>2026-05-01T07:34:24.999Z</time></trkpt><trkpt lat="39.61387840840604" lon="8.513033827848226"><ele>299.0</ele><time>2026-05-01T07:34:25.999Z</time></trkpt><trkpt lat="39.613808204102384" lon="8.513089127974219"><ele>301.8</ele><time>2026-05-01T07:34:26.999Z</time></trkpt><trkpt lat="39.613723263798136" lon="8.51309813950078"><ele>304.59999999999997</ele><time>2026-05-01T07:34:27.999Z</time></trkpt><trkpt lat="39.6136209185156" lon="8.513083915040058"><ele>307.4</ele><time>2026-05-01T07:34:28.999Z</time></trkpt><trkpt lat="39.613516212790884" lon="8.51303798464394"><ele>310.2</ele><time>2026-05-01T07:34:29.999Z</time></trkpt><trkpt lat="39.61341703342718" lon="8.512989655335936"><ele>313.0</ele><time>2026-05-01T07:34:30.999Z</time></trkpt><trkpt lat="39.61331608386258" lon="8.512967634807929"><ele>313.0</ele><time>2026-05-01T07:34:31.999Z</time></trkpt><trkpt lat="39.61320828615074" lon="8.512959283658112"><ele>313.0</ele><time>2026-05-01T07:34:32.999Z</time></trkpt><trkpt lat="39.6131017897957" lon="8.512953903477396"><ele>313.0</ele><time>2026-05-01T07:34:33.999Z</time></trkpt><trkpt lat="39.61300704147524" lon="8.512941677473618"><ele>313.0</ele><time>2026-05-01T07:34:34.999Z</time></trkpt><trkpt lat="39.61291859521585" lon="8.51294804247618"><ele>313.0</ele><time>2026-05-01T07:34:35.999Z</time></trkpt><trkpt lat="39.61282781850418" lon="8.512972438898089"><ele>312.0</ele><time>2026-05-01T07:34:36.999Z</time></trkpt><trkpt lat="39.61273714198878" lon="8.513018904011775"><ele>311.0</ele><time>2026-05-01T07:34:37.999Z</time></trkpt><trkpt lat="39.61265040975769" lon="8.513078518120897"><ele>310.0</ele><time>2026-05-01T07:34:38.999Z</time></trkpt><trkpt lat="39.61256597540208" lon="8.51317179142562"><ele>309.0</ele><time>2026-05-01T07:34:39.999Z</time></trkpt><trkpt lat="39.61248836331431" lon="8.51328378105309"><ele>308.0</ele><time>2026-05-01T07:34:40.999Z</time></trkpt><trkpt lat="39.61241417379183" lon="8.513411862778462"><ele>308.0</ele><time>2026-05-01T07:34:41.999Z</time></trkpt><trkpt lat="39.61232277536503" lon="8.513538295881112"><ele>308.0</ele><time>2026-05-01T07:34:42.999Z</time></trkpt><trkpt lat="39.61222935794365" lon="8.513669475523407"><ele>308.0</ele><time>2026-05-01T07:34:43.999Z</time></trkpt><trkpt lat="39.612141279001825" lon="8.513789378818474"><ele>308.0</ele><time>2026-05-01T07:34:44.999Z</time></trkpt><trkpt lat="39.61205744217297" lon="8.513910970343103"><ele>307.6</ele><time>2026-05-01T07:34:45.999Z</time></trkpt><trkpt lat="39.611975220328134" lon="8.51401303598343"><ele>307.20000000000005</ele><time>2026-05-01T07:34:46.999Z</time></trkpt><trkpt lat="39.6118991075952" lon="8.514110665445507"><ele>306.8</ele><time>2026-05-01T07:34:47.999Z</time></trkpt><trkpt lat="39.61182455374419" lon="8.514202962066562"><ele>306.40000000000003</ele><time>2026-05-01T07:34:48.999Z</time></trkpt><trkpt lat="39.61174079981539" lon="8.514287473183627"><ele>306.0</ele><time>2026-05-01T07:34:49.999Z</time></trkpt><trkpt lat="39.61163929919851" lon="8.514360160688987"><ele>306.0</ele><time>2026-05-01T07:34:50.999Z</time></trkpt><trkpt lat="39.61152642947235" lon="8.514424340317348"><ele>306.0</ele><time>2026-05-01T07:34:51.999Z</time></trkpt><trkpt lat="39.611418272174575" lon="8.51448972042851"><ele>306.0</ele><time>2026-05-01T07:34:52.999Z</time></trkpt><trkpt lat="39.61131238930235" lon="8.514549792216835"><ele>306.0</ele><time>2026-05-01T07:34:53.999Z</time></trkpt><trkpt lat="39.61121057905419" lon="8.514613601656167"><ele>304.2</ele><time>2026-05-01T07:34:54.999Z</time></trkpt><trkpt lat="39.61110907236536" lon="8.514678370179244"><ele>302.40000000000003</ele><time>2026-05-01T07:34:55.999Z</time></trkpt><trkpt lat="39.611007288196205" lon="8.514752460024656"><ele>300.6</ele><time>2026-05-01T07:34:56.999Z</time></trkpt><trkpt lat="39.610912531201244" lon="8.514832868915192"><ele>298.8</ele><time>2026-05-01T07:34:57.999Z</time></trkpt><trkpt lat="39.610832177183084" lon="8.514909252328309"><ele>297.0</ele><time>2026-05-01T07:34:58.999Z</time></trkpt><trkpt lat="39.61076754277406" lon="8.514970149675708"><ele>297.0</ele><time>2026-05-01T07:34:59.999Z</time></trkpt><trkpt lat="39.610693729601365" lon="8.515019807976675"><ele>297.0</ele><time>2026-05-01T07:35:01Z</time></trkpt><trkpt lat="39.61062757710754" lon="8.515075946591955"><ele>297.0</ele><time>2026-05-01T07:35:02Z</time></trkpt><trkpt lat="39.61056153466073" lon="8.515136259361807"><ele>297.0</ele><time>2026-05-01T07:35:03Z</time></trkpt><trkpt lat="39.610498178672074" lon="8.515194677109607"><ele>297.0</ele><time>2026-05-01T07:35:04Z</time></trkpt><trkpt lat="39.610429967265546" lon="8.51525925218793"><ele>297.0</ele><time>2026-05-01T07:35:05Z</time></trkpt><trkpt lat="39.610356270753314" lon="8.515327749093377"><ele>295.0</ele><time>2026-05-01T07:35:06Z</time></trkpt><trkpt lat="39.61026868526244" lon="8.515411742897193"><ele>293.0</ele><time>2026-05-01T07:35:07Z</time></trkpt><trkpt lat="39.61019466305882" lon="8.515482824266295"><ele>291.0</ele><time>2026-05-01T07:35:08Z</time></trkpt><trkpt lat="39.61014094332671" lon="8.515554774456273"><ele>289.0</ele><time>2026-05-01T07:35:09Z</time></trkpt><trkpt lat="39.61009317225758" lon="8.515614580088304"><ele>287.0</ele><time>2026-05-01T07:35:10Z</time></trkpt><trkpt lat="39.61005010376312" lon="8.515715357527554"><ele>285.0</ele><time>2026-05-01T07:35:12Z</time></trkpt><trkpt lat="39.61009071999122" lon="8.515818315216519"><ele>285.0</ele><time>2026-05-01T07:35:14Z</time></trkpt><trkpt lat="39.6101528799341" lon="8.515907370021214"><ele>285.0</ele><time>2026-05-01T07:35:15Z</time></trkpt><trkpt lat="39.61022467846253" lon="8.516019072785767"><ele>285.0</ele><time>2026-05-01T07:35:16Z</time></trkpt><trkpt lat="39.61024745543184" lon="8.51617581557205"><ele>285.0</ele><time>2026-05-01T07:35:17Z</time></trkpt><trkpt lat="39.6102414198306" lon="8.516356492613374"><ele>283.0</ele><time>2026-05-01T07:35:18Z</time></trkpt><trkpt lat="39.61022199909909" lon="8.516548694222996"><ele>281.0</ele><time>2026-05-01T07:35:19Z</time></trkpt><trkpt lat="39.610191946360146" lon="8.516736996595723"><ele>279.0</ele><time>2026-05-01T07:35:20Z</time></trkpt><trkpt lat="39.610163151831536" lon="8.516935564342043"><ele>279.3333333333333</ele><time>2026-05-01T07:35:21Z</time></trkpt><trkpt lat="39.610127669699665" lon="8.517138678250928"><ele>279.66666666666663</ele><time>2026-05-01T07:35:22Z</time></trkpt><trkpt lat="39.610068848892915" lon="8.517336604015753"><ele>280.0</ele><time>2026-05-01T07:35:23Z</time></trkpt><trkpt lat="39.609970813724445" lon="8.517509770656462"><ele>280.0</ele><time>2026-05-01T07:35:24Z</time></trkpt><trkpt lat="39.609871398112304" lon="8.517675443071916"><ele>280.0</ele><time>2026-05-01T07:35:25Z</time></trkpt><trkpt lat="39.60979394903383" lon="8.51785202946508"><ele>280.0</ele><time>2026-05-01T07:35:26Z</time></trkpt><trkpt lat="39.609741287330294" lon="8.51805072419462"><ele>281.66666666666663</ele><time>2026-05-01T07:35:27Z</time></trkpt><trkpt lat="39.60970882916597" lon="8.518262107177037"><ele>283.3333333333333</ele><time>2026-05-01T07:35:28Z</time></trkpt><trkpt lat="39.609688383484" lon="8.518453594630142"><ele>285.0</ele><time>2026-05-01T07:35:29Z</time></trkpt><trkpt lat="39.60968878506358" lon="8.518628708000131"><ele>283.3333333333333</ele><time>2026-05-01T07:35:30Z</time></trkpt><trkpt lat="39.609729559755245" lon="8.518808263795837"><ele>281.66666666666663</ele><time>2026-05-01T07:35:31Z</time></trkpt><trkpt lat="39.609796577274814" lon="8.518999593835689"><ele>280.0</ele><time>2026-05-01T07:35:32Z</time></trkpt><trkpt lat="39.60986514806106" lon="8.519201989405449"><ele>280.0</ele><time>2026-05-01T07:35:33Z</time></trkpt><trkpt lat="39.60992477639469" lon="8.51941488417737"><ele>280.0</ele><time>2026-05-01T07:35:34Z</time></trkpt><trkpt lat="39.61000137302314" lon="8.519621169216615"><ele>280.0</ele><time>2026-05-01T07:35:35Z</time></trkpt><trkpt lat="39.610078613516194" lon="8.519822056472101"><ele>277.0</ele><time>2026-05-01T07:35:36Z</time></trkpt><trkpt lat="39.61015910809922" lon="8.520016839702194"><ele>274.0</ele><time>2026-05-01T07:35:37Z</time></trkpt><trkpt lat="39.61024081732768" lon="8.520208365033955"><ele>271.0</ele><time>2026-05-01T07:35:38Z</time></trkpt><trkpt lat="39.610317007890494" lon="8.520387014239773"><ele>274.5</ele><time>2026-05-01T07:35:39Z</time></trkpt><trkpt lat="39.610387269312575" lon="8.520549253894963"><ele>278.0</ele><time>2026-05-01T07:35:40Z</time></trkpt><trkpt lat="39.61045796509694" lon="8.520700409705281"><ele>281.5</ele><time>2026-05-01T07:35:41Z</time></trkpt><trkpt lat="39.61051089440623" lon="8.520828602794758"><ele>285.0</ele><time>2026-05-01T07:35:42Z</time></trkpt><trkpt lat="39.61053650120658" lon="8.520941626945078"><ele>285.0</ele><time>2026-05-01T07:35:43Z</time></trkpt><trkpt lat="39.6105148423837" lon="8.52105030464373"><ele>285.0</ele><time>2026-05-01T07:35:44Z</time></trkpt><trkpt lat="39.610427873050895" lon="8.52114494895319"><ele>285.0</ele><time>2026-05-01T07:35:45Z</time></trkpt><trkpt lat="39.61030632404591" lon="8.521222047150733"><ele>285.0</ele><time>2026-05-01T07:35:46Z</time></trkpt><trkpt lat="39.610178329976975" lon="8.521321992734334"><ele>283.5</ele><time>2026-05-01T07:35:47Z</time></trkpt><trkpt lat="39.61006042400453" lon="8.521436742235558"><ele>282.0</ele><time>2026-05-01T07:35:48Z</time></trkpt><trkpt lat="39.60994105753461" lon="8.521542133498174"><ele>280.5</ele><time>2026-05-01T07:35:49Z</time></trkpt><trkpt lat="39.6098365331136" lon="8.521641569004336"><ele>279.0</ele><time>2026-05-01T07:35:50Z</time></trkpt><trkpt lat="39.60974436001603" lon="8.52174783938076"><ele>279.0</ele><time>2026-05-01T07:35:51Z</time></trkpt><trkpt lat="39.6096838377635" lon="8.521887499047851"><ele>279.0</ele><time>2026-05-01T07:35:52Z</time></trkpt><trkpt lat="39.60965303967771" lon="8.52204435681232"><ele>279.0</ele><time>2026-05-01T07:35:53Z</time></trkpt><trkpt lat="39.60960215604315" lon="8.52216634212643"><ele>279.0</ele><time>2026-05-01T07:35:54Z</time></trkpt><trkpt lat="39.60950384317472" lon="8.522227211910687"><ele>277.5</ele><time>2026-05-01T07:35:55Z</time></trkpt><trkpt lat="39.60938119127232" lon="8.522228893954107"><ele>276.0</ele><time>2026-05-01T07:35:56Z</time></trkpt><trkpt lat="39.6092644519543" lon="8.52215658025873"><ele>274.5</ele><time>2026-05-01T07:35:57Z</time></trkpt><trkpt lat="39.609166163808226" lon="8.52202043883079"><ele>273.0</ele><time>2026-05-01T07:35:58Z</time></trkpt><trkpt lat="39.60907298529615" lon="8.521870374836757"><ele>273.0</ele><time>2026-05-01T07:35:59Z</time></trkpt><trkpt lat="39.608968919774284" lon="8.521722484334195"><ele>273.0</ele><time>2026-05-01T07:36:00Z</time></trkpt><trkpt lat="39.60885483670103" lon="8.521575404998368"><ele>273.0</ele><time>2026-05-01T07:36:01Z</time></trkpt><trkpt lat="39.60873850015189" lon="8.521424209599983"><ele>271.6666666666667</ele><time>2026-05-01T07:36:02Z</time></trkpt><trkpt lat="39.60861888457982" lon="8.521277806100567"><ele>270.33333333333337</ele><time>2026-05-01T07:36:02.999Z</time></trkpt><trkpt lat="39.60848453505567" lon="8.521146499534991"><ele>269.0</ele><time>2026-05-01T07:36:03.999Z</time></trkpt><trkpt lat="39.6083332854889" lon="8.521031512475684"><ele>269.0</ele><time>2026-05-01T07:36:04.999Z</time></trkpt><trkpt lat="39.608189258241" lon="8.520944682841677"><ele>269.0</ele><time>2026-05-01T07:36:05.999Z</time></trkpt><trkpt lat="39.60805974888479" lon="8.52086640735424"><ele>269.0</ele><time>2026-05-01T07:36:06.999Z</time></trkpt><trkpt lat="39.607928583293834" lon="8.52081167463242"><ele>269.0</ele><time>2026-05-01T07:36:07.999Z</time></trkpt><trkpt lat="39.60778650282073" lon="8.52082297660207"><ele>270.0</ele><time>2026-05-01T07:36:08.999Z</time></trkpt><trkpt lat="39.60763271100381" lon="8.520873492446418"><ele>271.0</ele><time>2026-05-01T07:36:09.999Z</time></trkpt><trkpt lat="39.607472499109754" lon="8.520929811675188"><ele>272.0</ele><time>2026-05-01T07:36:10.999Z</time></trkpt><trkpt lat="39.607315941680476" lon="8.520991424869752"><ele>272.0</ele><time>2026-05-01T07:36:11.999Z</time></trkpt><trkpt lat="39.60716801849996" lon="8.52107677596212"><ele>272.0</ele><time>2026-05-01T07:36:12.999Z</time></trkpt><trkpt lat="39.60702586506388" lon="8.521177972592486"><ele>272.0</ele><time>2026-05-01T07:36:13.999Z</time></trkpt><trkpt lat="39.606879116263414" lon="8.521281227883497"><ele>274.33333333333337</ele><time>2026-05-01T07:36:14.999Z</time></trkpt><trkpt lat="39.6067426803219" lon="8.521387272334628"><ele>276.6666666666667</ele><time>2026-05-01T07:36:15.999Z</time></trkpt><trkpt lat="39.60662287993823" lon="8.52152402922942"><ele>279.0</ele><time>2026-05-01T07:36:16.999Z</time></trkpt><trkpt lat="39.606534050308326" lon="8.521679115985766"><ele>279.0</ele><time>2026-05-01T07:36:17.999Z</time></trkpt><trkpt lat="39.60647835735594" lon="8.521846181095665"><ele>279.0</ele><time>2026-05-01T07:36:18.999Z</time></trkpt><trkpt lat="39.606460853174255" lon="8.52202626025782"><ele>279.0</ele><time>2026-05-01T07:36:19.999Z</time></trkpt><trkpt lat="39.60645624735277" lon="8.522214076116308"><ele>279.0</ele><time>2026-05-01T07:36:20.999Z</time></trkpt><trkpt lat="39.60644220622493" lon="8.522377185969983"><ele>278.5</ele><time>2026-05-01T07:36:21.999Z</time></trkpt><trkpt lat="39.60639630856738" lon="8.522514682638777"><ele>278.0</ele><time>2026-05-01T07:36:22.999Z</time></trkpt><trkpt lat="39.60630102521233" lon="8.522609953106063"><ele>277.5</ele><time>2026-05-01T07:36:23.999Z</time></trkpt><trkpt lat="39.60616936568956" lon="8.522650224850125"><ele>277.0</ele><time>2026-05-01T07:36:24.999Z</time></trkpt><trkpt lat="39.606017140265095" lon="8.522649558257967"><ele>277.0</ele><time>2026-05-01T07:36:25.999Z</time></trkpt><trkpt lat="39.605862513599085" lon="8.522633802283712"><ele>277.0</ele><time>2026-05-01T07:36:26.999Z</time></trkpt><trkpt lat="39.60570504323171" lon="8.522629216140727"><ele>277.0</ele><time>2026-05-01T07:36:27.999Z</time></trkpt><trkpt lat="39.60555221711094" lon="8.5226338648222"><ele>277.0</ele><time>2026-05-01T07:36:28.999Z</time></trkpt><trkpt lat="39.60542217813155" lon="8.522653540031488"><ele>277.0</ele><time>2026-05-01T07:36:29.999Z</time></trkpt><trkpt lat="39.605308674162444" lon="8.52273720505113"><ele>277.0</ele><time>2026-05-01T07:36:30.999Z</time></trkpt><trkpt lat="39.60520767605869" lon="8.5228862054738"><ele>277.0</ele><time>2026-05-01T07:36:31.999Z</time></trkpt><trkpt lat="39.60510769736144" lon="8.523046166013795"><ele>280.66666666666663</ele><time>2026-05-01T07:36:32.999Z</time></trkpt><trkpt lat="39.60499027202779" lon="8.523190713595291"><ele>284.3333333333333</ele><time>2026-05-01T07:36:33.999Z</time></trkpt><trkpt lat="39.604864947677136" lon="8.52333041082273"><ele>288.0</ele><time>2026-05-01T07:36:34.999Z</time></trkpt><trkpt lat="39.60474280343869" lon="8.523469363289806"><ele>288.0</ele><time>2026-05-01T07:36:35.999Z</time></trkpt><trkpt lat="39.60462721569709" lon="8.523607865235812"><ele>288.0</ele><time>2026-05-01T07:36:36.999Z</time></trkpt><trkpt lat="39.6045239646835" lon="8.523752070869158"><ele>288.0</ele><time>2026-05-01T07:36:37.999Z</time></trkpt><trkpt lat="39.604448919870805" lon="8.523921957926754"><ele>288.25</ele><time>2026-05-01T07:36:38.999Z</time></trkpt><trkpt lat="39.60439422262906" lon="8.524090113336268"><ele>288.5</ele><time>2026-05-01T07:36:39.999Z</time></trkpt><trkpt lat="39.60437273148779" lon="8.524253952787452"><ele>288.75</ele><time>2026-05-01T07:36:40.999Z</time></trkpt><trkpt lat="39.604394720871475" lon="8.524425618800684"><ele>289.0</ele><time>2026-05-01T07:36:41.999Z</time></trkpt><trkpt lat="39.60443141541859" lon="8.524599274441188"><ele>289.0</ele><time>2026-05-01T07:36:42.999Z</time></trkpt><trkpt lat="39.60443782856551" lon="8.524758148856854"><ele>289.0</ele><time>2026-05-01T07:36:43.999Z</time></trkpt><trkpt lat="39.60439728942555" lon="8.524894347628921"><ele>289.0</ele><time>2026-05-01T07:36:44.999Z</time></trkpt><trkpt lat="39.604289306523" lon="8.524995883165433"><ele>289.0</ele><time>2026-05-01T07:36:45.999Z</time></trkpt><trkpt lat="39.60415726319202" lon="8.525078890608453"><ele>289.0</ele><time>2026-05-01T07:36:46.999Z</time></trkpt><trkpt lat="39.60403125401092" lon="8.525184289449747"><ele>289.0</ele><time>2026-05-01T07:36:47.999Z</time></trkpt><trkpt lat="39.603932668928124" lon="8.525314592204404"><ele>289.0</ele><time>2026-05-01T07:36:48.999Z</time></trkpt><trkpt lat="39.60387213775007" lon="8.525484154993004"><ele>289.0</ele><time>2026-05-01T07:36:49.999Z</time></trkpt><trkpt lat="39.60383926867855" lon="8.525683740837916"><ele>291.75</ele><time>2026-05-01T07:36:50.999Z</time></trkpt><trkpt lat="39.6038005734774" lon="8.525880283083655"><ele>294.5</ele><time>2026-05-01T07:36:51.999Z</time></trkpt><trkpt lat="39.60375941281331" lon="8.526066846514832"><ele>297.25</ele><time>2026-05-01T07:36:52.999Z</time></trkpt><trkpt lat="39.603742777792895" lon="8.526241662340645"><ele>300.0</ele><time>2026-05-01T07:36:53.999Z</time></trkpt><trkpt lat="39.60377085209912" lon="8.526399063364757"><ele>300.4</ele><time>2026-05-01T07:36:54.999Z</time></trkpt><trkpt lat="39.60380875732983" lon="8.526536899738748"><ele>300.8</ele><time>2026-05-01T07:36:55.999Z</time></trkpt><trkpt lat="39.60380424802541" lon="8.52665004137242"><ele>301.2</ele><time>2026-05-01T07:36:56.999Z</time></trkpt><trkpt lat="39.60373915998981" lon="8.52673869492045"><ele>301.6</ele><time>2026-05-01T07:36:57.999Z</time></trkpt><trkpt lat="39.60364670613221" lon="8.526763576535505"><ele>302.0</ele><time>2026-05-01T07:36:58.999Z</time></trkpt><trkpt lat="39.60354335960883" lon="8.526706643308689"><ele>302.0</ele><time>2026-05-01T07:36:59.999Z</time></trkpt><trkpt lat="39.6034388161866" lon="8.526596932857542"><ele>302.0</ele><time>2026-05-01T07:37:00.999Z</time></trkpt><trkpt lat="39.603320331660335" lon="8.526504445723447"><ele>302.0</ele><time>2026-05-01T07:37:01.999Z</time></trkpt><trkpt lat="39.60318188261836" lon="8.526474734265417"><ele>302.0</ele><time>2026-05-01T07:37:02.999Z</time></trkpt><trkpt lat="39.60304055946947" lon="8.52645477005764"><ele>302.0</ele><time>2026-05-01T07:37:03.999Z</time></trkpt><trkpt lat="39.60290632345931" lon="8.526421492594098"><ele>302.0</ele><time>2026-05-01T07:37:04.999Z</time></trkpt><trkpt lat="39.60278343783485" lon="8.526409354750035"><ele>302.0</ele><time>2026-05-01T07:37:05.999Z</time></trkpt><trkpt lat="39.602647126349915" lon="8.52647539098351"><ele>302.0</ele><time>2026-05-01T07:37:07Z</time></trkpt><trkpt lat="39.602514731993935" lon="8.526578756448439"><ele>301.6666666666667</ele><time>2026-05-01T07:37:08Z</time></trkpt><trkpt lat="39.60237573812537" lon="8.52666956041074"><ele>301.3333333333333</ele><time>2026-05-01T07:37:09Z</time></trkpt><trkpt lat="39.60222770805635" lon="8.526744384744159"><ele>301.0</ele><time>2026-05-01T07:37:10Z</time></trkpt><trkpt lat="39.60208030505288" lon="8.526821261038062"><ele>302.5</ele><time>2026-05-01T07:37:11Z</time></trkpt><trkpt lat="39.60193356944063" lon="8.526897965502014"><ele>304.0</ele><time>2026-05-01T07:37:12Z</time></trkpt><trkpt lat="39.60178982282472" lon="8.526961939511985"><ele>305.5</ele><time>2026-05-01T07:37:13Z</time></trkpt><trkpt lat="39.601664109763355" lon="8.527025349654055"><ele>307.0</ele><time>2026-05-01T07:37:14Z</time></trkpt><trkpt lat="39.60155861239124" lon="8.527138125036249"><ele>307.0</ele><time>2026-05-01T07:37:15Z</time></trkpt><trkpt lat="39.60149151742881" lon="8.527307109504964"><ele>307.0</ele><time>2026-05-01T07:37:16Z</time></trkpt><trkpt lat="39.60144711724432" lon="8.527492885459258"><ele>307.0</ele><time>2026-05-01T07:37:17Z</time></trkpt><trkpt lat="39.6013890031921" lon="8.527675988833932"><ele>307.0</ele><time>2026-05-01T07:37:18Z</time></trkpt><trkpt lat="39.601321215862896" lon="8.527848115320273"><ele>306.3333333333333</ele><time>2026-05-01T07:37:19Z</time></trkpt><trkpt lat="39.60122431956752" lon="8.52799525826457"><ele>305.6666666666667</ele><time>2026-05-01T07:37:20Z</time></trkpt><trkpt lat="39.60111768571462" lon="8.52812950637069"><ele>305.0</ele><time>2026-05-01T07:37:21Z</time></trkpt><trkpt lat="39.600994636762266" lon="8.528264145217122"><ele>305.0</ele><time>2026-05-01T07:37:22Z</time></trkpt><trkpt lat="39.60087284314831" lon="8.528398884663243"><ele>305.0</ele><time>2026-05-01T07:37:23Z</time></trkpt><trkpt lat="39.600721705483366" lon="8.528471529761969"><ele>305.0</ele><time>2026-05-01T07:37:24Z</time></trkpt><trkpt lat="39.60057719541511" lon="8.528561954223857"><ele>305.0</ele><time>2026-05-01T07:37:25Z</time></trkpt><trkpt lat="39.60045316022078" lon="8.528657171393888"><ele>305.0</ele><time>2026-05-01T07:37:26Z</time></trkpt><trkpt lat="39.60034581267627" lon="8.528761456501996"><ele>305.0</ele><time>2026-05-01T07:37:27Z</time></trkpt><trkpt lat="39.60027785157774" lon="8.528900654278068"><ele>305.0</ele><time>2026-05-01T07:37:28Z</time></trkpt><trkpt lat="39.60024060942011" lon="8.529081779569731"><ele>303.6666666666667</ele><time>2026-05-01T07:37:29Z</time></trkpt><trkpt lat="39.60021359957075" lon="8.529285025031676"><ele>302.3333333333333</ele><time>2026-05-01T07:37:30Z</time></trkpt><trkpt lat="39.60017493114035" lon="8.529484133355307"><ele>301.0</ele><time>2026-05-01T07:37:31Z</time></trkpt><trkpt lat="39.60012138835631" lon="8.529688160272041"><ele>301.0</ele><time>2026-05-01T07:37:32Z</time></trkpt><trkpt lat="39.60006833747814" lon="8.529890195196767"><ele>301.0</ele><time>2026-05-01T07:37:33Z</time></trkpt><trkpt lat="39.60001651428069" lon="8.530096266518576"><ele>301.0</ele><time>2026-05-01T07:37:34Z</time></trkpt><trkpt lat="39.59996239533161" lon="8.530306873372751"><ele>302.66666666666663</ele><time>2026-05-01T07:37:35Z</time></trkpt><trkpt lat="39.59990219086231" lon="8.530525873274387"><ele>304.3333333333333</ele><time>2026-05-01T07:37:36Z</time></trkpt><trkpt lat="39.599844841689105" lon="8.530741993913308"><ele>306.0</ele><time>2026-05-01T07:37:37Z</time></trkpt><trkpt lat="39.59979003957377" lon="8.530953577711184"><ele>306.0</ele><time>2026-05-01T07:37:38Z</time></trkpt><trkpt lat="39.59974107212477" lon="8.531146606354046"><ele>306.0</ele><time>2026-05-01T07:37:39Z</time></trkpt><trkpt lat="39.59969470902626" lon="8.531311831553493"><ele>306.0</ele><time>2026-05-01T07:37:40Z</time></trkpt><trkpt lat="39.59960903472265" lon="8.531417857964716"><ele>306.0</ele><time>2026-05-01T07:37:41Z</time></trkpt><trkpt lat="39.599509732794175" lon="8.531481107484128"><ele>306.0</ele><time>2026-05-01T07:37:42Z</time></trkpt><trkpt lat="39.599378906855286" lon="8.531520284486335"><ele>306.0</ele><time>2026-05-01T07:37:43Z</time></trkpt><trkpt lat="39.599237170874346" lon="8.531580902392163"><ele>306.0</ele><time>2026-05-01T07:37:44Z</time></trkpt><trkpt lat="39.59908520857605" lon="8.531627037055225"><ele>306.0</ele><time>2026-05-01T07:37:45Z</time></trkpt><trkpt lat="39.598936623581935" lon="8.531678848766505"><ele>306.0</ele><time>2026-05-01T07:37:46Z</time></trkpt><trkpt lat="39.59878611070244" lon="8.531727083881592"><ele>306.0</ele><time>2026-05-01T07:37:47Z</time></trkpt><trkpt lat="39.59863503909184" lon="8.531772377460234"><ele>306.0</ele><time>2026-05-01T07:37:48Z</time></trkpt><trkpt lat="39.59849984818264" lon="8.531808298114736"><ele>306.0</ele><time>2026-05-01T07:37:49Z</time></trkpt><trkpt lat="39.59838021218332" lon="8.531870586455426"><ele>305.0</ele><time>2026-05-01T07:37:50Z</time></trkpt><trkpt lat="39.598273587648514" lon="8.531968164634089"><ele>304.0</ele><time>2026-05-01T07:37:51Z</time></trkpt><trkpt lat="39.59817503400445" lon="8.53210892646362"><ele>303.0</ele><time>2026-05-01T07:37:52Z</time></trkpt><trkpt lat="39.59806599366453" lon="8.532266556373639"><ele>302.0</ele><time>2026-05-01T07:37:53Z</time></trkpt><trkpt lat="39.59795010054519" lon="8.532414202047969"><ele>303.0</ele><time>2026-05-01T07:37:54Z</time></trkpt><trkpt lat="39.59783592503612" lon="8.53253839438123"><ele>304.0</ele><time>2026-05-01T07:37:55Z</time></trkpt><trkpt lat="39.59773988171506" lon="8.5326399376793"><ele>305.0</ele><time>2026-05-01T07:37:56Z</time></trkpt><trkpt lat="39.59765563562215" lon="8.532687104351261"><ele>306.0</ele><time>2026-05-01T07:37:57Z</time></trkpt><trkpt lat="39.59757393128558" lon="8.532681595926112"><ele>307.0</ele><time>2026-05-01T07:37:58Z</time></trkpt><trkpt lat="39.597494340909066" lon="8.53260852560917"><ele>307.0</ele><time>2026-05-01T07:37:59Z</time></trkpt><trkpt lat="39.597445395578156" lon="8.532473063598484"><ele>307.0</ele><time>2026-05-01T07:38:00Z</time></trkpt><trkpt lat="39.59738423340247" lon="8.532314747296276"><ele>307.0</ele><time>2026-05-01T07:38:01Z</time></trkpt><trkpt lat="39.59730039383964" lon="8.53216585676073"><ele>307.0</ele><time>2026-05-01T07:38:02Z</time></trkpt><trkpt lat="39.59720704072057" lon="8.532033523199075"><ele>307.3333333333333</ele><time>2026-05-01T07:38:03Z</time></trkpt><trkpt lat="39.5970761611277" lon="8.531915437521583"><ele>307.6666666666667</ele><time>2026-05-01T07:38:04Z</time></trkpt><trkpt lat="39.5969542767237" lon="8.531767717382298"><ele>308.0</ele><time>2026-05-01T07:38:05Z</time></trkpt><trkpt lat="39.596853759431596" lon="8.531603634622154"><ele>308.0</ele><time>2026-05-01T07:38:05.999Z</time></trkpt><trkpt lat="39.596755756934364" lon="8.531426068320787"><ele>308.0</ele><time>2026-05-01T07:38:06.999Z</time></trkpt><trkpt lat="39.59665991069049" lon="8.531272340539925"><ele>308.0</ele><time>2026-05-01T07:38:07.999Z</time></trkpt><trkpt lat="39.596548432688124" lon="8.53114272814894"><ele>305.0</ele><time>2026-05-01T07:38:08.999Z</time></trkpt><trkpt lat="39.59639380059275" lon="8.531059407715286"><ele>302.0</ele><time>2026-05-01T07:38:09.999Z</time></trkpt><trkpt lat="39.59625423017856" lon="8.53094229970346"><ele>299.0</ele><time>2026-05-01T07:38:10.999Z</time></trkpt><trkpt lat="39.59612533929423" lon="8.530848184157058"><ele>299.0</ele><time>2026-05-01T07:38:11.999Z</time></trkpt><trkpt lat="39.59600209645225" lon="8.530800645023719"><ele>299.0</ele><time>2026-05-01T07:38:12.999Z</time></trkpt><trkpt lat="39.59587592707276" lon="8.530791201875983"><ele>299.0</ele><time>2026-05-01T07:38:13.999Z</time></trkpt><trkpt lat="39.59572200919863" lon="8.530858049632547"><ele>299.0</ele><time>2026-05-01T07:38:14.999Z</time></trkpt><trkpt lat="39.59556889565696" lon="8.530915969105417"><ele>299.0</ele><time>2026-05-01T07:38:15.999Z</time></trkpt><trkpt lat="39.59540813036729" lon="8.530968526230396"><ele>299.0</ele><time>2026-05-01T07:38:16.999Z</time></trkpt><trkpt lat="39.595253204877515" lon="8.531044933283106"><ele>299.0</ele><time>2026-05-01T07:38:17.999Z</time></trkpt><trkpt lat="39.59510009760621" lon="8.531123504037758"><ele>301.6666666666667</ele><time>2026-05-01T07:38:18.999Z</time></trkpt><trkpt lat="39.594952279633354" lon="8.531248116656236"><ele>304.3333333333333</ele><time>2026-05-01T07:38:19.999Z</time></trkpt><trkpt lat="39.594810200661676" lon="8.531398647454166"><ele>307.0</ele><time>2026-05-01T07:38:20.999Z</time></trkpt><trkpt lat="39.59469208685527" lon="8.53157939649573"><ele>307.0</ele><time>2026-05-01T07:38:21.999Z</time></trkpt><trkpt lat="39.59459352242914" lon="8.53178068264333"><ele>307.0</ele><time>2026-05-01T07:38:22.999Z</time></trkpt><trkpt lat="39.59448454795688" lon="8.531947297211627"><ele>307.0</ele><time>2026-05-01T07:38:23.999Z</time></trkpt><trkpt lat="39.59438869726938" lon="8.532107092547731"><ele>305.5</ele><time>2026-05-01T07:38:24.999Z</time></trkpt><trkpt lat="39.59431765859714" lon="8.532266970704377"><ele>304.0</ele><time>2026-05-01T07:38:25.999Z</time></trkpt><trkpt lat="39.59422823743432" lon="8.532380418077368"><ele>302.5</ele><time>2026-05-01T07:38:26.999Z</time></trkpt><trkpt lat="39.5941612912394" lon="8.5324817328295"><ele>301.0</ele><time>2026-05-01T07:38:27.999Z</time></trkpt><trkpt lat="39.59406175626953" lon="8.532459612104093"><ele>301.0</ele><time>2026-05-01T07:38:28.999Z</time></trkpt><trkpt lat="39.593978958092464" lon="8.53245951620643"><ele>301.0</ele><time>2026-05-01T07:38:29.999Z</time></trkpt><trkpt lat="39.59393503460607" lon="8.532314855386895"><ele>301.0</ele><time>2026-05-01T07:38:30.999Z</time></trkpt><trkpt lat="39.59386997524189" lon="8.53217928905905"><ele>301.0</ele><time>2026-05-01T07:38:31.999Z</time></trkpt><trkpt lat="39.59378389376494" lon="8.53203073625699"><ele>302.3333333333333</ele><time>2026-05-01T07:38:32.999Z</time></trkpt><trkpt lat="39.59370958950476" lon="8.531861300920365"><ele>303.6666666666667</ele><time>2026-05-01T07:38:33.999Z</time></trkpt><trkpt lat="39.593633485776735" lon="8.531682673883873"><ele>305.0</ele><time>2026-05-01T07:38:34.999Z</time></trkpt><trkpt lat="39.593576813207605" lon="8.531481907177918"><ele>305.0</ele><time>2026-05-01T07:38:35.999Z</time></trkpt><trkpt lat="39.59352649525202" lon="8.531265379245283"><ele>305.0</ele><time>2026-05-01T07:38:36.999Z</time></trkpt><trkpt lat="39.593468114462276" lon="8.531050760574571"><ele>305.0</ele><time>2026-05-01T07:38:37.999Z</time></trkpt><trkpt lat="39.59342078704534" lon="8.530830980388258"><ele>302.33333333333337</ele><time>2026-05-01T07:38:38.999Z</time></trkpt><trkpt lat="39.59333845201909" lon="8.530645524875329"><ele>299.6666666666667</ele><time>2026-05-01T07:38:39.999Z</time></trkpt><trkpt lat="39.59322004447781" lon="8.5304921184146"><ele>297.0</ele><time>2026-05-01T07:38:40.999Z</time></trkpt><trkpt lat="39.59314315793641" lon="8.530326090016995"><ele>294.3333333333333</ele><time>2026-05-01T07:38:41.999Z</time></trkpt><trkpt lat="39.59311864412343" lon="8.530149188523561"><ele>291.66666666666663</ele><time>2026-05-01T07:38:42.999Z</time></trkpt><trkpt lat="39.593119357515974" lon="8.529947823477144"><ele>289.0</ele><time>2026-05-01T07:38:43.999Z</time></trkpt><trkpt lat="39.59309672294353" lon="8.529744962958455"><ele>289.0</ele><time>2026-05-01T07:38:44.999Z</time></trkpt><trkpt lat="39.59304018914071" lon="8.529560438523918"><ele>289.0</ele><time>2026-05-01T07:38:45.999Z</time></trkpt><trkpt lat="39.59293627767505" lon="8.529396254385466"><ele>289.0</ele><time>2026-05-01T07:38:46.999Z</time></trkpt><trkpt lat="39.592825951616746" lon="8.529228784018983"><ele>294.0</ele><time>2026-05-01T07:38:47.999Z</time></trkpt><trkpt lat="39.59272276001351" lon="8.529057543050339"><ele>299.0</ele><time>2026-05-01T07:38:48.999Z</time></trkpt><trkpt lat="39.59261255572132" lon="8.528903243402052"><ele>304.0</ele><time>2026-05-01T07:38:49.999Z</time></trkpt><trkpt lat="39.59248914932953" lon="8.52878915799136"><ele>304.0</ele><time>2026-05-01T07:38:50.999Z</time></trkpt><trkpt lat="39.592337858935494" lon="8.528739474772449"><ele>304.0</ele><time>2026-05-01T07:38:51.999Z</time></trkpt><trkpt lat="39.59218346407692" lon="8.528742999509882"><ele>304.0</ele><time>2026-05-01T07:38:52.999Z</time></trkpt><trkpt lat="39.59203162574101" lon="8.528807594074785"><ele>305.0</ele><time>2026-05-01T07:38:53.999Z</time></trkpt><trkpt lat="39.59187345044845" lon="8.528825085227766"><ele>306.0</ele><time>2026-05-01T07:38:54.999Z</time></trkpt><trkpt lat="39.591712108458765" lon="8.528868664508146"><ele>307.0</ele><time>2026-05-01T07:38:55.999Z</time></trkpt><trkpt lat="39.59154597449785" lon="8.528896030923391"><ele>307.0</ele><time>2026-05-01T07:38:56.999Z</time></trkpt><trkpt lat="39.59138067052058" lon="8.528925065674438"><ele>307.0</ele><time>2026-05-01T07:38:57.999Z</time></trkpt><trkpt lat="39.591212620338894" lon="8.528930575198636"><ele>307.0</ele><time>2026-05-01T07:38:58.999Z</time></trkpt><trkpt lat="39.591048856521816" lon="8.528938164500758"><ele>309.0</ele><time>2026-05-01T07:38:59.999Z</time></trkpt><trkpt lat="39.590894508461155" lon="8.528899718140758"><ele>311.0</ele><time>2026-05-01T07:39:00.999Z</time></trkpt><trkpt lat="39.59073890679527" lon="8.528853948855955"><ele>313.0</ele><time>2026-05-01T07:39:01.999Z</time></trkpt><trkpt lat="39.59058895848164" lon="8.52884636991758"><ele>313.0</ele><time>2026-05-01T07:39:02.999Z</time></trkpt><trkpt lat="39.59045287688143" lon="8.528868648985528"><ele>313.0</ele><time>2026-05-01T07:39:03.999Z</time></trkpt><trkpt lat="39.59031806514939" lon="8.528945331093645"><ele>313.0</ele><time>2026-05-01T07:39:04.999Z</time></trkpt><trkpt lat="39.5901686036046" lon="8.529019974907378"><ele>313.0</ele><time>2026-05-01T07:39:05.999Z</time></trkpt><trkpt lat="39.59001878519666" lon="8.52911679900942"><ele>311.3333333333333</ele><time>2026-05-01T07:39:06.999Z</time></trkpt><trkpt lat="39.589865419733506" lon="8.529224153774116"><ele>309.6666666666667</ele><time>2026-05-01T07:39:07.999Z</time></trkpt><trkpt lat="39.58971670129046" lon="8.529350545548127"><ele>308.0</ele><time>2026-05-01T07:39:08.998Z</time></trkpt><trkpt lat="39.58956283031392" lon="8.529452131733175"><ele>307.6666666666667</ele><time>2026-05-01T07:39:09.998Z</time></trkpt><trkpt lat="39.58940288624574" lon="8.529529525922586"><ele>307.3333333333333</ele><time>2026-05-01T07:39:10.998Z</time></trkpt><trkpt lat="39.58926865805065" lon="8.529634774758687"><ele>307.0</ele><time>2026-05-01T07:39:11.998Z</time></trkpt><trkpt lat="39.58914626486688" lon="8.529720334616657"><ele>307.0</ele><time>2026-05-01T07:39:13Z</time></trkpt><trkpt lat="39.589053753490326" lon="8.529849008736676"><ele>307.0</ele><time>2026-05-01T07:39:14Z</time></trkpt><trkpt lat="39.588999394670104" lon="8.530028433953749"><ele>307.0</ele><time>2026-05-01T07:39:15Z</time></trkpt><trkpt lat="39.588976674762534" lon="8.530238770756107"><ele>307.0</ele><time>2026-05-01T07:39:16Z</time></trkpt><trkpt lat="39.58895775554488" lon="8.530452418954063"><ele>307.66666666666663</ele><time>2026-05-01T07:39:17Z</time></trkpt><trkpt lat="39.58892395723849" lon="8.530665337062846"><ele>308.3333333333333</ele><time>2026-05-01T07:39:18Z</time></trkpt><trkpt lat="39.58888137279522" lon="8.53086328012132"><ele>309.0</ele><time>2026-05-01T07:39:19Z</time></trkpt><trkpt lat="39.58881229585653" lon="8.531033756303957"><ele>309.0</ele><time>2026-05-01T07:39:20Z</time></trkpt><trkpt lat="39.58872424713166" lon="8.53118757547638"><ele>309.0</ele><time>2026-05-01T07:39:21Z</time></trkpt><trkpt lat="39.58862108602699" lon="8.531349002341585"><ele>309.0</ele><time>2026-05-01T07:39:22Z</time></trkpt><trkpt lat="39.58853186256657" lon="8.531526516186537"><ele>307.5</ele><time>2026-05-01T07:39:23Z</time></trkpt><trkpt lat="39.58845053443739" lon="8.5316965564723"><ele>306.0</ele><time>2026-05-01T07:39:24Z</time></trkpt><trkpt lat="39.58839603609724" lon="8.531871838047797"><ele>304.5</ele><time>2026-05-01T07:39:25Z</time></trkpt><trkpt lat="39.588352119479026" lon="8.532015300033638"><ele>303.0</ele><time>2026-05-01T07:39:26Z</time></trkpt><trkpt lat="39.58828508773364" lon="8.532088051877023"><ele>303.0</ele><time>2026-05-01T07:39:27Z</time></trkpt><trkpt lat="39.5882097041771" lon="8.532098002608583"><ele>303.0</ele><time>2026-05-01T07:39:28Z</time></trkpt><trkpt lat="39.58812349033709" lon="8.532048617132656"><ele>303.0</ele><time>2026-05-01T07:39:29Z</time></trkpt><trkpt lat="39.58805194453106" lon="8.531951814753338"><ele>303.0</ele><time>2026-05-01T07:39:30Z</time></trkpt><trkpt lat="39.58799577448774" lon="8.531805638774928"><ele>303.0</ele><time>2026-05-01T07:39:31Z</time></trkpt><trkpt lat="39.58791024171311" lon="8.531656178803235"><ele>302.0</ele><time>2026-05-01T07:39:32Z</time></trkpt><trkpt lat="39.587804597822135" lon="8.531535451681432"><ele>301.0</ele><time>2026-05-01T07:39:33Z</time></trkpt><trkpt lat="39.58768831876488" lon="8.531423356951409"><ele>300.0</ele><time>2026-05-01T07:39:34Z</time></trkpt><trkpt lat="39.587586278053664" lon="8.53129192382242"><ele>299.0</ele><time>2026-05-01T07:39:35Z</time></trkpt><trkpt lat="39.587468638062745" lon="8.531201486200047"><ele>296.75</ele><time>2026-05-01T07:39:36Z</time></trkpt><trkpt lat="39.58733273239517" lon="8.531171278176018"><ele>294.5</ele><time>2026-05-01T07:39:37Z</time></trkpt><trkpt lat="39.58719381737971" lon="8.531133749167045"><ele>292.25</ele><time>2026-05-01T07:39:38Z</time></trkpt><trkpt lat="39.587044796992174" lon="8.531102560854968"><ele>290.0</ele><time>2026-05-01T07:39:39Z</time></trkpt><trkpt lat="39.58689319184474" lon="8.531070831585003"><ele>290.0</ele><time>2026-05-01T07:39:40Z</time></trkpt><trkpt lat="39.58674190907933" lon="8.53103790566472"><ele>290.0</ele><time>2026-05-01T07:39:41Z</time></trkpt><trkpt lat="39.58658565707544" lon="8.53100279958581"><ele>290.0</ele><time>2026-05-01T07:39:42Z</time></trkpt><trkpt lat="39.58643444478203" lon="8.530971266065388"><ele>290.0</ele><time>2026-05-01T07:39:43Z</time></trkpt><trkpt lat="39.58628890728936" lon="8.530944268456938"><ele>290.0</ele><time>2026-05-01T07:39:44Z</time></trkpt><trkpt lat="39.58614840917962" lon="8.530961133051983"><ele>290.0</ele><time>2026-05-01T07:39:45Z</time></trkpt><trkpt lat="39.58601498762276" lon="8.531000579746989"><ele>290.0</ele><time>2026-05-01T07:39:46Z</time></trkpt><trkpt lat="39.58588881296356" lon="8.53107757338115"><ele>291.5</ele><time>2026-05-01T07:39:47Z</time></trkpt><trkpt lat="39.58575559669629" lon="8.531117867346495"><ele>293.0</ele><time>2026-05-01T07:39:48Z</time></trkpt><trkpt lat="39.58562092036862" lon="8.531149726734512"><ele>294.5</ele><time>2026-05-01T07:39:49Z</time></trkpt><trkpt lat="39.58548155377086" lon="8.53117882651758"><ele>296.0</ele><time>2026-05-01T07:39:50Z</time></trkpt><trkpt lat="39.5853450236188" lon="8.531224833871144"><ele>298.0</ele><time>2026-05-01T07:39:51Z</time></trkpt><trkpt lat="39.58520877253553" lon="8.531251978064489"><ele>300.0</ele><time>2026-05-01T07:39:52Z</time></trkpt><trkpt lat="39.5850772788812" lon="8.531304197188978"><ele>302.0</ele><time>2026-05-01T07:39:53Z</time></trkpt><trkpt lat="39.584944750181464" lon="8.53138678874169"><ele>304.0</ele><time>2026-05-01T07:39:54Z</time></trkpt><trkpt lat="39.5848079927335" lon="8.531478826282239"><ele>304.0</ele><time>2026-05-01T07:39:55Z</time></trkpt><trkpt lat="39.5846743568319" lon="8.531581055886988"><ele>304.0</ele><time>2026-05-01T07:39:56Z</time></trkpt><trkpt lat="39.58454691045075" lon="8.531700248900652"><ele>304.0</ele><time>2026-05-01T07:39:57Z</time></trkpt><trkpt lat="39.58442930447449" lon="8.531849123090568"><ele>304.0</ele><time>2026-05-01T07:39:58Z</time></trkpt><trkpt lat="39.584293119664565" lon="8.531967791897006"><ele>304.0</ele><time>2026-05-01T07:39:59Z</time></trkpt><trkpt lat="39.58413842824757" lon="8.532032643987137"><ele>304.0</ele><time>2026-05-01T07:40:00Z</time></trkpt><trkpt lat="39.5839693456049" lon="8.532064643121936"><ele>304.0</ele><time>2026-05-01T07:40:01Z</time></trkpt><trkpt lat="39.58381100986588" lon="8.532118737136296"><ele>304.0</ele><time>2026-05-01T07:40:02Z</time></trkpt><trkpt lat="39.5836658323832" lon="8.5321598968646"><ele>304.0</ele><time>2026-05-01T07:40:03Z</time></trkpt><trkpt lat="39.58355311804974" lon="8.532297659660165"><ele>300.3333333333333</ele><time>2026-05-01T07:40:04Z</time></trkpt><trkpt lat="39.583472945633744" lon="8.532465941087224"><ele>296.6666666666667</ele><time>2026-05-01T07:40:05Z</time></trkpt><trkpt lat="39.583405159526386" lon="8.53265414812719"><ele>293.0</ele><time>2026-05-01T07:40:06Z</time></trkpt><trkpt lat="39.58331704976515" lon="8.53282773663326"><ele>298.0</ele><time>2026-05-01T07:40:07Z</time></trkpt><trkpt lat="39.5831885359801" lon="8.532951903553673"><ele>303.0</ele><time>2026-05-01T07:40:08Z</time></trkpt><trkpt lat="39.583080854131325" lon="8.533090982004829"><ele>308.0</ele><time>2026-05-01T07:40:08.999Z</time></trkpt><trkpt lat="39.58299161684029" lon="8.53322711012941"><ele>308.0</ele><time>2026-05-01T07:40:09.999Z</time></trkpt><trkpt lat="39.582958542106276" lon="8.533423272153595"><ele>308.0</ele><time>2026-05-01T07:40:10.999Z</time></trkpt><trkpt lat="39.58294598251516" lon="8.53363834540445"><ele>308.0</ele><time>2026-05-01T07:40:11.999Z</time></trkpt><trkpt lat="39.582920002263016" lon="8.533848601563232"><ele>307.4</ele><time>2026-05-01T07:40:12.999Z</time></trkpt><trkpt lat="39.582856718791014" lon="8.534013806149527"><ele>306.8</ele><time>2026-05-01T07:40:13.999Z</time></trkpt><trkpt lat="39.58278903552042" lon="8.53411530240117"><ele>306.2</ele><time>2026-05-01T07:40:14.999Z</time></trkpt><trkpt lat="39.58272060427947" lon="8.534185381947664"><ele>305.6</ele><time>2026-05-01T07:40:15.999Z</time></trkpt><trkpt lat="39.58261826512624" lon="8.534159905506243"><ele>305.0</ele><time>2026-05-01T07:40:16.999Z</time></trkpt><trkpt lat="39.582516188873" lon="8.53412916851283"><ele>305.0</ele><time>2026-05-01T07:40:17.999Z</time></trkpt><trkpt lat="39.582460082125635" lon="8.533975887410264"><ele>305.0</ele><time>2026-05-01T07:40:18.999Z</time></trkpt><trkpt lat="39.5824221973073" lon="8.533831618117627"><ele>305.0</ele><time>2026-05-01T07:40:19.999Z</time></trkpt><trkpt lat="39.58234464275321" lon="8.533694339333923"><ele>305.0</ele><time>2026-05-01T07:40:20.999Z</time></trkpt><trkpt lat="39.582242837520276" lon="8.533568311641597"><ele>305.33333333333337</ele><time>2026-05-01T07:40:21.999Z</time></trkpt><trkpt lat="39.58213836283137" lon="8.533430126826403"><ele>305.6666666666667</ele><time>2026-05-01T07:40:22.999Z</time></trkpt><trkpt lat="39.58204764233053" lon="8.533277614408261"><ele>306.0</ele><time>2026-05-01T07:40:23.999Z</time></trkpt><trkpt lat="39.581996612476914" lon="8.533090830095944"><ele>306.0</ele><time>2026-05-01T07:40:24.999Z</time></trkpt><trkpt lat="39.581947994613415" lon="8.5329036677548"><ele>306.0</ele><time>2026-05-01T07:40:25.999Z</time></trkpt><trkpt lat="39.581892858490626" lon="8.532740113798214"><ele>306.0</ele><time>2026-05-01T07:40:26.999Z</time></trkpt><trkpt lat="39.581826449037955" lon="8.532604950315937"><ele>306.0</ele><time>2026-05-01T07:40:27.999Z</time></trkpt><trkpt lat="39.58172724016196" lon="8.532514745927996"><ele>304.0</ele><time>2026-05-01T07:40:28.999Z</time></trkpt><trkpt lat="39.58160518573603" lon="8.532485296745055"><ele>302.0</ele><time>2026-05-01T07:40:29.999Z</time></trkpt><trkpt lat="39.58148978210895" lon="8.53252319608931"><ele>300.0</ele><time>2026-05-01T07:40:30.999Z</time></trkpt><trkpt lat="39.581393938401796" lon="8.53262706070019"><ele>298.0</ele><time>2026-05-01T07:40:31.999Z</time></trkpt><trkpt lat="39.581326309690446" lon="8.532784877715235"><ele>300.0</ele><time>2026-05-01T07:40:32.999Z</time></trkpt><trkpt lat="39.58128784277155" lon="8.532970819981504"><ele>302.0</ele><time>2026-05-01T07:40:33.999Z</time></trkpt><trkpt lat="39.58124222369458" lon="8.53315493418105"><ele>304.0</ele><time>2026-05-01T07:40:34.999Z</time></trkpt><trkpt lat="39.58118770825764" lon="8.533319857248525"><ele>306.0</ele><time>2026-05-01T07:40:35.999Z</time></trkpt><trkpt lat="39.58115279866729" lon="8.53349277094681"><ele>297.6666666666667</ele><time>2026-05-01T07:40:36.999Z</time></trkpt><trkpt lat="39.58115423925292" lon="8.533684805486539"><ele>289.33333333333337</ele><time>2026-05-01T07:40:37.999Z</time></trkpt><trkpt lat="39.5811573739921" lon="8.533885449774008"><ele>281.0</ele><time>2026-05-01T07:40:38.999Z</time></trkpt><trkpt lat="39.581124276652325" lon="8.534074896943029"><ele>281.0</ele><time>2026-05-01T07:40:39.999Z</time></trkpt><trkpt lat="39.581106331174496" lon="8.534269123043035"><ele>281.0</ele><time>2026-05-01T07:40:40.999Z</time></trkpt><trkpt lat="39.58111771494912" lon="8.534467312016535"><ele>281.0</ele><time>2026-05-01T07:40:41.999Z</time></trkpt><trkpt lat="39.581140130960705" lon="8.534649128940794"><ele>281.0</ele><time>2026-05-01T07:40:42.999Z</time></trkpt><trkpt lat="39.581195006336294" lon="8.5348085356876"><ele>285.0</ele><time>2026-05-01T07:40:43.999Z</time></trkpt><trkpt lat="39.581286300359864" lon="8.534915547378487"><ele>289.0</ele><time>2026-05-01T07:40:44.999Z</time></trkpt><trkpt lat="39.58136920687105" lon="8.534983314999504"><ele>293.0</ele><time>2026-05-01T07:40:45.999Z</time></trkpt><trkpt lat="39.58140524452462" lon="8.53506993968566"><ele>297.0</ele><time>2026-05-01T07:40:46.999Z</time></trkpt><trkpt lat="39.58137102046685" lon="8.53518639793925"><ele>301.0</ele><time>2026-05-01T07:40:47.999Z</time></trkpt><trkpt lat="39.58126579746575" lon="8.535305367455162"><ele>300.0</ele><time>2026-05-01T07:40:48.999Z</time></trkpt><trkpt lat="39.58118727408106" lon="8.535463918161662"><ele>299.0</ele><time>2026-05-01T07:40:49.999Z</time></trkpt><trkpt lat="39.58109836652501" lon="8.535623237707906"><ele>298.0</ele><time>2026-05-01T07:40:50.999Z</time></trkpt><trkpt lat="39.581011706249036" lon="8.535759856507262"><ele>297.0</ele><time>2026-05-01T07:40:51.999Z</time></trkpt><trkpt lat="39.580943395024946" lon="8.535890842650183"><ele>292.75</ele><time>2026-05-01T07:40:52.999Z</time></trkpt><trkpt lat="39.58093188192695" lon="8.536033118381562"><ele>288.5</ele><time>2026-05-01T07:40:53.999Z</time></trkpt><trkpt lat="39.58097180977212" lon="8.536209499543117"><ele>284.25</ele><time>2026-05-01T07:40:54.999Z</time></trkpt><trkpt lat="39.58102078303876" lon="8.536407892349368"><ele>280.0</ele><time>2026-05-01T07:40:55.999Z</time></trkpt><trkpt lat="39.58104041746428" lon="8.536622910262498"><ele>278.0</ele><time>2026-05-01T07:40:56.999Z</time></trkpt><trkpt lat="39.58104499866719" lon="8.536845520857947"><ele>276.0</ele><time>2026-05-01T07:40:57.999Z</time></trkpt><trkpt lat="39.58105529366487" lon="8.537071359837906"><ele>274.0</ele><time>2026-05-01T07:40:58.999Z</time></trkpt><trkpt lat="39.58107062818529" lon="8.537310804269568"><ele>272.66666666666663</ele><time>2026-05-01T07:40:59.999Z</time></trkpt><trkpt lat="39.58109111752014" lon="8.537557361570046"><ele>271.3333333333333</ele><time>2026-05-01T07:41:00.999Z</time></trkpt><trkpt lat="39.581103502546306" lon="8.537808875506546"><ele>270.0</ele><time>2026-05-01T07:41:01.999Z</time></trkpt><trkpt lat="39.58111551544903" lon="8.538044191228732"><ele>268.0</ele><time>2026-05-01T07:41:02.999Z</time></trkpt><trkpt lat="39.58112059317235" lon="8.538271230437905"><ele>266.0</ele><time>2026-05-01T07:41:03.999Z</time></trkpt><trkpt lat="39.58111431191718" lon="8.538503608424293"><ele>264.0</ele><time>2026-05-01T07:41:04.999Z</time></trkpt><trkpt lat="39.58108381574886" lon="8.538740649862005"><ele>263.0</ele><time>2026-05-01T07:41:05.999Z</time></trkpt><trkpt lat="39.58105331308293" lon="8.538983761741052"><ele>262.0</ele><time>2026-05-01T07:41:06.999Z</time></trkpt><trkpt lat="39.58102881505195" lon="8.539224867903004"><ele>261.0</ele><time>2026-05-01T07:41:07.999Z</time></trkpt><trkpt lat="39.58099903743687" lon="8.539445679170441"><ele>260.6666666666667</ele><time>2026-05-01T07:41:08.999Z</time></trkpt><trkpt lat="39.580970117689674" lon="8.539651260810675"><ele>260.33333333333337</ele><time>2026-05-01T07:41:09.999Z</time></trkpt><trkpt lat="39.58096881571821" lon="8.53987533683454"><ele>260.0</ele><time>2026-05-01T07:41:10.999Z</time></trkpt><trkpt lat="39.58097393806595" lon="8.540117615162657"><ele>260.0</ele><time>2026-05-01T07:41:11.999Z</time></trkpt><trkpt lat="39.58096766931896" lon="8.540351004535381"><ele>260.0</ele><time>2026-05-01T07:41:12.998Z</time></trkpt><trkpt lat="39.58095092670778" lon="8.540577452195393"><ele>260.0</ele><time>2026-05-01T07:41:13.998Z</time></trkpt><trkpt lat="39.5809558513632" lon="8.540798936258263"><ele>258.0</ele><time>2026-05-01T07:41:14.998Z</time></trkpt><trkpt lat="39.58098456806701" lon="8.541024309377738"><ele>256.0</ele><time>2026-05-01T07:41:15.998Z</time></trkpt><trkpt lat="39.58102148477651" lon="8.541238963078534"><ele>254.0</ele><time>2026-05-01T07:41:16.998Z</time></trkpt><trkpt lat="39.581069389694136" lon="8.54144939923956"><ele>255.0</ele><time>2026-05-01T07:41:17.998Z</time></trkpt><trkpt lat="39.58113413590128" lon="8.54165705136825"><ele>256.0</ele><time>2026-05-01T07:41:19Z</time></trkpt><trkpt lat="39.58122693893211" lon="8.541843191097636"><ele>257.0</ele><time>2026-05-01T07:41:20Z</time></trkpt><trkpt lat="39.58134556997518" lon="8.541988324810188"><ele>256.2</ele><time>2026-05-01T07:41:21Z</time></trkpt><trkpt lat="39.58145169532615" lon="8.54211282344075"><ele>255.39999999999998</ele><time>2026-05-01T07:41:22Z</time></trkpt><trkpt lat="39.581511710516274" lon="8.542226349911314"><ele>254.60000000000002</ele><time>2026-05-01T07:41:23Z</time></trkpt><trkpt lat="39.581528462583655" lon="8.542337044426205"><ele>253.8</ele><time>2026-05-01T07:41:24Z</time></trkpt><trkpt lat="39.58150936719855" lon="8.542449661983056"><ele>253.0</ele><time>2026-05-01T07:41:25Z</time></trkpt><trkpt lat="39.581427724672906" lon="8.54254184060723"><ele>253.0</ele><time>2026-05-01T07:41:26Z</time></trkpt><trkpt lat="39.58133686971716" lon="8.542640131654618"><ele>253.0</ele><time>2026-05-01T07:41:27Z</time></trkpt><trkpt lat="39.581233718008384" lon="8.542727022788558"><ele>253.0</ele><time>2026-05-01T07:41:28Z</time></trkpt><trkpt lat="39.581165109128946" lon="8.542865076826775"><ele>253.0</ele><time>2026-05-01T07:41:29Z</time></trkpt><trkpt lat="39.58114146464413" lon="8.543052463545333"><ele>250.66666666666666</ele><time>2026-05-01T07:41:30Z</time></trkpt><trkpt lat="39.58112180387559" lon="8.543252092610619"><ele>248.33333333333331</ele><time>2026-05-01T07:41:31Z</time></trkpt><trkpt lat="39.581093136759335" lon="8.543451174397152"><ele>246.0</ele><time>2026-05-01T07:41:32Z</time></trkpt><trkpt lat="39.58106324118739" lon="8.543651745343514"><ele>246.66666666666669</ele><time>2026-05-01T07:41:33Z</time></trkpt><trkpt lat="39.58102585746542" lon="8.543856569571984"><ele>247.33333333333334</ele><time>2026-05-01T07:41:34Z</time></trkpt><trkpt lat="39.58096675486536" lon="8.544053428822286"><ele>248.0</ele><time>2026-05-01T07:41:35Z</time></trkpt><trkpt lat="39.580883219749644" lon="8.544247531568086"><ele>248.0</ele><time>2026-05-01T07:41:36Z</time></trkpt><trkpt lat="39.580758969162375" lon="8.544410288446281"><ele>248.0</ele><time>2026-05-01T07:41:37Z</time></trkpt><trkpt lat="39.5806300969583" lon="8.544570941202712"><ele>248.0</ele><time>2026-05-01T07:41:38Z</time></trkpt><trkpt lat="39.58048176549198" lon="8.544687981984964"><ele>247.66666666666669</ele><time>2026-05-01T07:41:39Z</time></trkpt><trkpt lat="39.580318755852154" lon="8.544757983522715"><ele>247.33333333333331</ele><time>2026-05-01T07:41:40Z</time></trkpt><trkpt lat="39.580143913922385" lon="8.544820813706163"><ele>247.0</ele><time>2026-05-01T07:41:41Z</time></trkpt><trkpt lat="39.57997897177445" lon="8.544897549170036"><ele>247.0</ele><time>2026-05-01T07:41:42Z</time></trkpt><trkpt lat="39.579810296010336" lon="8.544950661170347"><ele>247.0</ele><time>2026-05-01T07:41:43Z</time></trkpt><trkpt lat="39.579650119949314" lon="8.545003643600644"><ele>247.0</ele><time>2026-05-01T07:41:44Z</time></trkpt><trkpt lat="39.57949330193436" lon="8.545070244850361"><ele>245.0</ele><time>2026-05-01T07:41:45Z</time></trkpt><trkpt lat="39.57935311040626" lon="8.545161616449441"><ele>243.0</ele><time>2026-05-01T07:41:46Z</time></trkpt><trkpt lat="39.57921985313022" lon="8.54526085384559"><ele>241.0</ele><time>2026-05-01T07:41:47Z</time></trkpt><trkpt lat="39.57908763614828" lon="8.54535444575661"><ele>240.33333333333331</ele><time>2026-05-01T07:41:48Z</time></trkpt><trkpt lat="39.5789627670797" lon="8.545464476515441"><ele>239.66666666666669</ele><time>2026-05-01T07:41:49Z</time></trkpt><trkpt lat="39.57884985426555" lon="8.545615853773315"><ele>239.0</ele><time>2026-05-01T07:41:50Z</time></trkpt><trkpt lat="39.578760650952894" lon="8.545793054582077"><ele>239.0</ele><time>2026-05-01T07:41:51Z</time></trkpt><trkpt lat="39.57869367258907" lon="8.545951670675242"><ele>239.0</ele><time>2026-05-01T07:41:52Z</time></trkpt><trkpt lat="39.57865556767983" lon="8.546087689608887"><ele>239.0</ele><time>2026-05-01T07:41:53Z</time></trkpt><trkpt lat="39.57865465989986" lon="8.546214972202835"><ele>239.0</ele><time>2026-05-01T07:41:54Z</time></trkpt><trkpt lat="39.57870482166839" lon="8.546342883342902"><ele>236.25</ele><time>2026-05-01T07:41:55Z</time></trkpt><trkpt lat="39.57880554923458" lon="8.546454578891932"><ele>233.5</ele><time>2026-05-01T07:41:56Z</time></trkpt><trkpt lat="39.57892606343139" lon="8.54655285534604"><ele>230.75</ele><time>2026-05-01T07:41:57Z</time></trkpt><trkpt lat="39.57904783872937" lon="8.54667773681818"><ele>228.0</ele><time>2026-05-01T07:41:58Z</time></trkpt><trkpt lat="39.57914780263692" lon="8.546837452593415"><ele>228.0</ele><time>2026-05-01T07:41:59Z</time></trkpt><trkpt lat="39.579235641515496" lon="8.547013932093718"><ele>228.0</ele><time>2026-05-01T07:42:00Z</time></trkpt><trkpt lat="39.579341732663295" lon="8.547160897287673"><ele>228.0</ele><time>2026-05-01T07:42:01Z</time></trkpt><trkpt lat="39.57948042803905" lon="8.547271743745197"><ele>227.33333333333331</ele><time>2026-05-01T07:42:02Z</time></trkpt><trkpt lat="39.57962980974752" lon="8.547360783179613"><ele>226.66666666666666</ele><time>2026-05-01T07:42:03Z</time></trkpt><trkpt lat="39.57976835163997" lon="8.54745211671024"><ele>226.0</ele><time>2026-05-01T07:42:04Z</time></trkpt><trkpt lat="39.57988797465651" lon="8.547556313784117"><ele>226.0</ele><time>2026-05-01T07:42:05Z</time></trkpt><trkpt lat="39.57997190741351" lon="8.547680349222283"><ele>226.0</ele><time>2026-05-01T07:42:06Z</time></trkpt><trkpt lat="39.580011321238146" lon="8.547823058448891"><ele>226.0</ele><time>2026-05-01T07:42:07Z</time></trkpt><trkpt lat="39.57999881132716" lon="8.547970627238954"><ele>226.0</ele><time>2026-05-01T07:42:08Z</time></trkpt><trkpt lat="39.57990208684877" lon="8.548098722967984"><ele>222.75</ele><time>2026-05-01T07:42:09Z</time></trkpt><trkpt lat="39.57980782697156" lon="8.548263549984126"><ele>219.5</ele><time>2026-05-01T07:42:10Z</time></trkpt><trkpt lat="39.57970980530633" lon="8.548398615821842"><ele>216.25</ele><time>2026-05-01T07:42:10.999Z</time></trkpt><trkpt lat="39.579627766996694" lon="8.548543606677736"><ele>213.0</ele><time>2026-05-01T07:42:11.999Z</time></trkpt><trkpt lat="39.57955070197595" lon="8.548691541146681"><ele>213.66666666666669</ele><time>2026-05-01T07:42:12.999Z</time></trkpt><trkpt lat="39.579501943131056" lon="8.548873989565251"><ele>214.33333333333334</ele><time>2026-05-01T07:42:13.999Z</time></trkpt><trkpt lat="39.57947998415892" lon="8.549075575248919"><ele>215.0</ele><time>2026-05-01T07:42:14.999Z</time></trkpt><trkpt lat="39.579467882924654" lon="8.549279579229879"><ele>215.0</ele><time>2026-05-01T07:42:15.999Z</time></trkpt><trkpt lat="39.57943797721705" lon="8.549478887856704"><ele>215.0</ele><time>2026-05-01T07:42:16.999Z</time></trkpt><trkpt lat="39.57936792789962" lon="8.54965808412449"><ele>215.0</ele><time>2026-05-01T07:42:17.999Z</time></trkpt><trkpt lat="39.579289727142594" lon="8.549816720802196"><ele>217.75</ele><time>2026-05-01T07:42:18.999Z</time></trkpt><trkpt lat="39.57920461940527" lon="8.549961508632284"><ele>220.5</ele><time>2026-05-01T07:42:19.999Z</time></trkpt><trkpt lat="39.57912068062736" lon="8.550069419654255"><ele>223.25</ele><time>2026-05-01T07:42:20.999Z</time></trkpt><trkpt lat="39.579026681608326" lon="8.55012903999566"><ele>226.0</ele><time>2026-05-01T07:42:21.999Z</time></trkpt><trkpt lat="39.578932174919984" lon="8.550140317693813"><ele>226.0</ele><time>2026-05-01T07:42:22.999Z</time></trkpt><trkpt lat="39.578823230771185" lon="8.550140804401574"><ele>226.0</ele><time>2026-05-01T07:42:23.999Z</time></trkpt><trkpt lat="39.57870117110107" lon="8.55012861129472"><ele>226.0</ele><time>2026-05-01T07:42:24.999Z</time></trkpt><trkpt lat="39.57857025427213" lon="8.550118933577387"><ele>226.0</ele><time>2026-05-01T07:42:25.999Z</time></trkpt><trkpt lat="39.57843575630962" lon="8.550111128168218"><ele>226.5</ele><time>2026-05-01T07:42:26.999Z</time></trkpt><trkpt lat="39.57829656464613" lon="8.550103050367358"><ele>227.0</ele><time>2026-05-01T07:42:27.999Z</time></trkpt><trkpt lat="39.57815550082348" lon="8.550094863906263"><ele>227.5</ele><time>2026-05-01T07:42:28.999Z</time></trkpt><trkpt lat="39.578017404924566" lon="8.55011037994486"><ele>228.0</ele><time>2026-05-01T07:42:29.999Z</time></trkpt><trkpt lat="39.577899629480314" lon="8.550085094366338"><ele>228.25</ele><time>2026-05-01T07:42:30.999Z</time></trkpt><trkpt lat="39.577792890956225" lon="8.550109382551176"><ele>228.5</ele><time>2026-05-01T07:42:31.999Z</time></trkpt><trkpt lat="39.57768358956484" lon="8.550113883611735"><ele>228.75</ele><time>2026-05-01T07:42:32.999Z</time></trkpt><trkpt lat="39.5775648987656" lon="8.550144014300933"><ele>229.0</ele><time>2026-05-01T07:42:33.999Z</time></trkpt><trkpt lat="39.57744855454943" lon="8.550220714515504"><ele>229.0</ele><time>2026-05-01T07:42:34.999Z</time></trkpt><trkpt lat="39.577320746133374" lon="8.550286129052727"><ele>229.0</ele><time>2026-05-01T07:42:35.999Z</time></trkpt><trkpt lat="39.5771987927431" lon="8.550307241941256"><ele>229.0</ele><time>2026-05-01T07:42:36.999Z</time></trkpt><trkpt lat="39.577096114275584" lon="8.550218979409873"><ele>229.0</ele><time>2026-05-01T07:42:37.999Z</time></trkpt><trkpt lat="39.57696122601952" lon="8.55014752374419"><ele>230.33333333333331</ele><time>2026-05-01T07:42:38.999Z</time></trkpt><trkpt lat="39.5768150230511" lon="8.550104749778649"><ele>231.66666666666669</ele><time>2026-05-01T07:42:39.999Z</time></trkpt><trkpt lat="39.57666445190851" lon="8.550066956259"><ele>233.0</ele><time>2026-05-01T07:42:40.999Z</time></trkpt><trkpt lat="39.57651716268602" lon="8.550059708622397"><ele>233.0</ele><time>2026-05-01T07:42:41.999Z</time></trkpt><trkpt lat="39.576355934497904" lon="8.55003615031084"><ele>233.0</ele><time>2026-05-01T07:42:42.999Z</time></trkpt><trkpt lat="39.57619573037076" lon="8.550027121730404"><ele>233.0</ele><time>2026-05-01T07:42:43.999Z</time></trkpt><trkpt lat="39.57603253936782" lon="8.550018047571355"><ele>233.66666666666669</ele><time>2026-05-01T07:42:44.999Z</time></trkpt><trkpt lat="39.5758692806483" lon="8.550009910368063"><ele>234.33333333333331</ele><time>2026-05-01T07:42:45.999Z</time></trkpt><trkpt lat="39.575707635237194" lon="8.550001853532446"><ele>235.0</ele><time>2026-05-01T07:42:46.999Z</time></trkpt><trkpt lat="39.575550466159655" lon="8.55001552136538"><ele>235.0</ele><time>2026-05-01T07:42:47.999Z</time></trkpt><trkpt lat="39.5753971196261" lon="8.550001702802165"><ele>235.0</ele><time>2026-05-01T07:42:48.999Z</time></trkpt><trkpt lat="39.575249148416944" lon="8.549955835833604"><ele>235.0</ele><time>2026-05-01T07:42:49.999Z</time></trkpt><trkpt lat="39.57509960393731" lon="8.549914674591799"><ele>235.66666666666666</ele><time>2026-05-01T07:42:50.999Z</time></trkpt><trkpt lat="39.574954512377566" lon="8.549860053471468"><ele>236.33333333333331</ele><time>2026-05-01T07:42:51.999Z</time></trkpt><trkpt lat="39.57480932193617" lon="8.549782776823713"><ele>237.0</ele><time>2026-05-01T07:42:52.999Z</time></trkpt><trkpt lat="39.57466544242641" lon="8.549694551287878"><ele>237.0</ele><time>2026-05-01T07:42:53.999Z</time></trkpt><trkpt lat="39.5745377402603" lon="8.549577764347685"><ele>237.0</ele><time>2026-05-01T07:42:54.999Z</time></trkpt><trkpt lat="39.57441541831622" lon="8.549441192034566"><ele>237.0</ele><time>2026-05-01T07:42:55.999Z</time></trkpt><trkpt lat="39.57428053228526" lon="8.549308978188286"><ele>237.33333333333331</ele><time>2026-05-01T07:42:56.999Z</time></trkpt><trkpt lat="39.574156952665675" lon="8.549153929008206"><ele>237.66666666666666</ele><time>2026-05-01T07:42:57.999Z</time></trkpt><trkpt lat="39.57403847064245" lon="8.548985372264635"><ele>238.0</ele><time>2026-05-01T07:42:58.999Z</time></trkpt><trkpt lat="39.57390892838558" lon="8.548829447056946"><ele>238.0</ele><time>2026-05-01T07:42:59.999Z</time></trkpt><trkpt lat="39.57378691830035" lon="8.54868035219732"><ele>238.0</ele><time>2026-05-01T07:43:00.999Z</time></trkpt><trkpt lat="39.57366906228276" lon="8.54855119871131"><ele>238.0</ele><time>2026-05-01T07:43:01.999Z</time></trkpt><trkpt lat="39.57358446425776" lon="8.548399190017268"><ele>238.0</ele><time>2026-05-01T07:43:02.999Z</time></trkpt><trkpt lat="39.57347807148633" lon="8.548293325252295"><ele>238.0</ele><time>2026-05-01T07:43:03.999Z</time></trkpt><trkpt lat="39.57335377374923" lon="8.548217735137296"><ele>238.0</ele><time>2026-05-01T07:43:04.999Z</time></trkpt><trkpt lat="39.573204668867" lon="8.548208041017451"><ele>238.0</ele><time>2026-05-01T07:43:05.999Z</time></trkpt><trkpt lat="39.57304585905628" lon="8.548207953822525"><ele>238.0</ele><time>2026-05-01T07:43:06.999Z</time></trkpt><trkpt lat="39.5728809583154" lon="8.548204053595386"><ele>238.0</ele><time>2026-05-01T07:43:07.999Z</time></trkpt><trkpt lat="39.57271767679352" lon="8.548198032023398"><ele>238.0</ele><time>2026-05-01T07:43:08.999Z</time></trkpt><trkpt lat="39.57255278457981" lon="8.548191113645666"><ele>238.66666666666666</ele><time>2026-05-01T07:43:09.999Z</time></trkpt><trkpt lat="39.57238256438174" lon="8.548183970205965"><ele>239.33333333333331</ele><time>2026-05-01T07:43:10.999Z</time></trkpt><trkpt lat="39.5722153610665" lon="8.54817408906319"><ele>240.0</ele><time>2026-05-01T07:43:11.999Z</time></trkpt><trkpt lat="39.57205477939423" lon="8.548167970242744"><ele>239.75</ele><time>2026-05-01T07:43:12.999Z</time></trkpt><trkpt lat="39.571907217144215" lon="8.548191418872987"><ele>239.5</ele><time>2026-05-01T07:43:13.999Z</time></trkpt><trkpt lat="39.57177267486942" lon="8.5482369945539"><ele>239.25</ele><time>2026-05-01T07:43:14.998Z</time></trkpt><trkpt lat="39.57165307500371" lon="8.548351840705488"><ele>239.0</ele><time>2026-05-01T07:43:15.998Z</time></trkpt><trkpt lat="39.5715436654879" lon="8.548504027105706"><ele>239.0</ele><time>2026-05-01T07:43:16.998Z</time></trkpt><trkpt lat="39.57141759428639" lon="8.548636047835169"><ele>239.0</ele><time>2026-05-01T07:43:17.998Z</time></trkpt><trkpt lat="39.571292792904" lon="8.548775492243434"><ele>239.0</ele><time>2026-05-01T07:43:18.998Z</time></trkpt><trkpt lat="39.571166470595365" lon="8.548917959012138"><ele>238.33333333333334</ele><time>2026-05-01T07:43:19.998Z</time></trkpt><trkpt lat="39.57104900145111" lon="8.549068213721924"><ele>237.66666666666669</ele><time>2026-05-01T07:43:20.998Z</time></trkpt><trkpt lat="39.57093822126771" lon="8.549220068907278"><ele>237.0</ele><time>2026-05-01T07:43:21.998Z</time></trkpt><trkpt lat="39.570842831312305" lon="8.549392558090693"><ele>240.0</ele><time>2026-05-01T07:43:22.998Z</time></trkpt><trkpt lat="39.570763449484794" lon="8.549584214331587"><ele>243.0</ele><time>2026-05-01T07:43:23.998Z</time></trkpt><trkpt lat="39.570708573396715" lon="8.549795006999886"><ele>246.0</ele><time>2026-05-01T07:43:25Z</time></trkpt><trkpt lat="39.57068027092974" lon="8.5500164531998"><ele>246.0</ele><time>2026-05-01T07:43:26Z</time></trkpt><trkpt lat="39.570650744772166" lon="8.550233233929013"><ele>246.0</ele><time>2026-05-01T07:43:27Z</time></trkpt><trkpt lat="39.57056298937764" lon="8.55042435517155"><ele>246.0</ele><time>2026-05-01T07:43:28Z</time></trkpt><trkpt lat="39.570471607763" lon="8.55061252004243"><ele>249.33333333333331</ele><time>2026-05-01T07:43:29Z</time></trkpt><trkpt lat="39.57038260285404" lon="8.550807332748592"><ele>252.66666666666666</ele><time>2026-05-01T07:43:30Z</time></trkpt><trkpt lat="39.57028131539125" lon="8.550987837615263"><ele>256.0</ele><time>2026-05-01T07:43:31Z</time></trkpt><trkpt lat="39.57018956663025" lon="8.551174467396581"><ele>251.66666666666666</ele><time>2026-05-01T07:43:32Z</time></trkpt><trkpt lat="39.570106640896334" lon="8.551361763533295"><ele>247.33333333333331</ele><time>2026-05-01T07:43:33Z</time></trkpt><trkpt lat="39.57004288666294" lon="8.551559663569469"><ele>243.0</ele><time>2026-05-01T07:43:34Z</time></trkpt><trkpt lat="39.57002170828891" lon="8.551775527271513"><ele>243.0</ele><time>2026-05-01T07:43:35Z</time></trkpt><trkpt lat="39.570044655579856" lon="8.551988447967444"><ele>243.0</ele><time>2026-05-01T07:43:36Z</time></trkpt><trkpt lat="39.570111697885466" lon="8.552187281082512"><ele>243.0</ele><time>2026-05-01T07:43:37Z</time></trkpt><trkpt lat="39.570217646429136" lon="8.552355549665743"><ele>243.5</ele><time>2026-05-01T07:43:38Z</time></trkpt><trkpt lat="39.57033450983991" lon="8.552497822614626"><ele>244.0</ele><time>2026-05-01T07:43:39Z</time></trkpt><trkpt lat="39.5704236667267" lon="8.552629336771753"><ele>244.5</ele><time>2026-05-01T07:43:40Z</time></trkpt><trkpt lat="39.57046009932351" lon="8.55275888482435"><ele>245.0</ele><time>2026-05-01T07:43:41Z</time></trkpt><trkpt lat="39.57045552493888" lon="8.552901897173935"><ele>247.5</ele><time>2026-05-01T07:43:42Z</time></trkpt><trkpt lat="39.57039239310425" lon="8.553023448018955"><ele>250.0</ele><time>2026-05-01T07:43:43Z</time></trkpt><trkpt lat="39.57026249152181" lon="8.553090593942121"><ele>252.5</ele><time>2026-05-01T07:43:44Z</time></trkpt><trkpt lat="39.57014725723037" lon="8.55318797200731"><ele>255.0</ele><time>2026-05-01T07:43:45Z</time></trkpt><trkpt lat="39.57002966926619" lon="8.553301458679142"><ele>255.0</ele><time>2026-05-01T07:43:46Z</time></trkpt><trkpt lat="39.569897548651774" lon="8.553402332807375"><ele>255.0</ele><time>2026-05-01T07:43:47Z</time></trkpt><trkpt lat="39.56976413745595" lon="8.553511249113162"><ele>255.0</ele><time>2026-05-01T07:43:48Z</time></trkpt><trkpt lat="39.56963181462376" lon="8.553621196658577"><ele>255.66666666666669</ele><time>2026-05-01T07:43:49Z</time></trkpt><trkpt lat="39.56949390311631" lon="8.553726514708172"><ele>256.33333333333337</ele><time>2026-05-01T07:43:50Z</time></trkpt><trkpt lat="39.56935761080435" lon="8.55383681362852"><ele>257.0</ele><time>2026-05-01T07:43:51Z</time></trkpt><trkpt lat="39.56923243427542" lon="8.553960199319645"><ele>257.0</ele><time>2026-05-01T07:43:52Z</time></trkpt><trkpt lat="39.56913512941466" lon="8.55412159719831"><ele>257.0</ele><time>2026-05-01T07:43:53Z</time></trkpt><trkpt lat="39.569069791853295" lon="8.554318500984483"><ele>257.0</ele><time>2026-05-01T07:43:54Z</time></trkpt><trkpt lat="39.56903457483826" lon="8.554533769030645"><ele>258.6666666666667</ele><time>2026-05-01T07:43:55Z</time></trkpt><trkpt lat="39.569044424303385" lon="8.554759289571331"><ele>260.3333333333333</ele><time>2026-05-01T07:43:56Z</time></trkpt><trkpt lat="39.56905946400645" lon="8.55498050433796"><ele>262.0</ele><time>2026-05-01T07:43:57Z</time></trkpt><trkpt lat="39.569063684700076" lon="8.555204573481278"><ele>263.66666666666663</ele><time>2026-05-01T07:43:58Z</time></trkpt><trkpt lat="39.56905374400366" lon="8.555428697235602"><ele>265.3333333333333</ele><time>2026-05-01T07:43:59Z</time></trkpt><trkpt lat="39.56904409524844" lon="8.555650481873833"><ele>267.0</ele><time>2026-05-01T07:44:00Z</time></trkpt><trkpt lat="39.56904054132028" lon="8.555874547247363"><ele>267.0</ele><time>2026-05-01T07:44:01Z</time></trkpt><trkpt lat="39.56903632872623" lon="8.556098217455755"><ele>267.0</ele><time>2026-05-01T07:44:02Z</time></trkpt><trkpt lat="39.56903269374757" lon="8.556321292616726"><ele>267.0</ele><time>2026-05-01T07:44:03Z</time></trkpt><trkpt lat="39.56902817840182" lon="8.556546081753137"><ele>268.0</ele><time>2026-05-01T07:44:04Z</time></trkpt><trkpt lat="39.569022007283614" lon="8.556765203295383"><ele>269.0</ele><time>2026-05-01T07:44:05Z</time></trkpt><trkpt lat="39.569016308041405" lon="8.55698354675268"><ele>270.0</ele><time>2026-05-01T07:44:06Z</time></trkpt><trkpt lat="39.569005608244744" lon="8.557199583578553"><ele>272.0</ele><time>2026-05-01T07:44:07Z</time></trkpt><trkpt lat="39.56898396285111" lon="8.557417339679308"><ele>274.0</ele><time>2026-05-01T07:44:08Z</time></trkpt><trkpt lat="39.56895039159375" lon="8.55762913876847"><ele>276.0</ele><time>2026-05-01T07:44:09Z</time></trkpt><trkpt lat="39.568921300525" lon="8.557840229879403"><ele>274.75</ele><time>2026-05-01T07:44:10Z</time></trkpt><trkpt lat="39.56889967648698" lon="8.558044928734097"><ele>273.5</ele><time>2026-05-01T07:44:11Z</time></trkpt><trkpt lat="39.5688590952156" lon="8.558223916703716"><ele>272.25</ele><time>2026-05-01T07:44:12Z</time></trkpt><trkpt lat="39.56875188194901" lon="8.558311399655116"><ele>271.0</ele><time>2026-05-01T07:44:13Z</time></trkpt><trkpt lat="39.568628603577885" lon="8.558330737530124"><ele>271.0</ele><time>2026-05-01T07:44:13.999Z</time></trkpt><trkpt lat="39.56850840637198" lon="8.558440785247278"><ele>271.0</ele><time>2026-05-01T07:44:14.999Z</time></trkpt><trkpt lat="39.568403949813586" lon="8.558563398245257"><ele>271.0</ele><time>2026-05-01T07:44:15.999Z</time></trkpt><trkpt lat="39.56832180628786" lon="8.558734857942644"><ele>271.0</ele><time>2026-05-01T07:44:16.999Z</time></trkpt><trkpt lat="39.5682457500207" lon="8.558911246039516"><ele>275.0</ele><time>2026-05-01T07:44:17.999Z</time></trkpt><trkpt lat="39.568167517811936" lon="8.559089106723711"><ele>279.0</ele><time>2026-05-01T07:44:18.999Z</time></trkpt><trkpt lat="39.56808314209032" lon="8.559267410525615"><ele>283.0</ele><time>2026-05-01T07:44:19.999Z</time></trkpt><trkpt lat="39.56799449803598" lon="8.559442568931395"><ele>282.3333333333333</ele><time>2026-05-01T07:44:20.999Z</time></trkpt><trkpt lat="39.56790896887929" lon="8.559618340261215"><ele>281.6666666666667</ele><time>2026-05-01T07:44:21.999Z</time></trkpt><trkpt lat="39.56783360981275" lon="8.559792434244041"><ele>281.0</ele><time>2026-05-01T07:44:22.999Z</time></trkpt><trkpt lat="39.56778693239198" lon="8.559980413755273"><ele>281.0</ele><time>2026-05-01T07:44:23.999Z</time></trkpt><trkpt lat="39.56778133082091" lon="8.560176202332636"><ele>281.0</ele><time>2026-05-01T07:44:24.999Z</time></trkpt><trkpt lat="39.56779278899115" lon="8.560359639948837"><ele>281.0</ele><time>2026-05-01T07:44:25.999Z</time></trkpt><trkpt lat="39.56773547021306" lon="8.560497892733821"><ele>281.0</ele><time>2026-05-01T07:44:26.999Z</time></trkpt><trkpt lat="39.56763829949717" lon="8.560562829777293"><ele>285.0</ele><time>2026-05-01T07:44:27.999Z</time></trkpt><trkpt lat="39.567510445391136" lon="8.560627603387928"><ele>289.0</ele><time>2026-05-01T07:44:28.999Z</time></trkpt><trkpt lat="39.56738401614981" lon="8.56071387133629"><ele>293.0</ele><time>2026-05-01T07:44:29.999Z</time></trkpt><trkpt lat="39.567240619281236" lon="8.560794254580697"><ele>297.0</ele><time>2026-05-01T07:44:30.999Z</time></trkpt><trkpt lat="39.567090568843874" lon="8.560840448960235"><ele>295.6666666666667</ele><time>2026-05-01T07:44:31.999Z</time></trkpt><trkpt lat="39.5669390527547" lon="8.56088086560397"><ele>294.33333333333337</ele><time>2026-05-01T07:44:32.999Z</time></trkpt><trkpt lat="39.56678181401183" lon="8.56089952872153"><ele>293.0</ele><time>2026-05-01T07:44:33.999Z</time></trkpt><trkpt lat="39.566634052267275" lon="8.560931582218632"><ele>293.0</ele><time>2026-05-01T07:44:34.999Z</time></trkpt><trkpt lat="39.56649692632457" lon="8.560986531778148"><ele>293.0</ele><time>2026-05-01T07:44:35.999Z</time></trkpt><trkpt lat="39.566366058217554" lon="8.561083843924829"><ele>293.0</ele><time>2026-05-01T07:44:36.999Z</time></trkpt><trkpt lat="39.56622311727251" lon="8.561160315146353"><ele>293.0</ele><time>2026-05-01T07:44:37.999Z</time></trkpt><trkpt lat="39.5660772830429" lon="8.561253881100056"><ele>296.0</ele><time>2026-05-01T07:44:38.999Z</time></trkpt><trkpt lat="39.56594599829884" lon="8.561370135468424"><ele>299.0</ele><time>2026-05-01T07:44:39.999Z</time></trkpt><trkpt lat="39.565835675198876" lon="8.561497736696923"><ele>302.0</ele><time>2026-05-01T07:44:40.999Z</time></trkpt><trkpt lat="39.565755966460436" lon="8.561663346523106"><ele>302.0</ele><time>2026-05-01T07:44:41.999Z</time></trkpt><trkpt lat="39.565694633224524" lon="8.56185328538535"><ele>302.0</ele><time>2026-05-01T07:44:42.999Z</time></trkpt><trkpt lat="39.56560647996604" lon="8.562014002230525"><ele>302.0</ele><time>2026-05-01T07:44:43.999Z</time></trkpt><trkpt lat="39.565534978789124" lon="8.562206867797817"><ele>306.6666666666667</ele><time>2026-05-01T07:44:44.999Z</time></trkpt><trkpt lat="39.56544841012095" lon="8.56238413190126"><ele>311.3333333333333</ele><time>2026-05-01T07:44:45.999Z</time></trkpt><trkpt lat="39.56538034382975" lon="8.562557712872241"><ele>316.0</ele><time>2026-05-01T07:44:46.999Z</time></trkpt><trkpt lat="39.565357853285526" lon="8.56273739262882"><ele>317.4</ele><time>2026-05-01T07:44:47.999Z</time></trkpt><trkpt lat="39.56539070363126" lon="8.562914475359271"><ele>318.8</ele><time>2026-05-01T07:44:48.999Z</time></trkpt><trkpt lat="39.565445462573436" lon="8.56305947778611"><ele>320.2</ele><time>2026-05-01T07:44:49.999Z</time></trkpt><trkpt lat="39.56543688494858" lon="8.563183599292161"><ele>321.59999999999997</ele><time>2026-05-01T07:44:50.999Z</time></trkpt><trkpt lat="39.5654116995605" lon="8.563263231644271"><ele>323.0</ele><time>2026-05-01T07:44:51.999Z</time></trkpt><trkpt lat="39.56534438343639" lon="8.563292917488335"><ele>324.5</ele><time>2026-05-01T07:44:52.999Z</time></trkpt><trkpt lat="39.565272892169574" lon="8.563258446143617"><ele>326.0</ele><time>2026-05-01T07:44:53.999Z</time></trkpt><trkpt lat="39.56520637238078" lon="8.563149995020755"><ele>327.5</ele><time>2026-05-01T07:44:54.999Z</time></trkpt><trkpt lat="39.565154462309216" lon="8.5629918961342"><ele>329.0</ele><time>2026-05-01T07:44:55.999Z</time></trkpt><trkpt lat="39.565085362981925" lon="8.562840021323401"><ele>324.6666666666667</ele><time>2026-05-01T07:44:56.999Z</time></trkpt><trkpt lat="39.56500577662946" lon="8.562688220800906"><ele>320.3333333333333</ele><time>2026-05-01T07:44:57.999Z</time></trkpt><trkpt lat="39.56492429457717" lon="8.562527632200252"><ele>316.0</ele><time>2026-05-01T07:44:58.999Z</time></trkpt><trkpt lat="39.56483179257971" lon="8.56235454756609"><ele>316.0</ele><time>2026-05-01T07:44:59.999Z</time></trkpt><trkpt lat="39.564738961620606" lon="8.562183725122182"><ele>316.0</ele><time>2026-05-01T07:45:00.999Z</time></trkpt><trkpt lat="39.56465985817142" lon="8.562005890902109"><ele>316.0</ele><time>2026-05-01T07:45:01.999Z</time></trkpt><trkpt lat="39.56459305290627" lon="8.561805333205077"><ele>311.66666666666663</ele><time>2026-05-01T07:45:02.999Z</time></trkpt><trkpt lat="39.56454714145889" lon="8.561591091457219"><ele>307.3333333333333</ele><time>2026-05-01T07:45:03.999Z</time></trkpt><trkpt lat="39.56450359640047" lon="8.561384578565567"><ele>303.0</ele><time>2026-05-01T07:45:04.999Z</time></trkpt><trkpt lat="39.564430308375776" lon="8.561213940247244"><ele>307.0</ele><time>2026-05-01T07:45:05.999Z</time></trkpt><trkpt lat="39.564316151833616" lon="8.561082641178745"><ele>311.0</ele><time>2026-05-01T07:45:06.999Z</time></trkpt><trkpt lat="39.564174458824596" lon="8.560987118996206"><ele>315.0</ele><time>2026-05-01T07:45:07.999Z</time></trkpt><trkpt lat="39.56401247115461" lon="8.560933195335545"><ele>315.0</ele><time>2026-05-01T07:45:08.999Z</time></trkpt><trkpt lat="39.56384774383585" lon="8.560932949812003"><ele>315.0</ele><time>2026-05-01T07:45:09.999Z</time></trkpt><trkpt lat="39.56368611538224" lon="8.560985506854125"><ele>315.0</ele><time>2026-05-01T07:45:10.999Z</time></trkpt><trkpt lat="39.563540887442116" lon="8.561078435093695"><ele>316.3333333333333</ele><time>2026-05-01T07:45:11.999Z</time></trkpt><trkpt lat="39.56340168491703" lon="8.561187797837773"><ele>317.66666666666663</ele><time>2026-05-01T07:45:12.999Z</time></trkpt><trkpt lat="39.56326290977431" lon="8.56129758733628"><ele>319.0</ele><time>2026-05-01T07:45:13.999Z</time></trkpt><trkpt lat="39.56312039702519" lon="8.561394995165475"><ele>322.3333333333333</ele><time>2026-05-01T07:45:14.999Z</time></trkpt><trkpt lat="39.562975867772074" lon="8.561488564343707"><ele>325.6666666666667</ele><time>2026-05-01T07:45:15.999Z</time></trkpt><trkpt lat="39.56283591079825" lon="8.561585603739964"><ele>329.0</ele><time>2026-05-01T07:45:16.999Z</time></trkpt><trkpt lat="39.56269749174986" lon="8.561685150253924"><ele>329.0</ele><time>2026-05-01T07:45:17.999Z</time></trkpt><trkpt lat="39.56256133647384" lon="8.561787036240919"><ele>329.0</ele><time>2026-05-01T07:45:18.998Z</time></trkpt><trkpt lat="39.56242973023876" lon="8.561898568983942"><ele>329.0</ele><time>2026-05-01T07:45:19.998Z</time></trkpt><trkpt lat="39.562304474739896" lon="8.562024074953884"><ele>330.0</ele><time>2026-05-01T07:45:20.998Z</time></trkpt><trkpt lat="39.562173367723396" lon="8.562136540057633"><ele>331.0</ele><time>2026-05-01T07:45:21.998Z</time></trkpt><trkpt lat="39.562050138522864" lon="8.562261070482698"><ele>332.0</ele><time>2026-05-01T07:45:22.998Z</time></trkpt><trkpt lat="39.561935774112534" lon="8.562402371065623"><ele>332.0</ele><time>2026-05-01T07:45:23.998Z</time></trkpt><trkpt lat="39.561809375691055" lon="8.56252347844811"><ele>332.0</ele><time>2026-05-01T07:45:24.998Z</time></trkpt><trkpt lat="39.56170574746166" lon="8.562660171888856"><ele>332.0</ele><time>2026-05-01T07:45:25.998Z</time></trkpt><trkpt lat="39.56164463713513" lon="8.56284273914507"><ele>335.6666666666667</ele><time>2026-05-01T07:45:26.998Z</time></trkpt><trkpt lat="39.56163727174175" lon="8.563047373849987"><ele>339.3333333333333</ele><time>2026-05-01T07:45:27.998Z</time></trkpt><trkpt lat="39.56166980722725" lon="8.563251229847126"><ele>343.0</ele><time>2026-05-01T07:45:28.998Z</time></trkpt><trkpt lat="39.56170168952669" lon="8.563454815218382"><ele>343.0</ele><time>2026-05-01T07:45:29.998Z</time></trkpt><trkpt lat="39.56169033817773" lon="8.563642767747059"><ele>343.0</ele><time>2026-05-01T07:45:31Z</time></trkpt><trkpt lat="39.56168246799712" lon="8.563834869160234"><ele>343.0</ele><time>2026-05-01T07:45:32Z</time></trkpt><trkpt lat="39.56158752871181" lon="8.563964096925556"><ele>343.0</ele><time>2026-05-01T07:45:33Z</time></trkpt><trkpt lat="39.56148047986766" lon="8.564100661329531"><ele>343.0</ele><time>2026-05-01T07:45:34Z</time></trkpt><trkpt lat="39.56134669788751" lon="8.564195901733372"><ele>343.0</ele><time>2026-05-01T07:45:35Z</time></trkpt><trkpt lat="39.56121050362296" lon="8.564303817355396"><ele>343.0</ele><time>2026-05-01T07:45:36Z</time></trkpt><trkpt lat="39.5610771059247" lon="8.564420499832824"><ele>346.0</ele><time>2026-05-01T07:45:37Z</time></trkpt><trkpt lat="39.5609455284644" lon="8.564549276285618"><ele>349.0</ele><time>2026-05-01T07:45:38Z</time></trkpt><trkpt lat="39.56082790791905" lon="8.56469663674127"><ele>352.0</ele><time>2026-05-01T07:45:39Z</time></trkpt><trkpt lat="39.56070391601717" lon="8.564840527655042"><ele>352.0</ele><time>2026-05-01T07:45:40Z</time></trkpt><trkpt lat="39.56059572191429" lon="8.56499960994926"><ele>352.0</ele><time>2026-05-01T07:45:41Z</time></trkpt><trkpt lat="39.560487555339904" lon="8.565163359621753"><ele>352.0</ele><time>2026-05-01T07:45:42Z</time></trkpt><trkpt lat="39.560382782995056" lon="8.565326975945325"><ele>353.0</ele><time>2026-05-01T07:45:43Z</time></trkpt><trkpt lat="39.56026880460758" lon="8.565471597279434"><ele>354.0</ele><time>2026-05-01T07:45:44Z</time></trkpt><trkpt lat="39.56014568138769" lon="8.56559819838654"><ele>355.0</ele><time>2026-05-01T07:45:45Z</time></trkpt><trkpt lat="39.5600187224382" lon="8.565719370375488"><ele>355.0</ele><time>2026-05-01T07:45:46Z</time></trkpt><trkpt lat="39.55989766764217" lon="8.565857581195473"><ele>355.0</ele><time>2026-05-01T07:45:47Z</time></trkpt><trkpt lat="39.55975796088933" lon="8.565962639286719"><ele>355.0</ele><time>2026-05-01T07:45:48Z</time></trkpt><trkpt lat="39.55962147368104" lon="8.566065316523371"><ele>354.66666666666663</ele><time>2026-05-01T07:45:49Z</time></trkpt><trkpt lat="39.55948008190225" lon="8.5661568296598"><ele>354.3333333333333</ele><time>2026-05-01T07:45:50Z</time></trkpt><trkpt lat="39.55933546895513" lon="8.566226011640415"><ele>354.0</ele><time>2026-05-01T07:45:51Z</time></trkpt><trkpt lat="39.559193274529" lon="8.566268980893142"><ele>358.3333333333333</ele><time>2026-05-01T07:45:52Z</time></trkpt><trkpt lat="39.559037930602685" lon="8.566306361148849"><ele>362.66666666666663</ele><time>2026-05-01T07:45:53Z</time></trkpt><trkpt lat="39.558883486639594" lon="8.566333131030248"><ele>367.0</ele><time>2026-05-01T07:45:54Z</time></trkpt><trkpt lat="39.558735569736314" lon="8.56637182180679"><ele>366.3333333333333</ele><time>2026-05-01T07:45:55Z</time></trkpt><trkpt lat="39.55860614790373" lon="8.566452661173395"><ele>365.6666666666667</ele><time>2026-05-01T07:45:56Z</time></trkpt><trkpt lat="39.55848636262807" lon="8.566567070658566"><ele>365.0</ele><time>2026-05-01T07:45:57Z</time></trkpt><trkpt lat="39.558367594418236" lon="8.566709555836466"><ele>365.0</ele><time>2026-05-01T07:45:58Z</time></trkpt><trkpt lat="39.55823319759918" lon="8.56681423340658"><ele>365.0</ele><time>2026-05-01T07:45:59Z</time></trkpt><trkpt lat="39.55811827894575" lon="8.566949635266274"><ele>365.0</ele><time>2026-05-01T07:46:00Z</time></trkpt><trkpt lat="39.55799220934411" lon="8.567062760292869"><ele>362.6666666666667</ele><time>2026-05-01T07:46:01Z</time></trkpt><trkpt lat="39.557867712580524" lon="8.567177462328813"><ele>360.3333333333333</ele><time>2026-05-01T07:46:02Z</time></trkpt><trkpt lat="39.557765517184734" lon="8.56731996250926"><ele>358.0</ele><time>2026-05-01T07:46:03Z</time></trkpt><trkpt lat="39.55768526438523" lon="8.567492447604637"><ele>358.0</ele><time>2026-05-01T07:46:04Z</time></trkpt><trkpt lat="39.55761825132731" lon="8.567685906098964"><ele>358.0</ele><time>2026-05-01T07:46:05Z</time></trkpt><trkpt lat="39.55756047926043" lon="8.567865784504397"><ele>358.0</ele><time>2026-05-01T07:46:06Z</time></trkpt><trkpt lat="39.557511416739416" lon="8.568050547494781"><ele>361.66666666666663</ele><time>2026-05-01T07:46:07Z</time></trkpt><trkpt lat="39.55746601274553" lon="8.568231999311706"><ele>365.3333333333333</ele><time>2026-05-01T07:46:08Z</time></trkpt><trkpt lat="39.55741593762625" lon="8.568421446616142"><ele>369.0</ele><time>2026-05-01T07:46:09Z</time></trkpt><trkpt lat="39.557380749431935" lon="8.568613590787734"><ele>371.3333333333333</ele><time>2026-05-01T07:46:10Z</time></trkpt><trkpt lat="39.55736166522766" lon="8.568812181692632"><ele>373.66666666666663</ele><time>2026-05-01T07:46:11Z</time></trkpt><trkpt lat="39.55734540065651" lon="8.569004921277008"><ele>376.0</ele><time>2026-05-01T07:46:12Z</time></trkpt><trkpt lat="39.55734157483193" lon="8.569194016152279"><ele>376.0</ele><time>2026-05-01T07:46:13Z</time></trkpt><trkpt lat="39.5573283017307" lon="8.569378330346591"><ele>376.0</ele><time>2026-05-01T07:46:14Z</time></trkpt><trkpt lat="39.557305424622015" lon="8.569550045034342"><ele>376.0</ele><time>2026-05-01T07:46:15Z</time></trkpt><trkpt lat="39.55728274437894" lon="8.569701751915213"><ele>376.0</ele><time>2026-05-01T07:46:16Z</time></trkpt><trkpt lat="39.55725912492866" lon="8.569840544317954"><ele>376.0</ele><time>2026-05-01T07:46:17Z</time></trkpt><trkpt lat="39.55722949611785" lon="8.569967063047182"><ele>376.0</ele><time>2026-05-01T07:46:18Z</time></trkpt><trkpt lat="39.55719929699402" lon="8.570046660739798"><ele>376.0</ele><time>2026-05-01T07:46:19Z</time></trkpt><trkpt lat="39.55716574731518" lon="8.570127017786172"><ele>376.0</ele><time>2026-05-01T07:46:20.999Z</time></trkpt><trkpt lat="39.55708052701156" lon="8.570137060074813"><ele>376.0</ele><time>2026-05-01T07:46:23.999Z</time></trkpt><trkpt lat="39.55701183260374" lon="8.570145227110515"><ele>376.0</ele><time>2026-05-01T07:46:25.999Z</time></trkpt><trkpt lat="39.55693072402935" lon="8.570070030091298"><ele>375.25</ele><time>2026-05-01T07:46:27.999Z</time></trkpt><trkpt lat="39.55683804219626" lon="8.569981174168927"><ele>374.5</ele><time>2026-05-01T07:46:28.999Z</time></trkpt><trkpt lat="39.55674636386865" lon="8.569859216699331"><ele>373.75</ele><time>2026-05-01T07:46:29.999Z</time></trkpt><trkpt lat="39.556678019022534" lon="8.569712824393198"><ele>373.0</ele><time>2026-05-01T07:46:30.999Z</time></trkpt><trkpt lat="39.556593732912" lon="8.569538869787246"><ele>372.0</ele><time>2026-05-01T07:46:31.999Z</time></trkpt><trkpt lat="39.556509091402496" lon="8.569373667193844"><ele>371.0</ele><time>2026-05-01T07:46:32.999Z</time></trkpt><trkpt lat="39.556418203981295" lon="8.56920028709005"><ele>370.0</ele><time>2026-05-01T07:46:33.999Z</time></trkpt><trkpt lat="39.556318952225624" lon="8.569039727574262"><ele>370.0</ele><time>2026-05-01T07:46:34.999Z</time></trkpt><trkpt lat="39.55625108945992" lon="8.568895029172452"><ele>370.0</ele><time>2026-05-01T07:46:35.999Z</time></trkpt><trkpt lat="39.55618921030006" lon="8.568794535886406"><ele>370.0</ele><time>2026-05-01T07:46:36.999Z</time></trkpt><trkpt lat="39.55611643396797" lon="8.568733524965372"><ele>370.0</ele><time>2026-05-01T07:46:37.999Z</time></trkpt><trkpt lat="39.55601579380664" lon="8.568719266533305"><ele>370.0</ele><time>2026-05-01T07:46:38.999Z</time></trkpt><trkpt lat="39.5558968081705" lon="8.568792300629143"><ele>371.25</ele><time>2026-05-01T07:46:39.999Z</time></trkpt><trkpt lat="39.55582675157967" lon="8.568952655705608"><ele>372.5</ele><time>2026-05-01T07:46:40.999Z</time></trkpt><trkpt lat="39.55580557472656" lon="8.569133552002864"><ele>373.75</ele><time>2026-05-01T07:46:41.999Z</time></trkpt><trkpt lat="39.55576142846193" lon="8.569281706267004"><ele>375.0</ele><time>2026-05-01T07:46:42.999Z</time></trkpt><trkpt lat="39.555717818813356" lon="8.569405840164876"><ele>375.0</ele><time>2026-05-01T07:46:43.999Z</time></trkpt><trkpt lat="39.55565945357782" lon="8.569501869467846"><ele>375.0</ele><time>2026-05-01T07:46:44.999Z</time></trkpt><trkpt lat="39.55558694235898" lon="8.569584312153957"><ele>375.0</ele><time>2026-05-01T07:46:45.999Z</time></trkpt><trkpt lat="39.55551004505347" lon="8.569666281258566"><ele>375.0</ele><time>2026-05-01T07:46:46.999Z</time></trkpt><trkpt lat="39.5554465554227" lon="8.56972295753883"><ele>375.0</ele><time>2026-05-01T07:46:47.999Z</time></trkpt><trkpt lat="39.55536831049826" lon="8.569767155654821"><ele>374.75</ele><time>2026-05-01T07:46:49.999Z</time></trkpt><trkpt lat="39.55529928526925" lon="8.569618572808722"><ele>374.5</ele><time>2026-05-01T07:46:50.999Z</time></trkpt><trkpt lat="39.55521703709278" lon="8.569496652072873"><ele>374.25</ele><time>2026-05-01T07:46:51.999Z</time></trkpt><trkpt lat="39.55512466548095" lon="8.569375723287353"><ele>374.0</ele><time>2026-05-01T07:46:52.999Z</time></trkpt><trkpt lat="39.55503573874783" lon="8.569246311580011"><ele>374.0</ele><time>2026-05-01T07:46:53.999Z</time></trkpt><trkpt lat="39.55492601772261" lon="8.569104767027614"><ele>374.0</ele><time>2026-05-01T07:46:54.999Z</time></trkpt><trkpt lat="39.55483852119075" lon="8.56894690433455"><ele>374.0</ele><time>2026-05-01T07:46:55.999Z</time></trkpt><trkpt lat="39.55474498931197" lon="8.568806511019742"><ele>374.0</ele><time>2026-05-01T07:46:56.999Z</time></trkpt><trkpt lat="39.554660595607885" lon="8.568674919340678"><ele>373.75</ele><time>2026-05-01T07:46:57.999Z</time></trkpt><trkpt lat="39.55458121581327" lon="8.568549021271423"><ele>373.5</ele><time>2026-05-01T07:46:58.999Z</time></trkpt><trkpt lat="39.55451041461453" lon="8.568426033664702"><ele>373.25</ele><time>2026-05-01T07:46:59.999Z</time></trkpt><trkpt lat="39.554447157640425" lon="8.568304396497213"><ele>373.0</ele><time>2026-05-01T07:47:00.999Z</time></trkpt><trkpt lat="39.55442464334" lon="8.568165772605637"><ele>373.0</ele><time>2026-05-01T07:47:01.999Z</time></trkpt><trkpt lat="39.554430253095994" lon="8.568032272139844"><ele>373.0</ele><time>2026-05-01T07:47:02.999Z</time></trkpt><trkpt lat="39.554455709562" lon="8.567902026870847"><ele>373.0</ele><time>2026-05-01T07:47:03.999Z</time></trkpt><trkpt lat="39.55448750314681" lon="8.567781535136294"><ele>373.0</ele><time>2026-05-01T07:47:04.999Z</time></trkpt><trkpt lat="39.55451505785789" lon="8.567663153742624"><ele>373.0</ele><time>2026-05-01T07:47:05.999Z</time></trkpt><trkpt lat="39.554541954947915" lon="8.567569832859823"><ele>369.0</ele><time>2026-05-01T07:47:06.999Z</time></trkpt><trkpt lat="39.554574033368496" lon="8.567473435802507"><ele>365.0</ele><time>2026-05-01T07:47:07.999Z</time></trkpt><trkpt lat="39.554596680119154" lon="8.567343539448842"><ele>361.0</ele><time>2026-05-01T07:47:08.999Z</time></trkpt><trkpt lat="39.554600580573435" lon="8.56717622130908"><ele>357.0</ele><time>2026-05-01T07:47:09.999Z</time></trkpt><trkpt lat="39.554585685127556" lon="8.567009827210372"><ele>353.0</ele><time>2026-05-01T07:47:10.999Z</time></trkpt><trkpt lat="39.554563274113264" lon="8.566855827051404"><ele>353.4</ele><time>2026-05-01T07:47:11.999Z</time></trkpt><trkpt lat="39.55453697014497" lon="8.566707894474781"><ele>353.79999999999995</ele><time>2026-05-01T07:47:12.999Z</time></trkpt><trkpt lat="39.5545127715042" lon="8.56656683051533"><ele>354.2</ele><time>2026-05-01T07:47:13.999Z</time></trkpt><trkpt lat="39.55448253677029" lon="8.566432320229826"><ele>354.6</ele><time>2026-05-01T07:47:14.999Z</time></trkpt><trkpt lat="39.55447142376471" lon="8.566301836038154"><ele>355.0</ele><time>2026-05-01T07:47:15.999Z</time></trkpt><trkpt lat="39.55445416886746" lon="8.566184844099569"><ele>355.0</ele><time>2026-05-01T07:47:16.999Z</time></trkpt><trkpt lat="39.55442693704743" lon="8.566056203389257"><ele>355.0</ele><time>2026-05-01T07:47:17.999Z</time></trkpt><trkpt lat="39.55440250356278" lon="8.565915648202658"><ele>355.0</ele><time>2026-05-01T07:47:18.999Z</time></trkpt><trkpt lat="39.55434943275187" lon="8.565783262785711"><ele>355.0</ele><time>2026-05-01T07:47:19.999Z</time></trkpt><trkpt lat="39.554275470359585" lon="8.565676211573694"><ele>355.0</ele><time>2026-05-01T07:47:20.999Z</time></trkpt><trkpt lat="39.554188366778625" lon="8.565595538218458"><ele>355.0</ele><time>2026-05-01T07:47:21.999Z</time></trkpt><trkpt lat="39.55410136408349" lon="8.56550645488729"><ele>355.0</ele><time>2026-05-01T07:47:22.999Z</time></trkpt><trkpt lat="39.553996674385274" lon="8.565458948346476"><ele>355.0</ele><time>2026-05-01T07:47:23.999Z</time></trkpt><trkpt lat="39.55388252047594" lon="8.565437560236035"><ele>355.0</ele><time>2026-05-01T07:47:24.998Z</time></trkpt><trkpt lat="39.55376096424438" lon="8.565432775176214"><ele>356.2</ele><time>2026-05-01T07:47:25.998Z</time></trkpt><trkpt lat="39.55363638100783" lon="8.565450946695067"><ele>357.4</ele><time>2026-05-01T07:47:26.998Z</time></trkpt><trkpt lat="39.55352059124701" lon="8.565463055625262"><ele>358.6</ele><time>2026-05-01T07:47:27.998Z</time></trkpt><trkpt lat="39.55341792149984" lon="8.56545200026908"><ele>359.8</ele><time>2026-05-01T07:47:28.998Z</time></trkpt><trkpt lat="39.55334602529891" lon="8.56545706179633"><ele>361.0</ele><time>2026-05-01T07:47:29.998Z</time></trkpt><trkpt lat="39.553243519954165" lon="8.565419714348572"><ele>358.0</ele><time>2026-05-01T07:47:31.998Z</time></trkpt><trkpt lat="39.5531991688795" lon="8.565281578230756"><ele>355.0</ele><time>2026-05-01T07:47:33.998Z</time></trkpt><trkpt lat="39.553186853687734" lon="8.565164420140805"><ele>352.0</ele><time>2026-05-01T07:47:34.998Z</time></trkpt><trkpt lat="39.5532179886648" lon="8.565027351305583"><ele>349.0</ele><time>2026-05-01T07:47:35.998Z</time></trkpt><trkpt lat="39.55327181820346" lon="8.564895412391268"><ele>346.0</ele><time>2026-05-01T07:47:37Z</time></trkpt><trkpt lat="39.55334169388488" lon="8.564785238628199"><ele>346.0</ele><time>2026-05-01T07:47:38Z</time></trkpt><trkpt lat="39.55343690400604" lon="8.564687317756901"><ele>346.0</ele><time>2026-05-01T07:47:39Z</time></trkpt><trkpt lat="39.55355060535507" lon="8.56460463499089"><ele>346.0</ele><time>2026-05-01T07:47:40Z</time></trkpt><trkpt lat="39.55366670597032" lon="8.564533538640244"><ele>346.0</ele><time>2026-05-01T07:47:41Z</time></trkpt><trkpt lat="39.55376949943406" lon="8.564469667878681"><ele>341.5</ele><time>2026-05-01T07:47:42Z</time></trkpt><trkpt lat="39.55385783924475" lon="8.564395707257333"><ele>337.0</ele><time>2026-05-01T07:47:43Z</time></trkpt><trkpt lat="39.55392676638341" lon="8.56432831416076"><ele>332.5</ele><time>2026-05-01T07:47:44Z</time></trkpt><trkpt lat="39.55395963213344" lon="8.564250633930547"><ele>328.0</ele><time>2026-05-01T07:47:45Z</time></trkpt><trkpt lat="39.553961143441136" lon="8.564155121096118"><ele>323.5</ele><time>2026-05-01T07:47:46Z</time></trkpt><trkpt lat="39.553930802304315" lon="8.564041517539073"><ele>319.0</ele><time>2026-05-01T07:47:47Z</time></trkpt><trkpt lat="39.553890343701376" lon="8.56390391630642"><ele>319.0</ele><time>2026-05-01T07:47:48Z</time></trkpt><trkpt lat="39.55386167496816" lon="8.563744017954562"><ele>319.0</ele><time>2026-05-01T07:47:49Z</time></trkpt><trkpt lat="39.55386184708628" lon="8.5635914885176"><ele>319.0</ele><time>2026-05-01T07:47:50Z</time></trkpt><trkpt lat="39.553850025689" lon="8.563473472559059"><ele>319.0</ele><time>2026-05-01T07:47:51Z</time></trkpt><trkpt lat="39.55379128506437" lon="8.563352658135347"><ele>319.0</ele><time>2026-05-01T07:47:52Z</time></trkpt><trkpt lat="39.553700738329354" lon="8.563220454775307"><ele>320.25</ele><time>2026-05-01T07:47:53Z</time></trkpt><trkpt lat="39.55360198830497" lon="8.563100782005483"><ele>321.5</ele><time>2026-05-01T07:47:54Z</time></trkpt><trkpt lat="39.553523968775956" lon="8.562985238147814"><ele>322.75</ele><time>2026-05-01T07:47:55Z</time></trkpt><trkpt lat="39.553483765764526" lon="8.56285368501507"><ele>324.0</ele><time>2026-05-01T07:47:56Z</time></trkpt><trkpt lat="39.55347611054189" lon="8.562701098336683"><ele>324.0</ele><time>2026-05-01T07:47:57Z</time></trkpt><trkpt lat="39.55348759426312" lon="8.562523186639359"><ele>324.0</ele><time>2026-05-01T07:47:58Z</time></trkpt><trkpt lat="39.55350220786505" lon="8.562350928097562"><ele>324.0</ele><time>2026-05-01T07:47:59Z</time></trkpt><trkpt lat="39.55351094697098" lon="8.562225347718666"><ele>324.0</ele><time>2026-05-01T07:48:00Z</time></trkpt><trkpt lat="39.55347817449148" lon="8.562145559737454"><ele>324.0</ele><time>2026-05-01T07:48:01Z</time></trkpt><trkpt lat="39.55341162017471" lon="8.562088372132955"><ele>324.0</ele><time>2026-05-01T07:48:02Z</time></trkpt><trkpt lat="39.55331862477817" lon="8.562063641638938"><ele>324.0</ele><time>2026-05-01T07:48:03Z</time></trkpt><trkpt lat="39.553200738346696" lon="8.562037275101318"><ele>324.0</ele><time>2026-05-01T07:48:04Z</time></trkpt><trkpt lat="39.553059570367644" lon="8.56205077763151"><ele>324.0</ele><time>2026-05-01T07:48:05Z</time></trkpt><trkpt lat="39.55291093963481" lon="8.562076890863818"><ele>324.79999999999995</ele><time>2026-05-01T07:48:06Z</time></trkpt><trkpt lat="39.55278477957526" lon="8.562118629201038"><ele>325.59999999999997</ele><time>2026-05-01T07:48:07Z</time></trkpt><trkpt lat="39.55267597228309" lon="8.562154447848238"><ele>326.4</ele><time>2026-05-01T07:48:08Z</time></trkpt><trkpt lat="39.552577303914866" lon="8.56218000408015"><ele>327.2</ele><time>2026-05-01T07:48:09Z</time></trkpt><trkpt lat="39.55248985594819" lon="8.562187851223616"><ele>328.0</ele><time>2026-05-01T07:48:10Z</time></trkpt><trkpt lat="39.552403001271685" lon="8.562142936036413"><ele>328.0</ele><time>2026-05-01T07:48:11Z</time></trkpt><trkpt lat="39.5522953702832" lon="8.56207902072953"><ele>328.0</ele><time>2026-05-01T07:48:12Z</time></trkpt><trkpt lat="39.5522073897527" lon="8.562009072923518"><ele>328.0</ele><time>2026-05-01T07:48:13Z</time></trkpt><trkpt lat="39.552147998139596" lon="8.561933614798022"><ele>328.0</ele><time>2026-05-01T07:48:14Z</time></trkpt><trkpt lat="39.55209989902458" lon="8.561846131746831"><ele>328.0</ele><time>2026-05-01T07:48:15Z</time></trkpt><trkpt lat="39.55206170714423" lon="8.561768745905084"><ele>324.0</ele><time>2026-05-01T07:48:16Z</time></trkpt><trkpt lat="39.5520804452525" lon="8.561663746279356"><ele>320.0</ele><time>2026-05-01T07:48:17Z</time></trkpt><trkpt lat="39.55215137053935" lon="8.561574170442732"><ele>316.0</ele><time>2026-05-01T07:48:18Z</time></trkpt><trkpt lat="39.552207368791585" lon="8.561458028007507"><ele>312.0</ele><time>2026-05-01T07:48:19Z</time></trkpt><trkpt lat="39.55226926946998" lon="8.561374540201944"><ele>308.0</ele><time>2026-05-01T07:48:20Z</time></trkpt><trkpt lat="39.55232787299441" lon="8.561294005474984"><ele>308.0</ele><time>2026-05-01T07:48:21Z</time></trkpt><trkpt lat="39.55238545040316" lon="8.561214684958244"><ele>308.0</ele><time>2026-05-01T07:48:22Z</time></trkpt><trkpt lat="39.55244243862645" lon="8.561116794319727"><ele>308.0</ele><time>2026-05-01T07:48:22.999Z</time></trkpt><trkpt lat="39.552485850159776" lon="8.561016178097171"><ele>308.0</ele><time>2026-05-01T07:48:23.999Z</time></trkpt><trkpt lat="39.552516678679126" lon="8.56091054842232"><ele>308.0</ele><time>2026-05-01T07:48:24.999Z</time></trkpt><trkpt lat="39.55253430531484" lon="8.560807197366351"><ele>308.0</ele><time>2026-05-01T07:48:25.999Z</time></trkpt><trkpt lat="39.55253111729683" lon="8.56070407959981"><ele>306.83333333333337</ele><time>2026-05-01T07:48:26.999Z</time></trkpt><trkpt lat="39.552512473395005" lon="8.560602126670457"><ele>305.6666666666667</ele><time>2026-05-01T07:48:27.999Z</time></trkpt><trkpt lat="39.55248618253875" lon="8.560504805807376"><ele>304.5</ele><time>2026-05-01T07:48:28.999Z</time></trkpt><trkpt lat="39.5524482250556" lon="8.560413075080776"><ele>303.3333333333333</ele><time>2026-05-01T07:48:29.999Z</time></trkpt><trkpt lat="39.55241391164411" lon="8.560325489066518"><ele>302.16666666666663</ele><time>2026-05-01T07:48:30.999Z</time></trkpt><trkpt lat="39.55235261734933" lon="8.560259924744155"><ele>301.0</ele><time>2026-05-01T07:48:31.999Z</time></trkpt><trkpt lat="39.55227630869695" lon="8.560219853115768"><ele>301.6</ele><time>2026-05-01T07:48:32.999Z</time></trkpt><trkpt lat="39.55217022668894" lon="8.560214484412397"><ele>302.20000000000005</ele><time>2026-05-01T07:48:33.999Z</time></trkpt><trkpt lat="39.552059716588865" lon="8.560243059918953"><ele>302.79999999999995</ele><time>2026-05-01T07:48:34.999Z</time></trkpt><trkpt lat="39.55196372026142" lon="8.560260347049828"><ele>303.4</ele><time>2026-05-01T07:48:35.999Z</time></trkpt><trkpt lat="39.55188513393657" lon="8.560259642537936"><ele>304.0</ele><time>2026-05-01T07:48:36.999Z</time></trkpt><trkpt lat="39.55181737044633" lon="8.560246392449873"><ele>304.0</ele><time>2026-05-01T07:48:37.999Z</time></trkpt><trkpt lat="39.55172117695423" lon="8.560150483782259"><ele>304.0</ele><time>2026-05-01T07:48:39.999Z</time></trkpt><trkpt lat="39.551686382961364" lon="8.560082166064925"><ele>304.0</ele><time>2026-05-01T07:48:40.999Z</time></trkpt><trkpt lat="39.551694145804106" lon="8.55998577877413"><ele>304.0</ele><time>2026-05-01T07:48:41.999Z</time></trkpt><trkpt lat="39.55172550660895" lon="8.559880913150309"><ele>304.0</ele><time>2026-05-01T07:48:42.999Z</time></trkpt><trkpt lat="39.551765998902596" lon="8.559779746187532"><ele>304.0</ele><time>2026-05-01T07:48:43.999Z</time></trkpt><trkpt lat="39.551801798903696" lon="8.559677537663193"><ele>304.0</ele><time>2026-05-01T07:48:44.999Z</time></trkpt><trkpt lat="39.551821070709885" lon="8.559559634336381"><ele>304.0</ele><time>2026-05-01T07:48:45.999Z</time></trkpt><trkpt lat="39.55182889604967" lon="8.559428917681366"><ele>304.0</ele><time>2026-05-01T07:48:46.999Z</time></trkpt><trkpt lat="39.55183076304979" lon="8.55926860135852"><ele>304.0</ele><time>2026-05-01T07:48:47.999Z</time></trkpt><trkpt lat="39.55183306996613" lon="8.559107769868124"><ele>304.0</ele><time>2026-05-01T07:48:48.999Z</time></trkpt><trkpt lat="39.55182824007826" lon="8.558968206467336"><ele>304.3333333333333</ele><time>2026-05-01T07:48:49.999Z</time></trkpt><trkpt lat="39.55181243067012" lon="8.55884415451155"><ele>304.66666666666663</ele><time>2026-05-01T07:48:50.999Z</time></trkpt><trkpt lat="39.551788349595924" lon="8.55873223624635"><ele>305.0</ele><time>2026-05-01T07:48:51.999Z</time></trkpt><trkpt lat="39.55174974041156" lon="8.558623511285216"><ele>305.3333333333333</ele><time>2026-05-01T07:48:52.999Z</time></trkpt><trkpt lat="39.55169199211405" lon="8.558548207658962"><ele>305.6666666666667</ele><time>2026-05-01T07:48:53.999Z</time></trkpt><trkpt lat="39.55164121122851" lon="8.558479365406088"><ele>306.0</ele><time>2026-05-01T07:48:54.999Z</time></trkpt><trkpt lat="39.551578783607816" lon="8.558413734089948"><ele>304.8</ele><time>2026-05-01T07:48:55.999Z</time></trkpt><trkpt lat="39.55150082080979" lon="8.55834416193367"><ele>303.6</ele><time>2026-05-01T07:48:56.999Z</time></trkpt><trkpt lat="39.55141892401104" lon="8.558274920163427"><ele>302.4</ele><time>2026-05-01T07:48:57.999Z</time></trkpt><trkpt lat="39.55133933038447" lon="8.558208392467979"><ele>301.2</ele><time>2026-05-01T07:48:58.999Z</time></trkpt><trkpt lat="39.55126407745132" lon="8.558145493005485"><ele>300.0</ele><time>2026-05-01T07:48:59.999Z</time></trkpt><trkpt lat="39.55118556235288" lon="8.558086802951319"><ele>300.6</ele><time>2026-05-01T07:49:00.999Z</time></trkpt><trkpt lat="39.55110199686158" lon="8.55803969859451"><ele>301.2</ele><time>2026-05-01T07:49:01.999Z</time></trkpt><trkpt lat="39.55104220446012" lon="8.55796455088459"><ele>301.8</ele><time>2026-05-01T07:49:02.999Z</time></trkpt><trkpt lat="39.55097007301547" lon="8.557899844394433"><ele>302.4</ele><time>2026-05-01T07:49:03.999Z</time></trkpt><trkpt lat="39.55093108308598" lon="8.557782539565249"><ele>303.0</ele><time>2026-05-01T07:49:04.999Z</time></trkpt><trkpt lat="39.55091493488122" lon="8.55765393604815"><ele>303.0</ele><time>2026-05-01T07:49:05.999Z</time></trkpt><trkpt lat="39.550922490273294" lon="8.55750388613558"><ele>303.0</ele><time>2026-05-01T07:49:06.999Z</time></trkpt><trkpt lat="39.55092342534876" lon="8.557359577190036"><ele>303.0</ele><time>2026-05-01T07:49:07.999Z</time></trkpt><trkpt lat="39.5508885666993" lon="8.557244788913115"><ele>303.0</ele><time>2026-05-01T07:49:08.999Z</time></trkpt><trkpt lat="39.5508213861646" lon="8.557154442765443"><ele>303.0</ele><time>2026-05-01T07:49:09.999Z</time></trkpt><trkpt lat="39.55073283940447" lon="8.557095950621882"><ele>303.0</ele><time>2026-05-01T07:49:10.999Z</time></trkpt><trkpt lat="39.55062508242838" lon="8.557064764938064"><ele>303.0</ele><time>2026-05-01T07:49:11.999Z</time></trkpt><trkpt lat="39.55050856317078" lon="8.557012224926668"><ele>303.0</ele><time>2026-05-01T07:49:12.999Z</time></trkpt><trkpt lat="39.550382522639815" lon="8.556980404469654"><ele>303.0</ele><time>2026-05-01T07:49:13.999Z</time></trkpt><trkpt lat="39.55025809205799" lon="8.556948439498653"><ele>302.6</ele><time>2026-05-01T07:49:14.999Z</time></trkpt><trkpt lat="39.55015367682254" lon="8.556920411069603"><ele>302.20000000000005</ele><time>2026-05-01T07:49:15.999Z</time></trkpt><trkpt lat="39.55006543259041" lon="8.55689147403992"><ele>301.8</ele><time>2026-05-01T07:49:16.999Z</time></trkpt><trkpt lat="39.5499980035439" lon="8.556861560310166"><ele>301.40000000000003</ele><time>2026-05-01T07:49:17.999Z</time></trkpt><trkpt lat="39.5499174327448" lon="8.55675041277083"><ele>301.0</ele><time>2026-05-01T07:49:19.999Z</time></trkpt><trkpt lat="39.54990044608971" lon="8.556630247307874"><ele>301.0</ele><time>2026-05-01T07:49:20.999Z</time></trkpt><trkpt lat="39.549879901321255" lon="8.556499484933548"><ele>301.0</ele><time>2026-05-01T07:49:21.999Z</time></trkpt><trkpt lat="39.549867487965464" lon="8.556363272387875"><ele>301.0</ele><time>2026-05-01T07:49:22.999Z</time></trkpt><trkpt lat="39.54983737564555" lon="8.556232090016056"><ele>301.0</ele><time>2026-05-01T07:49:23.999Z</time></trkpt><trkpt lat="39.549772767719624" lon="8.55611185338559"><ele>301.0</ele><time>2026-05-01T07:49:24.999Z</time></trkpt><trkpt lat="39.5496991126226" lon="8.556006603767736"><ele>299.0</ele><time>2026-05-01T07:49:25.999Z</time></trkpt><trkpt lat="39.54964158073612" lon="8.55591588959783"><ele>297.0</ele><time>2026-05-01T07:49:26.999Z</time></trkpt><trkpt lat="39.549621310363726" lon="8.555817173350286"><ele>295.0</ele><time>2026-05-01T07:49:27.998Z</time></trkpt><trkpt lat="39.54963723214039" lon="8.55570442713371"><ele>293.0</ele><time>2026-05-01T07:49:28.998Z</time></trkpt><trkpt lat="39.54969781145739" lon="8.555570040782005"><ele>291.0</ele><time>2026-05-01T07:49:29.998Z</time></trkpt><trkpt lat="39.54975766104875" lon="8.555412364628202"><ele>291.5</ele><time>2026-05-01T07:49:30.998Z</time></trkpt><trkpt lat="39.54977158131366" lon="8.555246856171552"><ele>292.0</ele><time>2026-05-01T07:49:31.998Z</time></trkpt><trkpt lat="39.54974799466438" lon="8.555073668340642"><ele>292.5</ele><time>2026-05-01T07:49:32.998Z</time></trkpt><trkpt lat="39.54970784668634" lon="8.554901504325262"><ele>293.0</ele><time>2026-05-01T07:49:33.998Z</time></trkpt><trkpt lat="39.54966434498796" lon="8.554726819601603"><ele>293.0</ele><time>2026-05-01T07:49:34.998Z</time></trkpt><trkpt lat="39.549608492424774" lon="8.554552661378269"><ele>293.0</ele><time>2026-05-01T07:49:35.998Z</time></trkpt><trkpt lat="39.54953588032093" lon="8.554406591452244"><ele>293.0</ele><time>2026-05-01T07:49:36.998Z</time></trkpt><trkpt lat="39.5494599875388" lon="8.554293840244325"><ele>293.0</ele><time>2026-05-01T07:49:37.998Z</time></trkpt><trkpt lat="39.549373886988406" lon="8.554218207531628"><ele>297.25</ele><time>2026-05-01T07:49:38.998Z</time></trkpt><trkpt lat="39.54925482646716" lon="8.554177673045627"><ele>301.5</ele><time>2026-05-01T07:49:39.998Z</time></trkpt><trkpt lat="39.54913042416443" lon="8.554092735529704"><ele>305.75</ele><time>2026-05-01T07:49:40.998Z</time></trkpt><trkpt lat="39.54903018845249" lon="8.55400862617217"><ele>310.0</ele><time>2026-05-01T07:49:41.998Z</time></trkpt><trkpt lat="39.548956542578026" lon="8.553896674525362"><ele>310.0</ele><time>2026-05-01T07:49:43Z</time></trkpt><trkpt lat="39.54888705370472" lon="8.553764696470688"><ele>310.0</ele><time>2026-05-01T07:49:44Z</time></trkpt><trkpt lat="39.54883443933851" lon="8.553620013710935"><ele>310.0</ele><time>2026-05-01T07:49:45Z</time></trkpt><trkpt lat="39.54879538419527" lon="8.553480099210486"><ele>310.0</ele><time>2026-05-01T07:49:46Z</time></trkpt><trkpt lat="39.54876417162955" lon="8.55333021996089"><ele>307.2</ele><time>2026-05-01T07:49:47Z</time></trkpt><trkpt lat="39.54877781861959" lon="8.553172297382632"><ele>304.4</ele><time>2026-05-01T07:49:48Z</time></trkpt><trkpt lat="39.54881050495005" lon="8.55302641753614"><ele>301.6</ele><time>2026-05-01T07:49:49Z</time></trkpt><trkpt lat="39.54885256026611" lon="8.552897205498606"><ele>298.8</ele><time>2026-05-01T07:49:50Z</time></trkpt><trkpt lat="39.54887384851673" lon="8.55278777499217"><ele>296.0</ele><time>2026-05-01T07:49:51Z</time></trkpt><trkpt lat="39.54885942575287" lon="8.552685171017899"><ele>295.40000000000003</ele><time>2026-05-01T07:49:52Z</time></trkpt><trkpt lat="39.548815624313654" lon="8.55259045313642"><ele>294.8</ele><time>2026-05-01T07:49:53Z</time></trkpt><trkpt lat="39.54875542151425" lon="8.552507803887448"><ele>294.20000000000005</ele><time>2026-05-01T07:49:54Z</time></trkpt><trkpt lat="39.54864659755601" lon="8.552503462485658"><ele>293.6</ele><time>2026-05-01T07:49:55Z</time></trkpt><trkpt lat="39.54853077866389" lon="8.552474200581267"><ele>293.0</ele><time>2026-05-01T07:49:56Z</time></trkpt><trkpt lat="39.548393859527906" lon="8.552454760435811"><ele>300.0</ele><time>2026-05-01T07:49:57Z</time></trkpt><trkpt lat="39.548238701996716" lon="8.552431997597761"><ele>307.0</ele><time>2026-05-01T07:49:58Z</time></trkpt><trkpt lat="39.548074579869734" lon="8.55240292792553"><ele>314.0</ele><time>2026-05-01T07:49:59Z</time></trkpt><trkpt lat="39.547920203295185" lon="8.552371303051698"><ele>318.25</ele><time>2026-05-01T07:50:00Z</time></trkpt><trkpt lat="39.547798061300256" lon="8.552325270080436"><ele>322.5</ele><time>2026-05-01T07:50:01Z</time></trkpt><trkpt lat="39.547690091743995" lon="8.55226717207007"><ele>326.75</ele><time>2026-05-01T07:50:02Z</time></trkpt><trkpt lat="39.547594912793855" lon="8.552176885835278"><ele>331.0</ele><time>2026-05-01T07:50:03Z</time></trkpt><trkpt lat="39.54750185532651" lon="8.552072098270648"><ele>328.0</ele><time>2026-05-01T07:50:04Z</time></trkpt><trkpt lat="39.54744223552084" lon="8.551954728658293"><ele>325.0</ele><time>2026-05-01T07:50:05Z</time></trkpt><trkpt lat="39.547400503463216" lon="8.551831723598452"><ele>322.0</ele><time>2026-05-01T07:50:06Z</time></trkpt><trkpt lat="39.547365738566604" lon="8.551690864566709"><ele>319.0</ele><time>2026-05-01T07:50:07Z</time></trkpt><trkpt lat="39.54733569005359" lon="8.551538809688843"><ele>316.0</ele><time>2026-05-01T07:50:08Z</time></trkpt><trkpt lat="39.54729603891529" lon="8.551387655960736"><ele>316.0</ele><time>2026-05-01T07:50:09Z</time></trkpt><trkpt lat="39.54728209915447" lon="8.551234001405481"><ele>316.0</ele><time>2026-05-01T07:50:10Z</time></trkpt><trkpt lat="39.547277204557886" lon="8.551085369662346"><ele>316.0</ele><time>2026-05-01T07:50:11Z</time></trkpt><trkpt lat="39.547284202441176" lon="8.550916678292397"><ele>316.0</ele><time>2026-05-01T07:50:12Z</time></trkpt><trkpt lat="39.54730239344515" lon="8.550714312990502"><ele>316.25</ele><time>2026-05-01T07:50:13Z</time></trkpt><trkpt lat="39.54732837393276" lon="8.550527828930473"><ele>316.5</ele><time>2026-05-01T07:50:14Z</time></trkpt><trkpt lat="39.547351921137114" lon="8.55037635805155"><ele>316.75</ele><time>2026-05-01T07:50:15Z</time></trkpt><trkpt lat="39.547378397008444" lon="8.55023660044927"><ele>317.0</ele><time>2026-05-01T07:50:16Z</time></trkpt><trkpt lat="39.547390840307315" lon="8.550113033234668"><ele>318.4</ele><time>2026-05-01T07:50:17Z</time></trkpt><trkpt lat="39.547382861902655" lon="8.550002937323528"><ele>319.79999999999995</ele><time>2026-05-01T07:50:18Z</time></trkpt><trkpt lat="39.54734627390202" lon="8.549901941678392"><ele>321.2</ele><time>2026-05-01T07:50:19Z</time></trkpt><trkpt lat="39.54728314967056" lon="8.549812684808563"><ele>322.59999999999997</ele><time>2026-05-01T07:50:20Z</time></trkpt><trkpt lat="39.547201957706754" lon="8.549741535684042"><ele>324.0</ele><time>2026-05-01T07:50:21Z</time></trkpt><trkpt lat="39.547109895171666" lon="8.54970301472873"><ele>325.0</ele><time>2026-05-01T07:50:22Z</time></trkpt><trkpt lat="39.547005904504026" lon="8.549690579711998"><ele>326.0</ele><time>2026-05-01T07:50:23Z</time></trkpt><trkpt lat="39.54689821753885" lon="8.549650496437085"><ele>327.0</ele><time>2026-05-01T07:50:23.999Z</time></trkpt><trkpt lat="39.54680591822702" lon="8.549599208379558"><ele>328.0</ele><time>2026-05-01T07:50:24.999Z</time></trkpt><trkpt lat="39.546708489493476" lon="8.549523146090008"><ele>329.0</ele><time>2026-05-01T07:50:25.999Z</time></trkpt><trkpt lat="39.54664352400312" lon="8.54939400642102"><ele>329.0</ele><time>2026-05-01T07:50:26.999Z</time></trkpt><trkpt lat="39.54662940115373" lon="8.54923445962273"><ele>329.0</ele><time>2026-05-01T07:50:27.999Z</time></trkpt><trkpt lat="39.546610171622866" lon="8.54907402942504"><ele>329.0</ele><time>2026-05-01T07:50:28.999Z</time></trkpt><trkpt lat="39.54657037592823" lon="8.548879552487717"><ele>329.0</ele><time>2026-05-01T07:50:29.999Z</time></trkpt><trkpt lat="39.54653284550275" lon="8.548672933859477"><ele>328.0</ele><time>2026-05-01T07:50:30.999Z</time></trkpt><trkpt lat="39.546477492018596" lon="8.54848432822885"><ele>327.0</ele><time>2026-05-01T07:50:31.999Z</time></trkpt><trkpt lat="39.54641174316003" lon="8.548327753386637"><ele>326.0</ele><time>2026-05-01T07:50:32.999Z</time></trkpt><trkpt lat="39.54635351618691" lon="8.548217373836417"><ele>325.0</ele><time>2026-05-01T07:50:33.999Z</time></trkpt><trkpt lat="39.54628308745109" lon="8.548137601372932"><ele>326.75</ele><time>2026-05-01T07:50:34.999Z</time></trkpt><trkpt lat="39.546187488420884" lon="8.548042612953163"><ele>328.5</ele><time>2026-05-01T07:50:35.999Z</time></trkpt><trkpt lat="39.54607507976225" lon="8.547945576327093"><ele>330.25</ele><time>2026-05-01T07:50:36.999Z</time></trkpt><trkpt lat="39.54595152944228" lon="8.547869842943912"><ele>332.0</ele><time>2026-05-01T07:50:37.999Z</time></trkpt><trkpt lat="39.54582851379678" lon="8.54781938054412"><ele>332.0</ele><time>2026-05-01T07:50:38.999Z</time></trkpt><trkpt lat="39.54572123922663" lon="8.547783276858855"><ele>332.0</ele><time>2026-05-01T07:50:39.999Z</time></trkpt><trkpt lat="39.5456445326496" lon="8.547729831213287"><ele>332.0</ele><time>2026-05-01T07:50:40.999Z</time></trkpt><trkpt lat="39.545574500383985" lon="8.547654522954096"><ele>332.0</ele><time>2026-05-01T07:50:41.999Z</time></trkpt><trkpt lat="39.54552106304726" lon="8.547549671416434"><ele>332.0</ele><time>2026-05-01T07:50:42.999Z</time></trkpt><trkpt lat="39.545487934931565" lon="8.547410147981697"><ele>332.0</ele><time>2026-05-01T07:50:43.999Z</time></trkpt><trkpt lat="39.54543169577335" lon="8.547253009632291"><ele>332.0</ele><time>2026-05-01T07:50:44.999Z</time></trkpt><trkpt lat="39.54539190006698" lon="8.547103594196674"><ele>332.0</ele><time>2026-05-01T07:50:45.999Z</time></trkpt><trkpt lat="39.54532283639727" lon="8.54701004636773"><ele>332.0</ele><time>2026-05-01T07:50:46.999Z</time></trkpt><trkpt lat="39.545224091480215" lon="8.546944917734278"><ele>334.0</ele><time>2026-05-01T07:50:47.999Z</time></trkpt><trkpt lat="39.5451162402542" lon="8.546901196305253"><ele>336.0</ele><time>2026-05-01T07:50:48.999Z</time></trkpt><trkpt lat="39.544994639478695" lon="8.546835955526324"><ele>338.0</ele><time>2026-05-01T07:50:49.999Z</time></trkpt><trkpt lat="39.54484917930244" lon="8.546788808377398"><ele>340.0</ele><time>2026-05-01T07:50:50.999Z</time></trkpt><trkpt lat="39.54470206993176" lon="8.54674573305563"><ele>340.0</ele><time>2026-05-01T07:50:51.999Z</time></trkpt><trkpt lat="39.54458202908191" lon="8.54670699632531"><ele>340.0</ele><time>2026-05-01T07:50:52.999Z</time></trkpt><trkpt lat="39.544495316690245" lon="8.546662227689298"><ele>340.0</ele><time>2026-05-01T07:50:53.999Z</time></trkpt><trkpt lat="39.54443591292935" lon="8.546606483239046"><ele>340.0</ele><time>2026-05-01T07:50:54.999Z</time></trkpt><trkpt lat="39.544375362952614" lon="8.546558806453131"><ele>340.0</ele><time>2026-05-01T07:50:55.999Z</time></trkpt><trkpt lat="39.54433811242272" lon="8.546443256870184"><ele>339.75</ele><time>2026-05-01T07:50:56.999Z</time></trkpt><trkpt lat="39.54429947001226" lon="8.546307971708107"><ele>339.5</ele><time>2026-05-01T07:50:57.999Z</time></trkpt><trkpt lat="39.54424187764221" lon="8.546162542126059"><ele>339.25</ele><time>2026-05-01T07:50:58.999Z</time></trkpt><trkpt lat="39.54416867469251" lon="8.546032812288187"><ele>339.0</ele><time>2026-05-01T07:50:59.999Z</time></trkpt><trkpt lat="39.54408075462615" lon="8.545932244402094"><ele>339.0</ele><time>2026-05-01T07:51:00.999Z</time></trkpt><trkpt lat="39.543973476016745" lon="8.545854413971067"><ele>339.0</ele><time>2026-05-01T07:51:01.999Z</time></trkpt><trkpt lat="39.54386854320086" lon="8.5457943782147"><ele>339.0</ele><time>2026-05-01T07:51:02.999Z</time></trkpt><trkpt lat="39.54374996240475" lon="8.545743417753116"><ele>339.0</ele><time>2026-05-01T07:51:03.999Z</time></trkpt><trkpt lat="39.54362604358794" lon="8.545712778030058"><ele>335.0</ele><time>2026-05-01T07:51:04.999Z</time></trkpt><trkpt lat="39.54351749854807" lon="8.54564973492051"><ele>331.0</ele><time>2026-05-01T07:51:05.999Z</time></trkpt><trkpt lat="39.54342910837268" lon="8.545591023913316"><ele>327.0</ele><time>2026-05-01T07:51:06.999Z</time></trkpt><trkpt lat="39.54336095843775" lon="8.545526075185395"><ele>323.0</ele><time>2026-05-01T07:51:07.999Z</time></trkpt><trkpt lat="39.54333011345717" lon="8.545392267000274"><ele>319.0</ele><time>2026-05-01T07:51:09.999Z</time></trkpt><trkpt lat="39.54336810332513" lon="8.545317424822274"><ele>319.0</ele><time>2026-05-01T07:51:10.999Z</time></trkpt><trkpt lat="39.54343468797917" lon="8.545280851767304"><ele>319.0</ele><time>2026-05-01T07:51:11.999Z</time></trkpt><trkpt lat="39.543511632307414" lon="8.545302723205793"><ele>319.0</ele><time>2026-05-01T07:51:12.999Z</time></trkpt><trkpt lat="39.54359535794064" lon="8.545347291705896"><ele>319.0</ele><time>2026-05-01T07:51:13.999Z</time></trkpt><trkpt lat="39.54366860700239" lon="8.545353688196831"><ele>319.0</ele><time>2026-05-01T07:51:14.999Z</time></trkpt><trkpt lat="39.54373265608754" lon="8.545295788483593"><ele>319.0</ele><time>2026-05-01T07:51:15.999Z</time></trkpt><trkpt lat="39.54378386321262" lon="8.545186682955977"><ele>323.4</ele><time>2026-05-01T07:51:16.999Z</time></trkpt><trkpt lat="39.5438126267229" lon="8.54504960909383"><ele>327.79999999999995</ele><time>2026-05-01T07:51:17.999Z</time></trkpt><trkpt lat="39.54382956189648" lon="8.544906030525889"><ele>332.20000000000005</ele><time>2026-05-01T07:51:18.999Z</time></trkpt><trkpt lat="39.54383110280841" lon="8.544774655178017"><ele>336.6</ele><time>2026-05-01T07:51:19.999Z</time></trkpt><trkpt lat="39.54381642460602" lon="8.544646963502496"><ele>341.0</ele><time>2026-05-01T07:51:20.999Z</time></trkpt><trkpt lat="39.54378545871568" lon="8.544509464845596"><ele>341.25</ele><time>2026-05-01T07:51:21.999Z</time></trkpt><trkpt lat="39.543754550812515" lon="8.54434274198744"><ele>341.5</ele><time>2026-05-01T07:51:22.999Z</time></trkpt><trkpt lat="39.54369686995959" lon="8.544180232387053"><ele>341.75</ele><time>2026-05-01T07:51:23.999Z</time></trkpt><trkpt lat="39.54363420288804" lon="8.54403409618331"><ele>342.0</ele><time>2026-05-01T07:51:24.999Z</time></trkpt><trkpt lat="39.5435625388581" lon="8.543902386258157"><ele>337.25</ele><time>2026-05-01T07:51:25.999Z</time></trkpt><trkpt lat="39.54347133864364" lon="8.54376001208813"><ele>332.5</ele><time>2026-05-01T07:51:26.999Z</time></trkpt><trkpt lat="39.54336884230421" lon="8.543614264845655"><ele>327.75</ele><time>2026-05-01T07:51:27.999Z</time></trkpt><trkpt lat="39.543276218197214" lon="8.543486165280779"><ele>323.0</ele><time>2026-05-01T07:51:28.999Z</time></trkpt><trkpt lat="39.54318993951408" lon="8.5433668426187"><ele>323.0</ele><time>2026-05-01T07:51:29.998Z</time></trkpt><trkpt lat="39.54310561567786" lon="8.543256815709858"><ele>323.0</ele><time>2026-05-01T07:51:30.998Z</time></trkpt><trkpt lat="39.54301725662269" lon="8.54315270612902"><ele>323.0</ele><time>2026-05-01T07:51:31.998Z</time></trkpt><trkpt lat="39.54292594810648" lon="8.54307464756685"><ele>323.0</ele><time>2026-05-01T07:51:32.998Z</time></trkpt><trkpt lat="39.54285810580194" lon="8.543006366702208"><ele>323.0</ele><time>2026-05-01T07:51:33.998Z</time></trkpt><trkpt lat="39.54278425409253" lon="8.542966219548756"><ele>319.59999999999997</ele><time>2026-05-01T07:51:34.998Z</time></trkpt><trkpt lat="39.54270181820176" lon="8.542957843155873"><ele>316.2</ele><time>2026-05-01T07:51:35.998Z</time></trkpt><trkpt lat="39.542604994247455" lon="8.542984071397004"><ele>312.8</ele><time>2026-05-01T07:51:36.998Z</time></trkpt><trkpt lat="39.54250065749601" lon="8.543053232154296"><ele>309.4</ele><time>2026-05-01T07:51:37.998Z</time></trkpt><trkpt lat="39.54237297232473" lon="8.543121381903969"><ele>306.0</ele><time>2026-05-01T07:51:38.998Z</time></trkpt><trkpt lat="39.542242123832736" lon="8.543204428404076"><ele>306.0</ele><time>2026-05-01T07:51:39.998Z</time></trkpt><trkpt lat="39.54212524018485" lon="8.543277216672662"><ele>306.0</ele><time>2026-05-01T07:51:40.998Z</time></trkpt><trkpt lat="39.54201904816675" lon="8.543355835316527"><ele>306.0</ele><time>2026-05-01T07:51:41.998Z</time></trkpt><trkpt lat="39.54191831934745" lon="8.543395995277763"><ele>306.0</ele><time>2026-05-01T07:51:42.998Z</time></trkpt><trkpt lat="39.54183918921436" lon="8.543377019019708"><ele>306.0</ele><time>2026-05-01T07:51:43.998Z</time></trkpt><trkpt lat="39.541773092605695" lon="8.543343425538911"><ele>305.0</ele><time>2026-05-01T07:51:44.998Z</time></trkpt><trkpt lat="39.541680563974296" lon="8.543274761672219"><ele>304.0</ele><time>2026-05-01T07:51:45.998Z</time></trkpt><trkpt lat="39.541550463728" lon="8.543209790641484"><ele>303.0</ele><time>2026-05-01T07:51:46.998Z</time></trkpt><trkpt lat="39.54141899280239" lon="8.543175976164887"><ele>302.0</ele><time>2026-05-01T07:51:47.998Z</time></trkpt><trkpt lat="39.541316702671146" lon="8.543117849849013"><ele>302.0</ele><time>2026-05-01T07:51:49Z</time></trkpt><trkpt lat="39.54124566704152" lon="8.543068643211264"><ele>302.0</ele><time>2026-05-01T07:51:50Z</time></trkpt><trkpt lat="39.54119687430084" lon="8.542984220737784"><ele>302.0</ele><time>2026-05-01T07:51:51Z</time></trkpt><trkpt lat="39.54112391088877" lon="8.542872182786924"><ele>302.0</ele><time>2026-05-01T07:51:52Z</time></trkpt><trkpt lat="39.541048695894986" lon="8.542740207358458"><ele>302.0</ele><time>2026-05-01T07:51:53Z</time></trkpt><trkpt lat="39.540977393227244" lon="8.542595428187166"><ele>300.0</ele><time>2026-05-01T07:51:54Z</time></trkpt><trkpt lat="39.540902915987786" lon="8.542443370222013"><ele>298.0</ele><time>2026-05-01T07:51:55Z</time></trkpt><trkpt lat="39.54081674330581" lon="8.542305115817276"><ele>296.0</ele><time>2026-05-01T07:51:56Z</time></trkpt><trkpt lat="39.540757571244086" lon="8.542163308767003"><ele>294.0</ele><time>2026-05-01T07:51:57Z</time></trkpt><trkpt lat="39.54069364185666" lon="8.54203872394713"><ele>294.0</ele><time>2026-05-01T07:51:58Z</time></trkpt><trkpt lat="39.540655295699786" lon="8.541921828627919"><ele>294.0</ele><time>2026-05-01T07:51:59Z</time></trkpt><trkpt lat="39.54060746084282" lon="8.541848981987695"><ele>294.0</ele><time>2026-05-01T07:52:00Z</time></trkpt><trkpt lat="39.540605440415675" lon="8.541679523540568"><ele>294.0</ele><time>2026-05-01T07:52:02Z</time></trkpt><trkpt lat="39.54064819187712" lon="8.541579836874448"><ele>294.0</ele><time>2026-05-01T07:52:03Z</time></trkpt><trkpt lat="39.540712173539106" lon="8.541467326761436"><ele>294.0</ele><time>2026-05-01T07:52:04Z</time></trkpt><trkpt lat="39.540761645377245" lon="8.541328321085915"><ele>294.0</ele><time>2026-05-01T07:52:05Z</time></trkpt><trkpt lat="39.54077449487333" lon="8.541183895930402"><ele>294.0</ele><time>2026-05-01T07:52:06Z</time></trkpt><trkpt lat="39.5407727937496" lon="8.541031056358168"><ele>294.0</ele><time>2026-05-01T07:52:07Z</time></trkpt><trkpt lat="39.54080043573072" lon="8.54087353903527"><ele>291.4</ele><time>2026-05-01T07:52:08Z</time></trkpt><trkpt lat="39.54086171821875" lon="8.54073124871951"><ele>288.79999999999995</ele><time>2026-05-01T07:52:09Z</time></trkpt><trkpt lat="39.54092305824841" lon="8.54060667049693"><ele>286.20000000000005</ele><time>2026-05-01T07:52:10Z</time></trkpt><trkpt lat="39.54098496262216" lon="8.54049607339361"><ele>283.6</ele><time>2026-05-01T07:52:11Z</time></trkpt><trkpt lat="39.541035790045" lon="8.540393894300136"><ele>281.0</ele><time>2026-05-01T07:52:12Z</time></trkpt><trkpt lat="39.5410794535932" lon="8.540308606894163"><ele>279.1666666666667</ele><time>2026-05-01T07:52:13Z</time></trkpt><trkpt lat="39.54114661258251" lon="8.540246783122441"><ele>277.33333333333337</ele><time>2026-05-01T07:52:14Z</time></trkpt><trkpt lat="39.54123959221496" lon="8.540211105257125"><ele>275.5</ele><time>2026-05-01T07:52:15Z</time></trkpt><trkpt lat="39.541331280311816" lon="8.540177855128142"><ele>273.6666666666667</ele><time>2026-05-01T07:52:16Z</time></trkpt><trkpt lat="39.54140607658597" lon="8.540150388390979"><ele>271.8333333333333</ele><time>2026-05-01T07:52:17Z</time></trkpt><trkpt lat="39.54146155174109" lon="8.540093135941891"><ele>270.0</ele><time>2026-05-01T07:52:18Z</time></trkpt><trkpt lat="39.54149565345771" lon="8.539997663835226"><ele>274.8</ele><time>2026-05-01T07:52:19Z</time></trkpt><trkpt lat="39.5415071470575" lon="8.539891716716287"><ele>279.6</ele><time>2026-05-01T07:52:20Z</time></trkpt><trkpt lat="39.54148738760986" lon="8.539796148270447"><ele>284.4</ele><time>2026-05-01T07:52:21Z</time></trkpt><trkpt lat="39.54143470747195" lon="8.539707029078285"><ele>289.2</ele><time>2026-05-01T07:52:22Z</time></trkpt><trkpt lat="39.541337619089425" lon="8.539645878577703"><ele>294.0</ele><time>2026-05-01T07:52:23Z</time></trkpt><trkpt lat="39.54121638927213" lon="8.539609139260767"><ele>293.5</ele><time>2026-05-01T07:52:24Z</time></trkpt><trkpt lat="39.54109220693262" lon="8.539550555818586"><ele>293.0</ele><time>2026-05-01T07:52:25Z</time></trkpt><trkpt lat="39.54096401902791" lon="8.539494656546498"><ele>292.5</ele><time>2026-05-01T07:52:26Z</time></trkpt><trkpt lat="39.54084207845431" lon="8.539488467041506"><ele>292.0</ele><time>2026-05-01T07:52:27Z</time></trkpt><trkpt lat="39.54070768367693" lon="8.539496091470703"><ele>292.0</ele><time>2026-05-01T07:52:27.999Z</time></trkpt><trkpt lat="39.54056632051334" lon="8.539536502937542"><ele>292.0</ele><time>2026-05-01T07:52:28.999Z</time></trkpt><trkpt lat="39.54042357765364" lon="8.539514041496487"><ele>292.0</ele><time>2026-05-01T07:52:29.999Z</time></trkpt><trkpt lat="39.54027698766442" lon="8.53950877939345"><ele>292.0</ele><time>2026-05-01T07:52:30.999Z</time></trkpt><trkpt lat="39.54014544489255" lon="8.539524145403846"><ele>288.4</ele><time>2026-05-01T07:52:31.999Z</time></trkpt><trkpt lat="39.54003887584676" lon="8.539525464256185"><ele>284.79999999999995</ele><time>2026-05-01T07:52:32.999Z</time></trkpt><trkpt lat="39.539950605757724" lon="8.539516522566844"><ele>281.2</ele><time>2026-05-01T07:52:33.999Z</time></trkpt><trkpt lat="39.53988235298121" lon="8.539433447145232"><ele>277.59999999999997</ele><time>2026-05-01T07:52:34.999Z</time></trkpt><trkpt lat="39.539793759800354" lon="8.539346593868471"><ele>274.0</ele><time>2026-05-01T07:52:35.999Z</time></trkpt><trkpt lat="39.53968491217258" lon="8.539229112720756"><ele>274.0</ele><time>2026-05-01T07:52:36.999Z</time></trkpt><trkpt lat="39.539558440236185" lon="8.53911680374486"><ele>274.0</ele><time>2026-05-01T07:52:37.999Z</time></trkpt><trkpt lat="39.53942793688792" lon="8.539056305299843"><ele>274.0</ele><time>2026-05-01T07:52:38.999Z</time></trkpt><trkpt lat="39.53932999090054" lon="8.538992393344227"><ele>274.0</ele><time>2026-05-01T07:52:39.999Z</time></trkpt><trkpt lat="39.53926724413981" lon="8.538930948077187"><ele>272.0</ele><time>2026-05-01T07:52:40.999Z</time></trkpt><trkpt lat="39.53923421311513" lon="8.538777620247577"><ele>270.0</ele><time>2026-05-01T07:52:42.999Z</time></trkpt><trkpt lat="39.53928433118555" lon="8.538681494223638"><ele>268.0</ele><time>2026-05-01T07:52:43.999Z</time></trkpt><trkpt lat="39.53933377096087" lon="8.53858531418317"><ele>266.0</ele><time>2026-05-01T07:52:44.999Z</time></trkpt><trkpt lat="39.5393665526346" lon="8.538481974646281"><ele>264.0</ele><time>2026-05-01T07:52:45.999Z</time></trkpt><trkpt lat="39.53938443172244" lon="8.538395413568619"><ele>264.0</ele><time>2026-05-01T07:52:46.999Z</time></trkpt><trkpt lat="39.53935968697725" lon="8.538313285346835"><ele>264.0</ele><time>2026-05-01T07:52:47.999Z</time></trkpt><trkpt lat="39.539302233733494" lon="8.538252062336204"><ele>264.0</ele><time>2026-05-01T07:52:48.999Z</time></trkpt><trkpt lat="39.539216514640025" lon="8.538221797671575"><ele>264.0</ele><time>2026-05-01T07:52:49.999Z</time></trkpt><trkpt lat="39.539115185609695" lon="8.538222881830038"><ele>264.0</ele><time>2026-05-01T07:52:50.999Z</time></trkpt><trkpt lat="39.53900470973326" lon="8.538197382492156"><ele>264.0</ele><time>2026-05-01T07:52:51.999Z</time></trkpt><trkpt lat="39.538914436640056" lon="8.538145286147268"><ele>264.0</ele><time>2026-05-01T07:52:52.999Z</time></trkpt><trkpt lat="39.53883776353335" lon="8.53808276483278"><ele>264.0</ele><time>2026-05-01T07:52:53.999Z</time></trkpt><trkpt lat="39.53878219509036" lon="8.538014523688288"><ele>264.0</ele><time>2026-05-01T07:52:54.999Z</time></trkpt><trkpt lat="39.53877319095359" lon="8.537913359912345"><ele>264.0</ele><time>2026-05-01T07:52:55.999Z</time></trkpt><trkpt lat="39.53876335949398" lon="8.53779074514429"><ele>264.0</ele><time>2026-05-01T07:52:56.999Z</time></trkpt><trkpt lat="39.538760193088244" lon="8.537669230309055"><ele>264.0</ele><time>2026-05-01T07:52:57.999Z</time></trkpt><trkpt lat="39.53873327711547" lon="8.53755035377286"><ele>262.59999999999997</ele><time>2026-05-01T07:52:59.999Z</time></trkpt><trkpt lat="39.53861691110933" lon="8.537560992661366"><ele>261.2</ele><time>2026-05-01T07:53:02.999Z</time></trkpt><trkpt lat="39.5385644409272" lon="8.537635294617173"><ele>259.79999999999995</ele><time>2026-05-01T07:53:03.999Z</time></trkpt><trkpt lat="39.53849436835562" lon="8.537703126241171"><ele>258.4</ele><time>2026-05-01T07:53:04.999Z</time></trkpt><trkpt lat="39.538422082935064" lon="8.537794974726596"><ele>257.0</ele><time>2026-05-01T07:53:05.999Z</time></trkpt><trkpt lat="39.53835617852353" lon="8.537853369384736"><ele>257.0</ele><time>2026-05-01T07:53:06.999Z</time></trkpt><trkpt lat="39.538286043934534" lon="8.537880070220215"><ele>257.0</ele><time>2026-05-01T07:53:07.999Z</time></trkpt><trkpt lat="39.53821726197785" lon="8.537858356358397"><ele>257.0</ele><time>2026-05-01T07:53:08.999Z</time></trkpt><trkpt lat="39.53815288442947" lon="8.537794938948625"><ele>257.0</ele><time>2026-05-01T07:53:09.999Z</time></trkpt><trkpt lat="39.53811561594804" lon="8.537667075784304"><ele>257.0</ele><time>2026-05-01T07:53:10.999Z</time></trkpt><trkpt lat="39.53804727599191" lon="8.537525964962867"><ele>257.0</ele><time>2026-05-01T07:53:11.999Z</time></trkpt><trkpt lat="39.53795153277931" lon="8.537382336240553"><ele>257.0</ele><time>2026-05-01T07:53:12.999Z</time></trkpt><trkpt lat="39.53785412762465" lon="8.537240368369641"><ele>257.0</ele><time>2026-05-01T07:53:13.999Z</time></trkpt><trkpt lat="39.53774253212524" lon="8.537091296129596"><ele>253.0</ele><time>2026-05-01T07:53:14.999Z</time></trkpt><trkpt lat="39.53762897383544" lon="8.536949495608141"><ele>249.0</ele><time>2026-05-01T07:53:15.999Z</time></trkpt><trkpt lat="39.53754278088091" lon="8.536810804570335"><ele>245.0</ele><time>2026-05-01T07:53:16.999Z</time></trkpt><trkpt lat="39.53746868834127" lon="8.536696681490886"><ele>241.0</ele><time>2026-05-01T07:53:17.999Z</time></trkpt><trkpt lat="39.53743329938944" lon="8.536606513585673"><ele>241.0</ele><time>2026-05-01T07:53:18.999Z</time></trkpt><trkpt lat="39.537426124976605" lon="8.536452224935495"><ele>241.00000000000003</ele><time>2026-05-01T07:53:20.999Z</time></trkpt><trkpt lat="39.53749400978276" lon="8.536365858273323"><ele>241.00000000000003</ele><time>2026-05-01T07:53:21.999Z</time></trkpt><trkpt lat="39.537559684231105" lon="8.536255625897988"><ele>241.0</ele><time>2026-05-01T07:53:22.999Z</time></trkpt><trkpt lat="39.537630673709806" lon="8.536135930814313"><ele>241.0</ele><time>2026-05-01T07:53:23.999Z</time></trkpt><trkpt lat="39.537687745363684" lon="8.536005451524268"><ele>241.66666666666666</ele><time>2026-05-01T07:53:24.999Z</time></trkpt><trkpt lat="39.537760123784466" lon="8.535917276008263"><ele>242.33333333333331</ele><time>2026-05-01T07:53:25.999Z</time></trkpt><trkpt lat="39.537797574872116" lon="8.535837417021558"><ele>243.0</ele><time>2026-05-01T07:53:26.999Z</time></trkpt><trkpt lat="39.53773094844389" lon="8.535701763657487"><ele>243.66666666666669</ele><time>2026-05-01T07:53:28.999Z</time></trkpt><trkpt lat="39.53766427649882" lon="8.535685838780243"><ele>244.33333333333334</ele><time>2026-05-01T07:53:29.999Z</time></trkpt><trkpt lat="39.53758590163576" lon="8.535724949994586"><ele>245.0</ele><time>2026-05-01T07:53:30.999Z</time></trkpt><trkpt lat="39.5374955991476" lon="8.535811839223253"><ele>245.0</ele><time>2026-05-01T07:53:31.999Z</time></trkpt><trkpt lat="39.53738397948903" lon="8.535923013103957"><ele>245.0</ele><time>2026-05-01T07:53:32.999Z</time></trkpt><trkpt lat="39.537255710096524" lon="8.536029902477441"><ele>245.0</ele><time>2026-05-01T07:53:33.998Z</time></trkpt><trkpt lat="39.53713373329243" lon="8.536143843225942"><ele>245.0</ele><time>2026-05-01T07:53:34.998Z</time></trkpt><trkpt lat="39.53703307313641" lon="8.5362567183918"><ele>244.00000000000003</ele><time>2026-05-01T07:53:35.998Z</time></trkpt><trkpt lat="39.53695311165644" lon="8.536351919300179"><ele>243.0</ele><time>2026-05-01T07:53:36.998Z</time></trkpt><trkpt lat="39.536868187942794" lon="8.536386305145454"><ele>242.0</ele><time>2026-05-01T07:53:37.998Z</time></trkpt><trkpt lat="39.536804385680014" lon="8.536410809685192"><ele>241.0</ele><time>2026-05-01T07:53:38.998Z</time></trkpt><trkpt lat="39.5367274170963" lon="8.536373735081174"><ele>240.00000000000003</ele><time>2026-05-01T07:53:39.998Z</time></trkpt><trkpt lat="39.53664189916298" lon="8.53630073963774"><ele>239.0</ele><time>2026-05-01T07:53:40.998Z</time></trkpt><trkpt lat="39.536568369954836" lon="8.53617944182918"><ele>239.0</ele><time>2026-05-01T07:53:41.998Z</time></trkpt><trkpt lat="39.536488918284896" lon="8.536064723933888"><ele>239.0</ele><time>2026-05-01T07:53:42.998Z</time></trkpt><trkpt lat="39.53639920476354" lon="8.535970919395531"><ele>239.0</ele><time>2026-05-01T07:53:43.998Z</time></trkpt><trkpt lat="39.53628379866064" lon="8.535918231801062"><ele>239.0</ele><time>2026-05-01T07:53:44.998Z</time></trkpt><trkpt lat="39.53617793338758" lon="8.5358845759724"><ele>234.66666666666669</ele><time>2026-05-01T07:53:45.998Z</time></trkpt><trkpt lat="39.53609690010267" lon="8.535844542375603"><ele>230.33333333333334</ele><time>2026-05-01T07:53:46.998Z</time></trkpt><trkpt lat="39.536043996410534" lon="8.535779520581368"><ele>226.0</ele><time>2026-05-01T07:53:47.998Z</time></trkpt><trkpt lat="39.53601108622198" lon="8.535689111896842"><ele>221.66666666666669</ele><time>2026-05-01T07:53:48.998Z</time></trkpt><trkpt lat="39.53604376222274" lon="8.535577103118209"><ele>217.33333333333334</ele><time>2026-05-01T07:53:49.998Z</time></trkpt><trkpt lat="39.53607384268532" lon="8.535476884989473"><ele>213.0</ele><time>2026-05-01T07:53:50.998Z</time></trkpt><trkpt lat="39.536102100745644" lon="8.53533362014771"><ele>213.0</ele><time>2026-05-01T07:53:51.998Z</time></trkpt><trkpt lat="39.53610376829417" lon="8.535182812258148"><ele>213.0</ele><time>2026-05-01T07:53:52.998Z</time></trkpt><trkpt lat="39.53605521738065" lon="8.53502340978032"><ele>213.0</ele><time>2026-05-01T07:53:53.998Z</time></trkpt><trkpt lat="39.536002453752424" lon="8.534843163497309"><ele>213.0</ele><time>2026-05-01T07:53:55Z</time></trkpt><trkpt lat="39.535936302935426" lon="8.534694131347065"><ele>213.0</ele><time>2026-05-01T07:53:56Z</time></trkpt><trkpt lat="39.53586938184532" lon="8.534587989471563"><ele>213.0</ele><time>2026-05-01T07:53:57Z</time></trkpt><trkpt lat="39.535811792551954" lon="8.534512593523843"><ele>213.0</ele><time>2026-05-01T07:53:58Z</time></trkpt><trkpt lat="39.535802874608464" lon="8.534423496283539"><ele>213.0</ele><time>2026-05-01T07:53:59Z</time></trkpt><trkpt lat="39.5358231702406" lon="8.534325568963428"><ele>213.0</ele><time>2026-05-01T07:54:00Z</time></trkpt><trkpt lat="39.5358624181781" lon="8.534209532337497"><ele>213.0</ele><time>2026-05-01T07:54:01Z</time></trkpt><trkpt lat="39.53589914148895" lon="8.534053864956787"><ele>212.75</ele><time>2026-05-01T07:54:02Z</time></trkpt><trkpt lat="39.53596115037605" lon="8.533898173737583"><ele>212.5</ele><time>2026-05-01T07:54:03Z</time></trkpt><trkpt lat="39.53602610228562" lon="8.533749669925301"><ele>212.25</ele><time>2026-05-01T07:54:04Z</time></trkpt><trkpt lat="39.53610210337035" lon="8.533617191212771"><ele>212.0</ele><time>2026-05-01T07:54:05Z</time></trkpt><trkpt lat="39.536186295756146" lon="8.533507107413957"><ele>214.33333333333334</ele><time>2026-05-01T07:54:06Z</time></trkpt><trkpt lat="39.53626699011148" lon="8.533411175950876"><ele>216.66666666666669</ele><time>2026-05-01T07:54:07Z</time></trkpt><trkpt lat="39.53632940558793" lon="8.533342577711233"><ele>219.0</ele><time>2026-05-01T07:54:08Z</time></trkpt><trkpt lat="39.53639351811222" lon="8.533259563248585"><ele>221.33333333333331</ele><time>2026-05-01T07:54:10Z</time></trkpt><trkpt lat="39.53641234657068" lon="8.533166392825187"><ele>223.66666666666666</ele><time>2026-05-01T07:54:12Z</time></trkpt><trkpt lat="39.536367398033605" lon="8.53306119794406"><ele>226.0</ele><time>2026-05-01T07:54:14Z</time></trkpt><trkpt lat="39.536304834018104" lon="8.533035933316992"><ele>221.4</ele><time>2026-05-01T07:54:15Z</time></trkpt><trkpt lat="39.53621690869817" lon="8.533045546250206"><ele>216.8</ele><time>2026-05-01T07:54:16Z</time></trkpt><trkpt lat="39.5361159582097" lon="8.533072370769377"><ele>212.20000000000002</ele><time>2026-05-01T07:54:17Z</time></trkpt><trkpt lat="39.53601359254541" lon="8.533068165690766"><ele>207.60000000000002</ele><time>2026-05-01T07:54:18Z</time></trkpt><trkpt lat="39.53591848604205" lon="8.53306409534647"><ele>203.0</ele><time>2026-05-01T07:54:19Z</time></trkpt><trkpt lat="39.535840651444566" lon="8.533026934497107"><ele>203.0</ele><time>2026-05-01T07:54:20Z</time></trkpt><trkpt lat="39.535762348314094" lon="8.532949497366113"><ele>203.0</ele><time>2026-05-01T07:54:21Z</time></trkpt><trkpt lat="39.535666927947204" lon="8.532841500108438"><ele>203.0</ele><time>2026-05-01T07:54:22Z</time></trkpt><trkpt lat="39.53555756527433" lon="8.532732742783793"><ele>203.0</ele><time>2026-05-01T07:54:23Z</time></trkpt><trkpt lat="39.53544133442603" lon="8.532634763628392"><ele>199.75</ele><time>2026-05-01T07:54:24Z</time></trkpt><trkpt lat="39.535365294728074" lon="8.532499549204633"><ele>196.5</ele><time>2026-05-01T07:54:25Z</time></trkpt><trkpt lat="39.535284594138545" lon="8.532363727559025"><ele>193.25</ele><time>2026-05-01T07:54:26Z</time></trkpt><trkpt lat="39.5352144841957" lon="8.532217887919735"><ele>190.0</ele><time>2026-05-01T07:54:27Z</time></trkpt><trkpt lat="39.53514579402524" lon="8.532073855311321"><ele>190.5</ele><time>2026-05-01T07:54:28Z</time></trkpt><trkpt lat="39.53514071682472" lon="8.53189118815639"><ele>191.0</ele><time>2026-05-01T07:54:29Z</time></trkpt><trkpt lat="39.53511697322683" lon="8.53169826354879"><ele>191.5</ele><time>2026-05-01T07:54:30Z</time></trkpt><trkpt lat="39.535080945586245" lon="8.531500888734968"><ele>192.0</ele><time>2026-05-01T07:54:31Z</time></trkpt><trkpt lat="39.535081766366545" lon="8.531308031568262"><ele>191.75</ele><time>2026-05-01T07:54:32Z</time></trkpt><trkpt lat="39.53506796510832" lon="8.531129564524365"><ele>191.5</ele><time>2026-05-01T07:54:33Z</time></trkpt><trkpt lat="39.53504156721719" lon="8.530959630956845"><ele>191.25</ele><time>2026-05-01T07:54:33.999Z</time></trkpt><trkpt lat="39.535013724465614" lon="8.530797661301095"><ele>191.0</ele><time>2026-05-01T07:54:34.999Z</time></trkpt><trkpt lat="39.534972461051" lon="8.530641648950306"><ele>191.0</ele><time>2026-05-01T07:54:35.999Z</time></trkpt><trkpt lat="39.53493178031788" lon="8.530495945225008"><ele>191.0</ele><time>2026-05-01T07:54:36.999Z</time></trkpt><trkpt lat="39.534899734076454" lon="8.530372174145604"><ele>191.0</ele><time>2026-05-01T07:54:37.999Z</time></trkpt><trkpt lat="39.53487233176651" lon="8.530278373221332"><ele>191.0</ele><time>2026-05-01T07:54:38.999Z</time></trkpt><trkpt lat="39.53480805751956" lon="8.530194131765116"><ele>191.0</ele><time>2026-05-01T07:54:39.999Z</time></trkpt><trkpt lat="39.53472443501765" lon="8.5301310432818"><ele>190.5</ele><time>2026-05-01T07:54:40.999Z</time></trkpt><trkpt lat="39.53463539205952" lon="8.530087543335371"><ele>190.0</ele><time>2026-05-01T07:54:41.999Z</time></trkpt><trkpt lat="39.53454203063977" lon="8.53006370693129"><ele>189.5</ele><time>2026-05-01T07:54:42.999Z</time></trkpt><trkpt lat="39.534454608204356" lon="8.530039778130515"><ele>189.0</ele><time>2026-05-01T07:54:43.999Z</time></trkpt><trkpt lat="39.53438141207757" lon="8.530011588460285"><ele>188.5</ele><time>2026-05-01T07:54:44.999Z</time></trkpt><trkpt lat="39.53432385316425" lon="8.529972306888155"><ele>188.0</ele><time>2026-05-01T07:54:45.999Z</time></trkpt><trkpt lat="39.534292179981485" lon="8.529837413096915"><ele>187.0</ele><time>2026-05-01T07:54:47.999Z</time></trkpt><trkpt lat="39.53430677463124" lon="8.52975548945578"><ele>186.0</ele><time>2026-05-01T07:54:48.999Z</time></trkpt><trkpt lat="39.534361971091435" lon="8.529673195998354"><ele>185.0</ele><time>2026-05-01T07:54:49.999Z</time></trkpt><trkpt lat="39.53441684013815" lon="8.529564323907325"><ele>184.0</ele><time>2026-05-01T07:54:50.999Z</time></trkpt><trkpt lat="39.53447957404397" lon="8.529468246894428"><ele>183.0</ele><time>2026-05-01T07:54:51.999Z</time></trkpt><trkpt lat="39.534515559985095" lon="8.52936293552362"><ele>182.0</ele><time>2026-05-01T07:54:52.999Z</time></trkpt><trkpt lat="39.53450968821315" lon="8.529264537249116"><ele>181.75</ele><time>2026-05-01T07:54:53.999Z</time></trkpt><trkpt lat="39.53446917142844" lon="8.529156406109124"><ele>181.5</ele><time>2026-05-01T07:54:54.999Z</time></trkpt><trkpt lat="39.53440108163369" lon="8.529023736369783"><ele>181.25</ele><time>2026-05-01T07:54:55.999Z</time></trkpt><trkpt lat="39.53433340437811" lon="8.528860216922892"><ele>181.0</ele><time>2026-05-01T07:54:56.999Z</time></trkpt><trkpt lat="39.534281068703685" lon="8.528681088343248"><ele>179.25</ele><time>2026-05-01T07:54:57.999Z</time></trkpt><trkpt lat="39.534234469511446" lon="8.528505837540315"><ele>177.5</ele><time>2026-05-01T07:54:58.999Z</time></trkpt><trkpt lat="39.53418997634699" lon="8.52834319441564"><ele>175.75</ele><time>2026-05-01T07:54:59.999Z</time></trkpt><trkpt lat="39.53414133354422" lon="8.52819028874283"><ele>174.0</ele><time>2026-05-01T07:55:00.999Z</time></trkpt><trkpt lat="39.53410066903068" lon="8.528022147153886"><ele>175.66666666666666</ele><time>2026-05-01T07:55:01.999Z</time></trkpt><trkpt lat="39.5340472895049" lon="8.527848946213098"><ele>177.33333333333331</ele><time>2026-05-01T07:55:02.999Z</time></trkpt><trkpt lat="39.53398312445" lon="8.527669587513014"><ele>179.0</ele><time>2026-05-01T07:55:03.999Z</time></trkpt><trkpt lat="39.533922033781494" lon="8.52747477893181"><ele>179.0</ele><time>2026-05-01T07:55:04.999Z</time></trkpt><trkpt lat="39.53387316386088" lon="8.527268834875882"><ele>179.0</ele><time>2026-05-01T07:55:05.999Z</time></trkpt><trkpt lat="39.533817941447275" lon="8.52706680628134"><ele>179.0</ele><time>2026-05-01T07:55:06.999Z</time></trkpt><trkpt lat="39.53376543872889" lon="8.526852479891714"><ele>177.33333333333331</ele><time>2026-05-01T07:55:07.999Z</time></trkpt><trkpt lat="39.53370249778219" lon="8.526636069336302"><ele>175.66666666666666</ele><time>2026-05-01T07:55:08.999Z</time></trkpt><trkpt lat="39.533640120479134" lon="8.526422737476159"><ele>174.0</ele><time>2026-05-01T07:55:09.999Z</time></trkpt><trkpt lat="39.53358185400566" lon="8.526205853690325"><ele>172.33333333333334</ele><time>2026-05-01T07:55:10.999Z</time></trkpt><trkpt lat="39.533524019177946" lon="8.525991580949027"><ele>170.66666666666669</ele><time>2026-05-01T07:55:11.999Z</time></trkpt><trkpt lat="39.53346990021766" lon="8.525779937268855"><ele>169.0</ele><time>2026-05-01T07:55:12.999Z</time></trkpt><trkpt lat="39.533420180634664" lon="8.525566940884769"><ele>168.66666666666669</ele><time>2026-05-01T07:55:13.999Z</time></trkpt><trkpt lat="39.53336348481238" lon="8.525359286572556"><ele>168.33333333333334</ele><time>2026-05-01T07:55:14.999Z</time></trkpt><trkpt lat="39.53330286055865" lon="8.52515194161382"><ele>168.0</ele><time>2026-05-01T07:55:15.999Z</time></trkpt><trkpt lat="39.533241193845384" lon="8.524943113279047"><ele>168.0</ele><time>2026-05-01T07:55:16.999Z</time></trkpt><trkpt lat="39.53317874966361" lon="8.524733477118094"><ele>168.0</ele><time>2026-05-01T07:55:17.999Z</time></trkpt><trkpt lat="39.533113779941814" lon="8.524522198548022"><ele>168.0</ele><time>2026-05-01T07:55:18.999Z</time></trkpt><trkpt lat="39.53305149633552" lon="8.52431623380883"><ele>166.75</ele><time>2026-05-01T07:55:19.999Z</time></trkpt><trkpt lat="39.53300111313589" lon="8.524119592086778"><ele>165.5</ele><time>2026-05-01T07:55:20.999Z</time></trkpt><trkpt lat="39.532946996972434" lon="8.523943467301596"><ele>164.25</ele><time>2026-05-01T07:55:21.999Z</time></trkpt><trkpt lat="39.53288719125964" lon="8.523782729560136"><ele>163.0</ele><time>2026-05-01T07:55:22.999Z</time></trkpt><trkpt lat="39.53281681227417" lon="8.523643559912346"><ele>163.0</ele><time>2026-05-01T07:55:23.999Z</time></trkpt><trkpt lat="39.53274094545818" lon="8.523538418450702"><ele>163.0</ele><time>2026-05-01T07:55:24.999Z</time></trkpt><trkpt lat="39.532674556131845" lon="8.523446429502174"><ele>163.0</ele><time>2026-05-01T07:55:25.999Z</time></trkpt><trkpt lat="39.53259449027218" lon="8.523375978173242"><ele>163.0</ele><time>2026-05-01T07:55:26.999Z</time></trkpt><trkpt lat="39.53249994840572" lon="8.523323514778607"><ele>163.0</ele><time>2026-05-01T07:55:27.999Z</time></trkpt><trkpt lat="39.53240074455654" lon="8.523308533820815"><ele>163.0</ele><time>2026-05-01T07:55:28.999Z</time></trkpt><trkpt lat="39.5323127133814" lon="8.523240792924192"><ele>163.0</ele><time>2026-05-01T07:55:29.999Z</time></trkpt><trkpt lat="39.53224352110074" lon="8.523165009355996"><ele>163.0</ele><time>2026-05-01T07:55:30.999Z</time></trkpt><trkpt lat="39.532202490195665" lon="8.523071656146685"><ele>163.0</ele><time>2026-05-01T07:55:31.999Z</time></trkpt><trkpt lat="39.532149444301425" lon="8.522986034851185"><ele>163.0</ele><time>2026-05-01T07:55:32.999Z</time></trkpt><trkpt lat="39.53208544207102" lon="8.522895788531047"><ele>163.60000000000002</ele><time>2026-05-01T07:55:33.999Z</time></trkpt><trkpt lat="39.532071646632645" lon="8.522771430516235"><ele>164.20000000000002</ele><time>2026-05-01T07:55:34.999Z</time></trkpt><trkpt lat="39.53206501833909" lon="8.52265061285058"><ele>164.8</ele><time>2026-05-01T07:55:35.999Z</time></trkpt><trkpt lat="39.532049785578494" lon="8.522528619363579"><ele>165.4</ele><time>2026-05-01T07:55:36.999Z</time></trkpt><trkpt lat="39.53206252522808" lon="8.52240392144914"><ele>166.0</ele><time>2026-05-01T07:55:37.999Z</time></trkpt><trkpt lat="39.532062488525405" lon="8.5222669888664"><ele>167.0</ele><time>2026-05-01T07:55:38.999Z</time></trkpt><trkpt lat="39.532050495485244" lon="8.522117635181369"><ele>168.0</ele><time>2026-05-01T07:55:39.998Z</time></trkpt><trkpt lat="39.53202845667132" lon="8.521957607096269"><ele>169.0</ele><time>2026-05-01T07:55:40.998Z</time></trkpt><trkpt lat="39.53202397705412" lon="8.521801742229732"><ele>170.0</ele><time>2026-05-01T07:55:41.998Z</time></trkpt><trkpt lat="39.5320012442191" lon="8.52168232620801"><ele>170.0</ele><time>2026-05-01T07:55:42.998Z</time></trkpt><trkpt lat="39.53196411528388" lon="8.521584958475138"><ele>170.0</ele><time>2026-05-01T07:55:43.998Z</time></trkpt><trkpt lat="39.53192345828209" lon="8.521487345973643"><ele>170.0</ele><time>2026-05-01T07:55:44.998Z</time></trkpt><trkpt lat="39.531860660761915" lon="8.521422826666058"><ele>170.0</ele><time>2026-05-01T07:55:45.998Z</time></trkpt><trkpt lat="39.53179743956409" lon="8.521373353290626"><ele>170.0</ele><time>2026-05-01T07:55:46.998Z</time></trkpt><trkpt lat="39.531701298781854" lon="8.521407567068222"><ele>170.0</ele><time>2026-05-01T07:55:47.998Z</time></trkpt><trkpt lat="39.531620476068966" lon="8.521504361290027"><ele>170.0</ele><time>2026-05-01T07:55:48.998Z</time></trkpt><trkpt lat="39.53152176387322" lon="8.521552206796317"><ele>170.0</ele><time>2026-05-01T07:55:49.998Z</time></trkpt><trkpt lat="39.53142543923448" lon="8.521650275656857"><ele>170.0</ele><time>2026-05-01T07:55:50.998Z</time></trkpt><trkpt lat="39.53134929271644" lon="8.52173073732094"><ele>170.0</ele><time>2026-05-01T07:55:51.998Z</time></trkpt><trkpt lat="39.53130313883351" lon="8.521840623776026"><ele>170.0</ele><time>2026-05-01T07:55:52.998Z</time></trkpt><trkpt lat="39.53128064564569" lon="8.521978821163106"><ele>171.2</ele><time>2026-05-01T07:55:53.998Z</time></trkpt><trkpt lat="39.53127597946627" lon="8.522115552187758"><ele>172.4</ele><time>2026-05-01T07:55:54.998Z</time></trkpt><trkpt lat="39.53128752471331" lon="8.522239685384575"><ele>173.60000000000002</ele><time>2026-05-01T07:55:55.998Z</time></trkpt><trkpt lat="39.53131001254695" lon="8.522361655591462"><ele>174.8</ele><time>2026-05-01T07:55:56.998Z</time></trkpt><trkpt lat="39.53134180443586" lon="8.522476056417556"><ele>176.0</ele><time>2026-05-01T07:55:57.998Z</time></trkpt><trkpt lat="39.53136701792573" lon="8.522567342194915"><ele>176.0</ele><time>2026-05-01T07:55:58.998Z</time></trkpt><trkpt lat="39.53134089528056" lon="8.522708283619524"><ele>176.0</ele><time>2026-05-01T07:56:01Z</time></trkpt><trkpt lat="39.53123670279714" lon="8.522729943372347"><ele>176.0</ele><time>2026-05-01T07:56:04Z</time></trkpt><trkpt lat="39.53117020645026" lon="8.522735361632522"><ele>176.0</ele><time>2026-05-01T07:56:05Z</time></trkpt><trkpt lat="39.53114196916463" lon="8.522635989543332"><ele>176.0</ele><time>2026-05-01T07:56:06Z</time></trkpt><trkpt lat="39.531105904439606" lon="8.52254748748466"><ele>176.0</ele><time>2026-05-01T07:56:07Z</time></trkpt><trkpt lat="39.53106379787959" lon="8.52243885673511"><ele>177.8</ele><time>2026-05-01T07:56:08Z</time></trkpt><trkpt lat="39.53102328927779" lon="8.52231983959455"><ele>179.60000000000002</ele><time>2026-05-01T07:56:09Z</time></trkpt><trkpt lat="39.53099548419462" lon="8.522209259466388"><ele>181.4</ele><time>2026-05-01T07:56:10Z</time></trkpt><trkpt lat="39.53097732884488" lon="8.522086697470348"><ele>183.2</ele><time>2026-05-01T07:56:11Z</time></trkpt><trkpt lat="39.53097087528491" lon="8.52195331119914"><ele>185.0</ele><time>2026-05-01T07:56:12Z</time></trkpt><trkpt lat="39.530971733275166" lon="8.521800421034834"><ele>185.0</ele><time>2026-05-01T07:56:13Z</time></trkpt><trkpt lat="39.53100061785402" lon="8.521650920052508"><ele>185.0</ele><time>2026-05-01T07:56:14Z</time></trkpt><trkpt lat="39.53101234128128" lon="8.521522974663533"><ele>185.0</ele><time>2026-05-01T07:56:15Z</time></trkpt><trkpt lat="39.53101476283246" lon="8.521416927552735"><ele>185.0</ele><time>2026-05-01T07:56:16Z</time></trkpt><trkpt lat="39.530985033035485" lon="8.521325573735417"><ele>185.0</ele><time>2026-05-01T07:56:17Z</time></trkpt><trkpt lat="39.53088897399812" lon="8.521274744932896"><ele>183.5</ele><time>2026-05-01T07:56:18Z</time></trkpt><trkpt lat="39.530784491516876" lon="8.521217758938436"><ele>182.0</ele><time>2026-05-01T07:56:19Z</time></trkpt><trkpt lat="39.53066675193918" lon="8.521167700633628"><ele>180.5</ele><time>2026-05-01T07:56:20Z</time></trkpt><trkpt lat="39.53055607036391" lon="8.521083750824019"><ele>179.0</ele><time>2026-05-01T07:56:21Z</time></trkpt><trkpt lat="39.53045672641966" lon="8.521017427403674"><ele>182.39999999999998</ele><time>2026-05-01T07:56:22Z</time></trkpt><trkpt lat="39.53035188638203" lon="8.520962430420832"><ele>185.8</ele><time>2026-05-01T07:56:23Z</time></trkpt><trkpt lat="39.530277687935474" lon="8.52093567359843"><ele>189.2</ele><time>2026-05-01T07:56:24Z</time></trkpt><trkpt lat="39.530195305138626" lon="8.520919648975417"><ele>192.60000000000002</ele><time>2026-05-01T07:56:25Z</time></trkpt><trkpt lat="39.53009485919917" lon="8.520931644501221"><ele>196.0</ele><time>2026-05-01T07:56:26Z</time></trkpt><trkpt lat="39.5299864997467" lon="8.520970090785827"><ele>196.0</ele><time>2026-05-01T07:56:27Z</time></trkpt><trkpt lat="39.52988375987332" lon="8.521020555367084"><ele>196.0</ele><time>2026-05-01T07:56:28Z</time></trkpt><trkpt lat="39.52978427728992" lon="8.521058957708732"><ele>196.0</ele><time>2026-05-01T07:56:29Z</time></trkpt><trkpt lat="39.52970960033592" lon="8.521077457491298"><ele>196.0</ele><time>2026-05-01T07:56:30Z</time></trkpt><trkpt lat="39.529615441097896" lon="8.521052767327935"><ele>196.0</ele><time>2026-05-01T07:56:32Z</time></trkpt><trkpt lat="39.52956275198387" lon="8.52096285001647"><ele>196.0</ele><time>2026-05-01T07:56:33.999Z</time></trkpt><trkpt lat="39.52958998701278" lon="8.520777873838428"><ele>196.0</ele><time>2026-05-01T07:56:35.999Z</time></trkpt><trkpt lat="39.529640607383335" lon="8.520639729301225"><ele>196.0</ele><time>2026-05-01T07:56:36.999Z</time></trkpt><trkpt lat="39.52968932069216" lon="8.520487133597937"><ele>196.0</ele><time>2026-05-01T07:56:37.999Z</time></trkpt><trkpt lat="39.52976239789142" lon="8.520346854806762"><ele>199.0</ele><time>2026-05-01T07:56:38.999Z</time></trkpt><trkpt lat="39.52984890798637" lon="8.52022364324458"><ele>202.0</ele><time>2026-05-01T07:56:39.999Z</time></trkpt><trkpt lat="39.529950528711076" lon="8.520101354264437"><ele>205.0</ele><time>2026-05-01T07:56:40.999Z</time></trkpt><trkpt lat="39.53005610399885" lon="8.520003503194264"><ele>208.0</ele><time>2026-05-01T07:56:41.999Z</time></trkpt><trkpt lat="39.530160053076955" lon="8.519940543781994"><ele>208.0</ele><time>2026-05-01T07:56:42.999Z</time></trkpt><trkpt lat="39.530265351672014" lon="8.519911166878439"><ele>208.0</ele><time>2026-05-01T07:56:43.999Z</time></trkpt><trkpt lat="39.530380444243086" lon="8.519914113489063"><ele>208.0</ele><time>2026-05-01T07:56:44.999Z</time></trkpt><trkpt lat="39.53049591749029" lon="8.519928051726719"><ele>208.0</ele><time>2026-05-01T07:56:45.999Z</time></trkpt><trkpt lat="39.53059831552799" lon="8.51990625638316"><ele>208.0</ele><time>2026-05-01T07:56:46.999Z</time></trkpt><trkpt lat="39.530687172074465" lon="8.519838023217753"><ele>211.0</ele><time>2026-05-01T07:56:47.999Z</time></trkpt><trkpt lat="39.530781952953966" lon="8.519731066483168"><ele>214.0</ele><time>2026-05-01T07:56:48.999Z</time></trkpt><trkpt lat="39.530881144047385" lon="8.519610709088491"><ele>217.0</ele><time>2026-05-01T07:56:49.999Z</time></trkpt><trkpt lat="39.53101242696675" lon="8.519541929883017"><ele>220.0</ele><time>2026-05-01T07:56:50.999Z</time></trkpt><trkpt lat="39.53115170905695" lon="8.519481432815867"><ele>215.6</ele><time>2026-05-01T07:56:51.999Z</time></trkpt><trkpt lat="39.53127122156412" lon="8.519410584736"><ele>211.2</ele><time>2026-05-01T07:56:52.999Z</time></trkpt><trkpt lat="39.53137796729636" lon="8.519372271123723"><ele>206.8</ele><time>2026-05-01T07:56:53.999Z</time></trkpt><trkpt lat="39.53146642271586" lon="8.51930015663704"><ele>202.4</ele><time>2026-05-01T07:56:54.999Z</time></trkpt><trkpt lat="39.531530911302674" lon="8.519200573027469"><ele>198.0</ele><time>2026-05-01T07:56:55.999Z</time></trkpt><trkpt lat="39.531577180721" lon="8.519074150398232"><ele>198.0</ele><time>2026-05-01T07:56:56.999Z</time></trkpt><trkpt lat="39.5316025285855" lon="8.51892955223473"><ele>198.0</ele><time>2026-05-01T07:56:57.999Z</time></trkpt><trkpt lat="39.53159855401208" lon="8.518778326894076"><ele>198.0</ele><time>2026-05-01T07:56:58.999Z</time></trkpt><trkpt lat="39.53157647507443" lon="8.518625488527462"><ele>198.0</ele><time>2026-05-01T07:56:59.999Z</time></trkpt><trkpt lat="39.53153655932572" lon="8.518466921949942"><ele>196.5</ele><time>2026-05-01T07:57:00.999Z</time></trkpt><trkpt lat="39.53148522954606" lon="8.518306618613837"><ele>195.0</ele><time>2026-05-01T07:57:01.999Z</time></trkpt><trkpt lat="39.53143245557008" lon="8.518141086097453"><ele>193.5</ele><time>2026-05-01T07:57:02.999Z</time></trkpt><trkpt lat="39.53136363713643" lon="8.517995367916697"><ele>192.0</ele><time>2026-05-01T07:57:03.999Z</time></trkpt><trkpt lat="39.53127225541901" lon="8.517854156022057"><ele>197.0</ele><time>2026-05-01T07:57:04.999Z</time></trkpt><trkpt lat="39.531177963796765" lon="8.517718875861368"><ele>202.0</ele><time>2026-05-01T07:57:05.999Z</time></trkpt><trkpt lat="39.531065260780906" lon="8.517612808833004"><ele>207.0</ele><time>2026-05-01T07:57:06.999Z</time></trkpt><trkpt lat="39.53093938317428" lon="8.517528959388743"><ele>212.0</ele><time>2026-05-01T07:57:07.999Z</time></trkpt><trkpt lat="39.53082940378241" lon="8.517443237387901"><ele>212.0</ele><time>2026-05-01T07:57:08.999Z</time></trkpt><trkpt lat="39.53072081537104" lon="8.51740252226519"><ele>212.0</ele><time>2026-05-01T07:57:09.999Z</time></trkpt><trkpt lat="39.53061968026089" lon="8.517390870624025"><ele>212.0</ele><time>2026-05-01T07:57:10.999Z</time></trkpt><trkpt lat="39.530512403235704" lon="8.517491507288225"><ele>212.0</ele><time>2026-05-01T07:57:11.999Z</time></trkpt><trkpt lat="39.53039825546724" lon="8.517555969058778"><ele>211.33333333333334</ele><time>2026-05-01T07:57:12.999Z</time></trkpt><trkpt lat="39.53027567492155" lon="8.517639512029872"><ele>210.66666666666669</ele><time>2026-05-01T07:57:13.999Z</time></trkpt><trkpt lat="39.53013622109034" lon="8.517733689034543"><ele>210.0</ele><time>2026-05-01T07:57:14.999Z</time></trkpt><trkpt lat="39.52997947339267" lon="8.51783579963441"><ele>214.66666666666669</ele><time>2026-05-01T07:57:15.999Z</time></trkpt><trkpt lat="39.52981825100807" lon="8.517935846060226"><ele>219.33333333333334</ele><time>2026-05-01T07:57:16.999Z</time></trkpt><trkpt lat="39.52966137354267" lon="8.518030520317536"><ele>224.0</ele><time>2026-05-01T07:57:17.999Z</time></trkpt><trkpt lat="39.52949810091822" lon="8.518129073293066"><ele>224.0</ele><time>2026-05-01T07:57:18.999Z</time></trkpt><trkpt lat="39.52933431266903" lon="8.518248345457522"><ele>224.0</ele><time>2026-05-01T07:57:19.999Z</time></trkpt><trkpt lat="39.529189387263884" lon="8.51833231364964"><ele>224.0</ele><time>2026-05-01T07:57:20.999Z</time></trkpt><trkpt lat="39.52907912714222" lon="8.518397263525603"><ele>224.0</ele><time>2026-05-01T07:57:21.999Z</time></trkpt><trkpt lat="39.528989891837504" lon="8.51849004092427"><ele>223.99999999999997</ele><time>2026-05-01T07:57:22.999Z</time></trkpt><trkpt lat="39.52893003074812" lon="8.518600392302355"><ele>223.99999999999997</ele><time>2026-05-01T07:57:23.999Z</time></trkpt><trkpt lat="39.52890086147061" lon="8.518717165834886"><ele>224.0</ele><time>2026-05-01T07:57:24.999Z</time></trkpt><trkpt lat="39.52887940057191" lon="8.518817246526133"><ele>224.0</ele><time>2026-05-01T07:57:25.999Z</time></trkpt><trkpt lat="39.528816998448576" lon="8.518868536029537"><ele>224.33333333333334</ele><time>2026-05-01T07:57:26.999Z</time></trkpt><trkpt lat="39.52875243583477" lon="8.518891200036528"><ele>224.66666666666669</ele><time>2026-05-01T07:57:27.999Z</time></trkpt><trkpt lat="39.52868191813305" lon="8.518879829641923"><ele>225.0</ele><time>2026-05-01T07:57:28.999Z</time></trkpt><trkpt lat="39.52860064933165" lon="8.518870862903407"><ele>225.33333333333331</ele><time>2026-05-01T07:57:29.999Z</time></trkpt><trkpt lat="39.528503087402605" lon="8.51883711670166"><ele>225.66666666666666</ele><time>2026-05-01T07:57:30.999Z</time></trkpt><trkpt lat="39.52839511644091" lon="8.518769853286031"><ele>226.0</ele><time>2026-05-01T07:57:31.999Z</time></trkpt><trkpt lat="39.52829845408139" lon="8.518686420519874"><ele>226.0</ele><time>2026-05-01T07:57:32.999Z</time></trkpt><trkpt lat="39.528207977691785" lon="8.518589436954946"><ele>226.00000000000003</ele><time>2026-05-01T07:57:33.999Z</time></trkpt><trkpt lat="39.52811073588896" lon="8.518519757079355"><ele>226.00000000000003</ele><time>2026-05-01T07:57:34.999Z</time></trkpt><trkpt lat="39.52802034545011" lon="8.51845719161114"><ele>226.0</ele><time>2026-05-01T07:57:35.999Z</time></trkpt><trkpt lat="39.52792273185673" lon="8.518416899423517"><ele>226.0</ele><time>2026-05-01T07:57:36.999Z</time></trkpt><trkpt lat="39.52783328520538" lon="8.518351182726619"><ele>228.60000000000002</ele><time>2026-05-01T07:57:37.999Z</time></trkpt><trkpt lat="39.52774848579131" lon="8.518280386738855"><ele>231.20000000000002</ele><time>2026-05-01T07:57:38.999Z</time></trkpt><trkpt lat="39.527656924333705" lon="8.518260515010747"><ele>233.79999999999998</ele><time>2026-05-01T07:57:39.999Z</time></trkpt><trkpt lat="39.52754427655563" lon="8.518261383062336"><ele>236.39999999999998</ele><time>2026-05-01T07:57:40.999Z</time></trkpt><trkpt lat="39.52741837769953" lon="8.518272486294144"><ele>239.0</ele><time>2026-05-01T07:57:41.998Z</time></trkpt><trkpt lat="39.527303234484606" lon="8.518319887446625"><ele>239.0</ele><time>2026-05-01T07:57:42.998Z</time></trkpt><trkpt lat="39.5271960060056" lon="8.518404665817144"><ele>239.0</ele><time>2026-05-01T07:57:43.998Z</time></trkpt><trkpt lat="39.52707938291518" lon="8.51850193221205"><ele>239.0</ele><time>2026-05-01T07:57:44.998Z</time></trkpt><trkpt lat="39.526954640180854" lon="8.518617068610371"><ele>239.0</ele><time>2026-05-01T07:57:45.998Z</time></trkpt><trkpt lat="39.52681832558015" lon="8.518751201152314"><ele>244.0</ele><time>2026-05-01T07:57:46.998Z</time></trkpt><trkpt lat="39.52667871110151" lon="8.518849689474226"><ele>249.0</ele><time>2026-05-01T07:57:47.998Z</time></trkpt><trkpt lat="39.52656856270463" lon="8.518932848523011"><ele>254.0</ele><time>2026-05-01T07:57:48.998Z</time></trkpt><trkpt lat="39.52646595277785" lon="8.519037330364352"><ele>259.0</ele><time>2026-05-01T07:57:49.998Z</time></trkpt><trkpt lat="39.52635457825404" lon="8.519136789722143"><ele>259.0</ele><time>2026-05-01T07:57:50.998Z</time></trkpt><trkpt lat="39.52627857187587" lon="8.51925589016775"><ele>259.0</ele><time>2026-05-01T07:57:51.998Z</time></trkpt><trkpt lat="39.5262307606172" lon="8.519389918595078"><ele>259.0</ele><time>2026-05-01T07:57:52.998Z</time></trkpt><trkpt lat="39.526174163231715" lon="8.519474485228361"><ele>259.0</ele><time>2026-05-01T07:57:53.998Z</time></trkpt><trkpt lat="39.52607478192394" lon="8.519556399427096"><ele>259.0</ele><time>2026-05-01T07:57:55.998Z</time></trkpt><trkpt lat="39.52598745582433" lon="8.519482167571727"><ele>260.4</ele><time>2026-05-01T07:57:57.998Z</time></trkpt><trkpt lat="39.52594771204654" lon="8.519363022192582"><ele>261.79999999999995</ele><time>2026-05-01T07:57:59.998Z</time></trkpt><trkpt lat="39.525966097035116" lon="8.519255842119037"><ele>263.20000000000005</ele><time>2026-05-01T07:58:01.998Z</time></trkpt><trkpt lat="39.52600130473068" lon="8.51911735786241"><ele>264.6</ele><time>2026-05-01T07:58:03.998Z</time></trkpt><trkpt lat="39.526020827095785" lon="8.519035974505497"><ele>266.0</ele><time>2026-05-01T07:58:04.998Z</time></trkpt><trkpt lat="39.52605421262597" lon="8.5188900569655"><ele>266.0</ele><time>2026-05-01T07:58:07Z</time></trkpt><trkpt lat="39.52609756997084" lon="8.518756444469844"><ele>266.0</ele><time>2026-05-01T07:58:09Z</time></trkpt><trkpt lat="39.52609739529691" lon="8.518640830222958"><ele>266.0</ele><time>2026-05-01T07:58:11Z</time></trkpt><trkpt lat="39.526127392374875" lon="8.518507645650233"><ele>266.0</ele><time>2026-05-01T07:58:13Z</time></trkpt><trkpt lat="39.52615114645668" lon="8.518349556250604"><ele>266.0</ele><time>2026-05-01T07:58:15Z</time></trkpt><trkpt lat="39.52618464654497" lon="8.518256386373206"><ele>267.0</ele><time>2026-05-01T07:58:16Z</time></trkpt><trkpt lat="39.526192637140014" lon="8.518132755591983"><ele>268.0</ele><time>2026-05-01T07:58:17Z</time></trkpt><trkpt lat="39.52618955334859" lon="8.517991788509054"><ele>269.0</ele><time>2026-05-01T07:58:18Z</time></trkpt><trkpt lat="39.52620366213701" lon="8.517840645726361"><ele>270.0</ele><time>2026-05-01T07:58:19Z</time></trkpt><trkpt lat="39.52618255610121" lon="8.517675561793402"><ele>270.0</ele><time>2026-05-01T07:58:20Z</time></trkpt><trkpt lat="39.5261698928271" lon="8.517526276086393"><ele>270.0</ele><time>2026-05-01T07:58:21Z</time></trkpt><trkpt lat="39.52612215034522" lon="8.517424745468514"><ele>270.0</ele><time>2026-05-01T07:58:22Z</time></trkpt><trkpt lat="39.52604254134189" lon="8.517351777741094"><ele>270.0</ele><time>2026-05-01T07:58:23Z</time></trkpt><trkpt lat="39.52593706442735" lon="8.517321487048688"><ele>270.0</ele><time>2026-05-01T07:58:24Z</time></trkpt><trkpt lat="39.52583538031418" lon="8.517301085166745"><ele>270.0</ele><time>2026-05-01T07:58:25Z</time></trkpt><trkpt lat="39.525714944745204" lon="8.517308914153807"><ele>270.0</ele><time>2026-05-01T07:58:26Z</time></trkpt><trkpt lat="39.52558228652275" lon="8.5173000379041"><ele>270.0</ele><time>2026-05-01T07:58:27Z</time></trkpt><trkpt lat="39.52546146085855" lon="8.517293344486761"><ele>270.0</ele><time>2026-05-01T07:58:28Z</time></trkpt><trkpt lat="39.52536329288657" lon="8.51726803798919"><ele>273.6</ele><time>2026-05-01T07:58:29Z</time></trkpt><trkpt lat="39.52526588150143" lon="8.51722609201441"><ele>277.2</ele><time>2026-05-01T07:58:30Z</time></trkpt><trkpt lat="39.52519482331432" lon="8.517175102176495"><ele>280.8</ele><time>2026-05-01T07:58:31Z</time></trkpt><trkpt lat="39.52513735726498" lon="8.5170826891542"><ele>284.4</ele><time>2026-05-01T07:58:33Z</time></trkpt><trkpt lat="39.525155838462325" lon="8.51699996121439"><ele>288.0</ele><time>2026-05-01T07:58:34Z</time></trkpt><trkpt lat="39.52526834996335" lon="8.516912692642345"><ele>289.0</ele><time>2026-05-01T07:58:36Z</time></trkpt><trkpt lat="39.52535009312298" lon="8.516878413502258"><ele>290.0</ele><time>2026-05-01T07:58:37Z</time></trkpt><trkpt lat="39.52541922949195" lon="8.516806641708792"><ele>291.0</ele><time>2026-05-01T07:58:38Z</time></trkpt><trkpt lat="39.525485840705805" lon="8.516666768470154"><ele>292.0</ele><time>2026-05-01T07:58:38.999Z</time></trkpt><trkpt lat="39.52555068067429" lon="8.516514397324027"><ele>293.0</ele><time>2026-05-01T07:58:39.999Z</time></trkpt><trkpt lat="39.525614415132615" lon="8.516336789887182"><ele>289.75</ele><time>2026-05-01T07:58:40.999Z</time></trkpt><trkpt lat="39.52566443564517" lon="8.516153643821411"><ele>286.5</ele><time>2026-05-01T07:58:41.999Z</time></trkpt><trkpt lat="39.52570375756144" lon="8.516007146746874"><ele>283.25</ele><time>2026-05-01T07:58:42.999Z</time></trkpt><trkpt lat="39.525723170752116" lon="8.515877234266863"><ele>280.0</ele><time>2026-05-01T07:58:43.999Z</time></trkpt><trkpt lat="39.52570786833063" lon="8.51574078193267"><ele>280.0</ele><time>2026-05-01T07:58:44.999Z</time></trkpt><trkpt lat="39.52567314120064" lon="8.515582887517846"><ele>280.0</ele><time>2026-05-01T07:58:45.999Z</time></trkpt><trkpt lat="39.5256297268905" lon="8.515401293795849"><ele>280.0</ele><time>2026-05-01T07:58:46.999Z</time></trkpt><trkpt lat="39.525584285601894" lon="8.515194896118757"><ele>280.0</ele><time>2026-05-01T07:58:47.999Z</time></trkpt><trkpt lat="39.52553999345046" lon="8.514989265082566"><ele>280.0</ele><time>2026-05-01T07:58:48.999Z</time></trkpt><trkpt lat="39.525479766570925" lon="8.51479638664033"><ele>280.0</ele><time>2026-05-01T07:58:49.999Z</time></trkpt><trkpt lat="39.52542821202976" lon="8.51461087812563"><ele>280.0</ele><time>2026-05-01T07:58:50.999Z</time></trkpt><trkpt lat="39.52540328490841" lon="8.514461210462047"><ele>280.0</ele><time>2026-05-01T07:58:51.999Z</time></trkpt><trkpt lat="39.525399324250834" lon="8.514353630109774"><ele>281.0</ele><time>2026-05-01T07:58:52.999Z</time></trkpt><trkpt lat="39.52539499220321" lon="8.51426126931932"><ele>282.0</ele><time>2026-05-01T07:58:53.999Z</time></trkpt><trkpt lat="39.52545848451027" lon="8.514171439691445"><ele>283.0</ele><time>2026-05-01T07:58:54.999Z</time></trkpt><trkpt lat="39.52551764560539" lon="8.514080967575136"><ele>284.0</ele><time>2026-05-01T07:58:55.999Z</time></trkpt><trkpt lat="39.525535402169446" lon="8.513993299579383"><ele>285.0</ele><time>2026-05-01T07:58:56.999Z</time></trkpt><trkpt lat="39.525515778104094" lon="8.513881308711616"><ele>286.0</ele><time>2026-05-01T07:58:57.999Z</time></trkpt><trkpt lat="39.52549731129044" lon="8.513795962313326"><ele>287.71428571428567</ele><time>2026-05-01T07:58:58.999Z</time></trkpt><trkpt lat="39.52548887888429" lon="8.513708127410377"><ele>289.42857142857144</ele><time>2026-05-01T07:58:59.999Z</time></trkpt><trkpt lat="39.525496748940405" lon="8.513620332274657"><ele>291.1428571428571</ele><time>2026-05-01T07:59:00.999Z</time></trkpt><trkpt lat="39.52551966081055" lon="8.513532590095439"><ele>292.85714285714283</ele><time>2026-05-01T07:59:01.999Z</time></trkpt><trkpt lat="39.525545773498216" lon="8.513440895752435"><ele>294.57142857142856</ele><time>2026-05-01T07:59:02.999Z</time></trkpt><trkpt lat="39.52555820484525" lon="8.513341548425181"><ele>296.2857142857143</ele><time>2026-05-01T07:59:03.999Z</time></trkpt><trkpt lat="39.525542443552325" lon="8.513241520247103"><ele>298.0</ele><time>2026-05-01T07:59:04.999Z</time></trkpt><trkpt lat="39.52551175064774" lon="8.513139084457315"><ele>298.0</ele><time>2026-05-01T07:59:05.999Z</time></trkpt><trkpt lat="39.52544208185" lon="8.513054766258286"><ele>298.0</ele><time>2026-05-01T07:59:06.999Z</time></trkpt><trkpt lat="39.52536122883031" lon="8.512987980083825"><ele>298.0</ele><time>2026-05-01T07:59:07.999Z</time></trkpt><trkpt lat="39.525264971577855" lon="8.512963599636368"><ele>298.0</ele><time>2026-05-01T07:59:08.999Z</time></trkpt><trkpt lat="39.5251666263274" lon="8.513013167281633"><ele>298.0</ele><time>2026-05-01T07:59:09.999Z</time></trkpt><trkpt lat="39.52506156684697" lon="8.513047315150548"><ele>298.8</ele><time>2026-05-01T07:59:10.999Z</time></trkpt><trkpt lat="39.52494940496796" lon="8.51309519504131"><ele>299.6</ele><time>2026-05-01T07:59:11.999Z</time></trkpt><trkpt lat="39.52483763339347" lon="8.513101232258279"><ele>300.4</ele><time>2026-05-01T07:59:12.999Z</time></trkpt><trkpt lat="39.524728376967936" lon="8.513092716506796"><ele>301.2</ele><time>2026-05-01T07:59:13.999Z</time></trkpt><trkpt lat="39.52462713827868" lon="8.51307117395759"><ele>302.0</ele><time>2026-05-01T07:59:14.999Z</time></trkpt><trkpt lat="39.52454014920858" lon="8.513043807270206"><ele>299.1666666666667</ele><time>2026-05-01T07:59:15.999Z</time></trkpt><trkpt lat="39.52446426517963" lon="8.513015146376734"><ele>296.33333333333337</ele><time>2026-05-01T07:59:16.999Z</time></trkpt><trkpt lat="39.52439379481637" lon="8.512996681060908"><ele>293.5</ele><time>2026-05-01T07:59:17.999Z</time></trkpt><trkpt lat="39.52430818305881" lon="8.513029884357527"><ele>290.6666666666667</ele><time>2026-05-01T07:59:18.999Z</time></trkpt><trkpt lat="39.52424628500678" lon="8.513120377806313"><ele>287.8333333333333</ele><time>2026-05-01T07:59:19.999Z</time></trkpt><trkpt lat="39.52419894525232" lon="8.513220966201033"><ele>285.0</ele><time>2026-05-01T07:59:20.999Z</time></trkpt><trkpt lat="39.524169318062384" lon="8.513347763505402"><ele>285.0</ele><time>2026-05-01T07:59:21.999Z</time></trkpt><trkpt lat="39.52415153813664" lon="8.513494410942238"><ele>285.0</ele><time>2026-05-01T07:59:22.999Z</time></trkpt><trkpt lat="39.52412200664942" lon="8.5136433867933"><ele>285.0</ele><time>2026-05-01T07:59:23.999Z</time></trkpt><trkpt lat="39.52406577184736" lon="8.513770552372877"><ele>285.0</ele><time>2026-05-01T07:59:24.999Z</time></trkpt><trkpt lat="39.52399688210732" lon="8.513874286884443"><ele>284.3333333333333</ele><time>2026-05-01T07:59:25.999Z</time></trkpt><trkpt lat="39.523939473773524" lon="8.513956860491197"><ele>283.6666666666667</ele><time>2026-05-01T07:59:26.999Z</time></trkpt><trkpt lat="39.52386353833403" lon="8.513968007164019"><ele>283.0</ele><time>2026-05-01T07:59:27.999Z</time></trkpt><trkpt lat="39.52379640084425" lon="8.51394123307154"><ele>282.33333333333337</ele><time>2026-05-01T07:59:28.999Z</time></trkpt><trkpt lat="39.52371198921293" lon="8.513918902174971"><ele>281.6666666666667</ele><time>2026-05-01T07:59:29.999Z</time></trkpt><trkpt lat="39.523607824395995" lon="8.51389900413223"><ele>281.0</ele><time>2026-05-01T07:59:30.999Z</time></trkpt><trkpt lat="39.52351663564984" lon="8.513899387602978"><ele>281.0</ele><time>2026-05-01T07:59:31.999Z</time></trkpt><trkpt lat="39.52345431450763" lon="8.513959293819315"><ele>281.0</ele><time>2026-05-01T07:59:32.999Z</time></trkpt><trkpt lat="39.52340391824358" lon="8.514069849460524"><ele>281.0</ele><time>2026-05-01T07:59:33.999Z</time></trkpt><trkpt lat="39.52337118473038" lon="8.514197939799363"><ele>281.0</ele><time>2026-05-01T07:59:34.999Z</time></trkpt><trkpt lat="39.52330407513518" lon="8.514290490172364"><ele>281.0</ele><time>2026-05-01T07:59:35.999Z</time></trkpt><trkpt lat="39.523212835972245" lon="8.514375950366675"><ele>281.0</ele><time>2026-05-01T07:59:36.999Z</time></trkpt><trkpt lat="39.52308125668253" lon="8.514433490880203"><ele>281.0</ele><time>2026-05-01T07:59:37.999Z</time></trkpt><trkpt lat="39.522953824309894" lon="8.514497016729475"><ele>281.0</ele><time>2026-05-01T07:59:38.999Z</time></trkpt><trkpt lat="39.52284017631109" lon="8.514549589736793"><ele>281.0</ele><time>2026-05-01T07:59:39.999Z</time></trkpt><trkpt lat="39.52272407190052" lon="8.514609104523133"><ele>282.2</ele><time>2026-05-01T07:59:40.999Z</time></trkpt><trkpt lat="39.52262820824649" lon="8.514707787740631"><ele>283.40000000000003</ele><time>2026-05-01T07:59:41.999Z</time></trkpt><trkpt lat="39.522549410725425" lon="8.51481177040046"><ele>284.6</ele><time>2026-05-01T07:59:42.999Z</time></trkpt><trkpt lat="39.52246507341341" lon="8.514855748996126"><ele>285.8</ele><time>2026-05-01T07:59:43.999Z</time></trkpt><trkpt lat="39.52238574644163" lon="8.51485295088445"><ele>287.0</ele><time>2026-05-01T07:59:44.999Z</time></trkpt><trkpt lat="39.52230748459216" lon="8.514832222448252"><ele>287.0</ele><time>2026-05-01T07:59:45.999Z</time></trkpt><trkpt lat="39.52222388613822" lon="8.514795290900087"><ele>287.0</ele><time>2026-05-01T07:59:46.998Z</time></trkpt><trkpt lat="39.52216098497" lon="8.514698269369179"><ele>287.0</ele><time>2026-05-01T07:59:47.998Z</time></trkpt><trkpt lat="39.522131368224315" lon="8.514592122343181"><ele>287.0</ele><time>2026-05-01T07:59:48.998Z</time></trkpt><trkpt lat="39.522138061284544" lon="8.514479977290575"><ele>287.0</ele><time>2026-05-01T07:59:49.998Z</time></trkpt><trkpt lat="39.522193341668974" lon="8.514349871061045"><ele>283.25</ele><time>2026-05-01T07:59:50.998Z</time></trkpt><trkpt lat="39.522225649493976" lon="8.51418506279416"><ele>279.5</ele><time>2026-05-01T07:59:51.998Z</time></trkpt><trkpt lat="39.52230120398402" lon="8.514037172580352"><ele>275.75</ele><time>2026-05-01T07:59:52.998Z</time></trkpt><trkpt lat="39.52235122563133" lon="8.513891018026435"><ele>272.0</ele><time>2026-05-01T07:59:53.998Z</time></trkpt><trkpt lat="39.522412746213924" lon="8.513770192653194"><ele>271.2</ele><time>2026-05-01T07:59:54.998Z</time></trkpt><trkpt lat="39.52244304478302" lon="8.513639463507515"><ele>270.4</ele><time>2026-05-01T07:59:55.998Z</time></trkpt><trkpt lat="39.52243074155827" lon="8.51351478035604"><ele>269.6</ele><time>2026-05-01T07:59:56.998Z</time></trkpt><trkpt lat="39.52242286380533" lon="8.513397460600675"><ele>268.8</ele><time>2026-05-01T07:59:57.998Z</time></trkpt><trkpt lat="39.52241273122641" lon="8.513289054243577"><ele>268.0</ele><time>2026-05-01T07:59:58.998Z</time></trkpt><trkpt lat="39.52240509836297" lon="8.513193571101727"><ele>268.0</ele><time>2026-05-01T07:59:59.998Z</time></trkpt><trkpt lat="39.52241510135882" lon="8.513061424079652"><ele>268.0</ele><time>2026-05-01T08:00:00.998Z</time></trkpt><trkpt lat="39.52243764062042" lon="8.512916545181714"><ele>268.0</ele><time>2026-05-01T08:00:01.998Z</time></trkpt><trkpt lat="39.52244955965359" lon="8.512748750160252"><ele>268.0</ele><time>2026-05-01T08:00:02.998Z</time></trkpt><trkpt lat="39.522481852537545" lon="8.51259501115758"><ele>266.8</ele><time>2026-05-01T08:00:03.998Z</time></trkpt><trkpt lat="39.52249641449968" lon="8.512449670071852"><ele>265.6</ele><time>2026-05-01T08:00:04.998Z</time></trkpt><trkpt lat="39.52248673804035" lon="8.512311173203534"><ele>264.4</ele><time>2026-05-01T08:00:05.998Z</time></trkpt><trkpt lat="39.522450925765625" lon="8.512186359669993"><ele>263.2</ele><time>2026-05-01T08:00:06.998Z</time></trkpt><trkpt lat="39.52240296329923" lon="8.512072840626264"><ele>262.0</ele><time>2026-05-01T08:00:07.998Z</time></trkpt><trkpt lat="39.52232170713982" lon="8.511987557128627"><ele>263.4</ele><time>2026-05-01T08:00:08.998Z</time></trkpt><trkpt lat="39.522200083121646" lon="8.511985433517658"><ele>264.79999999999995</ele><time>2026-05-01T08:00:09.998Z</time></trkpt><trkpt lat="39.52208882882792" lon="8.511990172876445"><ele>266.2</ele><time>2026-05-01T08:00:10.998Z</time></trkpt><trkpt lat="39.52197764543957" lon="8.511963032708026"><ele>267.59999999999997</ele><time>2026-05-01T08:00:11.998Z</time></trkpt><trkpt lat="39.52188678244208" lon="8.511950373858674"><ele>269.0</ele><time>2026-05-01T08:00:13Z</time></trkpt><trkpt lat="39.52181274866039" lon="8.511912190901349"><ele>269.0</ele><time>2026-05-01T08:00:14Z</time></trkpt><trkpt lat="39.521753874923874" lon="8.511838183156572"><ele>269.0</ele><time>2026-05-01T08:00:15Z</time></trkpt><trkpt lat="39.52172739885476" lon="8.511741684852163"><ele>269.0</ele><time>2026-05-01T08:00:16Z</time></trkpt><trkpt lat="39.52172725339027" lon="8.511636036893705"><ele>269.0</ele><time>2026-05-01T08:00:17Z</time></trkpt><trkpt lat="39.521748756086936" lon="8.511526852714038"><ele>269.0</ele><time>2026-05-01T08:00:18Z</time></trkpt><trkpt lat="39.521763847400706" lon="8.511420937359913"><ele>269.0</ele><time>2026-05-01T08:00:19Z</time></trkpt><trkpt lat="39.52177640777708" lon="8.511331725488121"><ele>266.33333333333337</ele><time>2026-05-01T08:00:20Z</time></trkpt><trkpt lat="39.521755321612986" lon="8.511240187894487"><ele>263.6666666666667</ele><time>2026-05-01T08:00:21Z</time></trkpt><trkpt lat="39.521694707504196" lon="8.511163662896198"><ele>261.0</ele><time>2026-05-01T08:00:22Z</time></trkpt><trkpt lat="39.521625685158064" lon="8.511118932818432"><ele>258.3333333333333</ele><time>2026-05-01T08:00:23Z</time></trkpt><trkpt lat="39.52157824131698" lon="8.511052318374484"><ele>255.66666666666666</ele><time>2026-05-01T08:00:24Z</time></trkpt><trkpt lat="39.521529736143236" lon="8.51096009669037"><ele>253.0</ele><time>2026-05-01T08:00:26Z</time></trkpt><trkpt lat="39.52151972794708" lon="8.510871814006785"><ele>253.0</ele><time>2026-05-01T08:00:27Z</time></trkpt><trkpt lat="39.521591987151766" lon="8.510788247654434"><ele>253.0</ele><time>2026-05-01T08:00:28Z</time></trkpt><trkpt lat="39.52159731733952" lon="8.510671212712564"><ele>253.0</ele><time>2026-05-01T08:00:29Z</time></trkpt><trkpt lat="39.52159183599145" lon="8.510542442629792"><ele>253.0</ele><time>2026-05-01T08:00:30Z</time></trkpt><trkpt lat="39.52155865519143" lon="8.510406609148387"><ele>253.0</ele><time>2026-05-01T08:00:31Z</time></trkpt><trkpt lat="39.521503922942514" lon="8.510264036677773"><ele>249.0</ele><time>2026-05-01T08:00:32Z</time></trkpt><trkpt lat="39.521443578246945" lon="8.510125387030312"><ele>245.0</ele><time>2026-05-01T08:00:33Z</time></trkpt><trkpt lat="39.52138915178979" lon="8.509991210254189"><ele>241.0</ele><time>2026-05-01T08:00:34Z</time></trkpt><trkpt lat="39.52130991561863" lon="8.509884508690018"><ele>237.0</ele><time>2026-05-01T08:00:35Z</time></trkpt><trkpt lat="39.52120478315534" lon="8.509822927541157"><ele>237.0</ele><time>2026-05-01T08:00:36Z</time></trkpt><trkpt lat="39.52107077010992" lon="8.509858128635427"><ele>237.0</ele><time>2026-05-01T08:00:37Z</time></trkpt><trkpt lat="39.52095508504324" lon="8.50997968935151"><ele>237.0</ele><time>2026-05-01T08:00:38Z</time></trkpt><trkpt lat="39.52086290223564" lon="8.51010189598438"><ele>237.0</ele><time>2026-05-01T08:00:39Z</time></trkpt><trkpt lat="39.52080484836969" lon="8.510241803733818"><ele>237.0</ele><time>2026-05-01T08:00:40Z</time></trkpt><trkpt lat="39.52074229922487" lon="8.510356519286052"><ele>237.0</ele><time>2026-05-01T08:00:41Z</time></trkpt><trkpt lat="39.520680471616224" lon="8.510436401848448"><ele>237.0</ele><time>2026-05-01T08:00:42Z</time></trkpt><trkpt lat="39.52059406175074" lon="8.510464484387064"><ele>237.0</ele><time>2026-05-01T08:00:43Z</time></trkpt><trkpt lat="39.52050581798018" lon="8.510439485433746"><ele>237.0</ele><time>2026-05-01T08:00:44Z</time></trkpt><trkpt lat="39.52043187716982" lon="8.51034808518609"><ele>236.2</ele><time>2026-05-01T08:00:45Z</time></trkpt><trkpt lat="39.52034348398121" lon="8.510306417504562"><ele>235.39999999999998</ele><time>2026-05-01T08:00:45.999Z</time></trkpt><trkpt lat="39.52024955869659" lon="8.510305162864142"><ele>234.60000000000002</ele><time>2026-05-01T08:00:46.999Z</time></trkpt><trkpt lat="39.52016888054398" lon="8.510349403956482"><ele>233.8</ele><time>2026-05-01T08:00:47.999Z</time></trkpt><trkpt lat="39.52010311167462" lon="8.51043666389467"><ele>233.0</ele><time>2026-05-01T08:00:48.999Z</time></trkpt><trkpt lat="39.520078734782345" lon="8.510567686360437"><ele>233.0</ele><time>2026-05-01T08:00:49.999Z</time></trkpt><trkpt lat="39.520019365875896" lon="8.510655219795828"><ele>233.0</ele><time>2026-05-01T08:00:51.999Z</time></trkpt><trkpt lat="39.519963742209725" lon="8.510601916528069"><ele>233.0</ele><time>2026-05-01T08:00:52.999Z</time></trkpt><trkpt lat="39.519896021152036" lon="8.51048420722475"><ele>233.0</ele><time>2026-05-01T08:00:54.999Z</time></trkpt><trkpt lat="39.51996718688228" lon="8.510329604980454"><ele>233.0</ele><time>2026-05-01T08:00:56.999Z</time></trkpt><trkpt lat="39.520000844727" lon="8.510251472331138"><ele>233.00000000000003</ele><time>2026-05-01T08:00:57.999Z</time></trkpt><trkpt lat="39.51999421093464" lon="8.510170056827842"><ele>233.0</ele><time>2026-05-01T08:00:58.999Z</time></trkpt><trkpt lat="39.51996467041277" lon="8.510087523675201"><ele>233.0</ele><time>2026-05-01T08:00:59.999Z</time></trkpt><trkpt lat="39.519877081113506" lon="8.510053458313356"><ele>233.0</ele><time>2026-05-01T08:01:00.999Z</time></trkpt><trkpt lat="39.51984318170473" lon="8.509942122143283"><ele>233.00000000000003</ele><time>2026-05-01T08:01:02.999Z</time></trkpt><trkpt lat="39.51990490788436" lon="8.509906809361219"><ele>233.0</ele><time>2026-05-01T08:01:03.999Z</time></trkpt><trkpt lat="39.51998612145761" lon="8.509920977924311"><ele>233.0</ele><time>2026-05-01T08:01:04.999Z</time></trkpt><trkpt lat="39.52005830008229" lon="8.509961263564138"><ele>233.0</ele><time>2026-05-01T08:01:05.999Z</time></trkpt><trkpt lat="39.52015055718177" lon="8.50998822208761"><ele>233.0</ele><time>2026-05-01T08:01:06.999Z</time></trkpt><trkpt lat="39.52025397177197" lon="8.510006424190733"><ele>233.0</ele><time>2026-05-01T08:01:07.999Z</time></trkpt><trkpt lat="39.52035808109203" lon="8.51002704491285"><ele>233.0</ele><time>2026-05-01T08:01:08.999Z</time></trkpt><trkpt lat="39.520456466877896" lon="8.510032237912815"><ele>234.0</ele><time>2026-05-01T08:01:09.999Z</time></trkpt><trkpt lat="39.520547546037434" lon="8.509982664410769"><ele>235.0</ele><time>2026-05-01T08:01:10.999Z</time></trkpt><trkpt lat="39.5206207309604" lon="8.50987154568739"><ele>236.0</ele><time>2026-05-01T08:01:11.999Z</time></trkpt><trkpt lat="39.5206901831346" lon="8.509732583607526"><ele>237.0</ele><time>2026-05-01T08:01:12.999Z</time></trkpt><trkpt lat="39.520779387967295" lon="8.5096072032109"><ele>231.75</ele><time>2026-05-01T08:01:13.999Z</time></trkpt><trkpt lat="39.52085535742521" lon="8.50948592713941"><ele>226.5</ele><time>2026-05-01T08:01:14.999Z</time></trkpt><trkpt lat="39.52092315468798" lon="8.509366366546027"><ele>221.25</ele><time>2026-05-01T08:01:15.999Z</time></trkpt><trkpt lat="39.52098321731421" lon="8.509242042164724"><ele>216.0</ele><time>2026-05-01T08:01:16.999Z</time></trkpt><trkpt lat="39.521046792363244" lon="8.509116368862662"><ele>216.0</ele><time>2026-05-01T08:01:17.999Z</time></trkpt><trkpt lat="39.521123249584925" lon="8.509015178498373"><ele>216.00000000000003</ele><time>2026-05-01T08:01:18.999Z</time></trkpt><trkpt lat="39.521215980316164" lon="8.508940399672063"><ele>216.00000000000003</ele><time>2026-05-01T08:01:19.999Z</time></trkpt><trkpt lat="39.52131503372332" lon="8.50888290341949"><ele>216.0</ele><time>2026-05-01T08:01:20.999Z</time></trkpt><trkpt lat="39.52141211694576" lon="8.50884644794256"><ele>216.0</ele><time>2026-05-01T08:01:21.999Z</time></trkpt><trkpt lat="39.521495373310415" lon="8.508852720216595"><ele>214.66666666666666</ele><time>2026-05-01T08:01:22.999Z</time></trkpt><trkpt lat="39.52155806154853" lon="8.508909546838858"><ele>213.33333333333331</ele><time>2026-05-01T08:01:23.999Z</time></trkpt><trkpt lat="39.52160587948198" lon="8.508996368776355"><ele>212.0</ele><time>2026-05-01T08:01:24.999Z</time></trkpt><trkpt lat="39.521645016267094" lon="8.50909891394836"><ele>210.66666666666666</ele><time>2026-05-01T08:01:25.999Z</time></trkpt><trkpt lat="39.52168565344024" lon="8.509201162548887"><ele>209.33333333333331</ele><time>2026-05-01T08:01:26.999Z</time></trkpt><trkpt lat="39.521747128781605" lon="8.50930472500519"><ele>208.0</ele><time>2026-05-01T08:01:27.999Z</time></trkpt><trkpt lat="39.52181138908602" lon="8.50940252409032"><ele>208.0</ele><time>2026-05-01T08:01:28.999Z</time></trkpt><trkpt lat="39.52187980305217" lon="8.509504092873758"><ele>208.0</ele><time>2026-05-01T08:01:29.999Z</time></trkpt><trkpt lat="39.521954216992626" lon="8.5096164002171"><ele>208.0</ele><time>2026-05-01T08:01:30.999Z</time></trkpt><trkpt lat="39.5220425552729" lon="8.509724434795508"><ele>208.0</ele><time>2026-05-01T08:01:31.999Z</time></trkpt><trkpt lat="39.52212932898552" lon="8.509824179691226"><ele>207.60000000000002</ele><time>2026-05-01T08:01:32.999Z</time></trkpt><trkpt lat="39.52220804016001" lon="8.509919893215892"><ele>207.20000000000002</ele><time>2026-05-01T08:01:33.999Z</time></trkpt><trkpt lat="39.522288955958814" lon="8.51000476139241"><ele>206.8</ele><time>2026-05-01T08:01:34.999Z</time></trkpt><trkpt lat="39.52237630518564" lon="8.51006598149271"><ele>206.4</ele><time>2026-05-01T08:01:35.999Z</time></trkpt><trkpt lat="39.52248264390797" lon="8.510092772420823"><ele>206.0</ele><time>2026-05-01T08:01:36.999Z</time></trkpt><trkpt lat="39.52259140541466" lon="8.510094326659873"><ele>206.0</ele><time>2026-05-01T08:01:37.999Z</time></trkpt><trkpt lat="39.522690758452256" lon="8.510105040519319"><ele>206.0</ele><time>2026-05-01T08:01:38.999Z</time></trkpt><trkpt lat="39.522779083712116" lon="8.510154520287701"><ele>206.0</ele><time>2026-05-01T08:01:39.999Z</time></trkpt><trkpt lat="39.522860312069724" lon="8.510217545745888"><ele>206.0</ele><time>2026-05-01T08:01:40.999Z</time></trkpt><trkpt lat="39.52294684660883" lon="8.510252112514003"><ele>206.0</ele><time>2026-05-01T08:01:41.999Z</time></trkpt><trkpt lat="39.52303743975828" lon="8.510242894155667"><ele>206.16666666666669</ele><time>2026-05-01T08:01:42.999Z</time></trkpt><trkpt lat="39.52313146143904" lon="8.510215720642561"><ele>206.33333333333334</ele><time>2026-05-01T08:01:43.999Z</time></trkpt><trkpt lat="39.52321136733097" lon="8.510188234534425"><ele>206.5</ele><time>2026-05-01T08:01:44.999Z</time></trkpt><trkpt lat="39.523270282664626" lon="8.510131963264257"><ele>206.66666666666669</ele><time>2026-05-01T08:01:45.999Z</time></trkpt><trkpt lat="39.52328373015393" lon="8.510029377147614"><ele>206.83333333333334</ele><time>2026-05-01T08:01:46.999Z</time></trkpt><trkpt lat="39.52327996231816" lon="8.50992114316991"><ele>207.0</ele><time>2026-05-01T08:01:47.999Z</time></trkpt><trkpt lat="39.523206401608256" lon="8.509816310979184"><ele>207.0</ele><time>2026-05-01T08:01:48.999Z</time></trkpt><trkpt lat="39.52310957264204" lon="8.50973572705416"><ele>207.0</ele><time>2026-05-01T08:01:49.999Z</time></trkpt><trkpt lat="39.5229889468157" lon="8.509697363869224"><ele>207.0</ele><time>2026-05-01T08:01:50.999Z</time></trkpt><trkpt lat="39.522876898972406" lon="8.509657217150064"><ele>207.0</ele><time>2026-05-01T08:01:51.999Z</time></trkpt><trkpt lat="39.52277885091642" lon="8.509610289104762"><ele>206.0</ele><time>2026-05-01T08:01:52.999Z</time></trkpt><trkpt lat="39.52268037266749" lon="8.509555416430889"><ele>205.0</ele><time>2026-05-01T08:01:53.999Z</time></trkpt><trkpt lat="39.52257946393367" lon="8.509496216988891"><ele>204.0</ele><time>2026-05-01T08:01:54.998Z</time></trkpt><trkpt lat="39.52249241785702" lon="8.509432005756656"><ele>203.0</ele><time>2026-05-01T08:01:55.998Z</time></trkpt><trkpt lat="39.52242529203001" lon="8.50935036307114"><ele>202.0</ele><time>2026-05-01T08:01:56.998Z</time></trkpt><trkpt lat="39.52237900540364" lon="8.509245593937923"><ele>202.0</ele><time>2026-05-01T08:01:57.998Z</time></trkpt><trkpt lat="39.52232987264566" lon="8.509117484317745"><ele>202.0</ele><time>2026-05-01T08:01:58.998Z</time></trkpt><trkpt lat="39.52227583044138" lon="8.508973225571362"><ele>202.0</ele><time>2026-05-01T08:01:59.998Z</time></trkpt><trkpt lat="39.522222684400965" lon="8.50881580375062"><ele>202.0</ele><time>2026-05-01T08:02:00.998Z</time></trkpt><trkpt lat="39.52217480755406" lon="8.508655238549185"><ele>204.0</ele><time>2026-05-01T08:02:01.998Z</time></trkpt><trkpt lat="39.52213060987388" lon="8.508502277943013"><ele>206.0</ele><time>2026-05-01T08:02:02.998Z</time></trkpt><trkpt lat="39.5220708129672" lon="8.508347834092215"><ele>208.0</ele><time>2026-05-01T08:02:03.998Z</time></trkpt><trkpt lat="39.52200046245425" lon="8.508196576082236"><ele>210.0</ele><time>2026-05-01T08:02:04.998Z</time></trkpt><trkpt lat="39.521916001223495" lon="8.50804054127562"><ele>203.25</ele><time>2026-05-01T08:02:05.998Z</time></trkpt><trkpt lat="39.52183245623375" lon="8.507883748546604"><ele>196.5</ele><time>2026-05-01T08:02:06.998Z</time></trkpt><trkpt lat="39.52177097864142" lon="8.507739742906454"><ele>189.75</ele><time>2026-05-01T08:02:07.998Z</time></trkpt><trkpt lat="39.521730683702636" lon="8.50757501942062"><ele>183.0</ele><time>2026-05-01T08:02:08.998Z</time></trkpt><trkpt lat="39.52168226142174" lon="8.507386316050335"><ele>183.0</ele><time>2026-05-01T08:02:09.998Z</time></trkpt><trkpt lat="39.52162379635828" lon="8.507207174761394"><ele>183.0</ele><time>2026-05-01T08:02:10.998Z</time></trkpt><trkpt lat="39.52157637685066" lon="8.507033985204522"><ele>183.0</ele><time>2026-05-01T08:02:11.998Z</time></trkpt><trkpt lat="39.52155511337229" lon="8.506866896835907"><ele>183.0</ele><time>2026-05-01T08:02:12.998Z</time></trkpt><trkpt lat="39.52154260100258" lon="8.50668871738411"><ele>182.0</ele><time>2026-05-01T08:02:13.998Z</time></trkpt><trkpt lat="39.52153457872277" lon="8.506513196311706"><ele>181.0</ele><time>2026-05-01T08:02:14.998Z</time></trkpt><trkpt lat="39.521531180871754" lon="8.50634439544879"><ele>180.0</ele><time>2026-05-01T08:02:15.998Z</time></trkpt><trkpt lat="39.52149551031032" lon="8.506180939824226"><ele>179.0</ele><time>2026-05-01T08:02:16.998Z</time></trkpt><trkpt lat="39.521406169654" lon="8.506062076998537"><ele>179.0</ele><time>2026-05-01T08:02:18Z</time></trkpt><trkpt lat="39.52136623447569" lon="8.505937841967217"><ele>179.0</ele><time>2026-05-01T08:02:19Z</time></trkpt><trkpt lat="39.52135152050795" lon="8.505835470943477"><ele>179.0</ele><time>2026-05-01T08:02:20Z</time></trkpt><trkpt lat="39.521378810675586" lon="8.505722640268296"><ele>179.0</ele><time>2026-05-01T08:02:21Z</time></trkpt><trkpt lat="39.52139002697468" lon="8.50557458125175"><ele>179.0</ele><time>2026-05-01T08:02:22Z</time></trkpt><trkpt lat="39.521383107871394" lon="8.505420674315006"><ele>180.0</ele><time>2026-05-01T08:02:23Z</time></trkpt><trkpt lat="39.521350250463165" lon="8.505267544419572"><ele>181.0</ele><time>2026-05-01T08:02:24Z</time></trkpt><trkpt lat="39.52129757979547" lon="8.505122074914198"><ele>182.0</ele><time>2026-05-01T08:02:25Z</time></trkpt><trkpt lat="39.52120655162558" lon="8.504993902190153"><ele>183.0</ele><time>2026-05-01T08:02:26Z</time></trkpt><trkpt lat="39.52114515051909" lon="8.504841651534907"><ele>180.25</ele><time>2026-05-01T08:02:27Z</time></trkpt><trkpt lat="39.52107043923627" lon="8.504688587209868"><ele>177.5</ele><time>2026-05-01T08:02:28Z</time></trkpt><trkpt lat="39.52098762368491" lon="8.50454383578242"><ele>174.75</ele><time>2026-05-01T08:02:29Z</time></trkpt><trkpt lat="39.52093709581875" lon="8.50438339927482"><ele>172.0</ele><time>2026-05-01T08:02:30Z</time></trkpt><trkpt lat="39.520864085662055" lon="8.504248292682137"><ele>170.75</ele><time>2026-05-01T08:02:31Z</time></trkpt><trkpt lat="39.520786325739046" lon="8.5041203962379"><ele>169.5</ele><time>2026-05-01T08:02:32Z</time></trkpt><trkpt lat="39.5207076963527" lon="8.504003157577014"><ele>168.25</ele><time>2026-05-01T08:02:33Z</time></trkpt><trkpt lat="39.52062335973836" lon="8.503922917295474"><ele>167.0</ele><time>2026-05-01T08:02:34Z</time></trkpt><trkpt lat="39.52051002464806" lon="8.50394712542277"><ele>167.0</ele><time>2026-05-01T08:02:35Z</time></trkpt><trkpt lat="39.520416967751906" lon="8.503996684453755"><ele>167.0</ele><time>2026-05-01T08:02:36Z</time></trkpt><trkpt lat="39.520334829839335" lon="8.504086480425183"><ele>167.0</ele><time>2026-05-01T08:02:37Z</time></trkpt><trkpt lat="39.520253745969015" lon="8.504133255265817"><ele>167.0</ele><time>2026-05-01T08:02:38Z</time></trkpt><trkpt lat="39.520147672959816" lon="8.504145769663506"><ele>167.0</ele><time>2026-05-01T08:02:40Z</time></trkpt><trkpt lat="39.52011083921088" lon="8.504074431414809"><ele>166.8</ele><time>2026-05-01T08:02:41Z</time></trkpt><trkpt lat="39.52007462976656" lon="8.503931370504787"><ele>166.6</ele><time>2026-05-01T08:02:43Z</time></trkpt><trkpt lat="39.520055072798236" lon="8.5038148537822"><ele>166.4</ele><time>2026-05-01T08:02:44Z</time></trkpt><trkpt lat="39.520030618879346" lon="8.503670778302427"><ele>166.20000000000002</ele><time>2026-05-01T08:02:45Z</time></trkpt><trkpt lat="39.520004780093075" lon="8.5035225362457"><ele>166.0</ele><time>2026-05-01T08:02:46Z</time></trkpt><trkpt lat="39.51995578448321" lon="8.5033746824083"><ele>164.75</ele><time>2026-05-01T08:02:47Z</time></trkpt><trkpt lat="39.519922598714636" lon="8.503216580484061"><ele>163.5</ele><time>2026-05-01T08:02:48Z</time></trkpt><trkpt lat="39.519908078113716" lon="8.503063568207418"><ele>162.25</ele><time>2026-05-01T08:02:49Z</time></trkpt><trkpt lat="39.519882299516" lon="8.502918272703806"><ele>161.0</ele><time>2026-05-01T08:02:49.999Z</time></trkpt><trkpt lat="39.519853598141864" lon="8.502779737409204"><ele>160.60000000000002</ele><time>2026-05-01T08:02:50.999Z</time></trkpt><trkpt lat="39.51980717747526" lon="8.502654456035332"><ele>160.20000000000002</ele><time>2026-05-01T08:02:51.999Z</time></trkpt><trkpt lat="39.5197714324066" lon="8.502523462635297"><ele>159.8</ele><time>2026-05-01T08:02:52.999Z</time></trkpt><trkpt lat="39.51967623506468" lon="8.502448291423969"><ele>159.4</ele><time>2026-05-01T08:02:53.999Z</time></trkpt><trkpt lat="39.51959966460733" lon="8.502358308100659"><ele>159.0</ele><time>2026-05-01T08:02:54.999Z</time></trkpt><trkpt lat="39.5195376522921" lon="8.502288618298358"><ele>159.16666666666666</ele><time>2026-05-01T08:02:55.999Z</time></trkpt><trkpt lat="39.51948519424627" lon="8.502213975984"><ele>159.33333333333334</ele><time>2026-05-01T08:02:56.999Z</time></trkpt><trkpt lat="39.51947878731229" lon="8.50207704264555"><ele>159.5</ele><time>2026-05-01T08:02:58.999Z</time></trkpt><trkpt lat="39.51954502987923" lon="8.502018744378796"><ele>159.66666666666669</ele><time>2026-05-01T08:02:59.999Z</time></trkpt><trkpt lat="39.519622819196364" lon="8.501959415981005"><ele>159.83333333333334</ele><time>2026-05-01T08:03:00.999Z</time></trkpt><trkpt lat="39.51966563624551" lon="8.501850105938127"><ele>160.0</ele><time>2026-05-01T08:03:01.999Z</time></trkpt><trkpt lat="39.51966106527868" lon="8.501717012379622"><ele>160.0</ele><time>2026-05-01T08:03:02.999Z</time></trkpt><trkpt lat="39.51962316344698" lon="8.501572005735712"><ele>160.0</ele><time>2026-05-01T08:03:03.999Z</time></trkpt><trkpt lat="39.519555400228136" lon="8.501450715150828"><ele>160.0</ele><time>2026-05-01T08:03:04.999Z</time></trkpt><trkpt lat="39.51948190967044" lon="8.501335649769103"><ele>160.0</ele><time>2026-05-01T08:03:05.999Z</time></trkpt><trkpt lat="39.519403488225294" lon="8.50123128555659"><ele>156.8</ele><time>2026-05-01T08:03:06.999Z</time></trkpt><trkpt lat="39.51934435331344" lon="8.501126512245483"><ele>153.6</ele><time>2026-05-01T08:03:07.999Z</time></trkpt><trkpt lat="39.51931979341513" lon="8.500999538260748"><ele>150.4</ele><time>2026-05-01T08:03:08.999Z</time></trkpt><trkpt lat="39.51931325837991" lon="8.500865931105528"><ele>147.2</ele><time>2026-05-01T08:03:09.999Z</time></trkpt><trkpt lat="39.5192610632394" lon="8.500758007308859"><ele>144.0</ele><time>2026-05-01T08:03:10.999Z</time></trkpt><trkpt lat="39.519190816258" lon="8.500653725177445"><ele>144.0</ele><time>2026-05-01T08:03:11.999Z</time></trkpt><trkpt lat="39.51910513455391" lon="8.500542161595984"><ele>144.0</ele><time>2026-05-01T08:03:12.999Z</time></trkpt><trkpt lat="39.51898475769657" lon="8.500483032196229"><ele>144.0</ele><time>2026-05-01T08:03:13.999Z</time></trkpt><trkpt lat="39.518868109260346" lon="8.500458433052023"><ele>144.0</ele><time>2026-05-01T08:03:14.999Z</time></trkpt><trkpt lat="39.518748922323695" lon="8.500481270828132"><ele>144.25</ele><time>2026-05-01T08:03:15.999Z</time></trkpt><trkpt lat="39.5186183116045" lon="8.500499323289953"><ele>144.5</ele><time>2026-05-01T08:03:16.999Z</time></trkpt><trkpt lat="39.518489072693" lon="8.500512759372082"><ele>144.75</ele><time>2026-05-01T08:03:17.999Z</time></trkpt><trkpt lat="39.51837138079175" lon="8.500504613371454"><ele>145.0</ele><time>2026-05-01T08:03:18.999Z</time></trkpt><trkpt lat="39.518263419197474" lon="8.500473755780677"><ele>145.0</ele><time>2026-05-01T08:03:19.999Z</time></trkpt><trkpt lat="39.51816020798562" lon="8.50042332193569"><ele>145.0</ele><time>2026-05-01T08:03:20.999Z</time></trkpt><trkpt lat="39.518087116066894" lon="8.500313285350984"><ele>145.0</ele><time>2026-05-01T08:03:21.999Z</time></trkpt><trkpt lat="39.51802761284132" lon="8.500177399796222"><ele>145.0</ele><time>2026-05-01T08:03:22.999Z</time></trkpt><trkpt lat="39.51795208368865" lon="8.500021057417834"><ele>144.5</ele><time>2026-05-01T08:03:23.999Z</time></trkpt><trkpt lat="39.51785595399555" lon="8.499887469835778"><ele>144.0</ele><time>2026-05-01T08:03:24.999Z</time></trkpt><trkpt lat="39.51775959346407" lon="8.499760321798245"><ele>143.5</ele><time>2026-05-01T08:03:25.999Z</time></trkpt><trkpt lat="39.51767132573057" lon="8.499611307017917"><ele>143.0</ele><time>2026-05-01T08:03:26.999Z</time></trkpt><trkpt lat="39.5175805525884" lon="8.499483955393911"><ele>140.25</ele><time>2026-05-01T08:03:27.999Z</time></trkpt><trkpt lat="39.517484909524654" lon="8.499378114113027"><ele>137.5</ele><time>2026-05-01T08:03:28.999Z</time></trkpt><trkpt lat="39.517383642101414" lon="8.499287165877444"><ele>134.75</ele><time>2026-05-01T08:03:29.999Z</time></trkpt><trkpt lat="39.51725645315996" lon="8.499243512256117"><ele>132.0</ele><time>2026-05-01T08:03:30.999Z</time></trkpt><trkpt lat="39.51712370029182" lon="8.499205451117868"><ele>131.4</ele><time>2026-05-01T08:03:31.999Z</time></trkpt><trkpt lat="39.51699893861369" lon="8.499178650585007"><ele>130.79999999999998</ele><time>2026-05-01T08:03:32.999Z</time></trkpt><trkpt lat="39.51688873655879" lon="8.499149868467677"><ele>130.2</ele><time>2026-05-01T08:03:33.999Z</time></trkpt><trkpt lat="39.51680137935462" lon="8.499101646983027"><ele>129.6</ele><time>2026-05-01T08:03:34.999Z</time></trkpt><trkpt lat="39.516748868750206" lon="8.499006504682097"><ele>129.0</ele><time>2026-05-01T08:03:35.999Z</time></trkpt><trkpt lat="39.516724831435084" lon="8.498886634424673"><ele>129.0</ele><time>2026-05-01T08:03:36.999Z</time></trkpt><trkpt lat="39.5166945220699" lon="8.498761970743145"><ele>129.0</ele><time>2026-05-01T08:03:37.999Z</time></trkpt><trkpt lat="39.51664827402983" lon="8.498634629876879"><ele>129.0</ele><time>2026-05-01T08:03:38.999Z</time></trkpt><trkpt lat="39.51655796175463" lon="8.498529272736869"><ele>129.0</ele><time>2026-05-01T08:03:39.999Z</time></trkpt><trkpt lat="39.51644850558215" lon="8.498467583744322"><ele>128.5</ele><time>2026-05-01T08:03:40.999Z</time></trkpt><trkpt lat="39.51633345539362" lon="8.498421301837917"><ele>128.0</ele><time>2026-05-01T08:03:41.999Z</time></trkpt><trkpt lat="39.51623942902909" lon="8.498332533642971"><ele>127.5</ele><time>2026-05-01T08:03:42.999Z</time></trkpt><trkpt lat="39.51614031573779" lon="8.498232136748742"><ele>127.0</ele><time>2026-05-01T08:03:43.999Z</time></trkpt><trkpt lat="39.51603611419596" lon="8.498124249110045"><ele>126.0</ele><time>2026-05-01T08:03:44.999Z</time></trkpt><trkpt lat="39.515941054308165" lon="8.498017130089897"><ele>125.0</ele><time>2026-05-01T08:03:45.999Z</time></trkpt><trkpt lat="39.51585216696868" lon="8.497909708583624"><ele>124.0</ele><time>2026-05-01T08:03:46.999Z</time></trkpt><trkpt lat="39.5157818969676" lon="8.49780831163514"><ele>123.0</ele><time>2026-05-01T08:03:47.999Z</time></trkpt><trkpt lat="39.51581583864567" lon="8.497670649732942"><ele>122.25</ele><time>2026-05-01T08:03:48.999Z</time></trkpt><trkpt lat="39.51581707536616" lon="8.497525323729304"><ele>121.5</ele><time>2026-05-01T08:03:49.999Z</time></trkpt><trkpt lat="39.51581276852938" lon="8.497366653672483"><ele>120.75</ele><time>2026-05-01T08:03:50.999Z</time></trkpt><trkpt lat="39.5158136540139" lon="8.497197052252302"><ele>120.0</ele><time>2026-05-01T08:03:51.999Z</time></trkpt><trkpt lat="39.51580595532968" lon="8.497025787823599"><ele>120.0</ele><time>2026-05-01T08:03:52.999Z</time></trkpt><trkpt lat="39.51579666493669" lon="8.496854618010863"><ele>120.0</ele><time>2026-05-01T08:03:53.999Z</time></trkpt><trkpt lat="39.515772676213736" lon="8.496696085892129"><ele>120.0</ele><time>2026-05-01T08:03:54.999Z</time></trkpt><trkpt lat="39.515729604354775" lon="8.496539950510916"><ele>120.0</ele><time>2026-05-01T08:03:55.999Z</time></trkpt><trkpt lat="39.51568222424528" lon="8.496377910602838"><ele>121.25</ele><time>2026-05-01T08:03:56.999Z</time></trkpt><trkpt lat="39.51563815901082" lon="8.49621441844378"><ele>122.5</ele><time>2026-05-01T08:03:57.998Z</time></trkpt><trkpt lat="39.51559312800634" lon="8.4960574771337"><ele>123.75</ele><time>2026-05-01T08:03:58.998Z</time></trkpt><trkpt lat="39.51554372244279" lon="8.495896206862959"><ele>125.0</ele><time>2026-05-01T08:03:59.998Z</time></trkpt><trkpt lat="39.51548943902016" lon="8.495736857516716"><ele>125.0</ele><time>2026-05-01T08:04:00.998Z</time></trkpt><trkpt lat="39.515436373383466" lon="8.495593319370945"><ele>125.0</ele><time>2026-05-01T08:04:01.998Z</time></trkpt><trkpt lat="39.51539731570008" lon="8.495451564973356"><ele>125.0</ele><time>2026-05-01T08:04:02.998Z</time></trkpt><trkpt lat="39.515342914031685" lon="8.495324075552906"><ele>125.0</ele><time>2026-05-01T08:04:03.998Z</time></trkpt><trkpt lat="39.51530086286271" lon="8.495209242678342"><ele>125.0</ele><time>2026-05-01T08:04:04.998Z</time></trkpt><trkpt lat="39.515254678332504" lon="8.495070261135778"><ele>121.25</ele><time>2026-05-01T08:04:05.998Z</time></trkpt><trkpt lat="39.515207324047786" lon="8.494935505959115"><ele>117.5</ele><time>2026-05-01T08:04:06.998Z</time></trkpt><trkpt lat="39.51515720787659" lon="8.494802904226152"><ele>113.75</ele><time>2026-05-01T08:04:07.998Z</time></trkpt><trkpt lat="39.51509742427755" lon="8.49466771708062"><ele>110.0</ele><time>2026-05-01T08:04:08.998Z</time></trkpt><trkpt lat="39.515038755951224" lon="8.494531479872666"><ele>109.6</ele><time>2026-05-01T08:04:09.998Z</time></trkpt><trkpt lat="39.51498388910979" lon="8.494395418871852"><ele>109.2</ele><time>2026-05-01T08:04:10.998Z</time></trkpt><trkpt lat="39.51494861446045" lon="8.494276493847213"><ele>108.80000000000001</ele><time>2026-05-01T08:04:11.998Z</time></trkpt><trkpt lat="39.51492296167664" lon="8.49414915236891"><ele>108.4</ele><time>2026-05-01T08:04:12.998Z</time></trkpt><trkpt lat="39.51497707432821" lon="8.49402689549043"><ele>108.0</ele><time>2026-05-01T08:04:13.998Z</time></trkpt><trkpt lat="39.51500140545267" lon="8.493901039629243"><ele>108.0</ele><time>2026-05-01T08:04:14.998Z</time></trkpt><trkpt lat="39.51502997715188" lon="8.493807762813915"><ele>108.00000000000001</ele><time>2026-05-01T08:04:15.998Z</time></trkpt><trkpt lat="39.51504204908126" lon="8.493721774804266"><ele>108.00000000000001</ele><time>2026-05-01T08:04:17.998Z</time></trkpt><trkpt lat="39.515021294937014" lon="8.493616356079885"><ele>108.0</ele><time>2026-05-01T08:04:20.998Z</time></trkpt><trkpt lat="39.51494367182723" lon="8.493523402315306"><ele>108.0</ele><time>2026-05-01T08:04:22.998Z</time></trkpt><trkpt lat="39.5148187112907" lon="8.493536919718482"><ele>107.33333333333333</ele><time>2026-05-01T08:04:25Z</time></trkpt><trkpt lat="39.51474824505915" lon="8.493554019147682"><ele>106.66666666666666</ele><time>2026-05-01T08:04:26Z</time></trkpt><trkpt lat="39.51467959401024" lon="8.493571221433632"><ele>106.0</ele><time>2026-05-01T08:04:27Z</time></trkpt><trkpt lat="39.51458634538802" lon="8.49357852235141"><ele>105.33333333333333</ele><time>2026-05-01T08:04:29Z</time></trkpt><trkpt lat="39.51452852508773" lon="8.493623617756333"><ele>104.66666666666666</ele><time>2026-05-01T08:04:33Z</time></trkpt><trkpt lat="39.51445629117416" lon="8.493589461987986"><ele>104.0</ele><time>2026-05-01T08:04:35Z</time></trkpt><trkpt lat="39.51440511261159" lon="8.493868242631965"><ele>105.14285714285714</ele><time>2026-05-01T08:04:36Z</time></trkpt><trkpt lat="39.51434101146197" lon="8.49387512353125"><ele>106.28571428571429</ele><time>2026-05-01T08:04:37Z</time></trkpt><trkpt lat="39.51427795969313" lon="8.493856611586954"><ele>107.42857142857143</ele><time>2026-05-01T08:04:38Z</time></trkpt><trkpt lat="39.514207440636305" lon="8.49383636451978"><ele>108.57142857142857</ele><time>2026-05-01T08:04:39Z</time></trkpt><trkpt lat="39.51414127666773" lon="8.493801516157975"><ele>109.71428571428572</ele><time>2026-05-01T08:04:40Z</time></trkpt><trkpt lat="39.514088232455045" lon="8.493742930354527"><ele>110.85714285714286</ele><time>2026-05-01T08:04:41Z</time></trkpt><trkpt lat="39.51403286407387" lon="8.493682465334821"><ele>112.0</ele><time>2026-05-01T08:04:42Z</time></trkpt><trkpt lat="39.5139694893929" lon="8.49364886347305"><ele>112.50000000000001</ele><time>2026-05-01T08:04:43Z</time></trkpt><trkpt lat="39.513899659842245" lon="8.493632855155548"><ele>113.0</ele><time>2026-05-01T08:04:44Z</time></trkpt><trkpt lat="39.51379184486528" lon="8.49368637189378"><ele>113.5</ele><time>2026-05-01T08:04:46Z</time></trkpt><trkpt lat="39.51372190651561" lon="8.493821691775487"><ele>114.0</ele><time>2026-05-01T08:04:48Z</time></trkpt><trkpt lat="39.51369216329033" lon="8.493896524544672"><ele>114.50000000000001</ele><time>2026-05-01T08:04:49Z</time></trkpt><trkpt lat="39.51364829611639" lon="8.493963679626793"><ele>115.0</ele><time>2026-05-01T08:04:50Z</time></trkpt><trkpt lat="39.51354033530089" lon="8.494033631912004"><ele>115.75</ele><time>2026-05-01T08:04:52Z</time></trkpt><trkpt lat="39.513453547710164" lon="8.494091109238086"><ele>116.5</ele><time>2026-05-01T08:04:53.999Z</time></trkpt><trkpt lat="39.51331735289689" lon="8.494161060191592"><ele>117.25</ele><time>2026-05-01T08:04:56.999Z</time></trkpt><trkpt lat="39.51325672922526" lon="8.494215527283561"><ele>118.0</ele><time>2026-05-01T08:04:57.999Z</time></trkpt><trkpt lat="39.513123814140826" lon="8.494251598984839"><ele>118.00000000000001</ele><time>2026-05-01T08:04:59.999Z</time></trkpt><trkpt lat="39.51304900977393" lon="8.494261299102131"><ele>118.0</ele><time>2026-05-01T08:05:00.999Z</time></trkpt><trkpt lat="39.51297830471418" lon="8.494273837861735"><ele>118.0</ele><time>2026-05-01T08:05:01.999Z</time></trkpt><trkpt lat="39.51291098560015" lon="8.49429324707483"><ele>118.0</ele><time>2026-05-01T08:05:02.999Z</time></trkpt><trkpt lat="39.5128367285622" lon="8.494299920511912"><ele>118.00000000000001</ele><time>2026-05-01T08:05:03.999Z</time></trkpt><trkpt lat="39.51275484476069" lon="8.494344985580172"><ele>118.0</ele><time>2026-05-01T08:05:04.999Z</time></trkpt><trkpt lat="39.51267607156009" lon="8.49442058125623"><ele>118.83333333333334</ele><time>2026-05-01T08:05:05.999Z</time></trkpt><trkpt lat="39.512603781652224" lon="8.49448884844857"><ele>119.66666666666667</ele><time>2026-05-01T08:05:06.999Z</time></trkpt><trkpt lat="39.512536708829415" lon="8.494565293354858"><ele>120.5</ele><time>2026-05-01T08:05:07.999Z</time></trkpt><trkpt lat="39.512477179433695" lon="8.494633803203056"><ele>121.33333333333334</ele><time>2026-05-01T08:05:08.999Z</time></trkpt><trkpt lat="39.51236291617956" lon="8.494654347574118"><ele>122.16666666666667</ele><time>2026-05-01T08:05:10.999Z</time></trkpt><trkpt lat="39.512292624808865" lon="8.494658099861677"><ele>123.0</ele><time>2026-05-01T08:05:11.999Z</time></trkpt><trkpt lat="39.51219847282676" lon="8.494649623127549"><ele>123.0</ele><time>2026-05-01T08:05:12.999Z</time></trkpt><trkpt lat="39.5120875486221" lon="8.494620451502373"><ele>123.0</ele><time>2026-05-01T08:05:13.999Z</time></trkpt><trkpt lat="39.51197024758707" lon="8.494576449664837"><ele>123.0</ele><time>2026-05-01T08:05:14.999Z</time></trkpt><trkpt lat="39.51186706685568" lon="8.494566090025375"><ele>123.0</ele><time>2026-05-01T08:05:15.999Z</time></trkpt><trkpt lat="39.51174441229227" lon="8.494557522445692"><ele>124.66666666666667</ele><time>2026-05-01T08:05:16.999Z</time></trkpt><trkpt lat="39.511659807197276" lon="8.494538644458682"><ele>126.33333333333334</ele><time>2026-05-01T08:05:17.999Z</time></trkpt><trkpt lat="39.51157711696027" lon="8.494492222165604"><ele>128.0</ele><time>2026-05-01T08:05:18.999Z</time></trkpt><trkpt lat="39.51149378605597" lon="8.49446359108958"><ele>129.66666666666669</ele><time>2026-05-01T08:05:19.999Z</time></trkpt><trkpt lat="39.51141958370035" lon="8.494472958274569"><ele>131.33333333333334</ele><time>2026-05-01T08:05:20.999Z</time></trkpt><trkpt lat="39.51134651661528" lon="8.4945028532279"><ele>133.0</ele><time>2026-05-01T08:05:21.999Z</time></trkpt><trkpt lat="39.51123942210515" lon="8.494523365979294"><ele>133.5</ele><time>2026-05-01T08:05:23.999Z</time></trkpt><trkpt lat="39.511175515479145" lon="8.49449069436574"><ele>134.0</ele><time>2026-05-01T08:05:24.999Z</time></trkpt><trkpt lat="39.511103056055674" lon="8.494470711299275"><ele>134.5</ele><time>2026-05-01T08:05:25.999Z</time></trkpt><trkpt lat="39.51101205016052" lon="8.49445934907536"><ele>135.0</ele><time>2026-05-01T08:05:26.999Z</time></trkpt><trkpt lat="39.5109058675319" lon="8.494466306964545"><ele>135.5</ele><time>2026-05-01T08:05:27.999Z</time></trkpt><trkpt lat="39.51080908289035" lon="8.494497195598898"><ele>136.0</ele><time>2026-05-01T08:05:28.999Z</time></trkpt><trkpt lat="39.510710543141194" lon="8.494544385612071"><ele>137.2</ele><time>2026-05-01T08:05:29.999Z</time></trkpt><trkpt lat="39.510604153025376" lon="8.494601539738971"><ele>138.39999999999998</ele><time>2026-05-01T08:05:30.999Z</time></trkpt><trkpt lat="39.510500277544494" lon="8.494651359381125"><ele>139.6</ele><time>2026-05-01T08:05:31.999Z</time></trkpt><trkpt lat="39.51041110828477" lon="8.494685824779026"><ele>140.79999999999998</ele><time>2026-05-01T08:05:32.999Z</time></trkpt><trkpt lat="39.51031191870417" lon="8.494732881167643"><ele>142.0</ele><time>2026-05-01T08:05:33.999Z</time></trkpt><trkpt lat="39.510205314681976" lon="8.494783270136747"><ele>142.0</ele><time>2026-05-01T08:05:34.999Z</time></trkpt><trkpt lat="39.51010753007705" lon="8.494833162697512"><ele>142.0</ele><time>2026-05-01T08:05:35.999Z</time></trkpt><trkpt lat="39.51001327941046" lon="8.494873440484081"><ele>142.0</ele><time>2026-05-01T08:05:36.999Z</time></trkpt><trkpt lat="39.509926273223336" lon="8.494908529758298"><ele>142.0</ele><time>2026-05-01T08:05:37.999Z</time></trkpt><trkpt lat="39.50985532221714" lon="8.49493719810908"><ele>142.0</ele><time>2026-05-01T08:05:38.999Z</time></trkpt><trkpt lat="39.509752392287545" lon="8.495046102078588"><ele>142.0</ele><time>2026-05-01T08:05:40.999Z</time></trkpt><trkpt lat="39.50970665114959" lon="8.495104691637723"><ele>142.0</ele><time>2026-05-01T08:05:41.999Z</time></trkpt><trkpt lat="39.5096413876185" lon="8.495149509292999"><ele>142.0</ele><time>2026-05-01T08:05:42.999Z</time></trkpt><trkpt lat="39.509566664828" lon="8.495187739382885"><ele>142.0</ele><time>2026-05-01T08:05:43.999Z</time></trkpt><trkpt lat="39.50949455872597" lon="8.495194475419447"><ele>142.0</ele><time>2026-05-01T08:05:44.999Z</time></trkpt><trkpt lat="39.50941037481253" lon="8.495203615458895"><ele>142.0</ele><time>2026-05-01T08:05:45.999Z</time></trkpt><trkpt lat="39.509313086917935" lon="8.495219552565361"><ele>143.0</ele><time>2026-05-01T08:05:46.999Z</time></trkpt><trkpt lat="39.50921001092992" lon="8.495257805073063"><ele>144.0</ele><time>2026-05-01T08:05:47.999Z</time></trkpt><trkpt lat="39.50910931955316" lon="8.49529371224328"><ele>145.0</ele><time>2026-05-01T08:05:48.999Z</time></trkpt><trkpt lat="39.50903200769539" lon="8.495350959751637"><ele>146.0</ele><time>2026-05-01T08:05:49.999Z</time></trkpt><trkpt lat="39.50897654421873" lon="8.495415766004903"><ele>147.0</ele><time>2026-05-01T08:05:50.999Z</time></trkpt><trkpt lat="39.50892484326277" lon="8.495492953529023"><ele>148.6</ele><time>2026-05-01T08:05:51.999Z</time></trkpt><trkpt lat="39.508874411605476" lon="8.495592299343704"><ele>150.2</ele><time>2026-05-01T08:05:53.999Z</time></trkpt><trkpt lat="39.50877202876083" lon="8.49561563558518"><ele>151.8</ele><time>2026-05-01T08:05:57.999Z</time></trkpt><trkpt lat="39.50869023904079" lon="8.495664470722842"><ele>153.4</ele><time>2026-05-01T08:05:59.999Z</time></trkpt><trkpt lat="39.50860391973872" lon="8.495724979925228"><ele>155.0</ele><time>2026-05-01T08:06:02.998Z</time></trkpt><trkpt lat="39.50856626867628" lon="8.495804973606617"><ele>155.2</ele><time>2026-05-01T08:06:05.998Z</time></trkpt><trkpt lat="39.50853264604425" lon="8.495726413992909"><ele>155.4</ele><time>2026-05-01T08:06:08.998Z</time></trkpt><trkpt lat="39.50856444526683" lon="8.49550069135031"><ele>155.6</ele><time>2026-05-01T08:06:10.998Z</time></trkpt><trkpt lat="39.50858170501663" lon="8.495404225492921"><ele>155.8</ele><time>2026-05-01T08:06:11.998Z</time></trkpt><trkpt lat="39.508608561622935" lon="8.495304507934726"><ele>156.0</ele><time>2026-05-01T08:06:12.998Z</time></trkpt><trkpt lat="39.50861500579961" lon="8.495212890666005"><ele>157.2</ele><time>2026-05-01T08:06:13.998Z</time></trkpt><trkpt lat="39.508575828561035" lon="8.495054354453899"><ele>158.39999999999998</ele><time>2026-05-01T08:06:15.998Z</time></trkpt><trkpt lat="39.5085476300371" lon="8.49496787961085"><ele>159.6</ele><time>2026-05-01T08:06:16.998Z</time></trkpt><trkpt lat="39.508551147328625" lon="8.494805419512888"><ele>160.79999999999998</ele><time>2026-05-01T08:06:18.998Z</time></trkpt><trkpt lat="39.50858659108099" lon="8.494684339546229"><ele>162.0</ele><time>2026-05-01T08:06:20.998Z</time></trkpt><trkpt lat="39.50873623628193" lon="8.494696580372473"><ele>159.0</ele><time>2026-05-01T08:06:23.998Z</time></trkpt><trkpt lat="39.508845346565664" lon="8.494700406353804"><ele>156.0</ele><time>2026-05-01T08:06:24.998Z</time></trkpt><trkpt lat="39.50894249307325" lon="8.494677782272683"><ele>153.0</ele><time>2026-05-01T08:06:25.998Z</time></trkpt><trkpt lat="39.509027752958104" lon="8.494639373777485"><ele>150.0</ele><time>2026-05-01T08:06:26.998Z</time></trkpt><trkpt lat="39.50911198451621" lon="8.494593281998688"><ele>147.0</ele><time>2026-05-01T08:06:27.998Z</time></trkpt><trkpt lat="39.50924490091376" lon="8.494595010538237"><ele>150.8</ele><time>2026-05-01T08:06:28.998Z</time></trkpt><trkpt lat="39.50933358519195" lon="8.494528951475496"><ele>154.6</ele><time>2026-05-01T08:06:30Z</time></trkpt><trkpt lat="39.50941259232887" lon="8.494455162554246"><ele>158.4</ele><time>2026-05-01T08:06:31Z</time></trkpt><trkpt lat="39.509478637223495" lon="8.49437845335642"><ele>162.20000000000002</ele><time>2026-05-01T08:06:32Z</time></trkpt><trkpt lat="39.50951517342183" lon="8.494281096343856"><ele>166.0</ele><time>2026-05-01T08:06:33Z</time></trkpt><trkpt lat="39.50951922371681" lon="8.494169367851807"><ele>166.0</ele><time>2026-05-01T08:06:34Z</time></trkpt><trkpt lat="39.50950715906556" lon="8.494051856079524"><ele>166.0</ele><time>2026-05-01T08:06:35Z</time></trkpt><trkpt lat="39.509476927377015" lon="8.493931645575408"><ele>166.0</ele><time>2026-05-01T08:06:36Z</time></trkpt><trkpt lat="39.50943431768758" lon="8.493816006619259"><ele>166.0</ele><time>2026-05-01T08:06:37Z</time></trkpt><trkpt lat="39.50940692490619" lon="8.493725028676767"><ele>166.0</ele><time>2026-05-01T08:06:38Z</time></trkpt><trkpt lat="39.50946555135064" lon="8.493577441157527"><ele>166.0</ele><time>2026-05-01T08:06:40Z</time></trkpt><trkpt lat="39.509488066193725" lon="8.493482958691283"><ele>166.0</ele><time>2026-05-01T08:06:41Z</time></trkpt><trkpt lat="39.50949181346692" lon="8.49337934451149"><ele>166.0</ele><time>2026-05-01T08:06:42Z</time></trkpt><trkpt lat="39.509554677390334" lon="8.493280051079319"><ele>166.0</ele><time>2026-05-01T08:06:44Z</time></trkpt><trkpt lat="39.50961841526138" lon="8.493273918414378"><ele>166.0</ele><time>2026-05-01T08:06:45Z</time></trkpt><trkpt lat="39.50968323886183" lon="8.493326008984319"><ele>166.0</ele><time>2026-05-01T08:06:46Z</time></trkpt><trkpt lat="39.509742341446135" lon="8.49341823682526"><ele>166.0</ele><time>2026-05-01T08:06:47Z</time></trkpt><trkpt lat="39.50980975250497" lon="8.493509791386154"><ele>166.0</ele><time>2026-05-01T08:06:48Z</time></trkpt><trkpt lat="39.50987681651202" lon="8.493600707608909"><ele>166.0</ele><time>2026-05-01T08:06:49Z</time></trkpt><trkpt lat="39.50995341300852" lon="8.493681456982277"><ele>166.0</ele><time>2026-05-01T08:06:50Z</time></trkpt><trkpt lat="39.5100162377239" lon="8.493745575744715"><ele>166.0</ele><time>2026-05-01T08:06:51Z</time></trkpt><trkpt lat="39.51013738271802" lon="8.493738303461893"><ele>166.0</ele><time>2026-05-01T08:06:53Z</time></trkpt><trkpt lat="39.510174370731" lon="8.493659759269043"><ele>166.0</ele><time>2026-05-01T08:06:54Z</time></trkpt><trkpt lat="39.51018736811746" lon="8.493550017886115"><ele>166.0</ele><time>2026-05-01T08:06:55Z</time></trkpt><trkpt lat="39.51017063474924" lon="8.493439543967002"><ele>166.0</ele><time>2026-05-01T08:06:56Z</time></trkpt><trkpt lat="39.51013523844473" lon="8.493334952591512"><ele>166.0</ele><time>2026-05-01T08:06:57Z</time></trkpt><trkpt lat="39.51010204373388" lon="8.49323747657596"><ele>166.0</ele><time>2026-05-01T08:06:58Z</time></trkpt><trkpt lat="39.51009121719021" lon="8.493130775499358"><ele>166.0</ele><time>2026-05-01T08:06:58.999Z</time></trkpt><trkpt lat="39.51005932348607" lon="8.493012520162106"><ele>166.0</ele><time>2026-05-01T08:06:59.999Z</time></trkpt><trkpt lat="39.51003626753201" lon="8.492917091587914"><ele>166.0</ele><time>2026-05-01T08:07:00.999Z</time></trkpt><trkpt lat="39.50999662832675" lon="8.492816087974685"><ele>166.0</ele><time>2026-05-01T08:07:01.999Z</time></trkpt><trkpt lat="39.509949426823525" lon="8.492718414036982"><ele>166.0</ele><time>2026-05-01T08:07:02.999Z</time></trkpt><trkpt lat="39.509897505658984" lon="8.492614341437767"><ele>166.0</ele><time>2026-05-01T08:07:03.999Z</time></trkpt><trkpt lat="39.50986052149317" lon="8.4924971672955"><ele>166.83333333333334</ele><time>2026-05-01T08:07:04.999Z</time></trkpt><trkpt lat="39.50984999375575" lon="8.492380584327615"><ele>167.66666666666669</ele><time>2026-05-01T08:07:05.999Z</time></trkpt><trkpt lat="39.509842463857126" lon="8.492285224819348"><ele>168.5</ele><time>2026-05-01T08:07:06.999Z</time></trkpt><trkpt lat="39.509802662904136" lon="8.4921945135427"><ele>169.33333333333334</ele><time>2026-05-01T08:07:07.999Z</time></trkpt><trkpt lat="39.50973657315812" lon="8.492111600387704"><ele>170.16666666666666</ele><time>2026-05-01T08:07:08.999Z</time></trkpt><trkpt lat="39.509671128085955" lon="8.492038495348284"><ele>171.0</ele><time>2026-05-01T08:07:09.999Z</time></trkpt><trkpt lat="39.50965679368478" lon="8.491905216515097"><ele>173.20000000000002</ele><time>2026-05-01T08:07:11.999Z</time></trkpt><trkpt lat="39.509758251234175" lon="8.4918261582503"><ele>175.4</ele><time>2026-05-01T08:07:13.999Z</time></trkpt><trkpt lat="39.50983429301757" lon="8.491823638845668"><ele>177.6</ele><time>2026-05-01T08:07:14.999Z</time></trkpt><trkpt lat="39.50992333245723" lon="8.491844097811555"><ele>179.8</ele><time>2026-05-01T08:07:15.999Z</time></trkpt><trkpt lat="39.51001910962245" lon="8.491874008453419"><ele>182.0</ele><time>2026-05-01T08:07:16.999Z</time></trkpt><trkpt lat="39.51012110700554" lon="8.491915547752711"><ele>182.0</ele><time>2026-05-01T08:07:17.999Z</time></trkpt><trkpt lat="39.510217725870476" lon="8.491937844947277"><ele>182.0</ele><time>2026-05-01T08:07:18.999Z</time></trkpt><trkpt lat="39.51028715143976" lon="8.491976810917901"><ele>182.0</ele><time>2026-05-01T08:07:19.999Z</time></trkpt><trkpt lat="39.51034921243259" lon="8.492016272462438"><ele>182.0</ele><time>2026-05-01T08:07:20.999Z</time></trkpt><trkpt lat="39.51041876275371" lon="8.491973790368725"><ele>182.0</ele><time>2026-05-01T08:07:22.999Z</time></trkpt><trkpt lat="39.51042686856393" lon="8.491890614821"><ele>182.0</ele><time>2026-05-01T08:07:23.999Z</time></trkpt><trkpt lat="39.510403624503525" lon="8.491812421889513"><ele>182.0</ele><time>2026-05-01T08:07:24.999Z</time></trkpt><trkpt lat="39.510355421773404" lon="8.49175924726821"><ele>182.0</ele><time>2026-05-01T08:07:25.999Z</time></trkpt><trkpt lat="39.51029821592196" lon="8.491711690923866"><ele>182.0</ele><time>2026-05-01T08:07:26.999Z</time></trkpt><trkpt lat="39.51024988704835" lon="8.4916510982514"><ele>182.0</ele><time>2026-05-01T08:07:27.999Z</time></trkpt><trkpt lat="39.510209018554576" lon="8.491565699749085"><ele>182.0</ele><time>2026-05-01T08:07:28.999Z</time></trkpt><trkpt lat="39.5102264053876" lon="8.491448180212519"><ele>182.0</ele><time>2026-05-01T08:07:30.999Z</time></trkpt><trkpt lat="39.51028435575164" lon="8.49141111895715"><ele>182.0</ele><time>2026-05-01T08:07:31.999Z</time></trkpt><trkpt lat="39.51034658555804" lon="8.491350550022922"><ele>182.0</ele><time>2026-05-01T08:07:32.999Z</time></trkpt><trkpt lat="39.51039024869762" lon="8.491264376469113"><ele>180.16666666666666</ele><time>2026-05-01T08:07:33.999Z</time></trkpt><trkpt lat="39.51041009298097" lon="8.491160422752476"><ele>178.33333333333331</ele><time>2026-05-01T08:07:34.999Z</time></trkpt><trkpt lat="39.510406319814365" lon="8.491069954393401"><ele>176.5</ele><time>2026-05-01T08:07:35.999Z</time></trkpt><trkpt lat="39.51038798308036" lon="8.490977419519568"><ele>174.66666666666666</ele><time>2026-05-01T08:07:36.999Z</time></trkpt><trkpt lat="39.5103686895901" lon="8.490874556803576"><ele>172.83333333333334</ele><time>2026-05-01T08:07:37.999Z</time></trkpt><trkpt lat="39.51036758353465" lon="8.490770190416495"><ele>171.0</ele><time>2026-05-01T08:07:38.999Z</time></trkpt><trkpt lat="39.51037221574903" lon="8.490669119565283"><ele>175.66666666666666</ele><time>2026-05-01T08:07:39.999Z</time></trkpt><trkpt lat="39.51035692719796" lon="8.490570628573796"><ele>180.33333333333331</ele><time>2026-05-01T08:07:40.999Z</time></trkpt><trkpt lat="39.51032088556394" lon="8.490487765024815"><ele>185.0</ele><time>2026-05-01T08:07:41.999Z</time></trkpt><trkpt lat="39.510271030748534" lon="8.49042913936629"><ele>189.66666666666666</ele><time>2026-05-01T08:07:42.999Z</time></trkpt><trkpt lat="39.510243058962224" lon="8.490300889600729"><ele>194.33333333333331</ele><time>2026-05-01T08:07:44.999Z</time></trkpt><trkpt lat="39.51027188229471" lon="8.49013937238107"><ele>199.0</ele><time>2026-05-01T08:07:46.999Z</time></trkpt><trkpt lat="39.510274697417394" lon="8.490039662024648"><ele>199.49999999999997</ele><time>2026-05-01T08:07:47.999Z</time></trkpt><trkpt lat="39.51025586392504" lon="8.489948716630552"><ele>200.0</ele><time>2026-05-01T08:07:48.999Z</time></trkpt><trkpt lat="39.510212514888075" lon="8.489860121810365"><ele>200.5</ele><time>2026-05-01T08:07:49.999Z</time></trkpt><trkpt lat="39.51016907063622" lon="8.48977812871958"><ele>201.0</ele><time>2026-05-01T08:07:50.999Z</time></trkpt><trkpt lat="39.51017057439903" lon="8.489641892094838"><ele>201.49999999999997</ele><time>2026-05-01T08:07:52.999Z</time></trkpt><trkpt lat="39.51020351657294" lon="8.489566373876324"><ele>202.0</ele><time>2026-05-01T08:07:53.999Z</time></trkpt><trkpt lat="39.51025565661752" lon="8.48949618575382"><ele>201.99999999999997</ele><time>2026-05-01T08:07:54.999Z</time></trkpt><trkpt lat="39.510319711539275" lon="8.489437778218763"><ele>202.0</ele><time>2026-05-01T08:07:55.999Z</time></trkpt><trkpt lat="39.51039795301347" lon="8.489395115858587"><ele>202.0</ele><time>2026-05-01T08:07:56.999Z</time></trkpt><trkpt lat="39.51047974751708" lon="8.489374053232824"><ele>202.0</ele><time>2026-05-01T08:07:57.999Z</time></trkpt><trkpt lat="39.510544763137375" lon="8.489384075203246"><ele>201.99999999999997</ele><time>2026-05-01T08:07:58.999Z</time></trkpt><trkpt lat="39.51060385401491" lon="8.489335808672273"><ele>202.0</ele><time>2026-05-01T08:08:00.999Z</time></trkpt><trkpt lat="39.51054590747052" lon="8.489229320109636"><ele>201.99999999999997</ele><time>2026-05-01T08:08:02.999Z</time></trkpt><trkpt lat="39.51047126576682" lon="8.489241496044185"><ele>202.0</ele><time>2026-05-01T08:08:03.999Z</time></trkpt><trkpt lat="39.51039486451709" lon="8.489290821773293"><ele>202.0</ele><time>2026-05-01T08:08:04.999Z</time></trkpt><trkpt lat="39.51032297817329" lon="8.489333044873979"><ele>202.0</ele><time>2026-05-01T08:08:05.998Z</time></trkpt><trkpt lat="39.51023711243706" lon="8.489352853072452"><ele>201.99999999999997</ele><time>2026-05-01T08:08:06.998Z</time></trkpt><trkpt lat="39.51013295716422" lon="8.489374474921261"><ele>202.0</ele><time>2026-05-01T08:08:07.998Z</time></trkpt><trkpt lat="39.51002947358377" lon="8.489482510429465"><ele>201.99999999999997</ele><time>2026-05-01T08:08:09.998Z</time></trkpt><trkpt lat="39.51001083388459" lon="8.489594144336555"><ele>202.0</ele><time>2026-05-01T08:08:10.998Z</time></trkpt><trkpt lat="39.5099767677848" lon="8.489685923591916"><ele>202.0</ele><time>2026-05-01T08:08:11.998Z</time></trkpt><trkpt lat="39.509933522324346" lon="8.489768767397253"><ele>202.0</ele><time>2026-05-01T08:08:12.998Z</time></trkpt><trkpt lat="39.50989923873026" lon="8.489876626663685"><ele>201.99999999999997</ele><time>2026-05-01T08:08:13.998Z</time></trkpt><trkpt lat="39.50988552466064" lon="8.48999360486907"><ele>202.0</ele><time>2026-05-01T08:08:14.998Z</time></trkpt><trkpt lat="39.50988377727865" lon="8.490089518768633"><ele>201.99999999999997</ele><time>2026-05-01T08:08:15.998Z</time></trkpt><trkpt lat="39.509869189511676" lon="8.490258309765057"><ele>202.0</ele><time>2026-05-01T08:08:17.998Z</time></trkpt><trkpt lat="39.50986440940179" lon="8.490360632883013"><ele>202.0</ele><time>2026-05-01T08:08:18.998Z</time></trkpt><trkpt lat="39.50986202511829" lon="8.49045468203002"><ele>202.0</ele><time>2026-05-01T08:08:19.998Z</time></trkpt><trkpt lat="39.50983724894571" lon="8.490545510056476"><ele>201.99999999999997</ele><time>2026-05-01T08:08:21.998Z</time></trkpt><trkpt lat="39.509772912699496" lon="8.490514724430133"><ele>202.0</ele><time>2026-05-01T08:08:23.998Z</time></trkpt><trkpt lat="39.509787825189" lon="8.49035013646088"><ele>201.99999999999997</ele><time>2026-05-01T08:08:25.998Z</time></trkpt><trkpt lat="39.50977443029161" lon="8.49021794549515"><ele>202.0</ele><time>2026-05-01T08:08:27.998Z</time></trkpt><trkpt lat="39.509749070985606" lon="8.490142282574157"><ele>202.0</ele><time>2026-05-01T08:08:28.998Z</time></trkpt><trkpt lat="39.509718282719454" lon="8.489987756479948"><ele>202.0</ele><time>2026-05-01T08:08:30.998Z</time></trkpt><trkpt lat="39.50969898464775" lon="8.489909061948628"><ele>201.99999999999997</ele><time>2026-05-01T08:08:31.998Z</time></trkpt><trkpt lat="39.50966667274331" lon="8.489828334219636"><ele>202.0</ele><time>2026-05-01T08:08:32.998Z</time></trkpt><trkpt lat="39.50962320165225" lon="8.489741708704537"><ele>201.99999999999997</ele><time>2026-05-01T08:08:33.998Z</time></trkpt><trkpt lat="39.50958439114118" lon="8.489672445823052"><ele>202.0</ele><time>2026-05-01T08:08:34.998Z</time></trkpt><trkpt lat="39.50953375292771" lon="8.48960796313684"><ele>202.0</ele><time>2026-05-01T08:08:49Z</time></trkpt><trkpt lat="39.50946690983151" lon="8.489573318971644"><ele>202.0</ele><time>2026-05-01T08:08:52Z</time></trkpt><trkpt lat="39.509403904794354" lon="8.489584522411104"><ele>201.99999999999997</ele><time>2026-05-01T08:08:53Z</time></trkpt><trkpt lat="39.50930191020287" lon="8.489622097472411"><ele>202.0</ele><time>2026-05-01T08:08:55Z</time></trkpt><trkpt lat="39.509194367331645" lon="8.48966159074847"><ele>203.33333333333331</ele><time>2026-05-01T08:08:57Z</time></trkpt><trkpt lat="39.50909891629995" lon="8.48977228731011"><ele>204.66666666666666</ele><time>2026-05-01T08:08:59Z</time></trkpt><trkpt lat="39.50905468739954" lon="8.489852501246302"><ele>206.0</ele><time>2026-05-01T08:09:00Z</time></trkpt><trkpt lat="39.50900983827691" lon="8.489935287033695"><ele>207.33333333333331</ele><time>2026-05-01T08:09:01Z</time></trkpt><trkpt lat="39.50897047165943" lon="8.490015466470261"><ele>208.66666666666666</ele><time>2026-05-01T08:09:01.999Z</time></trkpt><trkpt lat="39.50895039741223" lon="8.490110816816903"><ele>210.0</ele><time>2026-05-01T08:09:02.999Z</time></trkpt><trkpt lat="39.508956423454684" lon="8.49021666758535"><ele>210.0</ele><time>2026-05-01T08:09:03.999Z</time></trkpt><trkpt lat="39.50897053404443" lon="8.490334596359887"><ele>210.0</ele><time>2026-05-01T08:09:04.999Z</time></trkpt><trkpt lat="39.50898136159994" lon="8.490456911174197"><ele>210.0</ele><time>2026-05-01T08:09:05.999Z</time></trkpt><trkpt lat="39.50897795376076" lon="8.490552931083453"><ele>210.0</ele><time>2026-05-01T08:09:06.999Z</time></trkpt><trkpt lat="39.50889134045204" lon="8.490674641337279"><ele>210.0</ele><time>2026-05-01T08:09:08.999Z</time></trkpt><trkpt lat="39.50882525007762" lon="8.490731090758977"><ele>210.66666666666666</ele><time>2026-05-01T08:09:09.999Z</time></trkpt><trkpt lat="39.50876105696424" lon="8.490778252671744"><ele>211.33333333333331</ele><time>2026-05-01T08:09:10.999Z</time></trkpt><trkpt lat="39.50868496956123" lon="8.490814617219355"><ele>212.0</ele><time>2026-05-01T08:09:11.999Z</time></trkpt><trkpt lat="39.508622561009375" lon="8.490857889566366"><ele>212.66666666666666</ele><time>2026-05-01T08:09:12.999Z</time></trkpt><trkpt lat="39.50856942470508" lon="8.490929009864569"><ele>213.33333333333331</ele><time>2026-05-01T08:09:13.999Z</time></trkpt><trkpt lat="39.50851826071169" lon="8.491018964208463"><ele>214.0</ele><time>2026-05-01T08:09:14.999Z</time></trkpt><trkpt lat="39.50847474110612" lon="8.491094126811305"><ele>212.0</ele><time>2026-05-01T08:09:15.999Z</time></trkpt><trkpt lat="39.50837215394171" lon="8.491137501797153"><ele>209.99999999999997</ele><time>2026-05-01T08:09:17.999Z</time></trkpt><trkpt lat="39.50823926317331" lon="8.491095111640481"><ele>208.0</ele><time>2026-05-01T08:09:19.999Z</time></trkpt><trkpt lat="39.50814683943966" lon="8.491066971783082"><ele>206.0</ele><time>2026-05-01T08:09:20.999Z</time></trkpt><trkpt lat="39.50804627849057" lon="8.491025975466503"><ele>204.0</ele><time>2026-05-01T08:09:21.999Z</time></trkpt><trkpt lat="39.50795210326089" lon="8.490993983788847"><ele>204.83333333333334</ele><time>2026-05-01T08:09:22.999Z</time></trkpt><trkpt lat="39.50786742079008" lon="8.490985727968436"><ele>205.66666666666669</ele><time>2026-05-01T08:09:23.999Z</time></trkpt><trkpt lat="39.507786850458295" lon="8.491013031841057"><ele>206.5</ele><time>2026-05-01T08:09:24.999Z</time></trkpt><trkpt lat="39.5077166313807" lon="8.491076813559689"><ele>207.33333333333334</ele><time>2026-05-01T08:09:25.999Z</time></trkpt><trkpt lat="39.50766682897019" lon="8.491168479913991"><ele>208.16666666666669</ele><time>2026-05-01T08:09:26.999Z</time></trkpt><trkpt lat="39.5076250532191" lon="8.491283712756564"><ele>209.0</ele><time>2026-05-01T08:09:27.999Z</time></trkpt><trkpt lat="39.50759523465734" lon="8.491396669107054"><ele>209.00000000000003</ele><time>2026-05-01T08:09:28.999Z</time></trkpt><trkpt lat="39.50757337165212" lon="8.491509088339903"><ele>209.0</ele><time>2026-05-01T08:09:29.999Z</time></trkpt><trkpt lat="39.507547836694556" lon="8.4916168138843"><ele>209.0</ele><time>2026-05-01T08:09:30.999Z</time></trkpt><trkpt lat="39.50750452808477" lon="8.491695573682309"><ele>209.0</ele><time>2026-05-01T08:09:31.999Z</time></trkpt><trkpt lat="39.50742611106067" lon="8.491753407092691"><ele>209.00000000000003</ele><time>2026-05-01T08:09:32.999Z</time></trkpt><trkpt lat="39.507341277415016" lon="8.49183241308357"><ele>209.0</ele><time>2026-05-01T08:09:33.999Z</time></trkpt><trkpt lat="39.507283064170544" lon="8.491885558143146"><ele>209.00000000000003</ele><time>2026-05-01T08:09:34.999Z</time></trkpt><trkpt lat="39.5072153184617" lon="8.491887071063458"><ele>209.0</ele><time>2026-05-01T08:09:36.999Z</time></trkpt><trkpt lat="39.50709610089476" lon="8.491815963832643"><ele>209.0</ele><time>2026-05-01T08:09:38.999Z</time></trkpt><trkpt lat="39.507045470935076" lon="8.491722544711987"><ele>209.0</ele><time>2026-05-01T08:09:40.999Z</time></trkpt><trkpt lat="39.5070257436491" lon="8.491638956314873"><ele>209.00000000000003</ele><time>2026-05-01T08:09:41.999Z</time></trkpt><trkpt lat="39.506987759506465" lon="8.491555876269828"><ele>209.0</ele><time>2026-05-01T08:09:42.999Z</time></trkpt><trkpt lat="39.50687030241732" lon="8.491503759585758"><ele>207.6</ele><time>2026-05-01T08:09:44.999Z</time></trkpt><trkpt lat="39.50679566045607" lon="8.491528498739155"><ele>206.2</ele><time>2026-05-01T08:09:45.999Z</time></trkpt><trkpt lat="39.506706311886084" lon="8.491578159396322"><ele>204.79999999999998</ele><time>2026-05-01T08:09:46.999Z</time></trkpt><trkpt lat="39.50660793362882" lon="8.491630193678704"><ele>203.39999999999998</ele><time>2026-05-01T08:09:47.999Z</time></trkpt><trkpt lat="39.506526784871" lon="8.491659082005572"><ele>202.0</ele><time>2026-05-01T08:09:48.999Z</time></trkpt><trkpt lat="39.5064391667112" lon="8.491638407395842"><ele>202.0</ele><time>2026-05-01T08:09:49.999Z</time></trkpt><trkpt lat="39.50634244146264" lon="8.491619245697597"><ele>202.0</ele><time>2026-05-01T08:09:50.999Z</time></trkpt><trkpt lat="39.50626425964431" lon="8.491655066238856"><ele>202.0</ele><time>2026-05-01T08:09:51.999Z</time></trkpt><trkpt lat="39.50618138352342" lon="8.491739800851192"><ele>202.0</ele><time>2026-05-01T08:09:52.999Z</time></trkpt><trkpt lat="39.506120740471694" lon="8.491823062725857"><ele>202.0</ele><time>2026-05-01T08:09:53.999Z</time></trkpt><trkpt lat="39.50602609072118" lon="8.491874069818056"><ele>201.6</ele><time>2026-05-01T08:09:55.999Z</time></trkpt><trkpt lat="39.50595969742711" lon="8.491758790861702"><ele>201.2</ele><time>2026-05-01T08:09:57.999Z</time></trkpt><trkpt lat="39.50595442338867" lon="8.49165712721283"><ele>200.8</ele><time>2026-05-01T08:09:58.999Z</time></trkpt><trkpt lat="39.505948932956386" lon="8.491494668381666"><ele>200.4</ele><time>2026-05-01T08:09:59.999Z</time></trkpt><trkpt lat="39.505929195023995" lon="8.491324863180076"><ele>200.0</ele><time>2026-05-01T08:10:00.999Z</time></trkpt><trkpt lat="39.50591171504236" lon="8.491188129446911"><ele>200.0</ele><time>2026-05-01T08:10:01.999Z</time></trkpt><trkpt lat="39.50591946381696" lon="8.491077941721123"><ele>200.0</ele><time>2026-05-01T08:10:02.999Z</time></trkpt><trkpt lat="39.50597181819238" lon="8.490977360449008"><ele>200.0</ele><time>2026-05-01T08:10:03.999Z</time></trkpt><trkpt lat="39.50604314268547" lon="8.490878128804363"><ele>200.0</ele><time>2026-05-01T08:10:04.999Z</time></trkpt><trkpt lat="39.506118678945484" lon="8.490785309175637"><ele>200.0</ele><time>2026-05-01T08:10:05.999Z</time></trkpt><trkpt lat="39.506157173050184" lon="8.490706034995622"><ele>200.00000000000003</ele><time>2026-05-01T08:10:06.999Z</time></trkpt><trkpt lat="39.506152987212396" lon="8.490620796470886"><ele>200.0</ele><time>2026-05-01T08:10:07.998Z</time></trkpt><trkpt lat="39.50612541644577" lon="8.490531907393787"><ele>200.0</ele><time>2026-05-01T08:10:08.998Z</time></trkpt><trkpt lat="39.50607811010282" lon="8.490426081397937"><ele>200.0</ele><time>2026-05-01T08:10:09.998Z</time></trkpt><trkpt lat="39.50601476244886" lon="8.490315408069913"><ele>200.00000000000003</ele><time>2026-05-01T08:10:10.998Z</time></trkpt><trkpt lat="39.50595303292368" lon="8.490219809524643"><ele>200.0</ele><time>2026-05-01T08:10:11.998Z</time></trkpt><trkpt lat="39.50588166789303" lon="8.490153219515655"><ele>200.0</ele><time>2026-05-01T08:10:12.998Z</time></trkpt><trkpt lat="39.50578859216271" lon="8.490132685556969"><ele>200.0</ele><time>2026-05-01T08:10:13.998Z</time></trkpt><trkpt lat="39.50567833835477" lon="8.49013292247156"><ele>200.0</ele><time>2026-05-01T08:10:14.998Z</time></trkpt><trkpt lat="39.505575910466675" lon="8.490124451211564"><ele>200.0</ele><time>2026-05-01T08:10:15.998Z</time></trkpt><trkpt lat="39.50549331988178" lon="8.490109230328745"><ele>200.0</ele><time>2026-05-01T08:10:16.998Z</time></trkpt><trkpt lat="39.505391579129885" lon="8.490088479696574"><ele>200.0</ele><time>2026-05-01T08:10:18.998Z</time></trkpt><trkpt lat="39.505365181412714" lon="8.489931905797082"><ele>200.0</ele><time>2026-05-01T08:10:20.998Z</time></trkpt><trkpt lat="39.50539719215406" lon="8.489832280669042"><ele>200.0</ele><time>2026-05-01T08:10:21.998Z</time></trkpt><trkpt lat="39.505430485954264" lon="8.489722250194541"><ele>200.0</ele><time>2026-05-01T08:10:22.998Z</time></trkpt><trkpt lat="39.50546818557366" lon="8.489631969109048"><ele>200.0</ele><time>2026-05-01T08:10:23.998Z</time></trkpt><trkpt lat="39.50552487369126" lon="8.489553505224361"><ele>195.50000000000003</ele><time>2026-05-01T08:10:24.998Z</time></trkpt><trkpt lat="39.50556590629543" lon="8.489482093134143"><ele>191.0</ele><time>2026-05-01T08:10:25.998Z</time></trkpt><trkpt lat="39.50558223667159" lon="8.489399675593305"><ele>186.5</ele><time>2026-05-01T08:10:26.998Z</time></trkpt><trkpt lat="39.50557988093027" lon="8.489286359255551"><ele>182.0</ele><time>2026-05-01T08:10:27.998Z</time></trkpt><trkpt lat="39.505600781333044" lon="8.48917017440723"><ele>177.5</ele><time>2026-05-01T08:10:28.998Z</time></trkpt><trkpt lat="39.50564500028771" lon="8.489063587417517"><ele>173.0</ele><time>2026-05-01T08:10:29.998Z</time></trkpt><trkpt lat="39.50570835982325" lon="8.488959218685942"><ele>173.0</ele><time>2026-05-01T08:10:30.998Z</time></trkpt><trkpt lat="39.505763049954304" lon="8.488870972616262"><ele>173.0</ele><time>2026-05-01T08:10:31.998Z</time></trkpt><trkpt lat="39.50580220700925" lon="8.488798470041836"><ele>173.0</ele><time>2026-05-01T08:10:32.998Z</time></trkpt><trkpt lat="39.50576152591334" lon="8.48866456599063"><ele>173.0</ele><time>2026-05-01T08:10:34.998Z</time></trkpt><trkpt lat="39.50567925261364" lon="8.488630107815812"><ele>173.0</ele><time>2026-05-01T08:10:35.998Z</time></trkpt><trkpt lat="39.50560226511054" lon="8.488630099437284"><ele>173.0</ele><time>2026-05-01T08:10:36.998Z</time></trkpt><trkpt lat="39.50551791987095" lon="8.488656890340183"><ele>171.2</ele><time>2026-05-01T08:10:37.998Z</time></trkpt><trkpt lat="39.50543872200299" lon="8.488690136074183"><ele>169.4</ele><time>2026-05-01T08:10:38.998Z</time></trkpt><trkpt lat="39.50535509866568" lon="8.488744541432176"><ele>167.6</ele><time>2026-05-01T08:10:39.998Z</time></trkpt><trkpt lat="39.505261269051616" lon="8.488801022441496"><ele>165.79999999999998</ele><time>2026-05-01T08:10:40.998Z</time></trkpt><trkpt lat="39.50516983126787" lon="8.488843353744924"><ele>164.0</ele><time>2026-05-01T08:10:42Z</time></trkpt><trkpt lat="39.50509471723141" lon="8.488879145424768"><ele>167.0</ele><time>2026-05-01T08:10:43Z</time></trkpt><trkpt lat="39.50502056412725" lon="8.488906236281002"><ele>170.0</ele><time>2026-05-01T08:10:44Z</time></trkpt><trkpt lat="39.50496158836003" lon="8.488861652048227"><ele>173.0</ele><time>2026-05-01T08:10:45Z</time></trkpt><trkpt lat="39.504912612718606" lon="8.488803170102123"><ele>176.0</ele><time>2026-05-01T08:10:46Z</time></trkpt><trkpt lat="39.50478962576388" lon="8.488788088542307"><ele>179.0</ele><time>2026-05-01T08:10:48Z</time></trkpt><trkpt lat="39.50470801864241" lon="8.488840368649551"><ele>182.0</ele><time>2026-05-01T08:10:49Z</time></trkpt><trkpt lat="39.50460483800954" lon="8.488894160409071"><ele>182.2</ele><time>2026-05-01T08:10:50Z</time></trkpt><trkpt lat="39.504498561335616" lon="8.488944837860048"><ele>182.39999999999998</ele><time>2026-05-01T08:10:51Z</time></trkpt><trkpt lat="39.504414730838974" lon="8.488986830004649"><ele>182.60000000000002</ele><time>2026-05-01T08:10:52Z</time></trkpt><trkpt lat="39.504324265611906" lon="8.488971114223895"><ele>182.8</ele><time>2026-05-01T08:10:54Z</time></trkpt><trkpt lat="39.50432669440489" lon="8.488830433487442"><ele>183.0</ele><time>2026-05-01T08:10:56Z</time></trkpt><trkpt lat="39.50438120714691" lon="8.488770976917348"><ele>181.4</ele><time>2026-05-01T08:10:57Z</time></trkpt><trkpt lat="39.50445263251224" lon="8.488705903318543"><ele>179.8</ele><time>2026-05-01T08:10:58Z</time></trkpt><trkpt lat="39.50449260274996" lon="8.488601465234666"><ele>178.2</ele><time>2026-05-01T08:10:59Z</time></trkpt><trkpt lat="39.50450560107209" lon="8.488476784236045"><ele>176.6</ele><time>2026-05-01T08:11:00Z</time></trkpt><trkpt lat="39.50451400690104" lon="8.488356001951546"><ele>175.0</ele><time>2026-05-01T08:11:01Z</time></trkpt><trkpt lat="39.504553679979786" lon="8.488257631369097"><ele>173.16666666666669</ele><time>2026-05-01T08:11:02Z</time></trkpt><trkpt lat="39.504621423490065" lon="8.488160369476457"><ele>171.33333333333334</ele><time>2026-05-01T08:11:02.999Z</time></trkpt><trkpt lat="39.504697591955185" lon="8.48807406804598"><ele>169.5</ele><time>2026-05-01T08:11:03.999Z</time></trkpt><trkpt lat="39.5047652749984" lon="8.488003814670732"><ele>167.66666666666666</ele><time>2026-05-01T08:11:04.999Z</time></trkpt><trkpt lat="39.50482234036235" lon="8.48792609188056"><ele>165.83333333333331</ele><time>2026-05-01T08:11:05.999Z</time></trkpt><trkpt lat="39.504855973351496" lon="8.487836275997616"><ele>164.0</ele><time>2026-05-01T08:11:06.999Z</time></trkpt><trkpt lat="39.5048849567331" lon="8.487710762090641"><ele>163.6</ele><time>2026-05-01T08:11:07.999Z</time></trkpt><trkpt lat="39.50493023302565" lon="8.487584668407687"><ele>163.2</ele><time>2026-05-01T08:11:08.999Z</time></trkpt><trkpt lat="39.50498414190705" lon="8.48748016256921"><ele>162.79999999999998</ele><time>2026-05-01T08:11:09.999Z</time></trkpt><trkpt lat="39.505022848963634" lon="8.487377357588615"><ele>162.39999999999998</ele><time>2026-05-01T08:11:10.999Z</time></trkpt><trkpt lat="39.505047177484975" lon="8.487262283220447"><ele>162.0</ele><time>2026-05-01T08:11:11.999Z</time></trkpt><trkpt lat="39.50508459995271" lon="8.487149786547674"><ele>161.16666666666666</ele><time>2026-05-01T08:11:12.999Z</time></trkpt><trkpt lat="39.505144824655986" lon="8.487068157058207"><ele>160.33333333333334</ele><time>2026-05-01T08:11:13.999Z</time></trkpt><trkpt lat="39.505198570009725" lon="8.486998050651739"><ele>159.5</ele><time>2026-05-01T08:11:14.999Z</time></trkpt><trkpt lat="39.505200906291755" lon="8.486853467428137"><ele>158.66666666666669</ele><time>2026-05-01T08:11:16.999Z</time></trkpt><trkpt lat="39.50514908257237" lon="8.486770350504756"><ele>157.83333333333334</ele><time>2026-05-01T08:11:17.999Z</time></trkpt><trkpt lat="39.505096910375045" lon="8.486702421187411"><ele>157.0</ele><time>2026-05-01T08:11:18.999Z</time></trkpt><trkpt lat="39.50510669468644" lon="8.486585926462984"><ele>157.0</ele><time>2026-05-01T08:11:20.999Z</time></trkpt><trkpt lat="39.505145473465426" lon="8.486517927453278"><ele>157.0</ele><time>2026-05-01T08:11:21.999Z</time></trkpt><trkpt lat="39.5052076357109" lon="8.486449038523828"><ele>157.0</ele><time>2026-05-01T08:11:22.999Z</time></trkpt><trkpt lat="39.505260454624484" lon="8.486373373081433"><ele>157.0</ele><time>2026-05-01T08:11:23.999Z</time></trkpt><trkpt lat="39.50529164875367" lon="8.486300301768768"><ele>157.0</ele><time>2026-05-01T08:11:24.999Z</time></trkpt><trkpt lat="39.50527607395689" lon="8.486160546696006"><ele>157.0</ele><time>2026-05-01T08:11:26.999Z</time></trkpt><trkpt lat="39.50521841826077" lon="8.486111319042985"><ele>157.0</ele><time>2026-05-01T08:11:27.999Z</time></trkpt><trkpt lat="39.50514256853263" lon="8.48610155729375"><ele>157.0</ele><time>2026-05-01T08:11:28.999Z</time></trkpt><trkpt lat="39.50507150076972" lon="8.486147094599458"><ele>157.0</ele><time>2026-05-01T08:11:29.999Z</time></trkpt><trkpt lat="39.50498631057938" lon="8.486205687553575"><ele>157.0</ele><time>2026-05-01T08:11:30.999Z</time></trkpt><trkpt lat="39.50489520024838" lon="8.486278863788145"><ele>157.0</ele><time>2026-05-01T08:11:31.999Z</time></trkpt><trkpt lat="39.504803450964" lon="8.486349792396013"><ele>157.0</ele><time>2026-05-01T08:11:32.999Z</time></trkpt><trkpt lat="39.504715264760804" lon="8.48638887981342"><ele>157.0</ele><time>2026-05-01T08:11:33.999Z</time></trkpt><trkpt lat="39.50462600331626" lon="8.486391258818703"><ele>157.0</ele><time>2026-05-01T08:11:34.999Z</time></trkpt><trkpt lat="39.504532001135786" lon="8.486362217064062"><ele>157.0</ele><time>2026-05-01T08:11:35.999Z</time></trkpt><trkpt lat="39.504440087411204" lon="8.486324928436119"><ele>157.0</ele><time>2026-05-01T08:11:36.999Z</time></trkpt><trkpt lat="39.504344041433995" lon="8.486307716762095"><ele>155.79999999999998</ele><time>2026-05-01T08:11:37.999Z</time></trkpt><trkpt lat="39.50425830870434" lon="8.486276510310173"><ele>154.6</ele><time>2026-05-01T08:11:38.999Z</time></trkpt><trkpt lat="39.50417220485719" lon="8.486210763418086"><ele>153.39999999999998</ele><time>2026-05-01T08:11:39.999Z</time></trkpt><trkpt lat="39.50408611496526" lon="8.486133356077731"><ele>152.2</ele><time>2026-05-01T08:11:40.999Z</time></trkpt><trkpt lat="39.50401605116762" lon="8.486056077111382"><ele>151.0</ele><time>2026-05-01T08:11:41.999Z</time></trkpt><trkpt lat="39.50394808076808" lon="8.486005264157422"><ele>151.0</ele><time>2026-05-01T08:11:42.999Z</time></trkpt><trkpt lat="39.50386688149264" lon="8.48600145421972"><ele>151.0</ele><time>2026-05-01T08:11:43.999Z</time></trkpt><trkpt lat="39.50379012937728" lon="8.486041955074452"><ele>151.0</ele><time>2026-05-01T08:11:44.999Z</time></trkpt><trkpt lat="39.50375173495656" lon="8.486170213695514"><ele>151.0</ele><time>2026-05-01T08:11:46.999Z</time></trkpt><trkpt lat="39.503819788481216" lon="8.486367992571646"><ele>151.0</ele><time>2026-05-01T08:11:48.999Z</time></trkpt><trkpt lat="39.503888402548306" lon="8.486479275180411"><ele>151.0</ele><time>2026-05-01T08:11:49.999Z</time></trkpt><trkpt lat="39.503922039798454" lon="8.486557502495089"><ele>151.0</ele><time>2026-05-01T08:11:50.999Z</time></trkpt><trkpt lat="39.50386758222465" lon="8.48667192044192"><ele>151.0</ele><time>2026-05-01T08:11:52.999Z</time></trkpt><trkpt lat="39.50380525570237" lon="8.486687764444596"><ele>151.0</ele><time>2026-05-01T08:11:53.999Z</time></trkpt><trkpt lat="39.503732354671776" lon="8.48664946960771"><ele>151.0</ele><time>2026-05-01T08:11:54.999Z</time></trkpt><trkpt lat="39.503636495090795" lon="8.486593667472478"><ele>151.0</ele><time>2026-05-01T08:11:55.999Z</time></trkpt><trkpt lat="39.50354297205827" lon="8.486537187902393"><ele>150.16666666666669</ele><time>2026-05-01T08:11:56.999Z</time></trkpt><trkpt lat="39.503473582083465" lon="8.486485514526807"><ele>149.33333333333334</ele><time>2026-05-01T08:11:57.999Z</time></trkpt><trkpt lat="39.50340629761256" lon="8.486422015357485"><ele>148.5</ele><time>2026-05-01T08:11:58.999Z</time></trkpt><trkpt lat="39.50331914367096" lon="8.48644081155596"><ele>147.66666666666666</ele><time>2026-05-01T08:12:00.999Z</time></trkpt><trkpt lat="39.50326132249526" lon="8.48648657152047"><ele>146.83333333333331</ele><time>2026-05-01T08:12:01.999Z</time></trkpt><trkpt lat="39.5031904935056" lon="8.486540773292784"><ele>146.0</ele><time>2026-05-01T08:12:02.999Z</time></trkpt><trkpt lat="39.503125460717996" lon="8.486597719350714"><ele>146.0</ele><time>2026-05-01T08:12:03.999Z</time></trkpt><trkpt lat="39.50302715200327" lon="8.486668844026894"><ele>146.0</ele><time>2026-05-01T08:12:05.999Z</time></trkpt><trkpt lat="39.502963083654784" lon="8.486560077515193"><ele>146.0</ele><time>2026-05-01T08:12:07.999Z</time></trkpt><trkpt lat="39.50297887469586" lon="8.486395736311918"><ele>146.0</ele><time>2026-05-01T08:12:09.998Z</time></trkpt><trkpt lat="39.503025891340826" lon="8.486310298601028"><ele>146.0</ele><time>2026-05-01T08:12:10.998Z</time></trkpt><trkpt lat="39.50307355124341" lon="8.486228891378845"><ele>143.6</ele><time>2026-05-01T08:12:11.998Z</time></trkpt><trkpt lat="39.50311888607308" lon="8.486141116102344"><ele>141.2</ele><time>2026-05-01T08:12:12.998Z</time></trkpt><trkpt lat="39.50316261697585" lon="8.485999417396785"><ele>138.8</ele><time>2026-05-01T08:12:13.998Z</time></trkpt><trkpt lat="39.503192772589095" lon="8.48587039030925"><ele>136.4</ele><time>2026-05-01T08:12:14.998Z</time></trkpt><trkpt lat="39.503202283255" lon="8.485755867964365"><ele>134.0</ele><time>2026-05-01T08:12:15.998Z</time></trkpt><trkpt lat="39.503187901832376" lon="8.48564636082673"><ele>134.0</ele><time>2026-05-01T08:12:16.998Z</time></trkpt><trkpt lat="39.503154668388774" lon="8.485551313671227"><ele>134.0</ele><time>2026-05-01T08:12:17.998Z</time></trkpt><trkpt lat="39.50311436202032" lon="8.485471533912495"><ele>134.0</ele><time>2026-05-01T08:12:18.998Z</time></trkpt><trkpt lat="39.50302277624323" lon="8.4854079686129"><ele>134.0</ele><time>2026-05-01T08:12:20.998Z</time></trkpt><trkpt lat="39.50300725197586" lon="8.485251570336057"><ele>134.0</ele><time>2026-05-01T08:12:22.998Z</time></trkpt><trkpt lat="39.50309611312673" lon="8.485186886171295"><ele>132.83333333333331</ele><time>2026-05-01T08:12:24.998Z</time></trkpt><trkpt lat="39.50313525847762" lon="8.485121982105523"><ele>131.66666666666666</ele><time>2026-05-01T08:12:25.998Z</time></trkpt><trkpt lat="39.50317482287399" lon="8.485018824581068"><ele>130.5</ele><time>2026-05-01T08:12:26.998Z</time></trkpt><trkpt lat="39.50321615118979" lon="8.484916892159017"><ele>129.33333333333334</ele><time>2026-05-01T08:12:27.998Z</time></trkpt><trkpt lat="39.503258462214625" lon="8.484840307305829"><ele>128.16666666666669</ele><time>2026-05-01T08:12:28.998Z</time></trkpt><trkpt lat="39.5033310123589" lon="8.484729639945655"><ele>127.0</ele><time>2026-05-01T08:12:30.998Z</time></trkpt><trkpt lat="39.50330868777749" lon="8.484647768723272"><ele>126.50000000000001</ele><time>2026-05-01T08:12:31.998Z</time></trkpt><trkpt lat="39.503263282373354" lon="8.48455654921753"><ele>126.0</ele><time>2026-05-01T08:12:32.998Z</time></trkpt><trkpt lat="39.50322304048076" lon="8.484449114901741"><ele>125.5</ele><time>2026-05-01T08:12:33.998Z</time></trkpt><trkpt lat="39.50317644446939" lon="8.484334610261037"><ele>125.0</ele><time>2026-05-01T08:12:34.998Z</time></trkpt><trkpt lat="39.503118208886605" lon="8.48426169642957"><ele>124.50000000000001</ele><time>2026-05-01T08:12:35.998Z</time></trkpt><trkpt lat="39.50304552222609" lon="8.484223259728944"><ele>124.0</ele><time>2026-05-01T08:12:36.998Z</time></trkpt><trkpt lat="39.502975014705044" lon="8.484218387191314"><ele>124.0</ele><time>2026-05-01T08:12:37.998Z</time></trkpt><trkpt lat="39.50291794130267" lon="8.484178048897846"><ele>124.0</ele><time>2026-05-01T08:12:40.998Z</time></trkpt><trkpt lat="39.502950533429384" lon="8.484029700039873"><ele>124.0</ele><time>2026-05-01T08:12:42.998Z</time></trkpt><trkpt lat="39.50299401526871" lon="8.48393230747591"><ele>124.0</ele><time>2026-05-01T08:12:43.998Z</time></trkpt><trkpt lat="39.50305095174705" lon="8.483837220138465"><ele>124.0</ele><time>2026-05-01T08:12:44.998Z</time></trkpt><trkpt lat="39.50310027016167" lon="8.48374078580746"><ele>122.6</ele><time>2026-05-01T08:12:45.998Z</time></trkpt><trkpt lat="39.50313337347014" lon="8.483603533510015"><ele>121.2</ele><time>2026-05-01T08:12:46.998Z</time></trkpt><trkpt lat="39.503152950344685" lon="8.483485724836761"><ele>119.79999999999998</ele><time>2026-05-01T08:12:48Z</time></trkpt><trkpt lat="39.50317530783862" lon="8.48337294953545"><ele>118.39999999999999</ele><time>2026-05-01T08:12:49Z</time></trkpt><trkpt lat="39.50317561234118" lon="8.483257450668983"><ele>117.0</ele><time>2026-05-01T08:12:49.999Z</time></trkpt><trkpt lat="39.5031901966013" lon="8.483128368595185"><ele>117.0</ele><time>2026-05-01T08:12:51Z</time></trkpt><trkpt lat="39.50321139916463" lon="8.483003876976895"><ele>117.0</ele><time>2026-05-01T08:12:52Z</time></trkpt><trkpt lat="39.50313626260431" lon="8.48291231227957"><ele>117.0</ele><time>2026-05-01T08:12:54Z</time></trkpt><trkpt lat="39.50310570172393" lon="8.482997898239473"><ele>117.0</ele><time>2026-05-01T08:12:58.999Z</time></trkpt><trkpt lat="39.5030311283403" lon="8.48304614295574"><ele>117.0</ele><time>2026-05-01T08:13:00Z</time></trkpt><trkpt lat="39.502964505717834" lon="8.483094008479652"><ele>117.0</ele><time>2026-05-01T08:13:01Z</time></trkpt><trkpt lat="39.502897067221035" lon="8.483143480119551"><ele>117.0</ele><time>2026-05-01T08:13:01.999Z</time></trkpt><trkpt lat="39.50283990973852" lon="8.48320217434334"><ele>117.0</ele><time>2026-05-01T08:13:02.999Z</time></trkpt><trkpt lat="39.50279010495611" lon="8.483287603131341"><ele>117.0</ele><time>2026-05-01T08:13:03.999Z</time></trkpt><trkpt lat="39.50273349555052" lon="8.483370067795617"><ele>117.0</ele><time>2026-05-01T08:13:04.999Z</time></trkpt><trkpt lat="39.5026456887186" lon="8.483433094169069"><ele>117.0</ele><time>2026-05-01T08:13:05.999Z</time></trkpt><trkpt lat="39.50255509448079" lon="8.483487559738478"><ele>117.0</ele><time>2026-05-01T08:13:06.999Z</time></trkpt><trkpt lat="39.50246855520546" lon="8.483523449061606"><ele>117.0</ele><time>2026-05-01T08:13:07.999Z</time></trkpt><trkpt lat="39.50234812210726" lon="8.483532954796011"><ele>116.99999999999999</ele><time>2026-05-01T08:13:08.999Z</time></trkpt><trkpt lat="39.50223394372599" lon="8.483547480328971"><ele>116.99999999999999</ele><time>2026-05-01T08:13:09.999Z</time></trkpt><trkpt lat="39.50214022363638" lon="8.483572274534287"><ele>117.0</ele><time>2026-05-01T08:13:10.999Z</time></trkpt><trkpt lat="39.502049831977544" lon="8.483616739893648"><ele>117.0</ele><time>2026-05-01T08:13:11.999Z</time></trkpt><trkpt lat="39.50194997306988" lon="8.483597959208096"><ele>116.5</ele><time>2026-05-01T08:13:12.999Z</time></trkpt><trkpt lat="39.50184896971256" lon="8.483594846500239"><ele>116.0</ele><time>2026-05-01T08:13:13.999Z</time></trkpt><trkpt lat="39.50173312709553" lon="8.483577920299028"><ele>115.5</ele><time>2026-05-01T08:13:14.999Z</time></trkpt><trkpt lat="39.50166100042472" lon="8.483563281424898"><ele>115.0</ele><time>2026-05-01T08:13:15.999Z</time></trkpt><trkpt lat="39.50160055958133" lon="8.48353712899483"><ele>114.5</ele><time>2026-05-01T08:13:16.999Z</time></trkpt><trkpt lat="39.50153137882882" lon="8.483494174481141"><ele>114.0</ele><time>2026-05-01T08:13:17.999Z</time></trkpt><trkpt lat="39.50145517991292" lon="8.483438814251423"><ele>114.0</ele><time>2026-05-01T08:13:18.999Z</time></trkpt><trkpt lat="39.50136233651231" lon="8.483367701675629"><ele>114.0</ele><time>2026-05-01T08:13:19.999Z</time></trkpt><trkpt lat="39.50127739471806" lon="8.483300080759587"><ele>114.0</ele><time>2026-05-01T08:13:20.999Z</time></trkpt><trkpt lat="39.501188182851465" lon="8.483232465988745"><ele>114.0</ele><time>2026-05-01T08:13:21.999Z</time></trkpt><trkpt lat="39.50109907404219" lon="8.483180849679957"><ele>114.0</ele><time>2026-05-01T08:13:22.999Z</time></trkpt><trkpt lat="39.500984524901995" lon="8.483116019305234"><ele>113.25</ele><time>2026-05-01T08:13:23.999Z</time></trkpt><trkpt lat="39.50083766610888" lon="8.483033556492206"><ele>112.5</ele><time>2026-05-01T08:13:24.999Z</time></trkpt><trkpt lat="39.5007169329793" lon="8.482942026860721"><ele>111.75</ele><time>2026-05-01T08:13:25.999Z</time></trkpt><trkpt lat="39.500624261857105" lon="8.482866212976981"><ele>111.0</ele><time>2026-05-01T08:13:26.999Z</time></trkpt><trkpt lat="39.500548301518194" lon="8.482806113759825"><ele>111.0</ele><time>2026-05-01T08:13:27.999Z</time></trkpt><trkpt lat="39.50047363532752" lon="8.482759297196159"><ele>111.0</ele><time>2026-05-01T08:13:28.999Z</time></trkpt><trkpt lat="39.50037798917483" lon="8.482730662580781"><ele>111.0</ele><time>2026-05-01T08:13:29.999Z</time></trkpt><trkpt lat="39.50027959934762" lon="8.482699638888985"><ele>111.0</ele><time>2026-05-01T08:13:30.999Z</time></trkpt><trkpt lat="39.500191690517376" lon="8.482660906249825"><ele>111.0</ele><time>2026-05-01T08:13:31.999Z</time></trkpt><trkpt lat="39.50010816104035" lon="8.482643393010878"><ele>112.6</ele><time>2026-05-01T08:13:32.999Z</time></trkpt><trkpt lat="39.50004165536833" lon="8.48262784503213"><ele>114.19999999999999</ele><time>2026-05-01T08:13:33.999Z</time></trkpt><trkpt lat="39.49996533822905" lon="8.482604304847298"><ele>115.80000000000001</ele><time>2026-05-01T08:13:34.999Z</time></trkpt><trkpt lat="39.49986605604006" lon="8.482571169267613"><ele>117.4</ele><time>2026-05-01T08:13:35.999Z</time></trkpt><trkpt lat="39.49974990815131" lon="8.482522194886107"><ele>119.0</ele><time>2026-05-01T08:13:36.999Z</time></trkpt><trkpt lat="39.499613088973376" lon="8.48248803654776"><ele>122.5</ele><time>2026-05-01T08:13:37.999Z</time></trkpt><trkpt lat="39.49950236979707" lon="8.482449338980578"><ele>126.0</ele><time>2026-05-01T08:13:38.999Z</time></trkpt><trkpt lat="39.49939763901477" lon="8.482408959092453"><ele>129.5</ele><time>2026-05-01T08:13:39.999Z</time></trkpt><trkpt lat="39.49928691075373" lon="8.482357226235731"><ele>133.0</ele><time>2026-05-01T08:13:40.999Z</time></trkpt><trkpt lat="39.49917841144572" lon="8.482304243224105"><ele>133.0</ele><time>2026-05-01T08:13:41.999Z</time></trkpt><trkpt lat="39.49906668512188" lon="8.48224617593747"><ele>133.0</ele><time>2026-05-01T08:13:42.999Z</time></trkpt><trkpt lat="39.49896089929749" lon="8.482183543324366"><ele>133.0</ele><time>2026-05-01T08:13:43.999Z</time></trkpt><trkpt lat="39.49886795053577" lon="8.482119882295706"><ele>133.0</ele><time>2026-05-01T08:13:44.999Z</time></trkpt><trkpt lat="39.4987604298354" lon="8.482040637766275"><ele>131.0</ele><time>2026-05-01T08:13:45.999Z</time></trkpt><trkpt lat="39.49867590062672" lon="8.481967943591432"><ele>129.0</ele><time>2026-05-01T08:13:46.999Z</time></trkpt><trkpt lat="39.498594902875354" lon="8.481879394020357"><ele>127.00000000000001</ele><time>2026-05-01T08:13:47.999Z</time></trkpt><trkpt lat="39.49850343515284" lon="8.481808005981044"><ele>125.0</ele><time>2026-05-01T08:13:48.999Z</time></trkpt><trkpt lat="39.4984225832207" lon="8.481791488407222"><ele>123.0</ele><time>2026-05-01T08:13:49.999Z</time></trkpt><trkpt lat="39.49831914642593" lon="8.481799240434627"><ele>123.0</ele><time>2026-05-01T08:13:51.999Z</time></trkpt><trkpt lat="39.49822716154051" lon="8.481890695734107"><ele>123.0</ele><time>2026-05-01T08:13:53.999Z</time></trkpt><trkpt lat="39.49818812366347" lon="8.482014853586598"><ele>123.0</ele><time>2026-05-01T08:13:55.999Z</time></trkpt><trkpt lat="39.49811775500378" lon="8.482181233706445"><ele>123.0</ele><time>2026-05-01T08:13:57.999Z</time></trkpt><trkpt lat="39.49807000609569" lon="8.482275054208115"><ele>124.0</ele><time>2026-05-01T08:13:58.999Z</time></trkpt><trkpt lat="39.49801395173017" lon="8.482359346152757"><ele>125.0</ele><time>2026-05-01T08:13:59.999Z</time></trkpt><trkpt lat="39.49793367866878" lon="8.48239902184395"><ele>126.0</ele><time>2026-05-01T08:14:00.999Z</time></trkpt><trkpt lat="39.49786591879838" lon="8.482439090149596"><ele>127.0</ele><time>2026-05-01T08:14:01.999Z</time></trkpt><trkpt lat="39.49781402594266" lon="8.482488668825702"><ele>128.0</ele><time>2026-05-01T08:14:04.999Z</time></trkpt><trkpt lat="39.49776027012869" lon="8.482591777253118"><ele>129.0</ele><time>2026-05-01T08:14:17.998Z</time></trkpt><trkpt lat="39.49774763776964" lon="8.482783421397126"><ele>129.0</ele><time>2026-05-01T08:14:19.998Z</time></trkpt><trkpt lat="39.49772590473307" lon="8.482890783850353"><ele>129.0</ele><time>2026-05-01T08:14:20.998Z</time></trkpt><trkpt lat="39.497699966546996" lon="8.482980797186423"><ele>129.0</ele><time>2026-05-01T08:14:21.998Z</time></trkpt><trkpt lat="39.497674103481835" lon="8.483146190311016"><ele>129.0</ele><time>2026-05-01T08:14:23.998Z</time></trkpt><trkpt lat="39.49769784649324" lon="8.48324817345935"><ele>129.0</ele><time>2026-05-01T08:14:24.998Z</time></trkpt><trkpt lat="39.49772525558061" lon="8.483325679551754"><ele>129.0</ele><time>2026-05-01T08:14:25.998Z</time></trkpt><trkpt lat="39.49776287008026" lon="8.483406728001537"><ele>130.4</ele><time>2026-05-01T08:14:26.998Z</time></trkpt><trkpt lat="39.49781490389426" lon="8.483521272573888"><ele>131.8</ele><time>2026-05-01T08:14:27.998Z</time></trkpt><trkpt lat="39.497870018824365" lon="8.48363362080086"><ele>133.2</ele><time>2026-05-01T08:14:28.998Z</time></trkpt><trkpt lat="39.49792400915718" lon="8.483732728306975"><ele>134.6</ele><time>2026-05-01T08:14:29.998Z</time></trkpt><trkpt lat="39.49800202891939" lon="8.483834400574345"><ele>136.0</ele><time>2026-05-01T08:14:30.998Z</time></trkpt><trkpt lat="39.4980522266567" lon="8.483958308269589"><ele>136.6</ele><time>2026-05-01T08:14:31.998Z</time></trkpt><trkpt lat="39.498111893529824" lon="8.484083897324341"><ele>137.2</ele><time>2026-05-01T08:14:32.998Z</time></trkpt><trkpt lat="39.498164241827446" lon="8.484208922164248"><ele>137.8</ele><time>2026-05-01T08:14:33.998Z</time></trkpt><trkpt lat="39.49819986071938" lon="8.48432609069403"><ele>138.4</ele><time>2026-05-01T08:14:34.998Z</time></trkpt><trkpt lat="39.49821689814995" lon="8.484438745062295"><ele>139.0</ele><time>2026-05-01T08:14:35.998Z</time></trkpt><trkpt lat="39.49823065374814" lon="8.484562581621477"><ele>140.0</ele><time>2026-05-01T08:14:36.998Z</time></trkpt><trkpt lat="39.49825394863843" lon="8.484709343685624"><ele>141.0</ele><time>2026-05-01T08:14:37.998Z</time></trkpt><trkpt lat="39.49825289096098" lon="8.484883432658231"><ele>142.0</ele><time>2026-05-01T08:14:38.998Z</time></trkpt><trkpt lat="39.49825655393683" lon="8.485048431165907"><ele>143.0</ele><time>2026-05-01T08:14:39.998Z</time></trkpt><trkpt lat="39.49825210020215" lon="8.485187484324152"><ele>143.0</ele><time>2026-05-01T08:14:40.998Z</time></trkpt><trkpt lat="39.498239941222636" lon="8.485302788747981"><ele>143.0</ele><time>2026-05-01T08:14:41.998Z</time></trkpt><trkpt lat="39.498245386014105" lon="8.485405150845708"><ele>143.0</ele><time>2026-05-01T08:14:42.998Z</time></trkpt><trkpt lat="39.498334710472086" lon="8.485542127964749"><ele>143.0</ele><time>2026-05-01T08:14:44.998Z</time></trkpt><trkpt lat="39.49836281347114" lon="8.4856456500609"><ele>143.0</ele><time>2026-05-01T08:14:45.998Z</time></trkpt><trkpt lat="39.49840067038722" lon="8.485734619457903"><ele>143.0</ele><time>2026-05-01T08:14:46.998Z</time></trkpt><trkpt lat="39.49842747545223" lon="8.485825843287172"><ele>143.0</ele><time>2026-05-01T08:14:47.998Z</time></trkpt><trkpt lat="39.49855784389535" lon="8.4859483942898"><ele>143.0</ele><time>2026-05-01T08:14:49.998Z</time></trkpt><trkpt lat="39.49864536140575" lon="8.48602498315607"><ele>143.0</ele><time>2026-05-01T08:14:50.998Z</time></trkpt><trkpt lat="39.4987020045167" lon="8.486124604875068"><ele>143.0</ele><time>2026-05-01T08:14:51.998Z</time></trkpt><trkpt lat="39.498711609094" lon="8.48623440224593"><ele>146.0</ele><time>2026-05-01T08:14:52.998Z</time></trkpt><trkpt lat="39.49868740803576" lon="8.486358633965438"><ele>149.0</ele><time>2026-05-01T08:14:53.999Z</time></trkpt><trkpt lat="39.49866848865188" lon="8.486515483799925"><ele>152.0</ele><time>2026-05-01T08:14:54.999Z</time></trkpt><trkpt lat="39.498665826423554" lon="8.48667609791032"><ele>155.0</ele><time>2026-05-01T08:14:55.999Z</time></trkpt><trkpt lat="39.49869091601681" lon="8.48682997364489"><ele>155.0</ele><time>2026-05-01T08:14:56.999Z</time></trkpt><trkpt lat="39.49871332852713" lon="8.486967767048174"><ele>155.0</ele><time>2026-05-01T08:14:57.999Z</time></trkpt><trkpt lat="39.498739423157204" lon="8.487082837733585"><ele>155.0</ele><time>2026-05-01T08:14:58.999Z</time></trkpt><trkpt lat="39.49874182537714" lon="8.487191612789113"><ele>155.0</ele><time>2026-05-01T08:14:59.999Z</time></trkpt><trkpt lat="39.498725018434264" lon="8.487312106818171"><ele>155.0</ele><time>2026-05-01T08:15:00.999Z</time></trkpt><trkpt lat="39.4987009726358" lon="8.48743561409099"><ele>156.33333333333331</ele><time>2026-05-01T08:15:01.999Z</time></trkpt><trkpt lat="39.498677669380285" lon="8.487548791878252"><ele>157.66666666666666</ele><time>2026-05-01T08:15:02.999Z</time></trkpt><trkpt lat="39.49866412932977" lon="8.487658332267898"><ele>159.0</ele><time>2026-05-01T08:15:03.999Z</time></trkpt><trkpt lat="39.49864683781276" lon="8.487762619839634"><ele>160.33333333333334</ele><time>2026-05-01T08:15:04.999Z</time></trkpt><trkpt lat="39.49859929236698" lon="8.487853987163426"><ele>161.66666666666669</ele><time>2026-05-01T08:15:05.999Z</time></trkpt><trkpt lat="39.49852170184038" lon="8.48793871973495"><ele>163.0</ele><time>2026-05-01T08:15:06.999Z</time></trkpt><trkpt lat="39.49843607431116" lon="8.488043233643365"><ele>163.0</ele><time>2026-05-01T08:15:07.999Z</time></trkpt><trkpt lat="39.4983706263166" lon="8.488163024704667"><ele>163.0</ele><time>2026-05-01T08:15:08.999Z</time></trkpt><trkpt lat="39.49829890068497" lon="8.488305771239819"><ele>163.0</ele><time>2026-05-01T08:15:09.999Z</time></trkpt><trkpt lat="39.49822601274008" lon="8.48847348045206"><ele>163.0</ele><time>2026-05-01T08:15:10.999Z</time></trkpt><trkpt lat="39.49816110633322" lon="8.488643301076909"><ele>162.5</ele><time>2026-05-01T08:15:11.999Z</time></trkpt><trkpt lat="39.49810305414398" lon="8.488796360381846"><ele>162.0</ele><time>2026-05-01T08:15:12.999Z</time></trkpt><trkpt lat="39.498044059696944" lon="8.488941251123224"><ele>161.5</ele><time>2026-05-01T08:15:13.999Z</time></trkpt><trkpt lat="39.49797705339695" lon="8.48909990116117"><ele>161.0</ele><time>2026-05-01T08:15:14.999Z</time></trkpt><trkpt lat="39.497904116826724" lon="8.489252512835174"><ele>163.66666666666666</ele><time>2026-05-01T08:15:15.999Z</time></trkpt><trkpt lat="39.49784324815372" lon="8.48937909987885"><ele>166.33333333333331</ele><time>2026-05-01T08:15:16.999Z</time></trkpt><trkpt lat="39.49779660728374" lon="8.48948608845214"><ele>169.0</ele><time>2026-05-01T08:15:17.999Z</time></trkpt><trkpt lat="39.497749269805915" lon="8.489580993041448"><ele>171.66666666666666</ele><time>2026-05-01T08:15:18.999Z</time></trkpt><trkpt lat="39.49769334369849" lon="8.489651005763632"><ele>174.33333333333334</ele><time>2026-05-01T08:15:19.999Z</time></trkpt><trkpt lat="39.49764979750904" lon="8.48971545034949"><ele>177.0</ele><time>2026-05-01T08:15:20.999Z</time></trkpt><trkpt lat="39.49757711426515" lon="8.489846349988115"><ele>177.0</ele><time>2026-05-01T08:15:22.999Z</time></trkpt><trkpt lat="39.49756867333716" lon="8.490002382945468"><ele>177.0</ele><time>2026-05-01T08:15:24.999Z</time></trkpt><trkpt lat="39.49756979688253" lon="8.490086051637773"><ele>177.0</ele><time>2026-05-01T08:15:25.999Z</time></trkpt><trkpt lat="39.49754881224274" lon="8.490177809977974"><ele>177.0</ele><time>2026-05-01T08:15:26.999Z</time></trkpt><trkpt lat="39.49752462428906" lon="8.490299567855148"><ele>177.0</ele><time>2026-05-01T08:15:27.999Z</time></trkpt><trkpt lat="39.49745624955644" lon="8.490373575275774"><ele>177.0</ele><time>2026-05-01T08:15:28.999Z</time></trkpt><trkpt lat="39.497394456998734" lon="8.490413090279194"><ele>175.85714285714286</ele><time>2026-05-01T08:15:29.999Z</time></trkpt><trkpt lat="39.49732102096261" lon="8.490446827828046"><ele>174.7142857142857</ele><time>2026-05-01T08:15:30.999Z</time></trkpt><trkpt lat="39.49725148561055" lon="8.490486312495744"><ele>173.57142857142856</ele><time>2026-05-01T08:15:31.999Z</time></trkpt><trkpt lat="39.497189969145744" lon="8.490521243750168"><ele>172.42857142857144</ele><time>2026-05-01T08:15:32.999Z</time></trkpt><trkpt lat="39.49713497737864" lon="8.490573237797864"><ele>171.28571428571428</ele><time>2026-05-01T08:15:33.999Z</time></trkpt><trkpt lat="39.497092674395105" lon="8.490643220593151"><ele>170.14285714285714</ele><time>2026-05-01T08:15:34.999Z</time></trkpt><trkpt lat="39.497077523551305" lon="8.490751944127211"><ele>169.0</ele><time>2026-05-01T08:15:35.999Z</time></trkpt><trkpt lat="39.49704761616302" lon="8.490858443339322"><ele>171.5</ele><time>2026-05-01T08:15:36.999Z</time></trkpt><trkpt lat="39.497002973706934" lon="8.490944731034444"><ele>174.0</ele><time>2026-05-01T08:15:37.999Z</time></trkpt><trkpt lat="39.496933979902316" lon="8.490990751460378"><ele>176.5</ele><time>2026-05-01T08:15:38.999Z</time></trkpt><trkpt lat="39.49686770893233" lon="8.491067083797464"><ele>179.0</ele><time>2026-05-01T08:15:39.999Z</time></trkpt><trkpt lat="39.496798272454335" lon="8.491131959512966"><ele>181.5</ele><time>2026-05-01T08:15:40.999Z</time></trkpt><trkpt lat="39.4967292890411" lon="8.491210583157544"><ele>184.0</ele><time>2026-05-01T08:15:41.999Z</time></trkpt><trkpt lat="39.49664480102769" lon="8.491283672415394"><ele>184.0</ele><time>2026-05-01T08:15:42.999Z</time></trkpt><trkpt lat="39.49657180030268" lon="8.491375755836268"><ele>184.0</ele><time>2026-05-01T08:15:43.999Z</time></trkpt><trkpt lat="39.496529594291594" lon="8.491474407099156"><ele>184.0</ele><time>2026-05-01T08:15:44.999Z</time></trkpt><trkpt lat="39.496466091890774" lon="8.49152111563838"><ele>184.0</ele><time>2026-05-01T08:15:45.999Z</time></trkpt><trkpt lat="39.49634745181515" lon="8.491577416497075"><ele>184.0</ele><time>2026-05-01T08:15:47.999Z</time></trkpt><trkpt lat="39.49630071472179" lon="8.491649571865782"><ele>184.0</ele><time>2026-05-01T08:15:48.999Z</time></trkpt><trkpt lat="39.496271425259096" lon="8.491741457292589"><ele>184.0</ele><time>2026-05-01T08:15:49.999Z</time></trkpt><trkpt lat="39.49625360440853" lon="8.491826516418216"><ele>184.0</ele><time>2026-05-01T08:15:50.999Z</time></trkpt><trkpt lat="39.49617628618316" lon="8.491943161025196"><ele>184.0</ele><time>2026-05-01T08:15:52.999Z</time></trkpt><trkpt lat="39.49607770141544" lon="8.491962420681915"><ele>184.0</ele><time>2026-05-01T08:15:54.999Z</time></trkpt><trkpt lat="39.496007795920306" lon="8.4919817049507"><ele>184.0</ele><time>2026-05-01T08:15:55.999Z</time></trkpt><trkpt lat="39.49592934012676" lon="8.492046613210064"><ele>186.83333333333334</ele><time>2026-05-01T08:15:57.999Z</time></trkpt><trkpt lat="39.49595489446034" lon="8.492161708401705"><ele>189.66666666666669</ele><time>2026-05-01T08:15:58.999Z</time></trkpt><trkpt lat="39.49598996113742" lon="8.492261823747501"><ele>192.5</ele><time>2026-05-01T08:15:59.999Z</time></trkpt><trkpt lat="39.49600788247886" lon="8.492348930908307"><ele>195.33333333333334</ele><time>2026-05-01T08:16:00.999Z</time></trkpt><trkpt lat="39.495963295129194" lon="8.492414348635263"><ele>198.16666666666666</ele><time>2026-05-01T08:16:01.999Z</time></trkpt><trkpt lat="39.495900696480376" lon="8.492488196991209"><ele>201.0</ele><time>2026-05-01T08:16:02.999Z</time></trkpt><trkpt lat="39.49584680406597" lon="8.49256479590553"><ele>201.0</ele><time>2026-05-01T08:16:03.999Z</time></trkpt><trkpt lat="39.495793754441124" lon="8.492632458525195"><ele>201.0</ele><time>2026-05-01T08:16:04.999Z</time></trkpt><trkpt lat="39.495732932765236" lon="8.492674959577728"><ele>201.0</ele><time>2026-05-01T08:16:05.999Z</time></trkpt><trkpt lat="39.49565683640954" lon="8.492704311748332"><ele>201.0</ele><time>2026-05-01T08:16:06.999Z</time></trkpt><trkpt lat="39.49556315206387" lon="8.492716011151757"><ele>201.0</ele><time>2026-05-01T08:16:07.999Z</time></trkpt><trkpt lat="39.49548933576878" lon="8.492750933512944"><ele>201.0</ele><time>2026-05-01T08:16:08.999Z</time></trkpt><trkpt lat="39.49543194157682" lon="8.492803775278395"><ele>200.83333333333334</ele><time>2026-05-01T08:16:09.999Z</time></trkpt><trkpt lat="39.49539611001743" lon="8.492912973877027"><ele>200.66666666666669</ele><time>2026-05-01T08:16:11.999Z</time></trkpt><trkpt lat="39.495428569667425" lon="8.492995132027556"><ele>200.5</ele><time>2026-05-01T08:16:12.999Z</time></trkpt><trkpt lat="39.49549658547973" lon="8.493050143918193"><ele>200.33333333333334</ele><time>2026-05-01T08:16:13.999Z</time></trkpt><trkpt lat="39.49553300977717" lon="8.49312682226309"><ele>200.16666666666669</ele><time>2026-05-01T08:16:14.999Z</time></trkpt><trkpt lat="39.49556830541214" lon="8.493234252838551"><ele>200.0</ele><time>2026-05-01T08:16:16.999Z</time></trkpt><trkpt lat="39.49550639779284" lon="8.493290409711554"><ele>200.00000000000003</ele><time>2026-05-01T08:16:17.998Z</time></trkpt><trkpt lat="39.4954596776925" lon="8.493384199476644"><ele>200.0</ele><time>2026-05-01T08:16:18.998Z</time></trkpt><trkpt lat="39.49543244318863" lon="8.493493394051539"><ele>200.0</ele><time>2026-05-01T08:16:19.998Z</time></trkpt><trkpt lat="39.49541546823293" lon="8.493613030144017"><ele>200.0</ele><time>2026-05-01T08:16:20.998Z</time></trkpt><trkpt lat="39.49539317404001" lon="8.493721045493158"><ele>200.00000000000003</ele><time>2026-05-01T08:16:21.998Z</time></trkpt><trkpt lat="39.4953570123134" lon="8.493809405314211"><ele>200.0</ele><time>2026-05-01T08:16:22.998Z</time></trkpt><trkpt lat="39.49529613763602" lon="8.493878171691815"><ele>204.00000000000003</ele><time>2026-05-01T08:16:23.998Z</time></trkpt><trkpt lat="39.49524314885249" lon="8.493947557486997"><ele>208.0</ele><time>2026-05-01T08:16:24.998Z</time></trkpt><trkpt lat="39.49518718011753" lon="8.494025972548059"><ele>212.0</ele><time>2026-05-01T08:16:25.998Z</time></trkpt><trkpt lat="39.495120366751905" lon="8.494096169227145"><ele>216.0</ele><time>2026-05-01T08:16:26.998Z</time></trkpt><trkpt lat="39.4950527820857" lon="8.494108608886473"><ele>220.00000000000003</ele><time>2026-05-01T08:16:27.998Z</time></trkpt><trkpt lat="39.494970754065" lon="8.494159882449466"><ele>224.0</ele><time>2026-05-01T08:16:29.998Z</time></trkpt><trkpt lat="39.49495412372156" lon="8.49424951953772"><ele>224.00000000000003</ele><time>2026-05-01T08:16:30.998Z</time></trkpt><trkpt lat="39.49496216870023" lon="8.494349810002996"><ele>224.0</ele><time>2026-05-01T08:16:31.998Z</time></trkpt><trkpt lat="39.4949727619087" lon="8.494444137457794"><ele>224.0</ele><time>2026-05-01T08:16:32.998Z</time></trkpt><trkpt lat="39.49497347278357" lon="8.494556418598304"><ele>224.0</ele><time>2026-05-01T08:16:34.998Z</time></trkpt><trkpt lat="39.49495655260216" lon="8.49469475674598"><ele>224.00000000000003</ele><time>2026-05-01T08:16:36.998Z</time></trkpt><trkpt lat="39.49494594122593" lon="8.494786823893792"><ele>224.0</ele><time>2026-05-01T08:16:37.998Z</time></trkpt><trkpt lat="39.49493572969418" lon="8.49488060877695"><ele>224.39999999999998</ele><time>2026-05-01T08:16:38.998Z</time></trkpt><trkpt lat="39.49493013601778" lon="8.494976249866097"><ele>224.79999999999998</ele><time>2026-05-01T08:16:39.998Z</time></trkpt><trkpt lat="39.494933879339875" lon="8.49509493092071"><ele>225.20000000000002</ele><time>2026-05-01T08:16:40.998Z</time></trkpt><trkpt lat="39.494939089456295" lon="8.495230312435377"><ele>225.60000000000002</ele><time>2026-05-01T08:16:41.998Z</time></trkpt><trkpt lat="39.49494849505978" lon="8.495361326132604"><ele>226.0</ele><time>2026-05-01T08:16:42.998Z</time></trkpt><trkpt lat="39.49495131065127" lon="8.495468918796167"><ele>227.83333333333331</ele><time>2026-05-01T08:16:43.998Z</time></trkpt><trkpt lat="39.494969273590144" lon="8.495547638443554"><ele>229.66666666666666</ele><time>2026-05-01T08:16:44.998Z</time></trkpt><trkpt lat="39.49499377869533" lon="8.495630330473116"><ele>231.5</ele><time>2026-05-01T08:16:45.998Z</time></trkpt><trkpt lat="39.49503030604924" lon="8.495714168185762"><ele>233.33333333333331</ele><time>2026-05-01T08:16:46.998Z</time></trkpt><trkpt lat="39.495062330558966" lon="8.495813283447722"><ele>235.16666666666666</ele><time>2026-05-01T08:16:47.998Z</time></trkpt><trkpt lat="39.49510405649222" lon="8.495922530937072"><ele>237.0</ele><time>2026-05-01T08:16:48.998Z</time></trkpt><trkpt lat="39.49513398409585" lon="8.496043645929287"><ele>237.0</ele><time>2026-05-01T08:16:49.998Z</time></trkpt><trkpt lat="39.49515088601552" lon="8.496162753971802"><ele>237.0</ele><time>2026-05-01T08:16:50.998Z</time></trkpt><trkpt lat="39.49516586149292" lon="8.496288425579008"><ele>237.0</ele><time>2026-05-01T08:16:51.998Z</time></trkpt><trkpt lat="39.49517346686217" lon="8.496396032039243"><ele>237.0</ele><time>2026-05-01T08:16:52.998Z</time></trkpt><trkpt lat="39.495173201551474" lon="8.49654754296677"><ele>237.0</ele><time>2026-05-01T08:16:54.998Z</time></trkpt><trkpt lat="39.49514725997184" lon="8.496648853270667"><ele>237.0</ele><time>2026-05-01T08:16:56.998Z</time></trkpt><trkpt lat="39.49505979667054" lon="8.496619895786479"><ele>237.0</ele><time>2026-05-01T08:16:59.999Z</time></trkpt><trkpt lat="39.49506618600805" lon="8.49653422390273"><ele>237.0</ele><time>2026-05-01T08:17:01.999Z</time></trkpt><trkpt lat="39.49499750359782" lon="8.496219471500503"><ele>237.0</ele><time>2026-05-01T08:17:04.999Z</time></trkpt><trkpt lat="39.494957944504904" lon="8.496107452911914"><ele>237.0</ele><time>2026-05-01T08:17:05.999Z</time></trkpt><trkpt lat="39.49491516212186" lon="8.496031023043138"><ele>237.0</ele><time>2026-05-01T08:17:06.999Z</time></trkpt><trkpt lat="39.494871430808715" lon="8.495961860734058"><ele>237.0</ele><time>2026-05-01T08:17:07.999Z</time></trkpt><trkpt lat="39.494792541482056" lon="8.4959241118723"><ele>237.0</ele><time>2026-05-01T08:17:09.999Z</time></trkpt><trkpt lat="39.49475304844514" lon="8.496037369077165"><ele>237.0</ele><time>2026-05-01T08:17:10.999Z</time></trkpt><trkpt lat="39.494734385119315" lon="8.496127307094623"><ele>237.0</ele><time>2026-05-01T08:17:11.999Z</time></trkpt><trkpt lat="39.4947415597313" lon="8.496220236802515"><ele>239.75</ele><time>2026-05-01T08:17:12.999Z</time></trkpt><trkpt lat="39.49474739193864" lon="8.496327364248401"><ele>242.5</ele><time>2026-05-01T08:17:13.999Z</time></trkpt><trkpt lat="39.49475327923704" lon="8.496453719773047"><ele>245.25</ele><time>2026-05-01T08:17:14.999Z</time></trkpt><trkpt lat="39.494745780541756" lon="8.496665434575892"><ele>248.0</ele><time>2026-05-01T08:17:15.999Z</time></trkpt><trkpt lat="39.494797948997395" lon="8.496869903894162"><ele>248.00000000000003</ele><time>2026-05-01T08:17:16.999Z</time></trkpt><trkpt lat="39.49481102617375" lon="8.496978450835327"><ele>248.0</ele><time>2026-05-01T08:17:17.999Z</time></trkpt><trkpt lat="39.49482575343306" lon="8.497075639933746"><ele>248.0</ele><time>2026-05-01T08:17:18.999Z</time></trkpt><trkpt lat="39.49484671181861" lon="8.497182229210917"><ele>248.0</ele><time>2026-05-01T08:17:19.999Z</time></trkpt><trkpt lat="39.49485499861357" lon="8.497300629605743"><ele>248.00000000000003</ele><time>2026-05-01T08:17:20.999Z</time></trkpt><trkpt lat="39.49487677381044" lon="8.497440020120413"><ele>248.0</ele><time>2026-05-01T08:17:21.999Z</time></trkpt><trkpt lat="39.494841576851385" lon="8.4975998032565"><ele>250.0</ele><time>2026-05-01T08:17:22.999Z</time></trkpt><trkpt lat="39.494769278821" lon="8.497661706223575"><ele>252.0</ele><time>2026-05-01T08:17:23.999Z</time></trkpt><trkpt lat="39.49470542791964" lon="8.497744536469002"><ele>254.0</ele><time>2026-05-01T08:17:24.999Z</time></trkpt><trkpt lat="39.494642115577584" lon="8.49785686402718"><ele>256.0</ele><time>2026-05-01T08:17:25.999Z</time></trkpt><trkpt lat="39.4945984272146" lon="8.49796700271932"><ele>258.0</ele><time>2026-05-01T08:17:26.999Z</time></trkpt><trkpt lat="39.4945628652736" lon="8.498058645528717"><ele>261.0</ele><time>2026-05-01T08:17:27.999Z</time></trkpt><trkpt lat="39.494518086178594" lon="8.498134136202225"><ele>264.0</ele><time>2026-05-01T08:17:28.999Z</time></trkpt><trkpt lat="39.49446650453844" lon="8.4982011628567"><ele>267.0</ele><time>2026-05-01T08:17:29.999Z</time></trkpt><trkpt lat="39.49446095573835" lon="8.498284521946063"><ele>270.0</ele><time>2026-05-01T08:17:30.999Z</time></trkpt><trkpt lat="39.49452013997046" lon="8.49836032647066"><ele>273.0</ele><time>2026-05-01T08:17:31.999Z</time></trkpt><trkpt lat="39.494594587481494" lon="8.498372904893644"><ele>276.0</ele><time>2026-05-01T08:17:32.999Z</time></trkpt><trkpt lat="39.4946921457732" lon="8.498307162753914"><ele>276.0</ele><time>2026-05-01T08:17:34.999Z</time></trkpt><trkpt lat="39.494755839568555" lon="8.498255902937636"><ele>276.0</ele><time>2026-05-01T08:17:35.999Z</time></trkpt><trkpt lat="39.49485434316913" lon="8.49821610549911"><ele>276.0</ele><time>2026-05-01T08:17:36.999Z</time></trkpt><trkpt lat="39.494963618170104" lon="8.498208962722385"><ele>276.0</ele><time>2026-05-01T08:17:37.999Z</time></trkpt><trkpt lat="39.49504192056545" lon="8.49819667569176"><ele>276.0</ele><time>2026-05-01T08:17:38.999Z</time></trkpt><trkpt lat="39.49510252101258" lon="8.498145006263684"><ele>276.0</ele><time>2026-05-01T08:17:39.999Z</time></trkpt><trkpt lat="39.495148914973946" lon="8.498045381283879"><ele>276.0</ele><time>2026-05-01T08:17:40.999Z</time></trkpt><trkpt lat="39.49519517817271" lon="8.49793601598118"><ele>276.0</ele><time>2026-05-01T08:17:41.999Z</time></trkpt><trkpt lat="39.49526717387049" lon="8.49786970358701"><ele>276.0</ele><time>2026-05-01T08:17:43Z</time></trkpt><trkpt lat="39.49533945520002" lon="8.497827092950358"><ele>276.0</ele><time>2026-05-01T08:17:44Z</time></trkpt><trkpt lat="39.49542856142756" lon="8.497769609877144"><ele>276.0</ele><time>2026-05-01T08:17:45Z</time></trkpt><trkpt lat="39.49548477389575" lon="8.497703870889499"><ele>276.0</ele><time>2026-05-01T08:17:46Z</time></trkpt><trkpt lat="39.49552683147806" lon="8.497617599414571"><ele>277.2</ele><time>2026-05-01T08:17:47Z</time></trkpt><trkpt lat="39.49556846009405" lon="8.497527113899432"><ele>278.40000000000003</ele><time>2026-05-01T08:17:48Z</time></trkpt><trkpt lat="39.49563162795594" lon="8.4974485681505"><ele>279.6</ele><time>2026-05-01T08:17:49Z</time></trkpt><trkpt lat="39.495691913563896" lon="8.497382974865754"><ele>280.8</ele><time>2026-05-01T08:17:50Z</time></trkpt><trkpt lat="39.49574672263296" lon="8.49726357195939"><ele>282.0</ele><time>2026-05-01T08:17:52Z</time></trkpt><trkpt lat="39.495824792361454" lon="8.497340240512148"><ele>282.0</ele><time>2026-05-01T08:17:54Z</time></trkpt><trkpt lat="39.49581765564299" lon="8.497430965450969"><ele>282.0</ele><time>2026-05-01T08:17:55Z</time></trkpt><trkpt lat="39.49575334552392" lon="8.497506521210388"><ele>282.0</ele><time>2026-05-01T08:17:56Z</time></trkpt><trkpt lat="39.49567156599055" lon="8.497575659883433"><ele>282.0</ele><time>2026-05-01T08:17:57Z</time></trkpt><trkpt lat="39.49559891900208" lon="8.497656908876422"><ele>282.0</ele><time>2026-05-01T08:17:58Z</time></trkpt><trkpt lat="39.495570004157216" lon="8.497780912370892"><ele>282.0</ele><time>2026-05-01T08:17:59Z</time></trkpt><trkpt lat="39.49555480150653" lon="8.497905920521925"><ele>282.0</ele><time>2026-05-01T08:18:00Z</time></trkpt><trkpt lat="39.49549776669315" lon="8.498007409609942"><ele>282.0</ele><time>2026-05-01T08:18:01Z</time></trkpt><trkpt lat="39.495412676479006" lon="8.498104704248991"><ele>282.0</ele><time>2026-05-01T08:18:02Z</time></trkpt><trkpt lat="39.49532878442506" lon="8.498236911084746"><ele>282.0</ele><time>2026-05-01T08:18:03Z</time></trkpt><trkpt lat="39.49526370072601" lon="8.498389426071254"><ele>280.8</ele><time>2026-05-01T08:18:04Z</time></trkpt><trkpt lat="39.49521878896188" lon="8.498507158483159"><ele>279.6</ele><time>2026-05-01T08:18:05Z</time></trkpt><trkpt lat="39.49519931883172" lon="8.498605294361811"><ele>278.40000000000003</ele><time>2026-05-01T08:18:06Z</time></trkpt><trkpt lat="39.495189038644966" lon="8.498686630387375"><ele>277.2</ele><time>2026-05-01T08:18:07Z</time></trkpt><trkpt lat="39.49505870689892" lon="8.498744560693341"><ele>276.0</ele><time>2026-05-01T08:18:09Z</time></trkpt><trkpt lat="39.494949708413664" lon="8.498729714096942"><ele>276.0</ele><time>2026-05-01T08:18:10Z</time></trkpt><trkpt lat="39.49484536629056" lon="8.498736963736654"><ele>276.0</ele><time>2026-05-01T08:18:11Z</time></trkpt><trkpt lat="39.49476329426716" lon="8.498782140714821"><ele>276.0</ele><time>2026-05-01T08:18:12Z</time></trkpt><trkpt lat="39.49468946271434" lon="8.49886541558185"><ele>276.0</ele><time>2026-05-01T08:18:13Z</time></trkpt><trkpt lat="39.49462224078107" lon="8.498966408528043"><ele>276.0</ele><time>2026-05-01T08:18:14Z</time></trkpt><trkpt lat="39.49453439111825" lon="8.499042681333574"><ele>279.8</ele><time>2026-05-01T08:18:15Z</time></trkpt><trkpt lat="39.49444294756621" lon="8.499094473411905"><ele>283.6</ele><time>2026-05-01T08:18:16Z</time></trkpt><trkpt lat="39.49434454382611" lon="8.499156356168376"><ele>287.4</ele><time>2026-05-01T08:18:17Z</time></trkpt><trkpt lat="39.4942484534847" lon="8.499208703771158"><ele>291.2</ele><time>2026-05-01T08:18:18Z</time></trkpt><trkpt lat="39.49414733010973" lon="8.499245746703975"><ele>295.0</ele><time>2026-05-01T08:18:18.999Z</time></trkpt><trkpt lat="39.49405967774628" lon="8.499259061096016"><ele>295.0</ele><time>2026-05-01T08:18:19.999Z</time></trkpt><trkpt lat="39.4939689192985" lon="8.499257231446224"><ele>295.0</ele><time>2026-05-01T08:18:20.999Z</time></trkpt><trkpt lat="39.4938910943143" lon="8.499210744621019"><ele>295.0</ele><time>2026-05-01T08:18:21.999Z</time></trkpt><trkpt lat="39.49384522637568" lon="8.49915447615715"><ele>295.0</ele><time>2026-05-01T08:18:22.999Z</time></trkpt><trkpt lat="39.493816402893025" lon="8.499061353582064"><ele>295.0</ele><time>2026-05-01T08:18:23.999Z</time></trkpt><trkpt lat="39.493817164630094" lon="8.498953043743183"><ele>295.0</ele><time>2026-05-01T08:18:24.999Z</time></trkpt><trkpt lat="39.493832517146245" lon="8.498841598159474"><ele>292.8</ele><time>2026-05-01T08:18:25.999Z</time></trkpt><trkpt lat="39.49386295238831" lon="8.498726416240915"><ele>290.6</ele><time>2026-05-01T08:18:26.999Z</time></trkpt><trkpt lat="39.49388204505825" lon="8.498592865753889"><ele>288.4</ele><time>2026-05-01T08:18:27.999Z</time></trkpt><trkpt lat="39.49389946488473" lon="8.498479346828558"><ele>286.2</ele><time>2026-05-01T08:18:28.999Z</time></trkpt><trkpt lat="39.493897904320335" lon="8.49836683594497"><ele>284.0</ele><time>2026-05-01T08:18:29.999Z</time></trkpt><trkpt lat="39.49390145727858" lon="8.49823076442221"><ele>284.0</ele><time>2026-05-01T08:18:30.999Z</time></trkpt><trkpt lat="39.49391009384029" lon="8.498095917732252"><ele>284.0</ele><time>2026-05-01T08:18:31.999Z</time></trkpt><trkpt lat="39.493913151014866" lon="8.497943789157032"><ele>284.0</ele><time>2026-05-01T08:18:32.999Z</time></trkpt><trkpt lat="39.493930131764294" lon="8.497804557094561"><ele>284.0</ele><time>2026-05-01T08:18:33.999Z</time></trkpt><trkpt lat="39.493936600945375" lon="8.49768372957238"><ele>284.0</ele><time>2026-05-01T08:18:34.999Z</time></trkpt><trkpt lat="39.49397054339029" lon="8.497587176588445"><ele>284.6666666666667</ele><time>2026-05-01T08:18:35.999Z</time></trkpt><trkpt lat="39.493998943044424" lon="8.497512018424985"><ele>285.33333333333337</ele><time>2026-05-01T08:18:36.999Z</time></trkpt><trkpt lat="39.49402030441253" lon="8.497425701086653"><ele>286.0</ele><time>2026-05-01T08:18:37.999Z</time></trkpt><trkpt lat="39.49403225610379" lon="8.49731510959824"><ele>286.6666666666667</ele><time>2026-05-01T08:18:38.999Z</time></trkpt><trkpt lat="39.4940499975865" lon="8.497211395854121"><ele>287.3333333333333</ele><time>2026-05-01T08:18:39.999Z</time></trkpt><trkpt lat="39.49400594359722" lon="8.497097668618464"><ele>288.0</ele><time>2026-05-01T08:18:40.999Z</time></trkpt><trkpt lat="39.4939772397977" lon="8.496974054602369"><ele>286.2</ele><time>2026-05-01T08:18:41.999Z</time></trkpt><trkpt lat="39.49393586233683" lon="8.496858535950556"><ele>284.4</ele><time>2026-05-01T08:18:42.999Z</time></trkpt><trkpt lat="39.49389385072797" lon="8.496764039864455"><ele>282.59999999999997</ele><time>2026-05-01T08:18:43.999Z</time></trkpt><trkpt lat="39.49382236153865" lon="8.496689815448251"><ele>280.8</ele><time>2026-05-01T08:18:44.999Z</time></trkpt><trkpt lat="39.49370857600501" lon="8.496666131361247"><ele>279.0</ele><time>2026-05-01T08:18:45.999Z</time></trkpt><trkpt lat="39.49359641882682" lon="8.496634054567801"><ele>283.2</ele><time>2026-05-01T08:18:46.999Z</time></trkpt><trkpt lat="39.49348676741193" lon="8.496599029713886"><ele>287.4</ele><time>2026-05-01T08:18:47.999Z</time></trkpt><trkpt lat="39.49337955197903" lon="8.496560806422993"><ele>291.6</ele><time>2026-05-01T08:18:48.999Z</time></trkpt><trkpt lat="39.49328433989178" lon="8.496553482634647"><ele>295.8</ele><time>2026-05-01T08:18:49.999Z</time></trkpt><trkpt lat="39.49318400912961" lon="8.496585453205405"><ele>300.0</ele><time>2026-05-01T08:18:50.999Z</time></trkpt><trkpt lat="39.49308562635487" lon="8.496647703497947"><ele>300.0</ele><time>2026-05-01T08:18:51.999Z</time></trkpt><trkpt lat="39.49302281404997" lon="8.496759383666433"><ele>300.0</ele><time>2026-05-01T08:18:52.999Z</time></trkpt><trkpt lat="39.49295173548036" lon="8.496845568388872"><ele>300.0</ele><time>2026-05-01T08:18:53.999Z</time></trkpt><trkpt lat="39.492882393484265" lon="8.496911992239463"><ele>300.0</ele><time>2026-05-01T08:18:54.999Z</time></trkpt><trkpt lat="39.49281300758207" lon="8.49694124284515"><ele>300.0</ele><time>2026-05-01T08:18:55.999Z</time></trkpt><trkpt lat="39.49274395990866" lon="8.496933803801824"><ele>300.0</ele><time>2026-05-01T08:18:56.999Z</time></trkpt><trkpt lat="39.492683878840005" lon="8.49689985728055"><ele>303.2</ele><time>2026-05-01T08:18:57.999Z</time></trkpt><trkpt lat="39.49260233785002" lon="8.496782032210003"><ele>306.4</ele><time>2026-05-01T08:18:59.999Z</time></trkpt><trkpt lat="39.492561018488445" lon="8.496650078163325"><ele>309.6</ele><time>2026-05-01T08:19:01.999Z</time></trkpt><trkpt lat="39.492553636663764" lon="8.496566557761678"><ele>312.8</ele><time>2026-05-01T08:19:02.999Z</time></trkpt><trkpt lat="39.49253385436548" lon="8.496445237995228"><ele>316.0</ele><time>2026-05-01T08:19:03.999Z</time></trkpt><trkpt lat="39.492534121176256" lon="8.496315634270896"><ele>316.2</ele><time>2026-05-01T08:19:04.999Z</time></trkpt><trkpt lat="39.49252099146255" lon="8.496211871651353"><ele>316.40000000000003</ele><time>2026-05-01T08:19:06Z</time></trkpt><trkpt lat="39.49249272075884" lon="8.496078120639352"><ele>316.6</ele><time>2026-05-01T08:19:08Z</time></trkpt><trkpt lat="39.49246172961398" lon="8.496003806773123"><ele>316.8</ele><time>2026-05-01T08:19:10Z</time></trkpt><trkpt lat="39.492388521418306" lon="8.49607564359503"><ele>317.0</ele><time>2026-05-01T08:19:12Z</time></trkpt><trkpt lat="39.492405216182625" lon="8.496240065178055"><ele>316.8</ele><time>2026-05-01T08:19:14Z</time></trkpt><trkpt lat="39.492411008794875" lon="8.496356018575138"><ele>316.6</ele><time>2026-05-01T08:19:15Z</time></trkpt><trkpt lat="39.49235882222147" lon="8.496529523009157"><ele>316.40000000000003</ele><time>2026-05-01T08:19:17Z</time></trkpt><trkpt lat="39.49233031691864" lon="8.496653597997039"><ele>316.2</ele><time>2026-05-01T08:19:18Z</time></trkpt><trkpt lat="39.49234330223204" lon="8.496761063639363"><ele>316.0</ele><time>2026-05-01T08:19:19Z</time></trkpt><trkpt lat="39.49233167803355" lon="8.496897154749101"><ele>316.0</ele><time>2026-05-01T08:19:21Z</time></trkpt><trkpt lat="39.49232805271982" lon="8.497041223766189"><ele>316.0</ele><time>2026-05-01T08:19:23Z</time></trkpt><trkpt lat="39.492311110480465" lon="8.49712238476929"><ele>316.0</ele><time>2026-05-01T08:19:24Z</time></trkpt><trkpt lat="39.49229815072544" lon="8.497228518618499"><ele>316.0</ele><time>2026-05-01T08:19:25Z</time></trkpt><trkpt lat="39.49232380409889" lon="8.497313292558355"><ele>316.0</ele><time>2026-05-01T08:19:26Z</time></trkpt><trkpt lat="39.49238522202788" lon="8.497373796088887"><ele>316.0</ele><time>2026-05-01T08:19:27Z</time></trkpt><trkpt lat="39.49244573105047" lon="8.497432946710955"><ele>318.66666666666663</ele><time>2026-05-01T08:19:28Z</time></trkpt><trkpt lat="39.492491117926406" lon="8.497502665510376"><ele>321.3333333333333</ele><time>2026-05-01T08:19:29Z</time></trkpt><trkpt lat="39.492555020698404" lon="8.497552224652454"><ele>324.0</ele><time>2026-05-01T08:19:30Z</time></trkpt><trkpt lat="39.49262704293102" lon="8.497617318523007"><ele>326.6666666666667</ele><time>2026-05-01T08:19:31Z</time></trkpt><trkpt lat="39.49271933273731" lon="8.497677692688827"><ele>329.33333333333337</ele><time>2026-05-01T08:19:32Z</time></trkpt><trkpt lat="39.49281819911595" lon="8.497673157557182"><ele>332.0</ele><time>2026-05-01T08:19:33Z</time></trkpt><trkpt lat="39.49291157033781" lon="8.49766010505159"><ele>329.6666666666667</ele><time>2026-05-01T08:19:34Z</time></trkpt><trkpt lat="39.49298656496278" lon="8.497640523988235"><ele>327.33333333333337</ele><time>2026-05-01T08:19:35Z</time></trkpt><trkpt lat="39.49306523570162" lon="8.497627582502597"><ele>325.0</ele><time>2026-05-01T08:19:36Z</time></trkpt><trkpt lat="39.49313010021285" lon="8.497636041156108"><ele>322.6666666666667</ele><time>2026-05-01T08:19:37Z</time></trkpt><trkpt lat="39.49310284650576" lon="8.49776321730464"><ele>320.3333333333333</ele><time>2026-05-01T08:19:39Z</time></trkpt><trkpt lat="39.493013130162296" lon="8.49772064945903"><ele>318.0</ele><time>2026-05-01T08:19:41Z</time></trkpt><trkpt lat="39.49294531324473" lon="8.497717644349605"><ele>320.3333333333333</ele><time>2026-05-01T08:19:42Z</time></trkpt><trkpt lat="39.4928636243438" lon="8.497747698801732"><ele>322.6666666666667</ele><time>2026-05-01T08:19:43Z</time></trkpt><trkpt lat="39.49278118508051" lon="8.497766861558643"><ele>325.0</ele><time>2026-05-01T08:19:44Z</time></trkpt><trkpt lat="39.492694468309544" lon="8.497774342403773"><ele>327.33333333333337</ele><time>2026-05-01T08:19:45Z</time></trkpt><trkpt lat="39.49262494396852" lon="8.497793203330719"><ele>329.6666666666667</ele><time>2026-05-01T08:19:46Z</time></trkpt><trkpt lat="39.4925141350165" lon="8.497791576009003"><ele>332.0</ele><time>2026-05-01T08:19:48Z</time></trkpt><trkpt lat="39.4923584662035" lon="8.497803445091966"><ele>332.0</ele><time>2026-05-01T08:19:50Z</time></trkpt><trkpt lat="39.492266400151046" lon="8.497806768377263"><ele>332.0</ele><time>2026-05-01T08:19:51Z</time></trkpt><trkpt lat="39.49220238735289" lon="8.497807769402517"><ele>332.0</ele><time>2026-05-01T08:19:52Z</time></trkpt><trkpt lat="39.49212522777584" lon="8.497706777274798"><ele>332.0</ele><time>2026-05-01T08:19:54Z</time></trkpt><trkpt lat="39.492059090152416" lon="8.49764056274954"><ele>332.0</ele><time>2026-05-01T08:19:55Z</time></trkpt><trkpt lat="39.49196968941114" lon="8.497567513650415"><ele>332.0</ele><time>2026-05-01T08:19:56Z</time></trkpt><trkpt lat="39.49188793314696" lon="8.497489344759003"><ele>332.0</ele><time>2026-05-01T08:19:57Z</time></trkpt><trkpt lat="39.49183798327748" lon="8.497390552159274"><ele>332.0</ele><time>2026-05-01T08:19:58Z</time></trkpt><trkpt lat="39.49184470274995" lon="8.497288710181268"><ele>332.0</ele><time>2026-05-01T08:19:59Z</time></trkpt><trkpt lat="39.49186558802067" lon="8.497176072668658"><ele>332.0</ele><time>2026-05-01T08:20:00Z</time></trkpt><trkpt lat="39.49184684873422" lon="8.497048441114822"><ele>335.40000000000003</ele><time>2026-05-01T08:20:02Z</time></trkpt><trkpt lat="39.491763358803006" lon="8.49712063178792"><ele>338.8</ele><time>2026-05-01T08:20:04Z</time></trkpt><trkpt lat="39.49176772129841" lon="8.497208802438378"><ele>342.2</ele><time>2026-05-01T08:20:05Z</time></trkpt><trkpt lat="39.49179543047075" lon="8.497302323540648"><ele>345.6</ele><time>2026-05-01T08:20:06Z</time></trkpt><trkpt lat="39.491824400147074" lon="8.49739837201634"><ele>349.0</ele><time>2026-05-01T08:20:07Z</time></trkpt><trkpt lat="39.491788275579424" lon="8.4975550474064"><ele>349.0</ele><time>2026-05-01T08:20:09Z</time></trkpt><trkpt lat="39.49182211237801" lon="8.497670639031046"><ele>349.0</ele><time>2026-05-01T08:20:10Z</time></trkpt><trkpt lat="39.491875811810154" lon="8.497744317338025"><ele>349.0</ele><time>2026-05-01T08:20:11Z</time></trkpt><trkpt lat="39.49193768041999" lon="8.497804246415157"><ele>349.0</ele><time>2026-05-01T08:20:12Z</time></trkpt><trkpt lat="39.492009295312116" lon="8.497891742566148"><ele>349.0</ele><time>2026-05-01T08:20:13Z</time></trkpt><trkpt lat="39.492077537213" lon="8.497993490458958"><ele>349.6</ele><time>2026-05-01T08:20:14Z</time></trkpt><trkpt lat="39.49215982798919" lon="8.498098693620129"><ele>350.2</ele><time>2026-05-01T08:20:15Z</time></trkpt><trkpt lat="39.49225189225169" lon="8.498171482722121"><ele>350.8</ele><time>2026-05-01T08:20:16Z</time></trkpt><trkpt lat="39.49234411753296" lon="8.49822616793596"><ele>351.40000000000003</ele><time>2026-05-01T08:20:17Z</time></trkpt><trkpt lat="39.49242825893667" lon="8.498257168343583"><ele>352.0</ele><time>2026-05-01T08:20:18Z</time></trkpt><trkpt lat="39.492486269190394" lon="8.49831615584815"><ele>352.0</ele><time>2026-05-01T08:20:19Z</time></trkpt><trkpt lat="39.49250129850847" lon="8.498431092356478"><ele>352.0</ele><time>2026-05-01T08:20:20Z</time></trkpt><trkpt lat="39.49248919839322" lon="8.498532913491347"><ele>352.0</ele><time>2026-05-01T08:20:21Z</time></trkpt><trkpt lat="39.49246786476288" lon="8.498620842626124"><ele>352.0</ele><time>2026-05-01T08:20:22Z</time></trkpt><trkpt lat="39.49243050410462" lon="8.498706304028346"><ele>352.0</ele><time>2026-05-01T08:20:22.999Z</time></trkpt><trkpt lat="39.49239720622729" lon="8.49878884658069"><ele>352.0</ele><time>2026-05-01T08:20:23.999Z</time></trkpt><trkpt lat="39.49236026457985" lon="8.498883747265861"><ele>351.66666666666663</ele><time>2026-05-01T08:20:24.999Z</time></trkpt><trkpt lat="39.492318295215355" lon="8.498964565721016"><ele>351.3333333333333</ele><time>2026-05-01T08:20:25.999Z</time></trkpt><trkpt lat="39.49223718209732" lon="8.499058729747071"><ele>351.0</ele><time>2026-05-01T08:20:27.999Z</time></trkpt><trkpt lat="39.49213312882836" lon="8.49913546344605"><ele>350.6666666666667</ele><time>2026-05-01T08:20:29.999Z</time></trkpt><trkpt lat="39.49206807486961" lon="8.499169201656713"><ele>350.33333333333337</ele><time>2026-05-01T08:20:30.999Z</time></trkpt><trkpt lat="39.492004983110235" lon="8.499219844217112"><ele>350.0</ele><time>2026-05-01T08:20:31.999Z</time></trkpt><trkpt lat="39.49193726775178" lon="8.49929058918908"><ele>353.83333333333337</ele><time>2026-05-01T08:20:32.999Z</time></trkpt><trkpt lat="39.49185912655819" lon="8.499351276166632"><ele>357.6666666666667</ele><time>2026-05-01T08:20:33.999Z</time></trkpt><trkpt lat="39.49179193347869" lon="8.499400397194044"><ele>361.5</ele><time>2026-05-01T08:20:34.999Z</time></trkpt><trkpt lat="39.491729679225166" lon="8.49945343588133"><ele>365.3333333333333</ele><time>2026-05-01T08:20:35.999Z</time></trkpt><trkpt lat="39.49166447124673" lon="8.49953881073054"><ele>369.16666666666663</ele><time>2026-05-01T08:20:36.999Z</time></trkpt><trkpt lat="39.49159563425518" lon="8.499632932787698"><ele>373.0</ele><time>2026-05-01T08:20:37.999Z</time></trkpt><trkpt lat="39.49153025845503" lon="8.499705675854882"><ele>373.0</ele><time>2026-05-01T08:20:38.999Z</time></trkpt><trkpt lat="39.49145626909848" lon="8.499759186497327"><ele>373.0</ele><time>2026-05-01T08:20:39.999Z</time></trkpt><trkpt lat="39.49141687487267" lon="8.499934079946582"><ele>373.0</ele><time>2026-05-01T08:20:41.999Z</time></trkpt><trkpt lat="39.491394902830244" lon="8.500014329821195"><ele>373.0</ele><time>2026-05-01T08:20:42.999Z</time></trkpt><trkpt lat="39.49134866616482" lon="8.500075692740952"><ele>373.0</ele><time>2026-05-01T08:20:43.999Z</time></trkpt><trkpt lat="39.491304595462424" lon="8.500139205305858"><ele>373.0</ele><time>2026-05-01T08:20:44.999Z</time></trkpt><trkpt lat="39.49128174455714" lon="8.500218142972267"><ele>373.0</ele><time>2026-05-01T08:20:45.999Z</time></trkpt><trkpt lat="39.491277265227204" lon="8.500325417283522"><ele>373.0</ele><time>2026-05-01T08:20:46.999Z</time></trkpt><trkpt lat="39.49129074071216" lon="8.500437616454379"><ele>373.0</ele><time>2026-05-01T08:20:47.999Z</time></trkpt><trkpt lat="39.491327235545334" lon="8.5005288872717"><ele>373.0</ele><time>2026-05-01T08:20:48.999Z</time></trkpt><trkpt lat="39.49138965431059" lon="8.50061468416219"><ele>373.0</ele><time>2026-05-01T08:20:49.999Z</time></trkpt><trkpt lat="39.49148719729604" lon="8.500647423351774"><ele>373.0</ele><time>2026-05-01T08:20:50.999Z</time></trkpt><trkpt lat="39.49157822942902" lon="8.50070693459652"><ele>375.5</ele><time>2026-05-01T08:20:51.999Z</time></trkpt><trkpt lat="39.49166389781604" lon="8.500776471990866"><ele>378.0</ele><time>2026-05-01T08:20:52.999Z</time></trkpt><trkpt lat="39.491734306659446" lon="8.500822555325215"><ele>380.5</ele><time>2026-05-01T08:20:53.999Z</time></trkpt><trkpt lat="39.491798366767966" lon="8.500865475870356"><ele>383.0</ele><time>2026-05-01T08:20:54.999Z</time></trkpt><trkpt lat="39.491882084800956" lon="8.500888837618518"><ele>385.50000000000006</ele><time>2026-05-01T08:20:55.999Z</time></trkpt><trkpt lat="39.491946864103205" lon="8.50092328823375"><ele>388.0</ele><time>2026-05-01T08:20:57.999Z</time></trkpt><trkpt lat="39.491873749475666" lon="8.501021154496694"><ele>388.00000000000006</ele><time>2026-05-01T08:20:59.999Z</time></trkpt><trkpt lat="39.49178946898516" lon="8.500953219786728"><ele>388.0</ele><time>2026-05-01T08:21:01.999Z</time></trkpt><trkpt lat="39.491722660745495" lon="8.500929484092644"><ele>388.0</ele><time>2026-05-01T08:21:02.999Z</time></trkpt><trkpt lat="39.491644122393105" lon="8.500894626895816"><ele>388.0</ele><time>2026-05-01T08:21:03.999Z</time></trkpt><trkpt lat="39.49155543436523" lon="8.50085388322759"><ele>388.00000000000006</ele><time>2026-05-01T08:21:04.999Z</time></trkpt><trkpt lat="39.49146105101183" lon="8.500815082910487"><ele>388.0</ele><time>2026-05-01T08:21:05.999Z</time></trkpt><trkpt lat="39.491347086781474" lon="8.500789797610432"><ele>388.00000000000006</ele><time>2026-05-01T08:21:06.999Z</time></trkpt><trkpt lat="39.49126414637216" lon="8.500758183779503"><ele>388.0</ele><time>2026-05-01T08:21:07.999Z</time></trkpt><trkpt lat="39.491205202664254" lon="8.500711354767164"><ele>388.0</ele><time>2026-05-01T08:21:08.999Z</time></trkpt><trkpt lat="39.49113343205699" lon="8.500657274194957"><ele>388.0</ele><time>2026-05-01T08:21:09.999Z</time></trkpt><trkpt lat="39.49109081793232" lon="8.500549390519135"><ele>388.00000000000006</ele><time>2026-05-01T08:21:10.999Z</time></trkpt><trkpt lat="39.49104553420974" lon="8.500445875938826"><ele>388.0</ele><time>2026-05-01T08:21:12Z</time></trkpt><trkpt lat="39.49100874075616" lon="8.500341274824047"><ele>390.2</ele><time>2026-05-01T08:21:13Z</time></trkpt><trkpt lat="39.490991260832416" lon="8.500224041098978"><ele>392.4</ele><time>2026-05-01T08:21:14Z</time></trkpt><trkpt lat="39.49100014190142" lon="8.500113096665897"><ele>394.59999999999997</ele><time>2026-05-01T08:21:15Z</time></trkpt><trkpt lat="39.49103027505481" lon="8.499997601426433"><ele>396.79999999999995</ele><time>2026-05-01T08:21:16Z</time></trkpt><trkpt lat="39.49108424711005" lon="8.499884924861213"><ele>399.0</ele><time>2026-05-01T08:21:17Z</time></trkpt><trkpt lat="39.49112806486017" lon="8.49977633439575"><ele>399.0</ele><time>2026-05-01T08:21:18Z</time></trkpt><trkpt lat="39.491153758795576" lon="8.499664726354931"><ele>399.0</ele><time>2026-05-01T08:21:19Z</time></trkpt><trkpt lat="39.49117644632701" lon="8.499575805337605"><ele>399.0</ele><time>2026-05-01T08:21:20Z</time></trkpt><trkpt lat="39.49118024697143" lon="8.49945104483084"><ele>399.0</ele><time>2026-05-01T08:21:22Z</time></trkpt><trkpt lat="39.49112767772741" lon="8.499393413924688"><ele>399.0</ele><time>2026-05-01T08:21:24Z</time></trkpt><trkpt lat="39.4910776893842" lon="8.499333203482921"><ele>399.0</ele><time>2026-05-01T08:21:26Z</time></trkpt><trkpt lat="39.49095254997284" lon="8.49931596555466"><ele>397.5</ele><time>2026-05-01T08:21:28Z</time></trkpt><trkpt lat="39.4908312144273" lon="8.499345748811026"><ele>396.0</ele><time>2026-05-01T08:21:30Z</time></trkpt><trkpt lat="39.490759996118726" lon="8.499368017770468"><ele>394.5</ele><time>2026-05-01T08:21:31Z</time></trkpt><trkpt lat="39.490676735320726" lon="8.499393401664166"><ele>393.0</ele><time>2026-05-01T08:21:32Z</time></trkpt><trkpt lat="39.490607295571365" lon="8.499410237029622"><ele>391.5</ele><time>2026-05-01T08:21:33Z</time></trkpt><trkpt lat="39.49052635801955" lon="8.499413029568379"><ele>390.0</ele><time>2026-05-01T08:21:34Z</time></trkpt><trkpt lat="39.49044951965978" lon="8.49939428782188"><ele>393.4</ele><time>2026-05-01T08:21:35Z</time></trkpt><trkpt lat="39.49036642700841" lon="8.499342440846059"><ele>396.8</ele><time>2026-05-01T08:21:36Z</time></trkpt><trkpt lat="39.49028043982724" lon="8.499254752959931"><ele>400.20000000000005</ele><time>2026-05-01T08:21:37Z</time></trkpt><trkpt lat="39.490192542051425" lon="8.4991550662905"><ele>403.6</ele><time>2026-05-01T08:21:38Z</time></trkpt><trkpt lat="39.49011801839148" lon="8.49907161044256"><ele>407.0</ele><time>2026-05-01T08:21:39Z</time></trkpt><trkpt lat="39.49005183770514" lon="8.499024745643672"><ele>406.99999999999994</ele><time>2026-05-01T08:21:40Z</time></trkpt><trkpt lat="39.489973871950596" lon="8.498993554409978"><ele>407.0</ele><time>2026-05-01T08:21:41Z</time></trkpt><trkpt lat="39.48988539047664" lon="8.49895015085984"><ele>407.0</ele><time>2026-05-01T08:21:42Z</time></trkpt><trkpt lat="39.48980184386924" lon="8.498912711835162"><ele>407.0</ele><time>2026-05-01T08:21:43Z</time></trkpt><trkpt lat="39.4897194367112" lon="8.498878302949668"><ele>406.99999999999994</ele><time>2026-05-01T08:21:44Z</time></trkpt><trkpt lat="39.48965373408884" lon="8.498852332001317"><ele>407.0</ele><time>2026-05-01T08:21:45Z</time></trkpt><trkpt lat="39.48958660848622" lon="8.498818560088278"><ele>406.8</ele><time>2026-05-01T08:21:46Z</time></trkpt><trkpt lat="39.48951376384441" lon="8.498805528584537"><ele>406.6</ele><time>2026-05-01T08:21:47Z</time></trkpt><trkpt lat="39.48942067334875" lon="8.498781326303664"><ele>406.40000000000003</ele><time>2026-05-01T08:21:48Z</time></trkpt><trkpt lat="39.48932161507127" lon="8.498779944366479"><ele>406.20000000000005</ele><time>2026-05-01T08:21:49Z</time></trkpt><trkpt lat="39.489222588228316" lon="8.49876447823329"><ele>406.0</ele><time>2026-05-01T08:21:50Z</time></trkpt><trkpt lat="39.48913365597785" lon="8.498717396580474"><ele>406.0</ele><time>2026-05-01T08:21:51Z</time></trkpt><trkpt lat="39.48906160489541" lon="8.49866394020243"><ele>406.0</ele><time>2026-05-01T08:21:52Z</time></trkpt><trkpt lat="39.4889985615629" lon="8.498632205539625"><ele>406.0</ele><time>2026-05-01T08:21:54Z</time></trkpt><trkpt lat="39.48902213959228" lon="8.49878749332129"><ele>406.0</ele><time>2026-05-01T08:21:59Z</time></trkpt><trkpt lat="39.48911069948346" lon="8.498859284977382"><ele>406.0</ele><time>2026-05-01T08:22:00Z</time></trkpt><trkpt lat="39.4892038764642" lon="8.498895066955624"><ele>406.25</ele><time>2026-05-01T08:22:01Z</time></trkpt><trkpt lat="39.48931424150448" lon="8.498926333271394"><ele>406.5</ele><time>2026-05-01T08:22:02Z</time></trkpt><trkpt lat="39.489425446042944" lon="8.498981041584827"><ele>406.75</ele><time>2026-05-01T08:22:03Z</time></trkpt><trkpt lat="39.489523257331285" lon="8.499058488836662"><ele>407.0</ele><time>2026-05-01T08:22:04Z</time></trkpt><trkpt lat="39.489616469349954" lon="8.49915138996445"><ele>407.0</ele><time>2026-05-01T08:22:05Z</time></trkpt><trkpt lat="39.489704509613034" lon="8.499260146811967"><ele>407.0</ele><time>2026-05-01T08:22:06Z</time></trkpt><trkpt lat="39.48978842572599" lon="8.499377634574174"><ele>407.0</ele><time>2026-05-01T08:22:07Z</time></trkpt><trkpt lat="39.48986954689569" lon="8.49949671436548"><ele>407.0</ele><time>2026-05-01T08:22:08Z</time></trkpt><trkpt lat="39.489945803255544" lon="8.499620966517252"><ele>411.0</ele><time>2026-05-01T08:22:09Z</time></trkpt><trkpt lat="39.49001106727429" lon="8.499758343096271"><ele>415.0</ele><time>2026-05-01T08:22:10Z</time></trkpt><trkpt lat="39.490068121740265" lon="8.49990142678441"><ele>419.0</ele><time>2026-05-01T08:22:11Z</time></trkpt><trkpt lat="39.4901154672996" lon="8.500045696040585"><ele>423.0</ele><time>2026-05-01T08:22:12Z</time></trkpt><trkpt lat="39.49011319866527" lon="8.500186699348449"><ele>423.0</ele><time>2026-05-01T08:22:13Z</time></trkpt><trkpt lat="39.490076601018835" lon="8.500293291540476"><ele>423.0</ele><time>2026-05-01T08:22:14Z</time></trkpt><trkpt lat="39.49001699555374" lon="8.500397171991983"><ele>423.0</ele><time>2026-05-01T08:22:15Z</time></trkpt><trkpt lat="39.48994450305581" lon="8.500512792237465"><ele>423.0</ele><time>2026-05-01T08:22:16Z</time></trkpt><trkpt lat="39.48985846798248" lon="8.500626588175365"><ele>423.0</ele><time>2026-05-01T08:22:17Z</time></trkpt><trkpt lat="39.48975788118605" lon="8.500724579044295"><ele>423.5</ele><time>2026-05-01T08:22:18Z</time></trkpt><trkpt lat="39.48964579662698" lon="8.500819780515325"><ele>424.0</ele><time>2026-05-01T08:22:19Z</time></trkpt><trkpt lat="39.489534204928894" lon="8.500927137682481"><ele>424.5</ele><time>2026-05-01T08:22:20Z</time></trkpt><trkpt lat="39.48943469148875" lon="8.501048231581947"><ele>425.0</ele><time>2026-05-01T08:22:21Z</time></trkpt><trkpt lat="39.4893407711005" lon="8.501177077321538"><ele>428.5</ele><time>2026-05-01T08:22:22Z</time></trkpt><trkpt lat="39.489257848726275" lon="8.501316650004906"><ele>432.0</ele><time>2026-05-01T08:22:23Z</time></trkpt><trkpt lat="39.489185130064946" lon="8.501448115839947"><ele>435.5</ele><time>2026-05-01T08:22:24Z</time></trkpt><trkpt lat="39.48912333464806" lon="8.50157087457091"><ele>439.0</ele><time>2026-05-01T08:22:25Z</time></trkpt><trkpt lat="39.48906810615214" lon="8.501683596286231"><ele>439.0</ele><time>2026-05-01T08:22:26Z</time></trkpt><trkpt lat="39.489011419571106" lon="8.501808960289754"><ele>439.0</ele><time>2026-05-01T08:22:27Z</time></trkpt><trkpt lat="39.4889476166035" lon="8.501950959881434"><ele>439.0</ele><time>2026-05-01T08:22:28Z</time></trkpt><trkpt lat="39.48888377514441" lon="8.50210033277521"><ele>439.0</ele><time>2026-05-01T08:22:29Z</time></trkpt><trkpt lat="39.48881798464623" lon="8.50225828776621"><ele>435.6666666666667</ele><time>2026-05-01T08:22:29.999Z</time></trkpt><trkpt lat="39.488748579633835" lon="8.50242492082609"><ele>432.33333333333337</ele><time>2026-05-01T08:22:30.999Z</time></trkpt><trkpt lat="39.48867720826845" lon="8.502599153139172"><ele>429.0</ele><time>2026-05-01T08:22:31.999Z</time></trkpt><trkpt lat="39.488604194621004" lon="8.502782060666847"><ele>428.33333333333337</ele><time>2026-05-01T08:22:32.999Z</time></trkpt><trkpt lat="39.48853438766064" lon="8.502967812168476"><ele>427.6666666666667</ele><time>2026-05-01T08:22:33.999Z</time></trkpt><trkpt lat="39.48846885954714" lon="8.503154242273489"><ele>427.0</ele><time>2026-05-01T08:22:34.999Z</time></trkpt><trkpt lat="39.48840970900252" lon="8.503327369560271"><ele>427.0</ele><time>2026-05-01T08:22:35.999Z</time></trkpt><trkpt lat="39.488340428825715" lon="8.50348268301206"><ele>427.0</ele><time>2026-05-01T08:22:36.999Z</time></trkpt><trkpt lat="39.48825427703894" lon="8.503609294805019"><ele>427.0</ele><time>2026-05-01T08:22:37.999Z</time></trkpt><trkpt lat="39.488138306420716" lon="8.50370534691723"><ele>427.0</ele><time>2026-05-01T08:22:38.999Z</time></trkpt><trkpt lat="39.488001787545784" lon="8.503784596667694"><ele>427.0</ele><time>2026-05-01T08:22:39.999Z</time></trkpt><trkpt lat="39.48784706297189" lon="8.5038511689209"><ele>427.0</ele><time>2026-05-01T08:22:40.999Z</time></trkpt><trkpt lat="39.487686961352786" lon="8.503907825487182"><ele>427.0</ele><time>2026-05-01T08:22:41.999Z</time></trkpt><trkpt lat="39.48753339413641" lon="8.503907496536433"><ele>427.0</ele><time>2026-05-01T08:22:42.999Z</time></trkpt><trkpt lat="39.487402798106466" lon="8.50387950371566"><ele>427.0</ele><time>2026-05-01T08:22:43.999Z</time></trkpt><trkpt lat="39.48728308624416" lon="8.503809198709748"><ele>427.0</ele><time>2026-05-01T08:22:44.999Z</time></trkpt><trkpt lat="39.48714974206574" lon="8.50373974905375"><ele>427.0</ele><time>2026-05-01T08:22:45.999Z</time></trkpt><trkpt lat="39.48700709368945" lon="8.503664952718184"><ele>422.25</ele><time>2026-05-01T08:22:46.999Z</time></trkpt><trkpt lat="39.486865757695966" lon="8.50358508804618"><ele>417.5</ele><time>2026-05-01T08:22:47.999Z</time></trkpt><trkpt lat="39.486729872204485" lon="8.503515148115817"><ele>412.75</ele><time>2026-05-01T08:22:48.999Z</time></trkpt><trkpt lat="39.48659899212698" lon="8.503440758750195"><ele>408.0</ele><time>2026-05-01T08:22:49.999Z</time></trkpt><trkpt lat="39.48647044806412" lon="8.503367453041172"><ele>408.0</ele><time>2026-05-01T08:22:50.999Z</time></trkpt><trkpt lat="39.48633431084" lon="8.503320723073243"><ele>408.0</ele><time>2026-05-01T08:22:51.999Z</time></trkpt><trkpt lat="39.486190446632946" lon="8.503330150836485"><ele>408.0</ele><time>2026-05-01T08:22:52.999Z</time></trkpt><trkpt lat="39.48604470170418" lon="8.503350319054919"><ele>408.0</ele><time>2026-05-01T08:22:53.999Z</time></trkpt><trkpt lat="39.48592270831973" lon="8.503440572242516"><ele>406.0</ele><time>2026-05-01T08:22:54.999Z</time></trkpt><trkpt lat="39.48584159927886" lon="8.503577093590494"><ele>404.0</ele><time>2026-05-01T08:22:55.999Z</time></trkpt><trkpt lat="39.485818342316115" lon="8.503761974932878"><ele>402.0</ele><time>2026-05-01T08:22:56.999Z</time></trkpt><trkpt lat="39.48578221714219" lon="8.503943495514703"><ele>400.0</ele><time>2026-05-01T08:22:57.999Z</time></trkpt><trkpt lat="39.485728814479266" lon="8.504104620748143"><ele>400.0</ele><time>2026-05-01T08:22:58.999Z</time></trkpt><trkpt lat="39.48562684830037" lon="8.504205308702689"><ele>400.0</ele><time>2026-05-01T08:22:59.999Z</time></trkpt><trkpt lat="39.48549801989012" lon="8.504300009318573"><ele>400.0</ele><time>2026-05-01T08:23:00.999Z</time></trkpt><trkpt lat="39.48534396817778" lon="8.504390605354905"><ele>400.0</ele><time>2026-05-01T08:23:01.999Z</time></trkpt><trkpt lat="39.48518670003337" lon="8.504492481135316"><ele>396.6666666666667</ele><time>2026-05-01T08:23:02.999Z</time></trkpt><trkpt lat="39.485034912640806" lon="8.504615509804784"><ele>393.33333333333337</ele><time>2026-05-01T08:23:03.999Z</time></trkpt><trkpt lat="39.48489465508041" lon="8.504730196145406"><ele>390.0</ele><time>2026-05-01T08:23:04.999Z</time></trkpt><trkpt lat="39.48474962793967" lon="8.504815959397838"><ele>390.0</ele><time>2026-05-01T08:23:05.999Z</time></trkpt><trkpt lat="39.48461337697448" lon="8.504892408975287"><ele>390.0</ele><time>2026-05-01T08:23:06.999Z</time></trkpt><trkpt lat="39.484472508212676" lon="8.504951645147386"><ele>390.0</ele><time>2026-05-01T08:23:07.999Z</time></trkpt><trkpt lat="39.48433762418035" lon="8.505025510369213"><ele>390.0</ele><time>2026-05-01T08:23:08.999Z</time></trkpt><trkpt lat="39.484199110171026" lon="8.505117517294098"><ele>388.66666666666663</ele><time>2026-05-01T08:23:09.999Z</time></trkpt><trkpt lat="39.484095020143954" lon="8.50527783289265"><ele>387.3333333333333</ele><time>2026-05-01T08:23:10.999Z</time></trkpt><trkpt lat="39.48397755843617" lon="8.505458115844617"><ele>386.0</ele><time>2026-05-01T08:23:11.999Z</time></trkpt><trkpt lat="39.48389051949075" lon="8.505663165145885"><ele>385.66666666666663</ele><time>2026-05-01T08:23:12.999Z</time></trkpt><trkpt lat="39.48377053219433" lon="8.505835013993153"><ele>385.33333333333337</ele><time>2026-05-01T08:23:13.999Z</time></trkpt><trkpt lat="39.48363791905672" lon="8.505993865807827"><ele>385.0</ele><time>2026-05-01T08:23:14.999Z</time></trkpt><trkpt lat="39.483485405262996" lon="8.506112720066705"><ele>383.6666666666667</ele><time>2026-05-01T08:23:15.999Z</time></trkpt><trkpt lat="39.483313472127385" lon="8.506177709086"><ele>382.33333333333337</ele><time>2026-05-01T08:23:17Z</time></trkpt><trkpt lat="39.48313202147997" lon="8.506180526229935"><ele>381.0</ele><time>2026-05-01T08:23:18Z</time></trkpt><trkpt lat="39.48296023039372" lon="8.506222903206773"><ele>377.3333333333333</ele><time>2026-05-01T08:23:19Z</time></trkpt><trkpt lat="39.48278024087964" lon="8.506251415610693"><ele>373.66666666666663</ele><time>2026-05-01T08:23:20Z</time></trkpt><trkpt lat="39.482609841574615" lon="8.50627289164548"><ele>370.0</ele><time>2026-05-01T08:23:21Z</time></trkpt><trkpt lat="39.482469288827865" lon="8.506281497911274"><ele>370.0</ele><time>2026-05-01T08:23:22Z</time></trkpt><trkpt lat="39.48237517358563" lon="8.506255092110834"><ele>370.0</ele><time>2026-05-01T08:23:23Z</time></trkpt><trkpt lat="39.48231552841308" lon="8.506190390174266"><ele>370.0</ele><time>2026-05-01T08:23:24Z</time></trkpt><trkpt lat="39.48230514846985" lon="8.50605582968657"><ele>370.0</ele><time>2026-05-01T08:23:25Z</time></trkpt><trkpt lat="39.482377730176616" lon="8.505909348899644"><ele>370.0</ele><time>2026-05-01T08:23:26Z</time></trkpt><trkpt lat="39.48244304907835" lon="8.505745254936238"><ele>369.3333333333333</ele><time>2026-05-01T08:23:27Z</time></trkpt><trkpt lat="39.48252892850075" lon="8.505581814694738"><ele>368.6666666666667</ele><time>2026-05-01T08:23:28Z</time></trkpt><trkpt lat="39.48261662583395" lon="8.505413328282506"><ele>368.0</ele><time>2026-05-01T08:23:29Z</time></trkpt><trkpt lat="39.48273047727014" lon="8.505272388048718"><ele>371.25</ele><time>2026-05-01T08:23:30Z</time></trkpt><trkpt lat="39.48286302269558" lon="8.505175286478883"><ele>374.5</ele><time>2026-05-01T08:23:31Z</time></trkpt><trkpt lat="39.482974735555445" lon="8.505092783946562"><ele>377.75</ele><time>2026-05-01T08:23:32Z</time></trkpt><trkpt lat="39.48303099706828" lon="8.504983851304944"><ele>381.0</ele><time>2026-05-01T08:23:33Z</time></trkpt><trkpt lat="39.48302961010901" lon="8.504841800776116"><ele>381.0</ele><time>2026-05-01T08:23:34Z</time></trkpt><trkpt lat="39.482973928644526" lon="8.504678518418714"><ele>381.0</ele><time>2026-05-01T08:23:35Z</time></trkpt><trkpt lat="39.48289639063239" lon="8.50450995625067"><ele>381.0</ele><time>2026-05-01T08:23:36Z</time></trkpt><trkpt lat="39.48282196380194" lon="8.504331539540317"><ele>381.0</ele><time>2026-05-01T08:23:37Z</time></trkpt><trkpt lat="39.48276577212268" lon="8.504140020538145"><ele>368.5</ele><time>2026-05-01T08:23:38Z</time></trkpt><trkpt lat="39.48272775286514" lon="8.503949008933311"><ele>356.0</ele><time>2026-05-01T08:23:39Z</time></trkpt><trkpt lat="39.4827147162846" lon="8.503768900687142"><ele>343.5</ele><time>2026-05-01T08:23:40Z</time></trkpt><trkpt lat="39.48274557132516" lon="8.503601264646385"><ele>331.0</ele><time>2026-05-01T08:23:41Z</time></trkpt><trkpt lat="39.48284637664036" lon="8.503488605802959"><ele>339.0</ele><time>2026-05-01T08:23:42Z</time></trkpt><trkpt lat="39.482940303357886" lon="8.503342392064047"><ele>347.0</ele><time>2026-05-01T08:23:43Z</time></trkpt><trkpt lat="39.48306372503334" lon="8.503198367298957"><ele>355.0</ele><time>2026-05-01T08:23:44Z</time></trkpt><trkpt lat="39.48318156990113" lon="8.503062762107339"><ele>355.0</ele><time>2026-05-01T08:23:45Z</time></trkpt><trkpt lat="39.48330539880824" lon="8.50297483994719"><ele>355.0</ele><time>2026-05-01T08:23:46Z</time></trkpt><trkpt lat="39.483455430656896" lon="8.502951137793314"><ele>355.0</ele><time>2026-05-01T08:23:47Z</time></trkpt><trkpt lat="39.483629502186524" lon="8.50296850831621"><ele>355.75</ele><time>2026-05-01T08:23:48Z</time></trkpt><trkpt lat="39.48379994829626" lon="8.502969621426999"><ele>356.5</ele><time>2026-05-01T08:23:49Z</time></trkpt><trkpt lat="39.483947662461624" lon="8.502961724442564"><ele>357.25</ele><time>2026-05-01T08:23:50Z</time></trkpt><trkpt lat="39.4840555124614" lon="8.502943433494398"><ele>358.0</ele><time>2026-05-01T08:23:51Z</time></trkpt><trkpt lat="39.48412846271754" lon="8.502866556696105"><ele>358.0</ele><time>2026-05-01T08:23:52Z</time></trkpt><trkpt lat="39.48415797469709" lon="8.502742322249425"><ele>358.0</ele><time>2026-05-01T08:23:53Z</time></trkpt><trkpt lat="39.48413069558838" lon="8.502592517573362"><ele>358.0</ele><time>2026-05-01T08:23:54Z</time></trkpt><trkpt lat="39.48404780131055" lon="8.50244460868307"><ele>358.0</ele><time>2026-05-01T08:23:55Z</time></trkpt><trkpt lat="39.48395293993717" lon="8.502293018557713"><ele>358.0</ele><time>2026-05-01T08:23:56Z</time></trkpt><trkpt lat="39.48384578236144" lon="8.502134888680713"><ele>358.0</ele><time>2026-05-01T08:23:57Z</time></trkpt><trkpt lat="39.48374401812378" lon="8.501965030494688"><ele>358.0</ele><time>2026-05-01T08:23:58Z</time></trkpt><trkpt lat="39.48362477780538" lon="8.501848369959509"><ele>357.4</ele><time>2026-05-01T08:23:59Z</time></trkpt><trkpt lat="39.48354092497185" lon="8.501762355851824"><ele>356.79999999999995</ele><time>2026-05-01T08:24:00Z</time></trkpt><trkpt lat="39.48352213112718" lon="8.501640620788265"><ele>356.2</ele><time>2026-05-01T08:24:01Z</time></trkpt><trkpt lat="39.48356353591571" lon="8.501524016714583"><ele>355.6</ele><time>2026-05-01T08:24:02Z</time></trkpt><trkpt lat="39.48367644549002" lon="8.501456481761387"><ele>355.0</ele><time>2026-05-01T08:24:03Z</time></trkpt><trkpt lat="39.48379761709335" lon="8.501352672531098"><ele>355.0</ele><time>2026-05-01T08:24:04Z</time></trkpt><trkpt lat="39.48392456717576" lon="8.501253810134529"><ele>355.0</ele><time>2026-05-01T08:24:05Z</time></trkpt><trkpt lat="39.48401409454625" lon="8.50115147871746"><ele>355.0</ele><time>2026-05-01T08:24:06Z</time></trkpt><trkpt lat="39.48404673696348" lon="8.501020993634105"><ele>355.0</ele><time>2026-05-01T08:24:07Z</time></trkpt><trkpt lat="39.48400831286464" lon="8.500872134633925"><ele>352.0</ele><time>2026-05-01T08:24:08Z</time></trkpt><trkpt lat="39.48390849757649" lon="8.500750076909148"><ele>349.0</ele><time>2026-05-01T08:24:09Z</time></trkpt><trkpt lat="39.48380264603778" lon="8.50063019433967"><ele>346.0</ele><time>2026-05-01T08:24:10Z</time></trkpt><trkpt lat="39.48374159990968" lon="8.500493235293831"><ele>343.0</ele><time>2026-05-01T08:24:11Z</time></trkpt><trkpt lat="39.48372187142891" lon="8.500318047810588"><ele>342.0</ele><time>2026-05-01T08:24:12Z</time></trkpt><trkpt lat="39.483753058709354" lon="8.500132802596275"><ele>341.0</ele><time>2026-05-01T08:24:13Z</time></trkpt><trkpt lat="39.483845652575916" lon="8.499987933159943"><ele>340.0</ele><time>2026-05-01T08:24:14Z</time></trkpt><trkpt lat="39.48388411400522" lon="8.49978264867744"><ele>339.0</ele><time>2026-05-01T08:24:15Z</time></trkpt><trkpt lat="39.48389580328109" lon="8.499571232576407"><ele>338.0</ele><time>2026-05-01T08:24:16Z</time></trkpt><trkpt lat="39.4838872663679" lon="8.499351753537065"><ele>337.0</ele><time>2026-05-01T08:24:17Z</time></trkpt><trkpt lat="39.483880940962344" lon="8.499161487911973"><ele>337.0</ele><time>2026-05-01T08:24:18Z</time></trkpt><trkpt lat="39.483862902211236" lon="8.499007515607818"><ele>337.0</ele><time>2026-05-01T08:24:19Z</time></trkpt><trkpt lat="39.48378969592515" lon="8.498900109425971"><ele>337.0</ele><time>2026-05-01T08:24:20Z</time></trkpt><trkpt lat="39.483670937345934" lon="8.498835597664996"><ele>337.0</ele><time>2026-05-01T08:24:21Z</time></trkpt><trkpt lat="39.48352537402052" lon="8.498875689836995"><ele>332.0</ele><time>2026-05-01T08:24:22Z</time></trkpt><trkpt lat="39.48337777297416" lon="8.498898697022454"><ele>327.0</ele><time>2026-05-01T08:24:23Z</time></trkpt><trkpt lat="39.48323457656652" lon="8.498952193618045"><ele>322.0</ele><time>2026-05-01T08:24:24Z</time></trkpt><trkpt lat="39.48310449959606" lon="8.498992694743999"><ele>317.0</ele><time>2026-05-01T08:24:25Z</time></trkpt><trkpt lat="39.48297788824107" lon="8.499011737964508"><ele>321.25</ele><time>2026-05-01T08:24:26Z</time></trkpt><trkpt lat="39.482853111174485" lon="8.498981129398608"><ele>325.5</ele><time>2026-05-01T08:24:27Z</time></trkpt><trkpt lat="39.48272206841888" lon="8.498909801616493"><ele>329.75</ele><time>2026-05-01T08:24:28Z</time></trkpt><trkpt lat="39.48257451248488" lon="8.498822617280227"><ele>334.0</ele><time>2026-05-01T08:24:29Z</time></trkpt><trkpt lat="39.482421473188744" lon="8.498734018389303"><ele>334.0</ele><time>2026-05-01T08:24:30Z</time></trkpt><trkpt lat="39.48226755901259" lon="8.498646883878225"><ele>334.0</ele><time>2026-05-01T08:24:31Z</time></trkpt><trkpt lat="39.48212682894828" lon="8.498565464588763"><ele>334.0</ele><time>2026-05-01T08:24:32Z</time></trkpt><trkpt lat="39.48200456485655" lon="8.49847057562813"><ele>322.0</ele><time>2026-05-01T08:24:33Z</time></trkpt><trkpt lat="39.48189715671123" lon="8.498345873155836"><ele>310.0</ele><time>2026-05-01T08:24:33.999Z</time></trkpt><trkpt lat="39.48186253715917" lon="8.49815776461434"><ele>298.0</ele><time>2026-05-01T08:24:34.999Z</time></trkpt><trkpt lat="39.48179581430772" lon="8.497969322893468"><ele>305.66666666666663</ele><time>2026-05-01T08:24:35.999Z</time></trkpt><trkpt lat="39.48171716385864" lon="8.49778915693443"><ele>313.3333333333333</ele><time>2026-05-01T08:24:36.999Z</time></trkpt><trkpt lat="39.48159436525337" lon="8.497645550777598"><ele>321.0</ele><time>2026-05-01T08:24:37.999Z</time></trkpt><trkpt lat="39.481440911305725" lon="8.497570378354416"><ele>321.0</ele><time>2026-05-01T08:24:38.999Z</time></trkpt><trkpt lat="39.48127402965688" lon="8.49757014399434"><ele>321.0</ele><time>2026-05-01T08:24:39.999Z</time></trkpt><trkpt lat="39.48110087311904" lon="8.497580788677826"><ele>321.0</ele><time>2026-05-01T08:24:40.999Z</time></trkpt><trkpt lat="39.480917300842094" lon="8.497594032464775"><ele>317.0</ele><time>2026-05-01T08:24:41.999Z</time></trkpt><trkpt lat="39.48073508229317" lon="8.497607178574953"><ele>313.0</ele><time>2026-05-01T08:24:42.999Z</time></trkpt><trkpt lat="39.48054977364922" lon="8.49762000378523"><ele>309.0</ele><time>2026-05-01T08:24:43.999Z</time></trkpt><trkpt lat="39.48037258219184" lon="8.497632113448672"><ele>305.3333333333333</ele><time>2026-05-01T08:24:44.999Z</time></trkpt><trkpt lat="39.48021066229555" lon="8.497638054909357"><ele>301.66666666666663</ele><time>2026-05-01T08:24:45.999Z</time></trkpt><trkpt lat="39.4800661323178" lon="8.497598559039025"><ele>298.0</ele><time>2026-05-01T08:24:46.999Z</time></trkpt><trkpt lat="39.47995197724905" lon="8.49748928591751"><ele>298.0</ele><time>2026-05-01T08:24:47.999Z</time></trkpt><trkpt lat="39.4798699978687" lon="8.497351688424551"><ele>298.0</ele><time>2026-05-01T08:24:48.999Z</time></trkpt><trkpt lat="39.47981971969355" lon="8.497188640160683"><ele>298.0</ele><time>2026-05-01T08:24:49.999Z</time></trkpt><trkpt lat="39.47981618514987" lon="8.496998733985325"><ele>298.0</ele><time>2026-05-01T08:24:50.999Z</time></trkpt><trkpt lat="39.47987183084607" lon="8.496809947260854"><ele>298.25</ele><time>2026-05-01T08:24:51.999Z</time></trkpt><trkpt lat="39.47994003610892" lon="8.496636897721396"><ele>298.5</ele><time>2026-05-01T08:24:52.999Z</time></trkpt><trkpt lat="39.48001003931204" lon="8.49646060072851"><ele>298.75</ele><time>2026-05-01T08:24:53.999Z</time></trkpt><trkpt lat="39.48003351596579" lon="8.49628686682601"><ele>299.0</ele><time>2026-05-01T08:24:54.999Z</time></trkpt><trkpt lat="39.4799936330249" lon="8.496122193520023"><ele>301.25</ele><time>2026-05-01T08:24:55.999Z</time></trkpt><trkpt lat="39.479915662100105" lon="8.495977525554427"><ele>303.5</ele><time>2026-05-01T08:24:56.999Z</time></trkpt><trkpt lat="39.47981085978258" lon="8.495876465895794"><ele>305.75</ele><time>2026-05-01T08:24:57.999Z</time></trkpt><trkpt lat="39.47969159622164" lon="8.495826026539785"><ele>308.0</ele><time>2026-05-01T08:24:58.999Z</time></trkpt><trkpt lat="39.47956260590788" lon="8.495794609542395"><ele>308.0</ele><time>2026-05-01T08:24:59.999Z</time></trkpt><trkpt lat="39.4794358567781" lon="8.495904418239151"><ele>308.0</ele><time>2026-05-01T08:25:00.999Z</time></trkpt><trkpt lat="39.47930064638358" lon="8.496005809425167"><ele>308.0</ele><time>2026-05-01T08:25:01.999Z</time></trkpt><trkpt lat="39.4791629970996" lon="8.496101240775962"><ele>308.0</ele><time>2026-05-01T08:25:02.999Z</time></trkpt><trkpt lat="39.47902872887139" lon="8.496229614788197"><ele>308.0</ele><time>2026-05-01T08:25:03.999Z</time></trkpt><trkpt lat="39.4789093157633" lon="8.496394002398059"><ele>308.0</ele><time>2026-05-01T08:25:04.999Z</time></trkpt><trkpt lat="39.47876117696548" lon="8.4965222483947"><ele>301.6666666666667</ele><time>2026-05-01T08:25:05.999Z</time></trkpt><trkpt lat="39.478623735560696" lon="8.496651191396964"><ele>295.3333333333333</ele><time>2026-05-01T08:25:06.999Z</time></trkpt><trkpt lat="39.478478596532184" lon="8.496783661695492"><ele>289.0</ele><time>2026-05-01T08:25:07.999Z</time></trkpt><trkpt lat="39.47833972946776" lon="8.496910055412101"><ele>289.0</ele><time>2026-05-01T08:25:08.999Z</time></trkpt><trkpt lat="39.478212878716285" lon="8.497036561724535"><ele>289.0</ele><time>2026-05-01T08:25:09.999Z</time></trkpt><trkpt lat="39.47809581272642" lon="8.497166662019485"><ele>289.0</ele><time>2026-05-01T08:25:10.999Z</time></trkpt><trkpt lat="39.47796088767285" lon="8.497262340352924"><ele>282.66666666666663</ele><time>2026-05-01T08:25:11.999Z</time></trkpt><trkpt lat="39.477818032953095" lon="8.497341778510343"><ele>276.3333333333333</ele><time>2026-05-01T08:25:12.999Z</time></trkpt><trkpt lat="39.47767035875096" lon="8.497393089096564"><ele>270.0</ele><time>2026-05-01T08:25:13.999Z</time></trkpt><trkpt lat="39.47752811696218" lon="8.497394914907105"><ele>270.0</ele><time>2026-05-01T08:25:14.999Z</time></trkpt><trkpt lat="39.47738944024162" lon="8.497349233813905"><ele>270.0</ele><time>2026-05-01T08:25:15.999Z</time></trkpt><trkpt lat="39.477263061374785" lon="8.497287098198873"><ele>270.0</ele><time>2026-05-01T08:25:16.999Z</time></trkpt><trkpt lat="39.477193981815965" lon="8.497153257512732"><ele>270.0</ele><time>2026-05-01T08:25:17.999Z</time></trkpt><trkpt lat="39.47716829508396" lon="8.496981064768251"><ele>273.6666666666667</ele><time>2026-05-01T08:25:18.999Z</time></trkpt><trkpt lat="39.47718956044677" lon="8.496778286991129"><ele>277.33333333333337</ele><time>2026-05-01T08:25:19.999Z</time></trkpt><trkpt lat="39.47724690628384" lon="8.496575978028208"><ele>281.0</ele><time>2026-05-01T08:25:20.999Z</time></trkpt><trkpt lat="39.47731430183014" lon="8.496399192268303"><ele>279.25</ele><time>2026-05-01T08:25:21.999Z</time></trkpt><trkpt lat="39.4773412960321" lon="8.496246082409266"><ele>277.5</ele><time>2026-05-01T08:25:23Z</time></trkpt><trkpt lat="39.47729481625337" lon="8.496101605088219"><ele>275.75</ele><time>2026-05-01T08:25:24Z</time></trkpt><trkpt lat="39.47721516245231" lon="8.49597750911926"><ele>274.0</ele><time>2026-05-01T08:25:25Z</time></trkpt><trkpt lat="39.47717479067022" lon="8.495846649032686"><ele>274.0</ele><time>2026-05-01T08:25:26Z</time></trkpt><trkpt lat="39.47721001837192" lon="8.495723276733868"><ele>274.0</ele><time>2026-05-01T08:25:27Z</time></trkpt><trkpt lat="39.477293791215786" lon="8.495635318070146"><ele>274.0</ele><time>2026-05-01T08:25:28Z</time></trkpt><trkpt lat="39.47741134081759" lon="8.495599003002626"><ele>274.0</ele><time>2026-05-01T08:25:29Z</time></trkpt><trkpt lat="39.47750310203048" lon="8.495523525315788"><ele>274.0</ele><time>2026-05-01T08:25:30Z</time></trkpt><trkpt lat="39.47752555969649" lon="8.495385787981922"><ele>274.0</ele><time>2026-05-01T08:25:31Z</time></trkpt><trkpt lat="39.47749870600193" lon="8.495213704419065"><ele>274.0</ele><time>2026-05-01T08:25:32Z</time></trkpt><trkpt lat="39.47743324725456" lon="8.495054400429801"><ele>274.0</ele><time>2026-05-01T08:25:33Z</time></trkpt><trkpt lat="39.47731830846138" lon="8.494948376032388"><ele>274.0</ele><time>2026-05-01T08:25:34Z</time></trkpt><trkpt lat="39.47717089552252" lon="8.494881185052725"><ele>267.25</ele><time>2026-05-01T08:25:35Z</time></trkpt><trkpt lat="39.47707141920047" lon="8.494744798403534"><ele>260.5</ele><time>2026-05-01T08:25:36Z</time></trkpt><trkpt lat="39.47701114811409" lon="8.494603271957002"><ele>253.75</ele><time>2026-05-01T08:25:37Z</time></trkpt><trkpt lat="39.47699434195937" lon="8.494407650641307"><ele>247.0</ele><time>2026-05-01T08:25:38Z</time></trkpt><trkpt lat="39.47702643580808" lon="8.494220745440122"><ele>247.0</ele><time>2026-05-01T08:25:39Z</time></trkpt><trkpt lat="39.4770504843826" lon="8.494022326029999"><ele>247.0</ele><time>2026-05-01T08:25:40Z</time></trkpt><trkpt lat="39.47706369154617" lon="8.493845726192202"><ele>247.0</ele><time>2026-05-01T08:25:41Z</time></trkpt><trkpt lat="39.47705552030937" lon="8.49370526950978"><ele>247.0</ele><time>2026-05-01T08:25:42Z</time></trkpt><trkpt lat="39.47700934121508" lon="8.493604665158504"><ele>253.25</ele><time>2026-05-01T08:25:43Z</time></trkpt><trkpt lat="39.47691552338664" lon="8.493528363864618"><ele>259.5</ele><time>2026-05-01T08:25:44Z</time></trkpt><trkpt lat="39.476778028917195" lon="8.493576142536602"><ele>265.75</ele><time>2026-05-01T08:25:45Z</time></trkpt><trkpt lat="39.476650219767755" lon="8.493651906565756"><ele>272.0</ele><time>2026-05-01T08:25:46Z</time></trkpt><trkpt lat="39.47652445892169" lon="8.49371802939475"><ele>272.0</ele><time>2026-05-01T08:25:47Z</time></trkpt><trkpt lat="39.476401950824275" lon="8.493734299072417"><ele>272.0</ele><time>2026-05-01T08:25:48Z</time></trkpt><trkpt lat="39.47629775361083" lon="8.493675193884291"><ele>272.0</ele><time>2026-05-01T08:25:49Z</time></trkpt><trkpt lat="39.476202345850524" lon="8.493589585654139"><ele>272.0</ele><time>2026-05-01T08:25:50Z</time></trkpt><trkpt lat="39.476082902838385" lon="8.493552157137026"><ele>271.5</ele><time>2026-05-01T08:25:51Z</time></trkpt><trkpt lat="39.475952490651586" lon="8.493590292638919"><ele>271.0</ele><time>2026-05-01T08:25:52Z</time></trkpt><trkpt lat="39.47584395168661" lon="8.493710764271123"><ele>270.5</ele><time>2026-05-01T08:25:53Z</time></trkpt><trkpt lat="39.47577658365756" lon="8.493884470030482"><ele>270.0</ele><time>2026-05-01T08:25:54Z</time></trkpt><trkpt lat="39.47570780480045" lon="8.494056519337072"><ele>264.0</ele><time>2026-05-01T08:25:55Z</time></trkpt><trkpt lat="39.475638538529275" lon="8.494197681099928"><ele>258.0</ele><time>2026-05-01T08:25:56Z</time></trkpt><trkpt lat="39.47555710132495" lon="8.49430580908427"><ele>252.0</ele><time>2026-05-01T08:25:57Z</time></trkpt><trkpt lat="39.475449939144156" lon="8.494387335573037"><ele>246.0</ele><time>2026-05-01T08:25:58Z</time></trkpt><trkpt lat="39.47533893014087" lon="8.494385219860673"><ele>246.0</ele><time>2026-05-01T08:25:59Z</time></trkpt><trkpt lat="39.47521288332996" lon="8.494342306084725"><ele>246.0</ele><time>2026-05-01T08:26:00Z</time></trkpt><trkpt lat="39.47506266477271" lon="8.494291189848571"><ele>246.0</ele><time>2026-05-01T08:26:01Z</time></trkpt><trkpt lat="39.47490029821049" lon="8.494250940398453"><ele>246.0</ele><time>2026-05-01T08:26:02Z</time></trkpt><trkpt lat="39.474736791132806" lon="8.494192108030134"><ele>246.0</ele><time>2026-05-01T08:26:03Z</time></trkpt><trkpt lat="39.47458012976691" lon="8.49414247660086"><ele>246.0</ele><time>2026-05-01T08:26:04Z</time></trkpt><trkpt lat="39.47442444329664" lon="8.494093610136936"><ele>240.33333333333331</ele><time>2026-05-01T08:26:05Z</time></trkpt><trkpt lat="39.47427232221741" lon="8.494014753795502"><ele>234.66666666666666</ele><time>2026-05-01T08:26:06Z</time></trkpt><trkpt lat="39.474129233849496" lon="8.493908102173446"><ele>229.0</ele><time>2026-05-01T08:26:07Z</time></trkpt><trkpt lat="39.47399399829134" lon="8.493777334441507"><ele>228.0</ele><time>2026-05-01T08:26:08Z</time></trkpt><trkpt lat="39.47385078291989" lon="8.493698601111253"><ele>227.0</ele><time>2026-05-01T08:26:09Z</time></trkpt><trkpt lat="39.4737008363645" lon="8.493678259398749"><ele>226.0</ele><time>2026-05-01T08:26:10Z</time></trkpt><trkpt lat="39.473551058445494" lon="8.493685951234594"><ele>226.0</ele><time>2026-05-01T08:26:11Z</time></trkpt><trkpt lat="39.47341894154146" lon="8.493629452400196"><ele>226.0</ele><time>2026-05-01T08:26:12Z</time></trkpt><trkpt lat="39.47330814275463" lon="8.493515337402147"><ele>226.0</ele><time>2026-05-01T08:26:13Z</time></trkpt><trkpt lat="39.473234971839844" lon="8.493372013170799"><ele>226.0</ele><time>2026-05-01T08:26:14Z</time></trkpt><trkpt lat="39.47322006244833" lon="8.493203000554757"><ele>226.0</ele><time>2026-05-01T08:26:15Z</time></trkpt><trkpt lat="39.47325111793993" lon="8.493012337706771"><ele>226.0</ele><time>2026-05-01T08:26:16Z</time></trkpt><trkpt lat="39.473273876014595" lon="8.492801881849767"><ele>226.0</ele><time>2026-05-01T08:26:17Z</time></trkpt><trkpt lat="39.47324056718063" lon="8.492622365750426"><ele>229.5</ele><time>2026-05-01T08:26:18Z</time></trkpt><trkpt lat="39.473136325901834" lon="8.492486958923715"><ele>233.0</ele><time>2026-05-01T08:26:19Z</time></trkpt><trkpt lat="39.47300407538725" lon="8.492395680620435"><ele>236.5</ele><time>2026-05-01T08:26:20Z</time></trkpt><trkpt lat="39.47289492675436" lon="8.492278495373267"><ele>240.0</ele><time>2026-05-01T08:26:21Z</time></trkpt><trkpt lat="39.47283068082202" lon="8.492098316628889"><ele>231.66666666666669</ele><time>2026-05-01T08:26:22Z</time></trkpt><trkpt lat="39.47279577055558" lon="8.491882667670689"><ele>223.33333333333334</ele><time>2026-05-01T08:26:23Z</time></trkpt><trkpt lat="39.4727932101317" lon="8.491665679593936"><ele>215.0</ele><time>2026-05-01T08:26:24Z</time></trkpt><trkpt lat="39.47281527942807" lon="8.491488318510864"><ele>215.0</ele><time>2026-05-01T08:26:25Z</time></trkpt><trkpt lat="39.472802438056355" lon="8.491352378002988"><ele>215.0</ele><time>2026-05-01T08:26:26Z</time></trkpt><trkpt lat="39.47275489771021" lon="8.491238957388559"><ele>215.0</ele><time>2026-05-01T08:26:27Z</time></trkpt><trkpt lat="39.47264197082322" lon="8.491170854831967"><ele>215.0</ele><time>2026-05-01T08:26:28Z</time></trkpt><trkpt lat="39.47249944723609" lon="8.4911617574397"><ele>218.33333333333334</ele><time>2026-05-01T08:26:29Z</time></trkpt><trkpt lat="39.47235091195967" lon="8.491129871426455"><ele>221.66666666666669</ele><time>2026-05-01T08:26:30Z</time></trkpt><trkpt lat="39.472190601871205" lon="8.491103570044656"><ele>225.0</ele><time>2026-05-01T08:26:31Z</time></trkpt><trkpt lat="39.47202871477497" lon="8.49107686987034"><ele>225.0</ele><time>2026-05-01T08:26:32Z</time></trkpt><trkpt lat="39.471867101875176" lon="8.491050104998914"><ele>225.0</ele><time>2026-05-01T08:26:33Z</time></trkpt><trkpt lat="39.47170032100794" lon="8.491022436096575"><ele>225.0</ele><time>2026-05-01T08:26:34Z</time></trkpt><trkpt lat="39.47152962711072" lon="8.491000346740643"><ele>225.0</ele><time>2026-05-01T08:26:35Z</time></trkpt><trkpt lat="39.471356476330755" lon="8.491000050915698"><ele>225.0</ele><time>2026-05-01T08:26:36Z</time></trkpt><trkpt lat="39.47118443013772" lon="8.491023887834888"><ele>225.0</ele><time>2026-05-01T08:26:37Z</time></trkpt><trkpt lat="39.471016043839505" lon="8.49107678199276"><ele>224.33333333333331</ele><time>2026-05-01T08:26:38Z</time></trkpt><trkpt lat="39.47085350341682" lon="8.491104331269918"><ele>223.66666666666666</ele><time>2026-05-01T08:26:39Z</time></trkpt><trkpt lat="39.470698375880175" lon="8.491061808387814"><ele>223.0</ele><time>2026-05-01T08:26:39.999Z</time></trkpt><trkpt lat="39.470544960619975" lon="8.491004394019193"><ele>217.33333333333331</ele><time>2026-05-01T08:26:40.999Z</time></trkpt><trkpt lat="39.47038729456955" lon="8.490944296291644"><ele>211.66666666666669</ele><time>2026-05-01T08:26:41.999Z</time></trkpt><trkpt lat="39.47024532511098" lon="8.49087662867409"><ele>206.0</ele><time>2026-05-01T08:26:42.999Z</time></trkpt><trkpt lat="39.470106835173354" lon="8.490773680200014"><ele>206.0</ele><time>2026-05-01T08:26:43.999Z</time></trkpt><trkpt lat="39.469994447876495" lon="8.490611682170162"><ele>206.0</ele><time>2026-05-01T08:26:44.999Z</time></trkpt><trkpt lat="39.46990265638841" lon="8.490412977812142"><ele>206.0</ele><time>2026-05-01T08:26:45.999Z</time></trkpt><trkpt lat="39.4697993561884" lon="8.490221385142858"><ele>201.0</ele><time>2026-05-01T08:26:46.999Z</time></trkpt><trkpt lat="39.469665650500836" lon="8.490057255229024"><ele>196.0</ele><time>2026-05-01T08:26:47.999Z</time></trkpt><trkpt lat="39.469496943820815" lon="8.489935860409974"><ele>191.0</ele><time>2026-05-01T08:26:48.999Z</time></trkpt><trkpt lat="39.469325061095475" lon="8.489817868357516"><ele>191.0</ele><time>2026-05-01T08:26:49.999Z</time></trkpt><trkpt lat="39.469160529336726" lon="8.48969244828544"><ele>191.0</ele><time>2026-05-01T08:26:50.999Z</time></trkpt><trkpt lat="39.468997136315046" lon="8.489578207003097"><ele>191.0</ele><time>2026-05-01T08:26:51.999Z</time></trkpt><trkpt lat="39.46885038106668" lon="8.489449070763472"><ele>190.0</ele><time>2026-05-01T08:26:52.999Z</time></trkpt><trkpt lat="39.468707076680296" lon="8.48934417802954"><ele>189.0</ele><time>2026-05-01T08:26:53.999Z</time></trkpt><trkpt lat="39.468571044441084" lon="8.48925867239586"><ele>188.0</ele><time>2026-05-01T08:26:54.999Z</time></trkpt><trkpt lat="39.46848296653598" lon="8.489113391180334"><ele>188.0</ele><time>2026-05-01T08:26:55.999Z</time></trkpt><trkpt lat="39.468447587046875" lon="8.488945365135999"><ele>188.0</ele><time>2026-05-01T08:26:56.999Z</time></trkpt><trkpt lat="39.46847620815999" lon="8.488761934781543"><ele>188.0</ele><time>2026-05-01T08:26:57.999Z</time></trkpt><trkpt lat="39.46853064714335" lon="8.488543326442144"><ele>188.5</ele><time>2026-05-01T08:26:58.999Z</time></trkpt><trkpt lat="39.46857300930438" lon="8.488330566283551"><ele>189.0</ele><time>2026-05-01T08:26:59.999Z</time></trkpt><trkpt lat="39.468586545440054" lon="8.488160433689258"><ele>189.5</ele><time>2026-05-01T08:27:00.999Z</time></trkpt><trkpt lat="39.468556993220595" lon="8.48802248091588"><ele>190.0</ele><time>2026-05-01T08:27:01.999Z</time></trkpt><trkpt lat="39.46847033648453" lon="8.487917356471105"><ele>186.5</ele><time>2026-05-01T08:27:02.999Z</time></trkpt><trkpt lat="39.46834387887906" lon="8.487861563921138"><ele>183.0</ele><time>2026-05-01T08:27:03.999Z</time></trkpt><trkpt lat="39.46819695337866" lon="8.48786561222728"><ele>179.5</ele><time>2026-05-01T08:27:04.999Z</time></trkpt><trkpt lat="39.46803994841361" lon="8.487925527214443"><ele>176.0</ele><time>2026-05-01T08:27:05.999Z</time></trkpt><trkpt lat="39.46786079861881" lon="8.487973558265372"><ele>176.0</ele><time>2026-05-01T08:27:06.999Z</time></trkpt><trkpt lat="39.467679305834174" lon="8.488021632749149"><ele>176.0</ele><time>2026-05-01T08:27:07.999Z</time></trkpt><trkpt lat="39.46750913633016" lon="8.488072734513416"><ele>176.0</ele><time>2026-05-01T08:27:08.999Z</time></trkpt><trkpt lat="39.46737499164743" lon="8.48814300879456"><ele>176.0</ele><time>2026-05-01T08:27:09.999Z</time></trkpt><trkpt lat="39.46728361035351" lon="8.48822176822693"><ele>176.0</ele><time>2026-05-01T08:27:10.999Z</time></trkpt><trkpt lat="39.467209349665985" lon="8.488271742288198"><ele>176.0</ele><time>2026-05-01T08:27:11.999Z</time></trkpt><trkpt lat="39.4671359228966" lon="8.488300377994454"><ele>176.0</ele><time>2026-05-01T08:27:12.999Z</time></trkpt><trkpt lat="39.46705237842126" lon="8.488295843533862"><ele>176.0</ele><time>2026-05-01T08:27:13.999Z</time></trkpt><trkpt lat="39.46696150115659" lon="8.48826131305185"><ele>176.0</ele><time>2026-05-01T08:27:14.999Z</time></trkpt><trkpt lat="39.46687942899297" lon="8.488193148267845"><ele>174.5</ele><time>2026-05-01T08:27:15.999Z</time></trkpt><trkpt lat="39.46679256858249" lon="8.488132928042113"><ele>173.0</ele><time>2026-05-01T08:27:16.999Z</time></trkpt><trkpt lat="39.466732072486614" lon="8.488055269725356"><ele>171.5</ele><time>2026-05-01T08:27:17.999Z</time></trkpt><trkpt lat="39.46669770172944" lon="8.487967103859397"><ele>170.0</ele><time>2026-05-01T08:27:18.999Z</time></trkpt><trkpt lat="39.46670134424462" lon="8.487855560872"><ele>168.5</ele><time>2026-05-01T08:27:19.999Z</time></trkpt><trkpt lat="39.46674343727724" lon="8.487754209259071"><ele>167.0</ele><time>2026-05-01T08:27:20.999Z</time></trkpt><trkpt lat="39.46679406311052" lon="8.487647001734349"><ele>167.0</ele><time>2026-05-01T08:27:21.999Z</time></trkpt><trkpt lat="39.4668393073148" lon="8.487531924669293"><ele>167.0</ele><time>2026-05-01T08:27:22.999Z</time></trkpt><trkpt lat="39.46684692806598" lon="8.487410159949874"><ele>167.0</ele><time>2026-05-01T08:27:23.999Z</time></trkpt><trkpt lat="39.46679103740645" lon="8.48729586761835"><ele>167.0</ele><time>2026-05-01T08:27:24.999Z</time></trkpt><trkpt lat="39.46671899474029" lon="8.487196949588979"><ele>167.0</ele><time>2026-05-01T08:27:25.999Z</time></trkpt><trkpt lat="39.46667673898826" lon="8.487080740734772"><ele>166.39999999999998</ele><time>2026-05-01T08:27:26.999Z</time></trkpt><trkpt lat="39.46666346510298" lon="8.486962859146033"><ele>165.79999999999998</ele><time>2026-05-01T08:27:28Z</time></trkpt><trkpt lat="39.46668954416035" lon="8.486848915421161"><ele>165.2</ele><time>2026-05-01T08:27:29Z</time></trkpt><trkpt lat="39.466738619838466" lon="8.486743969132098"><ele>164.6</ele><time>2026-05-01T08:27:30Z</time></trkpt><trkpt lat="39.46679438668055" lon="8.48663050752197"><ele>164.0</ele><time>2026-05-01T08:27:31Z</time></trkpt><trkpt lat="39.466832559953154" lon="8.486499402811116"><ele>164.0</ele><time>2026-05-01T08:27:32Z</time></trkpt><trkpt lat="39.466838346861024" lon="8.48636980351691"><ele>164.0</ele><time>2026-05-01T08:27:33Z</time></trkpt><trkpt lat="39.466784822047984" lon="8.486255124054859"><ele>164.0</ele><time>2026-05-01T08:27:34Z</time></trkpt><trkpt lat="39.46669205590707" lon="8.486185938096627"><ele>164.0</ele><time>2026-05-01T08:27:35Z</time></trkpt><trkpt lat="39.46659284362643" lon="8.48613993966597"><ele>164.0</ele><time>2026-05-01T08:27:36Z</time></trkpt><trkpt lat="39.4664988163815" lon="8.48613712692006"><ele>165.16666666666666</ele><time>2026-05-01T08:27:37Z</time></trkpt><trkpt lat="39.46642764014621" lon="8.486112946320025"><ele>166.33333333333331</ele><time>2026-05-01T08:27:38Z</time></trkpt><trkpt lat="39.46637844969392" lon="8.486060049209769"><ele>167.5</ele><time>2026-05-01T08:27:39Z</time></trkpt><trkpt lat="39.46634217465592" lon="8.485979819460063"><ele>168.66666666666666</ele><time>2026-05-01T08:27:40Z</time></trkpt><trkpt lat="39.46634266546408" lon="8.48585813714936"><ele>169.83333333333334</ele><time>2026-05-01T08:27:41Z</time></trkpt><trkpt lat="39.466348794935996" lon="8.485728108233475"><ele>171.0</ele><time>2026-05-01T08:27:42Z</time></trkpt><trkpt lat="39.466326409338805" lon="8.485607983470134"><ele>166.75</ele><time>2026-05-01T08:27:43Z</time></trkpt><trkpt lat="39.46625801905746" lon="8.485497626516745"><ele>162.5</ele><time>2026-05-01T08:27:44Z</time></trkpt><trkpt lat="39.46615714642397" lon="8.48542255205889"><ele>158.25</ele><time>2026-05-01T08:27:45Z</time></trkpt><trkpt lat="39.46606806443096" lon="8.485315143658605"><ele>154.0</ele><time>2026-05-01T08:27:46Z</time></trkpt><trkpt lat="39.465994046315764" lon="8.485145291424296"><ele>154.0</ele><time>2026-05-01T08:27:47Z</time></trkpt><trkpt lat="39.46592237631374" lon="8.484946532768829"><ele>154.0</ele><time>2026-05-01T08:27:48Z</time></trkpt><trkpt lat="39.465847765648064" lon="8.484761783295745"><ele>154.0</ele><time>2026-05-01T08:27:49Z</time></trkpt><trkpt lat="39.465745906033796" lon="8.48461372370461"><ele>151.0</ele><time>2026-05-01T08:27:50Z</time></trkpt><trkpt lat="39.46560012061938" lon="8.484516048183357"><ele>148.0</ele><time>2026-05-01T08:27:51Z</time></trkpt><trkpt lat="39.46546259012214" lon="8.484425911261514"><ele>145.0</ele><time>2026-05-01T08:27:52Z</time></trkpt><trkpt lat="39.46533176734412" lon="8.484350566469418"><ele>145.0</ele><time>2026-05-01T08:27:53Z</time></trkpt><trkpt lat="39.46520770264265" lon="8.484279113828476"><ele>145.0</ele><time>2026-05-01T08:27:54Z</time></trkpt><trkpt lat="39.46509709503525" lon="8.484215411451034"><ele>145.0</ele><time>2026-05-01T08:27:55Z</time></trkpt><trkpt lat="39.4650042880752" lon="8.48415785789397"><ele>145.0</ele><time>2026-05-01T08:27:56Z</time></trkpt><trkpt lat="39.46492694784679" lon="8.484097143027718"><ele>145.0</ele><time>2026-05-01T08:27:57Z</time></trkpt><trkpt lat="39.46487694219549" lon="8.484000842248948"><ele>145.0</ele><time>2026-05-01T08:27:58Z</time></trkpt><trkpt lat="39.46485421116267" lon="8.483875327471056"><ele>145.0</ele><time>2026-05-01T08:27:59Z</time></trkpt><trkpt lat="39.46488172850981" lon="8.48373509690998"><ele>145.0</ele><time>2026-05-01T08:28:00Z</time></trkpt><trkpt lat="39.46493231138739" lon="8.483604840287022"><ele>145.0</ele><time>2026-05-01T08:28:01Z</time></trkpt><trkpt lat="39.46500259928819" lon="8.483477783110605"><ele>143.25</ele><time>2026-05-01T08:28:02Z</time></trkpt><trkpt lat="39.46509786064848" lon="8.483335137590805"><ele>141.5</ele><time>2026-05-01T08:28:03Z</time></trkpt><trkpt lat="39.46522954270058" lon="8.483241439156982"><ele>139.75</ele><time>2026-05-01T08:28:04Z</time></trkpt><trkpt lat="39.46532814151249" lon="8.483170035459258"><ele>138.0</ele><time>2026-05-01T08:28:05Z</time></trkpt><trkpt lat="39.46537152909025" lon="8.483042728170867"><ele>134.5</ele><time>2026-05-01T08:28:06Z</time></trkpt><trkpt lat="39.46534114174134" lon="8.482881639561235"><ele>131.0</ele><time>2026-05-01T08:28:07Z</time></trkpt><trkpt lat="39.4652504651486" lon="8.482728940297319"><ele>127.5</ele><time>2026-05-01T08:28:08Z</time></trkpt><trkpt lat="39.465172003393945" lon="8.482587573707024"><ele>124.0</ele><time>2026-05-01T08:28:09Z</time></trkpt><trkpt lat="39.465205849294215" lon="8.482433395384477"><ele>124.0</ele><time>2026-05-01T08:28:10Z</time></trkpt><trkpt lat="39.46527333109632" lon="8.482270698930579"><ele>124.0</ele><time>2026-05-01T08:28:11Z</time></trkpt><trkpt lat="39.465390342388716" lon="8.482149764269014"><ele>124.0</ele><time>2026-05-01T08:28:12Z</time></trkpt><trkpt lat="39.46552346015359" lon="8.48207013455008"><ele>124.0</ele><time>2026-05-01T08:28:13Z</time></trkpt><trkpt lat="39.46564982020547" lon="8.481994175329705"><ele>129.0</ele><time>2026-05-01T08:28:14Z</time></trkpt><trkpt lat="39.46574486723422" lon="8.481889287552919"><ele>134.0</ele><time>2026-05-01T08:28:15Z</time></trkpt><trkpt lat="39.46578444693434" lon="8.48176448973273"><ele>139.0</ele><time>2026-05-01T08:28:16Z</time></trkpt><trkpt lat="39.46578951916641" lon="8.48163454081106"><ele>144.0</ele><time>2026-05-01T08:28:17Z</time></trkpt><trkpt lat="39.46571781095926" lon="8.4814992212639"><ele>144.0</ele><time>2026-05-01T08:28:18Z</time></trkpt><trkpt lat="39.465550342023796" lon="8.481449618938022"><ele>144.0</ele><time>2026-05-01T08:28:19Z</time></trkpt><trkpt lat="39.46539835060444" lon="8.481385579082747"><ele>144.0</ele><time>2026-05-01T08:28:20Z</time></trkpt><trkpt lat="39.46523069876702" lon="8.481360738663025"><ele>136.66666666666666</ele><time>2026-05-01T08:28:21Z</time></trkpt><trkpt lat="39.46505304060733" lon="8.481395707214489"><ele>129.33333333333331</ele><time>2026-05-01T08:28:22Z</time></trkpt><trkpt lat="39.464881864696224" lon="8.481435266998194"><ele>122.0</ele><time>2026-05-01T08:28:23Z</time></trkpt><trkpt lat="39.4647302378474" lon="8.481469221273322"><ele>119.6</ele><time>2026-05-01T08:28:24Z</time></trkpt><trkpt lat="39.46460648467636" lon="8.481495967851531"><ele>117.19999999999999</ele><time>2026-05-01T08:28:25Z</time></trkpt><trkpt lat="39.464503845282636" lon="8.481502886486245"><ele>114.8</ele><time>2026-05-01T08:28:26Z</time></trkpt><trkpt lat="39.46443037132667" lon="8.481453396235933"><ele>112.4</ele><time>2026-05-01T08:28:27Z</time></trkpt><trkpt lat="39.46438499820048" lon="8.481362590019815"><ele>110.0</ele><time>2026-05-01T08:28:28Z</time></trkpt><trkpt lat="39.46436184904262" lon="8.481250118212236"><ele>109.99999999999999</ele><time>2026-05-01T08:28:29Z</time></trkpt><trkpt lat="39.46437883614954" lon="8.481129395459595"><ele>110.0</ele><time>2026-05-01T08:28:30Z</time></trkpt><trkpt lat="39.4644012778521" lon="8.481007533717849"><ele>110.0</ele><time>2026-05-01T08:28:31Z</time></trkpt><trkpt lat="39.464414540638444" lon="8.480897029177278"><ele>110.0</ele><time>2026-05-01T08:28:32Z</time></trkpt><trkpt lat="39.46441717262751" lon="8.480794127988686"><ele>109.99999999999999</ele><time>2026-05-01T08:28:33Z</time></trkpt><trkpt lat="39.46438516122339" lon="8.480708658525861"><ele>110.0</ele><time>2026-05-01T08:28:34Z</time></trkpt><trkpt lat="39.46432913981843" lon="8.480627441340351"><ele>110.0</ele><time>2026-05-01T08:28:35Z</time></trkpt><trkpt lat="39.464202167145906" lon="8.480598631794152"><ele>110.0</ele><time>2026-05-01T08:28:36Z</time></trkpt><trkpt lat="39.464054543136015" lon="8.480593249104032"><ele>110.0</ele><time>2026-05-01T08:28:37Z</time></trkpt><trkpt lat="39.463902439512694" lon="8.480588508656673"><ele>110.0</ele><time>2026-05-01T08:28:38Z</time></trkpt><trkpt lat="39.46376138220975" lon="8.480584112553572"><ele>109.75</ele><time>2026-05-01T08:28:39Z</time></trkpt><trkpt lat="39.46363493455594" lon="8.480579494581589"><ele>109.5</ele><time>2026-05-01T08:28:40Z</time></trkpt><trkpt lat="39.46351753750969" lon="8.480571079737016"><ele>109.25</ele><time>2026-05-01T08:28:41Z</time></trkpt><trkpt lat="39.46341247955146" lon="8.480520952946183"><ele>109.0</ele><time>2026-05-01T08:28:42Z</time></trkpt><trkpt lat="39.46333031724059" lon="8.480415205283272"><ele>109.0</ele><time>2026-05-01T08:28:43Z</time></trkpt><trkpt lat="39.46326126321447" lon="8.480246131755381"><ele>109.0</ele><time>2026-05-01T08:28:43.999Z</time></trkpt><trkpt lat="39.463169482459755" lon="8.480086188801387"><ele>109.0</ele><time>2026-05-01T08:28:44.999Z</time></trkpt><trkpt lat="39.46309090037426" lon="8.47990988510937"><ele>109.0</ele><time>2026-05-01T08:28:45.999Z</time></trkpt><trkpt lat="39.463008016773635" lon="8.479736421510829"><ele>109.0</ele><time>2026-05-01T08:28:46.999Z</time></trkpt><trkpt lat="39.46292468028763" lon="8.479577417651962"><ele>109.0</ele><time>2026-05-01T08:28:47.999Z</time></trkpt><trkpt lat="39.462845923177454" lon="8.47942332716225"><ele>109.0</ele><time>2026-05-01T08:28:48.999Z</time></trkpt><trkpt lat="39.46278546872341" lon="8.479264623729296"><ele>105.0</ele><time>2026-05-01T08:28:49.999Z</time></trkpt><trkpt lat="39.46270682383175" lon="8.479136416405437"><ele>101.0</ele><time>2026-05-01T08:28:50.999Z</time></trkpt><trkpt lat="39.46266474051806" lon="8.479009346049793"><ele>97.0</ele><time>2026-05-01T08:28:51.999Z</time></trkpt><trkpt lat="39.46265684947572" lon="8.47888516167582"><ele>93.0</ele><time>2026-05-01T08:28:52.999Z</time></trkpt><trkpt lat="39.46270267201534" lon="8.478758488546879"><ele>89.0</ele><time>2026-05-01T08:28:53.999Z</time></trkpt><trkpt lat="39.46280896939667" lon="8.478652832260813"><ele>87.33333333333334</ele><time>2026-05-01T08:28:54.999Z</time></trkpt><trkpt lat="39.46290190827367" lon="8.478486653951617"><ele>85.66666666666667</ele><time>2026-05-01T08:28:55.999Z</time></trkpt><trkpt lat="39.463031125861" lon="8.478321458872195"><ele>84.0</ele><time>2026-05-01T08:28:56.999Z</time></trkpt><trkpt lat="39.4631581448601" lon="8.478159521735588"><ele>88.0</ele><time>2026-05-01T08:28:57.999Z</time></trkpt><trkpt lat="39.463274987799615" lon="8.478011836958313"><ele>92.0</ele><time>2026-05-01T08:28:58.999Z</time></trkpt><trkpt lat="39.4633719238298" lon="8.477871928169082"><ele>96.0</ele><time>2026-05-01T08:28:59.999Z</time></trkpt><trkpt lat="39.46344971718449" lon="8.47775464759028"><ele>100.0</ele><time>2026-05-01T08:29:00.999Z</time></trkpt><trkpt lat="39.46348929517601" lon="8.477641899071259"><ele>100.0</ele><time>2026-05-01T08:29:01.999Z</time></trkpt><trkpt lat="39.46347816114631" lon="8.477513720788464"><ele>100.0</ele><time>2026-05-01T08:29:02.999Z</time></trkpt><trkpt lat="39.463414291378804" lon="8.477412246330116"><ele>100.0</ele><time>2026-05-01T08:29:03.999Z</time></trkpt><trkpt lat="39.46331997275496" lon="8.477350041002252"><ele>100.0</ele><time>2026-05-01T08:29:04.999Z</time></trkpt><trkpt lat="39.463195101451625" lon="8.47737811288041"><ele>100.0</ele><time>2026-05-01T08:29:05.999Z</time></trkpt><trkpt lat="39.463099660722335" lon="8.477529678799604"><ele>100.0</ele><time>2026-05-01T08:29:06.999Z</time></trkpt><trkpt lat="39.46299823960154" lon="8.477630142899026"><ele>100.0</ele><time>2026-05-01T08:29:07.999Z</time></trkpt><trkpt lat="39.46287743642268" lon="8.477738430790277"><ele>100.0</ele><time>2026-05-01T08:29:08.999Z</time></trkpt><trkpt lat="39.46274117494723" lon="8.47783175971266"><ele>100.0</ele><time>2026-05-01T08:29:09.999Z</time></trkpt><trkpt lat="39.462604244453615" lon="8.477916377424686"><ele>94.66666666666667</ele><time>2026-05-01T08:29:10.999Z</time></trkpt><trkpt lat="39.46245384814672" lon="8.47798298284266"><ele>89.33333333333334</ele><time>2026-05-01T08:29:11.999Z</time></trkpt><trkpt lat="39.46230272904458" lon="8.47801827366858"><ele>84.0</ele><time>2026-05-01T08:29:12.999Z</time></trkpt><trkpt lat="39.46215445676805" lon="8.478049565455326"><ele>85.0</ele><time>2026-05-01T08:29:13.999Z</time></trkpt><trkpt lat="39.462023859575375" lon="8.478143592442494"><ele>86.0</ele><time>2026-05-01T08:29:14.999Z</time></trkpt><trkpt lat="39.46190426848358" lon="8.478283600392654"><ele>87.0</ele><time>2026-05-01T08:29:15.999Z</time></trkpt><trkpt lat="39.461808007678336" lon="8.478464323402735"><ele>87.0</ele><time>2026-05-01T08:29:16.999Z</time></trkpt><trkpt lat="39.461704856031666" lon="8.47864412031855"><ele>87.0</ele><time>2026-05-01T08:29:17.999Z</time></trkpt><trkpt lat="39.46160991705785" lon="8.47883185980634"><ele>87.0</ele><time>2026-05-01T08:29:18.999Z</time></trkpt><trkpt lat="39.46150651094896" lon="8.479013371028906"><ele>83.33333333333333</ele><time>2026-05-01T08:29:19.999Z</time></trkpt><trkpt lat="39.461399150875735" lon="8.479182015141527"><ele>79.66666666666666</ele><time>2026-05-01T08:29:20.999Z</time></trkpt><trkpt lat="39.4612959681203" lon="8.479342615480991"><ele>76.0</ele><time>2026-05-01T08:29:21.999Z</time></trkpt><trkpt lat="39.46119996491883" lon="8.479490439858811"><ele>72.25</ele><time>2026-05-01T08:29:22.999Z</time></trkpt><trkpt lat="39.461110507942905" lon="8.479614867628035"><ele>68.5</ele><time>2026-05-01T08:29:23.999Z</time></trkpt><trkpt lat="39.46100474541237" lon="8.479699188708354"><ele>64.75</ele><time>2026-05-01T08:29:24.999Z</time></trkpt><trkpt lat="39.46087739008823" lon="8.479737197897013"><ele>61.0</ele><time>2026-05-01T08:29:25.999Z</time></trkpt><trkpt lat="39.46075434328576" lon="8.479685593284504"><ele>61.25</ele><time>2026-05-01T08:29:26.999Z</time></trkpt><trkpt lat="39.46064510244226" lon="8.479584653019566"><ele>61.5</ele><time>2026-05-01T08:29:27.999Z</time></trkpt><trkpt lat="39.46051303950802" lon="8.479473942887452"><ele>61.75</ele><time>2026-05-01T08:29:28.999Z</time></trkpt><trkpt lat="39.46037426362405" lon="8.479377159257611"><ele>62.0</ele><time>2026-05-01T08:29:29.999Z</time></trkpt><trkpt lat="39.4602396976798" lon="8.479257261896155"><ele>62.0</ele><time>2026-05-01T08:29:30.999Z</time></trkpt><trkpt lat="39.46010222185244" lon="8.479139683688489"><ele>62.0</ele><time>2026-05-01T08:29:31.999Z</time></trkpt><trkpt lat="39.46001047638019" lon="8.478985252243044"><ele>62.0</ele><time>2026-05-01T08:29:32.999Z</time></trkpt><trkpt lat="39.45991650171631" lon="8.478849365384221"><ele>63.0</ele><time>2026-05-01T08:29:34Z</time></trkpt><trkpt lat="39.45985674555983" lon="8.47872680959852"><ele>64.0</ele><time>2026-05-01T08:29:35Z</time></trkpt><trkpt lat="39.45971072477198" lon="8.478727575127284"><ele>65.0</ele><time>2026-05-01T08:29:36Z</time></trkpt><trkpt lat="39.459555791421685" lon="8.47873986466495"><ele>66.0</ele><time>2026-05-01T08:29:37Z</time></trkpt><trkpt lat="39.45938990433188" lon="8.47874095859131"><ele>66.0</ele><time>2026-05-01T08:29:38Z</time></trkpt><trkpt lat="39.4592117000862" lon="8.47873689394691"><ele>66.0</ele><time>2026-05-01T08:29:39Z</time></trkpt><trkpt lat="39.45903670343884" lon="8.478722425024278"><ele>66.0</ele><time>2026-05-01T08:29:40Z</time></trkpt><trkpt lat="39.458860529782264" lon="8.478697682306738"><ele>63.0</ele><time>2026-05-01T08:29:41Z</time></trkpt><trkpt lat="39.45868436223276" lon="8.478684610625212"><ele>60.0</ele><time>2026-05-01T08:29:42Z</time></trkpt><trkpt lat="39.458509037670545" lon="8.478616986473979"><ele>57.0</ele><time>2026-05-01T08:29:43Z</time></trkpt><trkpt lat="39.45832800711051" lon="8.478558762228445"><ele>57.0</ele><time>2026-05-01T08:29:44Z</time></trkpt><trkpt lat="39.4581452778151" lon="8.478497573666353"><ele>57.0</ele><time>2026-05-01T08:29:45Z</time></trkpt><trkpt lat="39.45796331086021" lon="8.478436877998474"><ele>57.0</ele><time>2026-05-01T08:29:46Z</time></trkpt><trkpt lat="39.457792747190716" lon="8.47838194347025"><ele>54.33333333333333</ele><time>2026-05-01T08:29:47Z</time></trkpt><trkpt lat="39.45763320070687" lon="8.478330557292962"><ele>51.666666666666664</ele><time>2026-05-01T08:29:48Z</time></trkpt><trkpt lat="39.457478498675606" lon="8.478291514857055"><ele>49.0</ele><time>2026-05-01T08:29:49Z</time></trkpt><trkpt lat="39.45732405342514" lon="8.47829373757918"><ele>49.0</ele><time>2026-05-01T08:29:50Z</time></trkpt><trkpt lat="39.45716349165452" lon="8.478318465155214"><ele>49.0</ele><time>2026-05-01T08:29:51Z</time></trkpt><trkpt lat="39.457002663126715" lon="8.478385810567984"><ele>49.0</ele><time>2026-05-01T08:29:52Z</time></trkpt><trkpt lat="39.45684058646609" lon="8.478468167037143"><ele>48.0</ele><time>2026-05-01T08:29:53Z</time></trkpt><trkpt lat="39.45666749763356" lon="8.478494457221986"><ele>47.0</ele><time>2026-05-01T08:29:54Z</time></trkpt><trkpt lat="39.45649277795896" lon="8.478516592574957"><ele>46.0</ele><time>2026-05-01T08:29:55Z</time></trkpt><trkpt lat="39.45632508501628" lon="8.478486191895769"><ele>44.66666666666667</ele><time>2026-05-01T08:29:56Z</time></trkpt><trkpt lat="39.45614997989024" lon="8.478465489151898"><ele>43.333333333333336</ele><time>2026-05-01T08:29:57Z</time></trkpt><trkpt lat="39.455970389090275" lon="8.478465682828615"><ele>42.0</ele><time>2026-05-01T08:29:58Z</time></trkpt><trkpt lat="39.45579302256546" lon="8.4784278219695"><ele>42.0</ele><time>2026-05-01T08:29:59Z</time></trkpt><trkpt lat="39.455613444952206" lon="8.478424704388464"><ele>42.0</ele><time>2026-05-01T08:30:00Z</time></trkpt><trkpt lat="39.45543507141978" lon="8.478447053633891"><ele>42.0</ele><time>2026-05-01T08:30:01Z</time></trkpt><trkpt lat="39.45525985253742" lon="8.478447278117923"><ele>41.0</ele><time>2026-05-01T08:30:02Z</time></trkpt><trkpt lat="39.45508532205704" lon="8.478433387077198"><ele>40.0</ele><time>2026-05-01T08:30:03Z</time></trkpt><trkpt lat="39.454915965115596" lon="8.478436168928898"><ele>39.0</ele><time>2026-05-01T08:30:04Z</time></trkpt><trkpt lat="39.454759792069545" lon="8.478438712320065"><ele>39.0</ele><time>2026-05-01T08:30:05Z</time></trkpt><trkpt lat="39.454614081479704" lon="8.478441083899725"><ele>39.0</ele><time>2026-05-01T08:30:06Z</time></trkpt><trkpt lat="39.45447588794723" lon="8.478443333129233"><ele>39.0</ele><time>2026-05-01T08:30:07Z</time></trkpt><trkpt lat="39.45435527294479" lon="8.478445296252952"><ele>39.0</ele><time>2026-05-01T08:30:08Z</time></trkpt><trkpt lat="39.45425595716177" lon="8.478446912714697"><ele>39.0</ele><time>2026-05-01T08:30:09Z</time></trkpt><trkpt lat="39.45418404436204" lon="8.478448083163313"><ele>39.0</ele><time>2026-05-01T08:30:10Z</time></trkpt><trkpt lat="39.45413227628335" lon="8.478380407385146"><ele>39.0</ele><time>2026-05-01T08:30:12Z</time></trkpt><trkpt lat="39.454104661751856" lon="8.47826950615194"><ele>39.0</ele><time>2026-05-01T08:30:18Z</time></trkpt><trkpt lat="39.454106143137444" lon="8.478178681567421"><ele>39.0</ele><time>2026-05-01T08:30:19Z</time></trkpt><trkpt lat="39.45407963161755" lon="8.478090516543377"><ele>39.0</ele><time>2026-05-01T08:30:20Z</time></trkpt><trkpt lat="39.45408694050921" lon="8.47800117115964"><ele>39.0</ele><time>2026-05-01T08:30:22Z</time></trkpt><trkpt lat="39.4541007892237" lon="8.47821206409494"><ele>39.0</ele><time>2026-05-01T08:30:27Z</time></trkpt><trkpt lat="39.45413138975091" lon="8.47831093399981"><ele>39.0</ele><time>2026-05-01T08:30:29Z</time></trkpt><trkpt lat="39.454110086534115" lon="8.478402105650995"><ele>39.0</ele><time>2026-05-01T08:30:31Z</time></trkpt><trkpt lat="39.454044788352135" lon="8.478416879095791"><ele>39.0</ele><time>2026-05-01T08:30:33Z</time></trkpt><trkpt lat="39.45397890774664" lon="8.478399328756511"><ele>39.0</ele><time>2026-05-01T08:30:34Z</time></trkpt><trkpt lat="39.453907557064134" lon="8.478402304336385"><ele>39.0</ele><time>2026-05-01T08:30:35Z</time></trkpt><trkpt lat="39.45379431777792" lon="8.478430032777817"><ele>38.4</ele><time>2026-05-01T08:30:37Z</time></trkpt><trkpt lat="39.45367351002938" lon="8.478488918801334"><ele>37.8</ele><time>2026-05-01T08:30:39Z</time></trkpt><trkpt lat="39.45359837644256" lon="8.478518459428434"><ele>37.2</ele><time>2026-05-01T08:30:40Z</time></trkpt><trkpt lat="39.45356158397068" lon="8.478602087768051"><ele>36.6</ele><time>2026-05-01T08:30:41Z</time></trkpt><trkpt lat="39.45348301945978" lon="8.478598627034073"><ele>36.0</ele><time>2026-05-01T08:30:43Z</time></trkpt><trkpt lat="39.45340414748012" lon="8.478464366444674"><ele>36.0</ele><time>2026-05-01T08:30:45Z</time></trkpt><trkpt lat="39.45335870613943" lon="8.478363985378786"><ele>36.0</ele><time>2026-05-01T08:30:46Z</time></trkpt><trkpt lat="39.45331263899945" lon="8.478289053894501"><ele>36.0</ele><time>2026-05-01T08:30:46.999Z</time></trkpt><trkpt lat="39.45335978476868" lon="8.478363196298355"><ele>36.0</ele><time>2026-05-01T08:31:02.999Z</time></trkpt><trkpt lat="39.45341316061656" lon="8.478446576914878"><ele>36.0</ele><time>2026-05-01T08:31:03.999Z</time></trkpt><trkpt lat="39.453448935344376" lon="8.478519669257157"><ele>36.0</ele><time>2026-05-01T08:31:04.999Z</time></trkpt><trkpt lat="39.45351074813528" lon="8.478611556580198"><ele>36.0</ele><time>2026-05-01T08:31:06.999Z</time></trkpt><trkpt lat="39.4535880545668" lon="8.478608093898671"><ele>36.0</ele><time>2026-05-01T08:31:08.999Z</time></trkpt><trkpt lat="39.45365186644353" lon="8.478523647679395"><ele>36.0</ele><time>2026-05-01T08:31:10.999Z</time></trkpt><trkpt lat="39.45375299236369" lon="8.478539364031333"><ele>36.0</ele><time>2026-05-01T08:31:11.999Z</time></trkpt><trkpt lat="39.45385621600671" lon="8.478500172126443"><ele>36.0</ele><time>2026-05-01T08:31:13.999Z</time></trkpt><trkpt lat="39.453972193446965" lon="8.478496816490196"><ele>36.0</ele><time>2026-05-01T08:31:15.999Z</time></trkpt><trkpt lat="39.45404337221888" lon="8.478494648401718"><ele>36.0</ele><time>2026-05-01T08:31:16.999Z</time></trkpt><trkpt lat="39.453968713034705" lon="8.478479223772"><ele>36.0</ele><time>2026-05-01T08:31:21.999Z</time></trkpt><trkpt lat="39.4538702430282" lon="8.478481646186596"><ele>36.0</ele><time>2026-05-01T08:31:22.999Z</time></trkpt><trkpt lat="39.45376398174811" lon="8.478510860296709"><ele>36.0</ele><time>2026-05-01T08:31:23.999Z</time></trkpt><trkpt lat="39.45366155171031" lon="8.478579952975199"><ele>36.0</ele><time>2026-05-01T08:31:24.999Z</time></trkpt><trkpt lat="39.45352691118385" lon="8.47856207187795"><ele>36.0</ele><time>2026-05-01T08:31:25.999Z</time></trkpt><trkpt lat="39.45343134176191" lon="8.478620393101332"><ele>36.0</ele><time>2026-05-01T08:31:26.999Z</time></trkpt><trkpt lat="39.45334740893528" lon="8.4786716133831"><ele>36.0</ele><time>2026-05-01T08:31:27.999Z</time></trkpt><trkpt lat="39.45335249997932" lon="8.479020242681095"><ele>35.75</ele><time>2026-05-01T08:31:28.999Z</time></trkpt><trkpt lat="39.45325056655032" lon="8.479058784632983"><ele>35.5</ele><time>2026-05-01T08:31:29.999Z</time></trkpt><trkpt lat="39.45314526646032" lon="8.479068472367187"><ele>35.25</ele><time>2026-05-01T08:31:30.999Z</time></trkpt><trkpt lat="39.453026397843495" lon="8.479055028029707"><ele>35.0</ele><time>2026-05-01T08:31:31.999Z</time></trkpt><trkpt lat="39.45290552596263" lon="8.478990842795676"><ele>35.0</ele><time>2026-05-01T08:31:32.999Z</time></trkpt><trkpt lat="39.45276275501333" lon="8.478962451271306"><ele>35.0</ele><time>2026-05-01T08:31:33.999Z</time></trkpt><trkpt lat="39.45261977645781" lon="8.478938333182395"><ele>35.0</ele><time>2026-05-01T08:31:34.999Z</time></trkpt><trkpt lat="39.452473331198796" lon="8.478885207451683"><ele>35.0</ele><time>2026-05-01T08:31:35.999Z</time></trkpt><trkpt lat="39.452316633407285" lon="8.478849261458974"><ele>35.0</ele><time>2026-05-01T08:31:36.999Z</time></trkpt><trkpt lat="39.45215506523493" lon="8.478812198136163"><ele>35.0</ele><time>2026-05-01T08:31:37.999Z</time></trkpt><trkpt lat="39.45199182922116" lon="8.478773125872282"><ele>35.0</ele><time>2026-05-01T08:31:38.999Z</time></trkpt><trkpt lat="39.45183561541671" lon="8.47871669766431"><ele>35.0</ele><time>2026-05-01T08:31:40Z</time></trkpt><trkpt lat="39.45167501662695" lon="8.478640069822207"><ele>35.0</ele><time>2026-05-01T08:31:41Z</time></trkpt><trkpt lat="39.451506930597596" lon="8.47856697276822"><ele>35.0</ele><time>2026-05-01T08:31:42Z</time></trkpt><trkpt lat="39.451347826365975" lon="8.478472993612943"><ele>36.0</ele><time>2026-05-01T08:31:43Z</time></trkpt><trkpt lat="39.451193433777895" lon="8.478407818320388"><ele>37.0</ele><time>2026-05-01T08:31:44Z</time></trkpt><trkpt lat="39.451032867864406" lon="8.478391784853304"><ele>38.0</ele><time>2026-05-01T08:31:45Z</time></trkpt><trkpt lat="39.45087214376089" lon="8.478418651819897"><ele>38.0</ele><time>2026-05-01T08:31:46Z</time></trkpt><trkpt lat="39.450735686475326" lon="8.478377593939934"><ele>38.0</ele><time>2026-05-01T08:31:47Z</time></trkpt><trkpt lat="39.45063920529098" lon="8.478286872180815"><ele>38.0</ele><time>2026-05-01T08:31:48Z</time></trkpt><trkpt lat="39.45055019365402" lon="8.478171169141033"><ele>38.0</ele><time>2026-05-01T08:31:49Z</time></trkpt><trkpt lat="39.45050396731393" lon="8.477987991735953"><ele>36.666666666666664</ele><time>2026-05-01T08:31:50Z</time></trkpt><trkpt lat="39.45047325151588" lon="8.47778566745484"><ele>35.333333333333336</ele><time>2026-05-01T08:31:51Z</time></trkpt><trkpt lat="39.450442542644375" lon="8.47757113028566"><ele>34.0</ele><time>2026-05-01T08:31:52Z</time></trkpt><trkpt lat="39.45040043091886" lon="8.477354604668047"><ele>35.333333333333336</ele><time>2026-05-01T08:31:53Z</time></trkpt><trkpt lat="39.4503552473552" lon="8.47713258919188"><ele>36.666666666666664</ele><time>2026-05-01T08:31:54Z</time></trkpt><trkpt lat="39.450305776336435" lon="8.476905878497169"><ele>38.0</ele><time>2026-05-01T08:31:55Z</time></trkpt><trkpt lat="39.45025780992917" lon="8.476680226930094"><ele>38.0</ele><time>2026-05-01T08:31:56Z</time></trkpt><trkpt lat="39.45021064711326" lon="8.476451479304801"><ele>38.0</ele><time>2026-05-01T08:31:57Z</time></trkpt><trkpt lat="39.45016427499368" lon="8.476225333716885"><ele>38.0</ele><time>2026-05-01T08:31:58Z</time></trkpt><trkpt lat="39.450124605294086" lon="8.475999903630745"><ele>38.0</ele><time>2026-05-01T08:31:59Z</time></trkpt><trkpt lat="39.450114732671594" lon="8.47577445521249"><ele>38.0</ele><time>2026-05-01T08:32:00Z</time></trkpt><trkpt lat="39.450140160942425" lon="8.475548189907888"><ele>38.0</ele><time>2026-05-01T08:32:01Z</time></trkpt><trkpt lat="39.450190162274374" lon="8.475327175147884"><ele>40.0</ele><time>2026-05-01T08:32:02Z</time></trkpt><trkpt lat="39.45023730443021" lon="8.475107628814857"><ele>42.0</ele><time>2026-05-01T08:32:03Z</time></trkpt><trkpt lat="39.45027220686522" lon="8.474883556432644"><ele>44.0</ele><time>2026-05-01T08:32:04Z</time></trkpt><trkpt lat="39.45030772930697" lon="8.474657812392834"><ele>44.0</ele><time>2026-05-01T08:32:05Z</time></trkpt><trkpt lat="39.45034192402898" lon="8.474436538119184"><ele>44.0</ele><time>2026-05-01T08:32:06Z</time></trkpt><trkpt lat="39.4503639719046" lon="8.474205548435238"><ele>44.0</ele><time>2026-05-01T08:32:07Z</time></trkpt><trkpt lat="39.45036457461452" lon="8.473972430699146"><ele>45.0</ele><time>2026-05-01T08:32:08Z</time></trkpt><trkpt lat="39.4503559154046" lon="8.473748775797553"><ele>46.0</ele><time>2026-05-01T08:32:09Z</time></trkpt><trkpt lat="39.45036205066628" lon="8.473533498285066"><ele>47.0</ele><time>2026-05-01T08:32:10Z</time></trkpt><trkpt lat="39.45038408491087" lon="8.473343052833792"><ele>47.0</ele><time>2026-05-01T08:32:11Z</time></trkpt><trkpt lat="39.45040800105044" lon="8.473160798096615"><ele>47.0</ele><time>2026-05-01T08:32:12Z</time></trkpt><trkpt lat="39.450434310677984" lon="8.472991230099348"><ele>47.0</ele><time>2026-05-01T08:32:13Z</time></trkpt><trkpt lat="39.45046608097062" lon="8.472836225292822"><ele>47.0</ele><time>2026-05-01T08:32:14Z</time></trkpt><trkpt lat="39.450496842696815" lon="8.4726836161074"><ele>41.0</ele><time>2026-05-01T08:32:15Z</time></trkpt><trkpt lat="39.45050683386929" lon="8.472495625530945"><ele>35.0</ele><time>2026-05-01T08:32:16Z</time></trkpt><trkpt lat="39.450499012576245" lon="8.472256141979507"><ele>29.0</ele><time>2026-05-01T08:32:17Z</time></trkpt><trkpt lat="39.45048538772731" lon="8.472001465166786"><ele>28.666666666666664</ele><time>2026-05-01T08:32:18Z</time></trkpt><trkpt lat="39.45047447689781" lon="8.471773575767093"><ele>28.333333333333336</ele><time>2026-05-01T08:32:19Z</time></trkpt><trkpt lat="39.45045882810512" lon="8.47154678569314"><ele>28.0</ele><time>2026-05-01T08:32:20Z</time></trkpt><trkpt lat="39.45043520533254" lon="8.471286076154223"><ele>35.0</ele><time>2026-05-01T08:32:21Z</time></trkpt><trkpt lat="39.45042079677777" lon="8.471006607606908"><ele>42.0</ele><time>2026-05-01T08:32:22Z</time></trkpt><trkpt lat="39.450423048311315" lon="8.470729123542359"><ele>49.0</ele><time>2026-05-01T08:32:23Z</time></trkpt><trkpt lat="39.450414498767536" lon="8.470459306790499"><ele>48.666666666666664</ele><time>2026-05-01T08:32:24Z</time></trkpt><trkpt lat="39.45039210106631" lon="8.470205503749924"><ele>48.33333333333333</ele><time>2026-05-01T08:32:25Z</time></trkpt><trkpt lat="39.450358111012434" lon="8.469955165104336"><ele>48.0</ele><time>2026-05-01T08:32:26Z</time></trkpt><trkpt lat="39.4503198853178" lon="8.46970943458601"><ele>45.0</ele><time>2026-05-01T08:32:27Z</time></trkpt><trkpt lat="39.45028795063268" lon="8.469455737808014"><ele>42.0</ele><time>2026-05-01T08:32:28Z</time></trkpt><trkpt lat="39.45026360607979" lon="8.46920018086696"><ele>39.0</ele><time>2026-05-01T08:32:29Z</time></trkpt><trkpt lat="39.450244403675434" lon="8.46894563426727"><ele>36.666666666666664</ele><time>2026-05-01T08:32:30Z</time></trkpt><trkpt lat="39.45024918719694" lon="8.468708108444396"><ele>34.33333333333333</ele><time>2026-05-01T08:32:31Z</time></trkpt><trkpt lat="39.4502697666699" lon="8.468495891488322"><ele>32.0</ele><time>2026-05-01T08:32:32Z</time></trkpt><trkpt lat="39.45027318619787" lon="8.468316813136486"><ele>32.0</ele><time>2026-05-01T08:32:33Z</time></trkpt><trkpt lat="39.45023215945837" lon="8.468161548620389"><ele>32.0</ele><time>2026-05-01T08:32:34Z</time></trkpt><trkpt lat="39.4501557609021" lon="8.468031210239312"><ele>32.0</ele><time>2026-05-01T08:32:35Z</time></trkpt><trkpt lat="39.450048957131294" lon="8.467937719591713"><ele>32.0</ele><time>2026-05-01T08:32:36Z</time></trkpt><trkpt lat="39.44993619971141" lon="8.467884030817274"><ele>30.666666666666664</ele><time>2026-05-01T08:32:37Z</time></trkpt><trkpt lat="39.449810629417904" lon="8.467853535299867"><ele>29.333333333333336</ele><time>2026-05-01T08:32:38Z</time></trkpt><trkpt lat="39.44965329108907" lon="8.467872015719232"><ele>28.0</ele><time>2026-05-01T08:32:39Z</time></trkpt><trkpt lat="39.44948219341955" lon="8.467896019468569"><ele>27.333333333333336</ele><time>2026-05-01T08:32:40Z</time></trkpt><trkpt lat="39.449306635055535" lon="8.467921286045275"><ele>26.666666666666664</ele><time>2026-05-01T08:32:41Z</time></trkpt><trkpt lat="39.44913095605851" lon="8.467932739328672"><ele>26.0</ele><time>2026-05-01T08:32:42Z</time></trkpt><trkpt lat="39.448967891945436" lon="8.467870009523942"><ele>27.0</ele><time>2026-05-01T08:32:43Z</time></trkpt><trkpt lat="39.44878859151332" lon="8.467791233945244"><ele>28.0</ele><time>2026-05-01T08:32:44Z</time></trkpt><trkpt lat="39.448611533426856" lon="8.467713561170694"><ele>29.0</ele><time>2026-05-01T08:32:45Z</time></trkpt><trkpt lat="39.448450088459744" lon="8.467643547927105"><ele>29.0</ele><time>2026-05-01T08:32:46Z</time></trkpt><trkpt lat="39.4482852140379" lon="8.467566613106657"><ele>29.0</ele><time>2026-05-01T08:32:47Z</time></trkpt><trkpt lat="39.44813294667065" lon="8.467482328796372"><ele>29.0</ele><time>2026-05-01T08:32:48Z</time></trkpt><trkpt lat="39.447995777330256" lon="8.467373737084852"><ele>29.0</ele><time>2026-05-01T08:32:48.999Z</time></trkpt><trkpt lat="39.44786130802742" lon="8.467225904724222"><ele>29.0</ele><time>2026-05-01T08:32:49.999Z</time></trkpt><trkpt lat="39.447726053149196" lon="8.467049951709672"><ele>29.0</ele><time>2026-05-01T08:32:50.999Z</time></trkpt><trkpt lat="39.4475997717047" lon="8.466879862768005"><ele>29.0</ele><time>2026-05-01T08:32:51.999Z</time></trkpt><trkpt lat="39.44750685230934" lon="8.466715477446032"><ele>29.0</ele><time>2026-05-01T08:32:52.999Z</time></trkpt><trkpt lat="39.44745212317783" lon="8.466555993200853"><ele>29.0</ele><time>2026-05-01T08:32:53.999Z</time></trkpt><trkpt lat="39.44742683575647" lon="8.466385607476322"><ele>29.0</ele><time>2026-05-01T08:32:54.999Z</time></trkpt><trkpt lat="39.44741608147723" lon="8.466180551149739"><ele>28.333333333333332</ele><time>2026-05-01T08:32:55.999Z</time></trkpt><trkpt lat="39.44740206672978" lon="8.465941699449484"><ele>27.666666666666664</ele><time>2026-05-01T08:32:56.999Z</time></trkpt><trkpt lat="39.44741587916215" lon="8.465685904154737"><ele>27.0</ele><time>2026-05-01T08:32:57.999Z</time></trkpt><trkpt lat="39.447422724681815" lon="8.465453104516765"><ele>26.333333333333336</ele><time>2026-05-01T08:32:58.999Z</time></trkpt><trkpt lat="39.44740833979419" lon="8.465224233595118"><ele>25.666666666666668</ele><time>2026-05-01T08:32:59.999Z</time></trkpt><trkpt lat="39.447370233101914" lon="8.464970006673738"><ele>25.0</ele><time>2026-05-01T08:33:00.999Z</time></trkpt><trkpt lat="39.44731549881521" lon="8.464689649064901"><ele>24.333333333333336</ele><time>2026-05-01T08:33:01.999Z</time></trkpt><trkpt lat="39.44726645068365" lon="8.464401931752727"><ele>23.666666666666668</ele><time>2026-05-01T08:33:02.999Z</time></trkpt><trkpt lat="39.44721579093402" lon="8.464126876848653"><ele>23.0</ele><time>2026-05-01T08:33:03.999Z</time></trkpt><trkpt lat="39.44716750794193" lon="8.463864584330627"><ele>25.0</ele><time>2026-05-01T08:33:04.999Z</time></trkpt><trkpt lat="39.447118451699005" lon="8.46360363395396"><ele>27.0</ele><time>2026-05-01T08:33:05.999Z</time></trkpt><trkpt lat="39.44707750845594" lon="8.46334385394478"><ele>29.0</ele><time>2026-05-01T08:33:06.999Z</time></trkpt><trkpt lat="39.447042456036904" lon="8.463103177498795"><ele>27.0</ele><time>2026-05-01T08:33:07.999Z</time></trkpt><trkpt lat="39.447010202082616" lon="8.462879210628506"><ele>25.0</ele><time>2026-05-01T08:33:08.999Z</time></trkpt><trkpt lat="39.44698057108687" lon="8.462667149727341"><ele>23.0</ele><time>2026-05-01T08:33:09.999Z</time></trkpt><trkpt lat="39.44697529188341" lon="8.462453133297029"><ele>23.0</ele><time>2026-05-01T08:33:10.999Z</time></trkpt><trkpt lat="39.447022219208804" lon="8.46224527851215"><ele>23.0</ele><time>2026-05-01T08:33:11.999Z</time></trkpt><trkpt lat="39.44709158298806" lon="8.462037147700762"><ele>23.0</ele><time>2026-05-01T08:33:12.999Z</time></trkpt><trkpt lat="39.44715881405137" lon="8.46180730898734"><ele>23.0</ele><time>2026-05-01T08:33:13.999Z</time></trkpt><trkpt lat="39.447255019020226" lon="8.461578361563927"><ele>23.0</ele><time>2026-05-01T08:33:14.999Z</time></trkpt><trkpt lat="39.44733997689169" lon="8.461335035884348"><ele>23.0</ele><time>2026-05-01T08:33:15.999Z</time></trkpt><trkpt lat="39.447413117711505" lon="8.461094041230307"><ele>24.666666666666668</ele><time>2026-05-01T08:33:16.999Z</time></trkpt><trkpt lat="39.44748546667848" lon="8.460859708862879"><ele>26.333333333333336</ele><time>2026-05-01T08:33:17.999Z</time></trkpt><trkpt lat="39.44756177392185" lon="8.460634591061654"><ele>28.0</ele><time>2026-05-01T08:33:18.999Z</time></trkpt><trkpt lat="39.44763568963441" lon="8.460412536770201"><ele>31.0</ele><time>2026-05-01T08:33:19.999Z</time></trkpt><trkpt lat="39.44770643389507" lon="8.460187906104638"><ele>34.0</ele><time>2026-05-01T08:33:20.999Z</time></trkpt><trkpt lat="39.44777837036878" lon="8.459966603627109"><ele>37.0</ele><time>2026-05-01T08:33:21.999Z</time></trkpt><trkpt lat="39.44785993241251" lon="8.459746919138414"><ele>33.333333333333336</ele><time>2026-05-01T08:33:22.999Z</time></trkpt><trkpt lat="39.447945055589486" lon="8.45954187443912"><ele>29.666666666666664</ele><time>2026-05-01T08:33:23.999Z</time></trkpt><trkpt lat="39.448044596005246" lon="8.459331430711499"><ele>26.0</ele><time>2026-05-01T08:33:24.999Z</time></trkpt><trkpt lat="39.448139595206335" lon="8.45912617179563"><ele>26.0</ele><time>2026-05-01T08:33:25.999Z</time></trkpt><trkpt lat="39.448224794880744" lon="8.458909655809112"><ele>26.0</ele><time>2026-05-01T08:33:26.999Z</time></trkpt><trkpt lat="39.44829088548566" lon="8.45867959311141"><ele>26.0</ele><time>2026-05-01T08:33:27.999Z</time></trkpt><trkpt lat="39.44833665513046" lon="8.458440610218606"><ele>27.0</ele><time>2026-05-01T08:33:28.999Z</time></trkpt><trkpt lat="39.44837169642936" lon="8.458193758005262"><ele>28.0</ele><time>2026-05-01T08:33:29.999Z</time></trkpt><trkpt lat="39.44841294570355" lon="8.45795051300362"><ele>29.0</ele><time>2026-05-01T08:33:30.999Z</time></trkpt><trkpt lat="39.448471485003196" lon="8.457712661225331"><ele>30.333333333333332</ele><time>2026-05-01T08:33:31.999Z</time></trkpt><trkpt lat="39.44855025507253" lon="8.457482476064527"><ele>31.666666666666664</ele><time>2026-05-01T08:33:32.999Z</time></trkpt><trkpt lat="39.4486520649742" lon="8.457264203968185"><ele>33.0</ele><time>2026-05-01T08:33:33.999Z</time></trkpt><trkpt lat="39.44877311056256" lon="8.457063016238745"><ele>31.333333333333336</ele><time>2026-05-01T08:33:34.999Z</time></trkpt><trkpt lat="39.44889962826984" lon="8.456867960945786"><ele>29.666666666666668</ele><time>2026-05-01T08:33:35.999Z</time></trkpt><trkpt lat="39.44902399309667" lon="8.456670512363164"><ele>28.0</ele><time>2026-05-01T08:33:36.999Z</time></trkpt><trkpt lat="39.449142877093344" lon="8.456470422561457"><ele>32.0</ele><time>2026-05-01T08:33:37.999Z</time></trkpt><trkpt lat="39.449261661118705" lon="8.456266323545982"><ele>36.0</ele><time>2026-05-01T08:33:38.999Z</time></trkpt><trkpt lat="39.449381218450426" lon="8.45606785108698"><ele>40.0</ele><time>2026-05-01T08:33:39.999Z</time></trkpt><trkpt lat="39.449493484891086" lon="8.455873593766194"><ele>40.0</ele><time>2026-05-01T08:33:40.999Z</time></trkpt><trkpt lat="39.449567704585974" lon="8.455664001653098"><ele>40.0</ele><time>2026-05-01T08:33:41.999Z</time></trkpt><trkpt lat="39.44959614583602" lon="8.455426334674172"><ele>40.0</ele><time>2026-05-01T08:33:42.999Z</time></trkpt><trkpt lat="39.44961364057594" lon="8.455182154344767"><ele>34.0</ele><time>2026-05-01T08:33:43.999Z</time></trkpt><trkpt lat="39.449637500784895" lon="8.454939544400675"><ele>28.0</ele><time>2026-05-01T08:33:45Z</time></trkpt><trkpt lat="39.44967033335938" lon="8.454696734762802"><ele>22.0</ele><time>2026-05-01T08:33:46Z</time></trkpt><trkpt lat="39.44970006905571" lon="8.454448912004391"><ele>22.0</ele><time>2026-05-01T08:33:47Z</time></trkpt><trkpt lat="39.44972380653379" lon="8.45420420149077"><ele>22.0</ele><time>2026-05-01T08:33:48Z</time></trkpt><trkpt lat="39.44972661564216" lon="8.453953620450449"><ele>22.0</ele><time>2026-05-01T08:33:49Z</time></trkpt><trkpt lat="39.449702740066805" lon="8.45370349747722"><ele>21.333333333333332</ele><time>2026-05-01T08:33:50Z</time></trkpt><trkpt lat="39.449673137465155" lon="8.453455366628765"><ele>20.666666666666668</ele><time>2026-05-01T08:33:51Z</time></trkpt><trkpt lat="39.44965224985268" lon="8.453204378939152"><ele>20.0</ele><time>2026-05-01T08:33:52Z</time></trkpt><trkpt lat="39.44963923695491" lon="8.452952586916409"><ele>25.0</ele><time>2026-05-01T08:33:53Z</time></trkpt><trkpt lat="39.44962171945816" lon="8.452700009111803"><ele>30.0</ele><time>2026-05-01T08:33:54Z</time></trkpt><trkpt lat="39.449598260529825" lon="8.45245303971684"><ele>35.0</ele><time>2026-05-01T08:33:55Z</time></trkpt><trkpt lat="39.44957611284376" lon="8.452205783693426"><ele>33.666666666666664</ele><time>2026-05-01T08:33:56Z</time></trkpt><trkpt lat="39.44955521543629" lon="8.451964238298439"><ele>32.333333333333336</ele><time>2026-05-01T08:33:57Z</time></trkpt><trkpt lat="39.44954688868888" lon="8.451739737458146"><ele>31.0</ele><time>2026-05-01T08:33:58Z</time></trkpt><trkpt lat="39.44956546979046" lon="8.451524930703288"><ele>27.0</ele><time>2026-05-01T08:33:59Z</time></trkpt><trkpt lat="39.44962729012609" lon="8.451307806310083"><ele>23.0</ele><time>2026-05-01T08:34:00Z</time></trkpt><trkpt lat="39.449717314144436" lon="8.451091347499823"><ele>19.0</ele><time>2026-05-01T08:34:01Z</time></trkpt><trkpt lat="39.449795902374" lon="8.450862781308722"><ele>19.0</ele><time>2026-05-01T08:34:02Z</time></trkpt><trkpt lat="39.44986404705138" lon="8.450628973242328"><ele>19.0</ele><time>2026-05-01T08:34:03Z</time></trkpt><trkpt lat="39.44993315041849" lon="8.450408655807648"><ele>19.0</ele><time>2026-05-01T08:34:04Z</time></trkpt><trkpt lat="39.45000038860802" lon="8.450211969360192"><ele>19.333333333333332</ele><time>2026-05-01T08:34:05Z</time></trkpt><trkpt lat="39.45004731870432" lon="8.450018463870181"><ele>19.666666666666668</ele><time>2026-05-01T08:34:06Z</time></trkpt><trkpt lat="39.45004848157682" lon="8.44982394978943"><ele>20.0</ele><time>2026-05-01T08:34:07Z</time></trkpt><trkpt lat="39.449997942523964" lon="8.449633677472747"><ele>19.0</ele><time>2026-05-01T08:34:08Z</time></trkpt><trkpt lat="39.449896796092226" lon="8.449454520978845"><ele>18.0</ele><time>2026-05-01T08:34:09Z</time></trkpt><trkpt lat="39.44976387479607" lon="8.449292237428509"><ele>17.0</ele><time>2026-05-01T08:34:10Z</time></trkpt><trkpt lat="39.44963230769447" lon="8.449128316998069"><ele>16.666666666666668</ele><time>2026-05-01T08:34:11Z</time></trkpt><trkpt lat="39.44951455656317" lon="8.448957005354512"><ele>16.333333333333332</ele><time>2026-05-01T08:34:12Z</time></trkpt><trkpt lat="39.449402017406044" lon="8.448784856346569"><ele>16.0</ele><time>2026-05-01T08:34:13Z</time></trkpt><trkpt lat="39.449282793589354" lon="8.448642653375748"><ele>16.0</ele><time>2026-05-01T08:34:14Z</time></trkpt><trkpt lat="39.44913154568425" lon="8.448542892130293"><ele>16.0</ele><time>2026-05-01T08:34:15Z</time></trkpt><trkpt lat="39.44895678281008" lon="8.448482601929914"><ele>16.0</ele><time>2026-05-01T08:34:16Z</time></trkpt><trkpt lat="39.44877567084252" lon="8.44840463550947"><ele>16.666666666666664</ele><time>2026-05-01T08:34:17Z</time></trkpt><trkpt lat="39.44858592731513" lon="8.448334236232032"><ele>17.333333333333332</ele><time>2026-05-01T08:34:18Z</time></trkpt><trkpt lat="39.448382040215684" lon="8.448296129555635"><ele>18.0</ele><time>2026-05-01T08:34:19Z</time></trkpt><trkpt lat="39.448185190100006" lon="8.448221483956509"><ele>18.0</ele><time>2026-05-01T08:34:20Z</time></trkpt><trkpt lat="39.44798951179876" lon="8.448145741161417"><ele>18.0</ele><time>2026-05-01T08:34:21Z</time></trkpt><trkpt lat="39.44779537655347" lon="8.448063342366424"><ele>18.0</ele><time>2026-05-01T08:34:22Z</time></trkpt><trkpt lat="39.44760494647726" lon="8.447978466077725"><ele>17.666666666666668</ele><time>2026-05-01T08:34:23Z</time></trkpt><trkpt lat="39.44741685442863" lon="8.447904820538982"><ele>17.333333333333336</ele><time>2026-05-01T08:34:24Z</time></trkpt><trkpt lat="39.44723379992613" lon="8.447839609876942"><ele>17.0</ele><time>2026-05-01T08:34:25Z</time></trkpt><trkpt lat="39.44705759582315" lon="8.44777404646478"><ele>17.0</ele><time>2026-05-01T08:34:26Z</time></trkpt><trkpt lat="39.44689126150006" lon="8.447693269082857"><ele>17.0</ele><time>2026-05-01T08:34:27Z</time></trkpt><trkpt lat="39.44674824579206" lon="8.447569909269808"><ele>17.0</ele><time>2026-05-01T08:34:28Z</time></trkpt><trkpt lat="39.44661257310718" lon="8.447406335855371"><ele>17.0</ele><time>2026-05-01T08:34:29Z</time></trkpt><trkpt lat="39.446477883571454" lon="8.447243653654834"><ele>17.0</ele><time>2026-05-01T08:34:30Z</time></trkpt><trkpt lat="39.446337123970935" lon="8.447085104406764"><ele>17.0</ele><time>2026-05-01T08:34:31Z</time></trkpt><trkpt lat="39.44619070230389" lon="8.44693177301635"><ele>18.0</ele><time>2026-05-01T08:34:32Z</time></trkpt><trkpt lat="39.4460485973608" lon="8.446772945999106"><ele>19.0</ele><time>2026-05-01T08:34:33Z</time></trkpt><trkpt lat="39.44591800257131" lon="8.446596976198549"><ele>20.0</ele><time>2026-05-01T08:34:34Z</time></trkpt><trkpt lat="39.44579757258848" lon="8.446407346482973"><ele>20.666666666666668</ele><time>2026-05-01T08:34:35Z</time></trkpt><trkpt lat="39.445680201087555" lon="8.446218937110828"><ele>21.333333333333332</ele><time>2026-05-01T08:34:36Z</time></trkpt><trkpt lat="39.445553093866614" lon="8.446040223669547"><ele>22.0</ele><time>2026-05-01T08:34:37Z</time></trkpt><trkpt lat="39.445409620824876" lon="8.445884692454246"><ele>22.0</ele><time>2026-05-01T08:34:38Z</time></trkpt><trkpt lat="39.44525802693377" lon="8.445741892859754"><ele>22.0</ele><time>2026-05-01T08:34:39Z</time></trkpt><trkpt lat="39.4451119433093" lon="8.44559587367949"><ele>22.0</ele><time>2026-05-01T08:34:40Z</time></trkpt><trkpt lat="39.444969825882715" lon="8.445446258481091"><ele>23.0</ele><time>2026-05-01T08:34:41Z</time></trkpt><trkpt lat="39.44482808041253" lon="8.445294760973509"><ele>24.0</ele><time>2026-05-01T08:34:42Z</time></trkpt><trkpt lat="39.44469167658396" lon="8.44513888355211"><ele>25.0</ele><time>2026-05-01T08:34:43Z</time></trkpt><trkpt lat="39.44457300387269" lon="8.444961662405904"><ele>25.0</ele><time>2026-05-01T08:34:44Z</time></trkpt><trkpt lat="39.44446644347476" lon="8.444773515042302"><ele>25.0</ele><time>2026-05-01T08:34:45Z</time></trkpt><trkpt lat="39.44435108431734" lon="8.444590664152162"><ele>25.0</ele><time>2026-05-01T08:34:46Z</time></trkpt><trkpt lat="39.444230875846856" lon="8.444411413605255"><ele>21.333333333333336</ele><time>2026-05-01T08:34:47Z</time></trkpt><trkpt lat="39.44411340390348" lon="8.44423026090105"><ele>17.666666666666668</ele><time>2026-05-01T08:34:48Z</time></trkpt><trkpt lat="39.44400836127821" lon="8.444049374483114"><ele>14.0</ele><time>2026-05-01T08:34:49Z</time></trkpt><trkpt lat="39.443937732164066" lon="8.443885986544299"><ele>13.5</ele><time>2026-05-01T08:34:50Z</time></trkpt><trkpt lat="39.443885119349716" lon="8.443725564894484"><ele>13.0</ele><time>2026-05-01T08:34:50.999Z</time></trkpt><trkpt lat="39.443847555090876" lon="8.443565868858695"><ele>12.5</ele><time>2026-05-01T08:34:51.999Z</time></trkpt><trkpt lat="39.443835354161294" lon="8.443409811802514"><ele>12.0</ele><time>2026-05-01T08:34:52.999Z</time></trkpt><trkpt lat="39.44386042216313" lon="8.443261754029992"><ele>12.0</ele><time>2026-05-01T08:34:53.999Z</time></trkpt><trkpt lat="39.443905818130304" lon="8.443133145606916"><ele>12.0</ele><time>2026-05-01T08:34:54.999Z</time></trkpt><trkpt lat="39.44395111693002" lon="8.44304366365648"><ele>12.0</ele><time>2026-05-01T08:34:55.999Z</time></trkpt><trkpt lat="39.4438949235463" lon="8.443150592564972"><ele>12.0</ele><time>2026-05-01T08:35:00.999Z</time></trkpt><trkpt lat="39.44383850728345" lon="8.44325996751428"><ele>12.0</ele><time>2026-05-01T08:35:01.999Z</time></trkpt><trkpt lat="39.443808844510734" lon="8.443437018212537"><ele>12.0</ele><time>2026-05-01T08:35:02.999Z</time></trkpt><trkpt lat="39.44381746478658" lon="8.443624206623209"><ele>12.0</ele><time>2026-05-01T08:35:03.999Z</time></trkpt><trkpt lat="39.443872960867694" lon="8.443821530361763"><ele>12.0</ele><time>2026-05-01T08:35:04.999Z</time></trkpt><trkpt lat="39.44396002250514" lon="8.444010703449216"><ele>12.5</ele><time>2026-05-01T08:35:05.999Z</time></trkpt><trkpt lat="39.444060243075405" lon="8.44417856104584"><ele>13.0</ele><time>2026-05-01T08:35:06.999Z</time></trkpt><trkpt lat="39.44414824938941" lon="8.444306451865257"><ele>13.5</ele><time>2026-05-01T08:35:07.999Z</time></trkpt><trkpt lat="39.44419666435312" lon="8.44438493060259"><ele>14.0</ele><time>2026-05-01T08:35:08.999Z</time></trkpt><trkpt lat="39.44416198358344" lon="8.444476182386175"><ele>14.000000000000002</ele><time>2026-05-01T08:35:10.999Z</time></trkpt><trkpt lat="39.44407822708903" lon="8.444490675444161"><ele>14.0</ele><time>2026-05-01T08:35:11.999Z</time></trkpt><trkpt lat="39.44400667777759" lon="8.444479408210634"><ele>14.0</ele><time>2026-05-01T08:35:12.999Z</time></trkpt><trkpt lat="39.44391570979214" lon="8.444484157670988"><ele>14.0</ele><time>2026-05-01T08:35:13.999Z</time></trkpt><trkpt lat="39.443824471905735" lon="8.444469991382618"><ele>14.000000000000002</ele><time>2026-05-01T08:35:14.999Z</time></trkpt><trkpt lat="39.44373844418222" lon="8.444451566286753"><ele>14.0</ele><time>2026-05-01T08:35:15.999Z</time></trkpt><trkpt lat="39.443664119110906" lon="8.444366627389579"><ele>14.2</ele><time>2026-05-01T08:35:16.999Z</time></trkpt><trkpt lat="39.44362079199814" lon="8.444238437172391"><ele>14.399999999999999</ele><time>2026-05-01T08:35:17.999Z</time></trkpt><trkpt lat="39.44354696931642" lon="8.444132764681996"><ele>14.6</ele><time>2026-05-01T08:35:18.999Z</time></trkpt><trkpt lat="39.44347493079629" lon="8.444024925071803"><ele>14.8</ele><time>2026-05-01T08:35:19.999Z</time></trkpt><trkpt lat="39.443391436764344" lon="8.44392583440977"><ele>15.0</ele><time>2026-05-01T08:35:20.999Z</time></trkpt><trkpt lat="39.44331238289158" lon="8.443810987790437"><ele>15.5</ele><time>2026-05-01T08:35:21.999Z</time></trkpt><trkpt lat="39.443235247819835" lon="8.443692098540927"><ele>16.0</ele><time>2026-05-01T08:35:22.999Z</time></trkpt><trkpt lat="39.443161633711256" lon="8.443568826289953"><ele>16.5</ele><time>2026-05-01T08:35:23.999Z</time></trkpt><trkpt lat="39.44308690093142" lon="8.44345346887809"><ele>17.0</ele><time>2026-05-01T08:35:24.999Z</time></trkpt><trkpt lat="39.44302401181249" lon="8.443348324125992"><ele>17.0</ele><time>2026-05-01T08:35:25.999Z</time></trkpt><trkpt lat="39.44297140379316" lon="8.443260470195396"><ele>17.0</ele><time>2026-05-01T08:35:26.999Z</time></trkpt><trkpt lat="39.442907653849645" lon="8.443224315380993"><ele>17.0</ele><time>2026-05-01T08:35:27.999Z</time></trkpt><trkpt lat="39.44283340998258" lon="8.44323842450128"><ele>17.0</ele><time>2026-05-01T08:35:28.999Z</time></trkpt><trkpt lat="39.44275720224491" lon="8.443303890039784"><ele>17.0</ele><time>2026-05-01T08:35:29.999Z</time></trkpt><trkpt lat="39.4426923903554" lon="8.443334062269452"><ele>17.0</ele><time>2026-05-01T08:35:30.999Z</time></trkpt><trkpt lat="39.442583863176246" lon="8.443333705555318"><ele>18.166666666666668</ele><time>2026-05-01T08:35:32.999Z</time></trkpt><trkpt lat="39.442546438033766" lon="8.443228613983148"><ele>19.333333333333336</ele><time>2026-05-01T08:35:33.999Z</time></trkpt><trkpt lat="39.442492158520714" lon="8.443147350069303"><ele>20.5</ele><time>2026-05-01T08:35:34.999Z</time></trkpt><trkpt lat="39.4424626723997" lon="8.443037612390869"><ele>21.666666666666668</ele><time>2026-05-01T08:35:35.999Z</time></trkpt><trkpt lat="39.442469525114596" lon="8.442925241451295"><ele>22.833333333333332</ele><time>2026-05-01T08:35:36.999Z</time></trkpt><trkpt lat="39.442518849258455" lon="8.44284378867111"><ele>24.0</ele><time>2026-05-01T08:35:37.999Z</time></trkpt><trkpt lat="39.44258665622516" lon="8.442799843231247"><ele>24.0</ele><time>2026-05-01T08:35:38.999Z</time></trkpt><trkpt lat="39.44265756277911" lon="8.442803094089669"><ele>24.0</ele><time>2026-05-01T08:35:39.999Z</time></trkpt><trkpt lat="39.44272186199077" lon="8.442887219304477"><ele>24.0</ele><time>2026-05-01T08:35:40.999Z</time></trkpt><trkpt lat="39.44279970325316" lon="8.442947546369235"><ele>24.0</ele><time>2026-05-01T08:35:41.999Z</time></trkpt><trkpt lat="39.442891282231166" lon="8.443010889985464"><ele>24.0</ele><time>2026-05-01T08:35:42.999Z</time></trkpt><trkpt lat="39.44299913334952" lon="8.44301802838697"><ele>22.599999999999998</ele><time>2026-05-01T08:35:43.999Z</time></trkpt><trkpt lat="39.443100445594645" lon="8.442996360774192"><ele>21.2</ele><time>2026-05-01T08:35:44.999Z</time></trkpt><trkpt lat="39.44318941576985" lon="8.442936701699583"><ele>19.799999999999997</ele><time>2026-05-01T08:35:45.999Z</time></trkpt><trkpt lat="39.4432586174704" lon="8.442837165586228"><ele>18.4</ele><time>2026-05-01T08:35:46.999Z</time></trkpt><trkpt lat="39.443310823035134" lon="8.442708817713962"><ele>17.0</ele><time>2026-05-01T08:35:47.999Z</time></trkpt><trkpt lat="39.44334436371785" lon="8.442569599510591"><ele>19.8</ele><time>2026-05-01T08:35:48.999Z</time></trkpt><trkpt lat="39.443346450808974" lon="8.442426204609532"><ele>22.6</ele><time>2026-05-01T08:35:49.999Z</time></trkpt><trkpt lat="39.44334158611241" lon="8.442292182295727"><ele>25.400000000000002</ele><time>2026-05-01T08:35:51Z</time></trkpt><trkpt lat="39.44338116731848" lon="8.442185880197894"><ele>28.2</ele><time>2026-05-01T08:35:52Z</time></trkpt><trkpt lat="39.443461911719865" lon="8.442088164605291"><ele>31.0</ele><time>2026-05-01T08:35:53Z</time></trkpt><trkpt lat="39.44354480841413" lon="8.441976251483151"><ele>32.8</ele><time>2026-05-01T08:35:54Z</time></trkpt><trkpt lat="39.44362180217493" lon="8.44184592883742"><ele>34.6</ele><time>2026-05-01T08:35:55Z</time></trkpt><trkpt lat="39.443700309213064" lon="8.441718475567155"><ele>36.4</ele><time>2026-05-01T08:35:56Z</time></trkpt><trkpt lat="39.443760830286756" lon="8.44162634611567"><ele>38.2</ele><time>2026-05-01T08:35:57Z</time></trkpt><trkpt lat="39.443780889506016" lon="8.441525655574631"><ele>40.0</ele><time>2026-05-01T08:35:58Z</time></trkpt><trkpt lat="39.443761509976014" lon="8.441398484822598"><ele>38.6</ele><time>2026-05-01T08:35:59Z</time></trkpt><trkpt lat="39.44370638049503" lon="8.4412776855391"><ele>37.2</ele><time>2026-05-01T08:36:00Z</time></trkpt><trkpt lat="39.44362411792953" lon="8.441185316917089"><ele>35.8</ele><time>2026-05-01T08:36:01Z</time></trkpt><trkpt lat="39.44352279281561" lon="8.44114033104159"><ele>34.4</ele><time>2026-05-01T08:36:02Z</time></trkpt><trkpt lat="39.44342019178025" lon="8.441118439739768"><ele>33.0</ele><time>2026-05-01T08:36:03Z</time></trkpt><trkpt lat="39.443324484082815" lon="8.441201051343542"><ele>33.0</ele><time>2026-05-01T08:36:04Z</time></trkpt><trkpt lat="39.44322935506685" lon="8.441265738589154"><ele>33.0</ele><time>2026-05-01T08:36:05Z</time></trkpt><trkpt lat="39.44312915115504" lon="8.441348989421275"><ele>33.0</ele><time>2026-05-01T08:36:06Z</time></trkpt><trkpt lat="39.443031533443815" lon="8.441435373012272"><ele>33.0</ele><time>2026-05-01T08:36:07Z</time></trkpt><trkpt lat="39.442942587019" lon="8.44153786069384"><ele>36.0</ele><time>2026-05-01T08:36:08Z</time></trkpt><trkpt lat="39.44287119612076" lon="8.441626767585143"><ele>39.0</ele><time>2026-05-01T08:36:09Z</time></trkpt><trkpt lat="39.442809858471506" lon="8.441692547343765"><ele>42.0</ele><time>2026-05-01T08:36:10Z</time></trkpt><trkpt lat="39.44270827322933" lon="8.441699509000028"><ele>45.0</ele><time>2026-05-01T08:36:12Z</time></trkpt><trkpt lat="39.44264998710024" lon="8.441629542141907"><ele>48.0</ele><time>2026-05-01T08:36:13Z</time></trkpt><trkpt lat="39.44256565841755" lon="8.441563454388259"><ele>48.0</ele><time>2026-05-01T08:36:14Z</time></trkpt><trkpt lat="39.44250814958746" lon="8.441463380984157"><ele>48.0</ele><time>2026-05-01T08:36:15Z</time></trkpt><trkpt lat="39.442496109979906" lon="8.441362370218878"><ele>48.0</ele><time>2026-05-01T08:36:16Z</time></trkpt><trkpt lat="39.44252896605219" lon="8.441253298381188"><ele>48.0</ele><time>2026-05-01T08:36:17Z</time></trkpt><trkpt lat="39.4425766200288" lon="8.441140387082509"><ele>48.0</ele><time>2026-05-01T08:36:18Z</time></trkpt><trkpt lat="39.442600308116305" lon="8.441031405739658"><ele>47.4</ele><time>2026-05-01T08:36:19Z</time></trkpt><trkpt lat="39.44257308686443" lon="8.440920160503529"><ele>46.8</ele><time>2026-05-01T08:36:20Z</time></trkpt><trkpt lat="39.442504539631955" lon="8.440826488723465"><ele>46.2</ele><time>2026-05-01T08:36:21Z</time></trkpt><trkpt lat="39.44241503530129" lon="8.440767649935678"><ele>45.6</ele><time>2026-05-01T08:36:22Z</time></trkpt><trkpt lat="39.44232068649159" lon="8.44071270604758"><ele>45.0</ele><time>2026-05-01T08:36:23Z</time></trkpt><trkpt lat="39.44221145394119" lon="8.440683997328462"><ele>48.5</ele><time>2026-05-01T08:36:24Z</time></trkpt><trkpt lat="39.44209543517175" lon="8.440650722915976"><ele>52.0</ele><time>2026-05-01T08:36:25Z</time></trkpt><trkpt lat="39.44197085847561" lon="8.440626630133952"><ele>55.5</ele><time>2026-05-01T08:36:26Z</time></trkpt><trkpt lat="39.44184508327295" lon="8.440614492095326"><ele>59.0</ele><time>2026-05-01T08:36:27Z</time></trkpt><trkpt lat="39.44171823554927" lon="8.440616725479003"><ele>59.0</ele><time>2026-05-01T08:36:28Z</time></trkpt><trkpt lat="39.44159174506096" lon="8.440637058312262"><ele>59.00000000000001</ele><time>2026-05-01T08:36:29Z</time></trkpt><trkpt lat="39.44146987276511" lon="8.4406712080682"><ele>59.00000000000001</ele><time>2026-05-01T08:36:30Z</time></trkpt><trkpt lat="39.441370510773865" lon="8.440694044217638"><ele>59.0</ele><time>2026-05-01T08:36:31Z</time></trkpt><trkpt lat="39.4412976889784" lon="8.440689134196164"><ele>59.0</ele><time>2026-05-01T08:36:32Z</time></trkpt><trkpt lat="39.44124172818921" lon="8.44063885746733"><ele>61.0</ele><time>2026-05-01T08:36:33Z</time></trkpt><trkpt lat="39.44118873350408" lon="8.44055116922806"><ele>63.00000000000001</ele><time>2026-05-01T08:36:34Z</time></trkpt><trkpt lat="39.44114039747161" lon="8.440431800073897"><ele>65.0</ele><time>2026-05-01T08:36:35Z</time></trkpt><trkpt lat="39.44107034268865" lon="8.440333023459466"><ele>67.0</ele><time>2026-05-01T08:36:36Z</time></trkpt><trkpt lat="39.44098478620938" lon="8.440247247819066"><ele>69.0</ele><time>2026-05-01T08:36:37Z</time></trkpt><trkpt lat="39.44092612686815" lon="8.44017046849489"><ele>69.0</ele><time>2026-05-01T08:36:38Z</time></trkpt><trkpt lat="39.4409063556282" lon="8.440088824920041"><ele>69.0</ele><time>2026-05-01T08:36:39Z</time></trkpt><trkpt lat="39.440931911293504" lon="8.439992792194003"><ele>69.0</ele><time>2026-05-01T08:36:40Z</time></trkpt><trkpt lat="39.44099875336492" lon="8.439903055435284"><ele>69.0</ele><time>2026-05-01T08:36:41Z</time></trkpt><trkpt lat="39.441078590055305" lon="8.439818353851955"><ele>69.0</ele><time>2026-05-01T08:36:42Z</time></trkpt><trkpt lat="39.44113956299138" lon="8.439717874207181"><ele>69.0</ele><time>2026-05-01T08:36:43Z</time></trkpt><trkpt lat="39.44117012272519" lon="8.439599224180915"><ele>70.4</ele><time>2026-05-01T08:36:44Z</time></trkpt><trkpt lat="39.441174837521366" lon="8.439475063529342"><ele>71.80000000000001</ele><time>2026-05-01T08:36:45Z</time></trkpt><trkpt lat="39.441204032785066" lon="8.439377601089634"><ele>73.19999999999999</ele><time>2026-05-01T08:36:46Z</time></trkpt><trkpt lat="39.44128722485159" lon="8.439329575485061"><ele>74.6</ele><time>2026-05-01T08:36:47Z</time></trkpt><trkpt lat="39.44138154220019" lon="8.43924838782811"><ele>76.0</ele><time>2026-05-01T08:36:48Z</time></trkpt><trkpt lat="39.44147022330549" lon="8.439186964639521"><ele>72.2</ele><time>2026-05-01T08:36:48.999Z</time></trkpt><trkpt lat="39.44155311356903" lon="8.439175944019404"><ele>68.39999999999999</ele><time>2026-05-01T08:36:49.999Z</time></trkpt><trkpt lat="39.44163945639076" lon="8.439175124449024"><ele>64.6</ele><time>2026-05-01T08:36:50.999Z</time></trkpt><trkpt lat="39.44170495587408" lon="8.439112828252256"><ele>60.8</ele><time>2026-05-01T08:36:51.999Z</time></trkpt><trkpt lat="39.441735367872546" lon="8.438996623370103"><ele>57.0</ele><time>2026-05-01T08:36:52.999Z</time></trkpt><trkpt lat="39.441730148546036" lon="8.43884973332378"><ele>59.5</ele><time>2026-05-01T08:36:53.999Z</time></trkpt><trkpt lat="39.44172649575965" lon="8.438697725907291"><ele>62.0</ele><time>2026-05-01T08:36:54.999Z</time></trkpt><trkpt lat="39.441761503481445" lon="8.438553076728502"><ele>64.5</ele><time>2026-05-01T08:36:55.999Z</time></trkpt><trkpt lat="39.44180046873805" lon="8.438412465898427"><ele>67.0</ele><time>2026-05-01T08:36:56.999Z</time></trkpt><trkpt lat="39.441793581752876" lon="8.438264964443416"><ele>67.0</ele><time>2026-05-01T08:36:57.999Z</time></trkpt><trkpt lat="39.44175111792792" lon="8.438113952929212"><ele>67.0</ele><time>2026-05-01T08:36:58.999Z</time></trkpt><trkpt lat="39.441694477342416" lon="8.43797232482874"><ele>67.0</ele><time>2026-05-01T08:36:59.999Z</time></trkpt><trkpt lat="39.441627348413284" lon="8.437864659602239"><ele>67.0</ele><time>2026-05-01T08:37:00.999Z</time></trkpt><trkpt lat="39.44153950073825" lon="8.437795813734178"><ele>66.0</ele><time>2026-05-01T08:37:01.999Z</time></trkpt><trkpt lat="39.4414275076815" lon="8.437751348239809"><ele>65.0</ele><time>2026-05-01T08:37:02.999Z</time></trkpt><trkpt lat="39.441317709657504" lon="8.437686158728376"><ele>64.0</ele><time>2026-05-01T08:37:03.999Z</time></trkpt><trkpt lat="39.441215078409755" lon="8.437676155303475"><ele>63.0</ele><time>2026-05-01T08:37:04.999Z</time></trkpt><trkpt lat="39.4411316841093" lon="8.437691855171106"><ele>62.0</ele><time>2026-05-01T08:37:05.999Z</time></trkpt><trkpt lat="39.44104662379934" lon="8.437731061595052"><ele>62.0</ele><time>2026-05-01T08:37:06.999Z</time></trkpt><trkpt lat="39.440987536026725" lon="8.43785927525802"><ele>62.0</ele><time>2026-05-01T08:37:07.999Z</time></trkpt><trkpt lat="39.44099504902108" lon="8.438026648137377"><ele>62.0</ele><time>2026-05-01T08:37:08.999Z</time></trkpt><trkpt lat="39.44095789823629" lon="8.438179779087049"><ele>62.0</ele><time>2026-05-01T08:37:09.999Z</time></trkpt><trkpt lat="39.44093281205687" lon="8.438343836790294"><ele>63.8</ele><time>2026-05-01T08:37:10.999Z</time></trkpt><trkpt lat="39.44091544765507" lon="8.438510687427808"><ele>65.6</ele><time>2026-05-01T08:37:11.999Z</time></trkpt><trkpt lat="39.44090951693083" lon="8.438668633822884"><ele>67.39999999999999</ele><time>2026-05-01T08:37:12.999Z</time></trkpt><trkpt lat="39.44090089534636" lon="8.438791838231623"><ele>69.2</ele><time>2026-05-01T08:37:13.999Z</time></trkpt><trkpt lat="39.44086428871821" lon="8.438864451287275"><ele>71.0</ele><time>2026-05-01T08:37:14.999Z</time></trkpt><trkpt lat="39.440790751153095" lon="8.438876842333876"><ele>72.0</ele><time>2026-05-01T08:37:15.999Z</time></trkpt><trkpt lat="39.44071360289941" lon="8.43885600911201"><ele>73.0</ele><time>2026-05-01T08:37:16.999Z</time></trkpt><trkpt lat="39.440599413142714" lon="8.43883783601018"><ele>74.0</ele><time>2026-05-01T08:37:17.999Z</time></trkpt><trkpt lat="39.440487150757875" lon="8.43881877687505"><ele>75.0</ele><time>2026-05-01T08:37:18.999Z</time></trkpt><trkpt lat="39.44039120406883" lon="8.43881980912293"><ele>76.0</ele><time>2026-05-01T08:37:19.999Z</time></trkpt><trkpt lat="39.44029449809555" lon="8.438880907021424"><ele>76.2</ele><time>2026-05-01T08:37:20.999Z</time></trkpt><trkpt lat="39.440228312713785" lon="8.439001247472055"><ele>76.39999999999999</ele><time>2026-05-01T08:37:21.999Z</time></trkpt><trkpt lat="39.440198950856605" lon="8.439151891661492"><ele>76.6</ele><time>2026-05-01T08:37:22.999Z</time></trkpt><trkpt lat="39.440166238327826" lon="8.439278895290158"><ele>76.8</ele><time>2026-05-01T08:37:23.999Z</time></trkpt><trkpt lat="39.440120474118345" lon="8.439347338639319"><ele>77.0</ele><time>2026-05-01T08:37:24.999Z</time></trkpt><trkpt lat="39.44005712793912" lon="8.439357842731543"><ele>77.0</ele><time>2026-05-01T08:37:25.999Z</time></trkpt><trkpt lat="39.43998908101774" lon="8.43934507383316"><ele>77.0</ele><time>2026-05-01T08:37:26.999Z</time></trkpt><trkpt lat="39.43989852222277" lon="8.439320295339737"><ele>77.0</ele><time>2026-05-01T08:37:27.999Z</time></trkpt><trkpt lat="39.439810995834556" lon="8.43933657991403"><ele>77.0</ele><time>2026-05-01T08:37:28.999Z</time></trkpt><trkpt lat="39.43973791547342" lon="8.439377392159601"><ele>77.0</ele><time>2026-05-01T08:37:29.999Z</time></trkpt><trkpt lat="39.43970843498383" lon="8.439532888095911"><ele>79.5</ele><time>2026-05-01T08:37:30.999Z</time></trkpt><trkpt lat="39.43969055412474" lon="8.439657558931309"><ele>82.0</ele><time>2026-05-01T08:37:31.999Z</time></trkpt><trkpt lat="39.43965346237768" lon="8.439730125243376"><ele>84.5</ele><time>2026-05-01T08:37:32.999Z</time></trkpt><trkpt lat="39.43958025892975" lon="8.439738627340693"><ele>87.0</ele><time>2026-05-01T08:37:33.999Z</time></trkpt><trkpt lat="39.43952047728658" lon="8.439699610642569"><ele>89.5</ele><time>2026-05-01T08:37:34.999Z</time></trkpt><trkpt lat="39.439446051662586" lon="8.439659584918287"><ele>92.0</ele><time>2026-05-01T08:37:35.999Z</time></trkpt><trkpt lat="39.43934781498496" lon="8.43965841715713"><ele>91.0</ele><time>2026-05-01T08:37:36.999Z</time></trkpt><trkpt lat="39.43925873915199" lon="8.439609939045262"><ele>90.0</ele><time>2026-05-01T08:37:37.999Z</time></trkpt><trkpt lat="39.439178363108994" lon="8.4395489097201"><ele>89.0</ele><time>2026-05-01T08:37:38.999Z</time></trkpt><trkpt lat="39.43911047705802" lon="8.439465660810498"><ele>88.0</ele><time>2026-05-01T08:37:39.999Z</time></trkpt><trkpt lat="39.439101302841294" lon="8.439351111251241"><ele>87.0</ele><time>2026-05-01T08:37:40.999Z</time></trkpt><trkpt lat="39.43908773146528" lon="8.439225517247262"><ele>87.0</ele><time>2026-05-01T08:37:41.999Z</time></trkpt><trkpt lat="39.43907880579492" lon="8.43906958863299"><ele>87.0</ele><time>2026-05-01T08:37:42.999Z</time></trkpt><trkpt lat="39.43903685737146" lon="8.43891865624311"><ele>87.0</ele><time>2026-05-01T08:37:43.999Z</time></trkpt><trkpt lat="39.43902546642447" lon="8.438772193899252"><ele>87.0</ele><time>2026-05-01T08:37:44.999Z</time></trkpt><trkpt lat="39.43907428813505" lon="8.438612229888035"><ele>86.25</ele><time>2026-05-01T08:37:45.999Z</time></trkpt><trkpt lat="39.43913282838025" lon="8.438426118824337"><ele>85.5</ele><time>2026-05-01T08:37:46.999Z</time></trkpt><trkpt lat="39.43914761028317" lon="8.438237891457783"><ele>84.75</ele><time>2026-05-01T08:37:47.999Z</time></trkpt><trkpt lat="39.439133364735284" lon="8.438075108068473"><ele>84.0</ele><time>2026-05-01T08:37:48.999Z</time></trkpt><trkpt lat="39.43910216814245" lon="8.43794517567579"><ele>84.6</ele><time>2026-05-01T08:37:49.999Z</time></trkpt><trkpt lat="39.43904875521527" lon="8.437850079684427"><ele>85.2</ele><time>2026-05-01T08:37:50.999Z</time></trkpt><trkpt lat="39.438976771258574" lon="8.437804675397967"><ele>85.8</ele><time>2026-05-01T08:37:51.999Z</time></trkpt><trkpt lat="39.43888902851793" lon="8.4378071845053"><ele>86.39999999999999</ele><time>2026-05-01T08:37:52.999Z</time></trkpt><trkpt lat="39.43878602267502" lon="8.437845033253632"><ele>87.0</ele><time>2026-05-01T08:37:53.999Z</time></trkpt><trkpt lat="39.438674915084626" lon="8.437885233894502"><ele>87.0</ele><time>2026-05-01T08:37:54.999Z</time></trkpt><trkpt lat="39.43856678859045" lon="8.437924309856966"><ele>87.0</ele><time>2026-05-01T08:37:56Z</time></trkpt><trkpt lat="39.43846744626835" lon="8.437941992056803"><ele>87.0</ele><time>2026-05-01T08:37:57Z</time></trkpt><trkpt lat="39.43835590694782" lon="8.437918417418361"><ele>87.0</ele><time>2026-05-01T08:37:58Z</time></trkpt><trkpt lat="39.43824374339514" lon="8.43794871798173"><ele>87.0</ele><time>2026-05-01T08:37:59Z</time></trkpt><trkpt lat="39.438146362014706" lon="8.438058869567797"><ele>88.25</ele><time>2026-05-01T08:38:00Z</time></trkpt><trkpt lat="39.43803565854548" lon="8.438154247699735"><ele>89.5</ele><time>2026-05-01T08:38:01Z</time></trkpt><trkpt lat="39.43792773052032" lon="8.438260326874403"><ele>90.75</ele><time>2026-05-01T08:38:02Z</time></trkpt><trkpt lat="39.43782547671741" lon="8.43835821290382"><ele>92.0</ele><time>2026-05-01T08:38:03Z</time></trkpt><trkpt lat="39.43774088388983" lon="8.438437368015073"><ele>92.0</ele><time>2026-05-01T08:38:04Z</time></trkpt><trkpt lat="39.43767467637997" lon="8.43852934764964"><ele>92.0</ele><time>2026-05-01T08:38:05Z</time></trkpt><trkpt lat="39.43763988715404" lon="8.438657832791547"><ele>92.0</ele><time>2026-05-01T08:38:06Z</time></trkpt><trkpt lat="39.437641051268066" lon="8.438797221095554"><ele>92.0</ele><time>2026-05-01T08:38:07Z</time></trkpt><trkpt lat="39.43772097104967" lon="8.438927771779253"><ele>92.0</ele><time>2026-05-01T08:38:08Z</time></trkpt><trkpt lat="39.437807259808174" lon="8.439046378479764"><ele>91.25</ele><time>2026-05-01T08:38:09Z</time></trkpt><trkpt lat="39.43788588650369" lon="8.439189790043827"><ele>90.5</ele><time>2026-05-01T08:38:10Z</time></trkpt><trkpt lat="39.437959658728474" lon="8.439315968836269"><ele>89.75</ele><time>2026-05-01T08:38:11Z</time></trkpt><trkpt lat="39.43801690094006" lon="8.439427692714839"><ele>89.0</ele><time>2026-05-01T08:38:12Z</time></trkpt><trkpt lat="39.43803897344467" lon="8.439540870230218"><ele>93.75</ele><time>2026-05-01T08:38:13Z</time></trkpt><trkpt lat="39.43802944216628" lon="8.439676013408869"><ele>98.5</ele><time>2026-05-01T08:38:14Z</time></trkpt><trkpt lat="39.43802493152873" lon="8.439834842679794"><ele>103.25</ele><time>2026-05-01T08:38:15Z</time></trkpt><trkpt lat="39.43801966080777" lon="8.440017026237658"><ele>108.0</ele><time>2026-05-01T08:38:16Z</time></trkpt><trkpt lat="39.43804145536811" lon="8.440192370902649"><ele>108.0</ele><time>2026-05-01T08:38:17Z</time></trkpt><trkpt lat="39.43807753839989" lon="8.440352165624734"><ele>108.0</ele><time>2026-05-01T08:38:18Z</time></trkpt><trkpt lat="39.43814394643218" lon="8.440492307687443"><ele>108.0</ele><time>2026-05-01T08:38:19Z</time></trkpt><trkpt lat="39.438234439590296" lon="8.440593270214508"><ele>108.0</ele><time>2026-05-01T08:38:20Z</time></trkpt><trkpt lat="39.438334364049105" lon="8.440682159840692"><ele>107.0</ele><time>2026-05-01T08:38:21Z</time></trkpt><trkpt lat="39.43837850778338" lon="8.440814231937859"><ele>106.00000000000001</ele><time>2026-05-01T08:38:22Z</time></trkpt><trkpt lat="39.438431144568774" lon="8.44092704099417"><ele>105.0</ele><time>2026-05-01T08:38:23Z</time></trkpt><trkpt lat="39.43846732402259" lon="8.441031783363176"><ele>104.0</ele><time>2026-05-01T08:38:24Z</time></trkpt><trkpt lat="39.438468561470245" lon="8.441127229255553"><ele>103.0</ele><time>2026-05-01T08:38:25Z</time></trkpt><trkpt lat="39.43841349168762" lon="8.441206833003873"><ele>104.0</ele><time>2026-05-01T08:38:26Z</time></trkpt><trkpt lat="39.43834819680838" lon="8.441302565735672"><ele>105.0</ele><time>2026-05-01T08:38:27Z</time></trkpt><trkpt lat="39.4382763513999" lon="8.4414301076676"><ele>106.0</ele><time>2026-05-01T08:38:28Z</time></trkpt><trkpt lat="39.43820079598426" lon="8.441561032740841"><ele>107.0</ele><time>2026-05-01T08:38:29Z</time></trkpt><trkpt lat="39.43812989341582" lon="8.441682275478879"><ele>107.0</ele><time>2026-05-01T08:38:30Z</time></trkpt><trkpt lat="39.438066581510064" lon="8.441784390195586"><ele>106.99999999999999</ele><time>2026-05-01T08:38:31Z</time></trkpt><trkpt lat="39.43800697459056" lon="8.441871856517649"><ele>106.99999999999999</ele><time>2026-05-01T08:38:32Z</time></trkpt><trkpt lat="39.43794094819989" lon="8.441923113778982"><ele>107.0</ele><time>2026-05-01T08:38:33Z</time></trkpt><trkpt lat="39.43785704707858" lon="8.441916008847421"><ele>107.0</ele><time>2026-05-01T08:38:34Z</time></trkpt><trkpt lat="39.43775817240465" lon="8.441954975399447"><ele>105.6</ele><time>2026-05-01T08:38:35Z</time></trkpt><trkpt lat="39.43766527379251" lon="8.442022237569212"><ele>104.19999999999999</ele><time>2026-05-01T08:38:36Z</time></trkpt><trkpt lat="39.437588028420336" lon="8.44206026367257"><ele>102.8</ele><time>2026-05-01T08:38:37Z</time></trkpt><trkpt lat="39.43746779835409" lon="8.442027041299468"><ele>101.4</ele><time>2026-05-01T08:38:39Z</time></trkpt><trkpt lat="39.43740292923797" lon="8.441930261457326"><ele>100.0</ele><time>2026-05-01T08:38:40Z</time></trkpt><trkpt lat="39.43731609982081" lon="8.441828161318611"><ele>100.0</ele><time>2026-05-01T08:38:41Z</time></trkpt><trkpt lat="39.43722361050119" lon="8.44171601049315"><ele>100.0</ele><time>2026-05-01T08:38:42Z</time></trkpt><trkpt lat="39.4371317092147" lon="8.441602003277467"><ele>100.0</ele><time>2026-05-01T08:38:43Z</time></trkpt><trkpt lat="39.437041510897366" lon="8.441503375062476"><ele>100.0</ele><time>2026-05-01T08:38:44Z</time></trkpt><trkpt lat="39.4369586890412" lon="8.441430853288777"><ele>101.4</ele><time>2026-05-01T08:38:45Z</time></trkpt><trkpt lat="39.43688609240705" lon="8.44138139395126"><ele>102.8</ele><time>2026-05-01T08:38:46Z</time></trkpt><trkpt lat="39.43678087154551" lon="8.44143511516095"><ele>104.19999999999999</ele><time>2026-05-01T08:38:47Z</time></trkpt><trkpt lat="39.43666263963445" lon="8.441462278499031"><ele>105.6</ele><time>2026-05-01T08:38:48Z</time></trkpt><trkpt lat="39.436556228811114" lon="8.441518452504901"><ele>107.0</ele><time>2026-05-01T08:38:49Z</time></trkpt><trkpt lat="39.43647499783901" lon="8.441591827304805"><ele>107.0</ele><time>2026-05-01T08:38:50Z</time></trkpt><trkpt lat="39.436403709043084" lon="8.441669716446462"><ele>106.99999999999999</ele><time>2026-05-01T08:38:51Z</time></trkpt><trkpt lat="39.43633920532391" lon="8.441778653006981"><ele>106.99999999999999</ele><time>2026-05-01T08:38:52Z</time></trkpt><trkpt lat="39.43632976468479" lon="8.441943012594905"><ele>107.0</ele><time>2026-05-01T08:38:52.999Z</time></trkpt><trkpt lat="39.43632115928315" lon="8.442064554461314"><ele>107.0</ele><time>2026-05-01T08:38:53.999Z</time></trkpt><trkpt lat="39.43624411568001" lon="8.442175858778091"><ele>110.0</ele><time>2026-05-01T08:38:55.999Z</time></trkpt><trkpt lat="39.43617413352954" lon="8.44220134364808"><ele>112.99999999999999</ele><time>2026-05-01T08:38:56.999Z</time></trkpt><trkpt lat="39.43609088163728" lon="8.442198373332294"><ele>115.99999999999999</ele><time>2026-05-01T08:38:57.999Z</time></trkpt><trkpt lat="39.435981740278855" lon="8.44220214374484"><ele>119.0</ele><time>2026-05-01T08:38:58.999Z</time></trkpt><trkpt lat="39.43589449170421" lon="8.442210151912972"><ele>122.0</ele><time>2026-05-01T08:38:59.999Z</time></trkpt><trkpt lat="39.435778621282616" lon="8.442162208326325"><ele>117.8</ele><time>2026-05-01T08:39:01.999Z</time></trkpt><trkpt lat="39.43574489053958" lon="8.442055230347343"><ele>113.6</ele><time>2026-05-01T08:39:02.999Z</time></trkpt><trkpt lat="39.43570587924725" lon="8.44195139918386"><ele>109.39999999999999</ele><time>2026-05-01T08:39:03.999Z</time></trkpt><trkpt lat="39.43563978676889" lon="8.441876863562037"><ele>105.19999999999999</ele><time>2026-05-01T08:39:04.999Z</time></trkpt><trkpt lat="39.43553858479789" lon="8.441843328224843"><ele>101.0</ele><time>2026-05-01T08:39:05.999Z</time></trkpt><trkpt lat="39.435414746540765" lon="8.44181426312834"><ele>101.0</ele><time>2026-05-01T08:39:06.999Z</time></trkpt><trkpt lat="39.43529941093659" lon="8.441760390976908"><ele>101.0</ele><time>2026-05-01T08:39:07.999Z</time></trkpt><trkpt lat="39.43517819051304" lon="8.441761060760673"><ele>101.0</ele><time>2026-05-01T08:39:08.999Z</time></trkpt><trkpt lat="39.43505669308381" lon="8.441750486212188"><ele>101.0</ele><time>2026-05-01T08:39:09.999Z</time></trkpt><trkpt lat="39.43495254277659" lon="8.4417768478286"><ele>101.0</ele><time>2026-05-01T08:39:10.999Z</time></trkpt><trkpt lat="39.43486651991078" lon="8.441855924501354"><ele>101.0</ele><time>2026-05-01T08:39:11.999Z</time></trkpt><trkpt lat="39.43479334927278" lon="8.441980662740637"><ele>101.0</ele><time>2026-05-01T08:39:12.999Z</time></trkpt><trkpt lat="39.43473392102084" lon="8.442140994355334"><ele>101.0</ele><time>2026-05-01T08:39:13.999Z</time></trkpt><trkpt lat="39.434704603620666" lon="8.442320115839241"><ele>99.75</ele><time>2026-05-01T08:39:14.999Z</time></trkpt><trkpt lat="39.434656980117786" lon="8.442499962390178"><ele>98.5</ele><time>2026-05-01T08:39:15.999Z</time></trkpt><trkpt lat="39.43463774511717" lon="8.442688666810035"><ele>97.25</ele><time>2026-05-01T08:39:16.999Z</time></trkpt><trkpt lat="39.43461801399041" lon="8.442847967724449"><ele>96.0</ele><time>2026-05-01T08:39:17.999Z</time></trkpt><trkpt lat="39.43459870529057" lon="8.442985338527162"><ele>99.19999999999999</ele><time>2026-05-01T08:39:18.999Z</time></trkpt><trkpt lat="39.43456513056064" lon="8.443120339094508"><ele>102.39999999999999</ele><time>2026-05-01T08:39:19.999Z</time></trkpt><trkpt lat="39.43451258147861" lon="8.443276094935861"><ele>105.6</ele><time>2026-05-01T08:39:20.999Z</time></trkpt><trkpt lat="39.434458248734146" lon="8.443410826209325"><ele>108.8</ele><time>2026-05-01T08:39:21.999Z</time></trkpt><trkpt lat="39.434404653508075" lon="8.443504252658144"><ele>112.0</ele><time>2026-05-01T08:39:22.999Z</time></trkpt><trkpt lat="39.434340724494206" lon="8.44357635690392"><ele>112.0</ele><time>2026-05-01T08:39:23.999Z</time></trkpt><trkpt lat="39.43426535277754" lon="8.44359741682574"><ele>111.99999999999999</ele><time>2026-05-01T08:39:24.999Z</time></trkpt><trkpt lat="39.43420317322896" lon="8.44362089135712"><ele>111.99999999999999</ele><time>2026-05-01T08:39:25.999Z</time></trkpt><trkpt lat="39.43412438813691" lon="8.44356030373981"><ele>112.0</ele><time>2026-05-01T08:39:26.999Z</time></trkpt><trkpt lat="39.43403518927703" lon="8.4434839272363"><ele>112.0</ele><time>2026-05-01T08:39:27.999Z</time></trkpt><trkpt lat="39.43397034638138" lon="8.443361926820387"><ele>112.0</ele><time>2026-05-01T08:39:28.999Z</time></trkpt><trkpt lat="39.43393827655725" lon="8.443221529632773"><ele>111.99999999999999</ele><time>2026-05-01T08:39:29.999Z</time></trkpt><trkpt lat="39.433915242558804" lon="8.44307035882462"><ele>111.99999999999999</ele><time>2026-05-01T08:39:30.999Z</time></trkpt><trkpt lat="39.43387971697377" lon="8.44293152784213"><ele>112.0</ele><time>2026-05-01T08:39:31.999Z</time></trkpt><trkpt lat="39.43381182798554" lon="8.442836889514965"><ele>112.0</ele><time>2026-05-01T08:39:32.999Z</time></trkpt><trkpt lat="39.43370866387527" lon="8.442779548116572"><ele>112.6</ele><time>2026-05-01T08:39:33.999Z</time></trkpt><trkpt lat="39.4336030154102" lon="8.442763201049104"><ele>113.19999999999999</ele><time>2026-05-01T08:39:34.999Z</time></trkpt><trkpt lat="39.43350566318696" lon="8.442794592487319"><ele>113.8</ele><time>2026-05-01T08:39:35.999Z</time></trkpt><trkpt lat="39.43341152186783" lon="8.442848541910752"><ele>114.4</ele><time>2026-05-01T08:39:36.999Z</time></trkpt><trkpt lat="39.43333633267878" lon="8.442972636696986"><ele>115.0</ele><time>2026-05-01T08:39:37.999Z</time></trkpt><trkpt lat="39.43326201261633" lon="8.443094480660978"><ele>115.0</ele><time>2026-05-01T08:39:38.999Z</time></trkpt><trkpt lat="39.4331753256522" lon="8.443192897431883"><ele>115.0</ele><time>2026-05-01T08:39:39.999Z</time></trkpt><trkpt lat="39.43307183362714" lon="8.443264248478869"><ele>115.0</ele><time>2026-05-01T08:39:40.999Z</time></trkpt><trkpt lat="39.43295830458044" lon="8.443319686339029"><ele>115.0</ele><time>2026-05-01T08:39:41.999Z</time></trkpt><trkpt lat="39.432822945091026" lon="8.44339204396734"><ele>113.4</ele><time>2026-05-01T08:39:42.999Z</time></trkpt><trkpt lat="39.43269121135724" lon="8.443445948594901"><ele>111.8</ele><time>2026-05-01T08:39:43.999Z</time></trkpt><trkpt lat="39.43258358110899" lon="8.443496828351293"><ele>110.19999999999999</ele><time>2026-05-01T08:39:44.999Z</time></trkpt><trkpt lat="39.43249453996679" lon="8.443547789276083"><ele>108.6</ele><time>2026-05-01T08:39:45.999Z</time></trkpt><trkpt lat="39.43241175116041" lon="8.443605171242352"><ele>107.0</ele><time>2026-05-01T08:39:46.999Z</time></trkpt><trkpt lat="39.43235096584404" lon="8.443728718226515"><ele>107.5</ele><time>2026-05-01T08:39:47.999Z</time></trkpt><trkpt lat="39.43229036564511" lon="8.443860764188898"><ele>108.0</ele><time>2026-05-01T08:39:48.999Z</time></trkpt><trkpt lat="39.43222111312732" lon="8.443987530549094"><ele>108.5</ele><time>2026-05-01T08:39:49.999Z</time></trkpt><trkpt lat="39.432141167283184" lon="8.444085353743457"><ele>109.0</ele><time>2026-05-01T08:39:50.999Z</time></trkpt><trkpt lat="39.43204450412906" lon="8.444165568695642"><ele>109.0</ele><time>2026-05-01T08:39:51.999Z</time></trkpt><trkpt lat="39.431935627529" lon="8.444256218171398"><ele>109.0</ele><time>2026-05-01T08:39:52.999Z</time></trkpt><trkpt lat="39.4318300273283" lon="8.444342411907332"><ele>109.0</ele><time>2026-05-01T08:39:53.999Z</time></trkpt><trkpt lat="39.43172402440887" lon="8.444428934316207"><ele>109.0</ele><time>2026-05-01T08:39:54.999Z</time></trkpt><trkpt lat="39.431611586471746" lon="8.444520709190504"><ele>109.0</ele><time>2026-05-01T08:39:55.999Z</time></trkpt><trkpt lat="39.4314992611011" lon="8.444609277418712"><ele>109.0</ele><time>2026-05-01T08:39:56.999Z</time></trkpt><trkpt lat="39.431379862053795" lon="8.444694903764079"><ele>109.0</ele><time>2026-05-01T08:39:57.999Z</time></trkpt><trkpt lat="39.43125366607646" lon="8.444786435264591"><ele>109.0</ele><time>2026-05-01T08:39:58.999Z</time></trkpt><trkpt lat="39.43112904620145" lon="8.444878659356277"><ele>109.33333333333334</ele><time>2026-05-01T08:39:59.999Z</time></trkpt><trkpt lat="39.43100250240849" lon="8.444987289073028"><ele>109.66666666666666</ele><time>2026-05-01T08:40:00.998Z</time></trkpt><trkpt lat="39.430878299153086" lon="8.445107944131918"><ele>110.0</ele><time>2026-05-01T08:40:02Z</time></trkpt><trkpt lat="39.430755808286406" lon="8.445216285255217"><ele>110.0</ele><time>2026-05-01T08:40:03Z</time></trkpt><trkpt lat="39.43064574451394" lon="8.445317470134333"><ele>110.0</ele><time>2026-05-01T08:40:04Z</time></trkpt><trkpt lat="39.43055308707839" lon="8.44541134830783"><ele>110.0</ele><time>2026-05-01T08:40:05Z</time></trkpt><trkpt lat="39.43048004983877" lon="8.445492678852801"><ele>110.0</ele><time>2026-05-01T08:40:06Z</time></trkpt><trkpt lat="39.43042603442228" lon="8.445578155086293"><ele>110.0</ele><time>2026-05-01T08:40:07Z</time></trkpt><trkpt lat="39.43038958686966" lon="8.445669781847883"><ele>107.83333333333333</ele><time>2026-05-01T08:40:08Z</time></trkpt><trkpt lat="39.43036067099563" lon="8.445756275928144"><ele>105.66666666666666</ele><time>2026-05-01T08:40:09Z</time></trkpt><trkpt lat="39.43033990794413" lon="8.445850084449889"><ele>103.5</ele><time>2026-05-01T08:40:10Z</time></trkpt><trkpt lat="39.43032045383599" lon="8.44594051250113"><ele>101.33333333333334</ele><time>2026-05-01T08:40:11Z</time></trkpt><trkpt lat="39.430298922669394" lon="8.44604059529099"><ele>99.16666666666667</ele><time>2026-05-01T08:40:12Z</time></trkpt><trkpt lat="39.43026763045889" lon="8.446156324886013"><ele>97.0</ele><time>2026-05-01T08:40:13Z</time></trkpt><trkpt lat="39.4302149813324" lon="8.446273990848436"><ele>99.39999999999999</ele><time>2026-05-01T08:40:14Z</time></trkpt><trkpt lat="39.43017039872529" lon="8.446396592653098"><ele>101.8</ele><time>2026-05-01T08:40:15Z</time></trkpt><trkpt lat="39.43014943303032" lon="8.446533460192791"><ele>104.2</ele><time>2026-05-01T08:40:16Z</time></trkpt><trkpt lat="39.430094761544375" lon="8.44665896987391"><ele>106.6</ele><time>2026-05-01T08:40:17Z</time></trkpt><trkpt lat="39.430038411080886" lon="8.446767686368533"><ele>109.0</ele><time>2026-05-01T08:40:18Z</time></trkpt><trkpt lat="39.429972538345915" lon="8.446878239439716"><ele>109.0</ele><time>2026-05-01T08:40:19Z</time></trkpt><trkpt lat="39.42993646512555" lon="8.447021255438043"><ele>109.0</ele><time>2026-05-01T08:40:20Z</time></trkpt><trkpt lat="39.429896608440366" lon="8.447152968164595"><ele>109.0</ele><time>2026-05-01T08:40:21Z</time></trkpt><trkpt lat="39.42983558926115" lon="8.44725718012603"><ele>109.0</ele><time>2026-05-01T08:40:22Z</time></trkpt><trkpt lat="39.42975851925278" lon="8.44732611472037"><ele>109.0</ele><time>2026-05-01T08:40:23Z</time></trkpt><trkpt lat="39.429677622926725" lon="8.447396488951572"><ele>107.4</ele><time>2026-05-01T08:40:24Z</time></trkpt><trkpt lat="39.42959120735438" lon="8.44742629304582"><ele>105.80000000000001</ele><time>2026-05-01T08:40:25Z</time></trkpt><trkpt lat="39.42951834696776" lon="8.44741353769654"><ele>104.19999999999999</ele><time>2026-05-01T08:40:26Z</time></trkpt><trkpt lat="39.42942303050078" lon="8.447302813865084"><ele>102.6</ele><time>2026-05-01T08:40:28Z</time></trkpt><trkpt lat="39.42939569399904" lon="8.44720294193498"><ele>101.0</ele><time>2026-05-01T08:40:29Z</time></trkpt><trkpt lat="39.42936182780954" lon="8.44710953686892"><ele>101.0</ele><time>2026-05-01T08:40:30Z</time></trkpt><trkpt lat="39.4293145682128" lon="8.447045958082084"><ele>101.0</ele><time>2026-05-01T08:40:31Z</time></trkpt><trkpt lat="39.429230699559135" lon="8.447028885652998"><ele>101.0</ele><time>2026-05-01T08:40:32Z</time></trkpt><trkpt lat="39.42914515202677" lon="8.447041625349925"><ele>101.0</ele><time>2026-05-01T08:40:33Z</time></trkpt><trkpt lat="39.429068325719214" lon="8.447133297353794"><ele>101.0</ele><time>2026-05-01T08:40:34Z</time></trkpt><trkpt lat="39.42900648851239" lon="8.447257448716595"><ele>101.0</ele><time>2026-05-01T08:40:35Z</time></trkpt><trkpt lat="39.42893660501924" lon="8.447375830582944"><ele>101.0</ele><time>2026-05-01T08:40:36Z</time></trkpt><trkpt lat="39.42886123186866" lon="8.447503059117365"><ele>101.0</ele><time>2026-05-01T08:40:37Z</time></trkpt><trkpt lat="39.42878385520865" lon="8.447619730883254"><ele>101.0</ele><time>2026-05-01T08:40:38Z</time></trkpt><trkpt lat="39.42870810787288" lon="8.447720657004766"><ele>96.6</ele><time>2026-05-01T08:40:39Z</time></trkpt><trkpt lat="39.428646353344504" lon="8.447825871352775"><ele>92.19999999999999</ele><time>2026-05-01T08:40:40Z</time></trkpt><trkpt lat="39.42859380432087" lon="8.447928168740633"><ele>87.80000000000001</ele><time>2026-05-01T08:40:41Z</time></trkpt><trkpt lat="39.428581984367234" lon="8.448041145211038"><ele>83.4</ele><time>2026-05-01T08:40:42Z</time></trkpt><trkpt lat="39.428606361865334" lon="8.448154582982509"><ele>79.0</ele><time>2026-05-01T08:40:43Z</time></trkpt><trkpt lat="39.42867152944779" lon="8.448276954384808"><ele>79.0</ele><time>2026-05-01T08:40:44Z</time></trkpt><trkpt lat="39.42871451181263" lon="8.448428622310347"><ele>79.0</ele><time>2026-05-01T08:40:45Z</time></trkpt><trkpt lat="39.42872845602411" lon="8.44857584378793"><ele>79.0</ele><time>2026-05-01T08:40:46Z</time></trkpt><trkpt lat="39.428731524566444" lon="8.448734283936266"><ele>79.0</ele><time>2026-05-01T08:40:47Z</time></trkpt><trkpt lat="39.42875020049602" lon="8.44889593497778"><ele>79.0</ele><time>2026-05-01T08:40:48Z</time></trkpt><trkpt lat="39.42876837668989" lon="8.449040146864698"><ele>79.0</ele><time>2026-05-01T08:40:49Z</time></trkpt><trkpt lat="39.428790332773126" lon="8.44915726204839"><ele>79.0</ele><time>2026-05-01T08:40:50Z</time></trkpt><trkpt lat="39.42878623759106" lon="8.44926272505974"><ele>79.0</ele><time>2026-05-01T08:40:51Z</time></trkpt><trkpt lat="39.428759125068055" lon="8.449340401493357"><ele>79.0</ele><time>2026-05-01T08:40:52Z</time></trkpt><trkpt lat="39.42870420765094" lon="8.449420870884724"><ele>79.0</ele><time>2026-05-01T08:40:53Z</time></trkpt><trkpt lat="39.428613796267456" lon="8.449520799791584"><ele>79.0</ele><time>2026-05-01T08:40:53.999Z</time></trkpt><trkpt lat="39.42854121887852" lon="8.449611352149004"><ele>79.0</ele><time>2026-05-01T08:40:54.999Z</time></trkpt><trkpt lat="39.42848593487689" lon="8.449670231036091"><ele>79.0</ele><time>2026-05-01T08:40:55.999Z</time></trkpt><trkpt lat="39.42837803091304" lon="8.449706579089286"><ele>79.0</ele><time>2026-05-01T08:40:57.999Z</time></trkpt><trkpt lat="39.42826706686216" lon="8.449655154026624"><ele>79.0</ele><time>2026-05-01T08:40:59.999Z</time></trkpt><trkpt lat="39.428199137175454" lon="8.449621208102027"><ele>79.0</ele><time>2026-05-01T08:41:00.999Z</time></trkpt><trkpt lat="39.42813180613521" lon="8.449582107574862"><ele>79.0</ele><time>2026-05-01T08:41:01.999Z</time></trkpt><trkpt lat="39.42810643182325" lon="8.449479046726736"><ele>79.0</ele><time>2026-05-01T08:41:02.999Z</time></trkpt><trkpt lat="39.42808394427729" lon="8.44937874551933"><ele>79.0</ele><time>2026-05-01T08:41:03.999Z</time></trkpt><trkpt lat="39.428053636938984" lon="8.449269699918519"><ele>79.0</ele><time>2026-05-01T08:41:04.999Z</time></trkpt><trkpt lat="39.42801574227396" lon="8.449158511059386"><ele>79.0</ele><time>2026-05-01T08:41:05.999Z</time></trkpt><trkpt lat="39.42793171200583" lon="8.449072727571156"><ele>80.2</ele><time>2026-05-01T08:41:06.999Z</time></trkpt><trkpt lat="39.42781668801034" lon="8.449007718769632"><ele>81.4</ele><time>2026-05-01T08:41:07.999Z</time></trkpt><trkpt lat="39.42772670761103" lon="8.448916022069819"><ele>82.6</ele><time>2026-05-01T08:41:08.999Z</time></trkpt><trkpt lat="39.427671312097026" lon="8.448847134386847"><ele>83.8</ele><time>2026-05-01T08:41:09.999Z</time></trkpt><trkpt lat="39.4276255020613" lon="8.448700276276856"><ele>85.0</ele><time>2026-05-01T08:41:11.999Z</time></trkpt><trkpt lat="39.42759406319555" lon="8.44859624579722"><ele>85.0</ele><time>2026-05-01T08:41:12.999Z</time></trkpt><trkpt lat="39.427580706258574" lon="8.448475563048458"><ele>85.0</ele><time>2026-05-01T08:41:13.999Z</time></trkpt><trkpt lat="39.42751548737031" lon="8.448365834400391"><ele>85.0</ele><time>2026-05-01T08:41:14.999Z</time></trkpt><trkpt lat="39.42743641518472" lon="8.448261156336757"><ele>85.0</ele><time>2026-05-01T08:41:15.999Z</time></trkpt><trkpt lat="39.427356158550445" lon="8.448157389840663"><ele>85.0</ele><time>2026-05-01T08:41:16.999Z</time></trkpt><trkpt lat="39.42726020411539" lon="8.448063303800451"><ele>85.0</ele><time>2026-05-01T08:41:17.999Z</time></trkpt><trkpt lat="39.427147872555246" lon="8.447996207232535"><ele>85.0</ele><time>2026-05-01T08:41:18.999Z</time></trkpt><trkpt lat="39.42702356962173" lon="8.447958343420884"><ele>85.0</ele><time>2026-05-01T08:41:19.999Z</time></trkpt><trkpt lat="39.426920358777046" lon="8.447908928486275"><ele>85.0</ele><time>2026-05-01T08:41:20.999Z</time></trkpt><trkpt lat="39.42683690406165" lon="8.447873720381512"><ele>85.0</ele><time>2026-05-01T08:41:21.999Z</time></trkpt><trkpt lat="39.42677017090355" lon="8.447835977169051"><ele>87.8</ele><time>2026-05-01T08:41:22.999Z</time></trkpt><trkpt lat="39.426740014615746" lon="8.447746047629606"><ele>90.6</ele><time>2026-05-01T08:41:23.999Z</time></trkpt><trkpt lat="39.42673230132408" lon="8.447623829850704"><ele>93.4</ele><time>2026-05-01T08:41:24.999Z</time></trkpt><trkpt lat="39.42674907136739" lon="8.447496341001088"><ele>96.2</ele><time>2026-05-01T08:41:25.999Z</time></trkpt><trkpt lat="39.42678794887654" lon="8.44736527573083"><ele>99.0</ele><time>2026-05-01T08:41:26.999Z</time></trkpt><trkpt lat="39.42684715428111" lon="8.447219002375347"><ele>99.5</ele><time>2026-05-01T08:41:27.999Z</time></trkpt><trkpt lat="39.42687926284929" lon="8.44707294525072"><ele>100.0</ele><time>2026-05-01T08:41:28.999Z</time></trkpt><trkpt lat="39.42687980030598" lon="8.446916629623713"><ele>100.5</ele><time>2026-05-01T08:41:29.999Z</time></trkpt><trkpt lat="39.42687149782187" lon="8.446756002449927"><ele>101.0</ele><time>2026-05-01T08:41:30.999Z</time></trkpt><trkpt lat="39.426881040448166" lon="8.446592059227033"><ele>101.0</ele><time>2026-05-01T08:41:31.999Z</time></trkpt><trkpt lat="39.42688662460617" lon="8.446439107978138"><ele>101.0</ele><time>2026-05-01T08:41:32.999Z</time></trkpt><trkpt lat="39.4268690349718" lon="8.446317194808799"><ele>101.0</ele><time>2026-05-01T08:41:33.999Z</time></trkpt><trkpt lat="39.42683078888417" lon="8.44621233313725"><ele>101.0</ele><time>2026-05-01T08:41:34.999Z</time></trkpt><trkpt lat="39.42680343650287" lon="8.44611118006487"><ele>101.0</ele><time>2026-05-01T08:41:35.999Z</time></trkpt><trkpt lat="39.42682989851918" lon="8.44600138198673"><ele>101.33333333333333</ele><time>2026-05-01T08:41:36.999Z</time></trkpt><trkpt lat="39.4268828808588" lon="8.445916398527466"><ele>101.66666666666666</ele><time>2026-05-01T08:41:37.999Z</time></trkpt><trkpt lat="39.42691955562334" lon="8.445849587748604"><ele>102.0</ele><time>2026-05-01T08:41:38.999Z</time></trkpt><trkpt lat="39.426905779312385" lon="8.445712646121434"><ele>102.33333333333334</ele><time>2026-05-01T08:41:40.999Z</time></trkpt><trkpt lat="39.426845970052746" lon="8.445577454715725"><ele>102.66666666666667</ele><time>2026-05-01T08:41:42.999Z</time></trkpt><trkpt lat="39.426809680616614" lon="8.445502572255739"><ele>103.0</ele><time>2026-05-01T08:41:43.999Z</time></trkpt><trkpt lat="39.426771370699704" lon="8.445418560223981"><ele>103.16666666666667</ele><time>2026-05-01T08:41:44.999Z</time></trkpt><trkpt lat="39.426743451302116" lon="8.445334600169415"><ele>103.33333333333334</ele><time>2026-05-01T08:41:45.999Z</time></trkpt><trkpt lat="39.42671883465776" lon="8.445241708220577"><ele>103.5</ele><time>2026-05-01T08:41:46.999Z</time></trkpt><trkpt lat="39.426704110763346" lon="8.445136190209519"><ele>103.66666666666666</ele><time>2026-05-01T08:41:47.999Z</time></trkpt><trkpt lat="39.42668824427043" lon="8.445009234424383"><ele>103.83333333333333</ele><time>2026-05-01T08:41:48.999Z</time></trkpt><trkpt lat="39.42666422155292" lon="8.444870821777581"><ele>104.0</ele><time>2026-05-01T08:41:49.999Z</time></trkpt><trkpt lat="39.42663639075633" lon="8.444733204962414"><ele>104.6</ele><time>2026-05-01T08:41:50.999Z</time></trkpt><trkpt lat="39.426610560753744" lon="8.444617046974418"><ele>105.2</ele><time>2026-05-01T08:41:51.999Z</time></trkpt><trkpt lat="39.426577455197055" lon="8.444522054065613"><ele>105.79999999999998</ele><time>2026-05-01T08:41:52.999Z</time></trkpt><trkpt lat="39.42651553226698" lon="8.444458095820991"><ele>106.39999999999999</ele><time>2026-05-01T08:41:53.999Z</time></trkpt><trkpt lat="39.42642268338305" lon="8.444423271739419"><ele>107.0</ele><time>2026-05-01T08:41:54.999Z</time></trkpt><trkpt lat="39.42630964685154" lon="8.444410154235104"><ele>107.75</ele><time>2026-05-01T08:41:55.999Z</time></trkpt><trkpt lat="39.42618967105796" lon="8.44439485702685"><ele>108.5</ele><time>2026-05-01T08:41:56.999Z</time></trkpt><trkpt lat="39.42606976869196" lon="8.444362211461117"><ele>109.25</ele><time>2026-05-01T08:41:57.999Z</time></trkpt><trkpt lat="39.42594864374553" lon="8.444402515965255"><ele>110.0</ele><time>2026-05-01T08:41:58.999Z</time></trkpt><trkpt lat="39.42582683285479" lon="8.44439743434559"><ele>109.99999999999999</ele><time>2026-05-01T08:41:59.999Z</time></trkpt><trkpt lat="39.425733988532244" lon="8.444396736766775"><ele>110.0</ele><time>2026-05-01T08:42:00.999Z</time></trkpt><trkpt lat="39.42566985204706" lon="8.44436005315933"><ele>110.0</ele><time>2026-05-01T08:42:01.999Z</time></trkpt><trkpt lat="39.42560707082261" lon="8.444305823534137"><ele>110.0</ele><time>2026-05-01T08:42:02.999Z</time></trkpt><trkpt lat="39.42555240377328" lon="8.444169022059723"><ele>109.99999999999999</ele><time>2026-05-01T08:42:04.998Z</time></trkpt><trkpt lat="39.425564534373756" lon="8.444064295459055"><ele>110.0</ele><time>2026-05-01T08:42:05.998Z</time></trkpt><trkpt lat="39.42558378417152" lon="8.443956464401644"><ele>109.99999999999999</ele><time>2026-05-01T08:42:06.998Z</time></trkpt><trkpt lat="39.425610471674204" lon="8.443861613147641"><ele>110.0</ele><time>2026-05-01T08:42:08Z</time></trkpt><trkpt lat="39.425648087007445" lon="8.443780682999153"><ele>110.0</ele><time>2026-05-01T08:42:09Z</time></trkpt><trkpt lat="39.42570101849991" lon="8.443706351199763"><ele>110.0</ele><time>2026-05-01T08:42:10Z</time></trkpt><trkpt lat="39.42576679958056" lon="8.44365706545498"><ele>109.99999999999999</ele><time>2026-05-01T08:42:11Z</time></trkpt><trkpt lat="39.425849686887815" lon="8.443640821047445"><ele>110.0</ele><time>2026-05-01T08:42:12Z</time></trkpt><trkpt lat="39.42592669320342" lon="8.443697224571157"><ele>109.99999999999999</ele><time>2026-05-01T08:42:13Z</time></trkpt><trkpt lat="39.426001240659595" lon="8.443729304141607"><ele>110.0</ele><time>2026-05-01T08:42:14Z</time></trkpt><trkpt lat="39.42607992424306" lon="8.443755238232242"><ele>110.0</ele><time>2026-05-01T08:42:15Z</time></trkpt><trkpt lat="39.42616004886859" lon="8.443792733471708"><ele>110.0</ele><time>2026-05-01T08:42:16Z</time></trkpt><trkpt lat="39.4262478169005" lon="8.443804254977985"><ele>109.99999999999999</ele><time>2026-05-01T08:42:17Z</time></trkpt><trkpt lat="39.426340849332185" lon="8.443800924539277"><ele>110.0</ele><time>2026-05-01T08:42:18Z</time></trkpt><trkpt lat="39.42643433898351" lon="8.4437733816824"><ele>111.6</ele><time>2026-05-01T08:42:19Z</time></trkpt><trkpt lat="39.42652017558515" lon="8.443720401132195"><ele>113.2</ele><time>2026-05-01T08:42:20Z</time></trkpt><trkpt lat="39.42660156081682" lon="8.443663934996488"><ele>114.80000000000001</ele><time>2026-05-01T08:42:21Z</time></trkpt><trkpt lat="39.42668696098197" lon="8.443614781880614"><ele>116.4</ele><time>2026-05-01T08:42:22Z</time></trkpt><trkpt lat="39.42676278305887" lon="8.443549550752252"><ele>118.0</ele><time>2026-05-01T08:42:23Z</time></trkpt><trkpt lat="39.42682003744364" lon="8.443452823997974"><ele>118.0</ele><time>2026-05-01T08:42:24Z</time></trkpt><trkpt lat="39.42686164675284" lon="8.443339787633155"><ele>118.00000000000001</ele><time>2026-05-01T08:42:25Z</time></trkpt><trkpt lat="39.4268881950734" lon="8.443223865399434"><ele>118.00000000000001</ele><time>2026-05-01T08:42:26Z</time></trkpt><trkpt lat="39.426896442300176" lon="8.443102767137235"><ele>118.0</ele><time>2026-05-01T08:42:27Z</time></trkpt><trkpt lat="39.4268811505103" lon="8.442992933871754"><ele>118.0</ele><time>2026-05-01T08:42:28Z</time></trkpt><trkpt lat="39.426863473609004" lon="8.442881644425377"><ele>119.33333333333334</ele><time>2026-05-01T08:42:29Z</time></trkpt><trkpt lat="39.426844470774256" lon="8.44277250407365"><ele>120.66666666666667</ele><time>2026-05-01T08:42:30Z</time></trkpt><trkpt lat="39.42682106898912" lon="8.44267451772283"><ele>122.0</ele><time>2026-05-01T08:42:31Z</time></trkpt><trkpt lat="39.426785579546085" lon="8.44259538209642"><ele>123.33333333333334</ele><time>2026-05-01T08:42:32Z</time></trkpt><trkpt lat="39.42671846479188" lon="8.442557541799948"><ele>124.66666666666667</ele><time>2026-05-01T08:42:33Z</time></trkpt><trkpt lat="39.426636759798" lon="8.442555666958285"><ele>126.0</ele><time>2026-05-01T08:42:34Z</time></trkpt><trkpt lat="39.42655563043047" lon="8.442642612746397"><ele>126.0</ele><time>2026-05-01T08:42:35Z</time></trkpt><trkpt lat="39.42648743423483" lon="8.442745893071647"><ele>126.0</ele><time>2026-05-01T08:42:36Z</time></trkpt><trkpt lat="39.426434576438005" lon="8.442883929618052"><ele>126.0</ele><time>2026-05-01T08:42:37Z</time></trkpt><trkpt lat="39.42635959624232" lon="8.443011535855184"><ele>126.0</ele><time>2026-05-01T08:42:38Z</time></trkpt><trkpt lat="39.42630869195618" lon="8.443131178480048"><ele>125.6</ele><time>2026-05-01T08:42:39Z</time></trkpt><trkpt lat="39.42626843570104" lon="8.443204791765886"><ele>125.19999999999999</ele><time>2026-05-01T08:42:40Z</time></trkpt><trkpt lat="39.426190603453215" lon="8.44325831825257"><ele>124.80000000000001</ele><time>2026-05-01T08:42:42Z</time></trkpt><trkpt lat="39.426138400936814" lon="8.443156587761342"><ele>124.4</ele><time>2026-05-01T08:42:44Z</time></trkpt><trkpt lat="39.42616888272495" lon="8.442983596331008"><ele>124.0</ele><time>2026-05-01T08:42:46Z</time></trkpt><trkpt lat="39.426213017622466" lon="8.442890272067979"><ele>127.00000000000001</ele><time>2026-05-01T08:42:47Z</time></trkpt><trkpt lat="39.426235596609345" lon="8.442774930554146"><ele>130.0</ele><time>2026-05-01T08:42:48Z</time></trkpt><trkpt lat="39.42624751318359" lon="8.442649123092771"><ele>133.0</ele><time>2026-05-01T08:42:49Z</time></trkpt><trkpt lat="39.42625213341393" lon="8.442545478417749"><ele>136.0</ele><time>2026-05-01T08:42:50Z</time></trkpt><trkpt lat="39.42619312019384" lon="8.442423646871555"><ele>139.0</ele><time>2026-05-01T08:42:52Z</time></trkpt><trkpt lat="39.42613175978208" lon="8.442391632307622"><ele>142.0</ele><time>2026-05-01T08:42:53Z</time></trkpt><trkpt lat="39.42605666756377" lon="8.44241219351982"><ele>142.0</ele><time>2026-05-01T08:42:54Z</time></trkpt><trkpt lat="39.42599665706248" lon="8.442521812274972"><ele>142.0</ele><time>2026-05-01T08:42:55Z</time></trkpt><trkpt lat="39.42598984396457" lon="8.442685228775387"><ele>142.0</ele><time>2026-05-01T08:42:56Z</time></trkpt><trkpt lat="39.425983001358205" lon="8.442810162571586"><ele>142.0</ele><time>2026-05-01T08:42:57Z</time></trkpt><trkpt lat="39.425945443847326" lon="8.442928625809877"><ele>142.0</ele><time>2026-05-01T08:42:59Z</time></trkpt><trkpt lat="39.42587414511358" lon="8.44292086666308"><ele>142.0</ele><time>2026-05-01T08:43:00.999Z</time></trkpt><trkpt lat="39.42581217132169" lon="8.442791341440646"><ele>142.0</ele><time>2026-05-01T08:43:02.999Z</time></trkpt><trkpt lat="39.425867646594625" lon="8.442675323014075"><ele>142.0</ele><time>2026-05-01T08:43:03.999Z</time></trkpt><trkpt lat="39.42588121910415" lon="8.442551796932548"><ele>142.0</ele><time>2026-05-01T08:43:04.999Z</time></trkpt><trkpt lat="39.42589853693835" lon="8.44242038909588"><ele>142.0</ele><time>2026-05-01T08:43:05.999Z</time></trkpt><trkpt lat="39.42588926194834" lon="8.442292295903355"><ele>142.0</ele><time>2026-05-01T08:43:06.999Z</time></trkpt><trkpt lat="39.42588503224875" lon="8.442176992049392"><ele>142.0</ele><time>2026-05-01T08:43:07.999Z</time></trkpt><trkpt lat="39.42591345378809" lon="8.442072634648271"><ele>142.0</ele><time>2026-05-01T08:43:08.999Z</time></trkpt><trkpt lat="39.425954111647414" lon="8.441987522606098"><ele>142.0</ele><time>2026-05-01T08:43:09.999Z</time></trkpt><trkpt lat="39.425949965185254" lon="8.441902361520903"><ele>142.0</ele><time>2026-05-01T08:43:10.999Z</time></trkpt><trkpt lat="39.42589470661994" lon="8.441839049760228"><ele>142.0</ele><time>2026-05-01T08:43:11.999Z</time></trkpt><trkpt lat="39.425819361408855" lon="8.441832791490421"><ele>142.0</ele><time>2026-05-01T08:43:12.999Z</time></trkpt><trkpt lat="39.42575127963714" lon="8.441861860082353"><ele>142.0</ele><time>2026-05-01T08:43:13.999Z</time></trkpt><trkpt lat="39.42570386686933" lon="8.441970209383742"><ele>142.0</ele><time>2026-05-01T08:43:14.999Z</time></trkpt><trkpt lat="39.425703731530234" lon="8.442104212429621"><ele>142.0</ele><time>2026-05-01T08:43:15.999Z</time></trkpt><trkpt lat="39.42568623066365" lon="8.442228496706399"><ele>142.0</ele><time>2026-05-01T08:43:16.999Z</time></trkpt><trkpt lat="39.42566182866836" lon="8.442345389845281"><ele>142.0</ele><time>2026-05-01T08:43:17.999Z</time></trkpt><trkpt lat="39.42562743434655" lon="8.442454758352373"><ele>142.0</ele><time>2026-05-01T08:43:18.999Z</time></trkpt><trkpt lat="39.42558450059673" lon="8.44254524509737"><ele>142.0</ele><time>2026-05-01T08:43:19.999Z</time></trkpt><trkpt lat="39.425503440159986" lon="8.442568699260606"><ele>142.0</ele><time>2026-05-01T08:43:21.999Z</time></trkpt><trkpt lat="39.42546199772784" lon="8.442490132501971"><ele>142.0</ele><time>2026-05-01T08:43:24.999Z</time></trkpt><trkpt lat="39.42548807276594" lon="8.442356863744392"><ele>142.0</ele><time>2026-05-01T08:43:26.999Z</time></trkpt><trkpt lat="39.4255287422658" lon="8.442279194586945"><ele>142.0</ele><time>2026-05-01T08:43:27.999Z</time></trkpt><trkpt lat="39.425569231895196" lon="8.442188840714424"><ele>142.0</ele><time>2026-05-01T08:43:28.999Z</time></trkpt><trkpt lat="39.4255861179438" lon="8.442088413188605"><ele>142.0</ele><time>2026-05-01T08:43:29.999Z</time></trkpt><trkpt lat="39.42557943800233" lon="8.441959978294244"><ele>142.0</ele><time>2026-05-01T08:43:30.999Z</time></trkpt><trkpt lat="39.42558065708728" lon="8.441816797034555"><ele>142.0</ele><time>2026-05-01T08:43:31.999Z</time></trkpt><trkpt lat="39.425605245716795" lon="8.441697597747057"><ele>144.2</ele><time>2026-05-01T08:43:32.999Z</time></trkpt><trkpt lat="39.42562733428798" lon="8.44157605151582"><ele>146.39999999999998</ele><time>2026-05-01T08:43:33.999Z</time></trkpt><trkpt lat="39.42561573946107" lon="8.441451829641702"><ele>148.60000000000002</ele><time>2026-05-01T08:43:34.999Z</time></trkpt><trkpt lat="39.42556982732573" lon="8.44134267591132"><ele>150.8</ele><time>2026-05-01T08:43:35.999Z</time></trkpt><trkpt lat="39.42550172006142" lon="8.441258459898773"><ele>153.0</ele><time>2026-05-01T08:43:36.999Z</time></trkpt><trkpt lat="39.42543303554811" lon="8.44117581604939"><ele>156.33333333333334</ele><time>2026-05-01T08:43:37.999Z</time></trkpt><trkpt lat="39.42535016891673" lon="8.441106413663837"><ele>159.66666666666666</ele><time>2026-05-01T08:43:38.999Z</time></trkpt><trkpt lat="39.425265713877074" lon="8.441040006362018"><ele>163.0</ele><time>2026-05-01T08:43:39.999Z</time></trkpt><trkpt lat="39.42519184785795" lon="8.44097342861281"><ele>166.33333333333331</ele><time>2026-05-01T08:43:40.999Z</time></trkpt><trkpt lat="39.42514034704293" lon="8.440896259502585"><ele>169.66666666666666</ele><time>2026-05-01T08:43:41.999Z</time></trkpt><trkpt lat="39.42510691707927" lon="8.440812577468606"><ele>173.0</ele><time>2026-05-01T08:43:42.999Z</time></trkpt><trkpt lat="39.4250628662303" lon="8.440751072614194"><ele>173.0</ele><time>2026-05-01T08:43:43.999Z</time></trkpt><trkpt lat="39.425013534884215" lon="8.44067936376716"><ele>173.0</ele><time>2026-05-01T08:43:44.999Z</time></trkpt><trkpt lat="39.42493495461112" lon="8.440676093451815"><ele>173.0</ele><time>2026-05-01T08:43:45.999Z</time></trkpt><trkpt lat="39.4248682967469" lon="8.440740543370376"><ele>173.0</ele><time>2026-05-01T08:43:46.999Z</time></trkpt><trkpt lat="39.42484230766265" lon="8.440872285258356"><ele>173.0</ele><time>2026-05-01T08:43:47.999Z</time></trkpt><trkpt lat="39.424922341033245" lon="8.441011664112594"><ele>173.0</ele><time>2026-05-01T08:43:48.999Z</time></trkpt><trkpt lat="39.42498801042389" lon="8.441123636736428"><ele>173.0</ele><time>2026-05-01T08:43:49.999Z</time></trkpt><trkpt lat="39.42502185189098" lon="8.441233953257015"><ele>173.0</ele><time>2026-05-01T08:43:50.999Z</time></trkpt><trkpt lat="39.425046293539545" lon="8.441318704595387"><ele>173.0</ele><time>2026-05-01T08:43:51.999Z</time></trkpt><trkpt lat="39.424995525005066" lon="8.44142392435544"><ele>173.0</ele><time>2026-05-01T08:43:53.999Z</time></trkpt><trkpt lat="39.424899061661435" lon="8.441384313948062"><ele>173.0</ele><time>2026-05-01T08:43:55.999Z</time></trkpt><trkpt lat="39.42485820796267" lon="8.441250988525516"><ele>173.0</ele><time>2026-05-01T08:43:57.999Z</time></trkpt><trkpt lat="39.424824387581864" lon="8.441164128654322"><ele>173.0</ele><time>2026-05-01T08:43:58.999Z</time></trkpt><trkpt lat="39.424803550470045" lon="8.441052212577391"><ele>173.0</ele><time>2026-05-01T08:43:59.999Z</time></trkpt><trkpt lat="39.4247527903598" lon="8.440946735036828"><ele>173.0</ele><time>2026-05-01T08:44:00.999Z</time></trkpt><trkpt lat="39.42468546154823" lon="8.44084976820979"><ele>176.2</ele><time>2026-05-01T08:44:01.999Z</time></trkpt><trkpt lat="39.42463555085492" lon="8.440750816187876"><ele>179.4</ele><time>2026-05-01T08:44:02.999Z</time></trkpt><trkpt lat="39.42461952096344" lon="8.44063107575987"><ele>182.6</ele><time>2026-05-01T08:44:03.999Z</time></trkpt><trkpt lat="39.424632926279976" lon="8.44050806432348"><ele>185.79999999999998</ele><time>2026-05-01T08:44:04.999Z</time></trkpt><trkpt lat="39.42468399291427" lon="8.440407639585237"><ele>189.0</ele><time>2026-05-01T08:44:05.999Z</time></trkpt><trkpt lat="39.42476286935475" lon="8.440329321112557"><ele>189.0</ele><time>2026-05-01T08:44:06.999Z</time></trkpt><trkpt lat="39.42483497102053" lon="8.440246275918875"><ele>189.0</ele><time>2026-05-01T08:44:07.999Z</time></trkpt><trkpt lat="39.42488751611014" lon="8.440131841411382"><ele>189.0</ele><time>2026-05-01T08:44:08.999Z</time></trkpt><trkpt lat="39.4249294773905" lon="8.440035520581969"><ele>189.0</ele><time>2026-05-01T08:44:09.999Z</time></trkpt><trkpt lat="39.42499027186688" lon="8.439989125848511"><ele>189.0</ele><time>2026-05-01T08:44:10.999Z</time></trkpt><trkpt lat="39.42507498655191" lon="8.439991803482588"><ele>189.0</ele><time>2026-05-01T08:44:11.999Z</time></trkpt><trkpt lat="39.42516543025862" lon="8.440024585595122"><ele>189.0</ele><time>2026-05-01T08:44:12.999Z</time></trkpt><trkpt lat="39.42525826809194" lon="8.440055633988434"><ele>189.0</ele><time>2026-05-01T08:44:14Z</time></trkpt><trkpt lat="39.42533867210133" lon="8.440022689877011"><ele>189.0</ele><time>2026-05-01T08:44:15Z</time></trkpt><trkpt lat="39.42540861249611" lon="8.439939293454472"><ele>189.0</ele><time>2026-05-01T08:44:16Z</time></trkpt><trkpt lat="39.42546760255175" lon="8.439880288297218"><ele>189.0</ele><time>2026-05-01T08:44:17Z</time></trkpt><trkpt lat="39.42553448528581" lon="8.439921603195776"><ele>189.0</ele><time>2026-05-01T08:44:18Z</time></trkpt><trkpt lat="39.425594341496975" lon="8.43998756855696"><ele>190.0</ele><time>2026-05-01T08:44:19Z</time></trkpt><trkpt lat="39.425670252690104" lon="8.44003981346119"><ele>191.0</ele><time>2026-05-01T08:44:20Z</time></trkpt><trkpt lat="39.42575690448276" lon="8.440120980780295"><ele>192.0</ele><time>2026-05-01T08:44:21Z</time></trkpt><trkpt lat="39.4258556413674" lon="8.440200472029339"><ele>193.0</ele><time>2026-05-01T08:44:22Z</time></trkpt><trkpt lat="39.425956402877844" lon="8.44027202558436"><ele>194.0</ele><time>2026-05-01T08:44:23Z</time></trkpt><trkpt lat="39.426055180140864" lon="8.440351484193288"><ele>194.0</ele><time>2026-05-01T08:44:24Z</time></trkpt><trkpt lat="39.426150882972145" lon="8.440424027043646"><ele>194.0</ele><time>2026-05-01T08:44:25Z</time></trkpt><trkpt lat="39.42622736070695" lon="8.44047057502647"><ele>194.0</ele><time>2026-05-01T08:44:26Z</time></trkpt><trkpt lat="39.42632504273523" lon="8.440468281070952"><ele>194.0</ele><time>2026-05-01T08:44:28Z</time></trkpt><trkpt lat="39.42636374874249" lon="8.440333392917092"><ele>194.0</ele><time>2026-05-01T08:44:30Z</time></trkpt><trkpt lat="39.4262855038653" lon="8.440194539427257"><ele>194.0</ele><time>2026-05-01T08:44:32Z</time></trkpt><trkpt lat="39.426207613840134" lon="8.440132177079954"><ele>194.0</ele><time>2026-05-01T08:44:33Z</time></trkpt><trkpt lat="39.426113028646206" lon="8.440078588247005"><ele>194.0</ele><time>2026-05-01T08:44:34Z</time></trkpt><trkpt lat="39.42601644841665" lon="8.440044466250834"><ele>194.0</ele><time>2026-05-01T08:44:35Z</time></trkpt><trkpt lat="39.425930744799906" lon="8.439990176970444"><ele>194.0</ele><time>2026-05-01T08:44:36Z</time></trkpt><trkpt lat="39.42586353014217" lon="8.439939911914378"><ele>194.0</ele><time>2026-05-01T08:44:37Z</time></trkpt><trkpt lat="39.42581563991362" lon="8.43986057718092"><ele>194.0</ele><time>2026-05-01T08:44:38Z</time></trkpt><trkpt lat="39.425756269008076" lon="8.439754163636099"><ele>194.0</ele><time>2026-05-01T08:44:39Z</time></trkpt><trkpt lat="39.4257357588825" lon="8.439616501493573"><ele>194.0</ele><time>2026-05-01T08:44:40Z</time></trkpt><trkpt lat="39.425729586528284" lon="8.439475876574194"><ele>194.0</ele><time>2026-05-01T08:44:41Z</time></trkpt><trkpt lat="39.425706243376546" lon="8.439361332452505"><ele>198.33333333333334</ele><time>2026-05-01T08:44:42Z</time></trkpt><trkpt lat="39.42565403332931" lon="8.439298825604382"><ele>202.66666666666669</ele><time>2026-05-01T08:44:43Z</time></trkpt><trkpt lat="39.425583055359844" lon="8.43927030116075"><ele>207.0</ele><time>2026-05-01T08:44:44Z</time></trkpt><trkpt lat="39.425510389605826" lon="8.439246733263579"><ele>211.33333333333331</ele><time>2026-05-01T08:44:45Z</time></trkpt><trkpt lat="39.42541409356943" lon="8.4392879585716"><ele>215.66666666666666</ele><time>2026-05-01T08:44:46Z</time></trkpt><trkpt lat="39.425320566025746" lon="8.43935499534987"><ele>220.0</ele><time>2026-05-01T08:44:47Z</time></trkpt><trkpt lat="39.42522898394384" lon="8.439405011572944"><ele>220.0</ele><time>2026-05-01T08:44:48Z</time></trkpt><trkpt lat="39.425140229392746" lon="8.439431461541544"><ele>220.0</ele><time>2026-05-01T08:44:49Z</time></trkpt><trkpt lat="39.425051470861455" lon="8.439437725655065"><ele>220.0</ele><time>2026-05-01T08:44:50Z</time></trkpt><trkpt lat="39.42496998932003" lon="8.439390342337735"><ele>220.0</ele><time>2026-05-01T08:44:51Z</time></trkpt><trkpt lat="39.424879556489074" lon="8.43934567931686"><ele>220.0</ele><time>2026-05-01T08:44:52Z</time></trkpt><trkpt lat="39.42480135639048" lon="8.43929375378086"><ele>220.0</ele><time>2026-05-01T08:44:53Z</time></trkpt><trkpt lat="39.424744796231366" lon="8.439230819725797"><ele>220.0</ele><time>2026-05-01T08:44:54Z</time></trkpt><trkpt lat="39.42470957342345" lon="8.439108977044667"><ele>220.0</ele><time>2026-05-01T08:44:55Z</time></trkpt><trkpt lat="39.42465712624699" lon="8.438965252362356"><ele>220.0</ele><time>2026-05-01T08:44:56Z</time></trkpt><trkpt lat="39.42460802357554" lon="8.43881373460885"><ele>220.0</ele><time>2026-05-01T08:44:57Z</time></trkpt><trkpt lat="39.42454645544348" lon="8.438647913828765"><ele>220.6</ele><time>2026-05-01T08:44:58Z</time></trkpt><trkpt lat="39.42447608593954" lon="8.438499315648546"><ele>221.2</ele><time>2026-05-01T08:44:59Z</time></trkpt><trkpt lat="39.42442210109407" lon="8.43836604094337"><ele>221.8</ele><time>2026-05-01T08:45:00Z</time></trkpt><trkpt lat="39.42439684534119" lon="8.43825913759266"><ele>222.4</ele><time>2026-05-01T08:45:01Z</time></trkpt><trkpt lat="39.424375269697926" lon="8.43816867456653"><ele>223.0</ele><time>2026-05-01T08:45:02Z</time></trkpt><trkpt lat="39.42435299646277" lon="8.438088914437687"><ele>218.2</ele><time>2026-05-01T08:45:03Z</time></trkpt><trkpt lat="39.42435103813943" lon="8.43795652472657"><ele>213.4</ele><time>2026-05-01T08:45:05Z</time></trkpt><trkpt lat="39.42427467591967" lon="8.437928812294043"><ele>208.6</ele><time>2026-05-01T08:45:11.999Z</time></trkpt><trkpt lat="39.424348663568956" lon="8.437889048166069"><ele>203.79999999999998</ele><time>2026-05-01T08:55:13.999Z</time></trkpt><trkpt lat="39.42434381172977" lon="8.437720649736548"><ele>199.0</ele><time>2026-05-01T08:55:15.999Z</time></trkpt><trkpt lat="39.42434806842228" lon="8.437605720442287"><ele>198.99999999999997</ele><time>2026-05-01T08:55:16.999Z</time></trkpt><trkpt lat="39.42436369584265" lon="8.437496423608506"><ele>199.0</ele><time>2026-05-01T08:55:17.999Z</time></trkpt><trkpt lat="39.424388651670554" lon="8.43739795278752"><ele>199.0</ele><time>2026-05-01T08:55:18.999Z</time></trkpt><trkpt lat="39.42444744164919" lon="8.437323836744506"><ele>199.0</ele><time>2026-05-01T08:55:19.999Z</time></trkpt><trkpt lat="39.42448865766606" lon="8.437230303184934"><ele>198.99999999999997</ele><time>2026-05-01T08:55:20.999Z</time></trkpt><trkpt lat="39.424545707670724" lon="8.437147963614482"><ele>199.0</ele><time>2026-05-01T08:55:21.999Z</time></trkpt><trkpt lat="39.42461187550633" lon="8.437078927235158"><ele>199.0</ele><time>2026-05-01T08:55:22.999Z</time></trkpt><trkpt lat="39.42466974298396" lon="8.437002290177075"><ele>199.0</ele><time>2026-05-01T08:55:23.999Z</time></trkpt><trkpt lat="39.42471540481438" lon="8.436924883754742"><ele>199.0</ele><time>2026-05-01T08:55:24.999Z</time></trkpt><trkpt lat="39.42479952201231" lon="8.436858521278932"><ele>199.0</ele><time>2026-05-01T08:55:26.999Z</time></trkpt><trkpt lat="39.42479768232292" lon="8.436730644988259"><ele>199.0</ele><time>2026-05-01T08:55:28.999Z</time></trkpt><trkpt lat="39.4246997550058" lon="8.436660069756467"><ele>198.99999999999997</ele><time>2026-05-01T08:55:30.999Z</time></trkpt><trkpt lat="39.42462019268197" lon="8.436724618186116"><ele>199.0</ele><time>2026-05-01T08:55:31.999Z</time></trkpt><trkpt lat="39.4245936211292" lon="8.436831586266345"><ele>199.0</ele><time>2026-05-01T08:55:32.999Z</time></trkpt><trkpt lat="39.42455074211543" lon="8.43691787625709"><ele>199.0</ele><time>2026-05-01T08:55:33.999Z</time></trkpt><trkpt lat="39.42449701845217" lon="8.436995739813199"><ele>198.99999999999997</ele><time>2026-05-01T08:55:34.999Z</time></trkpt><trkpt lat="39.42442012064118" lon="8.437069928043815"><ele>199.0</ele><time>2026-05-01T08:55:35.999Z</time></trkpt><trkpt lat="39.42434124015906" lon="8.437158384038879"><ele>198.99999999999997</ele><time>2026-05-01T08:55:36.999Z</time></trkpt><trkpt lat="39.42427059891739" lon="8.437247106679738"><ele>199.0</ele><time>2026-05-01T08:55:37.999Z</time></trkpt><trkpt lat="39.4242237062319" lon="8.437352016105898"><ele>199.0</ele><time>2026-05-01T08:55:38.999Z</time></trkpt><trkpt lat="39.42418254171368" lon="8.437431936519436"><ele>199.0</ele><time>2026-05-01T08:55:39.999Z</time></trkpt><trkpt lat="39.42411456043114" lon="8.437548012068298"><ele>198.99999999999997</ele><time>2026-05-01T08:55:41.999Z</time></trkpt><trkpt lat="39.424052362703165" lon="8.437567517143492"><ele>199.0</ele><time>2026-05-01T08:55:43.999Z</time></trkpt><trkpt lat="39.424003033755085" lon="8.437431268905245"><ele>199.0</ele><time>2026-05-01T08:55:45.999Z</time></trkpt><trkpt lat="39.4240373344672" lon="8.437345898840825"><ele>199.0</ele><time>2026-05-01T08:55:46.999Z</time></trkpt><trkpt lat="39.42410464073309" lon="8.437270920374745"><ele>199.0</ele><time>2026-05-01T08:55:47.999Z</time></trkpt><trkpt lat="39.42418393102799" lon="8.437203090174217"><ele>199.0</ele><time>2026-05-01T08:55:48.999Z</time></trkpt><trkpt lat="39.42426249238289" lon="8.437104478063981"><ele>199.0</ele><time>2026-05-01T08:55:49.999Z</time></trkpt><trkpt lat="39.42433003904265" lon="8.436988534172054"><ele>195.2</ele><time>2026-05-01T08:55:50.999Z</time></trkpt><trkpt lat="39.424381912169416" lon="8.436877718032136"><ele>191.39999999999998</ele><time>2026-05-01T08:55:51.999Z</time></trkpt><trkpt lat="39.42442346667175" lon="8.436764714422651"><ele>187.6</ele><time>2026-05-01T08:55:52.999Z</time></trkpt><trkpt lat="39.42444983674293" lon="8.43663665958877"><ele>183.8</ele><time>2026-05-01T08:55:53.999Z</time></trkpt><trkpt lat="39.424483583467484" lon="8.436525297272468"><ele>180.0</ele><time>2026-05-01T08:55:54.999Z</time></trkpt><trkpt lat="39.42452641886942" lon="8.436444298553628"><ele>180.0</ele><time>2026-05-01T08:55:55.999Z</time></trkpt><trkpt lat="39.42459097453222" lon="8.436391775023536"><ele>180.0</ele><time>2026-05-01T08:55:56.999Z</time></trkpt><trkpt lat="39.424680693730686" lon="8.436363560479101"><ele>180.0</ele><time>2026-05-01T08:55:57.999Z</time></trkpt><trkpt lat="39.42475677383768" lon="8.43630983712085"><ele>180.0</ele><time>2026-05-01T08:55:58.999Z</time></trkpt><trkpt lat="39.424809730554436" lon="8.436264945880678"><ele>180.0</ele><time>2026-05-01T08:55:59.999Z</time></trkpt><trkpt lat="39.424824920835476" lon="8.43617168902317"><ele>180.0</ele><time>2026-05-01T08:56:00.999Z</time></trkpt><trkpt lat="39.42484647172312" lon="8.436071977023502"><ele>178.8</ele><time>2026-05-01T08:56:01.999Z</time></trkpt><trkpt lat="39.424876041510686" lon="8.435945704069638"><ele>177.6</ele><time>2026-05-01T08:56:02.999Z</time></trkpt><trkpt lat="39.424953241898436" lon="8.435864510711905"><ele>176.39999999999998</ele><time>2026-05-01T08:56:03.999Z</time></trkpt><trkpt lat="39.42503372821635" lon="8.435783189800073"><ele>175.2</ele><time>2026-05-01T08:56:04.999Z</time></trkpt><trkpt lat="39.425130408319525" lon="8.435697570806145"><ele>174.0</ele><time>2026-05-01T08:56:05.999Z</time></trkpt><trkpt lat="39.4252350374771" lon="8.435628133076058"><ele>174.0</ele><time>2026-05-01T08:56:06.999Z</time></trkpt><trkpt lat="39.42533100542578" lon="8.43555332031063"><ele>174.0</ele><time>2026-05-01T08:56:07.999Z</time></trkpt><trkpt lat="39.42543502840104" lon="8.435493511508518"><ele>174.0</ele><time>2026-05-01T08:56:08.999Z</time></trkpt><trkpt lat="39.425512721653845" lon="8.435434058700213"><ele>174.0</ele><time>2026-05-01T08:56:09.999Z</time></trkpt><trkpt lat="39.42556667975871" lon="8.435371316707348"><ele>174.0</ele><time>2026-05-01T08:56:10.999Z</time></trkpt><trkpt lat="39.425587922370646" lon="8.4352045749432"><ele>176.6</ele><time>2026-05-01T08:56:12.999Z</time></trkpt><trkpt lat="39.42554620036829" lon="8.435105982467588"><ele>179.2</ele><time>2026-05-01T08:56:13.999Z</time></trkpt><trkpt lat="39.4254799584679" lon="8.435014733387336"><ele>181.79999999999998</ele><time>2026-05-01T08:56:14.999Z</time></trkpt><trkpt lat="39.42540447601281" lon="8.434928175758344"><ele>184.39999999999998</ele><time>2026-05-01T08:56:15.999Z</time></trkpt><trkpt lat="39.42535437220963" lon="8.434850339362479"><ele>187.0</ele><time>2026-05-01T08:56:16.999Z</time></trkpt><trkpt lat="39.425368611968025" lon="8.434700701695403"><ele>187.0</ele><time>2026-05-01T08:56:18.999Z</time></trkpt><trkpt lat="39.42545439685843" lon="8.434639590289144"><ele>187.0</ele><time>2026-05-01T08:56:19.999Z</time></trkpt><trkpt lat="39.425519815343655" lon="8.434536515922169"><ele>187.0</ele><time>2026-05-01T08:56:20.999Z</time></trkpt><trkpt lat="39.425565101889134" lon="8.434460708602307"><ele>187.0</ele><time>2026-05-01T08:56:21.999Z</time></trkpt><trkpt lat="39.42556832926821" lon="8.434370614037435"><ele>187.0</ele><time>2026-05-01T08:56:22.999Z</time></trkpt><trkpt lat="39.42554635582937" lon="8.434286915129173"><ele>187.0</ele><time>2026-05-01T08:56:23.999Z</time></trkpt><trkpt lat="39.42549077325216" lon="8.434223723803639"><ele>183.39999999999998</ele><time>2026-05-01T08:56:24.999Z</time></trkpt><trkpt lat="39.42541366700085" lon="8.434157464076986"><ele>179.79999999999998</ele><time>2026-05-01T08:56:25.999Z</time></trkpt><trkpt lat="39.42532751905428" lon="8.434070682656753"><ele>176.2</ele><time>2026-05-01T08:56:26.999Z</time></trkpt><trkpt lat="39.42523756170979" lon="8.433968603047267"><ele>172.6</ele><time>2026-05-01T08:56:27.999Z</time></trkpt><trkpt lat="39.42516434329834" lon="8.433868456198136"><ele>169.0</ele><time>2026-05-01T08:56:28.999Z</time></trkpt><trkpt lat="39.42509656119729" lon="8.433779944216916"><ele>169.0</ele><time>2026-05-01T08:56:29.999Z</time></trkpt><trkpt lat="39.42504235606269" lon="8.43371426603982"><ele>169.0</ele><time>2026-05-01T08:56:30.999Z</time></trkpt><trkpt lat="39.424981283930414" lon="8.433673552623855"><ele>169.0</ele><time>2026-05-01T08:56:31.999Z</time></trkpt><trkpt lat="39.424905495460926" lon="8.433652241696393"><ele>169.0</ele><time>2026-05-01T08:56:32.999Z</time></trkpt><trkpt lat="39.42480862426133" lon="8.433650966402237"><ele>169.0</ele><time>2026-05-01T08:56:33.999Z</time></trkpt><trkpt lat="39.424716153509" lon="8.433676354958818"><ele>169.0</ele><time>2026-05-01T08:56:34.999Z</time></trkpt><trkpt lat="39.424638273212985" lon="8.433691400771103"><ele>164.39999999999998</ele><time>2026-05-01T08:56:35.999Z</time></trkpt><trkpt lat="39.42456052255777" lon="8.433661146522093"><ele>159.79999999999998</ele><time>2026-05-01T08:56:36.999Z</time></trkpt><trkpt lat="39.42448519939285" lon="8.43360013219676"><ele>155.2</ele><time>2026-05-01T08:56:37.999Z</time></trkpt><trkpt lat="39.42440663132799" lon="8.4335185907476"><ele>150.6</ele><time>2026-05-01T08:56:38.999Z</time></trkpt><trkpt lat="39.42432621042093" lon="8.433429629852391"><ele>146.0</ele><time>2026-05-01T08:56:39.999Z</time></trkpt><trkpt lat="39.42425847612736" lon="8.433328377832009"><ele>146.0</ele><time>2026-05-01T08:56:40.999Z</time></trkpt><trkpt lat="39.42420724861307" lon="8.433221703745748"><ele>146.0</ele><time>2026-05-01T08:56:41.999Z</time></trkpt><trkpt lat="39.42415073312677" lon="8.433138925841021"><ele>146.0</ele><time>2026-05-01T08:56:42.999Z</time></trkpt><trkpt lat="39.424087875677884" lon="8.433095355049277"><ele>146.0</ele><time>2026-05-01T08:56:43.999Z</time></trkpt><trkpt lat="39.42402012635232" lon="8.433077777057186"><ele>146.0</ele><time>2026-05-01T08:56:44.999Z</time></trkpt><trkpt lat="39.42395821519381" lon="8.43304431324693"><ele>146.0</ele><time>2026-05-01T08:56:45.999Z</time></trkpt><trkpt lat="39.42393147054494" lon="8.43289496044615"><ele>145.33333333333331</ele><time>2026-05-01T08:56:47.999Z</time></trkpt><trkpt lat="39.42397903499683" lon="8.432818611724183"><ele>144.66666666666666</ele><time>2026-05-01T08:56:49Z</time></trkpt><trkpt lat="39.424054697497255" lon="8.432788181615171"><ele>144.0</ele><time>2026-05-01T08:56:50Z</time></trkpt><trkpt lat="39.42411868246508" lon="8.432839814102978"><ele>143.33333333333334</ele><time>2026-05-01T08:56:51Z</time></trkpt><trkpt lat="39.42418693153869" lon="8.43285659090219"><ele>142.66666666666669</ele><time>2026-05-01T08:56:52Z</time></trkpt><trkpt lat="39.424266043960266" lon="8.43292235264428"><ele>142.0</ele><time>2026-05-01T08:56:53Z</time></trkpt><trkpt lat="39.424340031058705" lon="8.432955755576858"><ele>142.0</ele><time>2026-05-01T08:56:54Z</time></trkpt><trkpt lat="39.424417737136565" lon="8.43291761673601"><ele>142.0</ele><time>2026-05-01T08:56:56Z</time></trkpt><trkpt lat="39.42445433044387" lon="8.432839480715293"><ele>142.0</ele><time>2026-05-01T08:56:57Z</time></trkpt><trkpt lat="39.424468652488265" lon="8.43273627144107"><ele>142.0</ele><time>2026-05-01T08:56:58Z</time></trkpt><trkpt lat="39.42446111785208" lon="8.432617151080336"><ele>142.0</ele><time>2026-05-01T08:56:59Z</time></trkpt><trkpt lat="39.42443060743782" lon="8.432492819959295"><ele>142.0</ele><time>2026-05-01T08:57:00Z</time></trkpt><trkpt lat="39.424387839430324" lon="8.432351354238264"><ele>142.0</ele><time>2026-05-01T08:57:01Z</time></trkpt><trkpt lat="39.42434198083691" lon="8.432179694529868"><ele>142.0</ele><time>2026-05-01T08:57:02Z</time></trkpt><trkpt lat="39.424312536631945" lon="8.432020374694297"><ele>142.0</ele><time>2026-05-01T08:57:03Z</time></trkpt><trkpt lat="39.424290420990026" lon="8.431884752646573"><ele>142.0</ele><time>2026-05-01T08:57:04Z</time></trkpt><trkpt lat="39.424273367351994" lon="8.431775199163283"><ele>140.0</ele><time>2026-05-01T08:57:05Z</time></trkpt><trkpt lat="39.42428362271451" lon="8.431688044806883"><ele>138.0</ele><time>2026-05-01T08:57:06Z</time></trkpt><trkpt lat="39.42432448121263" lon="8.431619837148528"><ele>136.0</ele><time>2026-05-01T08:57:07Z</time></trkpt><trkpt lat="39.42438745239328" lon="8.431579966991455"><ele>134.0</ele><time>2026-05-01T08:57:08Z</time></trkpt><trkpt lat="39.424470801534916" lon="8.431560491550194"><ele>132.0</ele><time>2026-05-01T08:57:09Z</time></trkpt><trkpt lat="39.42454042660148" lon="8.431540637410015"><ele>130.0</ele><time>2026-05-01T08:57:10Z</time></trkpt><trkpt lat="39.42458594207538" lon="8.431482029534868"><ele>128.0</ele><time>2026-05-01T08:57:11Z</time></trkpt><trkpt lat="39.42457760999901" lon="8.431319255309266"><ele>126.0</ele><time>2026-05-01T08:57:13Z</time></trkpt><trkpt lat="39.42452852617681" lon="8.431222676219692"><ele>124.0</ele><time>2026-05-01T08:57:14Z</time></trkpt><trkpt lat="39.42446671307253" lon="8.431098264642875"><ele>122.0</ele><time>2026-05-01T08:57:15Z</time></trkpt><trkpt lat="39.424375941389" lon="8.430957180580247"><ele>120.0</ele><time>2026-05-01T08:57:16Z</time></trkpt><trkpt lat="39.424296880245706" lon="8.430836230883848"><ele>120.0</ele><time>2026-05-01T08:57:17Z</time></trkpt><trkpt lat="39.42424390937371" lon="8.430743055880813"><ele>120.0</ele><time>2026-05-01T08:57:18Z</time></trkpt><trkpt lat="39.424255423666665" lon="8.430603328459215"><ele>120.0</ele><time>2026-05-01T08:57:20Z</time></trkpt><trkpt lat="39.42437774241926" lon="8.43051478349906"><ele>120.0</ele><time>2026-05-01T08:57:22Z</time></trkpt><trkpt lat="39.424432061449416" lon="8.43044096531654"><ele>120.0</ele><time>2026-05-01T08:57:23Z</time></trkpt><trkpt lat="39.424483156389556" lon="8.430391942489681"><ele>118.2</ele><time>2026-05-01T08:57:24Z</time></trkpt><trkpt lat="39.424510424478406" lon="8.43031838809295"><ele>116.4</ele><time>2026-05-01T08:57:25Z</time></trkpt><trkpt lat="39.424519890850526" lon="8.430214897650634"><ele>114.6</ele><time>2026-05-01T08:57:26Z</time></trkpt><trkpt lat="39.42449668444002" lon="8.430097513481568"><ele>112.8</ele><time>2026-05-01T08:57:27Z</time></trkpt><trkpt lat="39.42443675601271" lon="8.429979812706906"><ele>111.0</ele><time>2026-05-01T08:57:28Z</time></trkpt><trkpt lat="39.42435405409431" lon="8.42988400129607"><ele>111.0</ele><time>2026-05-01T08:57:29Z</time></trkpt><trkpt lat="39.42429298113492" lon="8.429791004775113"><ele>111.0</ele><time>2026-05-01T08:57:30Z</time></trkpt><trkpt lat="39.424269372964375" lon="8.429686229201515"><ele>111.0</ele><time>2026-05-01T08:57:31Z</time></trkpt><trkpt lat="39.42428035500448" lon="8.42957451903116"><ele>111.0</ele><time>2026-05-01T08:57:32Z</time></trkpt><trkpt lat="39.42429764395715" lon="8.429482236925931"><ele>111.0</ele><time>2026-05-01T08:57:33Z</time></trkpt><trkpt lat="39.42425387336589" lon="8.429381149145291"><ele>111.0</ele><time>2026-05-01T08:57:35Z</time></trkpt><trkpt lat="39.42414542917583" lon="8.429408454541631"><ele>111.0</ele><time>2026-05-01T08:57:37Z</time></trkpt><trkpt lat="39.424113278969685" lon="8.42949621527198"><ele>111.0</ele><time>2026-05-01T08:57:38Z</time></trkpt><trkpt lat="39.42411563153077" lon="8.429613101682092"><ele>111.0</ele><time>2026-05-01T08:57:39Z</time></trkpt><trkpt lat="39.42415023904062" lon="8.429736130651637"><ele>111.0</ele><time>2026-05-01T08:57:40Z</time></trkpt><trkpt lat="39.42419842823275" lon="8.429865307149983"><ele>111.0</ele><time>2026-05-01T08:57:41Z</time></trkpt><trkpt lat="39.42423489194659" lon="8.42999762730293"><ele>111.0</ele><time>2026-05-01T08:57:42Z</time></trkpt><trkpt lat="39.42426748184082" lon="8.43008318182819"><ele>111.0</ele><time>2026-05-01T08:57:43Z</time></trkpt><trkpt lat="39.42424994635575" lon="8.43017174262759"><ele>111.0</ele><time>2026-05-01T08:57:44Z</time></trkpt><trkpt lat="39.42418276528856" lon="8.430259015522559"><ele>111.0</ele><time>2026-05-01T08:57:46Z</time></trkpt><trkpt lat="39.42411744790899" lon="8.430274364791766"><ele>111.0</ele><time>2026-05-01T08:57:47Z</time></trkpt><trkpt lat="39.42403057697498" lon="8.43027692730143"><ele>111.0</ele><time>2026-05-01T08:57:48Z</time></trkpt><trkpt lat="39.42394436625151" lon="8.430322405348047"><ele>111.0</ele><time>2026-05-01T08:57:49Z</time></trkpt><trkpt lat="39.42386586618169" lon="8.4303310883392"><ele>111.0</ele><time>2026-05-01T08:57:50Z</time></trkpt><trkpt lat="39.423812436934206" lon="8.43038519410208"><ele>111.0</ele><time>2026-05-01T08:57:51Z</time></trkpt><trkpt lat="39.42378533240745" lon="8.43046644582006"><ele>111.0</ele><time>2026-05-01T08:57:52Z</time></trkpt><trkpt lat="39.4237674726614" lon="8.43058015400996"><ele>111.0</ele><time>2026-05-01T08:57:53Z</time></trkpt><trkpt lat="39.423817754923824" lon="8.43070822953347"><ele>111.0</ele><time>2026-05-01T08:57:54Z</time></trkpt><trkpt lat="39.423882340708964" lon="8.430821183330998"><ele>112.8</ele><time>2026-05-01T08:57:55Z</time></trkpt><trkpt lat="39.423939399206894" lon="8.430902977208426"><ele>114.6</ele><time>2026-05-01T08:57:56Z</time></trkpt><trkpt lat="39.42392765060611" lon="8.431019213415665"><ele>116.4</ele><time>2026-05-01T08:57:58Z</time></trkpt><trkpt lat="39.42384871622794" lon="8.431082044574472"><ele>118.2</ele><time>2026-05-01T08:58:00Z</time></trkpt><trkpt lat="39.42373791669151" lon="8.431092712936442"><ele>120.0</ele><time>2026-05-01T08:58:02Z</time></trkpt><trkpt lat="39.4236697318597" lon="8.431122105054893"><ele>117.2</ele><time>2026-05-01T08:58:03Z</time></trkpt><trkpt lat="39.423590006412276" lon="8.431219336302998"><ele>114.4</ele><time>2026-05-01T08:58:05Z</time></trkpt><trkpt lat="39.423589546915395" lon="8.431329124022495"><ele>111.6</ele><time>2026-05-01T08:58:06Z</time></trkpt><trkpt lat="39.423571437234635" lon="8.431413299181406"><ele>108.8</ele><time>2026-05-01T08:58:07Z</time></trkpt><trkpt lat="39.4234530988414" lon="8.431458899522099"><ele>106.0</ele><time>2026-05-01T08:58:09Z</time></trkpt><trkpt lat="39.42336255391549" lon="8.431445054931569"><ele>106.0</ele><time>2026-05-01T08:58:10Z</time></trkpt><trkpt lat="39.42325723975933" lon="8.431450735876112"><ele>106.0</ele><time>2026-05-01T08:58:11Z</time></trkpt><trkpt lat="39.423166407395485" lon="8.43150099489859"><ele>106.0</ele><time>2026-05-01T08:58:12Z</time></trkpt><trkpt lat="39.42309511532807" lon="8.431568390116652"><ele>106.0</ele><time>2026-05-01T08:58:13Z</time></trkpt><trkpt lat="39.423025814415645" lon="8.431620573576946"><ele>106.0</ele><time>2026-05-01T08:58:14Z</time></trkpt><trkpt lat="39.422946657186166" lon="8.431642244240997"><ele>105.19999999999999</ele><time>2026-05-01T08:58:15Z</time></trkpt><trkpt lat="39.422849367853566" lon="8.431639928460223"><ele>104.39999999999999</ele><time>2026-05-01T08:58:16Z</time></trkpt><trkpt lat="39.42275987245514" lon="8.431626356983866"><ele>103.6</ele><time>2026-05-01T08:58:17Z</time></trkpt><trkpt lat="39.42269415521929" lon="8.4315972277308"><ele>102.8</ele><time>2026-05-01T08:58:18Z</time></trkpt><trkpt lat="39.42261169909174" lon="8.43146195644632"><ele>102.0</ele><time>2026-05-01T08:58:20Z</time></trkpt><trkpt lat="39.42256931896941" lon="8.431356363063292"><ele>100.33333333333333</ele><time>2026-05-01T08:58:21Z</time></trkpt><trkpt lat="39.42250268265486" lon="8.431292941603182"><ele>98.66666666666667</ele><time>2026-05-01T08:58:22Z</time></trkpt><trkpt lat="39.42241001326135" lon="8.431271548190217"><ele>97.0</ele><time>2026-05-01T08:58:23Z</time></trkpt><trkpt lat="39.42231849698305" lon="8.431291289760894"><ele>95.33333333333334</ele><time>2026-05-01T08:58:24Z</time></trkpt><trkpt lat="39.422241393325706" lon="8.431305420778969"><ele>93.66666666666667</ele><time>2026-05-01T08:58:25Z</time></trkpt><trkpt lat="39.422168625497434" lon="8.43128122630549"><ele>92.0</ele><time>2026-05-01T08:58:26Z</time></trkpt><trkpt lat="39.42209840241358" lon="8.431223780421043"><ele>92.0</ele><time>2026-05-01T08:58:27Z</time></trkpt><trkpt lat="39.42205065859063" lon="8.431155520101992"><ele>92.0</ele><time>2026-05-01T08:58:28Z</time></trkpt><trkpt lat="39.422028227119654" lon="8.431011013254885"><ele>92.0</ele><time>2026-05-01T08:58:30Z</time></trkpt><trkpt lat="39.42205549937507" lon="8.430922874747617"><ele>92.0</ele><time>2026-05-01T08:58:31Z</time></trkpt><trkpt lat="39.4221173647451" lon="8.430817465671684"><ele>92.0</ele><time>2026-05-01T08:58:32Z</time></trkpt><trkpt lat="39.422207126342215" lon="8.430699707868907"><ele>92.0</ele><time>2026-05-01T08:58:33Z</time></trkpt><trkpt lat="39.42230599139571" lon="8.430589402628677"><ele>92.0</ele><time>2026-05-01T08:58:34Z</time></trkpt><trkpt lat="39.422407711869354" lon="8.430499785086091"><ele>92.0</ele><time>2026-05-01T08:58:35Z</time></trkpt><trkpt lat="39.42250727966884" lon="8.43044011137037"><ele>92.0</ele><time>2026-05-01T08:58:36Z</time></trkpt><trkpt lat="39.42261541188247" lon="8.430440298961617"><ele>93.19999999999999</ele><time>2026-05-01T08:58:37Z</time></trkpt><trkpt lat="39.42270295734886" lon="8.430409074755648"><ele>94.4</ele><time>2026-05-01T08:58:38Z</time></trkpt><trkpt lat="39.42275493164715" lon="8.430360137334867"><ele>95.6</ele><time>2026-05-01T08:58:39Z</time></trkpt><trkpt lat="39.42277140326505" lon="8.430252949063963"><ele>96.80000000000001</ele><time>2026-05-01T08:58:40Z</time></trkpt><trkpt lat="39.42277221016216" lon="8.430103812776725"><ele>98.0</ele><time>2026-05-01T08:58:41Z</time></trkpt><trkpt lat="39.422774567683796" lon="8.429946571588738"><ele>98.0</ele><time>2026-05-01T08:58:42Z</time></trkpt><trkpt lat="39.42277476963525" lon="8.429796344247492"><ele>98.0</ele><time>2026-05-01T08:58:43Z</time></trkpt><trkpt lat="39.42278800780471" lon="8.429676628102845"><ele>98.0</ele><time>2026-05-01T08:58:44Z</time></trkpt><trkpt lat="39.42283967913853" lon="8.429589183917761"><ele>98.0</ele><time>2026-05-01T08:58:45Z</time></trkpt><trkpt lat="39.42292243179203" lon="8.429527238017968"><ele>98.0</ele><time>2026-05-01T08:58:46Z</time></trkpt><trkpt lat="39.42298139507184" lon="8.42943687437438"><ele>99.4</ele><time>2026-05-01T08:58:47Z</time></trkpt><trkpt lat="39.422988927524734" lon="8.429315980661428"><ele>100.80000000000001</ele><time>2026-05-01T08:58:48Z</time></trkpt><trkpt lat="39.422966684330525" lon="8.429173613726075"><ele>102.2</ele><time>2026-05-01T08:58:49Z</time></trkpt><trkpt lat="39.42294379446039" lon="8.429046180261459"><ele>103.6</ele><time>2026-05-01T08:58:50Z</time></trkpt><trkpt lat="39.42295288865306" lon="8.428936334876708"><ele>105.0</ele><time>2026-05-01T08:58:51Z</time></trkpt><trkpt lat="39.42299583502745" lon="8.42883767005418"><ele>98.0</ele><time>2026-05-01T08:58:52Z</time></trkpt><trkpt lat="39.42307485570361" lon="8.428748124035275"><ele>91.0</ele><time>2026-05-01T08:58:53Z</time></trkpt><trkpt lat="39.42316606418236" lon="8.428647140976912"><ele>84.0</ele><time>2026-05-01T08:58:54Z</time></trkpt><trkpt lat="39.42325459187517" lon="8.428538604759007"><ele>77.0</ele><time>2026-05-01T08:58:55.001Z</time></trkpt><trkpt lat="39.42333270855888" lon="8.428437867552118"><ele>77.0</ele><time>2026-05-01T08:58:56.001Z</time></trkpt><trkpt lat="39.423390960548836" lon="8.428309404515803"><ele>77.0</ele><time>2026-05-01T08:58:57.001Z</time></trkpt><trkpt lat="39.42343556088834" lon="8.428153017396882"><ele>77.0</ele><time>2026-05-01T08:58:58.001Z</time></trkpt><trkpt lat="39.42349983576811" lon="8.4280223106457"><ele>77.0</ele><time>2026-05-01T08:58:59.001Z</time></trkpt><trkpt lat="39.423577596629414" lon="8.42791439644595"><ele>77.2</ele><time>2026-05-01T08:59:00.001Z</time></trkpt><trkpt lat="39.42365743296843" lon="8.427818159682008"><ele>77.4</ele><time>2026-05-01T08:59:01.001Z</time></trkpt><trkpt lat="39.42371231034298" lon="8.427715594356421"><ele>77.6</ele><time>2026-05-01T08:59:02.001Z</time></trkpt><trkpt lat="39.42372783306285" lon="8.427587650197566"><ele>77.8</ele><time>2026-05-01T08:59:03.001Z</time></trkpt><trkpt lat="39.423716497819775" lon="8.427432598018678"><ele>78.0</ele><time>2026-05-01T08:59:04.001Z</time></trkpt><trkpt lat="39.423728026036216" lon="8.427265943214541"><ele>76.66666666666667</ele><time>2026-05-01T08:59:05.001Z</time></trkpt><trkpt lat="39.42371735136091" lon="8.427083180954645"><ele>75.33333333333334</ele><time>2026-05-01T08:59:06.001Z</time></trkpt><trkpt lat="39.42371445106616" lon="8.426883913434725"><ele>74.0</ele><time>2026-05-01T08:59:07.001Z</time></trkpt><trkpt lat="39.42369301810035" lon="8.426669948247438"><ele>74.0</ele><time>2026-05-01T08:59:08.001Z</time></trkpt><trkpt lat="39.42366772232135" lon="8.426454587943178"><ele>74.0</ele><time>2026-05-01T08:59:09.001Z</time></trkpt><trkpt lat="39.4236601722838" lon="8.426217999383045"><ele>74.0</ele><time>2026-05-01T08:59:10.001Z</time></trkpt><trkpt lat="39.42363620393885" lon="8.425978709300491"><ele>72.0</ele><time>2026-05-01T08:59:11.001Z</time></trkpt><trkpt lat="39.423611721081635" lon="8.425754136672452"><ele>70.0</ele><time>2026-05-01T08:59:12.001Z</time></trkpt><trkpt lat="39.42357418598886" lon="8.425550339353926"><ele>68.0</ele><time>2026-05-01T08:59:13.001Z</time></trkpt><trkpt lat="39.42355804551944" lon="8.425351353659769"><ele>67.0</ele><time>2026-05-01T08:59:14.001Z</time></trkpt><trkpt lat="39.42354313994851" lon="8.425166493504953"><ele>66.0</ele><time>2026-05-01T08:59:15.001Z</time></trkpt><trkpt lat="39.42353703979277" lon="8.424997830033572"><ele>65.0</ele><time>2026-05-01T08:59:16.001Z</time></trkpt><trkpt lat="39.423579693094524" lon="8.424839251251214"><ele>64.0</ele><time>2026-05-01T08:59:17.001Z</time></trkpt><trkpt lat="39.423617046966164" lon="8.424660675493607"><ele>64.5</ele><time>2026-05-01T08:59:18.001Z</time></trkpt><trkpt lat="39.423678857595995" lon="8.424481188690484"><ele>65.0</ele><time>2026-05-01T08:59:19.001Z</time></trkpt><trkpt lat="39.423746497793644" lon="8.424314414488201"><ele>65.5</ele><time>2026-05-01T08:59:20.001Z</time></trkpt><trkpt lat="39.4238098136513" lon="8.424175302883722"><ele>66.0</ele><time>2026-05-01T08:59:21.001Z</time></trkpt><trkpt lat="39.42385103989493" lon="8.424065588890981"><ele>66.5</ele><time>2026-05-01T08:59:22.001Z</time></trkpt><trkpt lat="39.42385853984513" lon="8.423961496565198"><ele>67.0</ele><time>2026-05-01T08:59:23.001Z</time></trkpt><trkpt lat="39.42381982276258" lon="8.4238279076574"><ele>67.5</ele><time>2026-05-01T08:59:24.001Z</time></trkpt><trkpt lat="39.423745305052954" lon="8.4236605873759"><ele>68.0</ele><time>2026-05-01T08:59:25.001Z</time></trkpt><trkpt lat="39.42367373339663" lon="8.423478534250465"><ele>66.0</ele><time>2026-05-01T08:59:26.001Z</time></trkpt><trkpt lat="39.42360849388064" lon="8.423286610293424"><ele>64.0</ele><time>2026-05-01T08:59:27.001Z</time></trkpt><trkpt lat="39.423541069072115" lon="8.423086779504574"><ele>62.0</ele><time>2026-05-01T08:59:28.001Z</time></trkpt><trkpt lat="39.42347603372653" lon="8.422879413569335"><ele>59.0</ele><time>2026-05-01T08:59:29.001Z</time></trkpt><trkpt lat="39.42341222829962" lon="8.422679873897458"><ele>56.0</ele><time>2026-05-01T08:59:30.001Z</time></trkpt><trkpt lat="39.42334794678582" lon="8.422493127440253"><ele>53.0</ele><time>2026-05-01T08:59:31.001Z</time></trkpt><trkpt lat="39.42329168582096" lon="8.422299592699668"><ele>51.66666666666667</ele><time>2026-05-01T08:59:32.001Z</time></trkpt><trkpt lat="39.42323903805664" lon="8.42209552325518"><ele>50.33333333333333</ele><time>2026-05-01T08:59:33.001Z</time></trkpt><trkpt lat="39.42318357585971" lon="8.421881089878024"><ele>49.0</ele><time>2026-05-01T08:59:34.001Z</time></trkpt><trkpt lat="39.42313640967972" lon="8.421658814335675"><ele>49.0</ele><time>2026-05-01T08:59:35.001Z</time></trkpt><trkpt lat="39.42309116237858" lon="8.421431202291549"><ele>49.0</ele><time>2026-05-01T08:59:36.001Z</time></trkpt><trkpt lat="39.423038369843766" lon="8.42120286927989"><ele>49.0</ele><time>2026-05-01T08:59:37.001Z</time></trkpt><trkpt lat="39.42297534773979" lon="8.420989920658826"><ele>48.33333333333333</ele><time>2026-05-01T08:59:38.001Z</time></trkpt><trkpt lat="39.42289948545111" lon="8.420800475827804"><ele>47.666666666666664</ele><time>2026-05-01T08:59:39.001Z</time></trkpt><trkpt lat="39.42280576115904" lon="8.42061000681841"><ele>47.0</ele><time>2026-05-01T08:59:40.001Z</time></trkpt><trkpt lat="39.42270338009331" lon="8.420403872610107"><ele>45.0</ele><time>2026-05-01T08:59:41.001Z</time></trkpt><trkpt lat="39.42262591898288" lon="8.420179771628804"><ele>43.0</ele><time>2026-05-01T08:59:42.001Z</time></trkpt><trkpt lat="39.42252116076776" lon="8.419983956432459"><ele>41.0</ele><time>2026-05-01T08:59:43.001Z</time></trkpt><trkpt lat="39.42244751771996" lon="8.41978694153983"><ele>40.33333333333333</ele><time>2026-05-01T08:59:44.001Z</time></trkpt><trkpt lat="39.422358895249744" lon="8.41959956509152"><ele>39.666666666666664</ele><time>2026-05-01T08:59:45.001Z</time></trkpt><trkpt lat="39.42226372082871" lon="8.419414005060577"><ele>39.0</ele><time>2026-05-01T08:59:46.001Z</time></trkpt><trkpt lat="39.4221819109224" lon="8.419228885580408"><ele>38.25</ele><time>2026-05-01T08:59:47.001Z</time></trkpt><trkpt lat="39.42210413250045" lon="8.41906790654423"><ele>37.5</ele><time>2026-05-01T08:59:48.001Z</time></trkpt><trkpt lat="39.422034400427" lon="8.418923317555002"><ele>36.75</ele><time>2026-05-01T08:59:49.001Z</time></trkpt><trkpt lat="39.42196070344047" lon="8.41882560287464"><ele>36.0</ele><time>2026-05-01T08:59:50.001Z</time></trkpt><trkpt lat="39.42188589603723" lon="8.418724213494299"><ele>35.0</ele><time>2026-05-01T08:59:51.001Z</time></trkpt><trkpt lat="39.42177479380721" lon="8.41862942646526"><ele>34.0</ele><time>2026-05-01T08:59:52.001Z</time></trkpt><trkpt lat="39.42166590795478" lon="8.418552710239684"><ele>33.0</ele><time>2026-05-01T08:59:53.001Z</time></trkpt><trkpt lat="39.421542000034634" lon="8.418468397210528"><ele>32.0</ele><time>2026-05-01T08:59:54.001Z</time></trkpt><trkpt lat="39.42140833349558" lon="8.418377112733078"><ele>33.33333333333333</ele><time>2026-05-01T08:59:55.001Z</time></trkpt><trkpt lat="39.42127217995869" lon="8.418286584516686"><ele>34.666666666666664</ele><time>2026-05-01T08:59:56.001Z</time></trkpt><trkpt lat="39.421132573874004" lon="8.41819662812332"><ele>36.0</ele><time>2026-05-01T08:59:57Z</time></trkpt><trkpt lat="39.42099639215686" lon="8.418125838852454"><ele>36.0</ele><time>2026-05-01T08:59:58Z</time></trkpt><trkpt lat="39.42088994577762" lon="8.418020881850465"><ele>36.0</ele><time>2026-05-01T08:59:59Z</time></trkpt><trkpt lat="39.420782279112785" lon="8.417933941336724"><ele>36.0</ele><time>2026-05-01T09:00:00Z</time></trkpt><trkpt lat="39.42069546700756" lon="8.417793520010042"><ele>36.0</ele><time>2026-05-01T09:00:01Z</time></trkpt><trkpt lat="39.4206204409827" lon="8.417632958427262"><ele>35.666666666666664</ele><time>2026-05-01T09:00:02Z</time></trkpt><trkpt lat="39.420556182943606" lon="8.417453963711083"><ele>35.33333333333333</ele><time>2026-05-01T09:00:03Z</time></trkpt><trkpt lat="39.42048243996361" lon="8.417265213247894"><ele>35.0</ele><time>2026-05-01T09:00:04Z</time></trkpt><trkpt lat="39.42040251932059" lon="8.417074444424578"><ele>35.0</ele><time>2026-05-01T09:00:05Z</time></trkpt><trkpt lat="39.42032628887222" lon="8.41688325712056"><ele>35.0</ele><time>2026-05-01T09:00:06Z</time></trkpt><trkpt lat="39.42025275861266" lon="8.416699280620255"><ele>35.0</ele><time>2026-05-01T09:00:07Z</time></trkpt><trkpt lat="39.420190355194116" lon="8.416532672804061"><ele>35.0</ele><time>2026-05-01T09:00:08Z</time></trkpt><trkpt lat="39.42013075550163" lon="8.416388547819345"><ele>35.0</ele><time>2026-05-01T09:00:09Z</time></trkpt><trkpt lat="39.420044535620505" lon="8.41628127356878"><ele>35.0</ele><time>2026-05-01T09:00:10Z</time></trkpt><trkpt lat="39.41992863344762" lon="8.41621678254884"><ele>35.0</ele><time>2026-05-01T09:00:11Z</time></trkpt><trkpt lat="39.41979221540622" lon="8.416196273413735"><ele>33.75</ele><time>2026-05-01T09:00:12Z</time></trkpt><trkpt lat="39.419642774398596" lon="8.416175794170517"><ele>32.5</ele><time>2026-05-01T09:00:13Z</time></trkpt><trkpt lat="39.41950134591152" lon="8.416147304098079"><ele>31.25</ele><time>2026-05-01T09:00:14Z</time></trkpt><trkpt lat="39.41937724438798" lon="8.416109295519679"><ele>30.0</ele><time>2026-05-01T09:00:15Z</time></trkpt><trkpt lat="39.41928090294643" lon="8.416053247400045"><ele>30.0</ele><time>2026-05-01T09:00:16Z</time></trkpt><trkpt lat="39.41922040839398" lon="8.415970409209582"><ele>30.0</ele><time>2026-05-01T09:00:17Z</time></trkpt><trkpt lat="39.41918171207347" lon="8.415855507185197"><ele>30.0</ele><time>2026-05-01T09:00:18Z</time></trkpt><trkpt lat="39.41913170673793" lon="8.415722256062468"><ele>30.0</ele><time>2026-05-01T09:00:19Z</time></trkpt><trkpt lat="39.419107302692936" lon="8.415581016652748"><ele>30.0</ele><time>2026-05-01T09:00:20Z</time></trkpt><trkpt lat="39.41911457087615" lon="8.415442999891885"><ele>28.0</ele><time>2026-05-01T09:00:21Z</time></trkpt><trkpt lat="39.419105861212486" lon="8.415290720320966"><ele>26.0</ele><time>2026-05-01T09:00:22Z</time></trkpt><trkpt lat="39.41911637525564" lon="8.415125825817372"><ele>24.0</ele><time>2026-05-01T09:00:23Z</time></trkpt><trkpt lat="39.41912162443263" lon="8.41496244121989"><ele>22.0</ele><time>2026-05-01T09:00:24Z</time></trkpt><trkpt lat="39.41911829138578" lon="8.414809445609798"><ele>22.0</ele><time>2026-05-01T09:00:25Z</time></trkpt><trkpt lat="39.41909662014457" lon="8.414666963803013"><ele>22.0</ele><time>2026-05-01T09:00:26Z</time></trkpt><trkpt lat="39.419034363520296" lon="8.414565207526397"><ele>22.0</ele><time>2026-05-01T09:00:27Z</time></trkpt><trkpt lat="39.4189338708412" lon="8.41451457768048"><ele>22.0</ele><time>2026-05-01T09:00:28Z</time></trkpt><trkpt lat="39.41880989428144" lon="8.41450325816296"><ele>22.0</ele><time>2026-05-01T09:00:29Z</time></trkpt><trkpt lat="39.41870372278721" lon="8.414452029984009"><ele>23.5</ele><time>2026-05-01T09:00:30Z</time></trkpt><trkpt lat="39.41862305992153" lon="8.414354466365268"><ele>25.0</ele><time>2026-05-01T09:00:31Z</time></trkpt><trkpt lat="39.41853766545367" lon="8.414214698817611"><ele>26.5</ele><time>2026-05-01T09:00:32Z</time></trkpt><trkpt lat="39.418438866269184" lon="8.41407682645184"><ele>28.0</ele><time>2026-05-01T09:00:33Z</time></trkpt><trkpt lat="39.41835252282797" lon="8.413927299311707"><ele>25.75</ele><time>2026-05-01T09:00:34Z</time></trkpt><trkpt lat="39.418274338464734" lon="8.41378141689152"><ele>23.5</ele><time>2026-05-01T09:00:35Z</time></trkpt><trkpt lat="39.41820465383312" lon="8.41364853877583"><ele>21.25</ele><time>2026-05-01T09:00:36Z</time></trkpt><trkpt lat="39.41813460488378" lon="8.413533173469524"><ele>19.0</ele><time>2026-05-01T09:00:37Z</time></trkpt><trkpt lat="39.41803876569886" lon="8.41344491566227"><ele>22.5</ele><time>2026-05-01T09:00:38Z</time></trkpt><trkpt lat="39.41791698574427" lon="8.413394248510068"><ele>26.0</ele><time>2026-05-01T09:00:39Z</time></trkpt><trkpt lat="39.41778933199892" lon="8.413331161542686"><ele>29.5</ele><time>2026-05-01T09:00:40Z</time></trkpt><trkpt lat="39.417671103393545" lon="8.413279420077387"><ele>33.0</ele><time>2026-05-01T09:00:41Z</time></trkpt><trkpt lat="39.41755462038629" lon="8.41324471592192"><ele>33.0</ele><time>2026-05-01T09:00:42Z</time></trkpt><trkpt lat="39.41745622968868" lon="8.413158977013557"><ele>33.0</ele><time>2026-05-01T09:00:43Z</time></trkpt><trkpt lat="39.417376323602774" lon="8.413030565532116"><ele>33.0</ele><time>2026-05-01T09:00:44Z</time></trkpt><trkpt lat="39.417279978054395" lon="8.41292137343269"><ele>33.0</ele><time>2026-05-01T09:00:45Z</time></trkpt><trkpt lat="39.41720985350146" lon="8.412790806124907"><ele>32.4</ele><time>2026-05-01T09:00:46Z</time></trkpt><trkpt lat="39.41717742882863" lon="8.412655924764136"><ele>31.799999999999997</ele><time>2026-05-01T09:00:47Z</time></trkpt><trkpt lat="39.41715097327593" lon="8.41253620047982"><ele>31.2</ele><time>2026-05-01T09:00:48Z</time></trkpt><trkpt lat="39.417154569128165" lon="8.412412968113594"><ele>30.6</ele><time>2026-05-01T09:00:49Z</time></trkpt><trkpt lat="39.41714934019766" lon="8.412277863881855"><ele>30.0</ele><time>2026-05-01T09:00:50Z</time></trkpt><trkpt lat="39.41716572877967" lon="8.412135979198585"><ele>29.8</ele><time>2026-05-01T09:00:51Z</time></trkpt><trkpt lat="39.41717607382091" lon="8.411991518690352"><ele>29.6</ele><time>2026-05-01T09:00:52Z</time></trkpt><trkpt lat="39.417185226181836" lon="8.411859749727023"><ele>29.4</ele><time>2026-05-01T09:00:53Z</time></trkpt><trkpt lat="39.41719727773272" lon="8.411742427542615"><ele>29.2</ele><time>2026-05-01T09:00:54Z</time></trkpt><trkpt lat="39.41720595850338" lon="8.411653058338432"><ele>29.0</ele><time>2026-05-01T09:00:55Z</time></trkpt><trkpt lat="39.41719465853301" lon="8.41153568303534"><ele>31.0</ele><time>2026-05-01T09:01:07.001Z</time></trkpt><trkpt lat="39.417144876006525" lon="8.411475262879064"><ele>33.0</ele><time>2026-05-01T09:01:08.001Z</time></trkpt><trkpt lat="39.41706887100557" lon="8.411437710061264"><ele>35.0</ele><time>2026-05-01T09:01:09.001Z</time></trkpt><trkpt lat="39.41698327122785" lon="8.411433801307727"><ele>37.0</ele><time>2026-05-01T09:01:10.001Z</time></trkpt><trkpt lat="39.41688826008891" lon="8.411381294229763"><ele>39.0</ele><time>2026-05-01T09:01:11.001Z</time></trkpt><trkpt lat="39.416770727418665" lon="8.411339720008362"><ele>38.5</ele><time>2026-05-01T09:01:12.001Z</time></trkpt><trkpt lat="39.41663828529919" lon="8.411310701450342"><ele>38.0</ele><time>2026-05-01T09:01:13.001Z</time></trkpt><trkpt lat="39.41651513902183" lon="8.411263269780962"><ele>37.5</ele><time>2026-05-01T09:01:14.001Z</time></trkpt><trkpt lat="39.41638444690364" lon="8.411224680224134"><ele>37.0</ele><time>2026-05-01T09:01:15.001Z</time></trkpt><trkpt lat="39.41624360594343" lon="8.411176607728404"><ele>37.0</ele><time>2026-05-01T09:01:16.001Z</time></trkpt><trkpt lat="39.41610236725151" lon="8.411127369324065"><ele>37.0</ele><time>2026-05-01T09:01:17.001Z</time></trkpt><trkpt lat="39.41595871904496" lon="8.411084448538228"><ele>37.0</ele><time>2026-05-01T09:01:18.001Z</time></trkpt><trkpt lat="39.415810520239205" lon="8.411041858589401"><ele>37.0</ele><time>2026-05-01T09:01:19.001Z</time></trkpt><trkpt lat="39.41566116327784" lon="8.410997615277717"><ele>37.0</ele><time>2026-05-01T09:01:20.001Z</time></trkpt><trkpt lat="39.41550928338679" lon="8.410956387318432"><ele>37.0</ele><time>2026-05-01T09:01:21.001Z</time></trkpt><trkpt lat="39.41535501582514" lon="8.410916623758318"><ele>37.0</ele><time>2026-05-01T09:01:22.001Z</time></trkpt><trkpt lat="39.41519775816837" lon="8.410889070440266"><ele>40.0</ele><time>2026-05-01T09:01:23.001Z</time></trkpt><trkpt lat="39.41503945652732" lon="8.410870879854345"><ele>43.0</ele><time>2026-05-01T09:01:24.001Z</time></trkpt><trkpt lat="39.41488328751578" lon="8.410854710858358"><ele>46.0</ele><time>2026-05-01T09:01:25.001Z</time></trkpt><trkpt lat="39.41473058938903" lon="8.410831061549484"><ele>47.25</ele><time>2026-05-01T09:01:26.001Z</time></trkpt><trkpt lat="39.41458266665203" lon="8.410799023314805"><ele>48.5</ele><time>2026-05-01T09:01:27.001Z</time></trkpt><trkpt lat="39.41444894843237" lon="8.410731157262882"><ele>49.75</ele><time>2026-05-01T09:01:28.001Z</time></trkpt><trkpt lat="39.414365287726696" lon="8.410579480117672"><ele>51.0</ele><time>2026-05-01T09:01:29.001Z</time></trkpt><trkpt lat="39.414288323263236" lon="8.410417295970651"><ele>51.0</ele><time>2026-05-01T09:01:30.001Z</time></trkpt><trkpt lat="39.414237683292704" lon="8.410232392628519"><ele>51.0</ele><time>2026-05-01T09:01:31.001Z</time></trkpt><trkpt lat="39.414161125829736" lon="8.410062927481084"><ele>51.0</ele><time>2026-05-01T09:01:32.001Z</time></trkpt><trkpt lat="39.41404911988654" lon="8.409930759271685"><ele>51.0</ele><time>2026-05-01T09:01:33.001Z</time></trkpt><trkpt lat="39.41389790181563" lon="8.409857315382542"><ele>51.0</ele><time>2026-05-01T09:01:34.001Z</time></trkpt><trkpt lat="39.413746833163906" lon="8.409801783190296"><ele>51.0</ele><time>2026-05-01T09:01:35.001Z</time></trkpt><trkpt lat="39.41358837930438" lon="8.409751713554874"><ele>51.0</ele><time>2026-05-01T09:01:36.001Z</time></trkpt><trkpt lat="39.41343222687371" lon="8.409690503906416"><ele>51.0</ele><time>2026-05-01T09:01:37.001Z</time></trkpt><trkpt lat="39.4132768896968" lon="8.40962527037618"><ele>51.0</ele><time>2026-05-01T09:01:38.001Z</time></trkpt><trkpt lat="39.413130436600945" lon="8.409562477770146"><ele>51.0</ele><time>2026-05-01T09:01:39.001Z</time></trkpt><trkpt lat="39.41300804781621" lon="8.409462768495784"><ele>51.0</ele><time>2026-05-01T09:01:40.001Z</time></trkpt><trkpt lat="39.412915776452024" lon="8.409309479913265"><ele>51.0</ele><time>2026-05-01T09:01:41.001Z</time></trkpt><trkpt lat="39.4128941897825" lon="8.409120498193563"><ele>51.0</ele><time>2026-05-01T09:01:42.001Z</time></trkpt><trkpt lat="39.412858026889126" lon="8.408916504919045"><ele>54.66666666666667</ele><time>2026-05-01T09:01:43.001Z</time></trkpt><trkpt lat="39.41285741172875" lon="8.408700119186559"><ele>58.333333333333336</ele><time>2026-05-01T09:01:44.001Z</time></trkpt><trkpt lat="39.41284289623313" lon="8.408492679596565"><ele>62.0</ele><time>2026-05-01T09:01:45.001Z</time></trkpt><trkpt lat="39.41282324232311" lon="8.408297680503784"><ele>62.0</ele><time>2026-05-01T09:01:46.001Z</time></trkpt><trkpt lat="39.412791703567926" lon="8.40811903298287"><ele>62.0</ele><time>2026-05-01T09:01:47.001Z</time></trkpt><trkpt lat="39.41273033635992" lon="8.40795046133381"><ele>62.0</ele><time>2026-05-01T09:01:48Z</time></trkpt><trkpt lat="39.4126319629103" lon="8.407794664638775"><ele>62.0</ele><time>2026-05-01T09:01:49Z</time></trkpt><trkpt lat="39.41251424865289" lon="8.407647507429301"><ele>60.333333333333336</ele><time>2026-05-01T09:01:50Z</time></trkpt><trkpt lat="39.412393028158924" lon="8.40749968008636"><ele>58.66666666666667</ele><time>2026-05-01T09:01:51Z</time></trkpt><trkpt lat="39.41227818246418" lon="8.407345619602193"><ele>57.0</ele><time>2026-05-01T09:01:52Z</time></trkpt><trkpt lat="39.41216906941091" lon="8.40718517737442"><ele>58.66666666666667</ele><time>2026-05-01T09:01:53Z</time></trkpt><trkpt lat="39.41205858179508" lon="8.407027554025897"><ele>60.333333333333336</ele><time>2026-05-01T09:01:54Z</time></trkpt><trkpt lat="39.41194544164232" lon="8.406877469233361"><ele>62.0</ele><time>2026-05-01T09:01:55Z</time></trkpt><trkpt lat="39.41181489327695" lon="8.406752789825413"><ele>62.0</ele><time>2026-05-01T09:01:56Z</time></trkpt><trkpt lat="39.411664188450175" lon="8.406667005563866"><ele>62.0</ele><time>2026-05-01T09:01:57Z</time></trkpt><trkpt lat="39.41150751252431" lon="8.406601515610017"><ele>62.0</ele><time>2026-05-01T09:01:58Z</time></trkpt><trkpt lat="39.411356529022754" lon="8.406532258185456"><ele>62.66666666666667</ele><time>2026-05-01T09:01:59Z</time></trkpt><trkpt lat="39.41120851255168" lon="8.406450252792196"><ele>63.33333333333333</ele><time>2026-05-01T09:02:00Z</time></trkpt><trkpt lat="39.41106180212864" lon="8.406368729135584"><ele>64.0</ele><time>2026-05-01T09:02:01Z</time></trkpt><trkpt lat="39.41091256082782" lon="8.406288363036607"><ele>64.0</ele><time>2026-05-01T09:02:02Z</time></trkpt><trkpt lat="39.41076019402038" lon="8.406206805723743"><ele>64.0</ele><time>2026-05-01T09:02:03Z</time></trkpt><trkpt lat="39.410606575864456" lon="8.406137405295139"><ele>64.0</ele><time>2026-05-01T09:02:04Z</time></trkpt><trkpt lat="39.410445936062885" lon="8.406104687074688"><ele>65.33333333333333</ele><time>2026-05-01T09:02:05Z</time></trkpt><trkpt lat="39.41028391452506" lon="8.406097376738671"><ele>66.66666666666667</ele><time>2026-05-01T09:02:06Z</time></trkpt><trkpt lat="39.41012163078393" lon="8.406101884097046"><ele>68.0</ele><time>2026-05-01T09:02:07Z</time></trkpt><trkpt lat="39.40995723225348" lon="8.406107437364662"><ele>68.0</ele><time>2026-05-01T09:02:08Z</time></trkpt><trkpt lat="39.40979160360457" lon="8.40611167120752"><ele>68.0</ele><time>2026-05-01T09:02:09Z</time></trkpt><trkpt lat="39.40962552917163" lon="8.406114714956848"><ele>68.0</ele><time>2026-05-01T09:02:10Z</time></trkpt><trkpt lat="39.40945791811248" lon="8.406113872524365"><ele>67.66666666666667</ele><time>2026-05-01T09:02:11Z</time></trkpt><trkpt lat="39.40928870227102" lon="8.406110617219761"><ele>67.33333333333333</ele><time>2026-05-01T09:02:12Z</time></trkpt><trkpt lat="39.40911922855352" lon="8.406110683083222"><ele>67.0</ele><time>2026-05-01T09:02:13Z</time></trkpt><trkpt lat="39.408952597438415" lon="8.406105711842438"><ele>69.66666666666666</ele><time>2026-05-01T09:02:14Z</time></trkpt><trkpt lat="39.40878908810266" lon="8.406077830147234"><ele>72.33333333333333</ele><time>2026-05-01T09:02:15Z</time></trkpt><trkpt lat="39.408631545925736" lon="8.406014464326674"><ele>75.0</ele><time>2026-05-01T09:02:16Z</time></trkpt><trkpt lat="39.40848271430514" lon="8.405925215215982"><ele>75.0</ele><time>2026-05-01T09:02:17Z</time></trkpt><trkpt lat="39.408335436908445" lon="8.40582863760272"><ele>75.0</ele><time>2026-05-01T09:02:18Z</time></trkpt><trkpt lat="39.40818305865275" lon="8.405735222764054"><ele>75.0</ele><time>2026-05-01T09:02:19Z</time></trkpt><trkpt lat="39.40802804441822" lon="8.405644293929376"><ele>78.66666666666667</ele><time>2026-05-01T09:02:20Z</time></trkpt><trkpt lat="39.40787392532927" lon="8.405555106870857"><ele>82.33333333333334</ele><time>2026-05-01T09:02:21Z</time></trkpt><trkpt lat="39.407719759145095" lon="8.405465752357047"><ele>86.0</ele><time>2026-05-01T09:02:22Z</time></trkpt><trkpt lat="39.407567308233695" lon="8.405376066103516"><ele>82.33333333333334</ele><time>2026-05-01T09:02:23Z</time></trkpt><trkpt lat="39.40741515553923" lon="8.405285559335987"><ele>78.66666666666667</ele><time>2026-05-01T09:02:24Z</time></trkpt><trkpt lat="39.407263471534286" lon="8.405195789677355"><ele>75.0</ele><time>2026-05-01T09:02:25Z</time></trkpt><trkpt lat="39.40711255157106" lon="8.40510929625639"><ele>75.0</ele><time>2026-05-01T09:02:26Z</time></trkpt><trkpt lat="39.40696445176501" lon="8.405024578342802"><ele>75.0</ele><time>2026-05-01T09:02:27Z</time></trkpt><trkpt lat="39.40681637241724" lon="8.404940803925026"><ele>75.0</ele><time>2026-05-01T09:02:28Z</time></trkpt><trkpt lat="39.40667213341898" lon="8.404857187882737"><ele>75.0</ele><time>2026-05-01T09:02:29Z</time></trkpt><trkpt lat="39.406534782473635" lon="8.404773073689258"><ele>75.0</ele><time>2026-05-01T09:02:30Z</time></trkpt><trkpt lat="39.40639776151651" lon="8.404698240300805"><ele>75.0</ele><time>2026-05-01T09:02:31Z</time></trkpt><trkpt lat="39.40626844426456" lon="8.404656376525509"><ele>75.0</ele><time>2026-05-01T09:02:32Z</time></trkpt><trkpt lat="39.406138492448314" lon="8.40467083044772"><ele>77.0</ele><time>2026-05-01T09:02:33Z</time></trkpt><trkpt lat="39.406005083867015" lon="8.404741230445033"><ele>79.0</ele><time>2026-05-01T09:02:34Z</time></trkpt><trkpt lat="39.40585775012735" lon="8.404779668642863"><ele>81.0</ele><time>2026-05-01T09:02:35Z</time></trkpt><trkpt lat="39.40570673638552" lon="8.404807075772634"><ele>83.0</ele><time>2026-05-01T09:02:36Z</time></trkpt><trkpt lat="39.40553017665965" lon="8.404834601837258"><ele>80.0</ele><time>2026-05-01T09:02:37Z</time></trkpt><trkpt lat="39.405342441206855" lon="8.404833722727405"><ele>77.0</ele><time>2026-05-01T09:02:38Z</time></trkpt><trkpt lat="39.40515358190441" lon="8.40485105818139"><ele>74.0</ele><time>2026-05-01T09:02:39Z</time></trkpt><trkpt lat="39.40496131306707" lon="8.404849656188336"><ele>74.0</ele><time>2026-05-01T09:02:40Z</time></trkpt><trkpt lat="39.404775786697776" lon="8.4048131689628"><ele>74.0</ele><time>2026-05-01T09:02:41Z</time></trkpt><trkpt lat="39.40459556766453" lon="8.404745570124417"><ele>74.0</ele><time>2026-05-01T09:02:42Z</time></trkpt><trkpt lat="39.40441923810814" lon="8.404667481506902"><ele>67.0</ele><time>2026-05-01T09:02:43Z</time></trkpt><trkpt lat="39.40424648718924" lon="8.404595182865712"><ele>60.0</ele><time>2026-05-01T09:02:44Z</time></trkpt><trkpt lat="39.404084348070086" lon="8.404519241447936"><ele>53.0</ele><time>2026-05-01T09:02:45Z</time></trkpt><trkpt lat="39.40393228097218" lon="8.404433239476125"><ele>56.333333333333336</ele><time>2026-05-01T09:02:46Z</time></trkpt><trkpt lat="39.40378917007035" lon="8.404339970588891"><ele>59.66666666666667</ele><time>2026-05-01T09:02:47Z</time></trkpt><trkpt lat="39.403650711668185" lon="8.404256723165183"><ele>63.0</ele><time>2026-05-01T09:02:48Z</time></trkpt><trkpt lat="39.40351648696004" lon="8.404180751662446"><ele>63.0</ele><time>2026-05-01T09:02:49Z</time></trkpt><trkpt lat="39.40339302171015" lon="8.404093256880406"><ele>63.0</ele><time>2026-05-01T09:02:50Z</time></trkpt><trkpt lat="39.40327957522775" lon="8.403987688293103"><ele>63.0</ele><time>2026-05-01T09:02:51Z</time></trkpt><trkpt lat="39.4031713929462" lon="8.403861668386895"><ele>63.0</ele><time>2026-05-01T09:02:52Z</time></trkpt><trkpt lat="39.40307505157391" lon="8.40371308046996"><ele>63.0</ele><time>2026-05-01T09:02:53Z</time></trkpt><trkpt lat="39.40299117389808" lon="8.403545769281846"><ele>63.0</ele><time>2026-05-01T09:02:54Z</time></trkpt><trkpt lat="39.4029138795013" lon="8.403362379416693"><ele>63.0</ele><time>2026-05-01T09:02:55Z</time></trkpt><trkpt lat="39.40283431910926" lon="8.403186071646598"><ele>63.0</ele><time>2026-05-01T09:02:56Z</time></trkpt><trkpt lat="39.40275257901513" lon="8.40302791149278"><ele>63.0</ele><time>2026-05-01T09:02:57Z</time></trkpt><trkpt lat="39.40265589003963" lon="8.402900731748424"><ele>63.0</ele><time>2026-05-01T09:02:58Z</time></trkpt><trkpt lat="39.40254498163717" lon="8.402809167300667"><ele>63.0</ele><time>2026-05-01T09:02:59Z</time></trkpt><trkpt lat="39.40240862939766" lon="8.402759918882008"><ele>57.5</ele><time>2026-05-01T09:03:00Z</time></trkpt><trkpt lat="39.40226741162372" lon="8.402746353024982"><ele>52.0</ele><time>2026-05-01T09:03:01Z</time></trkpt><trkpt lat="39.402126311483194" lon="8.402738091369384"><ele>46.5</ele><time>2026-05-01T09:03:02Z</time></trkpt><trkpt lat="39.40198061855577" lon="8.402714726058878"><ele>41.0</ele><time>2026-05-01T09:03:03Z</time></trkpt><trkpt lat="39.401835649084624" lon="8.402690190700769"><ele>41.0</ele><time>2026-05-01T09:03:04Z</time></trkpt><trkpt lat="39.401692830142515" lon="8.402664515356165"><ele>41.0</ele><time>2026-05-01T09:03:05Z</time></trkpt><trkpt lat="39.40154910075049" lon="8.402639370354892"><ele>41.0</ele><time>2026-05-01T09:03:06Z</time></trkpt><trkpt lat="39.401411417192605" lon="8.40261431237351"><ele>41.0</ele><time>2026-05-01T09:03:07.001Z</time></trkpt><trkpt lat="39.40128031392981" lon="8.402589553936037"><ele>45.75</ele><time>2026-05-01T09:03:08.001Z</time></trkpt><trkpt lat="39.40115825143813" lon="8.402567837118715"><ele>50.5</ele><time>2026-05-01T09:03:09.001Z</time></trkpt><trkpt lat="39.401051600327925" lon="8.402494584035862"><ele>55.25</ele><time>2026-05-01T09:03:10.001Z</time></trkpt><trkpt lat="39.400954989388836" lon="8.402395273908878"><ele>60.0</ele><time>2026-05-01T09:03:11.001Z</time></trkpt><trkpt lat="39.40084432290822" lon="8.402304081213341"><ele>60.0</ele><time>2026-05-01T09:03:12.001Z</time></trkpt><trkpt lat="39.40074002958756" lon="8.40220272927003"><ele>60.0</ele><time>2026-05-01T09:03:13.001Z</time></trkpt><trkpt lat="39.40064176233576" lon="8.402116153012523"><ele>60.0</ele><time>2026-05-01T09:03:14.001Z</time></trkpt><trkpt lat="39.40054680020519" lon="8.40207159475141"><ele>60.0</ele><time>2026-05-01T09:03:15.001Z</time></trkpt><trkpt lat="39.40043190334514" lon="8.402074903366612"><ele>61.5</ele><time>2026-05-01T09:03:16.001Z</time></trkpt><trkpt lat="39.4003034502802" lon="8.402114129752764"><ele>63.0</ele><time>2026-05-01T09:03:17.001Z</time></trkpt><trkpt lat="39.400188082730054" lon="8.402181210499496"><ele>64.5</ele><time>2026-05-01T09:03:18.001Z</time></trkpt><trkpt lat="39.40008569150135" lon="8.402212895607844"><ele>66.0</ele><time>2026-05-01T09:03:19.001Z</time></trkpt><trkpt lat="39.400002241215695" lon="8.402273218485313"><ele>66.0</ele><time>2026-05-01T09:03:20.001Z</time></trkpt><trkpt lat="39.39991771784694" lon="8.402305533208658"><ele>66.0</ele><time>2026-05-01T09:03:21.001Z</time></trkpt><trkpt lat="39.399837024064645" lon="8.402340861718336"><ele>66.0</ele><time>2026-05-01T09:03:22.001Z</time></trkpt><trkpt lat="39.39976445634055" lon="8.402371491832213"><ele>66.0</ele><time>2026-05-01T09:03:23.001Z</time></trkpt><trkpt lat="39.399681661019024" lon="8.402381286963491"><ele>66.0</ele><time>2026-05-01T09:03:25.001Z</time></trkpt><trkpt lat="39.39961221268988" lon="8.402426888605525"><ele>66.0</ele><time>2026-05-01T09:09:14.999Z</time></trkpt><trkpt lat="39.39966862087068" lon="8.402477472991944"><ele>66.0</ele><time>2026-05-01T09:09:21.999Z</time></trkpt><trkpt lat="39.3997637827625" lon="8.402424073990218"><ele>66.0</ele><time>2026-05-01T09:09:23.999Z</time></trkpt><trkpt lat="39.399837291717766" lon="8.402411710422458"><ele>66.0</ele><time>2026-05-01T09:09:26Z</time></trkpt><trkpt lat="39.399777871763" lon="8.402508599742632"><ele>66.0</ele><time>2026-05-01T09:09:29Z</time></trkpt><trkpt lat="39.39967575568789" lon="8.402594100632937"><ele>66.0</ele><time>2026-05-01T09:09:31Z</time></trkpt><trkpt lat="39.399623547100454" lon="8.402655846849242"><ele>66.0</ele><time>2026-05-01T09:09:32Z</time></trkpt><trkpt lat="39.399564383673464" lon="8.402711921363464"><ele>66.0</ele><time>2026-05-01T09:09:33Z</time></trkpt><trkpt lat="39.39950075660222" lon="8.402766756877213"><ele>66.0</ele><time>2026-05-01T09:09:34Z</time></trkpt><trkpt lat="39.399479165257794" lon="8.40285256338797"><ele>66.0</ele><time>2026-05-01T09:09:36Z</time></trkpt><trkpt lat="39.39960254053432" lon="8.40288630377266"><ele>66.0</ele><time>2026-05-01T09:09:39Z</time></trkpt><trkpt lat="39.39965928498556" lon="8.402839352137303"><ele>66.0</ele><time>2026-05-01T09:09:40Z</time></trkpt><trkpt lat="39.39973994460767" lon="8.402800369731965"><ele>66.0</ele><time>2026-05-01T09:09:41Z</time></trkpt><trkpt lat="39.3998293493506" lon="8.402768694468111"><ele>66.0</ele><time>2026-05-01T09:09:42Z</time></trkpt><trkpt lat="39.3999202470428" lon="8.402727694010087"><ele>66.0</ele><time>2026-05-01T09:09:43Z</time></trkpt><trkpt lat="39.40001203485616" lon="8.4026765508394"><ele>66.0</ele><time>2026-05-01T09:09:44Z</time></trkpt><trkpt lat="39.40010489974693" lon="8.402631163555917"><ele>66.0</ele><time>2026-05-01T09:09:45Z</time></trkpt><trkpt lat="39.40019681208443" lon="8.402592913672885"><ele>66.0</ele><time>2026-05-01T09:09:46Z</time></trkpt><trkpt lat="39.400284554121896" lon="8.402555200471054"><ele>66.0</ele><time>2026-05-01T09:09:47Z</time></trkpt><trkpt lat="39.40036937201768" lon="8.402514542021375"><ele>66.0</ele><time>2026-05-01T09:09:48Z</time></trkpt><trkpt lat="39.400445146527936" lon="8.402491230937748"><ele>66.0</ele><time>2026-05-01T09:09:49Z</time></trkpt><trkpt lat="39.40051980242811" lon="8.402504532544404"><ele>66.0</ele><time>2026-05-01T09:09:50Z</time></trkpt><trkpt lat="39.4005903403916" lon="8.40254734914577"><ele>66.0</ele><time>2026-05-01T09:09:51Z</time></trkpt><trkpt lat="39.40065010834501" lon="8.402599455570527"><ele>65.0</ele><time>2026-05-01T09:09:52Z</time></trkpt><trkpt lat="39.40070423785025" lon="8.402646871418705"><ele>64.0</ele><time>2026-05-01T09:09:53Z</time></trkpt><trkpt lat="39.400753695953256" lon="8.402780951862638"><ele>63.0</ele><time>2026-05-01T09:09:55Z</time></trkpt><trkpt lat="39.40074983339374" lon="8.402879173829351"><ele>62.0</ele><time>2026-05-01T09:09:58Z</time></trkpt><trkpt lat="39.40075913236107" lon="8.403015266954204"><ele>61.0</ele><time>2026-05-01T09:10:00Z</time></trkpt><trkpt lat="39.4007261930675" lon="8.403106150146126"><ele>60.0</ele><time>2026-05-01T09:10:01Z</time></trkpt><trkpt lat="39.400678668367235" lon="8.403181698747117"><ele>64.8</ele><time>2026-05-01T09:10:02Z</time></trkpt><trkpt lat="39.40060357650552" lon="8.403238870542234"><ele>69.6</ele><time>2026-05-01T09:10:05Z</time></trkpt><trkpt lat="39.40047685874379" lon="8.40323554313914"><ele>74.4</ele><time>2026-05-01T09:10:07Z</time></trkpt><trkpt lat="39.400397866189266" lon="8.403250100133702"><ele>79.2</ele><time>2026-05-01T09:10:08Z</time></trkpt><trkpt lat="39.4003106562779" lon="8.403266587289165"><ele>84.0</ele><time>2026-05-01T09:10:09Z</time></trkpt><trkpt lat="39.400233760089776" lon="8.403283605844026"><ele>84.0</ele><time>2026-05-01T09:10:10Z</time></trkpt><trkpt lat="39.400154083322796" lon="8.40329627006106"><ele>84.0</ele><time>2026-05-01T09:10:11Z</time></trkpt><trkpt lat="39.4000830972891" lon="8.403314915453645"><ele>84.0</ele><time>2026-05-01T09:10:12Z</time></trkpt><trkpt lat="39.40000510981506" lon="8.4033338828338"><ele>84.0</ele><time>2026-05-01T09:10:13Z</time></trkpt><trkpt lat="39.399919949217164" lon="8.403390977826598"><ele>84.0</ele><time>2026-05-01T09:10:14Z</time></trkpt><trkpt lat="39.399825314840264" lon="8.403412040879516"><ele>84.0</ele><time>2026-05-01T09:10:15Z</time></trkpt><trkpt lat="39.399733965851425" lon="8.403420279995716"><ele>82.0</ele><time>2026-05-01T09:10:16Z</time></trkpt><trkpt lat="39.39964196300098" lon="8.403436847741297"><ele>80.0</ele><time>2026-05-01T09:10:17Z</time></trkpt><trkpt lat="39.399556678864876" lon="8.403457313845731"><ele>78.0</ele><time>2026-05-01T09:10:18Z</time></trkpt><trkpt lat="39.399496337831266" lon="8.403506949251613"><ele>76.0</ele><time>2026-05-01T09:10:19Z</time></trkpt><trkpt lat="39.3993802537271" lon="8.403546262403719"><ele>74.0</ele><time>2026-05-01T09:10:21Z</time></trkpt><trkpt lat="39.39927901180114" lon="8.403559862828686"><ele>74.0</ele><time>2026-05-01T09:10:23Z</time></trkpt><trkpt lat="39.39921393992346" lon="8.403584885424259"><ele>74.0</ele><time>2026-05-01T09:10:24.999Z</time></trkpt><trkpt lat="39.39914787926018" lon="8.403598061342825"><ele>74.0</ele><time>2026-05-01T09:10:26.999Z</time></trkpt><trkpt lat="39.399014222559906" lon="8.403602851729167"><ele>74.0</ele><time>2026-05-01T09:10:28.999Z</time></trkpt><trkpt lat="39.398927280576125" lon="8.403604667264853"><ele>74.0</ele><time>2026-05-01T09:10:29.999Z</time></trkpt><trkpt lat="39.39883940231422" lon="8.403586958407196"><ele>74.0</ele><time>2026-05-01T09:10:30.999Z</time></trkpt><trkpt lat="39.39874748687447" lon="8.403575691544809"><ele>73.2</ele><time>2026-05-01T09:10:31.999Z</time></trkpt><trkpt lat="39.39865532016414" lon="8.403590610772898"><ele>72.4</ele><time>2026-05-01T09:10:32.999Z</time></trkpt><trkpt lat="39.39856101243682" lon="8.40361604391382"><ele>71.6</ele><time>2026-05-01T09:10:33.999Z</time></trkpt><trkpt lat="39.398467486269006" lon="8.403646907330959"><ele>70.8</ele><time>2026-05-01T09:10:34.999Z</time></trkpt><trkpt lat="39.39837476264634" lon="8.40366782520124"><ele>70.0</ele><time>2026-05-01T09:10:35.999Z</time></trkpt><trkpt lat="39.39827997588979" lon="8.403691913223872"><ele>70.0</ele><time>2026-05-01T09:10:36.999Z</time></trkpt><trkpt lat="39.39818559140827" lon="8.403713445679273"><ele>70.0</ele><time>2026-05-01T09:10:37.999Z</time></trkpt><trkpt lat="39.39809843595401" lon="8.403728742932532"><ele>70.0</ele><time>2026-05-01T09:10:38.999Z</time></trkpt><trkpt lat="39.39801093580444" lon="8.40373368893684"><ele>70.0</ele><time>2026-05-01T09:10:39.999Z</time></trkpt><trkpt lat="39.397920952943934" lon="8.403745350183247"><ele>70.0</ele><time>2026-05-01T09:10:40.999Z</time></trkpt><trkpt lat="39.397825945664955" lon="8.403766391995893"><ele>69.8</ele><time>2026-05-01T09:10:41.999Z</time></trkpt><trkpt lat="39.39773141745441" lon="8.40377592430565"><ele>69.6</ele><time>2026-05-01T09:10:42.999Z</time></trkpt><trkpt lat="39.3976334655929" lon="8.40377539413238"><ele>69.4</ele><time>2026-05-01T09:10:43.999Z</time></trkpt><trkpt lat="39.39752962881162" lon="8.4037742251099"><ele>69.2</ele><time>2026-05-01T09:10:44.999Z</time></trkpt><trkpt lat="39.3974293269154" lon="8.403781767694204"><ele>69.0</ele><time>2026-05-01T09:10:45.999Z</time></trkpt><trkpt lat="39.39734431546894" lon="8.4037964244676"><ele>69.0</ele><time>2026-05-01T09:10:46.999Z</time></trkpt><trkpt lat="39.397256413156356" lon="8.403805803247211"><ele>69.0</ele><time>2026-05-01T09:10:47.999Z</time></trkpt><trkpt lat="39.39716384109553" lon="8.403781339088969"><ele>69.0</ele><time>2026-05-01T09:10:48.999Z</time></trkpt><trkpt lat="39.39706276398642" lon="8.403775461209408"><ele>69.0</ele><time>2026-05-01T09:10:49.999Z</time></trkpt><trkpt lat="39.39696035303376" lon="8.403779955653873"><ele>69.0</ele><time>2026-05-01T09:10:50.999Z</time></trkpt><trkpt lat="39.396853314630405" lon="8.403765937207547"><ele>69.66666666666667</ele><time>2026-05-01T09:10:51.999Z</time></trkpt><trkpt lat="39.396746743358676" lon="8.403756173188174"><ele>70.33333333333333</ele><time>2026-05-01T09:10:52.999Z</time></trkpt><trkpt lat="39.39665094358132" lon="8.403747909941467"><ele>71.0</ele><time>2026-05-01T09:10:53.999Z</time></trkpt><trkpt lat="39.39656764063703" lon="8.403739020243428"><ele>71.66666666666666</ele><time>2026-05-01T09:10:54.999Z</time></trkpt><trkpt lat="39.39649615484686" lon="8.403721098933481"><ele>72.33333333333333</ele><time>2026-05-01T09:10:55.999Z</time></trkpt><trkpt lat="39.396424553064286" lon="8.403705058020083"><ele>73.0</ele><time>2026-05-01T09:10:56.999Z</time></trkpt><trkpt lat="39.39635097842832" lon="8.403691021645493"><ele>72.2</ele><time>2026-05-01T09:10:57.999Z</time></trkpt><trkpt lat="39.396266345064674" lon="8.40367592270388"><ele>71.4</ele><time>2026-05-01T09:10:58.999Z</time></trkpt><trkpt lat="39.396170680652666" lon="8.403696663674433"><ele>70.60000000000001</ele><time>2026-05-01T09:10:59.999Z</time></trkpt><trkpt lat="39.39608099542542" lon="8.403733619462292"><ele>69.8</ele><time>2026-05-01T09:11:00.999Z</time></trkpt><trkpt lat="39.395989310231464" lon="8.403783330784583"><ele>69.0</ele><time>2026-05-01T09:11:01.999Z</time></trkpt><trkpt lat="39.39589250990355" lon="8.403845858940194"><ele>73.25</ele><time>2026-05-01T09:11:02.999Z</time></trkpt><trkpt lat="39.39579733857939" lon="8.403920954998323"><ele>77.5</ele><time>2026-05-01T09:11:03.999Z</time></trkpt><trkpt lat="39.39570361853295" lon="8.404014296900169"><ele>81.75</ele><time>2026-05-01T09:11:04.999Z</time></trkpt><trkpt lat="39.3956115243132" lon="8.404119871048415"><ele>86.0</ele><time>2026-05-01T09:11:05.999Z</time></trkpt><trkpt lat="39.39551890366239" lon="8.404228240787303"><ele>83.0</ele><time>2026-05-01T09:11:06.999Z</time></trkpt><trkpt lat="39.39543215202567" lon="8.404335452787114"><ele>80.0</ele><time>2026-05-01T09:11:07.999Z</time></trkpt><trkpt lat="39.39534339811879" lon="8.404439296474532"><ele>77.0</ele><time>2026-05-01T09:11:08.999Z</time></trkpt><trkpt lat="39.395254374573746" lon="8.40453458077987"><ele>74.0</ele><time>2026-05-01T09:11:09.999Z</time></trkpt><trkpt lat="39.395165680252276" lon="8.404619806227936"><ele>78.75</ele><time>2026-05-01T09:11:10.999Z</time></trkpt><trkpt lat="39.395071305242546" lon="8.404701675233099"><ele>83.5</ele><time>2026-05-01T09:11:11.999Z</time></trkpt><trkpt lat="39.39496789304144" lon="8.4047727488456"><ele>88.25</ele><time>2026-05-01T09:11:12.999Z</time></trkpt><trkpt lat="39.39485592098285" lon="8.404834885343035"><ele>93.0</ele><time>2026-05-01T09:11:13.999Z</time></trkpt><trkpt lat="39.39473733430006" lon="8.404895282470925"><ele>92.5</ele><time>2026-05-01T09:11:14.999Z</time></trkpt><trkpt lat="39.39461493945348" lon="8.404948966303587"><ele>92.0</ele><time>2026-05-01T09:11:15.999Z</time></trkpt><trkpt lat="39.39449227627912" lon="8.404996514539102"><ele>91.5</ele><time>2026-05-01T09:11:16.999Z</time></trkpt><trkpt lat="39.394375667137666" lon="8.405025522522264"><ele>91.0</ele><time>2026-05-01T09:11:17.999Z</time></trkpt><trkpt lat="39.39425430431185" lon="8.4050538722865"><ele>91.0</ele><time>2026-05-01T09:11:18.999Z</time></trkpt><trkpt lat="39.394134779641014" lon="8.40504699147223"><ele>91.0</ele><time>2026-05-01T09:11:19.999Z</time></trkpt><trkpt lat="39.39401394934645" lon="8.405042407751855"><ele>91.0</ele><time>2026-05-01T09:11:20.999Z</time></trkpt><trkpt lat="39.393894421819276" lon="8.405069059868023"><ele>91.0</ele><time>2026-05-01T09:11:21.999Z</time></trkpt><trkpt lat="39.39378444470586" lon="8.40512211451784"><ele>91.0</ele><time>2026-05-01T09:11:22.999Z</time></trkpt><trkpt lat="39.39370809125902" lon="8.40518069911225"><ele>91.0</ele><time>2026-05-01T09:11:23.999Z</time></trkpt><trkpt lat="39.39365211434871" lon="8.405239636374208"><ele>91.0</ele><time>2026-05-01T09:11:25.999Z</time></trkpt><trkpt lat="39.393761322113704" lon="8.405349068100621"><ele>91.0</ele><time>2026-05-01T09:11:27.999Z</time></trkpt><trkpt lat="39.3938396578793" lon="8.40533555132143"><ele>91.0</ele><time>2026-05-01T09:11:28.999Z</time></trkpt><trkpt lat="39.39393353102911" lon="8.405337241823787"><ele>91.0</ele><time>2026-05-01T09:11:29.999Z</time></trkpt><trkpt lat="39.39403351581453" lon="8.405368557829801"><ele>91.0</ele><time>2026-05-01T09:11:31Z</time></trkpt><trkpt lat="39.39413309709097" lon="8.405443962711304"><ele>91.0</ele><time>2026-05-01T09:11:32Z</time></trkpt><trkpt lat="39.39425385672809" lon="8.405518817345108"><ele>91.0</ele><time>2026-05-01T09:11:33Z</time></trkpt><trkpt lat="39.39436624223354" lon="8.405582488436007"><ele>97.25</ele><time>2026-05-01T09:11:34Z</time></trkpt><trkpt lat="39.394483981075226" lon="8.40565701072327"><ele>103.5</ele><time>2026-05-01T09:11:35Z</time></trkpt><trkpt lat="39.39461574270242" lon="8.4057023491913"><ele>109.75</ele><time>2026-05-01T09:11:36Z</time></trkpt><trkpt lat="39.39474671631821" lon="8.40573391173312"><ele>116.0</ele><time>2026-05-01T09:11:37Z</time></trkpt><trkpt lat="39.39487857620412" lon="8.405766745248371"><ele>116.0</ele><time>2026-05-01T09:11:38Z</time></trkpt><trkpt lat="39.39501067464845" lon="8.40580351808699"><ele>116.0</ele><time>2026-05-01T09:11:39Z</time></trkpt><trkpt lat="39.39514123902703" lon="8.405840007539615"><ele>116.0</ele><time>2026-05-01T09:11:40Z</time></trkpt><trkpt lat="39.395270748286" lon="8.405868619173821"><ele>116.0</ele><time>2026-05-01T09:11:41Z</time></trkpt><trkpt lat="39.395403514781904" lon="8.405896271952052"><ele>116.75</ele><time>2026-05-01T09:11:42Z</time></trkpt><trkpt lat="39.395534904724876" lon="8.405926236155668"><ele>117.5</ele><time>2026-05-01T09:11:43Z</time></trkpt><trkpt lat="39.39566655471233" lon="8.40595599094147"><ele>118.25</ele><time>2026-05-01T09:11:44Z</time></trkpt><trkpt lat="39.39579914432341" lon="8.40598687343606"><ele>119.0</ele><time>2026-05-01T09:11:45Z</time></trkpt><trkpt lat="39.3959332250456" lon="8.406012816189905"><ele>119.0</ele><time>2026-05-01T09:11:46Z</time></trkpt><trkpt lat="39.396062570272704" lon="8.406044537461836"><ele>119.0</ele><time>2026-05-01T09:11:47Z</time></trkpt><trkpt lat="39.3961860438966" lon="8.406083082785173"><ele>119.0</ele><time>2026-05-01T09:11:48Z</time></trkpt><trkpt lat="39.39629848060177" lon="8.406128739939302"><ele>119.0</ele><time>2026-05-01T09:11:49Z</time></trkpt><trkpt lat="39.39638363464197" lon="8.406216491918451"><ele>120.4</ele><time>2026-05-01T09:11:50Z</time></trkpt><trkpt lat="39.396457593531174" lon="8.40631182969642"><ele>121.80000000000001</ele><time>2026-05-01T09:11:51Z</time></trkpt><trkpt lat="39.3964981350715" lon="8.406436842871422"><ele>123.19999999999999</ele><time>2026-05-01T09:11:52Z</time></trkpt><trkpt lat="39.39655877969064" lon="8.406516171282245"><ele>124.6</ele><time>2026-05-01T09:11:53Z</time></trkpt><trkpt lat="39.396618462701376" lon="8.406580846480432"><ele>126.0</ele><time>2026-05-01T09:11:54Z</time></trkpt><trkpt lat="39.39671074446877" lon="8.406574638709682"><ele>126.0</ele><time>2026-05-01T09:11:55Z</time></trkpt><trkpt lat="39.396807699886516" lon="8.40653012946376"><ele>126.0</ele><time>2026-05-01T09:11:56Z</time></trkpt><trkpt lat="39.396882642412706" lon="8.406436129985078"><ele>126.0</ele><time>2026-05-01T09:11:57Z</time></trkpt><trkpt lat="39.39692295028763" lon="8.406301147179377"><ele>126.0</ele><time>2026-05-01T09:11:58Z</time></trkpt><trkpt lat="39.39694618368222" lon="8.406159759845632"><ele>126.0</ele><time>2026-05-01T09:11:59Z</time></trkpt><trkpt lat="39.39699784452159" lon="8.40603812148811"><ele>126.0</ele><time>2026-05-01T09:12:00Z</time></trkpt><trkpt lat="39.39709103418102" lon="8.405938258031817"><ele>126.0</ele><time>2026-05-01T09:12:01Z</time></trkpt><trkpt lat="39.39716109130684" lon="8.405801942223171"><ele>126.0</ele><time>2026-05-01T09:12:02Z</time></trkpt><trkpt lat="39.397229316657715" lon="8.405671389010932"><ele>126.0</ele><time>2026-05-01T09:12:03Z</time></trkpt><trkpt lat="39.3972986886094" lon="8.40556412737935"><ele>126.16666666666667</ele><time>2026-05-01T09:12:04Z</time></trkpt><trkpt lat="39.39737748868041" lon="8.405489440633124"><ele>126.33333333333334</ele><time>2026-05-01T09:12:05Z</time></trkpt><trkpt lat="39.39743980129618" lon="8.405419363917979"><ele>126.5</ele><time>2026-05-01T09:12:06Z</time></trkpt><trkpt lat="39.397507537477416" lon="8.405379662108473"><ele>126.66666666666667</ele><time>2026-05-01T09:12:07Z</time></trkpt><trkpt lat="39.397588499922676" lon="8.405362338063709"><ele>126.83333333333334</ele><time>2026-05-01T09:12:08Z</time></trkpt><trkpt lat="39.39767957330003" lon="8.40536201217063"><ele>127.0</ele><time>2026-05-01T09:12:09Z</time></trkpt><trkpt lat="39.39777959622663" lon="8.405354743135964"><ele>127.0</ele><time>2026-05-01T09:12:10Z</time></trkpt><trkpt lat="39.39788180880175" lon="8.405344615425172"><ele>126.99999999999999</ele><time>2026-05-01T09:12:11Z</time></trkpt><trkpt lat="39.39798990426009" lon="8.405356807396949"><ele>126.99999999999999</ele><time>2026-05-01T09:12:12Z</time></trkpt><trkpt lat="39.39810179441627" lon="8.40536921930722"><ele>127.0</ele><time>2026-05-01T09:12:13Z</time></trkpt><trkpt lat="39.398215860285006" lon="8.405379576914806"><ele>127.0</ele><time>2026-05-01T09:12:14Z</time></trkpt><trkpt lat="39.398333437751944" lon="8.405395614014155"><ele>129.25</ele><time>2026-05-01T09:12:15Z</time></trkpt><trkpt lat="39.39845001152602" lon="8.405427210663875"><ele>131.5</ele><time>2026-05-01T09:12:16Z</time></trkpt><trkpt lat="39.398562817780316" lon="8.405478309974983"><ele>133.75</ele><time>2026-05-01T09:12:17Z</time></trkpt><trkpt lat="39.398670501290205" lon="8.405548313846444"><ele>136.0</ele><time>2026-05-01T09:12:17.999Z</time></trkpt><trkpt lat="39.398775808949296" lon="8.405626997372226"><ele>144.5</ele><time>2026-05-01T09:12:18.999Z</time></trkpt><trkpt lat="39.39888108640041" lon="8.40570084249967"><ele>153.0</ele><time>2026-05-01T09:12:19.999Z</time></trkpt><trkpt lat="39.39898923240461" lon="8.405772409330927"><ele>161.5</ele><time>2026-05-01T09:12:20.999Z</time></trkpt><trkpt lat="39.39909877281391" lon="8.405839516330893"><ele>170.0</ele><time>2026-05-01T09:12:21.999Z</time></trkpt><trkpt lat="39.3992090233602" lon="8.405902059302145"><ele>170.0</ele><time>2026-05-01T09:12:22.999Z</time></trkpt><trkpt lat="39.39932041532047" lon="8.405955222227945"><ele>170.0</ele><time>2026-05-01T09:12:23.999Z</time></trkpt><trkpt lat="39.39943972752812" lon="8.405985780112422"><ele>170.0</ele><time>2026-05-01T09:12:24.999Z</time></trkpt><trkpt lat="39.39956374761261" lon="8.405983715352281"><ele>170.0</ele><time>2026-05-01T09:12:25.999Z</time></trkpt><trkpt lat="39.39968789916964" lon="8.405954631047404"><ele>172.5</ele><time>2026-05-01T09:12:26.999Z</time></trkpt><trkpt lat="39.39980670361537" lon="8.405888774932285"><ele>175.0</ele><time>2026-05-01T09:12:27.999Z</time></trkpt><trkpt lat="39.3999131914477" lon="8.405799311221198"><ele>177.5</ele><time>2026-05-01T09:12:28.999Z</time></trkpt><trkpt lat="39.40001749069442" lon="8.405712840904286"><ele>180.0</ele><time>2026-05-01T09:12:29.999Z</time></trkpt><trkpt lat="39.40012059240581" lon="8.405644229917216"><ele>180.0</ele><time>2026-05-01T09:12:30.999Z</time></trkpt><trkpt lat="39.40022533030593" lon="8.405652118831354"><ele>180.0</ele><time>2026-05-01T09:12:31.999Z</time></trkpt><trkpt lat="39.4003338554259" lon="8.405625412044362"><ele>180.0</ele><time>2026-05-01T09:12:32.999Z</time></trkpt><trkpt lat="39.4004479958379" lon="8.4056490581026"><ele>180.0</ele><time>2026-05-01T09:12:33.999Z</time></trkpt><trkpt lat="39.400562356804" lon="8.405671445642472"><ele>180.0</ele><time>2026-05-01T09:12:34.999Z</time></trkpt><trkpt lat="39.400670946177385" lon="8.405698477382177"><ele>181.6</ele><time>2026-05-01T09:12:35.999Z</time></trkpt><trkpt lat="39.40076734386426" lon="8.405755842957817"><ele>183.2</ele><time>2026-05-01T09:12:36.999Z</time></trkpt><trkpt lat="39.40086511886028" lon="8.405802727730464"><ele>184.8</ele><time>2026-05-01T09:12:37.999Z</time></trkpt><trkpt lat="39.40096130688625" lon="8.405858636105538"><ele>186.4</ele><time>2026-05-01T09:12:38.999Z</time></trkpt><trkpt lat="39.40106195682894" lon="8.405920311974528"><ele>188.0</ele><time>2026-05-01T09:12:39.999Z</time></trkpt><trkpt lat="39.401158155556715" lon="8.405988722313236"><ele>188.0</ele><time>2026-05-01T09:12:40.999Z</time></trkpt><trkpt lat="39.40125149471471" lon="8.40606133317954"><ele>188.0</ele><time>2026-05-01T09:12:41.999Z</time></trkpt><trkpt lat="39.401348336857055" lon="8.406136361305576"><ele>188.0</ele><time>2026-05-01T09:12:42.999Z</time></trkpt><trkpt lat="39.4014458056401" lon="8.40621653582472"><ele>188.0</ele><time>2026-05-01T09:12:43.999Z</time></trkpt><trkpt lat="39.40153687681067" lon="8.406314934454594"><ele>192.25</ele><time>2026-05-01T09:12:44.999Z</time></trkpt><trkpt lat="39.401622722765424" lon="8.406427423614135"><ele>196.5</ele><time>2026-05-01T09:12:45.999Z</time></trkpt><trkpt lat="39.401719714580885" lon="8.406525226863437"><ele>200.75</ele><time>2026-05-01T09:12:46.999Z</time></trkpt><trkpt lat="39.40180174781321" lon="8.406639357870901"><ele>205.0</ele><time>2026-05-01T09:12:47.999Z</time></trkpt><trkpt lat="39.40186573290413" lon="8.406766971279565"><ele>205.0</ele><time>2026-05-01T09:12:48.999Z</time></trkpt><trkpt lat="39.401920584254384" lon="8.406899791617375"><ele>205.0</ele><time>2026-05-01T09:12:49.999Z</time></trkpt><trkpt lat="39.40197026208587" lon="8.40703245430789"><ele>205.0</ele><time>2026-05-01T09:12:50.999Z</time></trkpt><trkpt lat="39.402016259283556" lon="8.407149928133576"><ele>205.0</ele><time>2026-05-01T09:12:51.999Z</time></trkpt><trkpt lat="39.402084900797256" lon="8.407216490859454"><ele>205.0</ele><time>2026-05-01T09:12:52.999Z</time></trkpt><trkpt lat="39.402156295132606" lon="8.40725678847269"><ele>204.0</ele><time>2026-05-01T09:12:53.999Z</time></trkpt><trkpt lat="39.40224725728679" lon="8.40724720335802"><ele>203.0</ele><time>2026-05-01T09:12:54.999Z</time></trkpt><trkpt lat="39.40233237568285" lon="8.407184898138217"><ele>202.0</ele><time>2026-05-01T09:12:55.999Z</time></trkpt><trkpt lat="39.402402560461994" lon="8.407082040484875"><ele>201.0</ele><time>2026-05-01T09:12:56.999Z</time></trkpt><trkpt lat="39.40247882047488" lon="8.4069702253593"><ele>200.0</ele><time>2026-05-01T09:12:57.999Z</time></trkpt><trkpt lat="39.40256118745662" lon="8.406871363352947"><ele>200.00000000000003</ele><time>2026-05-01T09:12:58.999Z</time></trkpt><trkpt lat="39.40263889692844" lon="8.406774558961613"><ele>200.0</ele><time>2026-05-01T09:12:59.999Z</time></trkpt><trkpt lat="39.40269970719982" lon="8.40669007233587"><ele>200.0</ele><time>2026-05-01T09:13:00.999Z</time></trkpt><trkpt lat="39.40276454885197" lon="8.406638374909596"><ele>200.0</ele><time>2026-05-01T09:13:01.999Z</time></trkpt><trkpt lat="39.40284002967839" lon="8.406653105128537"><ele>200.00000000000003</ele><time>2026-05-01T09:13:02.999Z</time></trkpt><trkpt lat="39.40291847075486" lon="8.406690230222926"><ele>200.0</ele><time>2026-05-01T09:13:03.999Z</time></trkpt><trkpt lat="39.40301612242761" lon="8.40669683600642"><ele>201.6</ele><time>2026-05-01T09:13:04.999Z</time></trkpt><trkpt lat="39.4031089440203" lon="8.406732078843344"><ele>203.2</ele><time>2026-05-01T09:13:05.999Z</time></trkpt><trkpt lat="39.403201254115864" lon="8.406761723609543"><ele>204.8</ele><time>2026-05-01T09:13:06.999Z</time></trkpt><trkpt lat="39.40329856294384" lon="8.406790708200804"><ele>206.4</ele><time>2026-05-01T09:13:07.999Z</time></trkpt><trkpt lat="39.40339592924877" lon="8.406846236665569"><ele>208.0</ele><time>2026-05-01T09:13:08.999Z</time></trkpt><trkpt lat="39.403496650617" lon="8.406890502069453"><ele>208.0</ele><time>2026-05-01T09:13:09.999Z</time></trkpt><trkpt lat="39.40359930290628" lon="8.406925984292478"><ele>208.0</ele><time>2026-05-01T09:13:10.999Z</time></trkpt><trkpt lat="39.40369564439029" lon="8.40698857519773"><ele>208.0</ele><time>2026-05-01T09:13:11.999Z</time></trkpt><trkpt lat="39.40379538131127" lon="8.40705787013621"><ele>208.0</ele><time>2026-05-01T09:13:12.999Z</time></trkpt><trkpt lat="39.40388736729509" lon="8.407150251123518"><ele>208.0</ele><time>2026-05-01T09:13:13.999Z</time></trkpt><trkpt lat="39.40397835280931" lon="8.407242938847668"><ele>214.75</ele><time>2026-05-01T09:13:14.999Z</time></trkpt><trkpt lat="39.404061217764415" lon="8.407348052245288"><ele>221.5</ele><time>2026-05-01T09:13:15.999Z</time></trkpt><trkpt lat="39.40413827756222" lon="8.40746452629813"><ele>228.25</ele><time>2026-05-01T09:13:16.999Z</time></trkpt><trkpt lat="39.40420917522711" lon="8.407589330543596"><ele>235.0</ele><time>2026-05-01T09:13:17.999Z</time></trkpt><trkpt lat="39.40428428835096" lon="8.40769828887378"><ele>235.0</ele><time>2026-05-01T09:13:18.999Z</time></trkpt><trkpt lat="39.40437209006041" lon="8.407781180313172"><ele>235.0</ele><time>2026-05-01T09:13:19.999Z</time></trkpt><trkpt lat="39.404477700819015" lon="8.407808590850351"><ele>235.0</ele><time>2026-05-01T09:13:20.999Z</time></trkpt><trkpt lat="39.404580478367315" lon="8.407820909060364"><ele>235.0</ele><time>2026-05-01T09:13:21.999Z</time></trkpt><trkpt lat="39.404682630650214" lon="8.407815238498507"><ele>235.0</ele><time>2026-05-01T09:13:22.999Z</time></trkpt><trkpt lat="39.40477837355647" lon="8.407825674844563"><ele>231.49999999999997</ele><time>2026-05-01T09:13:23.999Z</time></trkpt><trkpt lat="39.40486380861207" lon="8.40785490090897"><ele>228.0</ele><time>2026-05-01T09:13:24.999Z</time></trkpt><trkpt lat="39.40495325598724" lon="8.407869655410565"><ele>224.5</ele><time>2026-05-01T09:13:25.999Z</time></trkpt><trkpt lat="39.40501320584127" lon="8.407945841845565"><ele>221.0</ele><time>2026-05-01T09:13:26.999Z</time></trkpt><trkpt lat="39.40505271460197" lon="8.408039590551914"><ele>217.49999999999997</ele><time>2026-05-01T09:13:27.999Z</time></trkpt><trkpt lat="39.40510894118637" lon="8.408141023857999"><ele>214.0</ele><time>2026-05-01T09:13:28.999Z</time></trkpt><trkpt lat="39.405182227217665" lon="8.408228913654563"><ele>222.6</ele><time>2026-05-01T09:13:29.999Z</time></trkpt><trkpt lat="39.40523722938275" lon="8.408334017208128"><ele>231.2</ele><time>2026-05-01T09:13:30.999Z</time></trkpt><trkpt lat="39.405278191981395" lon="8.408446010932275"><ele>239.79999999999998</ele><time>2026-05-01T09:13:31.999Z</time></trkpt><trkpt lat="39.405319049804454" lon="8.408563529015323"><ele>248.39999999999998</ele><time>2026-05-01T09:13:32.999Z</time></trkpt><trkpt lat="39.40537079466022" lon="8.408659850971002"><ele>257.0</ele><time>2026-05-01T09:13:33.999Z</time></trkpt><trkpt lat="39.405456342987264" lon="8.408721658080522"><ele>254.16666666666669</ele><time>2026-05-01T09:13:34.999Z</time></trkpt><trkpt lat="39.405524895689716" lon="8.408793100221763"><ele>251.33333333333334</ele><time>2026-05-01T09:13:36Z</time></trkpt><trkpt lat="39.405569006010325" lon="8.408887778820084"><ele>248.5</ele><time>2026-05-01T09:13:37Z</time></trkpt><trkpt lat="39.405618150783674" lon="8.408968830327474"><ele>245.66666666666669</ele><time>2026-05-01T09:13:38Z</time></trkpt><trkpt lat="39.40566738063681" lon="8.409058796579412"><ele>242.83333333333334</ele><time>2026-05-01T09:13:39Z</time></trkpt><trkpt lat="39.40570867069225" lon="8.409159376664075"><ele>240.0</ele><time>2026-05-01T09:13:40Z</time></trkpt><trkpt lat="39.40572986826229" lon="8.409266968057686"><ele>240.0</ele><time>2026-05-01T09:13:41Z</time></trkpt><trkpt lat="39.40577001594103" lon="8.409375816645882"><ele>240.0</ele><time>2026-05-01T09:13:42Z</time></trkpt><trkpt lat="39.40585261387244" lon="8.409448532142743"><ele>240.0</ele><time>2026-05-01T09:13:43Z</time></trkpt><trkpt lat="39.40592784098907" lon="8.409516052869401"><ele>240.0</ele><time>2026-05-01T09:13:44Z</time></trkpt><trkpt lat="39.4059491669701" lon="8.409611211839394"><ele>240.0</ele><time>2026-05-01T09:13:45Z</time></trkpt><trkpt lat="39.40596362793898" lon="8.409692679497791"><ele>240.0</ele><time>2026-05-01T09:13:46Z</time></trkpt><trkpt lat="39.405976818082614" lon="8.409778004530203"><ele>244.83333333333334</ele><time>2026-05-01T09:13:47Z</time></trkpt><trkpt lat="39.40600577117332" lon="8.409872292925522"><ele>249.66666666666669</ele><time>2026-05-01T09:13:48Z</time></trkpt><trkpt lat="39.4060478262511" lon="8.409960979852997"><ele>254.5</ele><time>2026-05-01T09:13:49Z</time></trkpt><trkpt lat="39.40614254470473" lon="8.410000739734684"><ele>259.33333333333337</ele><time>2026-05-01T09:13:50Z</time></trkpt><trkpt lat="39.406219147522535" lon="8.410050861877956"><ele>264.1666666666667</ele><time>2026-05-01T09:13:51Z</time></trkpt><trkpt lat="39.40625570646361" lon="8.410132339507008"><ele>269.0</ele><time>2026-05-01T09:13:52Z</time></trkpt><trkpt lat="39.40632640262602" lon="8.41024434522303"><ele>271.0</ele><time>2026-05-01T09:13:54Z</time></trkpt><trkpt lat="39.40635421564943" lon="8.410347051616018"><ele>273.0</ele><time>2026-05-01T09:13:56Z</time></trkpt><trkpt lat="39.4063687123391" lon="8.410431339368538"><ele>275.0</ele><time>2026-05-01T09:13:58Z</time></trkpt><trkpt lat="39.40635253001752" lon="8.410544246586545"><ele>277.0</ele><time>2026-05-01T09:16:41.999Z</time></trkpt><trkpt lat="39.40631536284218" lon="8.410656904102497"><ele>279.0</ele><time>2026-05-01T09:16:42.999Z</time></trkpt><trkpt lat="39.40629112960248" lon="8.410776033292262"><ele>281.0</ele><time>2026-05-01T09:16:43.999Z</time></trkpt><trkpt lat="39.40627365390771" lon="8.410901102567786"><ele>281.0</ele><time>2026-05-01T09:16:44.999Z</time></trkpt><trkpt lat="39.40624893918482" lon="8.41103350445379"><ele>281.0</ele><time>2026-05-01T09:16:45.999Z</time></trkpt><trkpt lat="39.40622950933326" lon="8.411170610730462"><ele>281.0</ele><time>2026-05-01T09:16:46.999Z</time></trkpt><trkpt lat="39.40620781737875" lon="8.41130419181403"><ele>281.0</ele><time>2026-05-01T09:16:47.999Z</time></trkpt><trkpt lat="39.40617060685535" lon="8.411420756973907"><ele>281.0</ele><time>2026-05-01T09:16:48.999Z</time></trkpt><trkpt lat="39.40612056526959" lon="8.411531096252443"><ele>279.0</ele><time>2026-05-01T09:16:49.999Z</time></trkpt><trkpt lat="39.406083242542124" lon="8.41165686119456"><ele>277.0</ele><time>2026-05-01T09:16:50.999Z</time></trkpt><trkpt lat="39.406008501075775" lon="8.411753625157202"><ele>275.0</ele><time>2026-05-01T09:16:51.999Z</time></trkpt><trkpt lat="39.40592312760083" lon="8.41184125121171"><ele>273.0</ele><time>2026-05-01T09:16:52.999Z</time></trkpt><trkpt lat="39.405841635022455" lon="8.411934517760338"><ele>271.0</ele><time>2026-05-01T09:16:53.999Z</time></trkpt><trkpt lat="39.40576358350766" lon="8.412030807250975"><ele>271.0</ele><time>2026-05-01T09:16:54.999Z</time></trkpt><trkpt lat="39.405677260925344" lon="8.412117948598128"><ele>271.0</ele><time>2026-05-01T09:16:55.999Z</time></trkpt><trkpt lat="39.405585225088686" lon="8.412194261338545"><ele>271.0</ele><time>2026-05-01T09:16:56.999Z</time></trkpt><trkpt lat="39.40549338291906" lon="8.412267510353965"><ele>271.0</ele><time>2026-05-01T09:16:57.999Z</time></trkpt><trkpt lat="39.405398589707" lon="8.412340672693274"><ele>271.0</ele><time>2026-05-01T09:16:58.999Z</time></trkpt><trkpt lat="39.405305328930645" lon="8.412418169493506"><ele>275.25</ele><time>2026-05-01T09:16:59.999Z</time></trkpt><trkpt lat="39.405205409883365" lon="8.412488122944637"><ele>279.5</ele><time>2026-05-01T09:17:00.999Z</time></trkpt><trkpt lat="39.40512190984326" lon="8.412590135291383"><ele>283.75</ele><time>2026-05-01T09:17:01.999Z</time></trkpt><trkpt lat="39.40505075320354" lon="8.412709350614984"><ele>288.0</ele><time>2026-05-01T09:17:02.999Z</time></trkpt><trkpt lat="39.404982285218814" lon="8.412823796330033"><ele>288.0</ele><time>2026-05-01T09:17:03.999Z</time></trkpt><trkpt lat="39.40491239163701" lon="8.412932894497372"><ele>288.0</ele><time>2026-05-01T09:17:04.999Z</time></trkpt><trkpt lat="39.404842284885014" lon="8.413051980411748"><ele>288.0</ele><time>2026-05-01T09:17:05.998Z</time></trkpt><trkpt lat="39.40478780472774" lon="8.413181079605765"><ele>288.0</ele><time>2026-05-01T09:17:06.998Z</time></trkpt><trkpt lat="39.40475778174688" lon="8.413317310729179"><ele>288.0</ele><time>2026-05-01T09:17:07.998Z</time></trkpt><trkpt lat="39.40476783756258" lon="8.41343930648003"><ele>286.6</ele><time>2026-05-01T09:17:08.998Z</time></trkpt><trkpt lat="39.404835737766" lon="8.413530921191924"><ele>285.20000000000005</ele><time>2026-05-01T09:17:09.998Z</time></trkpt><trkpt lat="39.40492171608812" lon="8.41357684346796"><ele>283.8</ele><time>2026-05-01T09:17:10.998Z</time></trkpt><trkpt lat="39.40502031607883" lon="8.413594243203551"><ele>282.40000000000003</ele><time>2026-05-01T09:17:11.998Z</time></trkpt><trkpt lat="39.40511843168542" lon="8.413635811400164"><ele>281.0</ele><time>2026-05-01T09:17:12.998Z</time></trkpt><trkpt lat="39.40522096418299" lon="8.41364904805002"><ele>281.0</ele><time>2026-05-01T09:17:13.998Z</time></trkpt><trkpt lat="39.40531380322665" lon="8.41369020526973"><ele>281.0</ele><time>2026-05-01T09:17:14.998Z</time></trkpt><trkpt lat="39.40538877601614" lon="8.413747073380012"><ele>281.0</ele><time>2026-05-01T09:17:15.998Z</time></trkpt><trkpt lat="39.40541624198819" lon="8.413856555054238"><ele>281.0</ele><time>2026-05-01T09:17:16.998Z</time></trkpt><trkpt lat="39.40542070661368" lon="8.41397973653329"><ele>281.0</ele><time>2026-05-01T09:17:17.998Z</time></trkpt><trkpt lat="39.405415637590835" lon="8.4141050611103"><ele>285.6</ele><time>2026-05-01T09:17:18.998Z</time></trkpt><trkpt lat="39.405410713007" lon="8.414239846243813"><ele>290.20000000000005</ele><time>2026-05-01T09:17:19.998Z</time></trkpt><trkpt lat="39.40540678296531" lon="8.41437618877749"><ele>294.79999999999995</ele><time>2026-05-01T09:17:20.998Z</time></trkpt><trkpt lat="39.40542173252363" lon="8.414507570650288"><ele>299.4</ele><time>2026-05-01T09:17:21.998Z</time></trkpt><trkpt lat="39.4054308199224" lon="8.414630077620243"><ele>304.0</ele><time>2026-05-01T09:17:22.998Z</time></trkpt><trkpt lat="39.40548996868366" lon="8.414725497720132"><ele>306.5</ele><time>2026-05-01T09:17:23.998Z</time></trkpt><trkpt lat="39.40558538718531" lon="8.414781630324303"><ele>309.0</ele><time>2026-05-01T09:17:24.998Z</time></trkpt><trkpt lat="39.4056953477365" lon="8.414796185437625"><ele>311.5</ele><time>2026-05-01T09:17:25.998Z</time></trkpt><trkpt lat="39.40580168730474" lon="8.414759192250086"><ele>314.0</ele><time>2026-05-01T09:17:26.998Z</time></trkpt><trkpt lat="39.40590813600346" lon="8.414672260129409"><ele>310.5</ele><time>2026-05-01T09:17:27.998Z</time></trkpt><trkpt lat="39.406019094878005" lon="8.414625291972309"><ele>307.0</ele><time>2026-05-01T09:17:28.998Z</time></trkpt><trkpt lat="39.406131259837515" lon="8.414599549701833"><ele>303.5</ele><time>2026-05-01T09:17:29.998Z</time></trkpt><trkpt lat="39.40624466985059" lon="8.414559754617336"><ele>300.0</ele><time>2026-05-01T09:17:30.998Z</time></trkpt><trkpt lat="39.406356450545346" lon="8.414507726112594"><ele>300.0</ele><time>2026-05-01T09:17:31.998Z</time></trkpt><trkpt lat="39.406472331057024" lon="8.414465643026482"><ele>300.0</ele><time>2026-05-01T09:17:32.998Z</time></trkpt><trkpt lat="39.40659000512618" lon="8.414422798053726"><ele>300.0</ele><time>2026-05-01T09:17:33.998Z</time></trkpt><trkpt lat="39.40670457711386" lon="8.414376496682754"><ele>300.0</ele><time>2026-05-01T09:17:34.998Z</time></trkpt><trkpt lat="39.406812446913" lon="8.414317030785659"><ele>300.0</ele><time>2026-05-01T09:17:35.998Z</time></trkpt><trkpt lat="39.40690106435191" lon="8.41427400134626"><ele>300.0</ele><time>2026-05-01T09:17:36.998Z</time></trkpt><trkpt lat="39.406984639650204" lon="8.414266086137271"><ele>300.0</ele><time>2026-05-01T09:17:37.998Z</time></trkpt><trkpt lat="39.40707822142235" lon="8.414307502599438"><ele>300.0</ele><time>2026-05-01T09:17:38.998Z</time></trkpt><trkpt lat="39.40718029720936" lon="8.414353328130964"><ele>300.0</ele><time>2026-05-01T09:17:39.998Z</time></trkpt><trkpt lat="39.40728107772664" lon="8.414370186064943"><ele>298.8333333333333</ele><time>2026-05-01T09:17:40.998Z</time></trkpt><trkpt lat="39.407378882834045" lon="8.414365752196172"><ele>297.6666666666667</ele><time>2026-05-01T09:17:41.998Z</time></trkpt><trkpt lat="39.40745244041587" lon="8.414386334337829"><ele>296.5</ele><time>2026-05-01T09:17:42.998Z</time></trkpt><trkpt lat="39.40750376998939" lon="8.414463601734463"><ele>295.33333333333337</ele><time>2026-05-01T09:17:43.998Z</time></trkpt><trkpt lat="39.407553492307215" lon="8.4145508180602"><ele>294.1666666666667</ele><time>2026-05-01T09:17:44.998Z</time></trkpt><trkpt lat="39.40759599531022" lon="8.414654151781363"><ele>293.0</ele><time>2026-05-01T09:17:45.998Z</time></trkpt><trkpt lat="39.40763133738194" lon="8.414759352475679"><ele>300.0</ele><time>2026-05-01T09:17:46.998Z</time></trkpt><trkpt lat="39.40765712022056" lon="8.414867370922567"><ele>307.0</ele><time>2026-05-01T09:17:47.999Z</time></trkpt><trkpt lat="39.40768917107673" lon="8.414992571013832"><ele>314.0</ele><time>2026-05-01T09:17:48.999Z</time></trkpt><trkpt lat="39.407749970833976" lon="8.415106779380839"><ele>321.0</ele><time>2026-05-01T09:17:49.999Z</time></trkpt><trkpt lat="39.4078002838553" lon="8.415225509013291"><ele>328.0</ele><time>2026-05-01T09:17:50.999Z</time></trkpt><trkpt lat="39.40786033014089" lon="8.41532692632272"><ele>328.0</ele><time>2026-05-01T09:17:51.999Z</time></trkpt><trkpt lat="39.407886809557084" lon="8.415432086228444"><ele>328.0</ele><time>2026-05-01T09:17:52.999Z</time></trkpt><trkpt lat="39.40784846374724" lon="8.415565268442178"><ele>328.0</ele><time>2026-05-01T09:17:53.999Z</time></trkpt><trkpt lat="39.40785371364825" lon="8.41570732114347"><ele>328.0</ele><time>2026-05-01T09:17:54.999Z</time></trkpt><trkpt lat="39.40784886614063" lon="8.415832779296238"><ele>328.0</ele><time>2026-05-01T09:17:55.999Z</time></trkpt><trkpt lat="39.40782057681357" lon="8.415932959651906"><ele>331.2</ele><time>2026-05-01T09:17:56.999Z</time></trkpt><trkpt lat="39.407774213264474" lon="8.416022424767156"><ele>334.4</ele><time>2026-05-01T09:17:57.999Z</time></trkpt><trkpt lat="39.40770920634324" lon="8.416116598930529"><ele>337.59999999999997</ele><time>2026-05-01T09:17:58.999Z</time></trkpt><trkpt lat="39.40768784778381" lon="8.41625050936149"><ele>340.79999999999995</ele><time>2026-05-01T09:17:59.999Z</time></trkpt><trkpt lat="39.407693112482015" lon="8.416394716920719"><ele>344.0</ele><time>2026-05-01T09:18:00.999Z</time></trkpt><trkpt lat="39.40767761245796" lon="8.416535808327309"><ele>344.0</ele><time>2026-05-01T09:18:01.999Z</time></trkpt><trkpt lat="39.40766540484522" lon="8.416674675446934"><ele>344.0</ele><time>2026-05-01T09:18:02.999Z</time></trkpt><trkpt lat="39.407654309681334" lon="8.416814338355541"><ele>344.0</ele><time>2026-05-01T09:18:03.999Z</time></trkpt><trkpt lat="39.407645297700945" lon="8.416942221107151"><ele>344.0</ele><time>2026-05-01T09:18:04.999Z</time></trkpt><trkpt lat="39.4076368886806" lon="8.417049260509192"><ele>344.0</ele><time>2026-05-01T09:18:05.999Z</time></trkpt><trkpt lat="39.40762746509118" lon="8.417152617117827"><ele>346.2</ele><time>2026-05-01T09:18:06.999Z</time></trkpt><trkpt lat="39.4076398687198" lon="8.417261950917096"><ele>348.4</ele><time>2026-05-01T09:18:07.999Z</time></trkpt><trkpt lat="39.407679590599244" lon="8.417349703203397"><ele>350.6</ele><time>2026-05-01T09:18:08.999Z</time></trkpt><trkpt lat="39.40776859696698" lon="8.417397232358201"><ele>352.8</ele><time>2026-05-01T09:18:09.999Z</time></trkpt><trkpt lat="39.407866187200426" lon="8.417418306558492"><ele>355.0</ele><time>2026-05-01T09:18:10.999Z</time></trkpt><trkpt lat="39.4079539545197" lon="8.417468701883136"><ele>350.16666666666663</ele><time>2026-05-01T09:18:11.999Z</time></trkpt><trkpt lat="39.40804246879283" lon="8.417504922603069"><ele>345.3333333333333</ele><time>2026-05-01T09:18:12.999Z</time></trkpt><trkpt lat="39.40812849485676" lon="8.417540125158132"><ele>340.5</ele><time>2026-05-01T09:18:13.999Z</time></trkpt><trkpt lat="39.40821079973021" lon="8.417572831819177"><ele>335.6666666666667</ele><time>2026-05-01T09:18:14.999Z</time></trkpt><trkpt lat="39.40829102107208" lon="8.41760411401505"><ele>330.83333333333337</ele><time>2026-05-01T09:18:15.999Z</time></trkpt><trkpt lat="39.40836706018907" lon="8.41764944619185"><ele>326.0</ele><time>2026-05-01T09:18:16.999Z</time></trkpt><trkpt lat="39.408451737092065" lon="8.41767249697401"><ele>326.0</ele><time>2026-05-01T09:18:17.999Z</time></trkpt><trkpt lat="39.408542679892356" lon="8.417671912848045"><ele>326.0</ele><time>2026-05-01T09:18:18.999Z</time></trkpt><trkpt lat="39.408625631379486" lon="8.417709980365295"><ele>326.0</ele><time>2026-05-01T09:18:19.999Z</time></trkpt><trkpt lat="39.4087104606979" lon="8.417741984562005"><ele>326.0</ele><time>2026-05-01T09:18:20.999Z</time></trkpt><trkpt lat="39.408792497308724" lon="8.41779399221217"><ele>326.0</ele><time>2026-05-01T09:18:21.999Z</time></trkpt><trkpt lat="39.40887436923582" lon="8.417851135466195"><ele>324.0</ele><time>2026-05-01T09:18:22.999Z</time></trkpt><trkpt lat="39.40894062057754" lon="8.417916229464396"><ele>322.0</ele><time>2026-05-01T09:18:23.999Z</time></trkpt><trkpt lat="39.40895561072624" lon="8.418007914705042"><ele>320.0</ele><time>2026-05-01T09:18:24.999Z</time></trkpt><trkpt lat="39.40897169409667" lon="8.418096135410325"><ele>318.0</ele><time>2026-05-01T09:18:25.999Z</time></trkpt><trkpt lat="39.40889679790368" lon="8.418191576273312"><ele>316.0</ele><time>2026-05-01T09:18:26.999Z</time></trkpt><trkpt lat="39.40884284376936" lon="8.4183001077398"><ele>314.0</ele><time>2026-05-01T09:18:27.999Z</time></trkpt><trkpt lat="39.40878807877386" lon="8.418407436179681"><ele>325.5</ele><time>2026-05-01T09:18:28.999Z</time></trkpt><trkpt lat="39.408730757205795" lon="8.418517323819357"><ele>337.0</ele><time>2026-05-01T09:18:29.999Z</time></trkpt><trkpt lat="39.408666322439636" lon="8.4186381811693"><ele>348.5</ele><time>2026-05-01T09:18:30.999Z</time></trkpt><trkpt lat="39.40860475359728" lon="8.418777064201922"><ele>360.0</ele><time>2026-05-01T09:18:31.999Z</time></trkpt><trkpt lat="39.40853570830817" lon="8.418913691201839"><ele>360.0</ele><time>2026-05-01T09:18:32.999Z</time></trkpt><trkpt lat="39.408483415623095" lon="8.419062929352748"><ele>360.0</ele><time>2026-05-01T09:18:33.999Z</time></trkpt><trkpt lat="39.40846023926207" lon="8.419224946897506"><ele>360.0</ele><time>2026-05-01T09:18:34.999Z</time></trkpt><trkpt lat="39.408443890656855" lon="8.419405842858183"><ele>360.0</ele><time>2026-05-01T09:18:35.999Z</time></trkpt><trkpt lat="39.40838712535893" lon="8.419578815173306"><ele>358.5</ele><time>2026-05-01T09:18:36.999Z</time></trkpt><trkpt lat="39.40832438412969" lon="8.41974959626308"><ele>357.0</ele><time>2026-05-01T09:18:37.999Z</time></trkpt><trkpt lat="39.40828426404088" lon="8.419899621218553"><ele>355.5</ele><time>2026-05-01T09:18:38.999Z</time></trkpt><trkpt lat="39.40827163127804" lon="8.420038554370198"><ele>354.0</ele><time>2026-05-01T09:18:39.999Z</time></trkpt><trkpt lat="39.40832393536066" lon="8.42015254141125"><ele>354.0</ele><time>2026-05-01T09:18:40.999Z</time></trkpt><trkpt lat="39.40837940789303" lon="8.420243774649853"><ele>354.0</ele><time>2026-05-01T09:18:41.999Z</time></trkpt><trkpt lat="39.40844707732021" lon="8.42033510752711"><ele>354.0</ele><time>2026-05-01T09:18:42.999Z</time></trkpt><trkpt lat="39.408482395514554" lon="8.420416399603951"><ele>354.0</ele><time>2026-05-01T09:18:43.999Z</time></trkpt><trkpt lat="39.40844202510703" lon="8.420488417926398"><ele>354.0</ele><time>2026-05-01T09:18:44.999Z</time></trkpt><trkpt lat="39.40831810834211" lon="8.420542428418518"><ele>351.0</ele><time>2026-05-01T09:18:46.999Z</time></trkpt><trkpt lat="39.408211402491965" lon="8.420616915421103"><ele>348.0</ele><time>2026-05-01T09:18:47.999Z</time></trkpt><trkpt lat="39.40811517166926" lon="8.420692045417791"><ele>345.0</ele><time>2026-05-01T09:18:48.999Z</time></trkpt><trkpt lat="39.40802223728055" lon="8.420752192523475"><ele>342.0</ele><time>2026-05-01T09:18:49.999Z</time></trkpt><trkpt lat="39.40793655804981" lon="8.420820863170974"><ele>339.0</ele><time>2026-05-01T09:18:50.999Z</time></trkpt><trkpt lat="39.40783000540684" lon="8.420917716530681"><ele>350.25</ele><time>2026-05-01T09:18:51.999Z</time></trkpt><trkpt lat="39.407705290600205" lon="8.421000318287309"><ele>361.5</ele><time>2026-05-01T09:18:52.999Z</time></trkpt><trkpt lat="39.40760373790971" lon="8.421100620902918"><ele>372.75</ele><time>2026-05-01T09:18:53.999Z</time></trkpt><trkpt lat="39.40751850014038" lon="8.421193709459844"><ele>384.0</ele><time>2026-05-01T09:18:54.999Z</time></trkpt><trkpt lat="39.40745100110817" lon="8.421288334032452"><ele>380.3333333333333</ele><time>2026-05-01T09:18:55.999Z</time></trkpt><trkpt lat="39.40740345207815" lon="8.421404123937482"><ele>376.6666666666667</ele><time>2026-05-01T09:18:56.999Z</time></trkpt><trkpt lat="39.407383752915926" lon="8.421531482048001"><ele>373.0</ele><time>2026-05-01T09:18:57.999Z</time></trkpt><trkpt lat="39.407394317901" lon="8.421648828585045"><ele>369.33333333333337</ele><time>2026-05-01T09:18:58.999Z</time></trkpt><trkpt lat="39.40741251134504" lon="8.421746574077597"><ele>365.6666666666667</ele><time>2026-05-01T09:18:59.999Z</time></trkpt><trkpt lat="39.40742396138106" lon="8.421837070525907"><ele>362.0</ele><time>2026-05-01T09:19:00.999Z</time></trkpt><trkpt lat="39.40743001232275" lon="8.421940304248668"><ele>362.0</ele><time>2026-05-01T09:19:01.999Z</time></trkpt><trkpt lat="39.40743388008232" lon="8.422042256620674"><ele>362.0</ele><time>2026-05-01T09:19:02.999Z</time></trkpt><trkpt lat="39.40743919287766" lon="8.422142918354186"><ele>362.0</ele><time>2026-05-01T09:19:03.999Z</time></trkpt><trkpt lat="39.40744094202091" lon="8.422243743235844"><ele>362.0</ele><time>2026-05-01T09:19:04.999Z</time></trkpt><trkpt lat="39.40743949879262" lon="8.422346230752655"><ele>362.0</ele><time>2026-05-01T09:19:05.999Z</time></trkpt><trkpt lat="39.40741040283888" lon="8.422442147946988"><ele>362.0</ele><time>2026-05-01T09:19:06.999Z</time></trkpt><trkpt lat="39.40738176384815" lon="8.422529243135447"><ele>361.20000000000005</ele><time>2026-05-01T09:19:07.999Z</time></trkpt><trkpt lat="39.40734919244863" lon="8.422631247589374"><ele>360.4</ele><time>2026-05-01T09:19:08.999Z</time></trkpt><trkpt lat="39.407281201793225" lon="8.422727147106254"><ele>359.6</ele><time>2026-05-01T09:19:09.999Z</time></trkpt><trkpt lat="39.40720809181682" lon="8.422846278592989"><ele>358.79999999999995</ele><time>2026-05-01T09:19:10.999Z</time></trkpt><trkpt lat="39.40713625104357" lon="8.422977094466175"><ele>358.0</ele><time>2026-05-01T09:19:11.999Z</time></trkpt><trkpt lat="39.4070680824137" lon="8.423123246375534"><ele>363.79999999999995</ele><time>2026-05-01T09:19:12.999Z</time></trkpt><trkpt lat="39.40700315646373" lon="8.42325953107812"><ele>369.6</ele><time>2026-05-01T09:19:13.999Z</time></trkpt><trkpt lat="39.40696144410773" lon="8.423369795499092"><ele>375.4</ele><time>2026-05-01T09:19:14.999Z</time></trkpt><trkpt lat="39.406922160117894" lon="8.423457629346522"><ele>381.20000000000005</ele><time>2026-05-01T09:19:15.999Z</time></trkpt><trkpt lat="39.4068280904089" lon="8.423515914227597"><ele>387.0</ele><time>2026-05-01T09:19:17.998Z</time></trkpt><trkpt lat="39.40676458923525" lon="8.423479518356567"><ele>387.0</ele><time>2026-05-01T09:19:18.998Z</time></trkpt><trkpt lat="39.406699539058515" lon="8.423477762812022"><ele>387.0</ele><time>2026-05-01T09:19:19.998Z</time></trkpt><trkpt lat="39.40663502391384" lon="8.423446793011408"><ele>387.0</ele><time>2026-05-01T09:19:20.998Z</time></trkpt><trkpt lat="39.406569972240696" lon="8.423419462832737"><ele>387.0</ele><time>2026-05-01T09:19:21.998Z</time></trkpt><trkpt lat="39.406499275668715" lon="8.423395393361275"><ele>387.0</ele><time>2026-05-01T09:19:22.998Z</time></trkpt><trkpt lat="39.40642553490624" lon="8.42338341731854"><ele>387.0</ele><time>2026-05-01T09:19:23.998Z</time></trkpt><trkpt lat="39.40634932671286" lon="8.423374481404876"><ele>387.0</ele><time>2026-05-01T09:19:24.998Z</time></trkpt><trkpt lat="39.406271530330095" lon="8.42337450467187"><ele>389.1666666666667</ele><time>2026-05-01T09:19:25.998Z</time></trkpt><trkpt lat="39.40619214789519" lon="8.423387186355862"><ele>391.33333333333337</ele><time>2026-05-01T09:19:26.998Z</time></trkpt><trkpt lat="39.406114119815776" lon="8.42340540328272"><ele>393.5</ele><time>2026-05-01T09:19:27.998Z</time></trkpt><trkpt lat="39.406037791555725" lon="8.423429108518498"><ele>395.6666666666667</ele><time>2026-05-01T09:19:28.998Z</time></trkpt><trkpt lat="39.40596448834864" lon="8.423459397515531"><ele>397.83333333333337</ele><time>2026-05-01T09:19:29.998Z</time></trkpt><trkpt lat="39.4059044602032" lon="8.423492316441006"><ele>400.0</ele><time>2026-05-01T09:19:30.998Z</time></trkpt><trkpt lat="39.40580067985771" lon="8.423561066473901"><ele>400.00000000000006</ele><time>2026-05-01T09:19:32.998Z</time></trkpt><trkpt lat="39.40571828458386" lon="8.42362038352893"><ele>400.0</ele><time>2026-05-01T09:19:34.998Z</time></trkpt><trkpt lat="39.40563095922591" lon="8.423699468441473"><ele>400.0</ele><time>2026-05-01T09:19:36.998Z</time></trkpt><trkpt lat="39.40552406943081" lon="8.423762400845073"><ele>400.0</ele><time>2026-05-01T09:19:38.998Z</time></trkpt><trkpt lat="39.40546371399543" lon="8.423787999318373"><ele>400.00000000000006</ele><time>2026-05-01T09:19:39.998Z</time></trkpt><trkpt lat="39.405400185779" lon="8.423812236773085"><ele>400.0</ele><time>2026-05-01T09:19:40.998Z</time></trkpt><trkpt lat="39.405333996758614" lon="8.423830097087592"><ele>400.14285714285717</ele><time>2026-05-01T09:19:41.998Z</time></trkpt><trkpt lat="39.40527005628717" lon="8.423860216018502"><ele>400.2857142857143</ele><time>2026-05-01T09:19:42.998Z</time></trkpt><trkpt lat="39.405211967030574" lon="8.423916983075207"><ele>400.42857142857144</ele><time>2026-05-01T09:19:43.998Z</time></trkpt><trkpt lat="39.40516631741931" lon="8.423998069665217"><ele>400.57142857142856</ele><time>2026-05-01T09:19:44.998Z</time></trkpt><trkpt lat="39.40513622664119" lon="8.424090013069113"><ele>400.7142857142857</ele><time>2026-05-01T09:19:45.998Z</time></trkpt><trkpt lat="39.40512305662968" lon="8.424189206353528"><ele>400.8571428571429</ele><time>2026-05-01T09:19:46.998Z</time></trkpt><trkpt lat="39.40511706972437" lon="8.424285703596931"><ele>401.0</ele><time>2026-05-01T09:19:47.998Z</time></trkpt><trkpt lat="39.405119784039705" lon="8.424381987919938"><ele>400.99999999999994</ele><time>2026-05-01T09:19:48.998Z</time></trkpt><trkpt lat="39.40511804311341" lon="8.424479251359376"><ele>401.0</ele><time>2026-05-01T09:19:49.998Z</time></trkpt><trkpt lat="39.40510822341778" lon="8.424574192324647"><ele>401.0</ele><time>2026-05-01T09:19:50.998Z</time></trkpt><trkpt lat="39.40508870157271" lon="8.42466952823948"><ele>401.0</ele><time>2026-05-01T09:19:51.998Z</time></trkpt><trkpt lat="39.40506587436307" lon="8.424764314565055"><ele>400.99999999999994</ele><time>2026-05-01T09:19:52.998Z</time></trkpt><trkpt lat="39.405014284567585" lon="8.42484766809346"><ele>401.0</ele><time>2026-05-01T09:19:53.999Z</time></trkpt><trkpt lat="39.40498903320901" lon="8.424952256811826"><ele>401.5</ele><time>2026-05-01T09:19:54.999Z</time></trkpt><trkpt lat="39.40493192734194" lon="8.425047999260896"><ele>402.0</ele><time>2026-05-01T09:19:55.999Z</time></trkpt><trkpt lat="39.40487341692538" lon="8.425159621352282"><ele>402.5</ele><time>2026-05-01T09:19:56.999Z</time></trkpt><trkpt lat="39.40480270629043" lon="8.425279414895876"><ele>403.0</ele><time>2026-05-01T09:19:57.999Z</time></trkpt><trkpt lat="39.40471289121685" lon="8.425429837784106"><ele>406.0</ele><time>2026-05-01T09:19:58.999Z</time></trkpt><trkpt lat="39.40460444107369" lon="8.42561499714641"><ele>409.0</ele><time>2026-05-01T09:19:59.999Z</time></trkpt><trkpt lat="39.40447670006985" lon="8.425766764995412"><ele>412.0</ele><time>2026-05-01T09:20:00.999Z</time></trkpt><trkpt lat="39.4043509587847" lon="8.425932483585367"><ele>412.0</ele><time>2026-05-01T09:20:01.999Z</time></trkpt><trkpt lat="39.404230021070624" lon="8.426070596989847"><ele>412.0</ele><time>2026-05-01T09:20:02.999Z</time></trkpt><trkpt lat="39.404144869689915" lon="8.426182210139336"><ele>412.0</ele><time>2026-05-01T09:20:03.999Z</time></trkpt><trkpt lat="39.4040786542111" lon="8.42626625211541"><ele>412.0</ele><time>2026-05-01T09:20:04.999Z</time></trkpt><trkpt lat="39.404045232196104" lon="8.426360557930956"><ele>411.6666666666667</ele><time>2026-05-01T09:20:05.999Z</time></trkpt><trkpt lat="39.404050793364895" lon="8.42646970352193"><ele>411.33333333333337</ele><time>2026-05-01T09:20:06.999Z</time></trkpt><trkpt lat="39.404083873158456" lon="8.426571673926382"><ele>411.0</ele><time>2026-05-01T09:20:07.999Z</time></trkpt><trkpt lat="39.40414870835503" lon="8.426651274750308"><ele>410.66666666666663</ele><time>2026-05-01T09:20:08.999Z</time></trkpt><trkpt lat="39.40423370562424" lon="8.426711766521384"><ele>410.3333333333333</ele><time>2026-05-01T09:20:09.999Z</time></trkpt><trkpt lat="39.40428241098288" lon="8.426776548872574"><ele>410.0</ele><time>2026-05-01T09:20:10.999Z</time></trkpt><trkpt lat="39.40428445418888" lon="8.426912204940065"><ele>410.0</ele><time>2026-05-01T09:20:12.999Z</time></trkpt><trkpt lat="39.404305502565435" lon="8.427031427554434"><ele>410.0</ele><time>2026-05-01T09:20:13.999Z</time></trkpt><trkpt lat="39.404314943566774" lon="8.427163219713155"><ele>410.0</ele><time>2026-05-01T09:20:14.999Z</time></trkpt><trkpt lat="39.40431789065952" lon="8.427323428674908"><ele>410.0</ele><time>2026-05-01T09:20:15.999Z</time></trkpt><trkpt lat="39.40433544176715" lon="8.427515181452897"><ele>414.0</ele><time>2026-05-01T09:20:16.999Z</time></trkpt><trkpt lat="39.40435419683593" lon="8.427720087971034"><ele>418.0</ele><time>2026-05-01T09:20:17.999Z</time></trkpt><trkpt lat="39.40449230462937" lon="8.427888976152532"><ele>422.0</ele><time>2026-05-01T09:20:18.999Z</time></trkpt><trkpt lat="39.40451266751034" lon="8.428068720243546"><ele>429.3333333333333</ele><time>2026-05-01T09:20:19.999Z</time></trkpt><trkpt lat="39.40453333403085" lon="8.428267081455827"><ele>436.66666666666663</ele><time>2026-05-01T09:20:20.999Z</time></trkpt><trkpt lat="39.40456099232308" lon="8.428458994936305"><ele>444.0</ele><time>2026-05-01T09:20:21.999Z</time></trkpt><trkpt lat="39.40460156821281" lon="8.428681659519762"><ele>444.5</ele><time>2026-05-01T09:20:22.999Z</time></trkpt><trkpt lat="39.40462991476043" lon="8.428885861440918"><ele>445.0</ele><time>2026-05-01T09:20:23.999Z</time></trkpt><trkpt lat="39.40464123204877" lon="8.429044605216824"><ele>445.5</ele><time>2026-05-01T09:20:24.999Z</time></trkpt><trkpt lat="39.404651134214525" lon="8.4291608322258"><ele>446.0</ele><time>2026-05-01T09:20:25.999Z</time></trkpt><trkpt lat="39.4046860051079" lon="8.429277150601482"><ele>446.0</ele><time>2026-05-01T09:20:26.999Z</time></trkpt><trkpt lat="39.40473945498254" lon="8.42940872952396"><ele>446.0</ele><time>2026-05-01T09:20:27.999Z</time></trkpt><trkpt lat="39.40480745942062" lon="8.429582150020128"><ele>446.0</ele><time>2026-05-01T09:20:28.999Z</time></trkpt><trkpt lat="39.404886069116685" lon="8.429760254888793"><ele>446.0</ele><time>2026-05-01T09:20:29.999Z</time></trkpt><trkpt lat="39.40497526517084" lon="8.429958739502089"><ele>448.25</ele><time>2026-05-01T09:20:30.999Z</time></trkpt><trkpt lat="39.40504704796653" lon="8.430145462360002"><ele>450.5</ele><time>2026-05-01T09:20:31.999Z</time></trkpt><trkpt lat="39.40510713125485" lon="8.430289666483306"><ele>452.75</ele><time>2026-05-01T09:20:32.999Z</time></trkpt><trkpt lat="39.40517657235554" lon="8.430424156106843"><ele>455.0</ele><time>2026-05-01T09:20:33.999Z</time></trkpt><trkpt lat="39.40523067268266" lon="8.43053158277567"><ele>456.5</ele><time>2026-05-01T09:20:34.999Z</time></trkpt><trkpt lat="39.405270436831636" lon="8.430659342039908"><ele>458.0</ele><time>2026-05-01T09:20:35.999Z</time></trkpt><trkpt lat="39.40530780779047" lon="8.430814395066756"><ele>459.5</ele><time>2026-05-01T09:20:36.999Z</time></trkpt><trkpt lat="39.40535243252422" lon="8.430991980565768"><ele>461.0</ele><time>2026-05-01T09:20:37.999Z</time></trkpt><trkpt lat="39.405405872108055" lon="8.431156517178898"><ele>461.0</ele><time>2026-05-01T09:20:38.999Z</time></trkpt><trkpt lat="39.40545454968825" lon="8.43128449196135"><ele>461.0</ele><time>2026-05-01T09:20:39.999Z</time></trkpt><trkpt lat="39.40549032953269" lon="8.431372517051752"><ele>461.0</ele><time>2026-05-01T09:20:40.999Z</time></trkpt><trkpt lat="39.40550385828718" lon="8.431492646116032"><ele>461.0</ele><time>2026-05-01T09:20:42.999Z</time></trkpt><trkpt lat="39.405434071795234" lon="8.431627150992965"><ele>461.0</ele><time>2026-05-01T09:20:44.999Z</time></trkpt><trkpt lat="39.405366431738585" lon="8.431725646450964"><ele>462.25</ele><time>2026-05-01T09:20:45.999Z</time></trkpt><trkpt lat="39.40528430451025" lon="8.431829293362323"><ele>463.5</ele><time>2026-05-01T09:20:46.999Z</time></trkpt><trkpt lat="39.40519803367429" lon="8.43194366315975"><ele>464.75</ele><time>2026-05-01T09:20:47.999Z</time></trkpt><trkpt lat="39.40509700450294" lon="8.432067987706821"><ele>466.0</ele><time>2026-05-01T09:20:48.999Z</time></trkpt><trkpt lat="39.404994202002726" lon="8.43218637584794"><ele>468.0</ele><time>2026-05-01T09:20:49.999Z</time></trkpt><trkpt lat="39.4049099418104" lon="8.43227577872695"><ele>470.0</ele><time>2026-05-01T09:20:50.999Z</time></trkpt><trkpt lat="39.40485317615574" lon="8.432351465956618"><ele>472.0</ele><time>2026-05-01T09:20:51.999Z</time></trkpt><trkpt lat="39.40481054034879" lon="8.432462871906212"><ele>474.0</ele><time>2026-05-01T09:20:52.999Z</time></trkpt><trkpt lat="39.404782788768145" lon="8.432592801604446"><ele>476.0</ele><time>2026-05-01T09:20:53.999Z</time></trkpt><trkpt lat="39.404742908033526" lon="8.432709054280323"><ele>476.0</ele><time>2026-05-01T09:20:54.999Z</time></trkpt><trkpt lat="39.40468551932522" lon="8.432803190000783"><ele>476.0</ele><time>2026-05-01T09:20:55.999Z</time></trkpt><trkpt lat="39.404608223149" lon="8.43286866037356"><ele>476.0</ele><time>2026-05-01T09:20:56.999Z</time></trkpt><trkpt lat="39.40451529906941" lon="8.432927182400613"><ele>476.0</ele><time>2026-05-01T09:20:57.999Z</time></trkpt><trkpt lat="39.4044163199616" lon="8.432964951474455"><ele>476.0</ele><time>2026-05-01T09:20:58.999Z</time></trkpt><trkpt lat="39.40431066827217" lon="8.43298867433355"><ele>479.0</ele><time>2026-05-01T09:20:59.999Z</time></trkpt><trkpt lat="39.40419223043986" lon="8.433004841790982"><ele>482.0</ele><time>2026-05-01T09:21:00.999Z</time></trkpt><trkpt lat="39.40407000451743" lon="8.433030047171687"><ele>485.0</ele><time>2026-05-01T09:21:01.999Z</time></trkpt><trkpt lat="39.403953412536794" lon="8.433082130187486"><ele>488.0</ele><time>2026-05-01T09:21:02.999Z</time></trkpt><trkpt lat="39.403835039264685" lon="8.433135307039258"><ele>489.75</ele><time>2026-05-01T09:21:03.999Z</time></trkpt><trkpt lat="39.40371148397976" lon="8.433172103837657"><ele>491.5</ele><time>2026-05-01T09:21:04.999Z</time></trkpt><trkpt lat="39.40359212989282" lon="8.433209008876116"><ele>493.25</ele><time>2026-05-01T09:21:05.999Z</time></trkpt><trkpt lat="39.40347620682609" lon="8.433264128444945"><ele>495.0</ele><time>2026-05-01T09:21:06.999Z</time></trkpt><trkpt lat="39.403374190673766" lon="8.433342845289213"><ele>495.0</ele><time>2026-05-01T09:21:07.999Z</time></trkpt><trkpt lat="39.4032598893217" lon="8.433428248990152"><ele>495.0</ele><time>2026-05-01T09:21:08.999Z</time></trkpt><trkpt lat="39.40313398078124" lon="8.433508377902905"><ele>495.0</ele><time>2026-05-01T09:21:09.999Z</time></trkpt><trkpt lat="39.40300525088097" lon="8.433577238435314"><ele>495.0</ele><time>2026-05-01T09:21:10.999Z</time></trkpt><trkpt lat="39.402872205574816" lon="8.433631414772154"><ele>497.0</ele><time>2026-05-01T09:21:11.999Z</time></trkpt><trkpt lat="39.40273302232828" lon="8.433673603582651"><ele>499.0</ele><time>2026-05-01T09:21:12.999Z</time></trkpt><trkpt lat="39.40258806335242" lon="8.433700205759472"><ele>501.0</ele><time>2026-05-01T09:21:13.999Z</time></trkpt><trkpt lat="39.40244917882248" lon="8.433719690981665"><ele>503.0</ele><time>2026-05-01T09:21:14.999Z</time></trkpt><trkpt lat="39.40232107910382" lon="8.433748466853052"><ele>502.99999999999994</ele><time>2026-05-01T09:21:15.999Z</time></trkpt><trkpt lat="39.402213194861346" lon="8.43377278336487"><ele>503.0</ele><time>2026-05-01T09:21:16.999Z</time></trkpt><trkpt lat="39.402133777725155" lon="8.433795658536019"><ele>503.0</ele><time>2026-05-01T09:21:17.999Z</time></trkpt><trkpt lat="39.402068285793" lon="8.433887376931674"><ele>503.0</ele><time>2026-05-01T09:21:19.999Z</time></trkpt><trkpt lat="39.40206410116676" lon="8.433977101419947"><ele>502.99999999999994</ele><time>2026-05-01T09:21:20.999Z</time></trkpt><trkpt lat="39.40206709143107" lon="8.43409103558002"><ele>503.0</ele><time>2026-05-01T09:21:21.999Z</time></trkpt><trkpt lat="39.40209913011302" lon="8.434215943222478"><ele>503.75</ele><time>2026-05-01T09:21:22.999Z</time></trkpt><trkpt lat="39.402154886392" lon="8.434348633696427"><ele>504.5</ele><time>2026-05-01T09:21:23.999Z</time></trkpt><trkpt lat="39.402231840156674" lon="8.434499795993217"><ele>505.25</ele><time>2026-05-01T09:21:24.999Z</time></trkpt><trkpt lat="39.40230429783903" lon="8.434643965724502"><ele>506.0</ele><time>2026-05-01T09:21:25.999Z</time></trkpt><trkpt lat="39.40235631187394" lon="8.434782986276431"><ele>504.6</ele><time>2026-05-01T09:21:26.999Z</time></trkpt><trkpt lat="39.40237945763948" lon="8.434923736030507"><ele>503.20000000000005</ele><time>2026-05-01T09:21:27.999Z</time></trkpt><trkpt lat="39.40239421946694" lon="8.435071945209375"><ele>501.79999999999995</ele><time>2026-05-01T09:21:28.999Z</time></trkpt><trkpt lat="39.40240435181511" lon="8.435200578551072"><ele>500.4</ele><time>2026-05-01T09:21:29.999Z</time></trkpt><trkpt lat="39.40244173391067" lon="8.435301938938451"><ele>499.0</ele><time>2026-05-01T09:21:30.999Z</time></trkpt><trkpt lat="39.40250128429165" lon="8.435385859549964"><ele>499.0</ele><time>2026-05-01T09:21:31.999Z</time></trkpt><trkpt lat="39.40259114452646" lon="8.435467823976133"><ele>499.0</ele><time>2026-05-01T09:21:32.999Z</time></trkpt><trkpt lat="39.40269149662297" lon="8.435560121316701"><ele>499.0</ele><time>2026-05-01T09:21:33.999Z</time></trkpt><trkpt lat="39.40277837449108" lon="8.435655314961998"><ele>499.0</ele><time>2026-05-01T09:21:34.999Z</time></trkpt><trkpt lat="39.402846368609524" lon="8.43576775533177"><ele>500.5</ele><time>2026-05-01T09:21:35.999Z</time></trkpt><trkpt lat="39.40290997239242" lon="8.435902968255764"><ele>502.0</ele><time>2026-05-01T09:21:36.999Z</time></trkpt><trkpt lat="39.40297219867715" lon="8.436045348221052"><ele>503.5</ele><time>2026-05-01T09:21:37.999Z</time></trkpt><trkpt lat="39.40302586382598" lon="8.436184223959117"><ele>505.0</ele><time>2026-05-01T09:21:38.999Z</time></trkpt><trkpt lat="39.403090278284196" lon="8.436319434879008"><ele>498.75</ele><time>2026-05-01T09:21:39.998Z</time></trkpt><trkpt lat="39.40318243249167" lon="8.436447831774206"><ele>492.5</ele><time>2026-05-01T09:21:40.998Z</time></trkpt><trkpt lat="39.40328290847601" lon="8.436563773460897"><ele>486.25</ele><time>2026-05-01T09:21:41.998Z</time></trkpt><trkpt lat="39.403384170977255" lon="8.436672474193315"><ele>480.0</ele><time>2026-05-01T09:21:42.998Z</time></trkpt><trkpt lat="39.403487020942684" lon="8.436777267305686"><ele>480.0</ele><time>2026-05-01T09:21:43.998Z</time></trkpt><trkpt lat="39.403596307458656" lon="8.436889960417968"><ele>480.0</ele><time>2026-05-01T09:21:44.998Z</time></trkpt><trkpt lat="39.40370242260035" lon="8.436993151882769"><ele>480.0</ele><time>2026-05-01T09:21:45.998Z</time></trkpt><trkpt lat="39.40379120539844" lon="8.437052603389187"><ele>480.0</ele><time>2026-05-01T09:21:46.998Z</time></trkpt><trkpt lat="39.40386082451531" lon="8.437106234465041"><ele>479.6</ele><time>2026-05-01T09:21:47.998Z</time></trkpt><trkpt lat="39.40390191505874" lon="8.437180380115215"><ele>479.2</ele><time>2026-05-01T09:21:48.998Z</time></trkpt><trkpt lat="39.4039339035309" lon="8.437295652105984"><ele>478.79999999999995</ele><time>2026-05-01T09:21:49.998Z</time></trkpt><trkpt lat="39.403985678232075" lon="8.437429140485776"><ele>478.4</ele><time>2026-05-01T09:21:50.998Z</time></trkpt><trkpt lat="39.40402719406561" lon="8.437566996910661"><ele>478.0</ele><time>2026-05-01T09:21:51.998Z</time></trkpt><trkpt lat="39.40405485159245" lon="8.437705446069268"><ele>478.0</ele><time>2026-05-01T09:21:52.998Z</time></trkpt><trkpt lat="39.4040737490648" lon="8.437827182516905"><ele>477.99999999999994</ele><time>2026-05-01T09:21:53.998Z</time></trkpt><trkpt lat="39.40411239697512" lon="8.43793223496924"><ele>477.99999999999994</ele><time>2026-05-01T09:21:54.998Z</time></trkpt><trkpt lat="39.40416759851412" lon="8.438022623581128"><ele>478.0</ele><time>2026-05-01T09:21:55.998Z</time></trkpt><trkpt lat="39.404244317564974" lon="8.4381010069489"><ele>478.0</ele><time>2026-05-01T09:21:56.998Z</time></trkpt><trkpt lat="39.40430289961852" lon="8.438180447108625"><ele>476.2</ele><time>2026-05-01T09:21:57.998Z</time></trkpt><trkpt lat="39.40433815416575" lon="8.438274530678587"><ele>474.4</ele><time>2026-05-01T09:21:58.998Z</time></trkpt><trkpt lat="39.4043507536278" lon="8.438399120938062"><ele>472.59999999999997</ele><time>2026-05-01T09:22:00Z</time></trkpt><trkpt lat="39.40434480686714" lon="8.438534711351018"><ele>470.79999999999995</ele><time>2026-05-01T09:22:01Z</time></trkpt><trkpt lat="39.404336352972614" lon="8.43868849491512"><ele>469.0</ele><time>2026-05-01T09:22:02Z</time></trkpt><trkpt lat="39.40433435062679" lon="8.438840321055952"><ele>468.6666666666667</ele><time>2026-05-01T09:22:03Z</time></trkpt><trkpt lat="39.40432780381115" lon="8.438971961349914"><ele>468.33333333333337</ele><time>2026-05-01T09:22:04Z</time></trkpt><trkpt lat="39.40431776134835" lon="8.439083180067959"><ele>468.0</ele><time>2026-05-01T09:22:05Z</time></trkpt><trkpt lat="39.404308357361444" lon="8.439180592744659"><ele>467.66666666666663</ele><time>2026-05-01T09:22:06Z</time></trkpt><trkpt lat="39.40429783989582" lon="8.439288468121825"><ele>467.3333333333333</ele><time>2026-05-01T09:22:07Z</time></trkpt><trkpt lat="39.40428669778592" lon="8.439405755229048"><ele>467.0</ele><time>2026-05-01T09:22:08Z</time></trkpt><trkpt lat="39.404283592169236" lon="8.439532112055494"><ele>468.40000000000003</ele><time>2026-05-01T09:22:09Z</time></trkpt><trkpt lat="39.40429703121794" lon="8.439657801768755"><ele>469.80000000000007</ele><time>2026-05-01T09:22:10Z</time></trkpt><trkpt lat="39.40430655930299" lon="8.439764979809855"><ele>471.2</ele><time>2026-05-01T09:22:11Z</time></trkpt><trkpt lat="39.40429322971561" lon="8.439849937588798"><ele>472.6</ele><time>2026-05-01T09:22:12Z</time></trkpt><trkpt lat="39.40422484876794" lon="8.439962896574626"><ele>474.0</ele><time>2026-05-01T09:22:14Z</time></trkpt><trkpt lat="39.404094465714806" lon="8.439907746103838"><ele>474.0</ele><time>2026-05-01T09:22:16Z</time></trkpt><trkpt lat="39.40400908359055" lon="8.43985748296707"><ele>474.0</ele><time>2026-05-01T09:22:17Z</time></trkpt><trkpt lat="39.40389539566996" lon="8.439804767053092"><ele>474.0</ele><time>2026-05-01T09:22:18Z</time></trkpt><trkpt lat="39.403785369497946" lon="8.439743287929987"><ele>474.0</ele><time>2026-05-01T09:22:19Z</time></trkpt><trkpt lat="39.40367266125287" lon="8.439684612627882"><ele>472.79999999999995</ele><time>2026-05-01T09:22:20Z</time></trkpt><trkpt lat="39.403568783866255" lon="8.439619879914035"><ele>471.59999999999997</ele><time>2026-05-01T09:22:20.999Z</time></trkpt><trkpt lat="39.40347295724324" lon="8.439557588388661"><ele>470.4</ele><time>2026-05-01T09:22:21.999Z</time></trkpt><trkpt lat="39.40337930217142" lon="8.439532035627142"><ele>469.2</ele><time>2026-05-01T09:22:22.999Z</time></trkpt><trkpt lat="39.40329962580439" lon="8.43953215424429"><ele>468.0</ele><time>2026-05-01T09:22:23.999Z</time></trkpt><trkpt lat="39.40324082827697" lon="8.439575883282815"><ele>471.25</ele><time>2026-05-01T09:22:24.999Z</time></trkpt><trkpt lat="39.40319388655985" lon="8.43965200838603"><ele>474.5</ele><time>2026-05-01T09:22:25.999Z</time></trkpt><trkpt lat="39.40314480019941" lon="8.439788392637292"><ele>477.75</ele><time>2026-05-01T09:22:26.999Z</time></trkpt><trkpt lat="39.40310049336224" lon="8.439956560763752"><ele>481.0</ele><time>2026-05-01T09:22:27.999Z</time></trkpt><trkpt lat="39.40305651999621" lon="8.440126826883633"><ele>482.6</ele><time>2026-05-01T09:22:28.999Z</time></trkpt><trkpt lat="39.40299578939645" lon="8.440239472743574"><ele>484.20000000000005</ele><time>2026-05-01T09:22:29.999Z</time></trkpt><trkpt lat="39.40292142005448" lon="8.440312436327611"><ele>485.79999999999995</ele><time>2026-05-01T09:22:30.999Z</time></trkpt><trkpt lat="39.40285662578149" lon="8.44039918768287"><ele>487.4</ele><time>2026-05-01T09:22:31.999Z</time></trkpt><trkpt lat="39.40282006150425" lon="8.440521759122944"><ele>489.0</ele><time>2026-05-01T09:22:32.999Z</time></trkpt><trkpt lat="39.40280567063124" lon="8.440676248234102"><ele>490.0</ele><time>2026-05-01T09:22:33.999Z</time></trkpt><trkpt lat="39.40277573094433" lon="8.440817935352761"><ele>491.0</ele><time>2026-05-01T09:22:34.999Z</time></trkpt><trkpt lat="39.402730438947884" lon="8.44094587296825"><ele>492.0</ele><time>2026-05-01T09:22:35.999Z</time></trkpt><trkpt lat="39.402673589236464" lon="8.441067401397191"><ele>493.0</ele><time>2026-05-01T09:22:36.999Z</time></trkpt><trkpt lat="39.40262745937471" lon="8.44118975016898"><ele>494.0</ele><time>2026-05-01T09:22:37.999Z</time></trkpt><trkpt lat="39.40260035505651" lon="8.441331716228467"><ele>494.5</ele><time>2026-05-01T09:22:38.999Z</time></trkpt><trkpt lat="39.40257628404606" lon="8.441491576521294"><ele>495.0</ele><time>2026-05-01T09:22:39.999Z</time></trkpt><trkpt lat="39.40254535201442" lon="8.441670393145964"><ele>495.5</ele><time>2026-05-01T09:22:40.999Z</time></trkpt><trkpt lat="39.402519909065134" lon="8.441861828846886"><ele>496.0</ele><time>2026-05-01T09:22:41.999Z</time></trkpt><trkpt lat="39.402497251216914" lon="8.442020312629893"><ele>496.00000000000006</ele><time>2026-05-01T09:22:42.999Z</time></trkpt><trkpt lat="39.40247939780478" lon="8.442131533592166"><ele>496.0</ele><time>2026-05-01T09:22:43.999Z</time></trkpt><trkpt lat="39.40245768609626" lon="8.442217467361765"><ele>496.0</ele><time>2026-05-01T09:22:44.999Z</time></trkpt><trkpt lat="39.402417389710855" lon="8.442281229696096"><ele>496.0</ele><time>2026-05-01T09:22:45.999Z</time></trkpt><trkpt lat="39.40235599490883" lon="8.442326108688825"><ele>496.00000000000006</ele><time>2026-05-01T09:22:46.999Z</time></trkpt><trkpt lat="39.40228284337842" lon="8.442345739173565"><ele>496.0</ele><time>2026-05-01T09:22:47.999Z</time></trkpt><trkpt lat="39.40219620861221" lon="8.442338681814727"><ele>497.6</ele><time>2026-05-01T09:22:48.999Z</time></trkpt><trkpt lat="39.4021279155367" lon="8.442284393052297"><ele>499.20000000000005</ele><time>2026-05-01T09:22:49.999Z</time></trkpt><trkpt lat="39.4020391927755" lon="8.4422054775306"><ele>500.79999999999995</ele><time>2026-05-01T09:22:50.999Z</time></trkpt><trkpt lat="39.40192505168402" lon="8.442127126528398"><ele>502.4</ele><time>2026-05-01T09:22:51.999Z</time></trkpt><trkpt lat="39.401799659950555" lon="8.442077122071199"><ele>504.0</ele><time>2026-05-01T09:22:52.999Z</time></trkpt><trkpt lat="39.40166811808944" lon="8.44202092833393"><ele>504.0</ele><time>2026-05-01T09:22:53.999Z</time></trkpt><trkpt lat="39.401568266105436" lon="8.441965639952627"><ele>504.0</ele><time>2026-05-01T09:22:54.999Z</time></trkpt><trkpt lat="39.401484413047775" lon="8.441935453833485"><ele>504.0</ele><time>2026-05-01T09:22:55.999Z</time></trkpt><trkpt lat="39.40140720274338" lon="8.441948418753295"><ele>504.0</ele><time>2026-05-01T09:22:56.999Z</time></trkpt><trkpt lat="39.40131876808484" lon="8.44198648424374"><ele>504.0</ele><time>2026-05-01T09:22:57.999Z</time></trkpt><trkpt lat="39.40122714830779" lon="8.442031239947527"><ele>503.25</ele><time>2026-05-01T09:22:58.999Z</time></trkpt><trkpt lat="39.40112311849344" lon="8.442075856896166"><ele>502.5</ele><time>2026-05-01T09:22:59.999Z</time></trkpt><trkpt lat="39.401007235041995" lon="8.442137701025668"><ele>501.75</ele><time>2026-05-01T09:23:00.999Z</time></trkpt><trkpt lat="39.40088973983547" lon="8.442199559583228"><ele>501.0</ele><time>2026-05-01T09:23:01.999Z</time></trkpt><trkpt lat="39.40078588355332" lon="8.442259277278255"><ele>502.5</ele><time>2026-05-01T09:23:02.999Z</time></trkpt><trkpt lat="39.40068761489599" lon="8.442292402677165"><ele>504.0</ele><time>2026-05-01T09:23:03.999Z</time></trkpt><trkpt lat="39.4005752258815" lon="8.442303607791422"><ele>505.5</ele><time>2026-05-01T09:23:04.999Z</time></trkpt><trkpt lat="39.40044594821574" lon="8.44231681918108"><ele>507.0</ele><time>2026-05-01T09:23:05.999Z</time></trkpt><trkpt lat="39.400301326611896" lon="8.442335515237438"><ele>507.0</ele><time>2026-05-01T09:23:06.999Z</time></trkpt><trkpt lat="39.40017748412645" lon="8.442376607433422"><ele>507.0</ele><time>2026-05-01T09:23:07.999Z</time></trkpt><trkpt lat="39.40007092464243" lon="8.442401809878767"><ele>507.0</ele><time>2026-05-01T09:23:08.999Z</time></trkpt><trkpt lat="39.39996655632392" lon="8.4424215322537"><ele>507.0</ele><time>2026-05-01T09:23:09.999Z</time></trkpt><trkpt lat="39.399862222150084" lon="8.442457615155375"><ele>507.0</ele><time>2026-05-01T09:23:10.999Z</time></trkpt><trkpt lat="39.39975463056658" lon="8.442509929017866"><ele>507.0</ele><time>2026-05-01T09:23:11.999Z</time></trkpt><trkpt lat="39.39963983667719" lon="8.44254083024748"><ele>507.0</ele><time>2026-05-01T09:23:12.999Z</time></trkpt><trkpt lat="39.39951917544701" lon="8.442569313790324"><ele>507.0</ele><time>2026-05-01T09:23:13.999Z</time></trkpt><trkpt lat="39.399408471433375" lon="8.442595443594525"><ele>506.0</ele><time>2026-05-01T09:23:14.999Z</time></trkpt><trkpt lat="39.399302068637304" lon="8.44264178787671"><ele>505.0</ele><time>2026-05-01T09:23:15.999Z</time></trkpt><trkpt lat="39.39918395169956" lon="8.442717977945012"><ele>504.0</ele><time>2026-05-01T09:23:16.999Z</time></trkpt><trkpt lat="39.39905580551055" lon="8.442785809027178"><ele>503.0</ele><time>2026-05-01T09:23:17.999Z</time></trkpt><trkpt lat="39.398928905282176" lon="8.442849299633243"><ele>502.25</ele><time>2026-05-01T09:23:18.999Z</time></trkpt><trkpt lat="39.398818358577074" lon="8.442897767824808"><ele>501.5</ele><time>2026-05-01T09:23:19.999Z</time></trkpt><trkpt lat="39.39870775762142" lon="8.442928062189"><ele>500.75</ele><time>2026-05-01T09:23:20.999Z</time></trkpt><trkpt lat="39.398587871965724" lon="8.442934878328893"><ele>500.0</ele><time>2026-05-01T09:23:21.999Z</time></trkpt><trkpt lat="39.39844993055799" lon="8.44293789451618"><ele>505.5</ele><time>2026-05-01T09:23:22.999Z</time></trkpt><trkpt lat="39.39831222907544" lon="8.442969563597153"><ele>511.0</ele><time>2026-05-01T09:23:23.999Z</time></trkpt><trkpt lat="39.39817249421961" lon="8.443010498302941"><ele>516.5</ele><time>2026-05-01T09:23:24.999Z</time></trkpt><trkpt lat="39.3980345642489" lon="8.443061957896056"><ele>522.0</ele><time>2026-05-01T09:23:25.999Z</time></trkpt><trkpt lat="39.397892872562394" lon="8.443125164314496"><ele>522.0</ele><time>2026-05-01T09:23:26.999Z</time></trkpt><trkpt lat="39.397746260207605" lon="8.443181112214948"><ele>522.0</ele><time>2026-05-01T09:23:27.999Z</time></trkpt><trkpt lat="39.39759705458995" lon="8.443213261413527"><ele>522.0</ele><time>2026-05-01T09:23:28.999Z</time></trkpt><trkpt lat="39.39744231468711" lon="8.443250337227308"><ele>522.0</ele><time>2026-05-01T09:23:29.999Z</time></trkpt><trkpt lat="39.39730245462089" lon="8.443285632610772"><ele>522.0</ele><time>2026-05-01T09:23:30.999Z</time></trkpt><trkpt lat="39.397182655463496" lon="8.443312820825389"><ele>522.0</ele><time>2026-05-01T09:23:31.999Z</time></trkpt><trkpt lat="39.397076951934785" lon="8.443324408724317"><ele>522.0</ele><time>2026-05-01T09:23:32.999Z</time></trkpt><trkpt lat="39.396989568565715" lon="8.443357033519307"><ele>521.6</ele><time>2026-05-01T09:23:33.999Z</time></trkpt><trkpt lat="39.39691137532818" lon="8.443416705278773"><ele>521.2</ele><time>2026-05-01T09:23:34.999Z</time></trkpt><trkpt lat="39.39683212361093" lon="8.443511546379348"><ele>520.8</ele><time>2026-05-01T09:23:35.999Z</time></trkpt><trkpt lat="39.39674300639859" lon="8.443588976037478"><ele>520.4</ele><time>2026-05-01T09:23:36.999Z</time></trkpt><trkpt lat="39.39662961580785" lon="8.443653783637208"><ele>520.0</ele><time>2026-05-01T09:23:37.999Z</time></trkpt><trkpt lat="39.396522581837054" lon="8.443733978198278"><ele>518.75</ele><time>2026-05-01T09:23:38.999Z</time></trkpt><trkpt lat="39.39642712039219" lon="8.443802466567037"><ele>517.5</ele><time>2026-05-01T09:23:39.999Z</time></trkpt><trkpt lat="39.39633049727186" lon="8.443880361130194"><ele>516.25</ele><time>2026-05-01T09:23:40.999Z</time></trkpt><trkpt lat="39.39623832357244" lon="8.444003286279282"><ele>515.0</ele><time>2026-05-01T09:23:41.999Z</time></trkpt><trkpt lat="39.3961463031626" lon="8.444152522385119"><ele>515.0</ele><time>2026-05-01T09:23:42.999Z</time></trkpt><trkpt lat="39.39604839130656" lon="8.444306433263394"><ele>515.0</ele><time>2026-05-01T09:23:43.999Z</time></trkpt><trkpt lat="39.39596312473482" lon="8.444440260471643"><ele>515.0</ele><time>2026-05-01T09:23:44.999Z</time></trkpt><trkpt lat="39.395905597365434" lon="8.44457155575037"><ele>515.0</ele><time>2026-05-01T09:23:45.999Z</time></trkpt><trkpt lat="39.39584716504128" lon="8.444714241083284"><ele>517.2</ele><time>2026-05-01T09:23:46.999Z</time></trkpt><trkpt lat="39.39579020547655" lon="8.444847786213543"><ele>519.4</ele><time>2026-05-01T09:23:47.999Z</time></trkpt><trkpt lat="39.39574336117464" lon="8.444973345759966"><ele>521.6</ele><time>2026-05-01T09:23:49Z</time></trkpt><trkpt lat="39.39569121889687" lon="8.445096483551918"><ele>523.8</ele><time>2026-05-01T09:23:50Z</time></trkpt><trkpt lat="39.39564361994698" lon="8.445217512106677"><ele>526.0</ele><time>2026-05-01T09:23:51Z</time></trkpt><trkpt lat="39.395596205948564" lon="8.445329083447351"><ele>526.0</ele><time>2026-05-01T09:23:51.999Z</time></trkpt><trkpt lat="39.39554697548232" lon="8.445439474341267"><ele>526.0</ele><time>2026-05-01T09:23:52.999Z</time></trkpt><trkpt lat="39.39550057478557" lon="8.445558322316531"><ele>526.0</ele><time>2026-05-01T09:23:53.999Z</time></trkpt><trkpt lat="39.39545531352062" lon="8.445694057266342"><ele>526.0</ele><time>2026-05-01T09:23:54.999Z</time></trkpt><trkpt lat="39.395407240069325" lon="8.445827090218177"><ele>526.0</ele><time>2026-05-01T09:23:55.999Z</time></trkpt><trkpt lat="39.39534510337464" lon="8.445954252444583"><ele>523.8</ele><time>2026-05-01T09:23:56.999Z</time></trkpt><trkpt lat="39.39528889403189" lon="8.446068699512026"><ele>521.6</ele><time>2026-05-01T09:23:57.999Z</time></trkpt><trkpt lat="39.39522628034068" lon="8.44616748270845"><ele>519.4</ele><time>2026-05-01T09:23:58.999Z</time></trkpt><trkpt lat="39.39517383155072" lon="8.446257750169526"><ele>517.2</ele><time>2026-05-01T09:23:59.999Z</time></trkpt><trkpt lat="39.39511053746424" lon="8.446326999180247"><ele>515.0</ele><time>2026-05-01T09:24:00.999Z</time></trkpt><trkpt lat="39.39503611505432" lon="8.446373971764748"><ele>515.0</ele><time>2026-05-01T09:24:01.999Z</time></trkpt><trkpt lat="39.39493178844554" lon="8.446404685945991"><ele>515.0</ele><time>2026-05-01T09:24:02.999Z</time></trkpt><trkpt lat="39.39482779639149" lon="8.446442119099997"><ele>515.0</ele><time>2026-05-01T09:24:03.999Z</time></trkpt><trkpt lat="39.394735135902934" lon="8.44650399014349"><ele>515.0</ele><time>2026-05-01T09:24:04.999Z</time></trkpt><trkpt lat="39.39465484746319" lon="8.446543241305925"><ele>515.0</ele><time>2026-05-01T09:24:06.001Z</time></trkpt><trkpt lat="39.394572660989006" lon="8.446543389111971"><ele>512.25</ele><time>2026-05-01T09:24:07.001Z</time></trkpt><trkpt lat="39.394470640291836" lon="8.446507455010003"><ele>509.5</ele><time>2026-05-01T09:24:08.001Z</time></trkpt><trkpt lat="39.39435573079319" lon="8.446474214896499"><ele>506.75</ele><time>2026-05-01T09:24:09.001Z</time></trkpt><trkpt lat="39.39422484813204" lon="8.446448886871282"><ele>504.0</ele><time>2026-05-01T09:24:10.001Z</time></trkpt><trkpt lat="39.39408844877823" lon="8.446421870534907"><ele>504.0</ele><time>2026-05-01T09:24:11.001Z</time></trkpt><trkpt lat="39.39394737246952" lon="8.446385147118248"><ele>504.0</ele><time>2026-05-01T09:24:12.001Z</time></trkpt><trkpt lat="39.3938222034148" lon="8.446334549622001"><ele>504.0</ele><time>2026-05-01T09:24:13.001Z</time></trkpt><trkpt lat="39.39370296674603" lon="8.446306504820992"><ele>504.0</ele><time>2026-05-01T09:24:14.001Z</time></trkpt><trkpt lat="39.39357262766982" lon="8.446282432940759"><ele>503.6</ele><time>2026-05-01T09:24:15.001Z</time></trkpt><trkpt lat="39.39344040636721" lon="8.4462545476241"><ele>503.2</ele><time>2026-05-01T09:24:16.001Z</time></trkpt><trkpt lat="39.393325491927335" lon="8.446228624859819"><ele>502.80000000000007</ele><time>2026-05-01T09:24:17.001Z</time></trkpt><trkpt lat="39.393234120031515" lon="8.446228379147001"><ele>502.40000000000003</ele><time>2026-05-01T09:24:18.001Z</time></trkpt><trkpt lat="39.39315120155195" lon="8.446270873754894"><ele>502.0</ele><time>2026-05-01T09:24:19.001Z</time></trkpt><trkpt lat="39.39304176345183" lon="8.446330744671648"><ele>500.0</ele><time>2026-05-01T09:24:20.001Z</time></trkpt><trkpt lat="39.39291979984545" lon="8.446398751227337"><ele>498.0</ele><time>2026-05-01T09:24:21.001Z</time></trkpt><trkpt lat="39.39279286997778" lon="8.446482373886228"><ele>496.0</ele><time>2026-05-01T09:24:22.001Z</time></trkpt><trkpt lat="39.39266675923168" lon="8.446585418925885"><ele>494.0</ele><time>2026-05-01T09:24:23.001Z</time></trkpt><trkpt lat="39.39254160407159" lon="8.446672567032074"><ele>494.0</ele><time>2026-05-01T09:24:24.001Z</time></trkpt><trkpt lat="39.3924005989278" lon="8.446750745352896"><ele>494.0</ele><time>2026-05-01T09:24:25.001Z</time></trkpt><trkpt lat="39.39225856140997" lon="8.446819955078418"><ele>494.0</ele><time>2026-05-01T09:24:26.001Z</time></trkpt><trkpt lat="39.392125257705246" lon="8.446884362246974"><ele>494.0</ele><time>2026-05-01T09:24:27Z</time></trkpt><trkpt lat="39.39200121908125" lon="8.446951422133713"><ele>492.5</ele><time>2026-05-01T09:24:28Z</time></trkpt><trkpt lat="39.391869335695034" lon="8.447008997082518"><ele>491.0</ele><time>2026-05-01T09:24:29Z</time></trkpt><trkpt lat="39.391726320109214" lon="8.44703963508132"><ele>489.5</ele><time>2026-05-01T09:24:30Z</time></trkpt><trkpt lat="39.39159682176317" lon="8.447094013564307"><ele>488.0</ele><time>2026-05-01T09:24:31Z</time></trkpt><trkpt lat="39.39148067954448" lon="8.447177425466554"><ele>488.0</ele><time>2026-05-01T09:24:32Z</time></trkpt><trkpt lat="39.391348069754194" lon="8.44728052527612"><ele>488.0</ele><time>2026-05-01T09:24:33Z</time></trkpt><trkpt lat="39.39121794092684" lon="8.447359773907195"><ele>488.0</ele><time>2026-05-01T09:24:34Z</time></trkpt><trkpt lat="39.3910882050919" lon="8.447427227434067"><ele>488.0</ele><time>2026-05-01T09:24:35Z</time></trkpt><trkpt lat="39.39096117570485" lon="8.447485505366679"><ele>491.0</ele><time>2026-05-01T09:24:36Z</time></trkpt><trkpt lat="39.390825210735215" lon="8.447522901436226"><ele>494.0</ele><time>2026-05-01T09:24:37Z</time></trkpt><trkpt lat="39.3906880285825" lon="8.447555415106388"><ele>497.0</ele><time>2026-05-01T09:24:38Z</time></trkpt><trkpt lat="39.39057284930675" lon="8.447597440347657"><ele>500.0</ele><time>2026-05-01T09:24:39Z</time></trkpt><trkpt lat="39.390493791071705" lon="8.447620205683123"><ele>500.0</ele><time>2026-05-01T09:24:40Z</time></trkpt><trkpt lat="39.39041687732628" lon="8.447707176069196"><ele>500.0</ele><time>2026-05-01T09:24:42Z</time></trkpt><trkpt lat="39.39034931132218" lon="8.44780496215801"><ele>500.0</ele><time>2026-05-01T09:24:44Z</time></trkpt><trkpt lat="39.390265145698834" lon="8.447793222070892"><ele>500.0</ele><time>2026-05-01T09:24:46Z</time></trkpt><trkpt lat="39.390191482130795" lon="8.44777954319413"><ele>500.0</ele><time>2026-05-01T09:24:49Z</time></trkpt><trkpt lat="39.39008029346266" lon="8.44775239733869"><ele>499.99999999999994</ele><time>2026-05-01T09:24:50Z</time></trkpt><trkpt lat="39.39001540212984" lon="8.44770522484809"><ele>500.0</ele><time>2026-05-01T09:24:51Z</time></trkpt><trkpt lat="39.3899515495415" lon="8.44766558255333"><ele>500.0</ele><time>2026-05-01T09:24:52Z</time></trkpt><trkpt lat="39.38988969057488" lon="8.447629033008539"><ele>500.0</ele><time>2026-05-01T09:24:53Z</time></trkpt><trkpt lat="39.389809957761585" lon="8.447604385351102"><ele>499.99999999999994</ele><time>2026-05-01T09:24:54Z</time></trkpt><trkpt lat="39.389704695685744" lon="8.447583812740382"><ele>500.0</ele><time>2026-05-01T09:24:55Z</time></trkpt><trkpt lat="39.38960215261849" lon="8.447570504938797"><ele>497.99999999999994</ele><time>2026-05-01T09:24:56Z</time></trkpt><trkpt lat="39.38951222800755" lon="8.447561323524207"><ele>496.0</ele><time>2026-05-01T09:24:57Z</time></trkpt><trkpt lat="39.389419382919314" lon="8.447569395243331"><ele>494.0</ele><time>2026-05-01T09:24:58Z</time></trkpt><trkpt lat="39.389339604494914" lon="8.447628784747655"><ele>492.0</ele><time>2026-05-01T09:24:59Z</time></trkpt><trkpt lat="39.389259963814794" lon="8.447680254864391"><ele>489.99999999999994</ele><time>2026-05-01T09:25:00Z</time></trkpt><trkpt lat="39.38918242230081" lon="8.447700227273948"><ele>488.0</ele><time>2026-05-01T09:25:01Z</time></trkpt><trkpt lat="39.389101583841466" lon="8.447673532272994"><ele>488.0</ele><time>2026-05-01T09:25:02Z</time></trkpt><trkpt lat="39.3890361944781" lon="8.447633489643183"><ele>487.99999999999994</ele><time>2026-05-01T09:25:03Z</time></trkpt><trkpt lat="39.38892065207097" lon="8.447640790215223"><ele>487.99999999999994</ele><time>2026-05-01T09:25:05Z</time></trkpt><trkpt lat="39.388842093906014" lon="8.447679198488686"><ele>488.0</ele><time>2026-05-01T09:25:06Z</time></trkpt><trkpt lat="39.38873215719272" lon="8.447715152999248"><ele>488.0</ele><time>2026-05-01T09:25:07Z</time></trkpt><trkpt lat="39.388627874900216" lon="8.447753523178708"><ele>488.4</ele><time>2026-05-01T09:25:08Z</time></trkpt><trkpt lat="39.388503264811895" lon="8.44781028686421"><ele>488.79999999999995</ele><time>2026-05-01T09:25:09Z</time></trkpt><trkpt lat="39.38839683859539" lon="8.447848291318815"><ele>489.2</ele><time>2026-05-01T09:25:10Z</time></trkpt><trkpt lat="39.388308654583525" lon="8.447904257733372"><ele>489.6</ele><time>2026-05-01T09:25:11Z</time></trkpt><trkpt lat="39.38824266825411" lon="8.448005257254561"><ele>490.0</ele><time>2026-05-01T09:25:12Z</time></trkpt><trkpt lat="39.388173205154004" lon="8.448088360844515"><ele>483.75</ele><time>2026-05-01T09:25:13Z</time></trkpt><trkpt lat="39.388090610956475" lon="8.448159021447594"><ele>477.5</ele><time>2026-05-01T09:25:14Z</time></trkpt><trkpt lat="39.3879934777377" lon="8.448224995459535"><ele>471.25</ele><time>2026-05-01T09:25:15Z</time></trkpt><trkpt lat="39.38788580529749" lon="8.448285746139405"><ele>465.0</ele><time>2026-05-01T09:25:16Z</time></trkpt><trkpt lat="39.38776507444888" lon="8.448340283823192"><ele>465.0</ele><time>2026-05-01T09:25:17Z</time></trkpt><trkpt lat="39.387652988882195" lon="8.448383696107609"><ele>465.0</ele><time>2026-05-01T09:25:18Z</time></trkpt><trkpt lat="39.38755941944335" lon="8.448424030361252"><ele>465.0</ele><time>2026-05-01T09:25:19Z</time></trkpt><trkpt lat="39.38748137281404" lon="8.44845253294434"><ele>465.0</ele><time>2026-05-01T09:25:20Z</time></trkpt><trkpt lat="39.3874125915373" lon="8.448456306166985"><ele>465.0</ele><time>2026-05-01T09:25:21Z</time></trkpt><trkpt lat="39.38734634243651" lon="8.448445029513787"><ele>465.0</ele><time>2026-05-01T09:25:22Z</time></trkpt><trkpt lat="39.38728289926135" lon="8.448412688634566"><ele>465.0</ele><time>2026-05-01T09:25:23Z</time></trkpt><trkpt lat="39.38722456853843" lon="8.448380727304723"><ele>465.0</ele><time>2026-05-01T09:25:24Z</time></trkpt><trkpt lat="39.3871137998937" lon="8.448317486644495"><ele>465.0</ele><time>2026-05-01T09:25:26Z</time></trkpt><trkpt lat="39.38702012719814" lon="8.44831943286937"><ele>465.0</ele><time>2026-05-01T09:25:27Z</time></trkpt><trkpt lat="39.38690092177424" lon="8.44834242626514"><ele>465.0</ele><time>2026-05-01T09:25:28Z</time></trkpt><trkpt lat="39.3867816489423" lon="8.448381540192347"><ele>463.2</ele><time>2026-05-01T09:25:29Z</time></trkpt><trkpt lat="39.386669486532035" lon="8.448422989448732"><ele>461.4</ele><time>2026-05-01T09:25:30Z</time></trkpt><trkpt lat="39.386560899321566" lon="8.448456427819613"><ele>459.6</ele><time>2026-05-01T09:25:31Z</time></trkpt><trkpt lat="39.38646411102165" lon="8.4484919921866"><ele>457.8</ele><time>2026-05-01T09:25:32Z</time></trkpt><trkpt lat="39.386388849049865" lon="8.44852476642769"><ele>456.0</ele><time>2026-05-01T09:25:33Z</time></trkpt><trkpt lat="39.38633807543757" lon="8.448577653555057"><ele>454.8333333333333</ele><time>2026-05-01T09:25:34Z</time></trkpt><trkpt lat="39.38628191373534" lon="8.448652205435092"><ele>453.66666666666663</ele><time>2026-05-01T09:25:35Z</time></trkpt><trkpt lat="39.38622125393418" lon="8.448733976248244"><ele>452.5</ele><time>2026-05-01T09:25:36Z</time></trkpt><trkpt lat="39.386143082844384" lon="8.448788922327864"><ele>451.3333333333333</ele><time>2026-05-01T09:25:37Z</time></trkpt><trkpt lat="39.386062096397715" lon="8.44882801723965"><ele>450.16666666666663</ele><time>2026-05-01T09:25:39Z</time></trkpt><trkpt lat="39.386087389513804" lon="8.448924350108486"><ele>449.0</ele><time>2026-05-01T09:25:41Z</time></trkpt><trkpt lat="39.386080380132476" lon="8.449047099791422"><ele>447.66666666666663</ele><time>2026-05-01T09:25:43Z</time></trkpt><trkpt lat="39.38606113371626" lon="8.449147498752545"><ele>446.3333333333333</ele><time>2026-05-01T09:25:44Z</time></trkpt><trkpt lat="39.38606832392254" lon="8.449235912343013"><ele>445.0</ele><time>2026-05-01T09:25:45Z</time></trkpt><trkpt lat="39.38611820479349" lon="8.449320213744807"><ele>443.66666666666663</ele><time>2026-05-01T09:25:46Z</time></trkpt><trkpt lat="39.38618950026967" lon="8.4494437140836"><ele>442.3333333333333</ele><time>2026-05-01T09:25:47Z</time></trkpt><trkpt lat="39.38623538254924" lon="8.449540853103118"><ele>441.0</ele><time>2026-05-01T09:25:48Z</time></trkpt><trkpt lat="39.386268610388605" lon="8.449684334814101"><ele>441.0</ele><time>2026-05-01T09:25:50Z</time></trkpt><trkpt lat="39.386235702709506" lon="8.449766295253768"><ele>441.0</ele><time>2026-05-01T09:25:51Z</time></trkpt><trkpt lat="39.38619378910391" lon="8.44988866167558"><ele>441.0</ele><time>2026-05-01T09:25:52Z</time></trkpt><trkpt lat="39.386163278500376" lon="8.450034094703636"><ele>441.0</ele><time>2026-05-01T09:25:53Z</time></trkpt><trkpt lat="39.386162233537995" lon="8.450155181482588"><ele>441.0</ele><time>2026-05-01T09:25:54Z</time></trkpt><trkpt lat="39.38616144455816" lon="8.450247064453785"><ele>441.0</ele><time>2026-05-01T09:25:55Z</time></trkpt><trkpt lat="39.38617543639896" lon="8.45040987084641"><ele>441.0</ele><time>2026-05-01T09:25:56.999Z</time></trkpt><trkpt lat="39.38624683174085" lon="8.450479218934388"><ele>441.0</ele><time>2026-05-01T09:25:57.999Z</time></trkpt><trkpt lat="39.38635027724243" lon="8.450507991108683"><ele>441.0</ele><time>2026-05-01T09:25:58.999Z</time></trkpt><trkpt lat="39.386447135323216" lon="8.450497990083326"><ele>441.0</ele><time>2026-05-01T09:25:59.999Z</time></trkpt><trkpt lat="39.38652876352985" lon="8.45046944617404"><ele>438.20000000000005</ele><time>2026-05-01T09:26:00.999Z</time></trkpt><trkpt lat="39.38659123457258" lon="8.45045645655501"><ele>435.40000000000003</ele><time>2026-05-01T09:26:01.999Z</time></trkpt><trkpt lat="39.38665312117152" lon="8.450479366711344"><ele>432.6</ele><time>2026-05-01T09:26:02.999Z</time></trkpt><trkpt lat="39.38671998550862" lon="8.450526931871346"><ele>429.8</ele><time>2026-05-01T09:26:03.999Z</time></trkpt><trkpt lat="39.3868044723564" lon="8.45064008311934"><ele>427.0</ele><time>2026-05-01T09:26:04.999Z</time></trkpt><trkpt lat="39.38690713894305" lon="8.450760335344638"><ele>427.00000000000006</ele><time>2026-05-01T09:26:05.999Z</time></trkpt><trkpt lat="39.38697316367598" lon="8.450837343352013"><ele>427.0</ele><time>2026-05-01T09:26:07.999Z</time></trkpt><trkpt lat="39.38702509686519" lon="8.450733348624976"><ele>427.0</ele><time>2026-05-01T09:26:09.999Z</time></trkpt><trkpt lat="39.386992181411024" lon="8.450649500202621"><ele>427.0</ele><time>2026-05-01T09:26:10.999Z</time></trkpt><trkpt lat="39.386929031588544" lon="8.4505765795577"><ele>427.00000000000006</ele><time>2026-05-01T09:26:12.001Z</time></trkpt><trkpt lat="39.38685681532774" lon="8.45053924423191"><ele>427.0</ele><time>2026-05-01T09:26:13.001Z</time></trkpt><trkpt lat="39.38678838819725" lon="8.450481120413235"><ele>427.0</ele><time>2026-05-01T09:26:15.001Z</time></trkpt><trkpt lat="39.38689636842218" lon="8.450439651176177"><ele>427.00000000000006</ele><time>2026-05-01T09:26:17.001Z</time></trkpt><trkpt lat="39.38697678275191" lon="8.45049394313538"><ele>427.00000000000006</ele><time>2026-05-01T09:26:18.001Z</time></trkpt><trkpt lat="39.38706544050479" lon="8.450574980166623"><ele>427.0</ele><time>2026-05-01T09:26:19.001Z</time></trkpt><trkpt lat="39.38713144892086" lon="8.450636092565757"><ele>427.0</ele><time>2026-05-01T09:26:20.001Z</time></trkpt><trkpt lat="39.387199595358624" lon="8.450694899004173"><ele>427.0</ele><time>2026-05-01T09:26:21.001Z</time></trkpt><trkpt lat="39.387252237408305" lon="8.450757012659324"><ele>427.0</ele><time>2026-05-01T09:26:22.001Z</time></trkpt><trkpt lat="39.38727801574992" lon="8.450838112071759"><ele>427.0</ele><time>2026-05-01T09:26:23.001Z</time></trkpt><trkpt lat="39.3872844943983" lon="8.450931009566292"><ele>427.0</ele><time>2026-05-01T09:26:24.001Z</time></trkpt><trkpt lat="39.38726815408417" lon="8.451028333382117"><ele>427.0</ele><time>2026-05-01T09:26:25.001Z</time></trkpt><trkpt lat="39.38724383371527" lon="8.451118308574552"><ele>427.0</ele><time>2026-05-01T09:26:26.001Z</time></trkpt><trkpt lat="39.38721289509796" lon="8.451193927886322"><ele>427.0</ele><time>2026-05-01T09:26:27.001Z</time></trkpt><trkpt lat="39.38717320270556" lon="8.451274774472216"><ele>426.33333333333337</ele><time>2026-05-01T09:26:28.001Z</time></trkpt><trkpt lat="39.38712771160593" lon="8.451366830318536"><ele>425.6666666666667</ele><time>2026-05-01T09:26:29.001Z</time></trkpt><trkpt lat="39.387091182595" lon="8.451445731100062"><ele>425.0</ele><time>2026-05-01T09:26:30.001Z</time></trkpt><trkpt lat="39.38704303328342" lon="8.45151851276279"><ele>424.33333333333337</ele><time>2026-05-01T09:26:31.001Z</time></trkpt><trkpt lat="39.38702074429592" lon="8.451664607792987"><ele>423.6666666666667</ele><time>2026-05-01T09:26:33.001Z</time></trkpt><trkpt lat="39.387040121171026" lon="8.45177100666642"><ele>423.0</ele><time>2026-05-01T09:26:34.001Z</time></trkpt><trkpt lat="39.38706688764008" lon="8.451890201013883"><ele>423.0</ele><time>2026-05-01T09:26:35Z</time></trkpt><trkpt lat="39.38706582664585" lon="8.452002913898959"><ele>423.0</ele><time>2026-05-01T09:26:36Z</time></trkpt><trkpt lat="39.387041404702096" lon="8.45211464391326"><ele>423.0</ele><time>2026-05-01T09:26:37Z</time></trkpt><trkpt lat="39.387009616135266" lon="8.45221194542077"><ele>423.0</ele><time>2026-05-01T09:26:38Z</time></trkpt><trkpt lat="39.386987074450296" lon="8.452299380042879"><ele>423.0</ele><time>2026-05-01T09:26:39Z</time></trkpt><trkpt lat="39.38695315375188" lon="8.452398585487172"><ele>423.0</ele><time>2026-05-01T09:26:40Z</time></trkpt><trkpt lat="39.38691093566456" lon="8.452509656035755"><ele>419.5</ele><time>2026-05-01T09:26:41Z</time></trkpt><trkpt lat="39.38686172616698" lon="8.452620726332208"><ele>416.0</ele><time>2026-05-01T09:26:42Z</time></trkpt><trkpt lat="39.38680477408265" lon="8.452747029830217"><ele>412.5</ele><time>2026-05-01T09:26:43Z</time></trkpt><trkpt lat="39.38673149025104" lon="8.452880863136036"><ele>409.0</ele><time>2026-05-01T09:26:44Z</time></trkpt><trkpt lat="39.386662353318854" lon="8.453024494768409"><ele>407.2</ele><time>2026-05-01T09:26:45Z</time></trkpt><trkpt lat="39.38661218682091" lon="8.45315762886871"><ele>405.4</ele><time>2026-05-01T09:26:46Z</time></trkpt><trkpt lat="39.38656333763279" lon="8.453271923166657"><ele>403.6</ele><time>2026-05-01T09:26:47Z</time></trkpt><trkpt lat="39.38650816378889" lon="8.453375396176408"><ele>401.8</ele><time>2026-05-01T09:26:48Z</time></trkpt><trkpt lat="39.386448052570984" lon="8.453485059598462"><ele>400.0</ele><time>2026-05-01T09:26:49Z</time></trkpt><trkpt lat="39.38637682969963" lon="8.453598164488405"><ele>400.0</ele><time>2026-05-01T09:26:50Z</time></trkpt><trkpt lat="39.38630551963887" lon="8.453706415998651"><ele>400.0</ele><time>2026-05-01T09:26:51Z</time></trkpt><trkpt lat="39.38624297985249" lon="8.453799703261126"><ele>400.0</ele><time>2026-05-01T09:26:52Z</time></trkpt><trkpt lat="39.38618592548256" lon="8.453862813198965"><ele>400.0</ele><time>2026-05-01T09:26:53Z</time></trkpt><trkpt lat="39.386105062151245" lon="8.453907900901735"><ele>400.0</ele><time>2026-05-01T09:26:54Z</time></trkpt><trkpt lat="39.38599250514023" lon="8.4539533813659"><ele>400.0</ele><time>2026-05-01T09:26:55Z</time></trkpt><trkpt lat="39.38585711310276" lon="8.45400055091129"><ele>400.0</ele><time>2026-05-01T09:26:56Z</time></trkpt><trkpt lat="39.38574339944686" lon="8.45404616265439"><ele>400.0</ele><time>2026-05-01T09:26:57Z</time></trkpt><trkpt lat="39.38564364503858" lon="8.454066075469765"><ele>400.0</ele><time>2026-05-01T09:26:58Z</time></trkpt><trkpt lat="39.38553829349949" lon="8.454071042305724"><ele>400.25</ele><time>2026-05-01T09:26:59Z</time></trkpt><trkpt lat="39.385431744475376" lon="8.454089485036496"><ele>400.5</ele><time>2026-05-01T09:27:00Z</time></trkpt><trkpt lat="39.38532852458712" lon="8.454144068984421"><ele>400.75</ele><time>2026-05-01T09:27:01Z</time></trkpt><trkpt lat="39.385210289735234" lon="8.454228804568668"><ele>401.0</ele><time>2026-05-01T09:27:02Z</time></trkpt><trkpt lat="39.3850803188582" lon="8.454299333405189"><ele>401.0</ele><time>2026-05-01T09:27:03Z</time></trkpt><trkpt lat="39.38496211977496" lon="8.454353522758515"><ele>401.0</ele><time>2026-05-01T09:27:04Z</time></trkpt><trkpt lat="39.38484898339747" lon="8.454414603595824"><ele>401.0</ele><time>2026-05-01T09:27:05Z</time></trkpt><trkpt lat="39.38473342427052" lon="8.454504098165328"><ele>401.0</ele><time>2026-05-01T09:27:06Z</time></trkpt><trkpt lat="39.38462665334137" lon="8.454603060756076"><ele>400.8</ele><time>2026-05-01T09:27:07Z</time></trkpt><trkpt lat="39.38453206583455" lon="8.454701826111934"><ele>400.6</ele><time>2026-05-01T09:27:08Z</time></trkpt><trkpt lat="39.38444780796253" lon="8.45478967948653"><ele>400.4</ele><time>2026-05-01T09:27:09Z</time></trkpt><trkpt lat="39.38438587796916" lon="8.454892847815405"><ele>400.2</ele><time>2026-05-01T09:27:10Z</time></trkpt><trkpt lat="39.3843368329284" lon="8.45502439019994"><ele>400.0</ele><time>2026-05-01T09:27:11Z</time></trkpt><trkpt lat="39.384299539870625" lon="8.45516170278392"><ele>400.0</ele><time>2026-05-01T09:27:12Z</time></trkpt><trkpt lat="39.38425582365587" lon="8.45530207668821"><ele>400.0</ele><time>2026-05-01T09:27:13Z</time></trkpt><trkpt lat="39.384201901771625" lon="8.455434506611613"><ele>400.0</ele><time>2026-05-01T09:27:14Z</time></trkpt><trkpt lat="39.38413363631857" lon="8.455554411711613"><ele>400.0</ele><time>2026-05-01T09:27:15Z</time></trkpt><trkpt lat="39.38405411835285" lon="8.455672007002745"><ele>399.8</ele><time>2026-05-01T09:27:16Z</time></trkpt><trkpt lat="39.383966432323795" lon="8.455793778124967"><ele>399.6</ele><time>2026-05-01T09:27:17Z</time></trkpt><trkpt lat="39.38389270674215" lon="8.455908343034489"><ele>399.4</ele><time>2026-05-01T09:27:18Z</time></trkpt><trkpt lat="39.38383843374227" lon="8.45602342240377"><ele>399.2</ele><time>2026-05-01T09:27:19Z</time></trkpt><trkpt lat="39.38378941174667" lon="8.456121281477639"><ele>399.0</ele><time>2026-05-01T09:27:20Z</time></trkpt><trkpt lat="39.383733530596764" lon="8.45621115068066"><ele>396.5</ele><time>2026-05-01T09:27:21Z</time></trkpt><trkpt lat="39.3836547189555" lon="8.456290803341846"><ele>394.0</ele><time>2026-05-01T09:27:22Z</time></trkpt><trkpt lat="39.38357904922274" lon="8.456354376183814"><ele>391.5</ele><time>2026-05-01T09:27:23Z</time></trkpt><trkpt lat="39.383507351453225" lon="8.45639156374426"><ele>389.0</ele><time>2026-05-01T09:27:24Z</time></trkpt><trkpt lat="39.38344087417137" lon="8.45638730079175"><ele>386.5</ele><time>2026-05-01T09:27:25Z</time></trkpt><trkpt lat="39.38333128069275" lon="8.456357527162032"><ele>384.0</ele><time>2026-05-01T09:27:26Z</time></trkpt><trkpt lat="39.38318340232985" lon="8.45632769848842"><ele>384.0</ele><time>2026-05-01T09:27:27Z</time></trkpt><trkpt lat="39.38305152104389" lon="8.456321319167813"><ele>384.0</ele><time>2026-05-01T09:27:28Z</time></trkpt><trkpt lat="39.38297018878137" lon="8.456318836560394"><ele>384.0</ele><time>2026-05-01T09:27:29Z</time></trkpt><trkpt lat="39.38290231155617" lon="8.456316785779705"><ele>384.0</ele><time>2026-05-01T09:27:30Z</time></trkpt><trkpt lat="39.382829425177896" lon="8.456331539080402"><ele>384.0</ele><time>2026-05-01T09:27:31Z</time></trkpt><trkpt lat="39.38275057080249" lon="8.456347158797723"><ele>384.0</ele><time>2026-05-01T09:27:32Z</time></trkpt><trkpt lat="39.382670620999754" lon="8.456362418336134"><ele>384.1666666666667</ele><time>2026-05-01T09:27:33Z</time></trkpt><trkpt lat="39.382595121515116" lon="8.456381490105978"><ele>384.33333333333337</ele><time>2026-05-01T09:27:34Z</time></trkpt><trkpt lat="39.38251795439092" lon="8.456403387675216"><ele>384.5</ele><time>2026-05-01T09:27:35Z</time></trkpt><trkpt lat="39.38245372593175" lon="8.456431147060492"><ele>384.6666666666667</ele><time>2026-05-01T09:27:36Z</time></trkpt><trkpt lat="39.38235738824694" lon="8.456477768905145"><ele>384.83333333333337</ele><time>2026-05-01T09:27:38Z</time></trkpt><trkpt lat="39.382244483757944" lon="8.4565091400658"><ele>385.0</ele><time>2026-05-01T09:27:40Z</time></trkpt><trkpt lat="39.38216418933187" lon="8.456554207563693"><ele>385.1666666666667</ele><time>2026-05-01T09:27:41Z</time></trkpt><trkpt lat="39.38209512639523" lon="8.45658184308326"><ele>385.33333333333337</ele><time>2026-05-01T09:27:42Z</time></trkpt><trkpt lat="39.38201954631982" lon="8.456690409755275"><ele>385.5</ele><time>2026-05-01T09:27:44Z</time></trkpt><trkpt lat="39.38199630963376" lon="8.456766882814748"><ele>385.66666666666663</ele><time>2026-05-01T09:27:46Z</time></trkpt><trkpt lat="39.38197709504335" lon="8.45692659416439"><ele>385.8333333333333</ele><time>2026-05-01T09:27:48Z</time></trkpt><trkpt lat="39.38198512083702" lon="8.457012693062259"><ele>386.0</ele><time>2026-05-01T09:27:49Z</time></trkpt><trkpt lat="39.38200691564614" lon="8.457091662843352"><ele>385.66666666666663</ele><time>2026-05-01T09:27:50Z</time></trkpt><trkpt lat="39.38203630891819" lon="8.457165608640802"><ele>385.3333333333333</ele><time>2026-05-01T09:27:51Z</time></trkpt><trkpt lat="39.382098036034186" lon="8.457297507536907"><ele>385.0</ele><time>2026-05-01T09:27:53Z</time></trkpt><trkpt lat="39.38214091666804" lon="8.457391469555533"><ele>384.66666666666663</ele><time>2026-05-01T09:27:54Z</time></trkpt><trkpt lat="39.38216626893084" lon="8.457502627035135"><ele>384.3333333333333</ele><time>2026-05-01T09:27:55Z</time></trkpt><trkpt lat="39.38218568828645" lon="8.457598165113966"><ele>384.0</ele><time>2026-05-01T09:27:56Z</time></trkpt><trkpt lat="39.382228526942384" lon="8.45768537910093"><ele>384.0</ele><time>2026-05-01T09:27:57Z</time></trkpt><trkpt lat="39.3822726472377" lon="8.457752165949525"><ele>384.0</ele><time>2026-05-01T09:27:58Z</time></trkpt><trkpt lat="39.38231520875027" lon="8.457849550674934"><ele>384.0</ele><time>2026-05-01T09:28:00Z</time></trkpt><trkpt lat="39.38237039414537" lon="8.457971173334208"><ele>384.0</ele><time>2026-05-01T09:28:01.999Z</time></trkpt><trkpt lat="39.38243202764625" lon="8.458042367336542"><ele>384.0</ele><time>2026-05-01T09:28:02.999Z</time></trkpt><trkpt lat="39.38249838975135" lon="8.45815322815278"><ele>385.25</ele><time>2026-05-01T09:28:03.999Z</time></trkpt><trkpt lat="39.382566075154664" lon="8.458286811678551"><ele>386.5</ele><time>2026-05-01T09:28:04.999Z</time></trkpt><trkpt lat="39.38263852855125" lon="8.458430749503865"><ele>387.75</ele><time>2026-05-01T09:28:05.999Z</time></trkpt><trkpt lat="39.38271446870332" lon="8.458573409828524"><ele>389.0</ele><time>2026-05-01T09:28:06.999Z</time></trkpt><trkpt lat="39.38280174618742" lon="8.45872125270136"><ele>389.25</ele><time>2026-05-01T09:28:07.999Z</time></trkpt><trkpt lat="39.38289032830844" lon="8.458860862080575"><ele>389.5</ele><time>2026-05-01T09:28:08.999Z</time></trkpt><trkpt lat="39.38296454076865" lon="8.458975055630521"><ele>389.75</ele><time>2026-05-01T09:28:09.999Z</time></trkpt><trkpt lat="39.38303444334633" lon="8.459089064742763"><ele>390.0</ele><time>2026-05-01T09:28:10.999Z</time></trkpt><trkpt lat="39.383101075637484" lon="8.459199786922825"><ele>390.0</ele><time>2026-05-01T09:28:11.999Z</time></trkpt><trkpt lat="39.38315621156262" lon="8.459313545491145"><ele>390.0</ele><time>2026-05-01T09:28:12.999Z</time></trkpt><trkpt lat="39.38321423863531" lon="8.45942582173849"><ele>390.0</ele><time>2026-05-01T09:28:13.999Z</time></trkpt><trkpt lat="39.38327621620718" lon="8.459525745833524"><ele>390.0</ele><time>2026-05-01T09:28:14.999Z</time></trkpt><trkpt lat="39.383360962623165" lon="8.459624316679768"><ele>390.0</ele><time>2026-05-01T09:28:15.999Z</time></trkpt><trkpt lat="39.38343970267139" lon="8.459725155422268"><ele>392.0</ele><time>2026-05-01T09:28:16.999Z</time></trkpt><trkpt lat="39.38350914460948" lon="8.45983023108621"><ele>394.0</ele><time>2026-05-01T09:28:18.001Z</time></trkpt><trkpt lat="39.38357333491865" lon="8.459948215056109"><ele>396.0</ele><time>2026-05-01T09:28:19.001Z</time></trkpt><trkpt lat="39.383641793455894" lon="8.46004403466961"><ele>398.0</ele><time>2026-05-01T09:28:20.001Z</time></trkpt><trkpt lat="39.38371161048657" lon="8.460146202887048"><ele>400.0</ele><time>2026-05-01T09:28:21.001Z</time></trkpt><trkpt lat="39.38377493082819" lon="8.460245293437417"><ele>400.0</ele><time>2026-05-01T09:28:22.001Z</time></trkpt><trkpt lat="39.38383074888482" lon="8.460341982834528"><ele>400.0</ele><time>2026-05-01T09:28:23.001Z</time></trkpt><trkpt lat="39.38389267411994" lon="8.46044064348053"><ele>400.0</ele><time>2026-05-01T09:28:24.001Z</time></trkpt><trkpt lat="39.38395912679412" lon="8.46054470965409"><ele>400.0</ele><time>2026-05-01T09:28:25.001Z</time></trkpt><trkpt lat="39.3840254918996" lon="8.460635534720579"><ele>400.0</ele><time>2026-05-01T09:28:26.001Z</time></trkpt><trkpt lat="39.384085823756095" lon="8.460724177814953"><ele>400.4</ele><time>2026-05-01T09:28:27.001Z</time></trkpt><trkpt lat="39.38414501647404" lon="8.460810392491926"><ele>400.8</ele><time>2026-05-01T09:28:28.001Z</time></trkpt><trkpt lat="39.38420788291386" lon="8.460896240350264"><ele>401.20000000000005</ele><time>2026-05-01T09:28:29.001Z</time></trkpt><trkpt lat="39.384268539351574" lon="8.460986819902192"><ele>401.6</ele><time>2026-05-01T09:28:30.001Z</time></trkpt><trkpt lat="39.38432939488" lon="8.461081338047515"><ele>402.0</ele><time>2026-05-01T09:28:31.001Z</time></trkpt><trkpt lat="39.38438650059187" lon="8.461186506062356"><ele>403.20000000000005</ele><time>2026-05-01T09:28:32.001Z</time></trkpt><trkpt lat="39.384442418355334" lon="8.461299387990033"><ele>404.4</ele><time>2026-05-01T09:28:33.001Z</time></trkpt><trkpt lat="39.38449766208199" lon="8.461416778136828"><ele>405.6</ele><time>2026-05-01T09:28:34.001Z</time></trkpt><trkpt lat="39.384556180849266" lon="8.461534276039897"><ele>406.79999999999995</ele><time>2026-05-01T09:28:35.001Z</time></trkpt><trkpt lat="39.3846167978942" lon="8.461650089412428"><ele>408.0</ele><time>2026-05-01T09:28:36.001Z</time></trkpt><trkpt lat="39.38468126698037" lon="8.461768932246096"><ele>408.0</ele><time>2026-05-01T09:28:37.001Z</time></trkpt><trkpt lat="39.38474617423477" lon="8.461890335137"><ele>408.0</ele><time>2026-05-01T09:28:38.001Z</time></trkpt><trkpt lat="39.38479705165193" lon="8.462015159859114"><ele>408.0</ele><time>2026-05-01T09:28:39.001Z</time></trkpt><trkpt lat="39.384827636071535" lon="8.462133156144882"><ele>408.0</ele><time>2026-05-01T09:28:40Z</time></trkpt><trkpt lat="39.384823451077324" lon="8.462247220061181"><ele>408.0</ele><time>2026-05-01T09:28:41Z</time></trkpt><trkpt lat="39.384813777501954" lon="8.462372744400426"><ele>409.4</ele><time>2026-05-01T09:28:42Z</time></trkpt><trkpt lat="39.38482061788285" lon="8.462494212168643"><ele>410.79999999999995</ele><time>2026-05-01T09:28:43Z</time></trkpt><trkpt lat="39.38483205424355" lon="8.462627002453186"><ele>412.2</ele><time>2026-05-01T09:28:44Z</time></trkpt><trkpt lat="39.38484376673998" lon="8.46276822915679"><ele>413.6</ele><time>2026-05-01T09:28:45Z</time></trkpt><trkpt lat="39.38484644251561" lon="8.462912601918477"><ele>415.0</ele><time>2026-05-01T09:28:46Z</time></trkpt><trkpt lat="39.38484281695329" lon="8.463052841548848"><ele>417.0</ele><time>2026-05-01T09:28:47Z</time></trkpt><trkpt lat="39.38484822682874" lon="8.463192614864596"><ele>419.0</ele><time>2026-05-01T09:28:48Z</time></trkpt><trkpt lat="39.384865628462045" lon="8.463336784111362"><ele>421.0</ele><time>2026-05-01T09:28:49Z</time></trkpt><trkpt lat="39.38488525261022" lon="8.463483171159035"><ele>423.0</ele><time>2026-05-01T09:28:50Z</time></trkpt><trkpt lat="39.38490171579111" lon="8.463626294456622"><ele>425.0</ele><time>2026-05-01T09:28:51Z</time></trkpt><trkpt lat="39.38491210627773" lon="8.463763427797062"><ele>426.4</ele><time>2026-05-01T09:28:52Z</time></trkpt><trkpt lat="39.38491490533758" lon="8.463890483928257"><ele>427.8</ele><time>2026-05-01T09:28:53Z</time></trkpt><trkpt lat="39.3849212345276" lon="8.464021387359546"><ele>429.20000000000005</ele><time>2026-05-01T09:28:54Z</time></trkpt><trkpt lat="39.38493274779285" lon="8.464155046476552"><ele>430.6</ele><time>2026-05-01T09:28:55Z</time></trkpt><trkpt lat="39.384939660917794" lon="8.46428423786133"><ele>432.0</ele><time>2026-05-01T09:28:56Z</time></trkpt><trkpt lat="39.38492909265562" lon="8.464421855077564"><ele>432.0</ele><time>2026-05-01T09:28:57Z</time></trkpt><trkpt lat="39.38491545146489" lon="8.464550201944814"><ele>432.00000000000006</ele><time>2026-05-01T09:28:58Z</time></trkpt><trkpt lat="39.384890748837684" lon="8.46468090737721"><ele>432.00000000000006</ele><time>2026-05-01T09:28:59Z</time></trkpt><trkpt lat="39.38486005961073" lon="8.46481489048766"><ele>432.0</ele><time>2026-05-01T09:29:00Z</time></trkpt><trkpt lat="39.38482417609553" lon="8.464943867591536"><ele>432.0</ele><time>2026-05-01T09:29:01Z</time></trkpt><trkpt lat="39.38481611516121" lon="8.465083009572725"><ele>433.8</ele><time>2026-05-01T09:29:02Z</time></trkpt><trkpt lat="39.38481240144393" lon="8.465221512181326"><ele>435.6</ele><time>2026-05-01T09:29:03Z</time></trkpt><trkpt lat="39.38480698403973" lon="8.46535498956"><ele>437.40000000000003</ele><time>2026-05-01T09:29:04Z</time></trkpt><trkpt lat="39.38479682402497" lon="8.465472912920488"><ele>439.20000000000005</ele><time>2026-05-01T09:29:05Z</time></trkpt><trkpt lat="39.38479996468023" lon="8.465556260857113"><ele>441.0</ele><time>2026-05-01T09:29:06Z</time></trkpt><trkpt lat="39.384849502418085" lon="8.465672596757917"><ele>441.0</ele><time>2026-05-01T09:29:08Z</time></trkpt><trkpt lat="39.38497219818113" lon="8.465651010190056"><ele>441.0</ele><time>2026-05-01T09:29:10Z</time></trkpt><trkpt lat="39.38503699092591" lon="8.465596412396348"><ele>441.0</ele><time>2026-05-01T09:29:11Z</time></trkpt><trkpt lat="39.385098118129456" lon="8.465522470575232"><ele>441.0</ele><time>2026-05-01T09:29:12Z</time></trkpt><trkpt lat="39.38517440404559" lon="8.465452101177759"><ele>441.0</ele><time>2026-05-01T09:29:13Z</time></trkpt><trkpt lat="39.38525032146948" lon="8.465371349929109"><ele>441.0</ele><time>2026-05-01T09:29:14Z</time></trkpt><trkpt lat="39.38533614808088" lon="8.465297929303116"><ele>441.0</ele><time>2026-05-01T09:29:15Z</time></trkpt><trkpt lat="39.385409941860836" lon="8.465250807596464"><ele>441.0</ele><time>2026-05-01T09:29:16Z</time></trkpt><trkpt lat="39.38548554455107" lon="8.465244981092905"><ele>441.0</ele><time>2026-05-01T09:29:17Z</time></trkpt><trkpt lat="39.385555903306376" lon="8.465246577733158"><ele>441.0</ele><time>2026-05-01T09:29:18Z</time></trkpt><trkpt lat="39.3856436474925" lon="8.465254215264816"><ele>441.0</ele><time>2026-05-01T09:29:19Z</time></trkpt><trkpt lat="39.38574790885884" lon="8.465233840479254"><ele>441.75</ele><time>2026-05-01T09:29:20Z</time></trkpt><trkpt lat="39.38585065709848" lon="8.46519692764612"><ele>442.5</ele><time>2026-05-01T09:29:21Z</time></trkpt><trkpt lat="39.385951259911245" lon="8.465151167028559"><ele>443.25</ele><time>2026-05-01T09:29:22Z</time></trkpt><trkpt lat="39.3860607780309" lon="8.465101732358589"><ele>444.0</ele><time>2026-05-01T09:29:23Z</time></trkpt><trkpt lat="39.38618046536998" lon="8.46506450332163"><ele>444.0</ele><time>2026-05-01T09:29:24Z</time></trkpt><trkpt lat="39.38630954235328" lon="8.465054880893895"><ele>444.0</ele><time>2026-05-01T09:29:25Z</time></trkpt><trkpt lat="39.38644686530815" lon="8.465056779517157"><ele>444.0</ele><time>2026-05-01T09:29:26Z</time></trkpt><trkpt lat="39.38658337642217" lon="8.465054596020169"><ele>444.0</ele><time>2026-05-01T09:29:27Z</time></trkpt><trkpt lat="39.386722350491276" lon="8.465052404865885"><ele>446.0</ele><time>2026-05-01T09:29:28Z</time></trkpt><trkpt lat="39.386861413194765" lon="8.465052662237188"><ele>448.0</ele><time>2026-05-01T09:29:29Z</time></trkpt><trkpt lat="39.38699377219065" lon="8.465068230047317"><ele>450.0</ele><time>2026-05-01T09:29:30Z</time></trkpt><trkpt lat="39.38711880096303" lon="8.465100834162088"><ele>452.0</ele><time>2026-05-01T09:29:31Z</time></trkpt><trkpt lat="39.38725491193727" lon="8.465131032098007"><ele>453.25</ele><time>2026-05-01T09:29:32Z</time></trkpt><trkpt lat="39.38739715437018" lon="8.46515522941619"><ele>454.5</ele><time>2026-05-01T09:29:33Z</time></trkpt><trkpt lat="39.387532934054796" lon="8.465196536787202"><ele>455.75</ele><time>2026-05-01T09:29:34Z</time></trkpt><trkpt lat="39.38764132019271" lon="8.465239020758911"><ele>457.0</ele><time>2026-05-01T09:29:35Z</time></trkpt><trkpt lat="39.387720707319204" lon="8.465275326023658"><ele>457.0</ele><time>2026-05-01T09:29:36Z</time></trkpt><trkpt lat="39.38780264436203" lon="8.465357489200429"><ele>457.00000000000006</ele><time>2026-05-01T09:29:38Z</time></trkpt><trkpt lat="39.38777279906585" lon="8.465467745241149"><ele>457.00000000000006</ele><time>2026-05-01T09:29:40Z</time></trkpt><trkpt lat="39.38766831210132" lon="8.465481284613062"><ele>457.0</ele><time>2026-05-01T09:29:42Z</time></trkpt><trkpt lat="39.38754626820504" lon="8.465426009394765"><ele>457.0</ele><time>2026-05-01T09:29:44Z</time></trkpt><trkpt lat="39.38739110923427" lon="8.465413287010113"><ele>457.0</ele><time>2026-05-01T09:29:45Z</time></trkpt><trkpt lat="39.38724164132402" lon="8.465415903060064"><ele>457.0</ele><time>2026-05-01T09:29:46Z</time></trkpt><trkpt lat="39.387091092567545" lon="8.465408264495094"><ele>457.0</ele><time>2026-05-01T09:29:47Z</time></trkpt><trkpt lat="39.3869473290101" lon="8.465396529783606"><ele>457.0</ele><time>2026-05-01T09:29:48Z</time></trkpt><trkpt lat="39.386814007404524" lon="8.46539444378933"><ele>456.0</ele><time>2026-05-01T09:29:49Z</time></trkpt><trkpt lat="39.386696158444856" lon="8.465421799250713"><ele>455.00000000000006</ele><time>2026-05-01T09:29:50Z</time></trkpt><trkpt lat="39.38660530592911" lon="8.465479695657649"><ele>454.00000000000006</ele><time>2026-05-01T09:29:51Z</time></trkpt><trkpt lat="39.38651448174703" lon="8.465537986306252"><ele>453.0</ele><time>2026-05-01T09:29:52Z</time></trkpt><trkpt lat="39.38641721613496" lon="8.465629341521954"><ele>452.0</ele><time>2026-05-01T09:29:53Z</time></trkpt><trkpt lat="39.38633620829989" lon="8.465711735810288"><ele>455.25</ele><time>2026-05-01T09:29:54Z</time></trkpt><trkpt lat="39.38627842808456" lon="8.465807311599093"><ele>458.5</ele><time>2026-05-01T09:29:55Z</time></trkpt><trkpt lat="39.386238720231944" lon="8.465935815560265"><ele>461.75</ele><time>2026-05-01T09:29:56Z</time></trkpt><trkpt lat="39.38619292549659" lon="8.46608666000181"><ele>465.0</ele><time>2026-05-01T09:29:57Z</time></trkpt><trkpt lat="39.38614173136058" lon="8.466251019839813"><ele>470.8</ele><time>2026-05-01T09:29:58Z</time></trkpt><trkpt lat="39.38609213465123" lon="8.46637332723448"><ele>476.6</ele><time>2026-05-01T09:29:59Z</time></trkpt><trkpt lat="39.386057139982746" lon="8.466480607194864"><ele>482.4</ele><time>2026-05-01T09:30:00Z</time></trkpt><trkpt lat="39.38605071387247" lon="8.466581571343864"><ele>488.2</ele><time>2026-05-01T09:30:01Z</time></trkpt><trkpt lat="39.38598015174" lon="8.466579662176262"><ele>494.0</ele><time>2026-05-01T09:30:02.999Z</time></trkpt><trkpt lat="39.38590259051281" lon="8.466462300467231"><ele>494.0</ele><time>2026-05-01T09:30:04.999Z</time></trkpt><trkpt lat="39.38581937253164" lon="8.466365269111554"><ele>494.0</ele><time>2026-05-01T09:30:05.999Z</time></trkpt><trkpt lat="39.3857189068908" lon="8.466271599715386"><ele>494.0</ele><time>2026-05-01T09:30:06.999Z</time></trkpt><trkpt lat="39.38558210216501" lon="8.466178186804527"><ele>494.0</ele><time>2026-05-01T09:30:07.999Z</time></trkpt><trkpt lat="39.38550813945341" lon="8.466168257507876"><ele>494.0</ele><time>2026-05-01T09:30:08.999Z</time></trkpt><trkpt lat="39.3854409970027" lon="8.46621441994164"><ele>494.0</ele><time>2026-05-01T09:30:10.999Z</time></trkpt><trkpt lat="39.38548747788358" lon="8.46633671641173"><ele>494.0</ele><time>2026-05-01T09:30:12.999Z</time></trkpt><trkpt lat="39.38556186336852" lon="8.466344751085359"><ele>494.0</ele><time>2026-05-01T09:30:13.999Z</time></trkpt><trkpt lat="39.385640656929105" lon="8.466332551758137"><ele>494.0</ele><time>2026-05-01T09:30:14.999Z</time></trkpt><trkpt lat="39.38573063047572" lon="8.466459284466739"><ele>494.0</ele><time>2026-05-01T09:30:16.999Z</time></trkpt><trkpt lat="39.38581147458868" lon="8.466595388588365"><ele>494.0</ele><time>2026-05-01T09:30:17.999Z</time></trkpt><trkpt lat="39.3858918748671" lon="8.466723168063602"><ele>494.0</ele><time>2026-05-01T09:30:18.999Z</time></trkpt><trkpt lat="39.385960777329" lon="8.466815466660607"><ele>494.0</ele><time>2026-05-01T09:30:19.999Z</time></trkpt><trkpt lat="39.38602252971741" lon="8.46686225007309"><ele>494.0</ele><time>2026-05-01T09:30:20.999Z</time></trkpt><trkpt lat="39.386088153022776" lon="8.466829834330634"><ele>494.0</ele><time>2026-05-01T09:30:22.999Z</time></trkpt><trkpt lat="39.38619160496403" lon="8.466638131326985"><ele>494.0</ele><time>2026-05-01T09:30:25.001Z</time></trkpt><trkpt lat="39.38627823075936" lon="8.466524047923368"><ele>494.0</ele><time>2026-05-01T09:30:26.001Z</time></trkpt><trkpt lat="39.38638347348597" lon="8.466428691392998"><ele>494.0</ele><time>2026-05-01T09:30:27.001Z</time></trkpt><trkpt lat="39.386472845824656" lon="8.466319034949999"><ele>491.2</ele><time>2026-05-01T09:30:28.001Z</time></trkpt><trkpt lat="39.38656316436632" lon="8.466176710301875"><ele>488.4</ele><time>2026-05-01T09:30:29.001Z</time></trkpt><trkpt lat="39.38663310743639" lon="8.466092864750582"><ele>485.6</ele><time>2026-05-01T09:30:30.001Z</time></trkpt><trkpt lat="39.38671303100825" lon="8.466040912650886"><ele>482.8</ele><time>2026-05-01T09:30:31.001Z</time></trkpt><trkpt lat="39.38681578168513" lon="8.466029097826924"><ele>480.0</ele><time>2026-05-01T09:30:32.001Z</time></trkpt><trkpt lat="39.386917055911816" lon="8.46602951136597"><ele>480.0</ele><time>2026-05-01T09:30:33.001Z</time></trkpt><trkpt lat="39.38700663954022" lon="8.466065880948577"><ele>480.0</ele><time>2026-05-01T09:30:34.001Z</time></trkpt><trkpt lat="39.387102758193635" lon="8.4660871042157"><ele>480.0</ele><time>2026-05-01T09:30:35.001Z</time></trkpt><trkpt lat="39.38721138823598" lon="8.466121645008075"><ele>480.0</ele><time>2026-05-01T09:30:36.001Z</time></trkpt><trkpt lat="39.387328259518604" lon="8.46618439284128"><ele>480.0</ele><time>2026-05-01T09:30:37.001Z</time></trkpt><trkpt lat="39.38743512275212" lon="8.46625808032522"><ele>488.25</ele><time>2026-05-01T09:30:38.001Z</time></trkpt><trkpt lat="39.387542952754515" lon="8.466308142534835"><ele>496.5</ele><time>2026-05-01T09:30:39.001Z</time></trkpt><trkpt lat="39.387647509478526" lon="8.46636954084167"><ele>504.75</ele><time>2026-05-01T09:30:40.001Z</time></trkpt><trkpt lat="39.387751941901215" lon="8.466464486443636"><ele>513.0</ele><time>2026-05-01T09:30:41Z</time></trkpt><trkpt lat="39.387871702027766" lon="8.46655412524184"><ele>513.0</ele><time>2026-05-01T09:30:42Z</time></trkpt><trkpt lat="39.388007067886264" lon="8.466655679274211"><ele>513.0</ele><time>2026-05-01T09:30:43Z</time></trkpt><trkpt lat="39.3881286051418" lon="8.466744188439169"><ele>513.0</ele><time>2026-05-01T09:30:44Z</time></trkpt><trkpt lat="39.388238999158666" lon="8.466838074212172"><ele>513.0</ele><time>2026-05-01T09:30:45Z</time></trkpt><trkpt lat="39.38832681219036" lon="8.466955034564418"><ele>515.0</ele><time>2026-05-01T09:30:46Z</time></trkpt><trkpt lat="39.38838666838134" lon="8.467053216217977"><ele>517.0</ele><time>2026-05-01T09:30:47Z</time></trkpt><trkpt lat="39.38845272514012" lon="8.46712430719842"><ele>519.0</ele><time>2026-05-01T09:30:48Z</time></trkpt><trkpt lat="39.38853176417876" lon="8.467134510361355"><ele>521.0</ele><time>2026-05-01T09:30:49Z</time></trkpt><trkpt lat="39.388607508951786" lon="8.467097821076939"><ele>523.0</ele><time>2026-05-01T09:30:50Z</time></trkpt><trkpt lat="39.38869599933446" lon="8.467071699384526"><ele>525.0</ele><time>2026-05-01T09:30:51Z</time></trkpt><trkpt lat="39.38881433655823" lon="8.467051316450616"><ele>524.2</ele><time>2026-05-01T09:30:52Z</time></trkpt><trkpt lat="39.388946905208456" lon="8.467053748838199"><ele>523.4</ele><time>2026-05-01T09:30:53Z</time></trkpt><trkpt lat="39.38905777266693" lon="8.467062154876475"><ele>522.6</ele><time>2026-05-01T09:30:54Z</time></trkpt><trkpt lat="39.389151878016186" lon="8.467125656527756"><ele>521.8</ele><time>2026-05-01T09:30:55Z</time></trkpt><trkpt lat="39.389235015158704" lon="8.467155228480593"><ele>521.0</ele><time>2026-05-01T09:30:56Z</time></trkpt><trkpt lat="39.38930651757624" lon="8.467124143298713"><ele>521.0</ele><time>2026-05-01T09:30:57Z</time></trkpt><trkpt lat="39.38937485674419" lon="8.467100898847667"><ele>521.0</ele><time>2026-05-01T09:30:58Z</time></trkpt><trkpt lat="39.389391522357144" lon="8.467221547686671"><ele>521.0</ele><time>2026-05-01T09:31:00Z</time></trkpt><trkpt lat="39.38931418557006" lon="8.467269203838983"><ele>521.0</ele><time>2026-05-01T09:31:02Z</time></trkpt><trkpt lat="39.38924231894302" lon="8.467254186697355"><ele>521.0</ele><time>2026-05-01T09:31:03Z</time></trkpt><trkpt lat="39.3891379402083" lon="8.46722982263175"><ele>521.0</ele><time>2026-05-01T09:31:04Z</time></trkpt><trkpt lat="39.38901113349806" lon="8.467221734554466"><ele>521.0</ele><time>2026-05-01T09:31:05Z</time></trkpt><trkpt lat="39.38888755274598" lon="8.467233806293262"><ele>521.0</ele><time>2026-05-01T09:31:06Z</time></trkpt><trkpt lat="39.38882658906369" lon="8.467260088701803"><ele>521.0</ele><time>2026-05-01T09:31:07Z</time></trkpt><trkpt lat="39.388733204191624" lon="8.467303623286877"><ele>521.0</ele><time>2026-05-01T09:31:09Z</time></trkpt><trkpt lat="39.38863539448522" lon="8.467376721126822"><ele>521.0</ele><time>2026-05-01T09:31:11Z</time></trkpt><trkpt lat="39.388687473481" lon="8.467463439184284"><ele>521.0</ele><time>2026-05-01T09:31:14Z</time></trkpt><trkpt lat="39.38878193712466" lon="8.467405900837923"><ele>521.0</ele><time>2026-05-01T09:31:16Z</time></trkpt><trkpt lat="39.38888673392981" lon="8.467332458196786"><ele>521.0</ele><time>2026-05-01T09:31:18Z</time></trkpt><trkpt lat="39.38897221821894" lon="8.46736200180338"><ele>521.0</ele><time>2026-05-01T09:31:19Z</time></trkpt><trkpt lat="39.389081314948" lon="8.467409801801116"><ele>521.0</ele><time>2026-05-01T09:31:20Z</time></trkpt><trkpt lat="39.389175370423985" lon="8.467468601082787"><ele>521.0</ele><time>2026-05-01T09:31:21Z</time></trkpt><trkpt lat="39.38926953467967" lon="8.467547283423073"><ele>521.0</ele><time>2026-05-01T09:31:22Z</time></trkpt><trkpt lat="39.389359044112624" lon="8.467599064321279"><ele>521.0</ele><time>2026-05-01T09:31:23Z</time></trkpt><trkpt lat="39.38942582423656" lon="8.467636935377579"><ele>521.0</ele><time>2026-05-01T09:31:24Z</time></trkpt><trkpt lat="39.38942630329487" lon="8.467735669515521"><ele>521.0</ele><time>2026-05-01T09:31:26Z</time></trkpt><trkpt lat="39.38932303788405" lon="8.467725978545781"><ele>521.0</ele><time>2026-05-01T09:31:28Z</time></trkpt><trkpt lat="39.389264655825386" lon="8.46765941429597"><ele>521.0</ele><time>2026-05-01T09:31:29Z</time></trkpt><trkpt lat="39.38917473218529" lon="8.467667586649608"><ele>521.0</ele><time>2026-05-01T09:31:31Z</time></trkpt><trkpt lat="39.3891965967548" lon="8.46780273165006"><ele>521.0</ele><time>2026-05-01T09:31:33Z</time></trkpt><trkpt lat="39.38925334546922" lon="8.467862899691788"><ele>521.0</ele><time>2026-05-01T09:31:34Z</time></trkpt><trkpt lat="39.38931573251989" lon="8.467915183577755"><ele>521.0</ele><time>2026-05-01T09:31:35Z</time></trkpt><trkpt lat="39.38941240348595" lon="8.467973642610971"><ele>523.4</ele><time>2026-05-01T09:31:36Z</time></trkpt><trkpt lat="39.389525951221394" lon="8.468038827144117"><ele>525.8</ele><time>2026-05-01T09:31:37Z</time></trkpt><trkpt lat="39.38964656779652" lon="8.468102312225263"><ele>528.1999999999999</ele><time>2026-05-01T09:31:38Z</time></trkpt><trkpt lat="39.38973900183344" lon="8.468168352527416"><ele>530.6</ele><time>2026-05-01T09:31:39Z</time></trkpt><trkpt lat="39.389820353592654" lon="8.468203317417359"><ele>533.0</ele><time>2026-05-01T09:31:40Z</time></trkpt><trkpt lat="39.38990945480025" lon="8.468222999298604"><ele>533.0</ele><time>2026-05-01T09:31:41Z</time></trkpt><trkpt lat="39.39000888746709" lon="8.46823077977286"><ele>533.0</ele><time>2026-05-01T09:31:42Z</time></trkpt><trkpt lat="39.39009280242996" lon="8.468242550169252"><ele>533.0</ele><time>2026-05-01T09:31:43Z</time></trkpt><trkpt lat="39.39013030370419" lon="8.468314210729957"><ele>533.0</ele><time>2026-05-01T09:31:45Z</time></trkpt><trkpt lat="39.390107245270336" lon="8.468391903293936"><ele>533.0</ele><time>2026-05-01T09:31:46Z</time></trkpt><trkpt lat="39.39006357286047" lon="8.468462984987553"><ele>533.0</ele><time>2026-05-01T09:31:47Z</time></trkpt><trkpt lat="39.39000197817645" lon="8.468505484198907"><ele>533.0</ele><time>2026-05-01T09:31:48Z</time></trkpt><trkpt lat="39.38993617512916" lon="8.468526034519588"><ele>533.0</ele><time>2026-05-01T09:31:49Z</time></trkpt><trkpt lat="39.38985402683968" lon="8.468541745523526"><ele>533.0</ele><time>2026-05-01T09:31:50Z</time></trkpt><trkpt lat="39.38979653027524" lon="8.46859008460323"><ele>533.0</ele><time>2026-05-01T09:31:51Z</time></trkpt><trkpt lat="39.38976164281386" lon="8.468691204626209"><ele>533.0</ele><time>2026-05-01T09:31:52Z</time></trkpt><trkpt lat="39.38972698025476" lon="8.468822167193078"><ele>533.0</ele><time>2026-05-01T09:31:53Z</time></trkpt><trkpt lat="39.38967048570357" lon="8.468948598483314"><ele>537.25</ele><time>2026-05-01T09:31:54Z</time></trkpt><trkpt lat="39.38960874244456" lon="8.469079787187576"><ele>541.5</ele><time>2026-05-01T09:31:55Z</time></trkpt><trkpt lat="39.38956305530854" lon="8.469219155756312"><ele>545.75</ele><time>2026-05-01T09:31:56Z</time></trkpt><trkpt lat="39.389526318684034" lon="8.469370195450951"><ele>550.0</ele><time>2026-05-01T09:31:57Z</time></trkpt><trkpt lat="39.38948209051222" lon="8.469527232563387"><ele>544.4</ele><time>2026-05-01T09:31:58Z</time></trkpt><trkpt lat="39.38943296816514" lon="8.469682956315152"><ele>538.8</ele><time>2026-05-01T09:31:59Z</time></trkpt><trkpt lat="39.38936233333781" lon="8.469791573583498"><ele>533.2</ele><time>2026-05-01T09:31:59.999Z</time></trkpt><trkpt lat="39.389313439871145" lon="8.469860896023667"><ele>527.6</ele><time>2026-05-01T09:32:00.999Z</time></trkpt><trkpt lat="39.3892542973551" lon="8.469889019899915"><ele>522.0</ele><time>2026-05-01T09:32:01.999Z</time></trkpt><trkpt lat="39.38914842500773" lon="8.469905383590689"><ele>522.0</ele><time>2026-05-01T09:32:02.999Z</time></trkpt><trkpt lat="39.389035909229165" lon="8.469898071913427"><ele>522.0</ele><time>2026-05-01T09:32:03.999Z</time></trkpt><trkpt lat="39.388933455244015" lon="8.469871224703711"><ele>522.0</ele><time>2026-05-01T09:32:04.999Z</time></trkpt><trkpt lat="39.38885701514721" lon="8.469792933068787"><ele>522.0</ele><time>2026-05-01T09:32:05.999Z</time></trkpt><trkpt lat="39.38877843783479" lon="8.469676265103594"><ele>522.0</ele><time>2026-05-01T09:32:06.999Z</time></trkpt><trkpt lat="39.38866051428117" lon="8.469574188219903"><ele>526.8000000000001</ele><time>2026-05-01T09:32:07.999Z</time></trkpt><trkpt lat="39.388548816712756" lon="8.46953312081883"><ele>531.6</ele><time>2026-05-01T09:32:08.999Z</time></trkpt><trkpt lat="39.38844866694369" lon="8.469484176385613"><ele>536.4000000000001</ele><time>2026-05-01T09:32:09.999Z</time></trkpt><trkpt lat="39.388352358392105" lon="8.469452781385634"><ele>541.2</ele><time>2026-05-01T09:32:10.999Z</time></trkpt><trkpt lat="39.38826400999357" lon="8.469457981039163"><ele>546.0</ele><time>2026-05-01T09:32:11.999Z</time></trkpt><trkpt lat="39.388156900626385" lon="8.469491248838038"><ele>546.0</ele><time>2026-05-01T09:32:12.999Z</time></trkpt><trkpt lat="39.388053707320246" lon="8.46954380744328"><ele>546.0</ele><time>2026-05-01T09:32:13.999Z</time></trkpt><trkpt lat="39.3879491958047" lon="8.469617405973123"><ele>546.0</ele><time>2026-05-01T09:32:14.999Z</time></trkpt><trkpt lat="39.38784363845476" lon="8.46970105648287"><ele>546.0</ele><time>2026-05-01T09:32:15.999Z</time></trkpt><trkpt lat="39.38772943287671" lon="8.46976254206987"><ele>545.5</ele><time>2026-05-01T09:32:16.999Z</time></trkpt><trkpt lat="39.3876462499916" lon="8.469819689887345"><ele>545.0</ele><time>2026-05-01T09:32:17.999Z</time></trkpt><trkpt lat="39.3875718271905" lon="8.469880399503964"><ele>544.5</ele><time>2026-05-01T09:32:18.999Z</time></trkpt><trkpt lat="39.38750427796196" lon="8.469950775054826"><ele>544.0</ele><time>2026-05-01T09:32:19.999Z</time></trkpt><trkpt lat="39.38746363486292" lon="8.470035831596057"><ele>543.5</ele><time>2026-05-01T09:32:20.999Z</time></trkpt><trkpt lat="39.38746692179205" lon="8.470152010038317"><ele>543.0</ele><time>2026-05-01T09:32:21.999Z</time></trkpt><trkpt lat="39.387486698479705" lon="8.470253061456027"><ele>543.0</ele><time>2026-05-01T09:32:22.999Z</time></trkpt><trkpt lat="39.38754389084636" lon="8.470355994778515"><ele>543.0</ele><time>2026-05-01T09:32:23.999Z</time></trkpt><trkpt lat="39.3876188074372" lon="8.47045774085176"><ele>543.0</ele><time>2026-05-01T09:32:24.999Z</time></trkpt><trkpt lat="39.387667526735406" lon="8.470555316208934"><ele>543.0</ele><time>2026-05-01T09:32:25.999Z</time></trkpt><trkpt lat="39.38768934653028" lon="8.470667126585216"><ele>543.0</ele><time>2026-05-01T09:32:26.999Z</time></trkpt><trkpt lat="39.387686874973035" lon="8.470794419821571"><ele>542.0</ele><time>2026-05-01T09:32:27.999Z</time></trkpt><trkpt lat="39.38767768085468" lon="8.470926489862277"><ele>541.0</ele><time>2026-05-01T09:32:29.001Z</time></trkpt><trkpt lat="39.38766665193202" lon="8.47104946256195"><ele>540.0</ele><time>2026-05-01T09:32:30.001Z</time></trkpt><trkpt lat="39.387638841287234" lon="8.471157060521483"><ele>539.0</ele><time>2026-05-01T09:32:31.001Z</time></trkpt><trkpt lat="39.38757563841122" lon="8.47123667713523"><ele>538.0</ele><time>2026-05-01T09:32:32.001Z</time></trkpt><trkpt lat="39.38749165069562" lon="8.471310246257708"><ele>537.25</ele><time>2026-05-01T09:32:33.001Z</time></trkpt><trkpt lat="39.3873982702479" lon="8.471385438434039"><ele>536.5</ele><time>2026-05-01T09:32:34.001Z</time></trkpt><trkpt lat="39.38729622230404" lon="8.471465375066519"><ele>535.75</ele><time>2026-05-01T09:32:35.001Z</time></trkpt><trkpt lat="39.38718688865405" lon="8.471538856970309"><ele>535.0</ele><time>2026-05-01T09:32:36.001Z</time></trkpt><trkpt lat="39.38708120687806" lon="8.471623386289837"><ele>535.0</ele><time>2026-05-01T09:32:37.001Z</time></trkpt><trkpt lat="39.38699306281246" lon="8.47170160064996"><ele>535.0</ele><time>2026-05-01T09:32:38.001Z</time></trkpt><trkpt lat="39.386929261173655" lon="8.471756733940639"><ele>535.0</ele><time>2026-05-01T09:32:39.001Z</time></trkpt><trkpt lat="39.38686812497577" lon="8.471778949036043"><ele>535.0</ele><time>2026-05-01T09:32:40.001Z</time></trkpt><trkpt lat="39.386791253293566" lon="8.471763863450583"><ele>535.0</ele><time>2026-05-01T09:32:41.001Z</time></trkpt><trkpt lat="39.38669855960178" lon="8.471717394072407"><ele>535.0</ele><time>2026-05-01T09:32:42.001Z</time></trkpt><trkpt lat="39.38659082991066" lon="8.47168025529341"><ele>535.0</ele><time>2026-05-01T09:32:43.001Z</time></trkpt><trkpt lat="39.38648231399469" lon="8.471662135840331"><ele>535.0</ele><time>2026-05-01T09:32:44Z</time></trkpt><trkpt lat="39.386396224376305" lon="8.471604573558071"><ele>535.0</ele><time>2026-05-01T09:32:45Z</time></trkpt><trkpt lat="39.38631368697897" lon="8.471538018651472"><ele>535.0</ele><time>2026-05-01T09:32:46Z</time></trkpt><trkpt lat="39.38621591674807" lon="8.471494769854495"><ele>535.0</ele><time>2026-05-01T09:32:47Z</time></trkpt><trkpt lat="39.38611869624147" lon="8.471502555785158"><ele>536.0</ele><time>2026-05-01T09:32:48Z</time></trkpt><trkpt lat="39.386040357418395" lon="8.471540103178492"><ele>537.0</ele><time>2026-05-01T09:32:49Z</time></trkpt><trkpt lat="39.38593859490457" lon="8.471588174292057"><ele>538.0</ele><time>2026-05-01T09:32:50Z</time></trkpt><trkpt lat="39.38580978889994" lon="8.471593401770505"><ele>539.0</ele><time>2026-05-01T09:32:51Z</time></trkpt><trkpt lat="39.38571295773563" lon="8.471639760100961"><ele>540.0</ele><time>2026-05-01T09:32:52Z</time></trkpt><trkpt lat="39.385652579075575" lon="8.471745830495452"><ele>540.0</ele><time>2026-05-01T09:32:54Z</time></trkpt><trkpt lat="39.385679296477036" lon="8.471869284514069"><ele>540.0</ele><time>2026-05-01T09:32:55Z</time></trkpt><trkpt lat="39.38568473038234" lon="8.471964354349954"><ele>540.0</ele><time>2026-05-01T09:32:56Z</time></trkpt><trkpt lat="39.3855906863296" lon="8.472043246888143"><ele>540.0</ele><time>2026-05-01T09:32:58Z</time></trkpt><trkpt lat="39.385493361682826" lon="8.472028693945457"><ele>540.0</ele><time>2026-05-01T09:32:59Z</time></trkpt><trkpt lat="39.38541336244208" lon="8.472089422125187"><ele>537.0</ele><time>2026-05-01T09:33:00Z</time></trkpt><trkpt lat="39.385349814360204" lon="8.472169843223979"><ele>534.0</ele><time>2026-05-01T09:33:01Z</time></trkpt><trkpt lat="39.385296598093035" lon="8.472260762928144"><ele>531.0</ele><time>2026-05-01T09:33:02Z</time></trkpt><trkpt lat="39.38523950365041" lon="8.47230770317843"><ele>528.0</ele><time>2026-05-01T09:33:03Z</time></trkpt><trkpt lat="39.385171238205565" lon="8.472271940917933"><ele>525.0</ele><time>2026-05-01T09:33:04Z</time></trkpt><trkpt lat="39.38508239380185" lon="8.472131462042727"><ele>529.8</ele><time>2026-05-01T09:33:06Z</time></trkpt><trkpt lat="39.38501867199036" lon="8.4720311307178"><ele>534.6</ele><time>2026-05-01T09:33:07Z</time></trkpt><trkpt lat="39.384943316812105" lon="8.471974415086883"><ele>539.4</ele><time>2026-05-01T09:33:08Z</time></trkpt><trkpt lat="39.38486254508614" lon="8.47195301490622"><ele>544.2</ele><time>2026-05-01T09:33:09Z</time></trkpt><trkpt lat="39.38474902451606" lon="8.471925884670608"><ele>549.0</ele><time>2026-05-01T09:33:10Z</time></trkpt><trkpt lat="39.38464469258206" lon="8.4719110815486"><ele>550.5</ele><time>2026-05-01T09:33:11Z</time></trkpt><trkpt lat="39.38456183835173" lon="8.471910228354064"><ele>552.0</ele><time>2026-05-01T09:33:12Z</time></trkpt><trkpt lat="39.38448559261566" lon="8.471970563584428"><ele>553.5</ele><time>2026-05-01T09:33:13Z</time></trkpt><trkpt lat="39.38442533334287" lon="8.472049968866965"><ele>555.0</ele><time>2026-05-01T09:33:14Z</time></trkpt><trkpt lat="39.38437719511022" lon="8.472119806822391"><ele>556.5</ele><time>2026-05-01T09:33:15Z</time></trkpt><trkpt lat="39.38432326321204" lon="8.472210825438173"><ele>558.0</ele><time>2026-05-01T09:33:16Z</time></trkpt><trkpt lat="39.38426250608384" lon="8.472297885457088"><ele>553.1999999999999</ele><time>2026-05-01T09:33:17Z</time></trkpt><trkpt lat="39.38418915961425" lon="8.472367359360824"><ele>548.4</ele><time>2026-05-01T09:33:18Z</time></trkpt><trkpt lat="39.38409242564924" lon="8.472440044247067"><ele>543.5999999999999</ele><time>2026-05-01T09:33:19Z</time></trkpt><trkpt lat="39.38401247957646" lon="8.472478749472513"><ele>538.8</ele><time>2026-05-01T09:33:20Z</time></trkpt><trkpt lat="39.38388868516965" lon="8.47244808376197"><ele>534.0</ele><time>2026-05-01T09:33:22Z</time></trkpt><trkpt lat="39.38383904763334" lon="8.472354293199135"><ele>534.0</ele><time>2026-05-01T09:33:23Z</time></trkpt><trkpt lat="39.38376485241993" lon="8.472247129181062"><ele>534.0</ele><time>2026-05-01T09:33:24Z</time></trkpt><trkpt lat="39.38370082222174" lon="8.472134544693091"><ele>534.0</ele><time>2026-05-01T09:33:25Z</time></trkpt><trkpt lat="39.38365205717092" lon="8.472017415640618"><ele>534.0</ele><time>2026-05-01T09:33:26Z</time></trkpt><trkpt lat="39.383582589832216" lon="8.471956142966974"><ele>534.0</ele><time>2026-05-01T09:33:27Z</time></trkpt><trkpt lat="39.38352480716728" lon="8.47189678736756"><ele>538.8</ele><time>2026-05-01T09:33:28Z</time></trkpt><trkpt lat="39.38344758456105" lon="8.471860388343144"><ele>543.5999999999999</ele><time>2026-05-01T09:33:29Z</time></trkpt><trkpt lat="39.38335415788948" lon="8.47181392013383"><ele>548.4</ele><time>2026-05-01T09:33:31Z</time></trkpt><trkpt lat="39.38328252673062" lon="8.471905018305721"><ele>553.1999999999999</ele><time>2026-05-01T09:33:33Z</time></trkpt><trkpt lat="39.38319604447675" lon="8.472012970627532"><ele>558.0</ele><time>2026-05-01T09:33:35Z</time></trkpt><trkpt lat="39.38312589508152" lon="8.472043027000279"><ele>558.0</ele><time>2026-05-01T09:33:36Z</time></trkpt><trkpt lat="39.38304777496305" lon="8.472072404414593"><ele>558.0</ele><time>2026-05-01T09:33:37Z</time></trkpt><trkpt lat="39.38296197677659" lon="8.472066603666056"><ele>558.0</ele><time>2026-05-01T09:33:38Z</time></trkpt><trkpt lat="39.38286956960861" lon="8.47208688389177"><ele>558.0</ele><time>2026-05-01T09:33:39Z</time></trkpt><trkpt lat="39.38277144241785" lon="8.472060835803365"><ele>558.0</ele><time>2026-05-01T09:33:40Z</time></trkpt><trkpt lat="39.38267835167598" lon="8.472047059907167"><ele>559.1999999999999</ele><time>2026-05-01T09:33:41Z</time></trkpt><trkpt lat="39.38259457266637" lon="8.472019285374044"><ele>560.4</ele><time>2026-05-01T09:33:42Z</time></trkpt><trkpt lat="39.38250538502086" lon="8.471990865014371"><ele>561.5999999999999</ele><time>2026-05-01T09:33:43Z</time></trkpt><trkpt lat="39.3824020629146" lon="8.471968933164995"><ele>562.8</ele><time>2026-05-01T09:33:44Z</time></trkpt><trkpt lat="39.382294465958616" lon="8.471948170388798"><ele>564.0</ele><time>2026-05-01T09:33:45Z</time></trkpt><trkpt lat="39.382205094181664" lon="8.471926044419586"><ele>564.8</ele><time>2026-05-01T09:33:46Z</time></trkpt><trkpt lat="39.382119090811216" lon="8.471905794331205"><ele>565.5999999999999</ele><time>2026-05-01T09:33:47Z</time></trkpt><trkpt lat="39.38202990519671" lon="8.4719215695992"><ele>566.4</ele><time>2026-05-01T09:33:48Z</time></trkpt><trkpt lat="39.38194259708323" lon="8.471940750979678"><ele>567.1999999999999</ele><time>2026-05-01T09:33:49Z</time></trkpt><trkpt lat="39.38186030510015" lon="8.471985793059496"><ele>568.0</ele><time>2026-05-01T09:33:50Z</time></trkpt><trkpt lat="39.381766265165574" lon="8.47205710151338"><ele>568.0</ele><time>2026-05-01T09:33:51Z</time></trkpt><trkpt lat="39.38165496930797" lon="8.47210638234667"><ele>568.0</ele><time>2026-05-01T09:33:52Z</time></trkpt><trkpt lat="39.38156132560184" lon="8.47217004713839"><ele>568.0</ele><time>2026-05-01T09:33:53Z</time></trkpt><trkpt lat="39.38148347425556" lon="8.472250861769936"><ele>568.0</ele><time>2026-05-01T09:33:54Z</time></trkpt><trkpt lat="39.381419061044056" lon="8.472337035376604"><ele>568.0</ele><time>2026-05-01T09:33:55Z</time></trkpt><trkpt lat="39.38135765742154" lon="8.472426961531061"><ele>564.8</ele><time>2026-05-01T09:33:56Z</time></trkpt><trkpt lat="39.38132017068704" lon="8.47253336584585"><ele>561.5999999999999</ele><time>2026-05-01T09:33:57Z</time></trkpt><trkpt lat="39.38129534323436" lon="8.472632092351086"><ele>558.4000000000001</ele><time>2026-05-01T09:33:58Z</time></trkpt><trkpt lat="39.38124085682339" lon="8.472688875759562"><ele>555.2</ele><time>2026-05-01T09:33:59Z</time></trkpt><trkpt lat="39.381095035262526" lon="8.472718964498998"><ele>552.0</ele><time>2026-05-01T09:34:01Z</time></trkpt><trkpt lat="39.38099546924231" lon="8.472743297130899"><ele>552.0</ele><time>2026-05-01T09:34:02Z</time></trkpt><trkpt lat="39.38090273021748" lon="8.472768416098004"><ele>552.0</ele><time>2026-05-01T09:34:02.999Z</time></trkpt><trkpt lat="39.380833741942766" lon="8.472816724982835"><ele>552.0</ele><time>2026-05-01T09:34:03.999Z</time></trkpt><trkpt lat="39.38076957155771" lon="8.47289022898526"><ele>552.0</ele><time>2026-05-01T09:34:04.999Z</time></trkpt><trkpt lat="39.38068542248287" lon="8.472976225333415"><ele>552.0</ele><time>2026-05-01T09:34:05.999Z</time></trkpt><trkpt lat="39.380612145178944" lon="8.473050216982665"><ele>549.0</ele><time>2026-05-01T09:34:06.999Z</time></trkpt><trkpt lat="39.380547012340585" lon="8.473099636635487"><ele>546.0</ele><time>2026-05-01T09:34:07.999Z</time></trkpt><trkpt lat="39.38047172935358" lon="8.47307726001236"><ele>543.0</ele><time>2026-05-01T09:34:08.999Z</time></trkpt><trkpt lat="39.38037725375419" lon="8.473094047737955"><ele>540.0</ele><time>2026-05-01T09:34:09.999Z</time></trkpt><trkpt lat="39.38028101662446" lon="8.473142679498025"><ele>537.0</ele><time>2026-05-01T09:34:10.999Z</time></trkpt><trkpt lat="39.380178436834136" lon="8.473171483421634"><ele>537.0</ele><time>2026-05-01T09:34:11.999Z</time></trkpt><trkpt lat="39.38006363311787" lon="8.47319745429615"><ele>537.0</ele><time>2026-05-01T09:34:12.999Z</time></trkpt><trkpt lat="39.37995181414175" lon="8.473217605407202"><ele>537.0</ele><time>2026-05-01T09:34:13.999Z</time></trkpt><trkpt lat="39.37985651618918" lon="8.473223631115358"><ele>537.0</ele><time>2026-05-01T09:34:14.999Z</time></trkpt><trkpt lat="39.37976505066101" lon="8.473233644490085"><ele>537.0</ele><time>2026-05-01T09:34:15.999Z</time></trkpt><trkpt lat="39.379670177794985" lon="8.473265105600554"><ele>539.2</ele><time>2026-05-01T09:34:16.999Z</time></trkpt><trkpt lat="39.37956966840611" lon="8.473312499601464"><ele>541.4000000000001</ele><time>2026-05-01T09:34:17.999Z</time></trkpt><trkpt lat="39.379474242443635" lon="8.473373729415913"><ele>543.5999999999999</ele><time>2026-05-01T09:34:18.999Z</time></trkpt><trkpt lat="39.37939492801492" lon="8.473451446444953"><ele>545.8</ele><time>2026-05-01T09:34:19.999Z</time></trkpt><trkpt lat="39.37932601589154" lon="8.473523481479834"><ele>548.0</ele><time>2026-05-01T09:34:20.999Z</time></trkpt><trkpt lat="39.379242480895854" lon="8.47357079576307"><ele>548.0</ele><time>2026-05-01T09:34:21.999Z</time></trkpt><trkpt lat="39.37917126171893" lon="8.47362759362331"><ele>548.0</ele><time>2026-05-01T09:34:22.999Z</time></trkpt><trkpt lat="39.37908212186036" lon="8.47365931578194"><ele>548.0</ele><time>2026-05-01T09:34:23.999Z</time></trkpt><trkpt lat="39.3789942708981" lon="8.473671168435809"><ele>548.0</ele><time>2026-05-01T09:34:24.999Z</time></trkpt><trkpt lat="39.3789269628084" lon="8.47363090435704"><ele>548.0</ele><time>2026-05-01T09:34:25.999Z</time></trkpt><trkpt lat="39.37884440186283" lon="8.473607652932909"><ele>548.0</ele><time>2026-05-01T09:34:26.999Z</time></trkpt><trkpt lat="39.378756116140984" lon="8.47359069222563"><ele>549.8</ele><time>2026-05-01T09:34:27.999Z</time></trkpt><trkpt lat="39.37867605001218" lon="8.47358361064018"><ele>551.5999999999999</ele><time>2026-05-01T09:34:28.999Z</time></trkpt><trkpt lat="39.37858131724501" lon="8.473638700876238"><ele>553.4000000000001</ele><time>2026-05-01T09:34:29.999Z</time></trkpt><trkpt lat="39.378527641402854" lon="8.473698054891605"><ele>555.2</ele><time>2026-05-01T09:34:30.999Z</time></trkpt><trkpt lat="39.378540700640805" lon="8.473854640624701"><ele>557.0</ele><time>2026-05-01T09:34:32.999Z</time></trkpt><trkpt lat="39.3785671927865" lon="8.47404096945083"><ele>557.0</ele><time>2026-05-01T09:34:35.001Z</time></trkpt><trkpt lat="39.378584351802516" lon="8.474125103301098"><ele>557.0</ele><time>2026-05-01T09:34:36.001Z</time></trkpt><trkpt lat="39.378619369859564" lon="8.474218180784286"><ele>557.0</ele><time>2026-05-01T09:34:46Z</time></trkpt><trkpt lat="39.37867423351253" lon="8.474289686464443"><ele>557.0</ele><time>2026-05-01T09:34:50Z</time></trkpt><trkpt lat="39.37870861895261" lon="8.474371135900462"><ele>557.0</ele><time>2026-05-01T09:34:53Z</time></trkpt><trkpt lat="39.37876501734298" lon="8.474486474873277"><ele>557.0</ele><time>2026-05-01T09:34:56Z</time></trkpt><trkpt lat="39.37882769646511" lon="8.4746036448677"><ele>547.6666666666666</ele><time>2026-05-01T09:34:58Z</time></trkpt><trkpt lat="39.378883084181005" lon="8.474680942191464"><ele>538.3333333333334</ele><time>2026-05-01T09:35:00Z</time></trkpt><trkpt lat="39.37910701472524" lon="8.474947519924337"><ele>529.0</ele><time>2026-05-01T09:35:01Z</time></trkpt><trkpt lat="39.379179722590195" lon="8.475022242219913"><ele>529.0</ele><time>2026-05-01T09:35:02Z</time></trkpt><trkpt lat="39.37920345567741" lon="8.47512847202796"><ele>529.0</ele><time>2026-05-01T09:35:03Z</time></trkpt><trkpt lat="39.379186471703065" lon="8.4752757090935"><ele>529.0</ele><time>2026-05-01T09:35:05Z</time></trkpt><trkpt lat="39.3791588173302" lon="8.475354191499175"><ele>529.0</ele><time>2026-05-01T09:35:06Z</time></trkpt><trkpt lat="39.37910884949017" lon="8.475405737983229"><ele>529.0</ele><time>2026-05-01T09:35:07Z</time></trkpt><trkpt lat="39.379045067170644" lon="8.475450947055313"><ele>529.0</ele><time>2026-05-01T09:35:08Z</time></trkpt><trkpt lat="39.37894884748678" lon="8.47552858714841"><ele>530.4</ele><time>2026-05-01T09:35:09Z</time></trkpt><trkpt lat="39.37883659932189" lon="8.475605063122126"><ele>531.8</ele><time>2026-05-01T09:35:10Z</time></trkpt><trkpt lat="39.37874925099641" lon="8.475624053671238"><ele>533.2</ele><time>2026-05-01T09:35:11Z</time></trkpt><trkpt lat="39.37867278776855" lon="8.475622956539345"><ele>534.6</ele><time>2026-05-01T09:35:12Z</time></trkpt><trkpt lat="39.3785943819803" lon="8.475622452638909"><ele>536.0</ele><time>2026-05-01T09:35:13Z</time></trkpt><trkpt lat="39.378490821569535" lon="8.47563877266544"><ele>536.0</ele><time>2026-05-01T09:35:14Z</time></trkpt><trkpt lat="39.378367595294904" lon="8.475675707375435"><ele>536.0</ele><time>2026-05-01T09:35:15Z</time></trkpt><trkpt lat="39.378257527186705" lon="8.475751338714748"><ele>536.0</ele><time>2026-05-01T09:35:16Z</time></trkpt><trkpt lat="39.37815392113513" lon="8.475805882170272"><ele>536.0</ele><time>2026-05-01T09:35:17Z</time></trkpt><trkpt lat="39.378062483435116" lon="8.475844823447943"><ele>539.6</ele><time>2026-05-01T09:35:18Z</time></trkpt><trkpt lat="39.37797511154035" lon="8.475866532973395"><ele>543.2</ele><time>2026-05-01T09:35:19Z</time></trkpt><trkpt lat="39.37786627531861" lon="8.4758775125145"><ele>546.8</ele><time>2026-05-01T09:35:20Z</time></trkpt><trkpt lat="39.37777107875183" lon="8.475870447269127"><ele>550.4</ele><time>2026-05-01T09:35:21Z</time></trkpt><trkpt lat="39.37765724837181" lon="8.475853846244783"><ele>554.0</ele><time>2026-05-01T09:35:22Z</time></trkpt><trkpt lat="39.37755249321822" lon="8.475842153562521"><ele>554.0</ele><time>2026-05-01T09:35:23Z</time></trkpt><trkpt lat="39.37743594056953" lon="8.475912592275185"><ele>554.0</ele><time>2026-05-01T09:35:25Z</time></trkpt><trkpt lat="39.37741313415586" lon="8.47600567480382"><ele>554.0</ele><time>2026-05-01T09:35:26Z</time></trkpt><trkpt lat="39.37745554769869" lon="8.476108507542882"><ele>554.0</ele><time>2026-05-01T09:35:27Z</time></trkpt><trkpt lat="39.377493521818856" lon="8.476218535989483"><ele>554.0</ele><time>2026-05-01T09:35:28Z</time></trkpt><trkpt lat="39.37752588604314" lon="8.476342770074405"><ele>551.1666666666666</ele><time>2026-05-01T09:35:29Z</time></trkpt><trkpt lat="39.37754916791541" lon="8.476466620628374"><ele>548.3333333333333</ele><time>2026-05-01T09:35:30Z</time></trkpt><trkpt lat="39.377558701490194" lon="8.47658618501096"><ele>545.5</ele><time>2026-05-01T09:35:31Z</time></trkpt><trkpt lat="39.37755349766366" lon="8.476692744151837"><ele>542.6666666666666</ele><time>2026-05-01T09:35:32Z</time></trkpt><trkpt lat="39.37752378118984" lon="8.47678452795716"><ele>539.8333333333334</ele><time>2026-05-01T09:35:33Z</time></trkpt><trkpt lat="39.37746987706454" lon="8.47688549848691"><ele>537.0</ele><time>2026-05-01T09:35:34Z</time></trkpt><trkpt lat="39.37741285080803" lon="8.476951293424982"><ele>537.0</ele><time>2026-05-01T09:35:35Z</time></trkpt><trkpt lat="39.377359653279875" lon="8.47700694849973"><ele>537.0</ele><time>2026-05-01T09:35:38Z</time></trkpt><trkpt lat="39.37730230585939" lon="8.477055090073193"><ele>537.0</ele><time>2026-05-01T09:35:47Z</time></trkpt><trkpt lat="39.37723900471965" lon="8.477154092662866"><ele>537.0</ele><time>2026-05-01T09:35:50Z</time></trkpt><trkpt lat="39.37712747266428" lon="8.47725715176761"><ele>537.0</ele><time>2026-05-01T09:35:52Z</time></trkpt><trkpt lat="39.37705106471512" lon="8.477319866531973"><ele>539.75</ele><time>2026-05-01T09:35:53Z</time></trkpt><trkpt lat="39.37697110613382" lon="8.477387823014162"><ele>542.5</ele><time>2026-05-01T09:35:54Z</time></trkpt><trkpt lat="39.37687414281245" lon="8.477462323565124"><ele>545.25</ele><time>2026-05-01T09:35:55Z</time></trkpt><trkpt lat="39.37676973950809" lon="8.477545020325923"><ele>548.0</ele><time>2026-05-01T09:35:56Z</time></trkpt><trkpt lat="39.37666925552002" lon="8.47763218266382"><ele>548.0</ele><time>2026-05-01T09:35:57Z</time></trkpt><trkpt lat="39.37656905407854" lon="8.477735512841862"><ele>548.0</ele><time>2026-05-01T09:35:58Z</time></trkpt><trkpt lat="39.37647480305682" lon="8.477853293706787"><ele>548.0</ele><time>2026-05-01T09:35:59Z</time></trkpt><trkpt lat="39.37638593842937" lon="8.47797798227354"><ele>548.0</ele><time>2026-05-01T09:36:00Z</time></trkpt><trkpt lat="39.376314744586075" lon="8.478088220044176"><ele>545.1999999999999</ele><time>2026-05-01T09:36:01Z</time></trkpt><trkpt lat="39.376264110294834" lon="8.478192235653161"><ele>542.4</ele><time>2026-05-01T09:36:01.999Z</time></trkpt><trkpt lat="39.376243508106384" lon="8.478292308298988"><ele>539.5999999999999</ele><time>2026-05-01T09:36:02.999Z</time></trkpt><trkpt lat="39.376237169651816" lon="8.478377774996394"><ele>536.8</ele><time>2026-05-01T09:36:03.999Z</time></trkpt><trkpt lat="39.37626815336091" lon="8.478514292629006"><ele>534.0</ele><time>2026-05-01T09:36:05.999Z</time></trkpt><trkpt lat="39.37639904291492" lon="8.478535247429292"><ele>534.0</ele><time>2026-05-01T09:36:07.999Z</time></trkpt><trkpt lat="39.376476720595775" lon="8.478506089082629"><ele>534.0</ele><time>2026-05-01T09:36:08.999Z</time></trkpt><trkpt lat="39.37655640067639" lon="8.478499450123403"><ele>534.0</ele><time>2026-05-01T09:36:09.999Z</time></trkpt><trkpt lat="39.37665132967032" lon="8.47856890912413"><ele>534.0</ele><time>2026-05-01T09:36:11.999Z</time></trkpt><trkpt lat="39.37674734995177" lon="8.4786904565543"><ele>534.0</ele><time>2026-05-01T09:36:13.999Z</time></trkpt><trkpt lat="39.376803016243194" lon="8.478774277380543"><ele>537.8333333333334</ele><time>2026-05-01T09:36:14.999Z</time></trkpt><trkpt lat="39.37683882660968" lon="8.478855685181703"><ele>541.6666666666666</ele><time>2026-05-01T09:36:18.999Z</time></trkpt><trkpt lat="39.37687394678552" lon="8.478929729844442"><ele>545.5</ele><time>2026-05-01T09:36:25.999Z</time></trkpt><trkpt lat="39.37691177993963" lon="8.479006260429303"><ele>549.3333333333333</ele><time>2026-05-01T09:36:33.999Z</time></trkpt><trkpt lat="39.37696481567545" lon="8.479062017255195"><ele>553.1666666666666</ele><time>2026-05-01T09:36:37.999Z</time></trkpt><trkpt lat="39.3770526765694" lon="8.479142031536952"><ele>557.0</ele><time>2026-05-01T09:36:41Z</time></trkpt><trkpt lat="39.37714877416733" lon="8.479131142355689"><ele>555.5</ele><time>2026-05-01T09:36:43Z</time></trkpt><trkpt lat="39.37720661807203" lon="8.479087620444968"><ele>554.0</ele><time>2026-05-01T09:36:44Z</time></trkpt><trkpt lat="39.37727219241324" lon="8.479046470205407"><ele>552.5</ele><time>2026-05-01T09:36:45Z</time></trkpt><trkpt lat="39.37733803795108" lon="8.479037042178852"><ele>551.0</ele><time>2026-05-01T09:36:46Z</time></trkpt><trkpt lat="39.377447800519" lon="8.479053731419945"><ele>549.5</ele><time>2026-05-01T09:36:48Z</time></trkpt><trkpt lat="39.37753096879454" lon="8.479076566764359"><ele>548.0</ele><time>2026-05-01T09:36:49Z</time></trkpt><trkpt lat="39.37761506178762" lon="8.479072991143264"><ele>548.0</ele><time>2026-05-01T09:36:50Z</time></trkpt><trkpt lat="39.37769562900094" lon="8.47905098685463"><ele>548.0</ele><time>2026-05-01T09:36:51Z</time></trkpt><trkpt lat="39.37776657716509" lon="8.479022657642952"><ele>548.0</ele><time>2026-05-01T09:36:52Z</time></trkpt><trkpt lat="39.37783639528227" lon="8.479015120427192"><ele>548.0</ele><time>2026-05-01T09:36:53Z</time></trkpt><trkpt lat="39.3779134010458" lon="8.478981976206144"><ele>548.0</ele><time>2026-05-01T09:36:54Z</time></trkpt><trkpt lat="39.37799012422934" lon="8.47894357455168"><ele>548.0</ele><time>2026-05-01T09:36:55Z</time></trkpt><trkpt lat="39.37806955557116" lon="8.478888215712946"><ele>549.0</ele><time>2026-05-01T09:36:56Z</time></trkpt><trkpt lat="39.3781569723882" lon="8.478845478622109"><ele>550.0</ele><time>2026-05-01T09:36:57Z</time></trkpt><trkpt lat="39.37825138044687" lon="8.478813291502975"><ele>551.0</ele><time>2026-05-01T09:36:58Z</time></trkpt><trkpt lat="39.37835406323074" lon="8.478798278896484"><ele>552.0</ele><time>2026-05-01T09:36:59Z</time></trkpt><trkpt lat="39.37846263778135" lon="8.478795662668565"><ele>553.0</ele><time>2026-05-01T09:37:00Z</time></trkpt><trkpt lat="39.378562460906956" lon="8.478792227873118"><ele>553.0</ele><time>2026-05-01T09:37:01Z</time></trkpt><trkpt lat="39.37866623113641" lon="8.478788512858374"><ele>553.0</ele><time>2026-05-01T09:37:02Z</time></trkpt><trkpt lat="39.378774282106285" lon="8.478819723017155"><ele>553.0</ele><time>2026-05-01T09:37:03Z</time></trkpt><trkpt lat="39.37888553933679" lon="8.478813589502069"><ele>553.0</ele><time>2026-05-01T09:37:04Z</time></trkpt><trkpt lat="39.37899340972295" lon="8.478828475117957"><ele>553.0</ele><time>2026-05-01T09:37:05Z</time></trkpt><trkpt lat="39.37910508467837" lon="8.478840779691282"><ele>551.6</ele><time>2026-05-01T09:37:06Z</time></trkpt><trkpt lat="39.37921388130143" lon="8.47884850118302"><ele>550.1999999999999</ele><time>2026-05-01T09:37:07Z</time></trkpt><trkpt lat="39.37931718490444" lon="8.478863620941235"><ele>548.8</ele><time>2026-05-01T09:37:08Z</time></trkpt><trkpt lat="39.37941805041009" lon="8.47888995057219"><ele>547.4</ele><time>2026-05-01T09:37:09Z</time></trkpt><trkpt lat="39.37951846858889" lon="8.478934656315111"><ele>546.0</ele><time>2026-05-01T09:37:10Z</time></trkpt><trkpt lat="39.37961104660454" lon="8.478998294307612"><ele>546.0</ele><time>2026-05-01T09:37:11Z</time></trkpt><trkpt lat="39.37965217301737" lon="8.479072029784584"><ele>546.0</ele><time>2026-05-01T09:37:12Z</time></trkpt><trkpt lat="39.37968156967522" lon="8.479164461899607"><ele>546.0</ele><time>2026-05-01T09:37:13Z</time></trkpt><trkpt lat="39.3796949087124" lon="8.47926051263986"><ele>546.0</ele><time>2026-05-01T09:37:14Z</time></trkpt><trkpt lat="39.37968123023016" lon="8.479358630563818"><ele>546.0</ele><time>2026-05-01T09:37:15Z</time></trkpt><trkpt lat="39.37964890269098" lon="8.479475019831824"><ele>546.0</ele><time>2026-05-01T09:37:16Z</time></trkpt><trkpt lat="39.3795931898709" lon="8.479619808963324"><ele>547.5</ele><time>2026-05-01T09:37:17Z</time></trkpt><trkpt lat="39.37952853730735" lon="8.479783179158154"><ele>549.0</ele><time>2026-05-01T09:37:18Z</time></trkpt><trkpt lat="39.37946813184991" lon="8.479949341344653"><ele>550.5</ele><time>2026-05-01T09:37:19Z</time></trkpt><trkpt lat="39.379415934723795" lon="8.480070679383813"><ele>552.0</ele><time>2026-05-01T09:37:20Z</time></trkpt><trkpt lat="39.379364355245734" lon="8.480158158398453"><ele>552.0</ele><time>2026-05-01T09:37:21Z</time></trkpt><trkpt lat="39.37932618028925" lon="8.4802308797696"><ele>552.0</ele><time>2026-05-01T09:37:22Z</time></trkpt><trkpt lat="39.3792678309663" lon="8.480303393165205"><ele>552.0</ele><time>2026-05-01T09:37:23Z</time></trkpt><trkpt lat="39.379178783307246" lon="8.480394558154225"><ele>552.0</ele><time>2026-05-01T09:37:24Z</time></trkpt><trkpt lat="39.379081078399345" lon="8.480480599486391"><ele>552.0</ele><time>2026-05-01T09:37:25Z</time></trkpt><trkpt lat="39.37901558657773" lon="8.480566215431468"><ele>550.6</ele><time>2026-05-01T09:37:26Z</time></trkpt><trkpt lat="39.37897954435451" lon="8.480666240583833"><ele>549.2</ele><time>2026-05-01T09:37:27Z</time></trkpt><trkpt lat="39.37895159436149" lon="8.480790178476909"><ele>547.8</ele><time>2026-05-01T09:37:28Z</time></trkpt><trkpt lat="39.37891781093423" lon="8.48090777278451"><ele>546.4</ele><time>2026-05-01T09:37:29Z</time></trkpt><trkpt lat="39.37890216706259" lon="8.480990768786372"><ele>545.0</ele><time>2026-05-01T09:37:30Z</time></trkpt><trkpt lat="39.37897739127069" lon="8.481080192561791"><ele>545.0</ele><time>2026-05-01T09:37:32Z</time></trkpt><trkpt lat="39.37904911704379" lon="8.481081315272405"><ele>545.0</ele><time>2026-05-01T09:37:33Z</time></trkpt><trkpt lat="39.37914234671471" lon="8.481066179494942"><ele>545.0</ele><time>2026-05-01T09:37:34Z</time></trkpt><trkpt lat="39.37923703976011" lon="8.481092110596164"><ele>545.0</ele><time>2026-05-01T09:37:35Z</time></trkpt><trkpt lat="39.37932380660728" lon="8.481138309260523"><ele>545.0</ele><time>2026-05-01T09:37:36Z</time></trkpt><trkpt lat="39.37940359897494" lon="8.481185284259748"><ele>545.0</ele><time>2026-05-01T09:37:37Z</time></trkpt><trkpt lat="39.37947078272865" lon="8.481238446465541"><ele>546.8333333333333</ele><time>2026-05-01T09:37:38Z</time></trkpt><trkpt lat="39.3795296166668" lon="8.481311150159522"><ele>548.6666666666666</ele><time>2026-05-01T09:37:39Z</time></trkpt><trkpt lat="39.37956082807101" lon="8.481406386386762"><ele>550.5</ele><time>2026-05-01T09:37:40Z</time></trkpt><trkpt lat="39.37957457177681" lon="8.481491336321305"><ele>552.3333333333334</ele><time>2026-05-01T09:37:41Z</time></trkpt><trkpt lat="39.37956878568511" lon="8.481582097860896"><ele>554.1666666666667</ele><time>2026-05-01T09:37:42Z</time></trkpt><trkpt lat="39.37955195802623" lon="8.481690280523598"><ele>556.0</ele><time>2026-05-01T09:37:43Z</time></trkpt><trkpt lat="39.379524807116205" lon="8.481830964407056"><ele>556.0</ele><time>2026-05-01T09:37:44Z</time></trkpt><trkpt lat="39.37948470077072" lon="8.481989837653527"><ele>556.0</ele><time>2026-05-01T09:37:45Z</time></trkpt><trkpt lat="39.379433744281826" lon="8.48215966775235"><ele>556.0</ele><time>2026-05-01T09:37:46Z</time></trkpt><trkpt lat="39.37939606572287" lon="8.482307041243992"><ele>556.0</ele><time>2026-05-01T09:37:47Z</time></trkpt><trkpt lat="39.37937618587835" lon="8.482437960313622"><ele>556.5</ele><time>2026-05-01T09:37:48Z</time></trkpt><trkpt lat="39.379369994721756" lon="8.48256389258185"><ele>557.0</ele><time>2026-05-01T09:37:49Z</time></trkpt><trkpt lat="39.37936875094071" lon="8.482657891618098"><ele>557.5</ele><time>2026-05-01T09:37:50Z</time></trkpt><trkpt lat="39.37939960390231" lon="8.482778060018306"><ele>558.0</ele><time>2026-05-01T09:37:52Z</time></trkpt><trkpt lat="39.37944139876657" lon="8.482844088761624"><ele>558.5</ele><time>2026-05-01T09:37:53Z</time></trkpt><trkpt lat="39.37951912262114" lon="8.482908842669989"><ele>559.0</ele><time>2026-05-01T09:37:54Z</time></trkpt><trkpt lat="39.37962518275239" lon="8.482955945317295"><ele>559.0</ele><time>2026-05-01T09:37:55Z</time></trkpt><trkpt lat="39.37973618592152" lon="8.483004623796953"><ele>559.0</ele><time>2026-05-01T09:37:56Z</time></trkpt><trkpt lat="39.37983409371609" lon="8.48308800751382"><ele>559.0</ele><time>2026-05-01T09:37:57Z</time></trkpt><trkpt lat="39.37995367344772" lon="8.483105736252604"><ele>559.0</ele><time>2026-05-01T09:37:58Z</time></trkpt><trkpt lat="39.38005860339945" lon="8.483126238834295"><ele>559.0</ele><time>2026-05-01T09:37:59Z</time></trkpt><trkpt lat="39.3801489380101" lon="8.483137827917203"><ele>559.0</ele><time>2026-05-01T09:38:00Z</time></trkpt><trkpt lat="39.38024165728366" lon="8.483159384251746"><ele>559.0</ele><time>2026-05-01T09:38:01Z</time></trkpt><trkpt lat="39.38033638530066" lon="8.483223617635138"><ele>559.0</ele><time>2026-05-01T09:38:02Z</time></trkpt><trkpt lat="39.38042794297537" lon="8.483233628232519"><ele>559.0</ele><time>2026-05-01T09:38:03Z</time></trkpt><trkpt lat="39.380521338461065" lon="8.483225892212978"><ele>559.2</ele><time>2026-05-01T09:38:04Z</time></trkpt><trkpt lat="39.38062245702545" lon="8.48317133711288"><ele>559.4</ele><time>2026-05-01T09:38:04.999Z</time></trkpt><trkpt lat="39.380716771341646" lon="8.483110251397308"><ele>559.6</ele><time>2026-05-01T09:38:05.999Z</time></trkpt><trkpt lat="39.38081362373244" lon="8.483066244414749"><ele>559.8</ele><time>2026-05-01T09:38:06.999Z</time></trkpt><trkpt lat="39.38092560969677" lon="8.48304086929589"><ele>560.0</ele><time>2026-05-01T09:38:07.999Z</time></trkpt><trkpt lat="39.38101333735487" lon="8.482976939516004"><ele>556.8333333333333</ele><time>2026-05-01T09:38:08.999Z</time></trkpt><trkpt lat="39.38107501980783" lon="8.482929254150656"><ele>553.6666666666666</ele><time>2026-05-01T09:38:09.999Z</time></trkpt><trkpt lat="39.38114058592732" lon="8.48283782168113"><ele>550.5</ele><time>2026-05-01T09:38:10.999Z</time></trkpt><trkpt lat="39.381206617183956" lon="8.482749542248259"><ele>547.3333333333334</ele><time>2026-05-01T09:38:11.999Z</time></trkpt><trkpt lat="39.38127605017998" lon="8.48269962637974"><ele>544.1666666666667</ele><time>2026-05-01T09:38:12.999Z</time></trkpt><trkpt lat="39.38136778236832" lon="8.482666811589716"><ele>541.0</ele><time>2026-05-01T09:38:13.999Z</time></trkpt><trkpt lat="39.381466775567574" lon="8.482631397492346"><ele>541.0</ele><time>2026-05-01T09:38:14.999Z</time></trkpt><trkpt lat="39.38158256931596" lon="8.482614697029229"><ele>541.0</ele><time>2026-05-01T09:38:15.999Z</time></trkpt><trkpt lat="39.381701149766926" lon="8.48260098437653"><ele>541.0</ele><time>2026-05-01T09:38:16.999Z</time></trkpt><trkpt lat="39.38180692099051" lon="8.482568862714933"><ele>541.0</ele><time>2026-05-01T09:38:17.999Z</time></trkpt><trkpt lat="39.38189139746568" lon="8.482516963507582"><ele>541.0</ele><time>2026-05-01T09:38:18.999Z</time></trkpt><trkpt lat="39.38197448677573" lon="8.482454879155497"><ele>541.0</ele><time>2026-05-01T09:38:19.999Z</time></trkpt><trkpt lat="39.3820609367891" lon="8.482409191000754"><ele>541.0</ele><time>2026-05-01T09:38:20.999Z</time></trkpt><trkpt lat="39.3821551220627" lon="8.482382170860827"><ele>541.0</ele><time>2026-05-01T09:38:21.999Z</time></trkpt><trkpt lat="39.38227087839231" lon="8.482351549753506"><ele>541.0</ele><time>2026-05-01T09:38:22.999Z</time></trkpt><trkpt lat="39.38237581753649" lon="8.48230655570975"><ele>541.0</ele><time>2026-05-01T09:38:23.999Z</time></trkpt><trkpt lat="39.382469944719" lon="8.482228081294208"><ele>545.5</ele><time>2026-05-01T09:38:24.999Z</time></trkpt><trkpt lat="39.38255703439307" lon="8.482128483955496"><ele>550.0</ele><time>2026-05-01T09:38:25.999Z</time></trkpt><trkpt lat="39.382653016134995" lon="8.482067768144425"><ele>554.5</ele><time>2026-05-01T09:38:26.999Z</time></trkpt><trkpt lat="39.38275467964514" lon="8.482043337746427"><ele>559.0</ele><time>2026-05-01T09:38:27.999Z</time></trkpt><trkpt lat="39.382886262305036" lon="8.482021125303984"><ele>554.0</ele><time>2026-05-01T09:38:28.999Z</time></trkpt><trkpt lat="39.382994137814315" lon="8.481979275421093"><ele>549.0</ele><time>2026-05-01T09:38:29.999Z</time></trkpt><trkpt lat="39.38307336095546" lon="8.481931588544063"><ele>544.0</ele><time>2026-05-01T09:38:30.999Z</time></trkpt><trkpt lat="39.383136333343586" lon="8.481882526250809"><ele>539.0</ele><time>2026-05-01T09:38:31.999Z</time></trkpt><trkpt lat="39.383233745890685" lon="8.481871665782574"><ele>534.0</ele><time>2026-05-01T09:38:32.999Z</time></trkpt><trkpt lat="39.38334640489298" lon="8.481891050245043"><ele>534.0</ele><time>2026-05-01T09:38:33.999Z</time></trkpt><trkpt lat="39.383452913800994" lon="8.481944834446162"><ele>534.0</ele><time>2026-05-01T09:38:34.999Z</time></trkpt><trkpt lat="39.383543979024836" lon="8.48198241689994"><ele>534.0</ele><time>2026-05-01T09:38:35.999Z</time></trkpt><trkpt lat="39.38363678150309" lon="8.48200797622811"><ele>534.0</ele><time>2026-05-01T09:38:36.999Z</time></trkpt><trkpt lat="39.38372978681706" lon="8.482020536217975"><ele>534.0</ele><time>2026-05-01T09:38:37.999Z</time></trkpt><trkpt lat="39.383849743637235" lon="8.482033688911088"><ele>532.0</ele><time>2026-05-01T09:38:38.999Z</time></trkpt><trkpt lat="39.383971934916524" lon="8.482042397131103"><ele>530.0</ele><time>2026-05-01T09:38:39.999Z</time></trkpt><trkpt lat="39.38407403911308" lon="8.482039286216342"><ele>528.0</ele><time>2026-05-01T09:38:40.999Z</time></trkpt><trkpt lat="39.38416100721287" lon="8.48204334214545"><ele>526.0</ele><time>2026-05-01T09:38:41.999Z</time></trkpt><trkpt lat="39.3842284773002" lon="8.482086699107045"><ele>524.0</ele><time>2026-05-01T09:38:42.999Z</time></trkpt><trkpt lat="39.384289609846306" lon="8.482175096440466"><ele>529.0</ele><time>2026-05-01T09:38:43.999Z</time></trkpt><trkpt lat="39.38435519005005" lon="8.482273024350041"><ele>534.0</ele><time>2026-05-01T09:38:44.999Z</time></trkpt><trkpt lat="39.38443169156769" lon="8.482358917833592"><ele>539.0</ele><time>2026-05-01T09:38:45.999Z</time></trkpt><trkpt lat="39.38449411455333" lon="8.482439232643939"><ele>544.0</ele><time>2026-05-01T09:38:47Z</time></trkpt><trkpt lat="39.38452939978968" lon="8.48252565921047"><ele>549.0</ele><time>2026-05-01T09:38:48Z</time></trkpt><trkpt lat="39.384548181245265" lon="8.48262476559408"><ele>554.0</ele><time>2026-05-01T09:38:49Z</time></trkpt><trkpt lat="39.38456796851977" lon="8.482736328169315"><ele>554.0</ele><time>2026-05-01T09:38:50Z</time></trkpt><trkpt lat="39.38458940516695" lon="8.482835424857843"><ele>554.0</ele><time>2026-05-01T09:38:51Z</time></trkpt><trkpt lat="39.38461229108999" lon="8.482919534134393"><ele>554.0</ele><time>2026-05-01T09:38:52Z</time></trkpt><trkpt lat="39.38461998253101" lon="8.483002076510285"><ele>554.0</ele><time>2026-05-01T09:38:53Z</time></trkpt><trkpt lat="39.38459975349076" lon="8.4830826964157"><ele>554.0</ele><time>2026-05-01T09:38:54Z</time></trkpt><trkpt lat="39.38456953695123" lon="8.483159350134"><ele>554.0</ele><time>2026-05-01T09:38:55Z</time></trkpt><trkpt lat="39.38452256381753" lon="8.483226356157651"><ele>554.0</ele><time>2026-05-01T09:38:56Z</time></trkpt><trkpt lat="39.38445329536017" lon="8.483281423008743"><ele>553.0</ele><time>2026-05-01T09:38:57Z</time></trkpt><trkpt lat="39.38437563765826" lon="8.483331116296917"><ele>552.0</ele><time>2026-05-01T09:38:58Z</time></trkpt><trkpt lat="39.3842922043194" lon="8.483391398119908"><ele>551.0</ele><time>2026-05-01T09:38:59Z</time></trkpt><trkpt lat="39.384212201436526" lon="8.483439702597511"><ele>550.0</ele><time>2026-05-01T09:39:00Z</time></trkpt><trkpt lat="39.38413472643916" lon="8.48347301461828"><ele>549.0</ele><time>2026-05-01T09:39:01Z</time></trkpt><trkpt lat="39.38405491616831" lon="8.483462901855187"><ele>548.0</ele><time>2026-05-01T09:39:02Z</time></trkpt><trkpt lat="39.3839747766305" lon="8.48342394370664"><ele>548.0</ele><time>2026-05-01T09:39:03Z</time></trkpt><trkpt lat="39.38388952830883" lon="8.483378041613822"><ele>548.0</ele><time>2026-05-01T09:39:04Z</time></trkpt><trkpt lat="39.383803486183595" lon="8.483371720459372"><ele>548.0</ele><time>2026-05-01T09:39:05Z</time></trkpt><trkpt lat="39.38371339209681" lon="8.483407949492054"><ele>548.0</ele><time>2026-05-01T09:39:06Z</time></trkpt><trkpt lat="39.383600687468174" lon="8.483452466123719"><ele>548.0</ele><time>2026-05-01T09:39:07Z</time></trkpt><trkpt lat="39.38348248908323" lon="8.483461337305735"><ele>549.8</ele><time>2026-05-01T09:39:08Z</time></trkpt><trkpt lat="39.3833716856221" lon="8.483476608033758"><ele>551.5999999999999</ele><time>2026-05-01T09:39:09Z</time></trkpt><trkpt lat="39.38328694789481" lon="8.483529236300106"><ele>553.4000000000001</ele><time>2026-05-01T09:39:10Z</time></trkpt><trkpt lat="39.38319625996114" lon="8.483575645227972"><ele>555.2</ele><time>2026-05-01T09:39:11Z</time></trkpt><trkpt lat="39.38309579149583" lon="8.483608634576257"><ele>557.0</ele><time>2026-05-01T09:39:12Z</time></trkpt><trkpt lat="39.38300530354261" lon="8.483655815500372"><ele>558.0</ele><time>2026-05-01T09:39:13Z</time></trkpt><trkpt lat="39.38293819379717" lon="8.483724714698043"><ele>559.0</ele><time>2026-05-01T09:39:14Z</time></trkpt><trkpt lat="39.382879855652526" lon="8.483805739458848"><ele>560.0</ele><time>2026-05-01T09:39:15Z</time></trkpt><trkpt lat="39.38282167825754" lon="8.483903997390124"><ele>561.0</ele><time>2026-05-01T09:39:16Z</time></trkpt><trkpt lat="39.38275341360209" lon="8.484005889059658"><ele>562.0</ele><time>2026-05-01T09:39:17Z</time></trkpt><trkpt lat="39.38269867312099" lon="8.48412028847483"><ele>562.0</ele><time>2026-05-01T09:39:18Z</time></trkpt><trkpt lat="39.382649967918915" lon="8.484232174371334"><ele>562.0</ele><time>2026-05-01T09:39:19Z</time></trkpt><trkpt lat="39.382613206637025" lon="8.48432617271698"><ele>562.0</ele><time>2026-05-01T09:39:20Z</time></trkpt><trkpt lat="39.382585163585084" lon="8.484412825117442"><ele>562.0</ele><time>2026-05-01T09:39:21Z</time></trkpt><trkpt lat="39.38256691306687" lon="8.484503207714736"><ele>562.0</ele><time>2026-05-01T09:39:22Z</time></trkpt><trkpt lat="39.382584864438044" lon="8.484603564743951"><ele>562.0</ele><time>2026-05-01T09:39:23Z</time></trkpt><trkpt lat="39.382595031830114" lon="8.484725165716794"><ele>561.4</ele><time>2026-05-01T09:39:24Z</time></trkpt><trkpt lat="39.38265523177374" lon="8.48483686970121"><ele>560.8000000000001</ele><time>2026-05-01T09:39:25Z</time></trkpt><trkpt lat="39.38269112453978" lon="8.484972625466328"><ele>560.2</ele><time>2026-05-01T09:39:26Z</time></trkpt><trkpt lat="39.382737870600046" lon="8.485094927580217"><ele>559.6</ele><time>2026-05-01T09:39:27Z</time></trkpt><trkpt lat="39.382768077597156" lon="8.485208037308865"><ele>559.0</ele><time>2026-05-01T09:39:28Z</time></trkpt><trkpt lat="39.38279021706929" lon="8.485316747579569"><ele>558.6</ele><time>2026-05-01T09:39:29Z</time></trkpt><trkpt lat="39.382813605955555" lon="8.485432515157047"><ele>558.2</ele><time>2026-05-01T09:39:30Z</time></trkpt><trkpt lat="39.38283371835373" lon="8.485555905733353"><ele>557.8000000000001</ele><time>2026-05-01T09:39:31Z</time></trkpt><trkpt lat="39.38284497426389" lon="8.485685186226116"><ele>557.4</ele><time>2026-05-01T09:39:32Z</time></trkpt><trkpt lat="39.38284623819406" lon="8.485809068798389"><ele>557.0</ele><time>2026-05-01T09:39:33Z</time></trkpt><trkpt lat="39.38284250365733" lon="8.485913021795454"><ele>557.0</ele><time>2026-05-01T09:39:34Z</time></trkpt><trkpt lat="39.38284314141368" lon="8.486026074097945"><ele>557.0</ele><time>2026-05-01T09:39:35Z</time></trkpt><trkpt lat="39.38281613761382" lon="8.486135785460354"><ele>557.0</ele><time>2026-05-01T09:39:36Z</time></trkpt><trkpt lat="39.38274936565638" lon="8.486264893393951"><ele>557.0</ele><time>2026-05-01T09:39:38Z</time></trkpt><trkpt lat="39.382689680029316" lon="8.48630648769073"><ele>557.0</ele><time>2026-05-01T09:39:39Z</time></trkpt><trkpt lat="39.38261370817991" lon="8.486337435532315"><ele>557.0</ele><time>2026-05-01T09:39:40Z</time></trkpt><trkpt lat="39.38252409904325" lon="8.486354821614945"><ele>554.75</ele><time>2026-05-01T09:39:41Z</time></trkpt><trkpt lat="39.382414378684935" lon="8.486379921178962"><ele>552.5</ele><time>2026-05-01T09:39:42Z</time></trkpt><trkpt lat="39.38229612456491" lon="8.4864071313966"><ele>550.25</ele><time>2026-05-01T09:39:43Z</time></trkpt><trkpt lat="39.38218396287394" lon="8.486413354065315"><ele>548.0</ele><time>2026-05-01T09:39:44Z</time></trkpt><trkpt lat="39.382071808253684" lon="8.486408576535895"><ele>548.0</ele><time>2026-05-01T09:39:45Z</time></trkpt><trkpt lat="39.38195594814137" lon="8.486393696952474"><ele>548.0</ele><time>2026-05-01T09:39:46Z</time></trkpt><trkpt lat="39.381825165588864" lon="8.486392444548471"><ele>548.0</ele><time>2026-05-01T09:39:47Z</time></trkpt><trkpt lat="39.381704766277146" lon="8.48637742345141"><ele>548.0</ele><time>2026-05-01T09:39:48Z</time></trkpt><trkpt lat="39.381601792690226" lon="8.486378109259856"><ele>548.0</ele><time>2026-05-01T09:39:49Z</time></trkpt><trkpt lat="39.38149975388952" lon="8.486372750402962"><ele>548.0</ele><time>2026-05-01T09:39:50Z</time></trkpt><trkpt lat="39.3814015722085" lon="8.486366330264977"><ele>548.0</ele><time>2026-05-01T09:39:51Z</time></trkpt><trkpt lat="39.381318519317446" lon="8.48636137631233"><ele>548.0</ele><time>2026-05-01T09:39:52Z</time></trkpt><trkpt lat="39.381245172267775" lon="8.486364413599656"><ele>548.0</ele><time>2026-05-01T09:39:53Z</time></trkpt><trkpt lat="39.38117703152074" lon="8.486420779475278"><ele>548.0</ele><time>2026-05-01T09:39:54Z</time></trkpt><trkpt lat="39.381117067772514" lon="8.486532820021713"><ele>551.1999999999999</ele><time>2026-05-01T09:39:55Z</time></trkpt><trkpt lat="39.38106682792168" lon="8.48663098989511"><ele>554.4</ele><time>2026-05-01T09:39:56Z</time></trkpt><trkpt lat="39.38100325217692" lon="8.486720365312477"><ele>557.5999999999999</ele><time>2026-05-01T09:39:57Z</time></trkpt><trkpt lat="39.38095040278471" lon="8.48682906741245"><ele>560.8</ele><time>2026-05-01T09:39:58Z</time></trkpt><trkpt lat="39.38089833331458" lon="8.486906913784736"><ele>564.0</ele><time>2026-05-01T09:39:59Z</time></trkpt><trkpt lat="39.380927182253465" lon="8.487051041131616"><ele>564.8</ele><time>2026-05-01T09:40:01Z</time></trkpt><trkpt lat="39.38099504531178" lon="8.487101892359115"><ele>565.5999999999999</ele><time>2026-05-01T09:40:02Z</time></trkpt><trkpt lat="39.38109537100989" lon="8.487136657309428"><ele>566.4</ele><time>2026-05-01T09:40:03Z</time></trkpt><trkpt lat="39.381199854856334" lon="8.487182702737384"><ele>567.1999999999999</ele><time>2026-05-01T09:40:04Z</time></trkpt><trkpt lat="39.38131717359457" lon="8.487251846194445"><ele>568.0</ele><time>2026-05-01T09:40:05Z</time></trkpt><trkpt lat="39.38141534536895" lon="8.487338069822815"><ele>564.1666666666667</ele><time>2026-05-01T09:40:05.999Z</time></trkpt><trkpt lat="39.381498190424026" lon="8.487435598803188"><ele>560.3333333333334</ele><time>2026-05-01T09:40:06.999Z</time></trkpt><trkpt lat="39.38154699329222" lon="8.487510357966471"><ele>556.5</ele><time>2026-05-01T09:40:07.999Z</time></trkpt><trkpt lat="39.38158389463389" lon="8.487583623280424"><ele>552.6666666666666</ele><time>2026-05-01T09:40:08.999Z</time></trkpt><trkpt lat="39.38164244029044" lon="8.487681976385602"><ele>548.8333333333333</ele><time>2026-05-01T09:40:09.999Z</time></trkpt><trkpt lat="39.381696864285324" lon="8.487783745947343"><ele>545.0</ele><time>2026-05-01T09:40:10.999Z</time></trkpt><trkpt lat="39.38174305014476" lon="8.487870643739093"><ele>546.3333333333333</ele><time>2026-05-01T09:40:11.999Z</time></trkpt><trkpt lat="39.38178038924637" lon="8.487958240926027"><ele>547.6666666666666</ele><time>2026-05-01T09:40:12.999Z</time></trkpt><trkpt lat="39.381819097247764" lon="8.488063645952783"><ele>549.0</ele><time>2026-05-01T09:40:13.999Z</time></trkpt><trkpt lat="39.3818473124559" lon="8.488157167001008"><ele>550.3333333333334</ele><time>2026-05-01T09:40:14.999Z</time></trkpt><trkpt lat="39.381837879235995" lon="8.488265226873413"><ele>551.6666666666667</ele><time>2026-05-01T09:40:15.999Z</time></trkpt><trkpt lat="39.38179518508782" lon="8.488379017048116"><ele>553.0</ele><time>2026-05-01T09:40:16.999Z</time></trkpt><trkpt lat="39.38174826760989" lon="8.488502103263032"><ele>553.0</ele><time>2026-05-01T09:40:17.999Z</time></trkpt><trkpt lat="39.381718117354374" lon="8.488632728274174"><ele>553.0</ele><time>2026-05-01T09:40:18.999Z</time></trkpt><trkpt lat="39.38167709175441" lon="8.488763210230134"><ele>553.0</ele><time>2026-05-01T09:40:19.999Z</time></trkpt><trkpt lat="39.38162866009878" lon="8.488898301328991"><ele>553.0</ele><time>2026-05-01T09:40:20.999Z</time></trkpt><trkpt lat="39.38157153546269" lon="8.489020897876998"><ele>553.0</ele><time>2026-05-01T09:40:21.999Z</time></trkpt><trkpt lat="39.38149840277403" lon="8.4891412564447"><ele>550.75</ele><time>2026-05-01T09:40:22.999Z</time></trkpt><trkpt lat="39.38142710654258" lon="8.489260834545751"><ele>548.5</ele><time>2026-05-01T09:40:23.999Z</time></trkpt><trkpt lat="39.38134878900763" lon="8.489379127778914"><ele>546.25</ele><time>2026-05-01T09:40:24.999Z</time></trkpt><trkpt lat="39.38127578199441" lon="8.489498402531504"><ele>544.0</ele><time>2026-05-01T09:40:25.999Z</time></trkpt><trkpt lat="39.38119715161821" lon="8.489602152699627"><ele>544.0</ele><time>2026-05-01T09:40:26.999Z</time></trkpt><trkpt lat="39.3811168388366" lon="8.48970686036576"><ele>544.0</ele><time>2026-05-01T09:40:27.999Z</time></trkpt><trkpt lat="39.38102399132389" lon="8.489809842385863"><ele>544.0</ele><time>2026-05-01T09:40:28.999Z</time></trkpt><trkpt lat="39.3809323961601" lon="8.489914756928547"><ele>544.0</ele><time>2026-05-01T09:40:29.999Z</time></trkpt><trkpt lat="39.38085399732253" lon="8.490016404556423"><ele>544.0</ele><time>2026-05-01T09:40:30.999Z</time></trkpt><trkpt lat="39.38077835796823" lon="8.490095501317814"><ele>544.0</ele><time>2026-05-01T09:40:31.999Z</time></trkpt><trkpt lat="39.38069741549005" lon="8.490137714818955"><ele>544.0</ele><time>2026-05-01T09:40:32.999Z</time></trkpt><trkpt lat="39.380618284005934" lon="8.490149876150006"><ele>544.0</ele><time>2026-05-01T09:40:33.999Z</time></trkpt><trkpt lat="39.38054252671753" lon="8.490133874733777"><ele>544.0</ele><time>2026-05-01T09:40:34.999Z</time></trkpt><trkpt lat="39.38044858779653" lon="8.49010258669733"><ele>544.0</ele><time>2026-05-01T09:40:35.999Z</time></trkpt><trkpt lat="39.38037004606536" lon="8.490034812320957"><ele>546.0</ele><time>2026-05-01T09:40:36.999Z</time></trkpt><trkpt lat="39.38031066894246" lon="8.489969931385422"><ele>548.0</ele><time>2026-05-01T09:40:37.999Z</time></trkpt><trkpt lat="39.38023772374301" lon="8.489915840027724"><ele>550.0</ele><time>2026-05-01T09:40:38.999Z</time></trkpt><trkpt lat="39.38014086736746" lon="8.489910182916635"><ele>552.0</ele><time>2026-05-01T09:40:39.999Z</time></trkpt><trkpt lat="39.38002365733094" lon="8.48991264361148"><ele>554.0</ele><time>2026-05-01T09:40:40.999Z</time></trkpt><trkpt lat="39.37991376235749" lon="8.489921849329757"><ele>554.0</ele><time>2026-05-01T09:40:41.999Z</time></trkpt><trkpt lat="39.37981214542535" lon="8.48997123120927"><ele>554.0</ele><time>2026-05-01T09:40:42.999Z</time></trkpt><trkpt lat="39.37971957425056" lon="8.489969234555351"><ele>554.0</ele><time>2026-05-01T09:40:43.999Z</time></trkpt><trkpt lat="39.37963619348894" lon="8.489890970522156"><ele>554.0</ele><time>2026-05-01T09:40:44.999Z</time></trkpt><trkpt lat="39.379548199695314" lon="8.489939300160207"><ele>554.0</ele><time>2026-05-01T09:40:45.999Z</time></trkpt><trkpt lat="39.379451990527336" lon="8.48998783311489"><ele>554.4</ele><time>2026-05-01T09:40:46.999Z</time></trkpt><trkpt lat="39.37936396665843" lon="8.489973129705822"><ele>554.8</ele><time>2026-05-01T09:40:47.999Z</time></trkpt><trkpt lat="39.37927246048812" lon="8.489944812219042"><ele>555.2</ele><time>2026-05-01T09:40:48.999Z</time></trkpt><trkpt lat="39.379183534979006" lon="8.48989217404705"><ele>555.6</ele><time>2026-05-01T09:40:49.999Z</time></trkpt><trkpt lat="39.37910570446868" lon="8.489876472636777"><ele>556.0</ele><time>2026-05-01T09:40:50.999Z</time></trkpt><trkpt lat="39.379001703797016" lon="8.489995357578376"><ele>556.0</ele><time>2026-05-01T09:40:53Z</time></trkpt><trkpt lat="39.37898076227594" lon="8.490117508266472"><ele>556.0</ele><time>2026-05-01T09:40:54Z</time></trkpt><trkpt lat="39.378960374541464" lon="8.49025346614372"><ele>556.0</ele><time>2026-05-01T09:40:55Z</time></trkpt><trkpt lat="39.37893994203385" lon="8.49036388293318"><ele>556.0</ele><time>2026-05-01T09:40:56Z</time></trkpt><trkpt lat="39.37891025880614" lon="8.490455717223671"><ele>556.0</ele><time>2026-05-01T09:40:57Z</time></trkpt><trkpt lat="39.378874219918096" lon="8.490529012403801"><ele>556.0</ele><time>2026-05-01T09:40:58Z</time></trkpt><trkpt lat="39.37877485171865" lon="8.490588140912493"><ele>556.1666666666667</ele><time>2026-05-01T09:41:00Z</time></trkpt><trkpt lat="39.37869174341989" lon="8.490622060608962"><ele>556.3333333333334</ele><time>2026-05-01T09:41:02Z</time></trkpt><trkpt lat="39.37865389562177" lon="8.490546156680441"><ele>556.5</ele><time>2026-05-01T09:41:05Z</time></trkpt><trkpt lat="39.378596743412935" lon="8.49046917545499"><ele>556.6666666666666</ele><time>2026-05-01T09:41:07Z</time></trkpt><trkpt lat="39.378530450002565" lon="8.490377263378953"><ele>556.8333333333333</ele><time>2026-05-01T09:41:09Z</time></trkpt><trkpt lat="39.37849247581268" lon="8.490287806022332"><ele>557.0</ele><time>2026-05-01T09:41:10Z</time></trkpt><trkpt lat="39.3784652569849" lon="8.490198157995657"><ele>557.0</ele><time>2026-05-01T09:41:11Z</time></trkpt><trkpt lat="39.37842360371106" lon="8.490097703793154"><ele>557.0</ele><time>2026-05-01T09:41:12Z</time></trkpt><trkpt lat="39.37837114604007" lon="8.490027599211073"><ele>557.0</ele><time>2026-05-01T09:41:13Z</time></trkpt><trkpt lat="39.37832487280122" lon="8.489938368807772"><ele>557.0</ele><time>2026-05-01T09:41:14Z</time></trkpt><trkpt lat="39.37823530828332" lon="8.489921931643384"><ele>557.0</ele><time>2026-05-01T09:41:15Z</time></trkpt><trkpt lat="39.37815349004672" lon="8.489919571341781"><ele>557.0</ele><time>2026-05-01T09:41:16Z</time></trkpt><trkpt lat="39.378084066933475" lon="8.490039072470733"><ele>557.0</ele><time>2026-05-01T09:41:17Z</time></trkpt><trkpt lat="39.378025816698525" lon="8.490149707515124"><ele>557.0</ele><time>2026-05-01T09:41:18Z</time></trkpt><trkpt lat="39.3779666143586" lon="8.490278715015124"><ele>557.0</ele><time>2026-05-01T09:41:19Z</time></trkpt><trkpt lat="39.37791535078502" lon="8.490413678940248"><ele>557.0</ele><time>2026-05-01T09:41:20Z</time></trkpt><trkpt lat="39.37787857213354" lon="8.49053373466248"><ele>557.0</ele><time>2026-05-01T09:41:21Z</time></trkpt><trkpt lat="39.377855155940395" lon="8.490656687781419"><ele>556.6</ele><time>2026-05-01T09:41:22Z</time></trkpt><trkpt lat="39.37782955757869" lon="8.490786717773396"><ele>556.2</ele><time>2026-05-01T09:41:23Z</time></trkpt><trkpt lat="39.37780942053241" lon="8.490886873078614"><ele>555.8</ele><time>2026-05-01T09:41:24Z</time></trkpt><trkpt lat="39.37776289487885" lon="8.491002323466633"><ele>555.4</ele><time>2026-05-01T09:41:25Z</time></trkpt><trkpt lat="39.377690155246384" lon="8.491099779448946"><ele>555.0</ele><time>2026-05-01T09:41:26Z</time></trkpt><trkpt lat="39.3776090351698" lon="8.49118666167266"><ele>555.0</ele><time>2026-05-01T09:41:27Z</time></trkpt><trkpt lat="39.377508445410975" lon="8.491221706369963"><ele>555.0</ele><time>2026-05-01T09:41:28Z</time></trkpt><trkpt lat="39.37740720085869" lon="8.491261032999802"><ele>555.0</ele><time>2026-05-01T09:41:29Z</time></trkpt><trkpt lat="39.37732772259228" lon="8.491265460757086"><ele>555.0</ele><time>2026-05-01T09:41:30Z</time></trkpt><trkpt lat="39.377247376581906" lon="8.491164191948084"><ele>555.0</ele><time>2026-05-01T09:41:32Z</time></trkpt><trkpt lat="39.3772317182705" lon="8.491057867987134"><ele>554.0</ele><time>2026-05-01T09:41:33Z</time></trkpt><trkpt lat="39.37717975239853" lon="8.490947312600083"><ele>553.0</ele><time>2026-05-01T09:41:34Z</time></trkpt><trkpt lat="39.37712397187063" lon="8.490814124876204"><ele>552.0</ele><time>2026-05-01T09:41:35Z</time></trkpt><trkpt lat="39.377068076595876" lon="8.49068684865164"><ele>551.0</ele><time>2026-05-01T09:41:36Z</time></trkpt><trkpt lat="39.37699018018456" lon="8.490564647025687"><ele>551.0</ele><time>2026-05-01T09:41:37Z</time></trkpt><trkpt lat="39.37689501246757" lon="8.4904520788949"><ele>551.0</ele><time>2026-05-01T09:41:38Z</time></trkpt><trkpt lat="39.3767882120934" lon="8.49035222828556"><ele>551.0</ele><time>2026-05-01T09:41:39Z</time></trkpt><trkpt lat="39.3766729541359" lon="8.490295947553737"><ele>551.0</ele><time>2026-05-01T09:41:40Z</time></trkpt><trkpt lat="39.37658378418286" lon="8.490236624187668"><ele>551.0</ele><time>2026-05-01T09:41:41Z</time></trkpt><trkpt lat="39.37652070462671" lon="8.490170845969125"><ele>551.0</ele><time>2026-05-01T09:41:42Z</time></trkpt><trkpt lat="39.37644635057196" lon="8.490170752954365"><ele>551.0</ele><time>2026-05-01T09:41:44Z</time></trkpt><trkpt lat="39.37638806935203" lon="8.490238389745905"><ele>551.0</ele><time>2026-05-01T09:41:45Z</time></trkpt><trkpt lat="39.37637586138665" lon="8.490395086569821"><ele>551.0</ele><time>2026-05-01T09:41:46Z</time></trkpt><trkpt lat="39.376386434765095" lon="8.49055300651828"><ele>551.0</ele><time>2026-05-01T09:41:47Z</time></trkpt><trkpt lat="39.37637916640108" lon="8.49070978636231"><ele>551.0</ele><time>2026-05-01T09:41:48Z</time></trkpt><trkpt lat="39.37638563870694" lon="8.490865894646042"><ele>551.0</ele><time>2026-05-01T09:41:49Z</time></trkpt><trkpt lat="39.376383324294764" lon="8.49100630648789"><ele>551.0</ele><time>2026-05-01T09:41:50Z</time></trkpt><trkpt lat="39.37633748294555" lon="8.491103885075788"><ele>551.0</ele><time>2026-05-01T09:41:51Z</time></trkpt><trkpt lat="39.37632432727192" lon="8.491193075438497"><ele>548.6</ele><time>2026-05-01T09:41:52Z</time></trkpt><trkpt lat="39.37636268885453" lon="8.491325948710122"><ele>546.2</ele><time>2026-05-01T09:41:53Z</time></trkpt><trkpt lat="39.37635547074661" lon="8.49141876526398"><ele>543.8</ele><time>2026-05-01T09:41:54Z</time></trkpt><trkpt lat="39.376339973753765" lon="8.491522045210424"><ele>541.4</ele><time>2026-05-01T09:41:55Z</time></trkpt><trkpt lat="39.376318445666605" lon="8.491628948190645"><ele>539.0</ele><time>2026-05-01T09:41:56Z</time></trkpt><trkpt lat="39.376289682141866" lon="8.49177356759366"><ele>541.1666666666666</ele><time>2026-05-01T09:41:57Z</time></trkpt><trkpt lat="39.37625726270084" lon="8.491916778214835"><ele>543.3333333333333</ele><time>2026-05-01T09:41:58Z</time></trkpt><trkpt lat="39.37621977398328" lon="8.492046508500824"><ele>545.5</ele><time>2026-05-01T09:41:59Z</time></trkpt><trkpt lat="39.376185412540174" lon="8.492145439742925"><ele>547.6666666666666</ele><time>2026-05-01T09:42:00Z</time></trkpt><trkpt lat="39.3761472963423" lon="8.492222325159622"><ele>549.8333333333334</ele><time>2026-05-01T09:42:01Z</time></trkpt><trkpt lat="39.37609976387364" lon="8.492276870235655"><ele>552.0</ele><time>2026-05-01T09:42:02Z</time></trkpt><trkpt lat="39.376029304502474" lon="8.492289462182201"><ele>552.0</ele><time>2026-05-01T09:42:03Z</time></trkpt><trkpt lat="39.37594397387316" lon="8.492285772703925"><ele>552.0</ele><time>2026-05-01T09:42:04Z</time></trkpt><trkpt lat="39.37582639435896" lon="8.49229194527578"><ele>552.0</ele><time>2026-05-01T09:42:05Z</time></trkpt><trkpt lat="39.3757068502502" lon="8.492302672837312"><ele>552.0</ele><time>2026-05-01T09:42:06Z</time></trkpt><trkpt lat="39.375604342093496" lon="8.492350401651583"><ele>552.0</ele><time>2026-05-01T09:42:07Z</time></trkpt><trkpt lat="39.37549452040989" lon="8.492457286677354"><ele>552.0</ele><time>2026-05-01T09:42:08Z</time></trkpt><trkpt lat="39.37544944279577" lon="8.492610536528138"><ele>552.0</ele><time>2026-05-01T09:42:08.999Z</time></trkpt><trkpt lat="39.37539006259289" lon="8.49273918542581"><ele>552.0</ele><time>2026-05-01T09:42:09.999Z</time></trkpt><trkpt lat="39.375346961975765" lon="8.492841092652247"><ele>552.0</ele><time>2026-05-01T09:42:10.999Z</time></trkpt><trkpt lat="39.37530312349866" lon="8.49291258499468"><ele>552.0</ele><time>2026-05-01T09:42:11.999Z</time></trkpt><trkpt lat="39.375237028071126" lon="8.492961876766115"><ele>552.0</ele><time>2026-05-01T09:42:12.999Z</time></trkpt><trkpt lat="39.37516608041384" lon="8.49300563230642"><ele>552.0</ele><time>2026-05-01T09:42:13.999Z</time></trkpt><trkpt lat="39.3750793228381" lon="8.493027429946839"><ele>552.0</ele><time>2026-05-01T09:42:14.999Z</time></trkpt><trkpt lat="39.374973699245025" lon="8.493032440491318"><ele>552.0</ele><time>2026-05-01T09:42:15.999Z</time></trkpt><trkpt lat="39.374892362857636" lon="8.49306245084354"><ele>552.0</ele><time>2026-05-01T09:42:16.999Z</time></trkpt><trkpt lat="39.374815714477975" lon="8.493141797945194"><ele>552.0</ele><time>2026-05-01T09:42:17.999Z</time></trkpt><trkpt lat="39.37478686916792" lon="8.49324657245594"><ele>552.0</ele><time>2026-05-01T09:42:18.999Z</time></trkpt><trkpt lat="39.374801143445616" lon="8.493356006780731"><ele>552.0</ele><time>2026-05-01T09:42:19.999Z</time></trkpt><trkpt lat="39.37479672848083" lon="8.493439508597842"><ele>552.0</ele><time>2026-05-01T09:42:20.999Z</time></trkpt><trkpt lat="39.37470696897217" lon="8.49356009224324"><ele>552.0</ele><time>2026-05-01T09:42:22.999Z</time></trkpt><trkpt lat="39.3746462775565" lon="8.493650355773953"><ele>550.0</ele><time>2026-05-01T09:42:23.999Z</time></trkpt><trkpt lat="39.37460354442103" lon="8.493753937270455"><ele>548.0</ele><time>2026-05-01T09:42:24.999Z</time></trkpt><trkpt lat="39.37460843557746" lon="8.493877838199241"><ele>546.0</ele><time>2026-05-01T09:42:25.999Z</time></trkpt><trkpt lat="39.3746439744998" lon="8.493999426195655"><ele>544.0</ele><time>2026-05-01T09:42:26.999Z</time></trkpt><trkpt lat="39.37469879188663" lon="8.49411452038588"><ele>542.0</ele><time>2026-05-01T09:42:27.999Z</time></trkpt><trkpt lat="39.374712224812086" lon="8.49423644590811"><ele>542.0</ele><time>2026-05-01T09:42:28.999Z</time></trkpt><trkpt lat="39.37472024708358" lon="8.494343071442582"><ele>542.0</ele><time>2026-05-01T09:42:29.999Z</time></trkpt><trkpt lat="39.37470872820574" lon="8.494423678280057"><ele>542.0</ele><time>2026-05-01T09:42:30.999Z</time></trkpt><trkpt lat="39.374662227514456" lon="8.494512519700905"><ele>542.0</ele><time>2026-05-01T09:42:31.999Z</time></trkpt><trkpt lat="39.37461522790692" lon="8.494619610441463"><ele>542.0</ele><time>2026-05-01T09:42:32.999Z</time></trkpt><trkpt lat="39.37455651643123" lon="8.494725406694446"><ele>542.0</ele><time>2026-05-01T09:42:33.999Z</time></trkpt><trkpt lat="39.37449568381909" lon="8.494815222630551"><ele>545.1666666666666</ele><time>2026-05-01T09:42:34.999Z</time></trkpt><trkpt lat="39.37441851486762" lon="8.494863525087354"><ele>548.3333333333333</ele><time>2026-05-01T09:42:35.999Z</time></trkpt><trkpt lat="39.37434623563395" lon="8.494938673638636"><ele>551.5</ele><time>2026-05-01T09:42:36.999Z</time></trkpt><trkpt lat="39.37428698326939" lon="8.495012816423563"><ele>554.6666666666666</ele><time>2026-05-01T09:42:37.999Z</time></trkpt><trkpt lat="39.37423245585138" lon="8.495084625070762"><ele>557.8333333333334</ele><time>2026-05-01T09:42:38.999Z</time></trkpt><trkpt lat="39.37418962957855" lon="8.495206809990593"><ele>561.0</ele><time>2026-05-01T09:42:39.999Z</time></trkpt><trkpt lat="39.374196035091174" lon="8.495341457885772"><ele>559.0</ele><time>2026-05-01T09:42:40.999Z</time></trkpt><trkpt lat="39.37419066345675" lon="8.495475571418067"><ele>557.0</ele><time>2026-05-01T09:42:41.999Z</time></trkpt><trkpt lat="39.37423111912939" lon="8.495591438886487"><ele>555.0</ele><time>2026-05-01T09:42:42.999Z</time></trkpt><trkpt lat="39.3742760945524" lon="8.495655095768816"><ele>553.0</ele><time>2026-05-01T09:42:43.999Z</time></trkpt><trkpt lat="39.374261649027055" lon="8.495809417144871"><ele>551.0</ele><time>2026-05-01T09:42:45.999Z</time></trkpt><trkpt lat="39.37421425602621" lon="8.495902964645703"><ele>551.0</ele><time>2026-05-01T09:42:46.999Z</time></trkpt><trkpt lat="39.37416817959572" lon="8.496011213940491"><ele>551.0</ele><time>2026-05-01T09:42:47.999Z</time></trkpt><trkpt lat="39.374122173062325" lon="8.496075697026175"><ele>551.0</ele><time>2026-05-01T09:42:48.999Z</time></trkpt><trkpt lat="39.374073395010186" lon="8.496201992529327"><ele>551.0</ele><time>2026-05-01T09:42:50.999Z</time></trkpt><trkpt lat="39.37402811972459" lon="8.496368577325711"><ele>551.0</ele><time>2026-05-01T09:42:52.999Z</time></trkpt><trkpt lat="39.373990651299266" lon="8.496484645998454"><ele>550.0</ele><time>2026-05-01T09:42:53.999Z</time></trkpt><trkpt lat="39.373940843304815" lon="8.496623523743375"><ele>549.0</ele><time>2026-05-01T09:42:54.999Z</time></trkpt><trkpt lat="39.373876112273976" lon="8.4967630623041"><ele>548.0</ele><time>2026-05-01T09:42:55.999Z</time></trkpt><trkpt lat="39.37378982379213" lon="8.496877875790858"><ele>547.0</ele><time>2026-05-01T09:42:56.999Z</time></trkpt><trkpt lat="39.373710886920556" lon="8.4969833223727"><ele>547.0</ele><time>2026-05-01T09:42:58Z</time></trkpt><trkpt lat="39.373660179933644" lon="8.497074283418613"><ele>547.0</ele><time>2026-05-01T09:42:59Z</time></trkpt><trkpt lat="39.37360782437323" lon="8.497152487951976"><ele>547.0</ele><time>2026-05-01T09:43:01Z</time></trkpt><trkpt lat="39.373733664936914" lon="8.497177816925786"><ele>547.0</ele><time>2026-05-01T09:43:04Z</time></trkpt><trkpt lat="39.37378818886221" lon="8.49706399550365"><ele>547.0</ele><time>2026-05-01T09:43:05Z</time></trkpt><trkpt lat="39.37390615971085" lon="8.496921203565694"><ele>546.6666666666667</ele><time>2026-05-01T09:43:06Z</time></trkpt><trkpt lat="39.37403075572865" lon="8.496735507345326"><ele>546.3333333333334</ele><time>2026-05-01T09:43:07Z</time></trkpt><trkpt lat="39.374180140399154" lon="8.496512750766728"><ele>546.0</ele><time>2026-05-01T09:43:08Z</time></trkpt><trkpt lat="39.37433689625171" lon="8.496279437384407"><ele>547.6666666666666</ele><time>2026-05-01T09:43:09Z</time></trkpt><trkpt lat="39.374458063757835" lon="8.496062373200267"><ele>549.3333333333333</ele><time>2026-05-01T09:43:10Z</time></trkpt><trkpt lat="39.374543896181976" lon="8.495889554909166"><ele>551.0</ele><time>2026-05-01T09:43:11Z</time></trkpt><trkpt lat="39.374599583910744" lon="8.49573231434547"><ele>551.0</ele><time>2026-05-01T09:43:12Z</time></trkpt><trkpt lat="39.3746230667309" lon="8.495574744828371"><ele>551.0</ele><time>2026-05-01T09:43:13Z</time></trkpt><trkpt lat="39.37459454651732" lon="8.495423401202643"><ele>551.0</ele><time>2026-05-01T09:43:14Z</time></trkpt><trkpt lat="39.37456842538035" lon="8.495286487704126"><ele>551.0</ele><time>2026-05-01T09:43:15Z</time></trkpt><trkpt lat="39.37460432324294" lon="8.495160548575852"><ele>547.6</ele><time>2026-05-01T09:43:16Z</time></trkpt><trkpt lat="39.374705492695014" lon="8.49510684646068"><ele>544.2</ele><time>2026-05-01T09:43:17Z</time></trkpt><trkpt lat="39.37479716452202" lon="8.495037802137585"><ele>540.8</ele><time>2026-05-01T09:43:18Z</time></trkpt><trkpt lat="39.37488595887243" lon="8.494964289658569"><ele>537.4</ele><time>2026-05-01T09:43:19Z</time></trkpt><trkpt lat="39.3749854969981" lon="8.494883348472893"><ele>534.0</ele><time>2026-05-01T09:43:20Z</time></trkpt><trkpt lat="39.37506874409586" lon="8.494784121575927"><ele>534.0</ele><time>2026-05-01T09:43:21Z</time></trkpt><trkpt lat="39.37512930433203" lon="8.494674547320912"><ele>534.0</ele><time>2026-05-01T09:43:22Z</time></trkpt><trkpt lat="39.375170611690294" lon="8.494583716371881"><ele>534.0</ele><time>2026-05-01T09:43:23Z</time></trkpt><trkpt lat="39.37520285936157" lon="8.494499053612484"><ele>534.0</ele><time>2026-05-01T09:43:24Z</time></trkpt><trkpt lat="39.37522870862566" lon="8.494416237397969"><ele>534.0</ele><time>2026-05-01T09:43:25Z</time></trkpt><trkpt lat="39.37525424545546" lon="8.494267424475039"><ele>534.0</ele><time>2026-05-01T09:43:27Z</time></trkpt><trkpt lat="39.37522608748668" lon="8.494116925709548"><ele>535.3333333333334</ele><time>2026-05-01T09:43:29Z</time></trkpt><trkpt lat="39.375176189336635" lon="8.49404273723544"><ele>536.6666666666666</ele><time>2026-05-01T09:43:30Z</time></trkpt><trkpt lat="39.37513085069813" lon="8.493949491192499"><ele>538.0</ele><time>2026-05-01T09:43:31Z</time></trkpt><trkpt lat="39.37512818113409" lon="8.493845245365891"><ele>539.3333333333333</ele><time>2026-05-01T09:43:32Z</time></trkpt><trkpt lat="39.37515527028066" lon="8.493728530843885"><ele>540.6666666666666</ele><time>2026-05-01T09:43:33Z</time></trkpt><trkpt lat="39.375207082581085" lon="8.4936069136143"><ele>542.0</ele><time>2026-05-01T09:43:34Z</time></trkpt><trkpt lat="39.37529665243744" lon="8.493482672809167"><ele>544.5</ele><time>2026-05-01T09:43:35Z</time></trkpt><trkpt lat="39.37540490866549" lon="8.493399934036848"><ele>547.0</ele><time>2026-05-01T09:43:36Z</time></trkpt><trkpt lat="39.375508362852905" lon="8.493328502780885"><ele>549.5</ele><time>2026-05-01T09:43:37Z</time></trkpt><trkpt lat="39.37564333603163" lon="8.493216457156338"><ele>552.0</ele><time>2026-05-01T09:43:38Z</time></trkpt><trkpt lat="39.37575836006967" lon="8.493138359371299"><ele>552.0</ele><time>2026-05-01T09:43:39Z</time></trkpt><trkpt lat="39.37584266272401" lon="8.493052067259905"><ele>552.0</ele><time>2026-05-01T09:43:40Z</time></trkpt><trkpt lat="39.375894912628425" lon="8.492975524856439"><ele>552.0</ele><time>2026-05-01T09:43:41Z</time></trkpt><trkpt lat="39.37594174328893" lon="8.492902437349061"><ele>552.0</ele><time>2026-05-01T09:43:42Z</time></trkpt><trkpt lat="39.37599932893371" lon="8.492854462801139"><ele>552.0</ele><time>2026-05-01T09:43:43Z</time></trkpt><trkpt lat="39.37607223347328" lon="8.49281367957528"><ele>552.0</ele><time>2026-05-01T09:43:44Z</time></trkpt><trkpt lat="39.37614216074683" lon="8.492793364572767"><ele>552.0</ele><time>2026-05-01T09:43:45Z</time></trkpt><trkpt lat="39.3762138518536" lon="8.492798991015249"><ele>552.0</ele><time>2026-05-01T09:43:46Z</time></trkpt><trkpt lat="39.376290718254175" lon="8.492859389203302"><ele>552.0</ele><time>2026-05-01T09:43:47Z</time></trkpt><trkpt lat="39.3763566115385" lon="8.492912289872502"><ele>552.0</ele><time>2026-05-01T09:43:48Z</time></trkpt><trkpt lat="39.37641236401883" lon="8.493020067784453"><ele>552.0</ele><time>2026-05-01T09:43:49Z</time></trkpt><trkpt lat="39.37648190162678" lon="8.49308929881684"><ele>552.0</ele><time>2026-05-01T09:43:50Z</time></trkpt><trkpt lat="39.37654262103029" lon="8.493150799053732"><ele>544.2</ele><time>2026-05-01T09:43:51Z</time></trkpt><trkpt lat="39.376606169224964" lon="8.49318004119999"><ele>536.4000000000001</ele><time>2026-05-01T09:43:52Z</time></trkpt><trkpt lat="39.3766875335034" lon="8.493170651854884"><ele>528.5999999999999</ele><time>2026-05-01T09:43:53Z</time></trkpt><trkpt lat="39.37680444470396" lon="8.493123189679817"><ele>520.8</ele><time>2026-05-01T09:43:54Z</time></trkpt><trkpt lat="39.37695321283606" lon="8.493037885013777"><ele>513.0</ele><time>2026-05-01T09:43:55Z</time></trkpt><trkpt lat="39.37712160609877" lon="8.492954158875873"><ele>513.25</ele><time>2026-05-01T09:43:56Z</time></trkpt><trkpt lat="39.377264548502794" lon="8.492841496348403"><ele>513.5</ele><time>2026-05-01T09:43:57Z</time></trkpt><trkpt lat="39.37737065024873" lon="8.492723683380596"><ele>513.75</ele><time>2026-05-01T09:43:58Z</time></trkpt><trkpt lat="39.37743849308033" lon="8.492602721612466"><ele>514.0</ele><time>2026-05-01T09:43:59Z</time></trkpt><trkpt lat="39.37743152996274" lon="8.492467881181634"><ele>514.0</ele><time>2026-05-01T09:44:00Z</time></trkpt><trkpt lat="39.37738265456254" lon="8.49234813364878"><ele>514.0</ele><time>2026-05-01T09:44:01Z</time></trkpt><trkpt lat="39.37733865874075" lon="8.492241512225283"><ele>514.0</ele><time>2026-05-01T09:44:02Z</time></trkpt><trkpt lat="39.37736309138572" lon="8.49214913676895"><ele>514.0</ele><time>2026-05-01T09:44:03Z</time></trkpt><trkpt lat="39.3774486310337" lon="8.492073780442613"><ele>514.0</ele><time>2026-05-01T09:44:04Z</time></trkpt><trkpt lat="39.37756823240253" lon="8.492069206361604"><ele>517.25</ele><time>2026-05-01T09:44:05Z</time></trkpt><trkpt lat="39.377710328524124" lon="8.49208373558901"><ele>520.5</ele><time>2026-05-01T09:44:06Z</time></trkpt><trkpt lat="39.37784342039072" lon="8.492075033012101"><ele>523.75</ele><time>2026-05-01T09:44:07Z</time></trkpt><trkpt lat="39.37796734665289" lon="8.492057685218963"><ele>527.0</ele><time>2026-05-01T09:44:08Z</time></trkpt><trkpt lat="39.37808183734344" lon="8.492048185491196"><ele>523.0</ele><time>2026-05-01T09:44:09Z</time></trkpt><trkpt lat="39.37818446108828" lon="8.492102497211777"><ele>519.0</ele><time>2026-05-01T09:44:10Z</time></trkpt><trkpt lat="39.37827695090871" lon="8.492194615388401"><ele>515.0</ele><time>2026-05-01T09:44:11Z</time></trkpt><trkpt lat="39.378323621334935" lon="8.492362800801882"><ele>511.0</ele><time>2026-05-01T09:44:11.999Z</time></trkpt><trkpt lat="39.37841802250341" lon="8.492510751975379"><ele>511.0</ele><time>2026-05-01T09:44:12.999Z</time></trkpt><trkpt lat="39.37849353390057" lon="8.492679019174684"><ele>511.0</ele><time>2026-05-01T09:44:13.999Z</time></trkpt><trkpt lat="39.3785845782405" lon="8.492846197964838"><ele>511.0</ele><time>2026-05-01T09:44:14.999Z</time></trkpt><trkpt lat="39.3786721213779" lon="8.493016448866546"><ele>509.0</ele><time>2026-05-01T09:44:15.999Z</time></trkpt><trkpt lat="39.37875155287813" lon="8.493168188584534"><ele>507.0</ele><time>2026-05-01T09:44:16.999Z</time></trkpt><trkpt lat="39.37882751636702" lon="8.493278716707605"><ele>505.0</ele><time>2026-05-01T09:44:17.999Z</time></trkpt><trkpt lat="39.3788856956633" lon="8.49339956726328"><ele>503.0</ele><time>2026-05-01T09:44:18.999Z</time></trkpt><trkpt lat="39.37894046512551" lon="8.493503464643904"><ele>502.99999999999994</ele><time>2026-05-01T09:44:19.999Z</time></trkpt><trkpt lat="39.37898258726271" lon="8.493591036911832"><ele>503.0</ele><time>2026-05-01T09:44:20.999Z</time></trkpt><trkpt lat="39.37902981687929" lon="8.493669601393142"><ele>503.0</ele><time>2026-05-01T09:44:21.999Z</time></trkpt><trkpt lat="39.37909126471934" lon="8.493738725240519"><ele>503.0</ele><time>2026-05-01T09:44:22.999Z</time></trkpt><trkpt lat="39.37915889234679" lon="8.493804121692602"><ele>502.99999999999994</ele><time>2026-05-01T09:44:23.999Z</time></trkpt><trkpt lat="39.37923721579352" lon="8.49386917226512"><ele>503.0</ele><time>2026-05-01T09:44:24.999Z</time></trkpt><trkpt lat="39.37933095238176" lon="8.493939166720155"><ele>499.25</ele><time>2026-05-01T09:44:25.999Z</time></trkpt><trkpt lat="39.37942663215488" lon="8.49402554869232"><ele>495.5</ele><time>2026-05-01T09:44:26.999Z</time></trkpt><trkpt lat="39.37953047391318" lon="8.494115100375947"><ele>491.75</ele><time>2026-05-01T09:44:27.999Z</time></trkpt><trkpt lat="39.37963158244176" lon="8.494191528521599"><ele>488.0</ele><time>2026-05-01T09:44:28.999Z</time></trkpt><trkpt lat="39.37974062297427" lon="8.494217219784835"><ele>487.75</ele><time>2026-05-01T09:44:29.999Z</time></trkpt><trkpt lat="39.3798514292353" lon="8.494174583546057"><ele>487.5</ele><time>2026-05-01T09:44:30.999Z</time></trkpt><trkpt lat="39.37994996659948" lon="8.494061223521205"><ele>487.25</ele><time>2026-05-01T09:44:31.999Z</time></trkpt><trkpt lat="39.380015617833664" lon="8.493891923083144"><ele>487.0</ele><time>2026-05-01T09:44:32.999Z</time></trkpt><trkpt lat="39.380075264572255" lon="8.493719174942477"><ele>489.5</ele><time>2026-05-01T09:44:33.999Z</time></trkpt><trkpt lat="39.380183767803864" lon="8.493618603114433"><ele>492.0</ele><time>2026-05-01T09:44:34.999Z</time></trkpt><trkpt lat="39.38030774149486" lon="8.493535759589001"><ele>494.5</ele><time>2026-05-01T09:44:35.999Z</time></trkpt><trkpt lat="39.38043948533817" lon="8.493470791544885"><ele>497.0</ele><time>2026-05-01T09:44:36.999Z</time></trkpt><trkpt lat="39.3805575462287" lon="8.49349174735394"><ele>497.0</ele><time>2026-05-01T09:44:37.999Z</time></trkpt><trkpt lat="39.380685433611184" lon="8.493553191762864"><ele>497.0</ele><time>2026-05-01T09:44:38.999Z</time></trkpt><trkpt lat="39.38080449242592" lon="8.493636602047863"><ele>497.0</ele><time>2026-05-01T09:44:39.999Z</time></trkpt><trkpt lat="39.380907565408926" lon="8.493838003033003"><ele>492.25</ele><time>2026-05-01T09:44:40.999Z</time></trkpt><trkpt lat="39.38104216493831" lon="8.493937749021645"><ele>487.5</ele><time>2026-05-01T09:44:41.999Z</time></trkpt><trkpt lat="39.38117415384451" lon="8.494001398315795"><ele>482.75</ele><time>2026-05-01T09:44:42.999Z</time></trkpt><trkpt lat="39.38131653908628" lon="8.494018275662906"><ele>478.0</ele><time>2026-05-01T09:44:43.999Z</time></trkpt><trkpt lat="39.38145327109536" lon="8.494006709456603"><ele>479.5</ele><time>2026-05-01T09:44:44.999Z</time></trkpt><trkpt lat="39.38156992231276" lon="8.493905685865096"><ele>481.0</ele><time>2026-05-01T09:44:45.999Z</time></trkpt><trkpt lat="39.38167219084344" lon="8.49375902496732"><ele>482.5</ele><time>2026-05-01T09:44:46.999Z</time></trkpt><trkpt lat="39.38177520725338" lon="8.493648914303137"><ele>484.0</ele><time>2026-05-01T09:44:47.999Z</time></trkpt><trkpt lat="39.38184730343791" lon="8.493502664313734"><ele>484.0</ele><time>2026-05-01T09:44:48.999Z</time></trkpt><trkpt lat="39.38188538539157" lon="8.49331047850797"><ele>484.0</ele><time>2026-05-01T09:44:49.999Z</time></trkpt><trkpt lat="39.381860266747594" lon="8.493099442854117"><ele>484.0</ele><time>2026-05-01T09:44:50.999Z</time></trkpt><trkpt lat="39.38186091086268" lon="8.492880929190918"><ele>484.0</ele><time>2026-05-01T09:44:51.999Z</time></trkpt><trkpt lat="39.38186757782067" lon="8.49266724642413"><ele>484.0</ele><time>2026-05-01T09:44:52.999Z</time></trkpt><trkpt lat="39.381878950429545" lon="8.492473770560375"><ele>484.0</ele><time>2026-05-01T09:44:53.999Z</time></trkpt><trkpt lat="39.3818827667985" lon="8.492283573138646"><ele>484.0</ele><time>2026-05-01T09:44:54.999Z</time></trkpt><trkpt lat="39.38185958533314" lon="8.492110086493529"><ele>484.0</ele><time>2026-05-01T09:44:55.999Z</time></trkpt><trkpt lat="39.381822107288556" lon="8.491951317941158"><ele>484.0</ele><time>2026-05-01T09:44:56.999Z</time></trkpt><trkpt lat="39.38180238928678" lon="8.491803031801673"><ele>484.0</ele><time>2026-05-01T09:44:57.999Z</time></trkpt><trkpt lat="39.38181095654941" lon="8.491702351711528"><ele>483.75</ele><time>2026-05-01T09:44:58.999Z</time></trkpt><trkpt lat="39.381886988559124" lon="8.491601519898902"><ele>483.5</ele><time>2026-05-01T09:44:59.999Z</time></trkpt><trkpt lat="39.382003302883085" lon="8.491589387441804"><ele>483.25</ele><time>2026-05-01T09:45:00.999Z</time></trkpt><trkpt lat="39.38209505152077" lon="8.49154545144893"><ele>483.0</ele><time>2026-05-01T09:45:01.999Z</time></trkpt><trkpt lat="39.38225707204561" lon="8.491469250973328"><ele>479.75</ele><time>2026-05-01T09:45:02.999Z</time></trkpt><trkpt lat="39.38238587008327" lon="8.491436952179951"><ele>476.5</ele><time>2026-05-01T09:45:04Z</time></trkpt><trkpt lat="39.38252290318182" lon="8.491481299166814"><ele>473.25</ele><time>2026-05-01T09:45:05Z</time></trkpt><trkpt lat="39.382589064548156" lon="8.491577043461252"><ele>470.0</ele><time>2026-05-01T09:45:06Z</time></trkpt><trkpt lat="39.3826226845385" lon="8.49173513751075"><ele>470.0</ele><time>2026-05-01T09:45:07Z</time></trkpt><trkpt lat="39.38267654076199" lon="8.491960728665825"><ele>470.0</ele><time>2026-05-01T09:45:08Z</time></trkpt><trkpt lat="39.38274281847998" lon="8.492169033287588"><ele>470.0</ele><time>2026-05-01T09:45:09Z</time></trkpt><trkpt lat="39.382784198058424" lon="8.492385872752076"><ele>466.66666666666663</ele><time>2026-05-01T09:45:10Z</time></trkpt><trkpt lat="39.38284053779047" lon="8.492609134518926"><ele>463.33333333333337</ele><time>2026-05-01T09:45:11Z</time></trkpt><trkpt lat="39.38290349023784" lon="8.492874009247386"><ele>460.0</ele><time>2026-05-01T09:45:12Z</time></trkpt><trkpt lat="39.38296268301037" lon="8.493101723927921"><ele>460.6666666666667</ele><time>2026-05-01T09:45:13Z</time></trkpt><trkpt lat="39.3830203211635" lon="8.493332823851228"><ele>461.33333333333337</ele><time>2026-05-01T09:45:14Z</time></trkpt><trkpt lat="39.38308225033441" lon="8.493564092913733"><ele>462.0</ele><time>2026-05-01T09:45:15Z</time></trkpt><trkpt lat="39.38314208848359" lon="8.493783756898388"><ele>458.33333333333337</ele><time>2026-05-01T09:45:16Z</time></trkpt><trkpt lat="39.38319270046959" lon="8.493993157328951"><ele>454.6666666666667</ele><time>2026-05-01T09:45:17Z</time></trkpt><trkpt lat="39.38324188400332" lon="8.494193162410147"><ele>451.0</ele><time>2026-05-01T09:45:18Z</time></trkpt><trkpt lat="39.383293871511874" lon="8.494382356883765"><ele>451.0</ele><time>2026-05-01T09:45:19Z</time></trkpt><trkpt lat="39.383344579156784" lon="8.49456566121551"><ele>451.0</ele><time>2026-05-01T09:45:20Z</time></trkpt><trkpt lat="39.383392981207614" lon="8.494742568960117"><ele>451.0</ele><time>2026-05-01T09:45:21Z</time></trkpt><trkpt lat="39.383440466938694" lon="8.494929745264862"><ele>451.0</ele><time>2026-05-01T09:45:22Z</time></trkpt><trkpt lat="39.38350447170968" lon="8.495111595685014"><ele>449.25</ele><time>2026-05-01T09:45:23Z</time></trkpt><trkpt lat="39.38358949037027" lon="8.495277367603158"><ele>447.5</ele><time>2026-05-01T09:45:24Z</time></trkpt><trkpt lat="39.38368125751633" lon="8.495427320440202"><ele>445.75</ele><time>2026-05-01T09:45:25Z</time></trkpt><trkpt lat="39.38378548259839" lon="8.495549775687241"><ele>444.0</ele><time>2026-05-01T09:45:26Z</time></trkpt><trkpt lat="39.38390626726729" lon="8.495628938770125"><ele>444.0</ele><time>2026-05-01T09:45:27Z</time></trkpt><trkpt lat="39.384045314325455" lon="8.495641582110379"><ele>444.0</ele><time>2026-05-01T09:45:28Z</time></trkpt><trkpt lat="39.38417731601877" lon="8.495569142287959"><ele>444.0</ele><time>2026-05-01T09:45:29Z</time></trkpt><trkpt lat="39.38428610295937" lon="8.495444949645547"><ele>444.0</ele><time>2026-05-01T09:45:30Z</time></trkpt><trkpt lat="39.38435083072097" lon="8.495260040456564"><ele>444.66666666666663</ele><time>2026-05-01T09:45:31Z</time></trkpt><trkpt lat="39.38439654442452" lon="8.495059899184039"><ele>445.3333333333333</ele><time>2026-05-01T09:45:32Z</time></trkpt><trkpt lat="39.38443513760199" lon="8.494859941412141"><ele>446.0</ele><time>2026-05-01T09:45:33Z</time></trkpt><trkpt lat="39.38444722033566" lon="8.4946565907737"><ele>446.3333333333333</ele><time>2026-05-01T09:45:34Z</time></trkpt><trkpt lat="39.384415821026266" lon="8.494455186712337"><ele>446.66666666666663</ele><time>2026-05-01T09:45:35Z</time></trkpt><trkpt lat="39.38435277615568" lon="8.494273456551424"><ele>447.0</ele><time>2026-05-01T09:45:36Z</time></trkpt><trkpt lat="39.38432636764491" lon="8.494094090064833"><ele>447.0</ele><time>2026-05-01T09:45:37Z</time></trkpt><trkpt lat="39.38438408268028" lon="8.493916951210489"><ele>447.0</ele><time>2026-05-01T09:45:38Z</time></trkpt><trkpt lat="39.384441180929926" lon="8.4937141059187"><ele>447.0</ele><time>2026-05-01T09:45:39Z</time></trkpt><trkpt lat="39.384496128257446" lon="8.493520312895054"><ele>448.25</ele><time>2026-05-01T09:45:40Z</time></trkpt><trkpt lat="39.38454226712651" lon="8.493326778132648"><ele>449.5</ele><time>2026-05-01T09:45:41Z</time></trkpt><trkpt lat="39.38460046601609" lon="8.493154588695912"><ele>450.75</ele><time>2026-05-01T09:45:42Z</time></trkpt><trkpt lat="39.384686540039354" lon="8.493035462267219"><ele>452.0</ele><time>2026-05-01T09:45:43Z</time></trkpt><trkpt lat="39.384801882241305" lon="8.492978128671762"><ele>448.75</ele><time>2026-05-01T09:45:44Z</time></trkpt><trkpt lat="39.38494738118072" lon="8.4929890913836"><ele>445.5</ele><time>2026-05-01T09:45:45Z</time></trkpt><trkpt lat="39.38507129817352" lon="8.492896969061261"><ele>442.25</ele><time>2026-05-01T09:45:46Z</time></trkpt><trkpt lat="39.38514559956383" lon="8.492754733435765"><ele>439.0</ele><time>2026-05-01T09:45:47Z</time></trkpt><trkpt lat="39.38520821982047" lon="8.492559373696306"><ele>439.0</ele><time>2026-05-01T09:45:48Z</time></trkpt><trkpt lat="39.38531200405365" lon="8.492424491833619"><ele>439.0</ele><time>2026-05-01T09:45:49Z</time></trkpt><trkpt lat="39.38542877618515" lon="8.492311832192987"><ele>439.0</ele><time>2026-05-01T09:45:50Z</time></trkpt><trkpt lat="39.385527415674254" lon="8.492191409628239"><ele>439.0</ele><time>2026-05-01T09:45:51Z</time></trkpt><trkpt lat="39.38558188433996" lon="8.49200338167793"><ele>434.75</ele><time>2026-05-01T09:45:52Z</time></trkpt><trkpt lat="39.385615360383255" lon="8.491818021304995"><ele>430.5</ele><time>2026-05-01T09:45:53Z</time></trkpt><trkpt lat="39.38567325962462" lon="8.491657182269002"><ele>426.25</ele><time>2026-05-01T09:45:54Z</time></trkpt><trkpt lat="39.3857570561739" lon="8.491549530591826"><ele>422.0</ele><time>2026-05-01T09:45:55Z</time></trkpt><trkpt lat="39.38588403352471" lon="8.49151564375586"><ele>422.0</ele><time>2026-05-01T09:45:56Z</time></trkpt><trkpt lat="39.386017539451984" lon="8.49155162238882"><ele>422.0</ele><time>2026-05-01T09:45:57Z</time></trkpt><trkpt lat="39.386143922208454" lon="8.491613249748553"><ele>422.0</ele><time>2026-05-01T09:45:58Z</time></trkpt><trkpt lat="39.386253151777545" lon="8.491641633230847"><ele>422.0</ele><time>2026-05-01T09:45:59Z</time></trkpt><trkpt lat="39.38634207627953" lon="8.491577859383629"><ele>418.75</ele><time>2026-05-01T09:46:00Z</time></trkpt><trkpt lat="39.386404542341815" lon="8.49143926561878"><ele>415.5</ele><time>2026-05-01T09:46:01Z</time></trkpt><trkpt lat="39.38643403651792" lon="8.4912635447117"><ele>412.25</ele><time>2026-05-01T09:46:02Z</time></trkpt><trkpt lat="39.3864724271262" lon="8.491089448675853"><ele>409.0</ele><time>2026-05-01T09:46:03Z</time></trkpt><trkpt lat="39.38654271656264" lon="8.490927342414878"><ele>409.0</ele><time>2026-05-01T09:46:04Z</time></trkpt><trkpt lat="39.38663882034681" lon="8.490800295691923"><ele>409.0</ele><time>2026-05-01T09:46:05Z</time></trkpt><trkpt lat="39.386726669430324" lon="8.49068130465464"><ele>409.0</ele><time>2026-05-01T09:46:06Z</time></trkpt><trkpt lat="39.386738527863116" lon="8.490512520982122"><ele>409.0</ele><time>2026-05-01T09:46:07Z</time></trkpt><trkpt lat="39.38668946914759" lon="8.490347477414073"><ele>408.0</ele><time>2026-05-01T09:46:08Z</time></trkpt><trkpt lat="39.386594779704694" lon="8.490206298828104"><ele>407.0</ele><time>2026-05-01T09:46:09Z</time></trkpt><trkpt lat="39.386474850170025" lon="8.490098912520253"><ele>406.0</ele><time>2026-05-01T09:46:10Z</time></trkpt><trkpt lat="39.386340123573696" lon="8.490032203304727"><ele>405.0</ele><time>2026-05-01T09:46:10.999Z</time></trkpt><trkpt lat="39.386193156429016" lon="8.49000465336338"><ele>405.0</ele><time>2026-05-01T09:46:11.999Z</time></trkpt><trkpt lat="39.38605331752928" lon="8.489985565664037"><ele>405.0</ele><time>2026-05-01T09:46:12.999Z</time></trkpt><trkpt lat="39.38592386115039" lon="8.489961376633822"><ele>405.0</ele><time>2026-05-01T09:46:13.999Z</time></trkpt><trkpt lat="39.38580113157157" lon="8.489930489933956"><ele>405.0</ele><time>2026-05-01T09:46:14.999Z</time></trkpt><trkpt lat="39.38568294378302" lon="8.489899821904087"><ele>405.0</ele><time>2026-05-01T09:46:15.999Z</time></trkpt><trkpt lat="39.385567909779816" lon="8.489867958723831"><ele>405.0</ele><time>2026-05-01T09:46:16.999Z</time></trkpt><trkpt lat="39.38545929618415" lon="8.489832265152248"><ele>405.0</ele><time>2026-05-01T09:46:17.999Z</time></trkpt><trkpt lat="39.38536988586306" lon="8.489756611417656"><ele>405.0</ele><time>2026-05-01T09:46:18.999Z</time></trkpt><trkpt lat="39.385322661332864" lon="8.48961984885821"><ele>408.25</ele><time>2026-05-01T09:46:19.999Z</time></trkpt><trkpt lat="39.385327854069146" lon="8.48945218621147"><ele>411.5</ele><time>2026-05-01T09:46:20.999Z</time></trkpt><trkpt lat="39.38535079141383" lon="8.489279128497051"><ele>414.75</ele><time>2026-05-01T09:46:21.999Z</time></trkpt><trkpt lat="39.38535607739891" lon="8.489118409268558"><ele>418.0</ele><time>2026-05-01T09:46:22.999Z</time></trkpt><trkpt lat="39.38535739035153" lon="8.488978892445134"><ele>418.0</ele><time>2026-05-01T09:46:23.999Z</time></trkpt><trkpt lat="39.385401590268266" lon="8.488877385060588"><ele>418.0</ele><time>2026-05-01T09:46:24.999Z</time></trkpt><trkpt lat="39.3854851239911" lon="8.488813930720225"><ele>418.0</ele><time>2026-05-01T09:46:25.999Z</time></trkpt><trkpt lat="39.38563052199028" lon="8.488828507429057"><ele>418.0</ele><time>2026-05-01T09:46:26.999Z</time></trkpt><trkpt lat="39.38574905500211" lon="8.48892936654239"><ele>412.25</ele><time>2026-05-01T09:46:27.999Z</time></trkpt><trkpt lat="39.38587990948329" lon="8.48899718656567"><ele>406.5</ele><time>2026-05-01T09:46:28.999Z</time></trkpt><trkpt lat="39.38601876142268" lon="8.489040995676758"><ele>400.75</ele><time>2026-05-01T09:46:29.999Z</time></trkpt><trkpt lat="39.38616597341221" lon="8.489011682729178"><ele>395.0</ele><time>2026-05-01T09:46:30.999Z</time></trkpt><trkpt lat="39.38630922369467" lon="8.488929591204407"><ele>394.66666666666663</ele><time>2026-05-01T09:46:31.999Z</time></trkpt><trkpt lat="39.3864420535972" lon="8.488797734418537"><ele>394.33333333333337</ele><time>2026-05-01T09:46:32.999Z</time></trkpt><trkpt lat="39.386564298949764" lon="8.488657556208471"><ele>394.0</ele><time>2026-05-01T09:46:33.999Z</time></trkpt><trkpt lat="39.38668510894374" lon="8.488540900829065"><ele>394.0</ele><time>2026-05-01T09:46:34.999Z</time></trkpt><trkpt lat="39.38681933836591" lon="8.488449032794"><ele>394.0</ele><time>2026-05-01T09:46:35.999Z</time></trkpt><trkpt lat="39.38695607582354" lon="8.488429607497036"><ele>394.0</ele><time>2026-05-01T09:46:36.999Z</time></trkpt><trkpt lat="39.38708724474075" lon="8.488375803577227"><ele>394.0</ele><time>2026-05-01T09:46:37.999Z</time></trkpt><trkpt lat="39.387188248467034" lon="8.48827335468926"><ele>390.25</ele><time>2026-05-01T09:46:38.999Z</time></trkpt><trkpt lat="39.387229379007664" lon="8.488105336742123"><ele>386.5</ele><time>2026-05-01T09:46:39.999Z</time></trkpt><trkpt lat="39.387239117989445" lon="8.48791573241396"><ele>382.75</ele><time>2026-05-01T09:46:40.999Z</time></trkpt><trkpt lat="39.387236439226896" lon="8.487723652163156"><ele>379.0</ele><time>2026-05-01T09:46:41.999Z</time></trkpt><trkpt lat="39.387253414563666" lon="8.48754102023821"><ele>379.0</ele><time>2026-05-01T09:46:42.999Z</time></trkpt><trkpt lat="39.38728569423083" lon="8.48737429076895"><ele>379.0</ele><time>2026-05-01T09:46:43.999Z</time></trkpt><trkpt lat="39.38732851983726" lon="8.48725171144991"><ele>379.0</ele><time>2026-05-01T09:46:44.999Z</time></trkpt><trkpt lat="39.38741292552907" lon="8.487169693550271"><ele>379.0</ele><time>2026-05-01T09:46:45.999Z</time></trkpt><trkpt lat="39.38752851224286" lon="8.487164081731981"><ele>379.0</ele><time>2026-05-01T09:46:46.999Z</time></trkpt><trkpt lat="39.387655701072916" lon="8.48723635706997"><ele>379.0</ele><time>2026-05-01T09:46:47.999Z</time></trkpt><trkpt lat="39.387720900210695" lon="8.487379592932543"><ele>379.0</ele><time>2026-05-01T09:46:48.999Z</time></trkpt><trkpt lat="39.387743080499675" lon="8.487573383924602"><ele>379.0</ele><time>2026-05-01T09:46:49.999Z</time></trkpt><trkpt lat="39.38776751184504" lon="8.48773876037008"><ele>379.0</ele><time>2026-05-01T09:46:50.999Z</time></trkpt><trkpt lat="39.38784539374822" lon="8.487875258653974"><ele>379.0</ele><time>2026-05-01T09:46:51.999Z</time></trkpt><trkpt lat="39.38793089047613" lon="8.48798051866923"><ele>379.0</ele><time>2026-05-01T09:46:52.999Z</time></trkpt><trkpt lat="39.38802291825805" lon="8.48803230824941"><ele>379.0</ele><time>2026-05-01T09:46:53.999Z</time></trkpt><trkpt lat="39.38813091567062" lon="8.487996897423823"><ele>375.0</ele><time>2026-05-01T09:46:54.999Z</time></trkpt><trkpt lat="39.38821718813931" lon="8.487886987762746"><ele>371.0</ele><time>2026-05-01T09:46:55.999Z</time></trkpt><trkpt lat="39.388250138689436" lon="8.487728120665123"><ele>367.0</ele><time>2026-05-01T09:46:56.999Z</time></trkpt><trkpt lat="39.38821979176894" lon="8.487555861177118"><ele>363.0</ele><time>2026-05-01T09:46:57.999Z</time></trkpt><trkpt lat="39.38816293783273" lon="8.48739373478502"><ele>363.0</ele><time>2026-05-01T09:46:58.999Z</time></trkpt><trkpt lat="39.38812059480876" lon="8.487235503389236"><ele>363.0</ele><time>2026-05-01T09:46:59.999Z</time></trkpt><trkpt lat="39.38812086212924" lon="8.487074545693966"><ele>363.0</ele><time>2026-05-01T09:47:00.999Z</time></trkpt><trkpt lat="39.388185664210106" lon="8.4869207413549"><ele>363.0</ele><time>2026-05-01T09:47:01.999Z</time></trkpt><trkpt lat="39.38828883812611" lon="8.486804198838918"><ele>363.6666666666667</ele><time>2026-05-01T09:47:02.999Z</time></trkpt><trkpt lat="39.38839580962272" lon="8.48668708022516"><ele>364.33333333333337</ele><time>2026-05-01T09:47:03.999Z</time></trkpt><trkpt lat="39.388459008631365" lon="8.486496159826373"><ele>365.0</ele><time>2026-05-01T09:47:04.999Z</time></trkpt><trkpt lat="39.38844562290996" lon="8.486295143592436"><ele>361.6666666666667</ele><time>2026-05-01T09:47:05.999Z</time></trkpt><trkpt lat="39.38841365728934" lon="8.486102255860812"><ele>358.3333333333333</ele><time>2026-05-01T09:47:06.999Z</time></trkpt><trkpt lat="39.38835980185472" lon="8.485916652335897"><ele>355.0</ele><time>2026-05-01T09:47:07.999Z</time></trkpt><trkpt lat="39.38828625665742" lon="8.485751459847368"><ele>355.0</ele><time>2026-05-01T09:47:09Z</time></trkpt><trkpt lat="39.38818556490997" lon="8.485631267069518"><ele>355.0</ele><time>2026-05-01T09:47:10Z</time></trkpt><trkpt lat="39.38806420249614" lon="8.485540399551079"><ele>355.0</ele><time>2026-05-01T09:47:11Z</time></trkpt><trkpt lat="39.38796372465916" lon="8.485451233897138"><ele>355.0</ele><time>2026-05-01T09:47:12Z</time></trkpt><trkpt lat="39.38788057329358" lon="8.485363090901508"><ele>354.25</ele><time>2026-05-01T09:47:13Z</time></trkpt><trkpt lat="39.38788865513707" lon="8.485239327339059"><ele>353.5</ele><time>2026-05-01T09:47:14Z</time></trkpt><trkpt lat="39.38794463595573" lon="8.485132306217405"><ele>352.75</ele><time>2026-05-01T09:47:15Z</time></trkpt><trkpt lat="39.38806629804501" lon="8.485077927296423"><ele>352.0</ele><time>2026-05-01T09:47:16Z</time></trkpt><trkpt lat="39.38820097245555" lon="8.484982282232167"><ele>352.0</ele><time>2026-05-01T09:47:17Z</time></trkpt><trkpt lat="39.38834003362795" lon="8.484886219376122"><ele>352.0</ele><time>2026-05-01T09:47:18Z</time></trkpt><trkpt lat="39.38848293104853" lon="8.484780849733331"><ele>352.0</ele><time>2026-05-01T09:47:19Z</time></trkpt><trkpt lat="39.38862279004044" lon="8.484654950919124"><ele>349.75</ele><time>2026-05-01T09:47:20Z</time></trkpt><trkpt lat="39.38874744295655" lon="8.4845371420448"><ele>347.5</ele><time>2026-05-01T09:47:21Z</time></trkpt><trkpt lat="39.388845568742035" lon="8.48440730722529"><ele>345.25</ele><time>2026-05-01T09:47:22Z</time></trkpt><trkpt lat="39.388934035468864" lon="8.484250860612798"><ele>343.0</ele><time>2026-05-01T09:47:23Z</time></trkpt><trkpt lat="39.38902861073095" lon="8.484107307307541"><ele>343.0</ele><time>2026-05-01T09:47:24Z</time></trkpt><trkpt lat="39.38917310646696" lon="8.484038811809468"><ele>343.0</ele><time>2026-05-01T09:47:25Z</time></trkpt><trkpt lat="39.38932979313076" lon="8.483961043450257"><ele>343.0</ele><time>2026-05-01T09:47:26Z</time></trkpt><trkpt lat="39.389451163004885" lon="8.483874682403906"><ele>343.0</ele><time>2026-05-01T09:47:27Z</time></trkpt><trkpt lat="39.389582987505456" lon="8.483787699795128"><ele>343.0</ele><time>2026-05-01T09:47:28Z</time></trkpt><trkpt lat="39.38975152713754" lon="8.483659431376852"><ele>343.0</ele><time>2026-05-01T09:47:29Z</time></trkpt><trkpt lat="39.3899108547666" lon="8.48346578781343"><ele>340.0</ele><time>2026-05-01T09:47:30Z</time></trkpt><trkpt lat="39.39008750156444" lon="8.483309159141683"><ele>337.0</ele><time>2026-05-01T09:47:31Z</time></trkpt><trkpt lat="39.39026991736022" lon="8.483255083342529"><ele>334.0</ele><time>2026-05-01T09:47:32Z</time></trkpt><trkpt lat="39.39042809838727" lon="8.48319009443002"><ele>330.0</ele><time>2026-05-01T09:47:33Z</time></trkpt><trkpt lat="39.39056647261445" lon="8.483096637840513"><ele>326.0</ele><time>2026-05-01T09:47:34Z</time></trkpt><trkpt lat="39.39067435049938" lon="8.482956841804265"><ele>322.0</ele><time>2026-05-01T09:47:35Z</time></trkpt><trkpt lat="39.39075103045711" lon="8.482838684917764"><ele>318.0</ele><time>2026-05-01T09:47:36Z</time></trkpt><trkpt lat="39.390769161101524" lon="8.482715960100544"><ele>318.0</ele><time>2026-05-01T09:47:37Z</time></trkpt><trkpt lat="39.390738449719784" lon="8.482586333233332"><ele>318.0</ele><time>2026-05-01T09:47:38Z</time></trkpt><trkpt lat="39.39063837267914" lon="8.482507717199406"><ele>318.0</ele><time>2026-05-01T09:47:39Z</time></trkpt><trkpt lat="39.39051591296985" lon="8.482502231815516"><ele>318.0</ele><time>2026-05-01T09:47:40Z</time></trkpt><trkpt lat="39.390377705949795" lon="8.48254711909529"><ele>320.0</ele><time>2026-05-01T09:47:41Z</time></trkpt><trkpt lat="39.3902379784024" lon="8.482577557264326"><ele>322.0</ele><time>2026-05-01T09:47:42Z</time></trkpt><trkpt lat="39.3901052093725" lon="8.48249758530645"><ele>324.0</ele><time>2026-05-01T09:47:43Z</time></trkpt><trkpt lat="39.38994921571763" lon="8.482438970872023"><ele>324.0</ele><time>2026-05-01T09:47:44Z</time></trkpt><trkpt lat="39.38979756727125" lon="8.482343926504598"><ele>324.0</ele><time>2026-05-01T09:47:45Z</time></trkpt><trkpt lat="39.38965214280946" lon="8.4822658066193"><ele>324.0</ele><time>2026-05-01T09:47:46Z</time></trkpt><trkpt lat="39.389514379599845" lon="8.482199624356753"><ele>322.25</ele><time>2026-05-01T09:47:47Z</time></trkpt><trkpt lat="39.38938039273543" lon="8.482154473617598"><ele>320.5</ele><time>2026-05-01T09:47:48Z</time></trkpt><trkpt lat="39.38925534082097" lon="8.48213478309504"><ele>318.75</ele><time>2026-05-01T09:47:49Z</time></trkpt><trkpt lat="39.3891527988901" lon="8.482111640881957"><ele>317.0</ele><time>2026-05-01T09:47:50Z</time></trkpt><trkpt lat="39.38906324385498" lon="8.482032988565125"><ele>317.0</ele><time>2026-05-01T09:47:51Z</time></trkpt><trkpt lat="39.38902362012649" lon="8.481879355437433"><ele>317.0</ele><time>2026-05-01T09:47:52Z</time></trkpt><trkpt lat="39.388966331643545" lon="8.481712344111214"><ele>317.0</ele><time>2026-05-01T09:47:53Z</time></trkpt><trkpt lat="39.38891129578976" lon="8.481552912531171"><ele>317.0</ele><time>2026-05-01T09:47:54Z</time></trkpt><trkpt lat="39.38883508753074" lon="8.48140315950722"><ele>320.0</ele><time>2026-05-01T09:47:55Z</time></trkpt><trkpt lat="39.38876342447473" lon="8.481259652542805"><ele>323.0</ele><time>2026-05-01T09:47:56Z</time></trkpt><trkpt lat="39.38868117412207" lon="8.481141936764354"><ele>326.0</ele><time>2026-05-01T09:47:57Z</time></trkpt><trkpt lat="39.38858579626331" lon="8.481061620811982"><ele>329.0</ele><time>2026-05-01T09:47:58Z</time></trkpt><trkpt lat="39.38851850858505" lon="8.480992259361107"><ele>329.0</ele><time>2026-05-01T09:47:59Z</time></trkpt><trkpt lat="39.38851685011591" lon="8.480873104847458"><ele>329.0</ele><time>2026-05-01T09:48:00Z</time></trkpt><trkpt lat="39.3885788720445" lon="8.480749971816765"><ele>329.0</ele><time>2026-05-01T09:48:01Z</time></trkpt><trkpt lat="39.38866011657251" lon="8.480687845226623"><ele>329.0</ele><time>2026-05-01T09:48:02Z</time></trkpt><trkpt lat="39.38874835407554" lon="8.480719287492501"><ele>329.0</ele><time>2026-05-01T09:48:04Z</time></trkpt><trkpt lat="39.388863471419" lon="8.480775476705517"><ele>325.5</ele><time>2026-05-01T09:48:06Z</time></trkpt><trkpt lat="39.38894567913985" lon="8.480844942885902"><ele>322.0</ele><time>2026-05-01T09:48:07Z</time></trkpt><trkpt lat="39.3890377943556" lon="8.480932771742248"><ele>318.5</ele><time>2026-05-01T09:48:08Z</time></trkpt><trkpt lat="39.38914949733451" lon="8.481028805524588"><ele>315.0</ele><time>2026-05-01T09:48:09Z</time></trkpt><trkpt lat="39.38926755311277" lon="8.481137655707066"><ele>315.0</ele><time>2026-05-01T09:48:10Z</time></trkpt><trkpt lat="39.38939114219834" lon="8.481251416179646"><ele>315.0</ele><time>2026-05-01T09:48:11Z</time></trkpt><trkpt lat="39.38951605198576" lon="8.481355306081062"><ele>315.0</ele><time>2026-05-01T09:48:11.999Z</time></trkpt><trkpt lat="39.38963763339986" lon="8.481442546504457"><ele>315.0</ele><time>2026-05-01T09:48:12.999Z</time></trkpt><trkpt lat="39.38975825709956" lon="8.481522580595987"><ele>313.25</ele><time>2026-05-01T09:48:13.999Z</time></trkpt><trkpt lat="39.38988393883186" lon="8.481586182355342"><ele>311.5</ele><time>2026-05-01T09:48:14.999Z</time></trkpt><trkpt lat="39.39002059177765" lon="8.481622662410198"><ele>309.75</ele><time>2026-05-01T09:48:15.999Z</time></trkpt><trkpt lat="39.390168331776245" lon="8.481617340281808"><ele>308.0</ele><time>2026-05-01T09:48:16.999Z</time></trkpt><trkpt lat="39.3903171722708" lon="8.481590809736478"><ele>308.0</ele><time>2026-05-01T09:48:17.999Z</time></trkpt><trkpt lat="39.39046670740056" lon="8.481553282469783"><ele>308.0</ele><time>2026-05-01T09:48:18.999Z</time></trkpt><trkpt lat="39.390617986918954" lon="8.481519736901983"><ele>308.0</ele><time>2026-05-01T09:48:19.999Z</time></trkpt><trkpt lat="39.3907801114933" lon="8.481490234924818"><ele>306.6666666666667</ele><time>2026-05-01T09:48:20.999Z</time></trkpt><trkpt lat="39.39094090401471" lon="8.48146341353738"><ele>305.3333333333333</ele><time>2026-05-01T09:48:21.999Z</time></trkpt><trkpt lat="39.39110353432197" lon="8.481436605438972"><ele>304.0</ele><time>2026-05-01T09:48:22.999Z</time></trkpt><trkpt lat="39.391266142476695" lon="8.48140456768189"><ele>301.3333333333333</ele><time>2026-05-01T09:48:23.999Z</time></trkpt><trkpt lat="39.39142995081322" lon="8.481369302788456"><ele>298.6666666666667</ele><time>2026-05-01T09:48:24.999Z</time></trkpt><trkpt lat="39.391591682257626" lon="8.48133704557875"><ele>296.0</ele><time>2026-05-01T09:48:25.999Z</time></trkpt><trkpt lat="39.39174641383024" lon="8.481309816893527"><ele>296.0</ele><time>2026-05-01T09:48:26.999Z</time></trkpt><trkpt lat="39.391896148936205" lon="8.481285883952415"><ele>296.0</ele><time>2026-05-01T09:48:27.999Z</time></trkpt><trkpt lat="39.39204017238753" lon="8.481296864600793"><ele>296.0</ele><time>2026-05-01T09:48:28.999Z</time></trkpt><trkpt lat="39.39215868663814" lon="8.481388044597155"><ele>296.0</ele><time>2026-05-01T09:48:29.999Z</time></trkpt><trkpt lat="39.39226432076448" lon="8.4814932605294"><ele>296.75</ele><time>2026-05-01T09:48:30.999Z</time></trkpt><trkpt lat="39.39237329062322" lon="8.481605960924735"><ele>297.5</ele><time>2026-05-01T09:48:31.999Z</time></trkpt><trkpt lat="39.39244496335558" lon="8.481735140442153"><ele>298.25</ele><time>2026-05-01T09:48:32.999Z</time></trkpt><trkpt lat="39.39248328933317" lon="8.481887110888009"><ele>299.0</ele><time>2026-05-01T09:48:33.999Z</time></trkpt><trkpt lat="39.39242499097338" lon="8.482044711451733"><ele>299.25</ele><time>2026-05-01T09:48:34.999Z</time></trkpt><trkpt lat="39.3923571395808" lon="8.482170255617369"><ele>299.5</ele><time>2026-05-01T09:48:35.999Z</time></trkpt><trkpt lat="39.39226709984815" lon="8.48227916001043"><ele>299.75</ele><time>2026-05-01T09:48:36.999Z</time></trkpt><trkpt lat="39.392166371555476" lon="8.482400775500524"><ele>300.0</ele><time>2026-05-01T09:48:37.999Z</time></trkpt><trkpt lat="39.39206833831665" lon="8.482515713868192"><ele>300.3333333333333</ele><time>2026-05-01T09:48:38.999Z</time></trkpt><trkpt lat="39.39194435399729" lon="8.482661546172366"><ele>300.66666666666663</ele><time>2026-05-01T09:48:39.999Z</time></trkpt><trkpt lat="39.391842729686346" lon="8.48280347843974"><ele>301.0</ele><time>2026-05-01T09:48:40.999Z</time></trkpt><trkpt lat="39.39175433478573" lon="8.482953572888647"><ele>299.25</ele><time>2026-05-01T09:48:41.999Z</time></trkpt><trkpt lat="39.391678132583564" lon="8.483116036063368"><ele>297.5</ele><time>2026-05-01T09:48:42.999Z</time></trkpt><trkpt lat="39.39162523717653" lon="8.483290455097087"><ele>295.75</ele><time>2026-05-01T09:48:43.999Z</time></trkpt><trkpt lat="39.391596645712205" lon="8.483472708944896"><ele>294.0</ele><time>2026-05-01T09:48:44.999Z</time></trkpt><trkpt lat="39.391581536103544" lon="8.483668961914578"><ele>297.3333333333333</ele><time>2026-05-01T09:48:45.999Z</time></trkpt><trkpt lat="39.391543539658635" lon="8.48386359227969"><ele>300.66666666666663</ele><time>2026-05-01T09:48:46.999Z</time></trkpt><trkpt lat="39.3914568627276" lon="8.484031800756407"><ele>304.0</ele><time>2026-05-01T09:48:47.999Z</time></trkpt><trkpt lat="39.3913802321921" lon="8.484211065344635"><ele>303.0</ele><time>2026-05-01T09:48:48.999Z</time></trkpt><trkpt lat="39.391299681532246" lon="8.484378652449543"><ele>302.0</ele><time>2026-05-01T09:48:49.999Z</time></trkpt><trkpt lat="39.391222971712175" lon="8.4845617656579"><ele>301.0</ele><time>2026-05-01T09:48:50.999Z</time></trkpt><trkpt lat="39.391134934411056" lon="8.484739483846628"><ele>300.0</ele><time>2026-05-01T09:48:51.999Z</time></trkpt><trkpt lat="39.39104849480957" lon="8.48491416409736"><ele>299.0</ele><time>2026-05-01T09:48:52.999Z</time></trkpt><trkpt lat="39.39095973364758" lon="8.48508672176624"><ele>298.0</ele><time>2026-05-01T09:48:53.999Z</time></trkpt><trkpt lat="39.390873136570356" lon="8.485256641682392"><ele>298.0</ele><time>2026-05-01T09:48:54.999Z</time></trkpt><trkpt lat="39.3907878360893" lon="8.485424905582358"><ele>298.0</ele><time>2026-05-01T09:48:55.999Z</time></trkpt><trkpt lat="39.390703207715724" lon="8.485592820872984"><ele>298.0</ele><time>2026-05-01T09:48:56.999Z</time></trkpt><trkpt lat="39.39062027680251" lon="8.485757778884619"><ele>299.0</ele><time>2026-05-01T09:48:57.999Z</time></trkpt><trkpt lat="39.39055605549377" lon="8.485935922812564"><ele>300.0</ele><time>2026-05-01T09:48:58.999Z</time></trkpt><trkpt lat="39.39051376110006" lon="8.486123642748474"><ele>301.0</ele><time>2026-05-01T09:48:59.999Z</time></trkpt><trkpt lat="39.390496618224006" lon="8.486320390953951"><ele>301.0</ele><time>2026-05-01T09:49:00.999Z</time></trkpt><trkpt lat="39.3905055056585" lon="8.48651686522529"><ele>301.0</ele><time>2026-05-01T09:49:01.999Z</time></trkpt><trkpt lat="39.39053820841521" lon="8.486714374210562"><ele>301.0</ele><time>2026-05-01T09:49:02.999Z</time></trkpt><trkpt lat="39.39058079546493" lon="8.486907179197598"><ele>303.0</ele><time>2026-05-01T09:49:03.999Z</time></trkpt><trkpt lat="39.39062288587965" lon="8.487103922292041"><ele>305.0</ele><time>2026-05-01T09:49:04.999Z</time></trkpt><trkpt lat="39.39066248125482" lon="8.487304785459022"><ele>307.0</ele><time>2026-05-01T09:49:05.999Z</time></trkpt><trkpt lat="39.39070096532062" lon="8.487505300786832"><ele>307.0</ele><time>2026-05-01T09:49:06.999Z</time></trkpt><trkpt lat="39.39073908242442" lon="8.487709497225877"><ele>307.0</ele><time>2026-05-01T09:49:07.999Z</time></trkpt><trkpt lat="39.39076330332919" lon="8.487917554666698"><ele>307.0</ele><time>2026-05-01T09:49:08.999Z</time></trkpt><trkpt lat="39.39080155466443" lon="8.488123068994234"><ele>306.66666666666663</ele><time>2026-05-01T09:49:09.999Z</time></trkpt><trkpt lat="39.39083986781303" lon="8.488328915430161"><ele>306.3333333333333</ele><time>2026-05-01T09:49:10.999Z</time></trkpt><trkpt lat="39.390890925878395" lon="8.488530683228174"><ele>306.0</ele><time>2026-05-01T09:49:11.999Z</time></trkpt><trkpt lat="39.390920675555414" lon="8.488742293907823"><ele>307.6666666666667</ele><time>2026-05-01T09:49:12.999Z</time></trkpt><trkpt lat="39.390939118257904" lon="8.488959965345929"><ele>309.33333333333337</ele><time>2026-05-01T09:49:14Z</time></trkpt><trkpt lat="39.39094520844502" lon="8.489178139441444"><ele>311.0</ele><time>2026-05-01T09:49:15Z</time></trkpt><trkpt lat="39.3909259345495" lon="8.489383950478262"><ele>311.6666666666667</ele><time>2026-05-01T09:49:16Z</time></trkpt><trkpt lat="39.39090345196242" lon="8.489597238395644"><ele>312.3333333333333</ele><time>2026-05-01T09:49:17Z</time></trkpt><trkpt lat="39.390875285064986" lon="8.489807337038455"><ele>313.0</ele><time>2026-05-01T09:49:18Z</time></trkpt><trkpt lat="39.39084429425572" lon="8.490014961815886"><ele>313.0</ele><time>2026-05-01T09:49:19Z</time></trkpt><trkpt lat="39.39081813817414" lon="8.490222373868793"><ele>313.0</ele><time>2026-05-01T09:49:20Z</time></trkpt><trkpt lat="39.39079093085327" lon="8.490432318015472"><ele>313.0</ele><time>2026-05-01T09:49:21Z</time></trkpt><trkpt lat="39.39076270347073" lon="8.49063694832328"><ele>315.0</ele><time>2026-05-01T09:49:22Z</time></trkpt><trkpt lat="39.39073107595897" lon="8.490840470825386"><ele>317.0</ele><time>2026-05-01T09:49:23Z</time></trkpt><trkpt lat="39.39070599610178" lon="8.491042024155766"><ele>319.0</ele><time>2026-05-01T09:49:24Z</time></trkpt><trkpt lat="39.390679803906394" lon="8.4912422495538"><ele>322.3333333333333</ele><time>2026-05-01T09:49:25Z</time></trkpt><trkpt lat="39.390648860622555" lon="8.491440068276232"><ele>325.6666666666667</ele><time>2026-05-01T09:49:26Z</time></trkpt><trkpt lat="39.39061776072428" lon="8.491638168794212"><ele>329.0</ele><time>2026-05-01T09:49:27Z</time></trkpt><trkpt lat="39.39059044891365" lon="8.49183473662297"><ele>329.0</ele><time>2026-05-01T09:49:28Z</time></trkpt><trkpt lat="39.390563289837644" lon="8.492031317409477"><ele>329.0</ele><time>2026-05-01T09:49:29Z</time></trkpt><trkpt lat="39.39053650404084" lon="8.492227694990804"><ele>329.0</ele><time>2026-05-01T09:49:30Z</time></trkpt><trkpt lat="39.39051021138218" lon="8.49242191384362"><ele>323.33333333333337</ele><time>2026-05-01T09:49:31Z</time></trkpt><trkpt lat="39.390481026297635" lon="8.49261725487756"><ele>317.6666666666667</ele><time>2026-05-01T09:49:32Z</time></trkpt><trkpt lat="39.3904445042895" lon="8.492810123172212"><ele>312.0</ele><time>2026-05-01T09:49:33Z</time></trkpt><trkpt lat="39.39040273917464" lon="8.493001525628724"><ele>312.0</ele><time>2026-05-01T09:49:34Z</time></trkpt><trkpt lat="39.390355170199186" lon="8.49319212058335"><ele>312.0</ele><time>2026-05-01T09:49:35Z</time></trkpt><trkpt lat="39.39030453539086" lon="8.493384265687087"><ele>312.0</ele><time>2026-05-01T09:49:36Z</time></trkpt><trkpt lat="39.390254351856186" lon="8.493575915698536"><ele>313.6666666666667</ele><time>2026-05-01T09:49:37Z</time></trkpt><trkpt lat="39.390203890077586" lon="8.49376758441128"><ele>315.33333333333337</ele><time>2026-05-01T09:49:38Z</time></trkpt><trkpt lat="39.39015536769792" lon="8.493960970927562"><ele>317.0</ele><time>2026-05-01T09:49:39Z</time></trkpt><trkpt lat="39.390103738890346" lon="8.494148511492606"><ele>317.0</ele><time>2026-05-01T09:49:40Z</time></trkpt><trkpt lat="39.390066059677046" lon="8.494317942754861"><ele>317.0</ele><time>2026-05-01T09:49:41Z</time></trkpt><trkpt lat="39.390077035376486" lon="8.494465197487736"><ele>317.0</ele><time>2026-05-01T09:49:42Z</time></trkpt><trkpt lat="39.39014642768203" lon="8.494616556645223"><ele>317.0</ele><time>2026-05-01T09:49:43Z</time></trkpt><trkpt lat="39.3902380357745" lon="8.494761060824684"><ele>319.5</ele><time>2026-05-01T09:49:44Z</time></trkpt><trkpt lat="39.390324273152885" lon="8.49490530426685"><ele>322.0</ele><time>2026-05-01T09:49:45Z</time></trkpt><trkpt lat="39.390399720289935" lon="8.495048532914472"><ele>324.5</ele><time>2026-05-01T09:49:46Z</time></trkpt><trkpt lat="39.39043953281992" lon="8.495197903221515"><ele>327.0</ele><time>2026-05-01T09:49:47Z</time></trkpt><trkpt lat="39.390446942593435" lon="8.495353420453467"><ele>329.0</ele><time>2026-05-01T09:49:48Z</time></trkpt><trkpt lat="39.39042725675026" lon="8.49550636433289"><ele>331.0</ele><time>2026-05-01T09:49:49Z</time></trkpt><trkpt lat="39.390370740202485" lon="8.495636406975551"><ele>333.0</ele><time>2026-05-01T09:49:50Z</time></trkpt><trkpt lat="39.3903165503792" lon="8.495776442286367"><ele>335.0</ele><time>2026-05-01T09:49:51Z</time></trkpt><trkpt lat="39.39027734202301" lon="8.495907556171806"><ele>335.0</ele><time>2026-05-01T09:49:52Z</time></trkpt><trkpt lat="39.39030175450471" lon="8.496035667836683"><ele>335.0</ele><time>2026-05-01T09:49:53Z</time></trkpt><trkpt lat="39.39036452502448" lon="8.49613113800087"><ele>335.0</ele><time>2026-05-01T09:49:54Z</time></trkpt><trkpt lat="39.39044847252912" lon="8.496202012875537"><ele>335.0</ele><time>2026-05-01T09:49:55Z</time></trkpt><trkpt lat="39.39055852865085" lon="8.496227707501214"><ele>335.0</ele><time>2026-05-01T09:49:56Z</time></trkpt><trkpt lat="39.39066555590314" lon="8.49625127480235"><ele>334.6</ele><time>2026-05-01T09:49:57Z</time></trkpt><trkpt lat="39.390706565985276" lon="8.496344174115752"><ele>334.2</ele><time>2026-05-01T09:49:58Z</time></trkpt><trkpt lat="39.39067309088383" lon="8.496494757922326"><ele>333.79999999999995</ele><time>2026-05-01T09:49:59Z</time></trkpt><trkpt lat="39.39062774630256" lon="8.496620889746161"><ele>333.4</ele><time>2026-05-01T09:50:00Z</time></trkpt><trkpt lat="39.39056603130904" lon="8.496745730323056"><ele>333.0</ele><time>2026-05-01T09:50:01Z</time></trkpt><trkpt lat="39.39052119884787" lon="8.496888045436917"><ele>332.75</ele><time>2026-05-01T09:50:02Z</time></trkpt><trkpt lat="39.390506636434026" lon="8.49703882692971"><ele>332.5</ele><time>2026-05-01T09:50:03Z</time></trkpt><trkpt lat="39.39051050502581" lon="8.497187319624015"><ele>332.25</ele><time>2026-05-01T09:50:04Z</time></trkpt><trkpt lat="39.390522085625044" lon="8.497352376788928"><ele>332.0</ele><time>2026-05-01T09:50:05Z</time></trkpt><trkpt lat="39.39050972580376" lon="8.497505402203352"><ele>331.40000000000003</ele><time>2026-05-01T09:50:06Z</time></trkpt><trkpt lat="39.3904786269859" lon="8.497640315210964"><ele>330.8</ele><time>2026-05-01T09:50:07Z</time></trkpt><trkpt lat="39.390431012581814" lon="8.497748271995949"><ele>330.2</ele><time>2026-05-01T09:50:08Z</time></trkpt><trkpt lat="39.39038938254116" lon="8.497849493309905"><ele>329.6</ele><time>2026-05-01T09:50:09Z</time></trkpt><trkpt lat="39.39039442347081" lon="8.497956600536828"><ele>329.0</ele><time>2026-05-01T09:50:10Z</time></trkpt><trkpt lat="39.39045302624983" lon="8.498055993615015"><ele>330.0</ele><time>2026-05-01T09:50:11Z</time></trkpt><trkpt lat="39.39054430514908" lon="8.498122878133355"><ele>331.0</ele><time>2026-05-01T09:50:12Z</time></trkpt><trkpt lat="39.39066258722197" lon="8.498137996972291"><ele>332.0</ele><time>2026-05-01T09:50:13Z</time></trkpt><trkpt lat="39.3907755731537" lon="8.498149529602019"><ele>333.0</ele><time>2026-05-01T09:50:14Z</time></trkpt><trkpt lat="39.39087745325957" lon="8.498189625975932"><ele>334.0</ele><time>2026-05-01T09:50:15Z</time></trkpt><trkpt lat="39.39094127516583" lon="8.498291227815333"><ele>334.0</ele><time>2026-05-01T09:50:16Z</time></trkpt><trkpt lat="39.39097109638898" lon="8.498433958226292"><ele>334.0</ele><time>2026-05-01T09:50:16.999Z</time></trkpt><trkpt lat="39.390973574774755" lon="8.498591478019014"><ele>334.0</ele><time>2026-05-01T09:50:17.999Z</time></trkpt><trkpt lat="39.39100286628915" lon="8.498737931742268"><ele>334.0</ele><time>2026-05-01T09:50:18.999Z</time></trkpt><trkpt lat="39.391097094193235" lon="8.498856319596367"><ele>336.0</ele><time>2026-05-01T09:50:19.999Z</time></trkpt><trkpt lat="39.39120441660087" lon="8.498949647903077"><ele>338.0</ele><time>2026-05-01T09:50:20.999Z</time></trkpt><trkpt lat="39.391306681399186" lon="8.49903985038842"><ele>340.0</ele><time>2026-05-01T09:50:21.999Z</time></trkpt><trkpt lat="39.391387609900846" lon="8.499135301875135"><ele>342.0</ele><time>2026-05-01T09:50:22.999Z</time></trkpt><trkpt lat="39.391453692585095" lon="8.499228691819637"><ele>342.0</ele><time>2026-05-01T09:50:23.999Z</time></trkpt><trkpt lat="39.39152038451204" lon="8.49931434379266"><ele>342.0</ele><time>2026-05-01T09:50:24.999Z</time></trkpt><trkpt lat="39.39157683996297" lon="8.499399059551372"><ele>342.0</ele><time>2026-05-01T09:50:25.999Z</time></trkpt><trkpt lat="39.391605675789826" lon="8.499486690641042"><ele>342.0</ele><time>2026-05-01T09:50:26.999Z</time></trkpt><trkpt lat="39.39160634074176" lon="8.499578626327105"><ele>342.0</ele><time>2026-05-01T09:50:27.999Z</time></trkpt><trkpt lat="39.391576255569646" lon="8.499655488306024"><ele>342.0</ele><time>2026-05-01T09:50:28.999Z</time></trkpt><trkpt lat="39.391529541822926" lon="8.499725822932357"><ele>342.0</ele><time>2026-05-01T09:50:29.999Z</time></trkpt><trkpt lat="39.39147848375988" lon="8.49980674649918"><ele>342.0</ele><time>2026-05-01T09:50:30.999Z</time></trkpt><trkpt lat="39.39143860036845" lon="8.499891573707782"><ele>342.0</ele><time>2026-05-01T09:50:31.999Z</time></trkpt><trkpt lat="39.39142118258536" lon="8.499972043606093"><ele>342.0</ele><time>2026-05-01T09:50:32.999Z</time></trkpt><trkpt lat="39.391422773034314" lon="8.50006990874101"><ele>342.0</ele><time>2026-05-01T09:50:33.999Z</time></trkpt><trkpt lat="39.39144360871643" lon="8.500182940669175"><ele>342.0</ele><time>2026-05-01T09:50:34.999Z</time></trkpt><trkpt lat="39.39147017245246" lon="8.500294761094791"><ele>342.0</ele><time>2026-05-01T09:50:35.999Z</time></trkpt><trkpt lat="39.391514848233456" lon="8.500406380695864"><ele>342.0</ele><time>2026-05-01T09:50:36.999Z</time></trkpt><trkpt lat="39.39156067588528" lon="8.500510558800457"><ele>342.0</ele><time>2026-05-01T09:50:37.999Z</time></trkpt><trkpt lat="39.39158095379253" lon="8.500624865209772"><ele>342.0</ele><time>2026-05-01T09:50:38.999Z</time></trkpt><trkpt lat="39.391576118209336" lon="8.500727044963082"><ele>342.0</ele><time>2026-05-01T09:50:39.999Z</time></trkpt><trkpt lat="39.39158129757113" lon="8.500878092627518"><ele>343.5</ele><time>2026-05-01T09:50:40.999Z</time></trkpt><trkpt lat="39.3915852333497" lon="8.501057432938897"><ele>345.0</ele><time>2026-05-01T09:50:41.999Z</time></trkpt><trkpt lat="39.391552254125585" lon="8.501240881626185"><ele>346.5</ele><time>2026-05-01T09:50:42.999Z</time></trkpt><trkpt lat="39.3915139203356" lon="8.501414742657207"><ele>348.0</ele><time>2026-05-01T09:50:43.999Z</time></trkpt><trkpt lat="39.39149390087336" lon="8.501591421836942"><ele>350.25</ele><time>2026-05-01T09:50:44.999Z</time></trkpt><trkpt lat="39.391491060292275" lon="8.501761277711477"><ele>352.5</ele><time>2026-05-01T09:50:45.999Z</time></trkpt><trkpt lat="39.391496219270564" lon="8.501940348111477"><ele>354.75</ele><time>2026-05-01T09:50:46.999Z</time></trkpt><trkpt lat="39.391523359651735" lon="8.502118412791416"><ele>357.0</ele><time>2026-05-01T09:50:47.999Z</time></trkpt><trkpt lat="39.39155837242755" lon="8.502294888247018"><ele>357.75</ele><time>2026-05-01T09:50:48.999Z</time></trkpt><trkpt lat="39.39159596838883" lon="8.502475366773075"><ele>358.5</ele><time>2026-05-01T09:50:49.999Z</time></trkpt><trkpt lat="39.39163849273254" lon="8.50264324733223"><ele>359.25</ele><time>2026-05-01T09:50:50.999Z</time></trkpt><trkpt lat="39.39168881891421" lon="8.502808535278582"><ele>360.0</ele><time>2026-05-01T09:50:51.999Z</time></trkpt><trkpt lat="39.391734170001506" lon="8.502953387790264"><ele>361.0</ele><time>2026-05-01T09:50:52.999Z</time></trkpt><trkpt lat="39.39176071787946" lon="8.503094851921238"><ele>362.0</ele><time>2026-05-01T09:50:53.999Z</time></trkpt><trkpt lat="39.39179501879355" lon="8.503262249753947"><ele>363.0</ele><time>2026-05-01T09:50:54.999Z</time></trkpt><trkpt lat="39.391816038102064" lon="8.503433840085926"><ele>364.0</ele><time>2026-05-01T09:50:55.999Z</time></trkpt><trkpt lat="39.39186551563061" lon="8.503571688423444"><ele>364.0</ele><time>2026-05-01T09:50:56.999Z</time></trkpt><trkpt lat="39.39194476937002" lon="8.503676381802052"><ele>364.0</ele><time>2026-05-01T09:50:57.999Z</time></trkpt><trkpt lat="39.392026793460985" lon="8.503758306334493"><ele>364.0</ele><time>2026-05-01T09:50:58.999Z</time></trkpt><trkpt lat="39.39211326044077" lon="8.503853772477052"><ele>364.0</ele><time>2026-05-01T09:50:59.999Z</time></trkpt><trkpt lat="39.39220273085161" lon="8.503945609178277"><ele>364.0</ele><time>2026-05-01T09:51:00.999Z</time></trkpt><trkpt lat="39.392287705459886" lon="8.504036461464887"><ele>363.6</ele><time>2026-05-01T09:51:01.999Z</time></trkpt><trkpt lat="39.39234282705152" lon="8.504128486826202"><ele>363.2</ele><time>2026-05-01T09:51:02.999Z</time></trkpt><trkpt lat="39.392378102270435" lon="8.504235280068862"><ele>362.8</ele><time>2026-05-01T09:51:03.999Z</time></trkpt><trkpt lat="39.39239740741679" lon="8.504339343602464"><ele>362.40000000000003</ele><time>2026-05-01T09:51:04.999Z</time></trkpt><trkpt lat="39.39237285393568" lon="8.504452571645427"><ele>362.0</ele><time>2026-05-01T09:51:05.999Z</time></trkpt><trkpt lat="39.39233499958139" lon="8.504572012678533"><ele>363.0</ele><time>2026-05-01T09:51:06.999Z</time></trkpt><trkpt lat="39.39229601649431" lon="8.504690822527374"><ele>364.0</ele><time>2026-05-01T09:51:07.999Z</time></trkpt><trkpt lat="39.3922637243098" lon="8.504808820904096"><ele>365.0</ele><time>2026-05-01T09:51:08.999Z</time></trkpt><trkpt lat="39.392221860826005" lon="8.504920405137357"><ele>366.0</ele><time>2026-05-01T09:51:09.999Z</time></trkpt><trkpt lat="39.39216356916964" lon="8.505022393239011"><ele>367.0</ele><time>2026-05-01T09:51:10.999Z</time></trkpt><trkpt lat="39.39210123686595" lon="8.505112856299789"><ele>368.40000000000003</ele><time>2026-05-01T09:51:11.999Z</time></trkpt><trkpt lat="39.39203522859089" lon="8.505194069360794"><ele>369.8</ele><time>2026-05-01T09:51:12.999Z</time></trkpt><trkpt lat="39.39198819395373" lon="8.505269068741342"><ele>371.2</ele><time>2026-05-01T09:51:13.999Z</time></trkpt><trkpt lat="39.391955865952276" lon="8.505339357469479"><ele>372.6</ele><time>2026-05-01T09:51:14.999Z</time></trkpt><trkpt lat="39.391891000135004" lon="8.505519380473851"><ele>374.0</ele><time>2026-05-01T09:51:16.999Z</time></trkpt><trkpt lat="39.39185790657662" lon="8.505663717689329"><ele>374.0</ele><time>2026-05-01T09:51:17.999Z</time></trkpt><trkpt lat="39.391824424347746" lon="8.505825617127307"><ele>374.0</ele><time>2026-05-01T09:51:18.999Z</time></trkpt><trkpt lat="39.39178913565016" lon="8.505990661373783"><ele>374.0</ele><time>2026-05-01T09:51:20Z</time></trkpt><trkpt lat="39.39176076359662" lon="8.506152332510291"><ele>374.0</ele><time>2026-05-01T09:51:21Z</time></trkpt><trkpt lat="39.39173180266057" lon="8.50630738197398"><ele>373.75</ele><time>2026-05-01T09:51:22Z</time></trkpt><trkpt lat="39.391695032346846" lon="8.5064462809641"><ele>373.5</ele><time>2026-05-01T09:51:23Z</time></trkpt><trkpt lat="39.391632105715594" lon="8.50655539898505"><ele>373.25</ele><time>2026-05-01T09:51:24Z</time></trkpt><trkpt lat="39.391539920981494" lon="8.506678114295571"><ele>373.0</ele><time>2026-05-01T09:51:25Z</time></trkpt><trkpt lat="39.391439017356305" lon="8.506811686773451"><ele>373.0</ele><time>2026-05-01T09:51:26Z</time></trkpt><trkpt lat="39.39137245759283" lon="8.506964709491193"><ele>373.0</ele><time>2026-05-01T09:51:27Z</time></trkpt><trkpt lat="39.39133339606391" lon="8.507127921111191"><ele>373.0</ele><time>2026-05-01T09:51:28Z</time></trkpt><trkpt lat="39.3913137217575" lon="8.507292267391282"><ele>373.0</ele><time>2026-05-01T09:51:29Z</time></trkpt><trkpt lat="39.391321166010194" lon="8.507464054583057"><ele>376.75</ele><time>2026-05-01T09:51:30Z</time></trkpt><trkpt lat="39.391331795776026" lon="8.507606827253431"><ele>380.5</ele><time>2026-05-01T09:51:31Z</time></trkpt><trkpt lat="39.391308154955375" lon="8.507721789232994"><ele>384.25</ele><time>2026-05-01T09:51:32Z</time></trkpt><trkpt lat="39.3912434823628" lon="8.507836151940428"><ele>388.0</ele><time>2026-05-01T09:51:33Z</time></trkpt><trkpt lat="39.39115699027568" lon="8.507987734071035"><ele>388.0</ele><time>2026-05-01T09:51:34Z</time></trkpt><trkpt lat="39.391071429666646" lon="8.508088741548992"><ele>388.0</ele><time>2026-05-01T09:51:35Z</time></trkpt><trkpt lat="39.39100716245813" lon="8.508147191207822"><ele>388.0</ele><time>2026-05-01T09:51:36Z</time></trkpt><trkpt lat="39.390915636603246" lon="8.508177259243404"><ele>388.0</ele><time>2026-05-01T09:51:37Z</time></trkpt><trkpt lat="39.39079802268259" lon="8.508209714902067"><ele>388.0</ele><time>2026-05-01T09:51:38Z</time></trkpt><trkpt lat="39.39070821370383" lon="8.508282088612294"><ele>388.0</ele><time>2026-05-01T09:51:39Z</time></trkpt><trkpt lat="39.39062933063368" lon="8.508388356750162"><ele>388.0</ele><time>2026-05-01T09:51:40Z</time></trkpt><trkpt lat="39.39053098518503" lon="8.508529477535939"><ele>388.0</ele><time>2026-05-01T09:51:41Z</time></trkpt><trkpt lat="39.39041981334839" lon="8.508682998599465"><ele>388.0</ele><time>2026-05-01T09:51:42Z</time></trkpt><trkpt lat="39.39034220024027" lon="8.508855584776294"><ele>394.6666666666667</ele><time>2026-05-01T09:51:43Z</time></trkpt><trkpt lat="39.390275983432645" lon="8.509069835187674"><ele>401.33333333333337</ele><time>2026-05-01T09:51:44Z</time></trkpt><trkpt lat="39.39019883499084" lon="8.50932073191229"><ele>408.0</ele><time>2026-05-01T09:51:45Z</time></trkpt><trkpt lat="39.39011395252302" lon="8.509546549430247"><ele>407.0</ele><time>2026-05-01T09:51:46Z</time></trkpt><trkpt lat="39.390027862669456" lon="8.509751642167299"><ele>406.0</ele><time>2026-05-01T09:51:47Z</time></trkpt><trkpt lat="39.389944739231815" lon="8.509956775768687"><ele>405.0</ele><time>2026-05-01T09:51:48Z</time></trkpt><trkpt lat="39.38986851579643" lon="8.51014356678036"><ele>405.0</ele><time>2026-05-01T09:51:49Z</time></trkpt><trkpt lat="39.38978507977573" lon="8.510329152262399"><ele>405.0</ele><time>2026-05-01T09:51:50Z</time></trkpt><trkpt lat="39.38969327722408" lon="8.510505742968599"><ele>405.0</ele><time>2026-05-01T09:51:51Z</time></trkpt><trkpt lat="39.38959162508364" lon="8.510691014909145"><ele>407.33333333333337</ele><time>2026-05-01T09:51:52Z</time></trkpt><trkpt lat="39.38946719921645" lon="8.510887582312842"><ele>409.6666666666667</ele><time>2026-05-01T09:51:53Z</time></trkpt><trkpt lat="39.389347795045744" lon="8.51109722539759"><ele>412.0</ele><time>2026-05-01T09:51:54Z</time></trkpt><trkpt lat="39.3892270952874" lon="8.511320213331237"><ele>412.0</ele><time>2026-05-01T09:51:55Z</time></trkpt><trkpt lat="39.38912407204516" lon="8.511524767474674"><ele>412.0</ele><time>2026-05-01T09:51:56Z</time></trkpt><trkpt lat="39.38901822351553" lon="8.51174352687143"><ele>412.0</ele><time>2026-05-01T09:51:57Z</time></trkpt><trkpt lat="39.38892524572914" lon="8.5119891508268"><ele>415.0</ele><time>2026-05-01T09:51:58Z</time></trkpt><trkpt lat="39.38882808983044" lon="8.51228102437803"><ele>418.0</ele><time>2026-05-01T09:51:59Z</time></trkpt><trkpt lat="39.38873763993077" lon="8.512536407292382"><ele>418.0</ele><time>2026-05-01T09:52:00Z</time></trkpt><trkpt lat="39.3886574786532" lon="8.51274182971455"><ele>418.0</ele><time>2026-05-01T09:52:01Z</time></trkpt><trkpt lat="39.388584714946106" lon="8.51292390207002"><ele>418.0</ele><time>2026-05-01T09:52:02Z</time></trkpt><trkpt lat="39.38850437927756" lon="8.513077656235486"><ele>416.4</ele><time>2026-05-01T09:52:03Z</time></trkpt><trkpt lat="39.38842419387587" lon="8.51319094046048"><ele>414.79999999999995</ele><time>2026-05-01T09:52:04Z</time></trkpt><trkpt lat="39.38834200005535" lon="8.51329133545347"><ele>413.2</ele><time>2026-05-01T09:52:05Z</time></trkpt><trkpt lat="39.388282873248876" lon="8.51337073824405"><ele>411.6</ele><time>2026-05-01T09:52:06Z</time></trkpt><trkpt lat="39.388255596162224" lon="8.513466079631636"><ele>410.0</ele><time>2026-05-01T09:52:07Z</time></trkpt><trkpt lat="39.38824420443046" lon="8.513590670359262"><ele>411.75</ele><time>2026-05-01T09:52:08Z</time></trkpt><trkpt lat="39.38825237705414" lon="8.513749679070598"><ele>413.5</ele><time>2026-05-01T09:52:09Z</time></trkpt><trkpt lat="39.388251392095114" lon="8.513917070450493"><ele>415.25</ele><time>2026-05-01T09:52:10Z</time></trkpt><trkpt lat="39.38822788423135" lon="8.514085436308168"><ele>417.0</ele><time>2026-05-01T09:52:11Z</time></trkpt><trkpt lat="39.38818127430277" lon="8.514248486178792"><ele>417.0</ele><time>2026-05-01T09:52:12Z</time></trkpt><trkpt lat="39.388148876287424" lon="8.514403486400475"><ele>417.0</ele><time>2026-05-01T09:52:13Z</time></trkpt><trkpt lat="39.38815279019177" lon="8.514555120061715"><ele>417.0</ele><time>2026-05-01T09:52:14Z</time></trkpt><trkpt lat="39.3882041509095" lon="8.514716195166928"><ele>417.0</ele><time>2026-05-01T09:52:15Z</time></trkpt><trkpt lat="39.38826682563959" lon="8.514886075958028"><ele>419.66666666666663</ele><time>2026-05-01T09:52:16Z</time></trkpt><trkpt lat="39.38832456242841" lon="8.515084425804982"><ele>422.3333333333333</ele><time>2026-05-01T09:52:17Z</time></trkpt><trkpt lat="39.38837820269127" lon="8.515277244324313"><ele>425.0</ele><time>2026-05-01T09:52:18Z</time></trkpt><trkpt lat="39.388443713971135" lon="8.515458971995836"><ele>426.75</ele><time>2026-05-01T09:52:19Z</time></trkpt><trkpt lat="39.38850893279429" lon="8.515627584062106"><ele>428.5</ele><time>2026-05-01T09:52:20Z</time></trkpt><trkpt lat="39.388555216509445" lon="8.515760977229688"><ele>430.25</ele><time>2026-05-01T09:52:21Z</time></trkpt><trkpt lat="39.38858534833321" lon="8.515883902930518"><ele>432.0</ele><time>2026-05-01T09:52:22Z</time></trkpt><trkpt lat="39.38859200872816" lon="8.516025437705002"><ele>432.0</ele><time>2026-05-01T09:52:22.999Z</time></trkpt><trkpt lat="39.388581888932556" lon="8.516203262423202"><ele>432.0</ele><time>2026-05-01T09:52:23.999Z</time></trkpt><trkpt lat="39.38857027105923" lon="8.516403044330024"><ele>432.0</ele><time>2026-05-01T09:52:24.999Z</time></trkpt><trkpt lat="39.388564416600566" lon="8.51658079489208"><ele>432.0</ele><time>2026-05-01T09:52:25.999Z</time></trkpt><trkpt lat="39.388578866045265" lon="8.516738325013161"><ele>434.25</ele><time>2026-05-01T09:52:26.999Z</time></trkpt><trkpt lat="39.388623107137036" lon="8.516904078817262"><ele>436.5</ele><time>2026-05-01T09:52:27.999Z</time></trkpt><trkpt lat="39.38868377168114" lon="8.517079030640224"><ele>438.75</ele><time>2026-05-01T09:52:28.999Z</time></trkpt><trkpt lat="39.38873627628116" lon="8.517270109663599"><ele>441.0</ele><time>2026-05-01T09:52:29.999Z</time></trkpt><trkpt lat="39.38879742985665" lon="8.517448430282045"><ele>439.25</ele><time>2026-05-01T09:52:30.999Z</time></trkpt><trkpt lat="39.388859462633775" lon="8.517635550250974"><ele>437.5</ele><time>2026-05-01T09:52:31.999Z</time></trkpt><trkpt lat="39.388905417316224" lon="8.517796082606443"><ele>435.75</ele><time>2026-05-01T09:52:32.999Z</time></trkpt><trkpt lat="39.38892709861633" lon="8.517938702794545"><ele>434.0</ele><time>2026-05-01T09:52:33.999Z</time></trkpt><trkpt lat="39.38891870484833" lon="8.518086763664567"><ele>434.0</ele><time>2026-05-01T09:52:34.999Z</time></trkpt><trkpt lat="39.388896578981985" lon="8.518270235208004"><ele>434.0</ele><time>2026-05-01T09:52:35.999Z</time></trkpt><trkpt lat="39.388876035990606" lon="8.518481592430998"><ele>434.0</ele><time>2026-05-01T09:52:36.999Z</time></trkpt><trkpt lat="39.388865929468835" lon="8.518674423889552"><ele>435.66666666666663</ele><time>2026-05-01T09:52:37.999Z</time></trkpt><trkpt lat="39.3888847424209" lon="8.518864291753028"><ele>437.33333333333337</ele><time>2026-05-01T09:52:38.999Z</time></trkpt><trkpt lat="39.38890268086087" lon="8.519083688174312"><ele>439.0</ele><time>2026-05-01T09:52:39.999Z</time></trkpt><trkpt lat="39.38892928654062" lon="8.519289733715022"><ele>439.0</ele><time>2026-05-01T09:52:40.999Z</time></trkpt><trkpt lat="39.388958919611504" lon="8.519452931696152"><ele>439.0</ele><time>2026-05-01T09:52:41.999Z</time></trkpt><trkpt lat="39.38900261892675" lon="8.519599450473303"><ele>439.0</ele><time>2026-05-01T09:52:42.999Z</time></trkpt><trkpt lat="39.38903850068855" lon="8.519747352619563"><ele>439.0</ele><time>2026-05-01T09:52:43.999Z</time></trkpt><trkpt lat="39.38904604210571" lon="8.51993169732843"><ele>440.33333333333337</ele><time>2026-05-01T09:52:44.999Z</time></trkpt><trkpt lat="39.38905703252258" lon="8.520149058869533"><ele>441.66666666666663</ele><time>2026-05-01T09:52:45.999Z</time></trkpt><trkpt lat="39.38907858341818" lon="8.520363591975826"><ele>443.0</ele><time>2026-05-01T09:52:46.999Z</time></trkpt><trkpt lat="39.38910219180759" lon="8.520539310795947"><ele>447.0</ele><time>2026-05-01T09:52:47.999Z</time></trkpt><trkpt lat="39.389147627240526" lon="8.520702286255812"><ele>451.0</ele><time>2026-05-01T09:52:48.999Z</time></trkpt><trkpt lat="39.389217551796804" lon="8.520887579140634"><ele>455.0</ele><time>2026-05-01T09:52:49.999Z</time></trkpt><trkpt lat="39.389287358354295" lon="8.521074352065108"><ele>458.0</ele><time>2026-05-01T09:52:50.999Z</time></trkpt><trkpt lat="39.38937791029226" lon="8.521264963658412"><ele>461.0</ele><time>2026-05-01T09:52:51.999Z</time></trkpt><trkpt lat="39.38946428618079" lon="8.521441007188342"><ele>464.0</ele><time>2026-05-01T09:52:52.999Z</time></trkpt><trkpt lat="39.38954189682679" lon="8.521583355288302"><ele>464.0</ele><time>2026-05-01T09:52:53.999Z</time></trkpt><trkpt lat="39.389591101442264" lon="8.521699313830283"><ele>464.0</ele><time>2026-05-01T09:52:54.999Z</time></trkpt><trkpt lat="39.38961324743343" lon="8.52180856823441"><ele>464.0</ele><time>2026-05-01T09:52:55.999Z</time></trkpt><trkpt lat="39.38959290228066" lon="8.521935945160418"><ele>464.0</ele><time>2026-05-01T09:52:56.999Z</time></trkpt><trkpt lat="39.389556870571745" lon="8.522088311934317"><ele>464.0</ele><time>2026-05-01T09:52:57.999Z</time></trkpt><trkpt lat="39.389516662676684" lon="8.52227626661963"><ele>464.0</ele><time>2026-05-01T09:52:58.999Z</time></trkpt><trkpt lat="39.389476229293464" lon="8.52249067399297"><ele>464.0</ele><time>2026-05-01T09:52:59.999Z</time></trkpt><trkpt lat="39.38944905493602" lon="8.522703884055916"><ele>464.0</ele><time>2026-05-01T09:53:00.999Z</time></trkpt><trkpt lat="39.38942060644248" lon="8.522882793327428"><ele>465.5</ele><time>2026-05-01T09:53:01.999Z</time></trkpt><trkpt lat="39.38941105726202" lon="8.52304527953816"><ele>467.0</ele><time>2026-05-01T09:53:02.999Z</time></trkpt><trkpt lat="39.389422177042" lon="8.523231824906176"><ele>468.5</ele><time>2026-05-01T09:53:03.999Z</time></trkpt><trkpt lat="39.38945543105477" lon="8.523420688805539"><ele>470.0</ele><time>2026-05-01T09:53:04.999Z</time></trkpt><trkpt lat="39.38949886168524" lon="8.523619484886781"><ele>473.0</ele><time>2026-05-01T09:53:05.999Z</time></trkpt><trkpt lat="39.38952341752704" lon="8.523819692971587"><ele>476.0</ele><time>2026-05-01T09:53:06.999Z</time></trkpt><trkpt lat="39.38953436330389" lon="8.524006666418042"><ele>479.0</ele><time>2026-05-01T09:53:07.999Z</time></trkpt><trkpt lat="39.38953916072221" lon="8.524180642164712"><ele>482.0</ele><time>2026-05-01T09:53:08.999Z</time></trkpt><trkpt lat="39.38953725156247" lon="8.524347462688127"><ele>482.0</ele><time>2026-05-01T09:53:09.999Z</time></trkpt><trkpt lat="39.389570962586255" lon="8.524530868348451"><ele>482.0</ele><time>2026-05-01T09:53:10.999Z</time></trkpt><trkpt lat="39.389625051070766" lon="8.524720843759987"><ele>482.0</ele><time>2026-05-01T09:53:11.999Z</time></trkpt><trkpt lat="39.38968197073995" lon="8.524929255987903"><ele>482.3333333333333</ele><time>2026-05-01T09:53:12.999Z</time></trkpt><trkpt lat="39.38972090066723" lon="8.52515075771912"><ele>482.66666666666663</ele><time>2026-05-01T09:53:13.999Z</time></trkpt><trkpt lat="39.3897603060158" lon="8.525397568593295"><ele>483.0</ele><time>2026-05-01T09:53:14.999Z</time></trkpt><trkpt lat="39.38980585229884" lon="8.525621686609714"><ele>483.0</ele><time>2026-05-01T09:53:15.999Z</time></trkpt><trkpt lat="39.38984858626467" lon="8.525790514793863"><ele>482.99999999999994</ele><time>2026-05-01T09:53:16.999Z</time></trkpt><trkpt lat="39.38987765549236" lon="8.5259056576196"><ele>482.99999999999994</ele><time>2026-05-01T09:53:17.999Z</time></trkpt><trkpt lat="39.38988367365012" lon="8.52604241551434"><ele>483.0</ele><time>2026-05-01T09:53:18.999Z</time></trkpt><trkpt lat="39.38984562879516" lon="8.526173013994722"><ele>483.0</ele><time>2026-05-01T09:53:19.999Z</time></trkpt><trkpt lat="39.38979502417654" lon="8.526325472890813"><ele>485.0</ele><time>2026-05-01T09:53:20.999Z</time></trkpt><trkpt lat="39.3897640084973" lon="8.526486458039669"><ele>487.0</ele><time>2026-05-01T09:53:21.999Z</time></trkpt><trkpt lat="39.38976853175538" lon="8.526642440407352"><ele>489.0</ele><time>2026-05-01T09:53:22.999Z</time></trkpt><trkpt lat="39.389806812652814" lon="8.52680203699913"><ele>491.0</ele><time>2026-05-01T09:53:23.999Z</time></trkpt><trkpt lat="39.38983711534029" lon="8.526925623822804"><ele>490.99999999999994</ele><time>2026-05-01T09:53:24.999Z</time></trkpt><trkpt lat="39.389839249804" lon="8.52702694194708"><ele>491.0</ele><time>2026-05-01T09:53:26Z</time></trkpt><trkpt lat="39.38981661951508" lon="8.52712888512994"><ele>491.0</ele><time>2026-05-01T09:53:27Z</time></trkpt><trkpt lat="39.389754601145334" lon="8.527228825031598"><ele>491.0</ele><time>2026-05-01T09:53:28Z</time></trkpt><trkpt lat="39.38967448577604" lon="8.527310272903135"><ele>490.99999999999994</ele><time>2026-05-01T09:53:29Z</time></trkpt><trkpt lat="39.38961653772751" lon="8.527376565162639"><ele>491.0</ele><time>2026-05-01T09:53:30Z</time></trkpt><trkpt lat="39.389590340588065" lon="8.527463037856316"><ele>492.3333333333333</ele><time>2026-05-01T09:53:31Z</time></trkpt><trkpt lat="39.38962034558522" lon="8.527542158712368"><ele>493.66666666666663</ele><time>2026-05-01T09:53:32Z</time></trkpt><trkpt lat="39.38968607485624" lon="8.52758738168363"><ele>495.0</ele><time>2026-05-01T09:53:33Z</time></trkpt><trkpt lat="39.38976901911243" lon="8.527565449911952"><ele>496.33333333333337</ele><time>2026-05-01T09:53:34Z</time></trkpt><trkpt lat="39.389857439544784" lon="8.527499712511677"><ele>497.6666666666667</ele><time>2026-05-01T09:53:35Z</time></trkpt><trkpt lat="39.38994156715596" lon="8.527434327555303"><ele>499.0</ele><time>2026-05-01T09:53:36Z</time></trkpt><trkpt lat="39.39007268404788" lon="8.527467464062738"><ele>499.00000000000006</ele><time>2026-05-01T09:53:38Z</time></trkpt><trkpt lat="39.39015079011398" lon="8.527544687082917"><ele>499.0</ele><time>2026-05-01T09:53:39Z</time></trkpt><trkpt lat="39.39022364404396" lon="8.527632155641195"><ele>499.0</ele><time>2026-05-01T09:53:40Z</time></trkpt><trkpt lat="39.390284980809334" lon="8.527659075608968"><ele>499.0</ele><time>2026-05-01T09:53:41Z</time></trkpt><trkpt lat="39.39036445727467" lon="8.527609932366225"><ele>499.00000000000006</ele><time>2026-05-01T09:53:42Z</time></trkpt><trkpt lat="39.39043770668032" lon="8.52753847550503"><ele>499.0</ele><time>2026-05-01T09:53:43Z</time></trkpt><trkpt lat="39.39049570375213" lon="8.527433652195523"><ele>503.6</ele><time>2026-05-01T09:53:44Z</time></trkpt><trkpt lat="39.3905332476862" lon="8.527302994662701"><ele>508.2</ele><time>2026-05-01T09:53:45Z</time></trkpt><trkpt lat="39.39052601302215" lon="8.527139628709943"><ele>512.8000000000001</ele><time>2026-05-01T09:53:46Z</time></trkpt><trkpt lat="39.3905205337371" lon="8.527006593548867"><ele>517.4</ele><time>2026-05-01T09:53:47Z</time></trkpt><trkpt lat="39.39054146738132" lon="8.526896734686915"><ele>522.0</ele><time>2026-05-01T09:53:49Z</time></trkpt><trkpt lat="39.390628942401285" lon="8.526975948891355"><ele>522.0</ele><time>2026-05-01T09:53:51Z</time></trkpt><trkpt lat="39.39064125645576" lon="8.527094442962603"><ele>522.0</ele><time>2026-05-01T09:53:52Z</time></trkpt><trkpt lat="39.39064557926959" lon="8.527231757866366"><ele>522.0</ele><time>2026-05-01T09:53:53Z</time></trkpt><trkpt lat="39.390665838839375" lon="8.527364862032318"><ele>522.0</ele><time>2026-05-01T09:53:54Z</time></trkpt><trkpt lat="39.390698637943906" lon="8.527500251353688"><ele>522.0</ele><time>2026-05-01T09:53:55Z</time></trkpt><trkpt lat="39.39071406292722" lon="8.527640405079788"><ele>522.0</ele><time>2026-05-01T09:53:56Z</time></trkpt><trkpt lat="39.39069808366626" lon="8.527783265929695"><ele>522.0</ele><time>2026-05-01T09:53:57Z</time></trkpt><trkpt lat="39.39065743305506" lon="8.527922705066086"><ele>522.0</ele><time>2026-05-01T09:53:58Z</time></trkpt><trkpt lat="39.39061244092837" lon="8.528060040969324"><ele>522.0</ele><time>2026-05-01T09:53:59Z</time></trkpt><trkpt lat="39.39055491407842" lon="8.528192354131567"><ele>521.0</ele><time>2026-05-01T09:54:00Z</time></trkpt><trkpt lat="39.39049994406707" lon="8.528318280224823"><ele>520.0</ele><time>2026-05-01T09:54:01Z</time></trkpt><trkpt lat="39.39044249434469" lon="8.528388615076645"><ele>519.0</ele><time>2026-05-01T09:54:02Z</time></trkpt><trkpt lat="39.390372302355026" lon="8.52841887514819"><ele>518.0</ele><time>2026-05-01T09:54:03Z</time></trkpt><trkpt lat="39.39027620418724" lon="8.528418978187094"><ele>517.0</ele><time>2026-05-01T09:54:04Z</time></trkpt><trkpt lat="39.39015960689312" lon="8.528393014669813"><ele>517.0</ele><time>2026-05-01T09:54:05Z</time></trkpt><trkpt lat="39.390034921632605" lon="8.528384490965372"><ele>517.0</ele><time>2026-05-01T09:54:06Z</time></trkpt><trkpt lat="39.38991924025836" lon="8.528400653607397"><ele>517.0</ele><time>2026-05-01T09:54:07Z</time></trkpt><trkpt lat="39.38983289078672" lon="8.5284379926391"><ele>517.0</ele><time>2026-05-01T09:54:08Z</time></trkpt><trkpt lat="39.389766819325736" lon="8.52851063760242"><ele>517.0</ele><time>2026-05-01T09:54:09Z</time></trkpt><trkpt lat="39.389721113725166" lon="8.528607017439946"><ele>518.5</ele><time>2026-05-01T09:54:10Z</time></trkpt><trkpt lat="39.3896867723356" lon="8.52873021221083"><ele>520.0</ele><time>2026-05-01T09:54:11Z</time></trkpt><trkpt lat="39.38965169273012" lon="8.52887991752003"><ele>521.5</ele><time>2026-05-01T09:54:12Z</time></trkpt><trkpt lat="39.389599267163085" lon="8.529039139047502"><ele>523.0</ele><time>2026-05-01T09:54:13Z</time></trkpt><trkpt lat="39.389542969980546" lon="8.529193192896443"><ele>523.0</ele><time>2026-05-01T09:54:14Z</time></trkpt><trkpt lat="39.38949003913716" lon="8.529352389617944"><ele>523.0</ele><time>2026-05-01T09:54:15Z</time></trkpt><trkpt lat="39.38945802494199" lon="8.52952848224409"><ele>523.0</ele><time>2026-05-01T09:54:16Z</time></trkpt><trkpt lat="39.389447434714484" lon="8.529678405163892"><ele>523.0</ele><time>2026-05-01T09:54:17Z</time></trkpt><trkpt lat="39.389445542780045" lon="8.529807680190421"><ele>525.3333333333334</ele><time>2026-05-01T09:54:18Z</time></trkpt><trkpt lat="39.389430233606014" lon="8.52990694941253"><ele>527.6666666666667</ele><time>2026-05-01T09:54:19Z</time></trkpt><trkpt lat="39.38938485708962" lon="8.52998511369121"><ele>530.0</ele><time>2026-05-01T09:54:20Z</time></trkpt><trkpt lat="39.38931163899354" lon="8.530035773978344"><ele>532.3333333333334</ele><time>2026-05-01T09:54:21Z</time></trkpt><trkpt lat="39.38922320963839" lon="8.530064997297949"><ele>534.6666666666666</ele><time>2026-05-01T09:54:22Z</time></trkpt><trkpt lat="39.38912608718489" lon="8.53005851069831"><ele>537.0</ele><time>2026-05-01T09:54:23Z</time></trkpt><trkpt lat="39.38903123723279" lon="8.530020119293377"><ele>537.0</ele><time>2026-05-01T09:54:24Z</time></trkpt><trkpt lat="39.388951761919564" lon="8.52995005230442"><ele>537.0</ele><time>2026-05-01T09:54:25Z</time></trkpt><trkpt lat="39.38888888387518" lon="8.529852095643705"><ele>537.0</ele><time>2026-05-01T09:54:25.999Z</time></trkpt><trkpt lat="39.38884042962909" lon="8.529721664556913"><ele>537.0</ele><time>2026-05-01T09:54:26.999Z</time></trkpt><trkpt lat="39.38877260738379" lon="8.529589608144247"><ele>537.0</ele><time>2026-05-01T09:54:27.999Z</time></trkpt><trkpt lat="39.388698528840706" lon="8.529472077418678"><ele>537.25</ele><time>2026-05-01T09:54:28.999Z</time></trkpt><trkpt lat="39.388620121611076" lon="8.529366129079234"><ele>537.5</ele><time>2026-05-01T09:54:29.999Z</time></trkpt><trkpt lat="39.38851815507729" lon="8.529279193727373"><ele>537.75</ele><time>2026-05-01T09:54:30.999Z</time></trkpt><trkpt lat="39.38840865491194" lon="8.529203796930645"><ele>538.0</ele><time>2026-05-01T09:54:31.999Z</time></trkpt><trkpt lat="39.388331782345546" lon="8.529116795641889"><ele>538.0</ele><time>2026-05-01T09:54:32.999Z</time></trkpt><trkpt lat="39.388262508690254" lon="8.529039279737066"><ele>538.0</ele><time>2026-05-01T09:54:33.999Z</time></trkpt><trkpt lat="39.388178107803306" lon="8.528986129562288"><ele>538.0</ele><time>2026-05-01T09:54:34.999Z</time></trkpt><trkpt lat="39.388070847116495" lon="8.528978635657875"><ele>538.0</ele><time>2026-05-01T09:54:35.999Z</time></trkpt><trkpt lat="39.3879447860739" lon="8.529017159277588"><ele>538.0</ele><time>2026-05-01T09:54:36.999Z</time></trkpt><trkpt lat="39.38782860223312" lon="8.529052207198255"><ele>536.3333333333334</ele><time>2026-05-01T09:54:37.999Z</time></trkpt><trkpt lat="39.387729181546206" lon="8.529036477921878"><ele>534.6666666666667</ele><time>2026-05-01T09:54:38.999Z</time></trkpt><trkpt lat="39.387652908937994" lon="8.529025373703108"><ele>533.0</ele><time>2026-05-01T09:54:39.999Z</time></trkpt><trkpt lat="39.38759369558585" lon="8.52906579723936"><ele>531.3333333333334</ele><time>2026-05-01T09:54:40.999Z</time></trkpt><trkpt lat="39.38756474201419" lon="8.52915877649523"><ele>529.6666666666666</ele><time>2026-05-01T09:54:41.999Z</time></trkpt><trkpt lat="39.38757368557168" lon="8.529283210512284"><ele>528.0</ele><time>2026-05-01T09:54:42.999Z</time></trkpt><trkpt lat="39.3876044447133" lon="8.52943592874261"><ele>528.75</ele><time>2026-05-01T09:54:43.999Z</time></trkpt><trkpt lat="39.38762025459458" lon="8.529616347474844"><ele>529.5</ele><time>2026-05-01T09:54:44.999Z</time></trkpt><trkpt lat="39.38762621782414" lon="8.529818550530948"><ele>530.25</ele><time>2026-05-01T09:54:45.999Z</time></trkpt><trkpt lat="39.387627800002704" lon="8.530015052367919"><ele>531.0</ele><time>2026-05-01T09:54:46.999Z</time></trkpt><trkpt lat="39.38763282266471" lon="8.530175085464947"><ele>531.0</ele><time>2026-05-01T09:54:47.999Z</time></trkpt><trkpt lat="39.3876283979242" lon="8.530302968459885"><ele>531.0</ele><time>2026-05-01T09:54:48.999Z</time></trkpt><trkpt lat="39.38759611782894" lon="8.53040167101971"><ele>531.0</ele><time>2026-05-01T09:54:49.999Z</time></trkpt><trkpt lat="39.38752035615069" lon="8.53047339771991"><ele>531.0</ele><time>2026-05-01T09:54:50.999Z</time></trkpt><trkpt lat="39.38742251848162" lon="8.530529359336779"><ele>531.0</ele><time>2026-05-01T09:54:51.999Z</time></trkpt><trkpt lat="39.38735423407606" lon="8.530588647296497"><ele>532.5</ele><time>2026-05-01T09:54:52.999Z</time></trkpt><trkpt lat="39.387328463291375" lon="8.530726093599059"><ele>534.0</ele><time>2026-05-01T09:54:53.999Z</time></trkpt><trkpt lat="39.38731829003949" lon="8.530916208709305"><ele>535.5</ele><time>2026-05-01T09:54:54.999Z</time></trkpt><trkpt lat="39.38729945932185" lon="8.531131712204132"><ele>537.0</ele><time>2026-05-01T09:54:55.999Z</time></trkpt><trkpt lat="39.38725315022198" lon="8.531329128754432"><ele>537.0</ele><time>2026-05-01T09:54:56.999Z</time></trkpt><trkpt lat="39.38721736363222" lon="8.531474542032294"><ele>537.0</ele><time>2026-05-01T09:54:57.999Z</time></trkpt><trkpt lat="39.3872110113137" lon="8.531580571859344"><ele>537.0</ele><time>2026-05-01T09:54:58.999Z</time></trkpt><trkpt lat="39.38724597930949" lon="8.531663031753258"><ele>537.0</ele><time>2026-05-01T09:54:59.999Z</time></trkpt><trkpt lat="39.38731762821242" lon="8.531710543963817"><ele>537.0</ele><time>2026-05-01T09:55:00.999Z</time></trkpt><trkpt lat="39.3874295874666" lon="8.531740690668213"><ele>537.0</ele><time>2026-05-01T09:55:01.999Z</time></trkpt><trkpt lat="39.38757269206354" lon="8.53176430503129"><ele>537.0</ele><time>2026-05-01T09:55:02.999Z</time></trkpt><trkpt lat="39.38770549790117" lon="8.531797947429215"><ele>537.0</ele><time>2026-05-01T09:55:03.999Z</time></trkpt><trkpt lat="39.38779622331915" lon="8.531842305124515"><ele>537.0</ele><time>2026-05-01T09:55:04.999Z</time></trkpt><trkpt lat="39.387854112493194" lon="8.531913359987316"><ele>537.0</ele><time>2026-05-01T09:55:05.999Z</time></trkpt><trkpt lat="39.387892684056844" lon="8.5320167190124"><ele>537.0</ele><time>2026-05-01T09:55:06.999Z</time></trkpt><trkpt lat="39.387892790657325" lon="8.532139069942424"><ele>537.0</ele><time>2026-05-01T09:55:07.999Z</time></trkpt><trkpt lat="39.38785439993052" lon="8.532279859201356"><ele>537.0</ele><time>2026-05-01T09:55:08.999Z</time></trkpt><trkpt lat="39.38780577773726" lon="8.532431968133244"><ele>537.0</ele><time>2026-05-01T09:55:09.999Z</time></trkpt><trkpt lat="39.38779890277134" lon="8.532581157926497"><ele>534.2</ele><time>2026-05-01T09:55:10.999Z</time></trkpt><trkpt lat="39.38782552323496" lon="8.532741916287929"><ele>531.4000000000001</ele><time>2026-05-01T09:55:11.999Z</time></trkpt><trkpt lat="39.38783011695247" lon="8.53289452810598"><ele>528.5999999999999</ele><time>2026-05-01T09:55:12.999Z</time></trkpt><trkpt lat="39.387790181787196" lon="8.533026961396418"><ele>525.8</ele><time>2026-05-01T09:55:13.999Z</time></trkpt><trkpt lat="39.387765825699084" lon="8.533129351188624"><ele>523.0</ele><time>2026-05-01T09:55:14.999Z</time></trkpt><trkpt lat="39.38778583896329" lon="8.533217437207535"><ele>522.6</ele><time>2026-05-01T09:55:15.999Z</time></trkpt><trkpt lat="39.38785297341875" lon="8.533283513141958"><ele>522.1999999999999</ele><time>2026-05-01T09:55:16.999Z</time></trkpt><trkpt lat="39.38794978538772" lon="8.533344431782332"><ele>521.8</ele><time>2026-05-01T09:55:17.999Z</time></trkpt><trkpt lat="39.38806310839986" lon="8.533419022882702"><ele>521.4</ele><time>2026-05-01T09:55:18.999Z</time></trkpt><trkpt lat="39.38816184736628" lon="8.533493009265284"><ele>521.0</ele><time>2026-05-01T09:55:19.999Z</time></trkpt><trkpt lat="39.38823031561636" lon="8.533545571916251"><ele>521.5</ele><time>2026-05-01T09:55:20.999Z</time></trkpt><trkpt lat="39.38827295774314" lon="8.533615245343825"><ele>522.0</ele><time>2026-05-01T09:55:21.999Z</time></trkpt><trkpt lat="39.3882660717952" lon="8.533697904291934"><ele>522.5</ele><time>2026-05-01T09:55:22.999Z</time></trkpt><trkpt lat="39.38821762296577" lon="8.53378290974631"><ele>523.0</ele><time>2026-05-01T09:55:23.999Z</time></trkpt><trkpt lat="39.38812795905827" lon="8.533820155186556"><ele>523.5</ele><time>2026-05-01T09:55:24.999Z</time></trkpt><trkpt lat="39.38800423582871" lon="8.533811533041652"><ele>524.0</ele><time>2026-05-01T09:55:25.999Z</time></trkpt><trkpt lat="39.38787178032324" lon="8.533777429319267"><ele>524.0</ele><time>2026-05-01T09:55:26.999Z</time></trkpt><trkpt lat="39.38773099831353" lon="8.53372819416888"><ele>524.0</ele><time>2026-05-01T09:55:27.999Z</time></trkpt><trkpt lat="39.38760524432085" lon="8.533686103555183"><ele>524.0</ele><time>2026-05-01T09:55:28.999Z</time></trkpt><trkpt lat="39.387482916048" lon="8.533654303642615"><ele>524.0</ele><time>2026-05-01T09:55:29.999Z</time></trkpt><trkpt lat="39.387370099338376" lon="8.533653934347187"><ele>524.0</ele><time>2026-05-01T09:55:30.999Z</time></trkpt><trkpt lat="39.387265440642736" lon="8.533694486977806"><ele>524.0</ele><time>2026-05-01T09:55:32Z</time></trkpt><trkpt lat="39.3871788541137" lon="8.533794511432673"><ele>524.0</ele><time>2026-05-01T09:55:33Z</time></trkpt><trkpt lat="39.387102815337585" lon="8.533941229493843"><ele>524.0</ele><time>2026-05-01T09:55:34Z</time></trkpt><trkpt lat="39.38702164086491" lon="8.534121844718607"><ele>521.25</ele><time>2026-05-01T09:55:35Z</time></trkpt><trkpt lat="39.38695170024513" lon="8.53427654708784"><ele>518.5</ele><time>2026-05-01T09:55:36Z</time></trkpt><trkpt lat="39.38690741093593" lon="8.534425728035435"><ele>515.75</ele><time>2026-05-01T09:55:37Z</time></trkpt><trkpt lat="39.38690539551841" lon="8.534574235063015"><ele>513.0</ele><time>2026-05-01T09:55:38Z</time></trkpt><trkpt lat="39.38692849147237" lon="8.53474302085704"><ele>513.0</ele><time>2026-05-01T09:55:39Z</time></trkpt><trkpt lat="39.38694709022552" lon="8.534911090428517"><ele>513.0</ele><time>2026-05-01T09:55:40Z</time></trkpt><trkpt lat="39.38693949708836" lon="8.535088540258144"><ele>513.0</ele><time>2026-05-01T09:55:41Z</time></trkpt><trkpt lat="39.38692741918112" lon="8.535247899346723"><ele>513.0</ele><time>2026-05-01T09:55:42Z</time></trkpt><trkpt lat="39.38692227887435" lon="8.535387627316112"><ele>513.0</ele><time>2026-05-01T09:55:43Z</time></trkpt><trkpt lat="39.38689939170799" lon="8.53552184395152"><ele>513.0</ele><time>2026-05-01T09:55:44Z</time></trkpt><trkpt lat="39.38683764723425" lon="8.53564953147276"><ele>513.0</ele><time>2026-05-01T09:55:45Z</time></trkpt><trkpt lat="39.3867600592022" lon="8.535770845644201"><ele>513.0</ele><time>2026-05-01T09:55:46Z</time></trkpt><trkpt lat="39.38667253643372" lon="8.53589109418631"><ele>513.0</ele><time>2026-05-01T09:55:47Z</time></trkpt><trkpt lat="39.386578110250596" lon="8.536013477990846"><ele>513.0</ele><time>2026-05-01T09:55:48Z</time></trkpt><trkpt lat="39.38648440903948" lon="8.536114167479257"><ele>513.0</ele><time>2026-05-01T09:55:49Z</time></trkpt><trkpt lat="39.3863857867438" lon="8.536173584500142"><ele>513.0</ele><time>2026-05-01T09:55:50Z</time></trkpt><trkpt lat="39.3862853751464" lon="8.536187760628122"><ele>512.25</ele><time>2026-05-01T09:55:51Z</time></trkpt><trkpt lat="39.38616279765614" lon="8.536176808236045"><ele>511.5</ele><time>2026-05-01T09:55:52Z</time></trkpt><trkpt lat="39.386027228675516" lon="8.536160969857693"><ele>510.75</ele><time>2026-05-01T09:55:53Z</time></trkpt><trkpt lat="39.385890436245695" lon="8.53619113300162"><ele>510.0</ele><time>2026-05-01T09:55:54Z</time></trkpt><trkpt lat="39.38575361922579" lon="8.536264355211216"><ele>510.0</ele><time>2026-05-01T09:55:55Z</time></trkpt><trkpt lat="39.38561595415028" lon="8.5363465828311"><ele>510.0</ele><time>2026-05-01T09:55:56Z</time></trkpt><trkpt lat="39.38548040839884" lon="8.53642950146566"><ele>510.0</ele><time>2026-05-01T09:55:57Z</time></trkpt><trkpt lat="39.385338188213964" lon="8.536497630923867"><ele>511.0</ele><time>2026-05-01T09:55:58Z</time></trkpt><trkpt lat="39.38519532876099" lon="8.53656332355541"><ele>512.0</ele><time>2026-05-01T09:55:59Z</time></trkpt><trkpt lat="39.38505277425093" lon="8.5366443887001"><ele>513.0</ele><time>2026-05-01T09:56:00Z</time></trkpt><trkpt lat="39.38491124817632" lon="8.536722832457608"><ele>513.0</ele><time>2026-05-01T09:56:01Z</time></trkpt><trkpt lat="39.38478525576534" lon="8.536794223094029"><ele>513.0</ele><time>2026-05-01T09:56:02Z</time></trkpt><trkpt lat="39.384670320353244" lon="8.536841924056432"><ele>513.0</ele><time>2026-05-01T09:56:03Z</time></trkpt><trkpt lat="39.3845616866508" lon="8.536861069911067"><ele>513.0</ele><time>2026-05-01T09:56:04Z</time></trkpt><trkpt lat="39.384472370844" lon="8.536859609097453"><ele>513.1999999999999</ele><time>2026-05-01T09:56:05Z</time></trkpt><trkpt lat="39.38438576307433" lon="8.536887537206535"><ele>513.4</ele><time>2026-05-01T09:56:07Z</time></trkpt><trkpt lat="39.384420031390626" lon="8.537032357379848"><ele>513.5999999999999</ele><time>2026-05-01T09:56:09Z</time></trkpt><trkpt lat="39.38447655056173" lon="8.537138503629313"><ele>513.8</ele><time>2026-05-01T09:56:10Z</time></trkpt><trkpt lat="39.384551687052095" lon="8.537264861541907"><ele>514.0</ele><time>2026-05-01T09:56:11Z</time></trkpt><trkpt lat="39.384630489259436" lon="8.537415771562763"><ele>513.25</ele><time>2026-05-01T09:56:12Z</time></trkpt><trkpt lat="39.38470277708822" lon="8.537568472260755"><ele>512.5</ele><time>2026-05-01T09:56:13Z</time></trkpt><trkpt lat="39.38478008256656" lon="8.537722360176906"><ele>511.75</ele><time>2026-05-01T09:56:14Z</time></trkpt><trkpt lat="39.384870446093615" lon="8.53784424077274"><ele>511.0</ele><time>2026-05-01T09:56:15Z</time></trkpt><trkpt lat="39.384991493097814" lon="8.537940713972253"><ele>513.6666666666667</ele><time>2026-05-01T09:56:16Z</time></trkpt><trkpt lat="39.38514097261136" lon="8.538009111898857"><ele>516.3333333333334</ele><time>2026-05-01T09:56:17Z</time></trkpt><trkpt lat="39.38530615508501" lon="8.53807053932681"><ele>519.0</ele><time>2026-05-01T09:56:18Z</time></trkpt><trkpt lat="39.38546819835848" lon="8.538143954019118"><ele>520.0</ele><time>2026-05-01T09:56:19Z</time></trkpt><trkpt lat="39.38562431723652" lon="8.538253144169278"><ele>521.0</ele><time>2026-05-01T09:56:20Z</time></trkpt><trkpt lat="39.38578752147451" lon="8.538372101377112"><ele>522.0</ele><time>2026-05-01T09:56:21Z</time></trkpt><trkpt lat="39.38596345534365" lon="8.538501567015208"><ele>522.0</ele><time>2026-05-01T09:56:22Z</time></trkpt><trkpt lat="39.38611739719148" lon="8.538619102106956"><ele>522.0</ele><time>2026-05-01T09:56:23Z</time></trkpt><trkpt lat="39.386250501960305" lon="8.538727059790236"><ele>522.0</ele><time>2026-05-01T09:56:24Z</time></trkpt><trkpt lat="39.38638689348289" lon="8.53883115768701"><ele>527.0</ele><time>2026-05-01T09:56:25Z</time></trkpt><trkpt lat="39.38653451724668" lon="8.538932473287689"><ele>532.0</ele><time>2026-05-01T09:56:26Z</time></trkpt><trkpt lat="39.386696687180496" lon="8.539014842788138"><ele>537.0</ele><time>2026-05-01T09:56:27Z</time></trkpt><trkpt lat="39.386869195979976" lon="8.53906608864803"><ele>537.0</ele><time>2026-05-01T09:56:28Z</time></trkpt><trkpt lat="39.38704417184609" lon="8.539098930097905"><ele>537.0</ele><time>2026-05-01T09:56:29Z</time></trkpt><trkpt lat="39.38722808118068" lon="8.539148797138818"><ele>537.0</ele><time>2026-05-01T09:56:29.999Z</time></trkpt><trkpt lat="39.387411482544216" lon="8.539215753101665"><ele>535.6666666666666</ele><time>2026-05-01T09:56:30.999Z</time></trkpt><trkpt lat="39.38759241088735" lon="8.539301960674331"><ele>534.3333333333333</ele><time>2026-05-01T09:56:31.999Z</time></trkpt><trkpt lat="39.387774230619485" lon="8.539395169229602"><ele>533.0</ele><time>2026-05-01T09:56:32.999Z</time></trkpt><trkpt lat="39.387931986238264" lon="8.539472657737225"><ele>533.75</ele><time>2026-05-01T09:56:33.999Z</time></trkpt><trkpt lat="39.38806606682968" lon="8.539534808616317"><ele>534.5</ele><time>2026-05-01T09:56:34.999Z</time></trkpt><trkpt lat="39.38818142815891" lon="8.539608106843193"><ele>535.25</ele><time>2026-05-01T09:56:35.999Z</time></trkpt><trkpt lat="39.388281179724174" lon="8.539706118958808"><ele>536.0</ele><time>2026-05-01T09:56:36.999Z</time></trkpt><trkpt lat="39.38837939747173" lon="8.539835905649852"><ele>537.75</ele><time>2026-05-01T09:56:37.999Z</time></trkpt><trkpt lat="39.388481817601296" lon="8.539996948792577"><ele>539.5</ele><time>2026-05-01T09:56:38.999Z</time></trkpt><trkpt lat="39.38857672524406" lon="8.540138296567315"><ele>541.25</ele><time>2026-05-01T09:56:39.999Z</time></trkpt><trkpt lat="39.38866496797999" lon="8.540241897962177"><ele>543.0</ele><time>2026-05-01T09:56:40.999Z</time></trkpt><trkpt lat="39.38875072981115" lon="8.540317964265185"><ele>543.0</ele><time>2026-05-01T09:56:41.999Z</time></trkpt><trkpt lat="39.38883222892306" lon="8.540354281719488"><ele>543.0</ele><time>2026-05-01T09:56:42.999Z</time></trkpt><trkpt lat="39.388915026468965" lon="8.540357872785007"><ele>543.0</ele><time>2026-05-01T09:56:43.999Z</time></trkpt><trkpt lat="39.389007144391435" lon="8.540325827494852"><ele>543.0</ele><time>2026-05-01T09:56:44.999Z</time></trkpt><trkpt lat="39.38912425290503" lon="8.540275692695628"><ele>543.0</ele><time>2026-05-01T09:56:45.999Z</time></trkpt><trkpt lat="39.389258519790275" lon="8.540244804082336"><ele>544.25</ele><time>2026-05-01T09:56:46.999Z</time></trkpt><trkpt lat="39.389391104140785" lon="8.540222490777236"><ele>545.5</ele><time>2026-05-01T09:56:47.999Z</time></trkpt><trkpt lat="39.38951287325622" lon="8.540199215142975"><ele>546.75</ele><time>2026-05-01T09:56:48.999Z</time></trkpt><trkpt lat="39.38962128050718" lon="8.540182371787127"><ele>548.0</ele><time>2026-05-01T09:56:49.999Z</time></trkpt><trkpt lat="39.389729336157835" lon="8.540161053796353"><ele>548.25</ele><time>2026-05-01T09:56:50.999Z</time></trkpt><trkpt lat="39.3898457744121" lon="8.540121575220677"><ele>548.5</ele><time>2026-05-01T09:56:51.999Z</time></trkpt><trkpt lat="39.389973736983116" lon="8.540065884921143"><ele>548.75</ele><time>2026-05-01T09:56:52.999Z</time></trkpt><trkpt lat="39.39011113798141" lon="8.540008206977621"><ele>549.0</ele><time>2026-05-01T09:56:53.999Z</time></trkpt><trkpt lat="39.39023324607063" lon="8.539959481846815"><ele>549.0</ele><time>2026-05-01T09:56:54.999Z</time></trkpt><trkpt lat="39.390344859841" lon="8.53992093215581"><ele>549.0</ele><time>2026-05-01T09:56:55.999Z</time></trkpt><trkpt lat="39.39045003348426" lon="8.539897832282247"><ele>549.0</ele><time>2026-05-01T09:56:56.999Z</time></trkpt><trkpt lat="39.39055042637004" lon="8.539902608161551"><ele>549.0</ele><time>2026-05-01T09:56:57.999Z</time></trkpt><trkpt lat="39.39064245962694" lon="8.539921768395905"><ele>549.0</ele><time>2026-05-01T09:56:58.999Z</time></trkpt><trkpt lat="39.39072365784222" lon="8.539945292741876"><ele>548.6666666666666</ele><time>2026-05-01T09:56:59.999Z</time></trkpt><trkpt lat="39.390790268636735" lon="8.53999138287153"><ele>548.3333333333334</ele><time>2026-05-01T09:57:00.999Z</time></trkpt><trkpt lat="39.39082926468846" lon="8.540074422545555"><ele>548.0</ele><time>2026-05-01T09:57:01.999Z</time></trkpt><trkpt lat="39.39084272172474" lon="8.540185306663489"><ele>547.6666666666667</ele><time>2026-05-01T09:57:02.999Z</time></trkpt><trkpt lat="39.39082226470532" lon="8.540303837085698"><ele>547.3333333333334</ele><time>2026-05-01T09:57:03.999Z</time></trkpt><trkpt lat="39.39079048034271" lon="8.54041116611193"><ele>547.0</ele><time>2026-05-01T09:57:04.999Z</time></trkpt><trkpt lat="39.39079281255541" lon="8.540503006361034"><ele>548.2</ele><time>2026-05-01T09:57:05.999Z</time></trkpt><trkpt lat="39.39083552171539" lon="8.54058863894595"><ele>549.4000000000001</ele><time>2026-05-01T09:57:06.999Z</time></trkpt><trkpt lat="39.39091979484476" lon="8.540642639860447"><ele>550.5999999999999</ele><time>2026-05-01T09:57:07.999Z</time></trkpt><trkpt lat="39.39102982855358" lon="8.540679456785213"><ele>551.8</ele><time>2026-05-01T09:57:08.999Z</time></trkpt><trkpt lat="39.39115958849529" lon="8.540716338265593"><ele>553.0</ele><time>2026-05-01T09:57:09.999Z</time></trkpt><trkpt lat="39.39130220225311" lon="8.540780326035543"><ele>549.0</ele><time>2026-05-01T09:57:10.999Z</time></trkpt><trkpt lat="39.39144367946909" lon="8.540853177401976"><ele>545.0</ele><time>2026-05-01T09:57:11.999Z</time></trkpt><trkpt lat="39.391581347591725" lon="8.540905782040971"><ele>541.0</ele><time>2026-05-01T09:57:12.999Z</time></trkpt><trkpt lat="39.39170730778613" lon="8.540937257670514"><ele>537.0</ele><time>2026-05-01T09:57:13.999Z</time></trkpt><trkpt lat="39.39182284460253" lon="8.540944619004847"><ele>537.0</ele><time>2026-05-01T09:57:14.999Z</time></trkpt><trkpt lat="39.39192441130416" lon="8.54091358647518"><ele>537.0</ele><time>2026-05-01T09:57:15.999Z</time></trkpt><trkpt lat="39.39202282084273" lon="8.540892113949258"><ele>537.0</ele><time>2026-05-01T09:57:16.999Z</time></trkpt><trkpt lat="39.39210927091787" lon="8.540916040088957"><ele>537.0</ele><time>2026-05-01T09:57:17.999Z</time></trkpt><trkpt lat="39.39219927061458" lon="8.54098337385707"><ele>537.0</ele><time>2026-05-01T09:57:18.999Z</time></trkpt><trkpt lat="39.39229395654727" lon="8.541065902106551"><ele>535.0</ele><time>2026-05-01T09:57:19.999Z</time></trkpt><trkpt lat="39.392398405427045" lon="8.541155855519419"><ele>533.0</ele><time>2026-05-01T09:57:20.999Z</time></trkpt><trkpt lat="39.39251204900071" lon="8.54124004434954"><ele>531.0</ele><time>2026-05-01T09:57:21.999Z</time></trkpt><trkpt lat="39.39263267440818" lon="8.541320834711234"><ele>529.0</ele><time>2026-05-01T09:57:22.999Z</time></trkpt><trkpt lat="39.392755291503455" lon="8.541400488551632"><ele>531.5</ele><time>2026-05-01T09:57:23.999Z</time></trkpt><trkpt lat="39.392859363453844" lon="8.54148183603068"><ele>534.0</ele><time>2026-05-01T09:57:24.999Z</time></trkpt><trkpt lat="39.39295589085094" lon="8.541547093620139"><ele>536.5</ele><time>2026-05-01T09:57:25.999Z</time></trkpt><trkpt lat="39.39306280825272" lon="8.541592509039049"><ele>539.0</ele><time>2026-05-01T09:57:26.999Z</time></trkpt><trkpt lat="39.39318574161627" lon="8.54161265024218"><ele>539.0</ele><time>2026-05-01T09:57:27.999Z</time></trkpt><trkpt lat="39.39331282266434" lon="8.541592068867713"><ele>539.0</ele><time>2026-05-01T09:57:28.999Z</time></trkpt><trkpt lat="39.39344407221447" lon="8.541537163623044"><ele>539.0</ele><time>2026-05-01T09:57:29.999Z</time></trkpt><trkpt lat="39.3935674300555" lon="8.541503272934706"><ele>539.0</ele><time>2026-05-01T09:57:30.999Z</time></trkpt><trkpt lat="39.393679014564" lon="8.541475845463646"><ele>539.0</ele><time>2026-05-01T09:57:31.999Z</time></trkpt><trkpt lat="39.39377523734924" lon="8.541459872323477"><ele>539.0</ele><time>2026-05-01T09:57:32.999Z</time></trkpt><trkpt lat="39.39386227094705" lon="8.541461544393007"><ele>539.0</ele><time>2026-05-01T09:57:33.999Z</time></trkpt><trkpt lat="39.39393408113287" lon="8.54150285306174"><ele>539.0</ele><time>2026-05-01T09:57:34.999Z</time></trkpt><trkpt lat="39.39399536428755" lon="8.541565974038484"><ele>539.0</ele><time>2026-05-01T09:57:35.999Z</time></trkpt><trkpt lat="39.394031527058445" lon="8.541664558031059"><ele>539.0</ele><time>2026-05-01T09:57:36.999Z</time></trkpt><trkpt lat="39.39405300129345" lon="8.541793525637388"><ele>538.75</ele><time>2026-05-01T09:57:38Z</time></trkpt><trkpt lat="39.394087582983616" lon="8.54193759783459"><ele>538.5</ele><time>2026-05-01T09:57:39Z</time></trkpt><trkpt lat="39.3941329854953" lon="8.542081786293071"><ele>538.25</ele><time>2026-05-01T09:57:40Z</time></trkpt><trkpt lat="39.39417288454185" lon="8.542218860071781"><ele>538.0</ele><time>2026-05-01T09:57:41Z</time></trkpt><trkpt lat="39.39420452988255" lon="8.54234738728797"><ele>536.0</ele><time>2026-05-01T09:57:42Z</time></trkpt><trkpt lat="39.39424173562449" lon="8.542459534626701"><ele>534.0</ele><time>2026-05-01T09:57:43Z</time></trkpt><trkpt lat="39.3942633359509" lon="8.542548508210182"><ele>532.0</ele><time>2026-05-01T09:57:44Z</time></trkpt><trkpt lat="39.394262257883355" lon="8.542631394942118"><ele>530.0</ele><time>2026-05-01T09:57:45Z</time></trkpt><trkpt lat="39.394234739996584" lon="8.542710859348013"><ele>528.0</ele><time>2026-05-01T09:57:46Z</time></trkpt><trkpt lat="39.39416618766541" lon="8.542798782180041"><ele>526.0</ele><time>2026-05-01T09:57:47Z</time></trkpt><trkpt lat="39.39407392268571" lon="8.54287649073241"><ele>522.0</ele><time>2026-05-01T09:57:48Z</time></trkpt><trkpt lat="39.393976305204056" lon="8.542928499277368"><ele>518.0</ele><time>2026-05-01T09:57:49Z</time></trkpt><trkpt lat="39.39388678675828" lon="8.54295712019533"><ele>514.0</ele><time>2026-05-01T09:57:50Z</time></trkpt><trkpt lat="39.393822540888" lon="8.543030846575533"><ele>510.0</ele><time>2026-05-01T09:57:51Z</time></trkpt><trkpt lat="39.39378986205523" lon="8.543137522118998"><ele>506.0</ele><time>2026-05-01T09:57:52Z</time></trkpt><trkpt lat="39.39376756058296" lon="8.543278525633962"><ele>515.0</ele><time>2026-05-01T09:57:53Z</time></trkpt><trkpt lat="39.39374791100533" lon="8.543463145956702"><ele>524.0</ele><time>2026-05-01T09:57:54Z</time></trkpt><trkpt lat="39.3937276139547" lon="8.54369086089325"><ele>533.0</ele><time>2026-05-01T09:57:55Z</time></trkpt><trkpt lat="39.393704436888775" lon="8.543908700557804"><ele>533.0</ele><time>2026-05-01T09:57:56Z</time></trkpt><trkpt lat="39.39367135868214" lon="8.544088532112047"><ele>533.0</ele><time>2026-05-01T09:57:57Z</time></trkpt><trkpt lat="39.39362602615861" lon="8.544240849563213"><ele>533.0</ele><time>2026-05-01T09:57:58Z</time></trkpt><trkpt lat="39.39356288794357" lon="8.544396347679939"><ele>533.0</ele><time>2026-05-01T09:57:59Z</time></trkpt><trkpt lat="39.39351058545495" lon="8.54455617146986"><ele>529.8</ele><time>2026-05-01T09:58:00Z</time></trkpt><trkpt lat="39.39346829515263" lon="8.54470942929399"><ele>526.5999999999999</ele><time>2026-05-01T09:58:01Z</time></trkpt><trkpt lat="39.39344248747703" lon="8.54486318379763"><ele>523.4000000000001</ele><time>2026-05-01T09:58:02Z</time></trkpt><trkpt lat="39.39343212321174" lon="8.544998148489713"><ele>520.2</ele><time>2026-05-01T09:58:03Z</time></trkpt><trkpt lat="39.39342688684717" lon="8.545105226974067"><ele>517.0</ele><time>2026-05-01T09:58:04Z</time></trkpt><trkpt lat="39.39337472291993" lon="8.545241609800735"><ele>517.0</ele><time>2026-05-01T09:58:06Z</time></trkpt><trkpt lat="39.393305724793876" lon="8.54527659795383"><ele>517.0</ele><time>2026-05-01T09:58:07Z</time></trkpt><trkpt lat="39.393237848628935" lon="8.545309947021265"><ele>517.0</ele><time>2026-05-01T09:58:08Z</time></trkpt><trkpt lat="39.39319435512018" lon="8.545377823213206"><ele>517.0</ele><time>2026-05-01T09:58:09Z</time></trkpt><trkpt lat="39.39319152407513" lon="8.545487225432614"><ele>517.0</ele><time>2026-05-01T09:58:10Z</time></trkpt><trkpt lat="39.39321087926618" lon="8.54563139246128"><ele>517.0</ele><time>2026-05-01T09:58:11Z</time></trkpt><trkpt lat="39.3932528009285" lon="8.545787117075692"><ele>513.2</ele><time>2026-05-01T09:58:12Z</time></trkpt><trkpt lat="39.39329435436387" lon="8.545931804887221"><ele>509.40000000000003</ele><time>2026-05-01T09:58:13Z</time></trkpt><trkpt lat="39.39331725909991" lon="8.546051364604123"><ele>505.59999999999997</ele><time>2026-05-01T09:58:14Z</time></trkpt><trkpt lat="39.39330194996996" lon="8.546157506644748"><ele>501.79999999999995</ele><time>2026-05-01T09:58:15Z</time></trkpt><trkpt lat="39.39325818985076" lon="8.546271600775789"><ele>498.0</ele><time>2026-05-01T09:58:16Z</time></trkpt><trkpt lat="39.39318646373644" lon="8.546420639435297"><ele>496.75</ele><time>2026-05-01T09:58:17Z</time></trkpt><trkpt lat="39.393132264074346" lon="8.546569294689814"><ele>495.5</ele><time>2026-05-01T09:58:18Z</time></trkpt><trkpt lat="39.39310527169591" lon="8.546708013514449"><ele>494.25</ele><time>2026-05-01T09:58:19Z</time></trkpt><trkpt lat="39.39310691115514" lon="8.5468444576265"><ele>493.0</ele><time>2026-05-01T09:58:20Z</time></trkpt><trkpt lat="39.3931504326373" lon="8.546993049590554"><ele>494.75</ele><time>2026-05-01T09:58:21Z</time></trkpt><trkpt lat="39.39321606522252" lon="8.547154503623537"><ele>496.5</ele><time>2026-05-01T09:58:22Z</time></trkpt><trkpt lat="39.39328036196646" lon="8.547319457230273"><ele>498.25</ele><time>2026-05-01T09:58:23Z</time></trkpt><trkpt lat="39.3933465658818" lon="8.547477261055509"><ele>500.0</ele><time>2026-05-01T09:58:24Z</time></trkpt><trkpt lat="39.39342952909396" lon="8.547610205541984"><ele>500.0</ele><time>2026-05-01T09:58:25Z</time></trkpt><trkpt lat="39.39352169775525" lon="8.54771320371994"><ele>500.0</ele><time>2026-05-01T09:58:26Z</time></trkpt><trkpt lat="39.393606814180174" lon="8.547811025886634"><ele>500.0</ele><time>2026-05-01T09:58:27Z</time></trkpt><trkpt lat="39.39366034591578" lon="8.547908663130883"><ele>500.0</ele><time>2026-05-01T09:58:28Z</time></trkpt><trkpt lat="39.39369944314177" lon="8.54799383774428"><ele>500.0</ele><time>2026-05-01T09:58:29Z</time></trkpt><trkpt lat="39.39368756189505" lon="8.548127813843815"><ele>500.4</ele><time>2026-05-01T09:58:31Z</time></trkpt><trkpt lat="39.39363068959762" lon="8.548175643134599"><ele>500.8</ele><time>2026-05-01T09:58:32Z</time></trkpt><trkpt lat="39.39353669048093" lon="8.548206422203489"><ele>501.20000000000005</ele><time>2026-05-01T09:58:33Z</time></trkpt><trkpt lat="39.39342235585206" lon="8.548233650977252"><ele>501.6</ele><time>2026-05-01T09:58:34Z</time></trkpt><trkpt lat="39.393320957391296" lon="8.548307135585446"><ele>502.0</ele><time>2026-05-01T09:58:34.999Z</time></trkpt><trkpt lat="39.393259355499985" lon="8.548418801892547"><ele>502.00000000000006</ele><time>2026-05-01T09:58:35.999Z</time></trkpt><trkpt lat="39.39320025344778" lon="8.54853297444636"><ele>502.0</ele><time>2026-05-01T09:58:36.999Z</time></trkpt><trkpt lat="39.39317831143584" lon="8.548641150928523"><ele>502.0</ele><time>2026-05-01T09:58:37.999Z</time></trkpt><trkpt lat="39.39319220728627" lon="8.548741944604414"><ele>502.0</ele><time>2026-05-01T09:58:38.999Z</time></trkpt><trkpt lat="39.39322768127628" lon="8.548825559136196"><ele>502.00000000000006</ele><time>2026-05-01T09:58:39.999Z</time></trkpt><trkpt lat="39.39329151166076" lon="8.54888067831374"><ele>502.0</ele><time>2026-05-01T09:58:40.999Z</time></trkpt><trkpt lat="39.39336955735591" lon="8.548910276212451"><ele>502.75</ele><time>2026-05-01T09:58:41.999Z</time></trkpt><trkpt lat="39.39345464494171" lon="8.548908119727262"><ele>503.5</ele><time>2026-05-01T09:58:42.999Z</time></trkpt><trkpt lat="39.393572984360176" lon="8.548862089460917"><ele>504.25</ele><time>2026-05-01T09:58:43.999Z</time></trkpt><trkpt lat="39.39372394203207" lon="8.548820047679017"><ele>505.0</ele><time>2026-05-01T09:58:44.999Z</time></trkpt><trkpt lat="39.39388734268199" lon="8.548804635824741"><ele>503.25</ele><time>2026-05-01T09:58:45.999Z</time></trkpt><trkpt lat="39.394049473921136" lon="8.548788541429595"><ele>501.5</ele><time>2026-05-01T09:58:46.999Z</time></trkpt><trkpt lat="39.39419075697687" lon="8.54876828367111"><ele>499.75</ele><time>2026-05-01T09:58:47.999Z</time></trkpt><trkpt lat="39.39431965767547" lon="8.548745013139225"><ele>498.0</ele><time>2026-05-01T09:58:48.999Z</time></trkpt><trkpt lat="39.39443847408811" lon="8.548733262023827"><ele>498.0</ele><time>2026-05-01T09:58:49.999Z</time></trkpt><trkpt lat="39.39456622590067" lon="8.548754291859051"><ele>498.0</ele><time>2026-05-01T09:58:50.999Z</time></trkpt><trkpt lat="39.39470572480545" lon="8.548805116721757"><ele>498.0</ele><time>2026-05-01T09:58:51.999Z</time></trkpt><trkpt lat="39.3948597981878" lon="8.54887876174676"><ele>498.0</ele><time>2026-05-01T09:58:52.999Z</time></trkpt><trkpt lat="39.39501161068879" lon="8.54893228939494"><ele>495.75</ele><time>2026-05-01T09:58:53.999Z</time></trkpt><trkpt lat="39.39514128257183" lon="8.548976357421953"><ele>493.5</ele><time>2026-05-01T09:58:54.999Z</time></trkpt><trkpt lat="39.39525840871112" lon="8.549018913895452"><ele>491.25</ele><time>2026-05-01T09:58:55.999Z</time></trkpt><trkpt lat="39.39535975561781" lon="8.549066549232325"><ele>489.0</ele><time>2026-05-01T09:58:56.999Z</time></trkpt><trkpt lat="39.39544481087673" lon="8.549130606987"><ele>489.5</ele><time>2026-05-01T09:58:57.999Z</time></trkpt><trkpt lat="39.39551348395751" lon="8.549210150493275"><ele>490.0</ele><time>2026-05-01T09:58:58.999Z</time></trkpt><trkpt lat="39.395561024635384" lon="8.5493244635597"><ele>490.5</ele><time>2026-05-01T09:58:59.999Z</time></trkpt><trkpt lat="39.395609693983324" lon="8.549483608938893"><ele>491.0</ele><time>2026-05-01T09:59:00.999Z</time></trkpt><trkpt lat="39.395667605756444" lon="8.549643117056835"><ele>491.0</ele><time>2026-05-01T09:59:01.999Z</time></trkpt><trkpt lat="39.395712565160586" lon="8.549745776850376"><ele>491.0</ele><time>2026-05-01T09:59:02.999Z</time></trkpt><trkpt lat="39.39573443861807" lon="8.549822453272983"><ele>491.0</ele><time>2026-05-01T09:59:04.999Z</time></trkpt><trkpt lat="39.395789892286615" lon="8.54996056958848"><ele>491.0</ele><time>2026-05-01T09:59:06.999Z</time></trkpt><trkpt lat="39.395847862582514" lon="8.550053376365172"><ele>491.0</ele><time>2026-05-01T09:59:07.999Z</time></trkpt><trkpt lat="39.39592579912949" lon="8.55014769740498"><ele>491.0</ele><time>2026-05-01T09:59:08.999Z</time></trkpt><trkpt lat="39.39600535103396" lon="8.550238211352516"><ele>491.0</ele><time>2026-05-01T09:59:09.999Z</time></trkpt><trkpt lat="39.39610352009889" lon="8.550337509323718"><ele>491.0</ele><time>2026-05-01T09:59:10.999Z</time></trkpt><trkpt lat="39.39620670267009" lon="8.550452228413501"><ele>491.0</ele><time>2026-05-01T09:59:11.999Z</time></trkpt><trkpt lat="39.39632035096568" lon="8.55056703592712"><ele>496.0</ele><time>2026-05-01T09:59:12.999Z</time></trkpt><trkpt lat="39.39643520133" lon="8.55069230156057"><ele>501.0</ele><time>2026-05-01T09:59:13.999Z</time></trkpt><trkpt lat="39.39656259432135" lon="8.55084015821254"><ele>506.0</ele><time>2026-05-01T09:59:14.999Z</time></trkpt><trkpt lat="39.396722575987894" lon="8.550999957250706"><ele>506.0</ele><time>2026-05-01T09:59:15.999Z</time></trkpt><trkpt lat="39.39687991269293" lon="8.551173404263889"><ele>506.0</ele><time>2026-05-01T09:59:16.999Z</time></trkpt><trkpt lat="39.397043726121765" lon="8.551331374479847"><ele>506.0</ele><time>2026-05-01T09:59:17.999Z</time></trkpt><trkpt lat="39.39715962607383" lon="8.551448676808551"><ele>510.5</ele><time>2026-05-01T09:59:18.999Z</time></trkpt><trkpt lat="39.39723046009194" lon="8.551548375426531"><ele>515.0</ele><time>2026-05-01T09:59:19.999Z</time></trkpt><trkpt lat="39.3972929560071" lon="8.551661557517928"><ele>519.5</ele><time>2026-05-01T09:59:20.999Z</time></trkpt><trkpt lat="39.39734702956613" lon="8.551807914985256"><ele>524.0</ele><time>2026-05-01T09:59:21.999Z</time></trkpt><trkpt lat="39.39740005713815" lon="8.551999053207178"><ele>524.0</ele><time>2026-05-01T09:59:22.999Z</time></trkpt><trkpt lat="39.39745123351434" lon="8.552178931546216"><ele>524.0</ele><time>2026-05-01T09:59:23.999Z</time></trkpt><trkpt lat="39.39749932709369" lon="8.552344412159538"><ele>524.0</ele><time>2026-05-01T09:59:24.999Z</time></trkpt><trkpt lat="39.39751218015835" lon="8.552439508425534"><ele>524.0</ele><time>2026-05-01T09:59:25.999Z</time></trkpt><trkpt lat="39.397476492210345" lon="8.552539603310997"><ele>524.0</ele><time>2026-05-01T09:59:26.999Z</time></trkpt><trkpt lat="39.397422760061616" lon="8.552647277636156"><ele>524.0</ele><time>2026-05-01T09:59:27.999Z</time></trkpt><trkpt lat="39.39734514812947" lon="8.55276229061422"><ele>524.0</ele><time>2026-05-01T09:59:28.999Z</time></trkpt><trkpt lat="39.39725351962466" lon="8.55287731035391"><ele>524.0</ele><time>2026-05-01T09:59:29.999Z</time></trkpt><trkpt lat="39.397185622573105" lon="8.552969333535827"><ele>524.0</ele><time>2026-05-01T09:59:30.999Z</time></trkpt><trkpt lat="39.39714637258109" lon="8.553045421102043"><ele>524.0</ele><time>2026-05-01T09:59:31.999Z</time></trkpt><trkpt lat="39.39710652781075" lon="8.553157882877233"><ele>527.4</ele><time>2026-05-01T09:59:33.999Z</time></trkpt><trkpt lat="39.39709946293408" lon="8.553244987828787"><ele>530.8</ele><time>2026-05-01T09:59:37.999Z</time></trkpt><trkpt lat="39.39714930803766" lon="8.553314735527325"><ele>534.2</ele><time>2026-05-01T09:59:39.999Z</time></trkpt><trkpt lat="39.39723725858528" lon="8.553402302637567"><ele>537.6</ele><time>2026-05-01T09:59:41.999Z</time></trkpt><trkpt lat="39.39732270061746" lon="8.553530268126709"><ele>541.0</ele><time>2026-05-01T09:59:44Z</time></trkpt><trkpt lat="39.397358111398646" lon="8.553610958145061"><ele>541.0</ele><time>2026-05-01T09:59:45Z</time></trkpt><trkpt lat="39.39738454692814" lon="8.553702786409474"><ele>541.0</ele><time>2026-05-01T09:59:46Z</time></trkpt><trkpt lat="39.39740063779469" lon="8.55380600791819"><ele>541.0</ele><time>2026-05-01T09:59:47Z</time></trkpt><trkpt lat="39.39743482046911" lon="8.553896931212137"><ele>541.0</ele><time>2026-05-01T09:59:48Z</time></trkpt><trkpt lat="39.39749307735434" lon="8.55397295550377"><ele>541.0</ele><time>2026-05-01T09:59:49Z</time></trkpt><trkpt lat="39.39755456130583" lon="8.5540425575836"><ele>541.0</ele><time>2026-05-01T09:59:50Z</time></trkpt><trkpt lat="39.3975977451434" lon="8.55410939705409"><ele>541.4</ele><time>2026-05-01T09:59:51Z</time></trkpt><trkpt lat="39.39763022143066" lon="8.554195965691987"><ele>541.8</ele><time>2026-05-01T09:59:52Z</time></trkpt><trkpt lat="39.39765214233012" lon="8.554300953565985"><ele>542.1999999999999</ele><time>2026-05-01T09:59:53Z</time></trkpt><trkpt lat="39.39767765186223" lon="8.554420433175789"><ele>542.6</ele><time>2026-05-01T09:59:54Z</time></trkpt><trkpt lat="39.39770343312968" lon="8.554549347266926"><ele>543.0</ele><time>2026-05-01T09:59:55Z</time></trkpt><trkpt lat="39.397726091037214" lon="8.554698484683781"><ele>543.0</ele><time>2026-05-01T09:59:56Z</time></trkpt><trkpt lat="39.39775591208485" lon="8.55487385066483"><ele>543.0</ele><time>2026-05-01T09:59:57Z</time></trkpt><trkpt lat="39.39778031156238" lon="8.555084205214895"><ele>543.0</ele><time>2026-05-01T09:59:58Z</time></trkpt><trkpt lat="39.39780749280643" lon="8.555306563457608"><ele>545.3333333333334</ele><time>2026-05-01T09:59:59Z</time></trkpt><trkpt lat="39.39784579424388" lon="8.555568460706654"><ele>547.6666666666667</ele><time>2026-05-01T10:00:00Z</time></trkpt><trkpt lat="39.397932124789264" lon="8.555794425011074"><ele>550.0</ele><time>2026-05-01T10:00:01Z</time></trkpt><trkpt lat="39.398044446853056" lon="8.556046086436735"><ele>549.3333333333334</ele><time>2026-05-01T10:00:02Z</time></trkpt><trkpt lat="39.39817458353053" lon="8.556272888204662"><ele>548.6666666666666</ele><time>2026-05-01T10:00:03Z</time></trkpt><trkpt lat="39.39827262354505" lon="8.556465201017959"><ele>548.0</ele><time>2026-05-01T10:00:04Z</time></trkpt><trkpt lat="39.39834323312648" lon="8.5566251888663"><ele>548.0</ele><time>2026-05-01T10:00:05Z</time></trkpt><trkpt lat="39.398419129847255" lon="8.556732996789092"><ele>548.0</ele><time>2026-05-01T10:00:06Z</time></trkpt><trkpt lat="39.39854881806281" lon="8.55680953005564"><ele>548.0</ele><time>2026-05-01T10:00:07Z</time></trkpt><trkpt lat="39.39867786226143" lon="8.556861191695672"><ele>548.0</ele><time>2026-05-01T10:00:08Z</time></trkpt><trkpt lat="39.39880559169524" lon="8.556941863470582"><ele>547.75</ele><time>2026-05-01T10:00:09Z</time></trkpt><trkpt lat="39.39888284187293" lon="8.557040513903527"><ele>547.5</ele><time>2026-05-01T10:00:10Z</time></trkpt><trkpt lat="39.398950050323705" lon="8.557171299235957"><ele>547.25</ele><time>2026-05-01T10:00:11Z</time></trkpt><trkpt lat="39.399023888394936" lon="8.557312078309659"><ele>547.0</ele><time>2026-05-01T10:00:12Z</time></trkpt><trkpt lat="39.399120683687144" lon="8.557428932594252"><ele>547.0</ele><time>2026-05-01T10:00:13Z</time></trkpt><trkpt lat="39.39920884658527" lon="8.557529358549562"><ele>547.0</ele><time>2026-05-01T10:00:14Z</time></trkpt><trkpt lat="39.39928075122644" lon="8.557624142955868"><ele>547.0</ele><time>2026-05-01T10:00:15Z</time></trkpt><trkpt lat="39.39933805641842" lon="8.557733130579761"><ele>547.0</ele><time>2026-05-01T10:00:16Z</time></trkpt><trkpt lat="39.39936601756173" lon="8.557850293547418"><ele>547.0</ele><time>2026-05-01T10:00:17Z</time></trkpt><trkpt lat="39.399384769898454" lon="8.55796623323788"><ele>546.8333333333334</ele><time>2026-05-01T10:00:18Z</time></trkpt><trkpt lat="39.399398322203865" lon="8.558089570438135"><ele>546.6666666666667</ele><time>2026-05-01T10:00:19Z</time></trkpt><trkpt lat="39.39940756367523" lon="8.558197728000978"><ele>546.5</ele><time>2026-05-01T10:00:20Z</time></trkpt><trkpt lat="39.399440701585355" lon="8.558281122278032"><ele>546.3333333333334</ele><time>2026-05-01T10:00:21Z</time></trkpt><trkpt lat="39.39949403945992" lon="8.558350659860308"><ele>546.1666666666666</ele><time>2026-05-01T10:00:22Z</time></trkpt><trkpt lat="39.39955694266556" lon="8.558401672503619"><ele>546.0</ele><time>2026-05-01T10:00:23Z</time></trkpt><trkpt lat="39.39962802560688" lon="8.558438257697587"><ele>548.1428571428571</ele><time>2026-05-01T10:00:24Z</time></trkpt><trkpt lat="39.39969823720347" lon="8.558459137210425"><ele>550.2857142857142</ele><time>2026-05-01T10:00:25Z</time></trkpt><trkpt lat="39.39976925719797" lon="8.558475803998519"><ele>552.4285714285714</ele><time>2026-05-01T10:00:26Z</time></trkpt><trkpt lat="39.39983224196024" lon="8.558508464875993"><ele>554.5714285714286</ele><time>2026-05-01T10:00:27Z</time></trkpt><trkpt lat="39.39989624801799" lon="8.558538745010747"><ele>556.7142857142857</ele><time>2026-05-01T10:00:28Z</time></trkpt><trkpt lat="39.39996576734833" lon="8.558560959155578"><ele>558.8571428571429</ele><time>2026-05-01T10:00:29Z</time></trkpt><trkpt lat="39.40003757432158" lon="8.558584344923043"><ele>561.0</ele><time>2026-05-01T10:00:30Z</time></trkpt><trkpt lat="39.40010454821954" lon="8.558618015358144"><ele>561.0</ele><time>2026-05-01T10:00:31Z</time></trkpt><trkpt lat="39.40016506632343" lon="8.558678388635483"><ele>561.0</ele><time>2026-05-01T10:00:32Z</time></trkpt><trkpt lat="39.400220690068096" lon="8.558741904368684"><ele>561.0</ele><time>2026-05-01T10:00:33Z</time></trkpt><trkpt lat="39.40027114779719" lon="8.558802615299797"><ele>561.0</ele><time>2026-05-01T10:00:34Z</time></trkpt><trkpt lat="39.4003413612081" lon="8.558915907144462"><ele>561.0</ele><time>2026-05-01T10:00:36Z</time></trkpt><trkpt lat="39.40044803179848" lon="8.55899082311227"><ele>563.0</ele><time>2026-05-01T10:00:37.999Z</time></trkpt><trkpt lat="39.40052732307146" lon="8.559018228168677"><ele>565.0</ele><time>2026-05-01T10:00:38.999Z</time></trkpt><trkpt lat="39.400597144278386" lon="8.559078600882458"><ele>567.0</ele><time>2026-05-01T10:00:39.999Z</time></trkpt><trkpt lat="39.4006301780526" lon="8.559162632915152"><ele>569.0</ele><time>2026-05-01T10:00:40.999Z</time></trkpt><trkpt lat="39.40063679124234" lon="8.559263713265677"><ele>571.0</ele><time>2026-05-01T10:00:41.999Z</time></trkpt><trkpt lat="39.40061670304066" lon="8.55937099796829"><ele>573.0</ele><time>2026-05-01T10:00:42.999Z</time></trkpt><trkpt lat="39.40057868316649" lon="8.559475476721461"><ele>572.6</ele><time>2026-05-01T10:00:43.999Z</time></trkpt><trkpt lat="39.40054626222134" lon="8.55958670732814"><ele>572.1999999999999</ele><time>2026-05-01T10:00:44.999Z</time></trkpt><trkpt lat="39.400520701946" lon="8.559710976256847"><ele>571.8</ele><time>2026-05-01T10:00:45.999Z</time></trkpt><trkpt lat="39.400489265844335" lon="8.55983144177084"><ele>571.4</ele><time>2026-05-01T10:00:46.999Z</time></trkpt><trkpt lat="39.40045479842347" lon="8.559933820029022"><ele>571.0</ele><time>2026-05-01T10:00:47.999Z</time></trkpt><trkpt lat="39.400430339132235" lon="8.560025376559981"><ele>568.3333333333334</ele><time>2026-05-01T10:00:48.999Z</time></trkpt><trkpt lat="39.40040464895496" lon="8.56010858787097"><ele>565.6666666666667</ele><time>2026-05-01T10:00:49.999Z</time></trkpt><trkpt lat="39.40038097731746" lon="8.560190854194209"><ele>563.0</ele><time>2026-05-01T10:00:50.999Z</time></trkpt><trkpt lat="39.400360252970266" lon="8.560287067999223"><ele>560.3333333333334</ele><time>2026-05-01T10:00:51.999Z</time></trkpt><trkpt lat="39.400360286196076" lon="8.560380333794184"><ele>557.6666666666666</ele><time>2026-05-01T10:00:52.999Z</time></trkpt><trkpt lat="39.40037422627176" lon="8.560524116699765"><ele>555.0</ele><time>2026-05-01T10:00:54.999Z</time></trkpt><trkpt lat="39.40037260483227" lon="8.560625584028408"><ele>555.0</ele><time>2026-05-01T10:00:58.999Z</time></trkpt><trkpt lat="39.40034656589224" lon="8.560708037733122"><ele>555.0</ele><time>2026-05-01T10:01:00.999Z</time></trkpt><trkpt lat="39.400310632311836" lon="8.560816122198467"><ele>555.0</ele><time>2026-05-01T10:01:02.999Z</time></trkpt><trkpt lat="39.40025328256119" lon="8.560901370127933"><ele>555.0</ele><time>2026-05-01T10:01:04.999Z</time></trkpt><trkpt lat="39.40020133654107" lon="8.560956814459713"><ele>555.0</ele><time>2026-05-01T10:01:06.999Z</time></trkpt><trkpt lat="39.40017008881749" lon="8.561034396969838"><ele>555.0</ele><time>2026-05-01T10:01:09.999Z</time></trkpt><trkpt lat="39.40026521256757" lon="8.561050587229813"><ele>555.0</ele><time>2026-05-01T10:01:12.999Z</time></trkpt><trkpt lat="39.40034289642397" lon="8.560988268428105"><ele>555.0</ele><time>2026-05-01T10:01:14.999Z</time></trkpt><trkpt lat="39.40042704848698" lon="8.560938109831769"><ele>555.0</ele><time>2026-05-01T10:01:16.999Z</time></trkpt><trkpt lat="39.40051235472354" lon="8.560881276108962"><ele>555.0</ele><time>2026-05-01T10:01:18.999Z</time></trkpt><trkpt lat="39.400586437056795" lon="8.560806506460969"><ele>555.0</ele><time>2026-05-01T10:01:20.999Z</time></trkpt><trkpt lat="39.400665306650374" lon="8.56075641757073"><ele>558.2</ele><time>2026-05-01T10:01:22.999Z</time></trkpt><trkpt lat="39.40071359917957" lon="8.560698546657681"><ele>561.4</ele><time>2026-05-01T10:01:24.999Z</time></trkpt><trkpt lat="39.400779001598806" lon="8.560524058187116"><ele>564.6</ele><time>2026-05-01T10:01:27.999Z</time></trkpt><trkpt lat="39.40075541462412" lon="8.5603421400898"><ele>567.8</ele><time>2026-05-01T10:01:29.999Z</time></trkpt><trkpt lat="39.40076508708755" lon="8.560254252829445"><ele>571.0</ele><time>2026-05-01T10:01:30.999Z</time></trkpt><trkpt lat="39.4008003449285" lon="8.560137112894715"><ele>571.0</ele><time>2026-05-01T10:01:31.999Z</time></trkpt><trkpt lat="39.400843704278174" lon="8.560051005215186"><ele>571.0</ele><time>2026-05-01T10:01:32.999Z</time></trkpt><trkpt lat="39.40092635055394" lon="8.559933609007068"><ele>571.0</ele><time>2026-05-01T10:01:34.999Z</time></trkpt><trkpt lat="39.40100373782265" lon="8.559866580864677"><ele>571.0</ele><time>2026-05-01T10:01:36.999Z</time></trkpt><trkpt lat="39.401073638000696" lon="8.559854448145408"><ele>571.0</ele><time>2026-05-01T10:01:37.999Z</time></trkpt><trkpt lat="39.40113787937487" lon="8.559857052839963"><ele>571.0</ele><time>2026-05-01T10:01:38.999Z</time></trkpt><trkpt lat="39.40120505153166" lon="8.559825568788126"><ele>571.0</ele><time>2026-05-01T10:01:39.999Z</time></trkpt><trkpt lat="39.401276347290946" lon="8.559699706360199"><ele>571.0</ele><time>2026-05-01T10:01:41.999Z</time></trkpt><trkpt lat="39.401282433076766" lon="8.559614892544003"><ele>571.0</ele><time>2026-05-01T10:01:42.999Z</time></trkpt><trkpt lat="39.40130962534234" lon="8.559513341443322"><ele>571.0</ele><time>2026-05-01T10:01:44.999Z</time></trkpt><trkpt lat="39.401370397458564" lon="8.559558883212656"><ele>571.0</ele><time>2026-05-01T10:01:47.999Z</time></trkpt><trkpt lat="39.401355132514894" lon="8.559675631830983"><ele>571.0</ele><time>2026-05-01T10:01:50Z</time></trkpt><trkpt lat="39.401335991345654" lon="8.559768146279982"><ele>571.0</ele><time>2026-05-01T10:01:51Z</time></trkpt><trkpt lat="39.401291694489615" lon="8.559849268055562"><ele>571.0</ele><time>2026-05-01T10:01:52Z</time></trkpt><trkpt lat="39.40126323796666" lon="8.559944012940255"><ele>571.0</ele><time>2026-05-01T10:01:53Z</time></trkpt><trkpt lat="39.40124732311035" lon="8.560034920623481"><ele>571.0</ele><time>2026-05-01T10:01:54Z</time></trkpt><trkpt lat="39.4012042940286" lon="8.560187190297595"><ele>571.0</ele><time>2026-05-01T10:01:56Z</time></trkpt><trkpt lat="39.40114679352322" lon="8.560253693179169"><ele>571.0</ele><time>2026-05-01T10:01:57Z</time></trkpt><trkpt lat="39.40109957490479" lon="8.560311323514624"><ele>571.6666666666667</ele><time>2026-05-01T10:01:58Z</time></trkpt><trkpt lat="39.401058871512696" lon="8.56042652868358"><ele>572.3333333333334</ele><time>2026-05-01T10:02:00Z</time></trkpt><trkpt lat="39.40105613626563" lon="8.560509793668064"><ele>573.0</ele><time>2026-05-01T10:02:01Z</time></trkpt><trkpt lat="39.40106081818453" lon="8.56059980524398"><ele>573.6666666666666</ele><time>2026-05-01T10:02:02Z</time></trkpt><trkpt lat="39.40104799101628" lon="8.560704519876666"><ele>574.3333333333333</ele><time>2026-05-01T10:02:03Z</time></trkpt><trkpt lat="39.401020601040145" lon="8.560831962520826"><ele>575.0</ele><time>2026-05-01T10:02:04Z</time></trkpt><trkpt lat="39.4009944053277" lon="8.560987128189964"><ele>575.0</ele><time>2026-05-01T10:02:05Z</time></trkpt><trkpt lat="39.400995156464965" lon="8.56114038552461"><ele>575.0</ele><time>2026-05-01T10:02:06Z</time></trkpt><trkpt lat="39.400991409690334" lon="8.561296794506575"><ele>575.0</ele><time>2026-05-01T10:02:07Z</time></trkpt><trkpt lat="39.40098777050467" lon="8.561469573122604"><ele>575.0</ele><time>2026-05-01T10:02:08Z</time></trkpt><trkpt lat="39.40097761845645" lon="8.56161634642486"><ele>575.8</ele><time>2026-05-01T10:02:09Z</time></trkpt><trkpt lat="39.400955817348304" lon="8.561753622349528"><ele>576.6</ele><time>2026-05-01T10:02:10Z</time></trkpt><trkpt lat="39.40092985191963" lon="8.561886258550599"><ele>577.4</ele><time>2026-05-01T10:02:11Z</time></trkpt><trkpt lat="39.40092196665512" lon="8.562001864728844"><ele>578.2</ele><time>2026-05-01T10:02:12Z</time></trkpt><trkpt lat="39.40092978479249" lon="8.562114577362317"><ele>579.0</ele><time>2026-05-01T10:02:13Z</time></trkpt><trkpt lat="39.40094537459536" lon="8.562211117701652"><ele>579.2</ele><time>2026-05-01T10:02:14Z</time></trkpt><trkpt lat="39.40099255404306" lon="8.562334518690005"><ele>579.4</ele><time>2026-05-01T10:02:16Z</time></trkpt><trkpt lat="39.4010598055147" lon="8.56245221610188"><ele>579.6</ele><time>2026-05-01T10:02:18Z</time></trkpt><trkpt lat="39.40110403297894" lon="8.562539222106778"><ele>579.8</ele><time>2026-05-01T10:02:19Z</time></trkpt><trkpt lat="39.401149990392085" lon="8.562647198446745"><ele>580.0</ele><time>2026-05-01T10:02:20Z</time></trkpt><trkpt lat="39.40120088362115" lon="8.562756910333205"><ele>580.0</ele><time>2026-05-01T10:02:21Z</time></trkpt><trkpt lat="39.40125780024517" lon="8.562849951635398"><ele>580.0</ele><time>2026-05-01T10:02:22Z</time></trkpt><trkpt lat="39.40132742219666" lon="8.562913555381792"><ele>580.0</ele><time>2026-05-01T10:02:23Z</time></trkpt><trkpt lat="39.40141403741701" lon="8.562944300053806"><ele>580.0</ele><time>2026-05-01T10:02:24Z</time></trkpt><trkpt lat="39.40150165150201" lon="8.562950177624554"><ele>580.0</ele><time>2026-05-01T10:02:25Z</time></trkpt><trkpt lat="39.40158110010914" lon="8.562976100511888"><ele>580.0</ele><time>2026-05-01T10:02:26Z</time></trkpt><trkpt lat="39.401671426571625" lon="8.563001618353564"><ele>579.0</ele><time>2026-05-01T10:02:27Z</time></trkpt><trkpt lat="39.40174872411786" lon="8.56301524091888"><ele>578.0</ele><time>2026-05-01T10:02:28Z</time></trkpt><trkpt lat="39.4018271736872" lon="8.563041867251604"><ele>577.0</ele><time>2026-05-01T10:02:29Z</time></trkpt><trkpt lat="39.40191134488783" lon="8.563068115445432"><ele>576.0</ele><time>2026-05-01T10:02:30Z</time></trkpt><trkpt lat="39.401988448428774" lon="8.563095388094945"><ele>575.0</ele><time>2026-05-01T10:02:31Z</time></trkpt><trkpt lat="39.40207174040595" lon="8.56312363222386"><ele>574.0</ele><time>2026-05-01T10:02:32Z</time></trkpt><trkpt lat="39.40216197706527" lon="8.563149194887078"><ele>577.4</ele><time>2026-05-01T10:02:33Z</time></trkpt><trkpt lat="39.402255706575474" lon="8.563168267143284"><ele>580.8</ele><time>2026-05-01T10:02:34Z</time></trkpt><trkpt lat="39.40235876787467" lon="8.563166774545756"><ele>584.2</ele><time>2026-05-01T10:02:35Z</time></trkpt><trkpt lat="39.40245432846764" lon="8.563154411643085"><ele>587.6</ele><time>2026-05-01T10:02:36Z</time></trkpt><trkpt lat="39.40254448227298" lon="8.5631260215988"><ele>591.0</ele><time>2026-05-01T10:02:37Z</time></trkpt><trkpt lat="39.40263100640298" lon="8.563093195961105"><ele>591.0</ele><time>2026-05-01T10:02:37.999Z</time></trkpt><trkpt lat="39.402709050179716" lon="8.563052748013904"><ele>591.0</ele><time>2026-05-01T10:02:38.999Z</time></trkpt><trkpt lat="39.40277971130829" lon="8.562979979195704"><ele>591.0</ele><time>2026-05-01T10:02:39.999Z</time></trkpt><trkpt lat="39.402838732676706" lon="8.562874376901394"><ele>591.0</ele><time>2026-05-01T10:02:40.999Z</time></trkpt><trkpt lat="39.40288009177934" lon="8.562758506631031"><ele>591.0</ele><time>2026-05-01T10:02:41.999Z</time></trkpt><trkpt lat="39.402909011857794" lon="8.562672408070206"><ele>591.0</ele><time>2026-05-01T10:02:42.999Z</time></trkpt><trkpt lat="39.402950391587034" lon="8.562590387698842"><ele>591.6</ele><time>2026-05-01T10:02:43.999Z</time></trkpt><trkpt lat="39.40299342907064" lon="8.562497043502685"><ele>592.2</ele><time>2026-05-01T10:02:44.999Z</time></trkpt><trkpt lat="39.40303511224166" lon="8.562406979625887"><ele>592.8</ele><time>2026-05-01T10:02:45.999Z</time></trkpt><trkpt lat="39.4030993356898" lon="8.562238962732335"><ele>593.4</ele><time>2026-05-01T10:02:47.999Z</time></trkpt><trkpt lat="39.4031342563378" lon="8.562158274944816"><ele>594.0</ele><time>2026-05-01T10:02:48.999Z</time></trkpt><trkpt lat="39.40318443790581" lon="8.562006850653656"><ele>596.0</ele><time>2026-05-01T10:02:50.999Z</time></trkpt><trkpt lat="39.40320145278309" lon="8.561919065419424"><ele>598.0</ele><time>2026-05-01T10:02:51.999Z</time></trkpt><trkpt lat="39.40321639314329" lon="8.561831189260946"><ele>600.0</ele><time>2026-05-01T10:02:52.999Z</time></trkpt><trkpt lat="39.40320354236284" lon="8.561701279193404"><ele>602.0</ele><time>2026-05-01T10:02:54.999Z</time></trkpt><trkpt lat="39.4031639886457" lon="8.561633687285768"><ele>604.0</ele><time>2026-05-01T10:02:55.999Z</time></trkpt><trkpt lat="39.403112325527474" lon="8.561551025042817"><ele>606.0</ele><time>2026-05-01T10:02:56.999Z</time></trkpt><trkpt lat="39.4030557362073" lon="8.561443638517366"><ele>604.8</ele><time>2026-05-01T10:02:57.999Z</time></trkpt><trkpt lat="39.40299105523703" lon="8.561325997768177"><ele>603.6</ele><time>2026-05-01T10:02:58.999Z</time></trkpt><trkpt lat="39.40292499473657" lon="8.561233392708596"><ele>602.4</ele><time>2026-05-01T10:02:59.999Z</time></trkpt><trkpt lat="39.40287119314362" lon="8.561166456950119"><ele>601.2</ele><time>2026-05-01T10:03:00.999Z</time></trkpt><trkpt lat="39.40285350084029" lon="8.561004880252995"><ele>600.0</ele><time>2026-05-01T10:03:02.999Z</time></trkpt><trkpt lat="39.402855560146236" lon="8.560871771595576"><ele>600.0</ele><time>2026-05-01T10:03:03.999Z</time></trkpt><trkpt lat="39.40282499076097" lon="8.560735366376086"><ele>600.0</ele><time>2026-05-01T10:03:04.999Z</time></trkpt><trkpt lat="39.402764808291664" lon="8.560608681026064"><ele>600.0</ele><time>2026-05-01T10:03:05.999Z</time></trkpt><trkpt lat="39.40270074068342" lon="8.56047602271594"><ele>600.0</ele><time>2026-05-01T10:03:06.999Z</time></trkpt><trkpt lat="39.402641885307986" lon="8.560353698065466"><ele>601.4</ele><time>2026-05-01T10:03:07.999Z</time></trkpt><trkpt lat="39.402586240771974" lon="8.560255802432708"><ele>602.8</ele><time>2026-05-01T10:03:08.999Z</time></trkpt><trkpt lat="39.40252307363858" lon="8.560173454422916"><ele>604.2</ele><time>2026-05-01T10:03:09.999Z</time></trkpt><trkpt lat="39.40244414318837" lon="8.560095478169263"><ele>605.6</ele><time>2026-05-01T10:03:10.999Z</time></trkpt><trkpt lat="39.40236708919581" lon="8.56001121124681"><ele>607.0</ele><time>2026-05-01T10:03:11.999Z</time></trkpt><trkpt lat="39.40231323058552" lon="8.559937464265392"><ele>607.0</ele><time>2026-05-01T10:03:12.999Z</time></trkpt><trkpt lat="39.40226663876533" lon="8.559857510326012"><ele>607.0</ele><time>2026-05-01T10:03:13.999Z</time></trkpt><trkpt lat="39.40222070362616" lon="8.559760479397866"><ele>607.0</ele><time>2026-05-01T10:03:14.999Z</time></trkpt><trkpt lat="39.40217410279632" lon="8.559635124786324"><ele>607.0</ele><time>2026-05-01T10:03:15.999Z</time></trkpt><trkpt lat="39.402098749998565" lon="8.55953098703272"><ele>607.0</ele><time>2026-05-01T10:03:16.999Z</time></trkpt><trkpt lat="39.40202619125314" lon="8.559466274943548"><ele>604.4</ele><time>2026-05-01T10:03:17.999Z</time></trkpt><trkpt lat="39.40197872756712" lon="8.559391878203266"><ele>601.8000000000001</ele><time>2026-05-01T10:03:18.999Z</time></trkpt><trkpt lat="39.40196304926058" lon="8.559310967402354"><ele>599.2</ele><time>2026-05-01T10:03:19.999Z</time></trkpt><trkpt lat="39.401966520398" lon="8.559167833350214"><ele>596.6</ele><time>2026-05-01T10:03:21.999Z</time></trkpt><trkpt lat="39.40204059583559" lon="8.559025051588915"><ele>594.0</ele><time>2026-05-01T10:03:23.999Z</time></trkpt><trkpt lat="39.402097913238144" lon="8.558952253937253"><ele>594.0</ele><time>2026-05-01T10:03:24.999Z</time></trkpt><trkpt lat="39.40215882992403" lon="8.558877116378397"><ele>594.0</ele><time>2026-05-01T10:03:25.999Z</time></trkpt><trkpt lat="39.402226749385" lon="8.558799565058637"><ele>594.0</ele><time>2026-05-01T10:03:26.999Z</time></trkpt><trkpt lat="39.402298812637866" lon="8.558715543394547"><ele>594.0</ele><time>2026-05-01T10:03:27.999Z</time></trkpt><trkpt lat="39.40236156681752" lon="8.558636018548352"><ele>594.0</ele><time>2026-05-01T10:03:28.999Z</time></trkpt><trkpt lat="39.40241965101878" lon="8.55855243102958"><ele>594.0</ele><time>2026-05-01T10:03:29.999Z</time></trkpt><trkpt lat="39.40248526833607" lon="8.558471069872233"><ele>596.8</ele><time>2026-05-01T10:03:30.999Z</time></trkpt><trkpt lat="39.40255929286017" lon="8.55839848426698"><ele>599.5999999999999</ele><time>2026-05-01T10:03:31.999Z</time></trkpt><trkpt lat="39.40263955524501" lon="8.558335906953483"><ele>602.4</ele><time>2026-05-01T10:03:32.999Z</time></trkpt><trkpt lat="39.40271994335099" lon="8.55826862850131"><ele>605.1999999999999</ele><time>2026-05-01T10:03:33.999Z</time></trkpt><trkpt lat="39.402792737501855" lon="8.558198811165882"><ele>608.0</ele><time>2026-05-01T10:03:34.999Z</time></trkpt><trkpt lat="39.402861504796654" lon="8.55810738176009"><ele>608.0</ele><time>2026-05-01T10:03:35.999Z</time></trkpt><trkpt lat="39.4029125182445" lon="8.557986078299216"><ele>608.0</ele><time>2026-05-01T10:03:36.999Z</time></trkpt><trkpt lat="39.402951052059784" lon="8.5578587356231"><ele>608.0</ele><time>2026-05-01T10:03:37.999Z</time></trkpt><trkpt lat="39.40297886968867" lon="8.557762287199026"><ele>608.0</ele><time>2026-05-01T10:03:38.999Z</time></trkpt><trkpt lat="39.402997569525034" lon="8.557651889639159"><ele>608.0</ele><time>2026-05-01T10:03:39.999Z</time></trkpt><trkpt lat="39.40301333297147" lon="8.557549694572085"><ele>608.3333333333333</ele><time>2026-05-01T10:03:40.999Z</time></trkpt><trkpt lat="39.40301159628553" lon="8.557402264799245"><ele>608.6666666666666</ele><time>2026-05-01T10:03:42.999Z</time></trkpt><trkpt lat="39.403026184463656" lon="8.5573067458527"><ele>609.0</ele><time>2026-05-01T10:03:43.999Z</time></trkpt><trkpt lat="39.40304197980344" lon="8.55721264321841"><ele>609.3333333333334</ele><time>2026-05-01T10:03:44.999Z</time></trkpt><trkpt lat="39.40305024461318" lon="8.557115214397644"><ele>609.6666666666667</ele><time>2026-05-01T10:03:45.999Z</time></trkpt><trkpt lat="39.40305274646314" lon="8.557023240004993"><ele>610.0</ele><time>2026-05-01T10:03:46.999Z</time></trkpt><trkpt lat="39.40305475305407" lon="8.556930038790393"><ele>607.8</ele><time>2026-05-01T10:03:47.999Z</time></trkpt><trkpt lat="39.4030600765948" lon="8.5568414510011"><ele>605.6</ele><time>2026-05-01T10:03:48.999Z</time></trkpt><trkpt lat="39.40308034742773" lon="8.556692013638749"><ele>603.4</ele><time>2026-05-01T10:03:50.999Z</time></trkpt><trkpt lat="39.40310612193879" lon="8.55655694906448"><ele>601.2</ele><time>2026-05-01T10:03:52.999Z</time></trkpt><trkpt lat="39.40314652285487" lon="8.556434054960205"><ele>599.0</ele><time>2026-05-01T10:03:54.999Z</time></trkpt><trkpt lat="39.403181452239444" lon="8.556314617231967"><ele>599.0</ele><time>2026-05-01T10:03:57Z</time></trkpt><trkpt lat="39.403219131346354" lon="8.556204787875465"><ele>599.0</ele><time>2026-05-01T10:03:59Z</time></trkpt><trkpt lat="39.403251376775096" lon="8.556125228755446"><ele>599.0</ele><time>2026-05-01T10:04:02Z</time></trkpt><trkpt lat="39.403288067510836" lon="8.556046657822545"><ele>599.0</ele><time>2026-05-01T10:04:09Z</time></trkpt><trkpt lat="39.4033757865944" lon="8.555959713546553"><ele>599.0</ele><time>2026-05-01T10:04:11Z</time></trkpt><trkpt lat="39.40344625010759" lon="8.555954767728583"><ele>599.0</ele><time>2026-05-01T10:04:14Z</time></trkpt><trkpt lat="39.40349351492768" lon="8.555897473246684"><ele>598.3333333333333</ele><time>2026-05-01T10:04:18Z</time></trkpt><trkpt lat="39.403552257300845" lon="8.555840727340103"><ele>597.6666666666666</ele><time>2026-05-01T10:04:20Z</time></trkpt><trkpt lat="39.40361415956289" lon="8.55577741054076"><ele>597.0</ele><time>2026-05-01T10:04:21Z</time></trkpt><trkpt lat="39.4036827725815" lon="8.555687033009908"><ele>596.3333333333334</ele><time>2026-05-01T10:04:22Z</time></trkpt><trkpt lat="39.40374395265165" lon="8.555615117983901"><ele>595.6666666666667</ele><time>2026-05-01T10:04:23Z</time></trkpt><trkpt lat="39.40379854287439" lon="8.555528800669686"><ele>595.0</ele><time>2026-05-01T10:04:24Z</time></trkpt><trkpt lat="39.40385383811854" lon="8.555448638431585"><ele>594.8333333333334</ele><time>2026-05-01T10:04:25Z</time></trkpt><trkpt lat="39.403901436129615" lon="8.555374392986781"><ele>594.6666666666667</ele><time>2026-05-01T10:04:26Z</time></trkpt><trkpt lat="39.40394131241899" lon="8.55529998001369"><ele>594.5</ele><time>2026-05-01T10:04:27Z</time></trkpt><trkpt lat="39.40398009524831" lon="8.555189383269655"><ele>594.3333333333334</ele><time>2026-05-01T10:04:29Z</time></trkpt><trkpt lat="39.40400415974613" lon="8.55510206029939"><ele>594.1666666666666</ele><time>2026-05-01T10:05:31.999Z</time></trkpt><trkpt lat="39.40408297449228" lon="8.555040108569894"><ele>594.0</ele><time>2026-05-01T10:05:33.999Z</time></trkpt><trkpt lat="39.40412486167475" lon="8.554921887005364"><ele>594.0</ele><time>2026-05-01T10:05:35.999Z</time></trkpt><trkpt lat="39.40411717916797" lon="8.554838410149962"><ele>594.0</ele><time>2026-05-01T10:05:37.999Z</time></trkpt><trkpt lat="39.40405620274649" lon="8.55474974580777"><ele>594.0</ele><time>2026-05-01T10:07:55.999Z</time></trkpt><trkpt lat="39.404019885132804" lon="8.554675174055417"><ele>594.0</ele><time>2026-05-01T10:07:58.999Z</time></trkpt><trkpt lat="39.40395212052117" lon="8.55471839267605"><ele>594.0</ele><time>2026-05-01T10:08:00.999Z</time></trkpt><trkpt lat="39.403984100777535" lon="8.554832406415239"><ele>594.0</ele><time>2026-05-01T10:08:02.998Z</time></trkpt><trkpt lat="39.40405755019555" lon="8.554951227934195"><ele>594.0</ele><time>2026-05-01T10:08:04.998Z</time></trkpt><trkpt lat="39.40405153936526" lon="8.55509757887569"><ele>594.0</ele><time>2026-05-01T10:08:06.998Z</time></trkpt><trkpt lat="39.404126352647" lon="8.555121363806865"><ele>594.0</ele><time>2026-05-01T10:08:07.999Z</time></trkpt><trkpt lat="39.4042048883713" lon="8.555111187652537"><ele>594.0</ele><time>2026-05-01T10:08:09.999Z</time></trkpt><trkpt lat="39.40423980988229" lon="8.554990459846072"><ele>594.0</ele><time>2026-05-01T10:08:11.999Z</time></trkpt><trkpt lat="39.40423685386214" lon="8.55490477576959"><ele>594.0</ele><time>2026-05-01T10:08:12.999Z</time></trkpt><trkpt lat="39.40421544640898" lon="8.55481733407199"><ele>594.0</ele><time>2026-05-01T10:08:13.999Z</time></trkpt><trkpt lat="39.40417747699215" lon="8.554708086864002"><ele>594.0</ele><time>2026-05-01T10:08:14.999Z</time></trkpt><trkpt lat="39.404137097994834" lon="8.554582330103948"><ele>594.0</ele><time>2026-05-01T10:08:15.999Z</time></trkpt><trkpt lat="39.40411483707277" lon="8.554470281708983"><ele>594.0</ele><time>2026-05-01T10:08:16.999Z</time></trkpt><trkpt lat="39.40410720146137" lon="8.55437225003593"><ele>594.0</ele><time>2026-05-01T10:08:17.999Z</time></trkpt><trkpt lat="39.40413135384587" lon="8.554276379664262"><ele>594.0</ele><time>2026-05-01T10:08:18.999Z</time></trkpt><trkpt lat="39.40418220694561" lon="8.554181959335667"><ele>595.8</ele><time>2026-05-01T10:08:19.999Z</time></trkpt><trkpt lat="39.4042499268313" lon="8.554083859369847"><ele>597.5999999999999</ele><time>2026-05-01T10:08:20.999Z</time></trkpt><trkpt lat="39.40429782572856" lon="8.553984570166632"><ele>599.4</ele><time>2026-05-01T10:08:21.999Z</time></trkpt><trkpt lat="39.4043364741568" lon="8.553895296308454"><ele>601.1999999999999</ele><time>2026-05-01T10:08:22.999Z</time></trkpt><trkpt lat="39.40440228532485" lon="8.55381736661785"><ele>603.0</ele><time>2026-05-01T10:08:23.999Z</time></trkpt><trkpt lat="39.404492295167856" lon="8.553755891646938"><ele>599.4</ele><time>2026-05-01T10:08:24.999Z</time></trkpt><trkpt lat="39.40458224492157" lon="8.553704935119415"><ele>595.8</ele><time>2026-05-01T10:08:25.999Z</time></trkpt><trkpt lat="39.4046726471766" lon="8.553642449786292"><ele>592.2</ele><time>2026-05-01T10:08:26.999Z</time></trkpt><trkpt lat="39.40474017760119" lon="8.553565340858233"><ele>588.6</ele><time>2026-05-01T10:08:27.999Z</time></trkpt><trkpt lat="39.40480754831043" lon="8.55344744975194"><ele>585.0</ele><time>2026-05-01T10:08:28.999Z</time></trkpt><trkpt lat="39.40487453273991" lon="8.55332958122642"><ele>585.0</ele><time>2026-05-01T10:08:29.999Z</time></trkpt><trkpt lat="39.40494633120509" lon="8.553231737479006"><ele>585.0</ele><time>2026-05-01T10:08:30.999Z</time></trkpt><trkpt lat="39.40502794891965" lon="8.553132089431061"><ele>585.0</ele><time>2026-05-01T10:08:31.999Z</time></trkpt><trkpt lat="39.40513589143421" lon="8.553045670387588"><ele>585.0</ele><time>2026-05-01T10:08:32.999Z</time></trkpt><trkpt lat="39.4052309895644" lon="8.552969848619982"><ele>585.0</ele><time>2026-05-01T10:08:33.999Z</time></trkpt><trkpt lat="39.40532751993263" lon="8.552907627797373"><ele>585.0</ele><time>2026-05-01T10:08:34.999Z</time></trkpt><trkpt lat="39.40540795410196" lon="8.552846883906138"><ele>585.0</ele><time>2026-05-01T10:08:35.999Z</time></trkpt><trkpt lat="39.4054802219476" lon="8.552759942119966"><ele>585.0</ele><time>2026-05-01T10:08:36.999Z</time></trkpt><trkpt lat="39.405545086243144" lon="8.5526782298146"><ele>585.0</ele><time>2026-05-01T10:08:37.999Z</time></trkpt><trkpt lat="39.40562651695166" lon="8.552598607718673"><ele>582.2</ele><time>2026-05-01T10:08:38.999Z</time></trkpt><trkpt lat="39.405700611227346" lon="8.552524442589622"><ele>579.4</ele><time>2026-05-01T10:08:39.999Z</time></trkpt><trkpt lat="39.40577679716908" lon="8.552449592376336"><ele>576.6</ele><time>2026-05-01T10:08:40.999Z</time></trkpt><trkpt lat="39.405845161102874" lon="8.552370219038673"><ele>573.8</ele><time>2026-05-01T10:08:41.999Z</time></trkpt><trkpt lat="39.405919489189706" lon="8.552268497532562"><ele>571.0</ele><time>2026-05-01T10:08:42.999Z</time></trkpt><trkpt lat="39.405995964574004" lon="8.552156454670511"><ele>571.0</ele><time>2026-05-01T10:08:43.999Z</time></trkpt><trkpt lat="39.406052875411994" lon="8.55205423380483"><ele>571.0</ele><time>2026-05-01T10:08:44.999Z</time></trkpt><trkpt lat="39.406109825740145" lon="8.551962847072677"><ele>571.0</ele><time>2026-05-01T10:08:45.999Z</time></trkpt><trkpt lat="39.40617702387906" lon="8.551882223472996"><ele>571.0</ele><time>2026-05-01T10:08:46.999Z</time></trkpt><trkpt lat="39.40626208798415" lon="8.551820085689927"><ele>571.0</ele><time>2026-05-01T10:08:47.999Z</time></trkpt><trkpt lat="39.40635027558452" lon="8.551757635385608"><ele>567.0</ele><time>2026-05-01T10:08:48.999Z</time></trkpt><trkpt lat="39.40642762090033" lon="8.55168648904385"><ele>563.0</ele><time>2026-05-01T10:08:49.999Z</time></trkpt><trkpt lat="39.40650766269866" lon="8.551620324930848"><ele>559.0</ele><time>2026-05-01T10:08:50.999Z</time></trkpt><trkpt lat="39.406578699713215" lon="8.551564063437787"><ele>555.0</ele><time>2026-05-01T10:08:51.999Z</time></trkpt><trkpt lat="39.406634795153835" lon="8.55151678431848"><ele>551.0</ele><time>2026-05-01T10:08:52.999Z</time></trkpt><trkpt lat="39.40670028463821" lon="8.551442923768418"><ele>547.0</ele><time>2026-05-01T10:08:54.999Z</time></trkpt><trkpt lat="39.406652309649814" lon="8.551386594537862"><ele>547.0</ele><time>2026-05-01T10:08:58.999Z</time></trkpt><trkpt lat="39.40664289710119" lon="8.551473190999285"><ele>547.0</ele><time>2026-05-01T10:09:01.999Z</time></trkpt><trkpt lat="39.40660647884409" lon="8.551588970766568"><ele>547.0</ele><time>2026-05-01T10:09:03.999Z</time></trkpt><trkpt lat="39.40658259216173" lon="8.551710445316445"><ele>547.0</ele><time>2026-05-01T10:09:04.999Z</time></trkpt><trkpt lat="39.406514419018" lon="8.551818778648363"><ele>547.0</ele><time>2026-05-01T10:09:05.999Z</time></trkpt><trkpt lat="39.40642991513172" lon="8.551937643450659"><ele>547.0</ele><time>2026-05-01T10:09:06.999Z</time></trkpt><trkpt lat="39.406372762731614" lon="8.552035384242176"><ele>547.0</ele><time>2026-05-01T10:09:07.999Z</time></trkpt><trkpt lat="39.40631877434535" lon="8.552134886691759"><ele>547.0</ele><time>2026-05-01T10:09:08.999Z</time></trkpt><trkpt lat="39.40627061991348" lon="8.552237595462833"><ele>547.0</ele><time>2026-05-01T10:09:09.999Z</time></trkpt><trkpt lat="39.406234715674955" lon="8.552342204957943"><ele>547.0</ele><time>2026-05-01T10:09:10.999Z</time></trkpt><trkpt lat="39.40621423064045" lon="8.552438835504447"><ele>547.0</ele><time>2026-05-01T10:09:11.999Z</time></trkpt><trkpt lat="39.4061891046352" lon="8.552536159788307"><ele>543.8333333333334</ele><time>2026-05-01T10:09:12.999Z</time></trkpt><trkpt lat="39.40619298276788" lon="8.552644068159818"><ele>540.6666666666667</ele><time>2026-05-01T10:09:14.999Z</time></trkpt><trkpt lat="39.40625874175485" lon="8.552639846042117"><ele>537.5</ele><time>2026-05-01T10:09:15.999Z</time></trkpt><trkpt lat="39.40632270245884" lon="8.55260575502374"><ele>534.3333333333334</ele><time>2026-05-01T10:09:16.999Z</time></trkpt><trkpt lat="39.40637552046247" lon="8.552465154216014"><ele>531.1666666666666</ele><time>2026-05-01T10:09:18.999Z</time></trkpt><trkpt lat="39.40641406484694" lon="8.552371115656197"><ele>528.0</ele><time>2026-05-01T10:09:19.999Z</time></trkpt><trkpt lat="39.40647123421392" lon="8.552286105502521"><ele>528.0</ele><time>2026-05-01T10:09:20.999Z</time></trkpt><trkpt lat="39.406539057998515" lon="8.55222425112411"><ele>528.0</ele><time>2026-05-01T10:09:21.999Z</time></trkpt><trkpt lat="39.40662186637771" lon="8.552176516862502"><ele>528.0</ele><time>2026-05-01T10:09:22.999Z</time></trkpt><trkpt lat="39.40669510106105" lon="8.552120746429036"><ele>528.0</ele><time>2026-05-01T10:09:23.999Z</time></trkpt><trkpt lat="39.40674335718633" lon="8.552025914494376"><ele>528.0</ele><time>2026-05-01T10:09:24.999Z</time></trkpt><trkpt lat="39.406806286077995" lon="8.551940801163932"><ele>528.0</ele><time>2026-05-01T10:09:25.999Z</time></trkpt><trkpt lat="39.406870275063305" lon="8.551854064123493"><ele>531.1666666666666</ele><time>2026-05-01T10:09:26.999Z</time></trkpt><trkpt lat="39.40693010319638" lon="8.551772270999898"><ele>534.3333333333334</ele><time>2026-05-01T10:09:27.999Z</time></trkpt><trkpt lat="39.406992701568065" lon="8.551696361016205"><ele>537.5</ele><time>2026-05-01T10:09:28.999Z</time></trkpt><trkpt lat="39.40705232050979" lon="8.551617087726322"><ele>540.6666666666667</ele><time>2026-05-01T10:09:29.999Z</time></trkpt><trkpt lat="39.40711231401627" lon="8.551526562915893"><ele>543.8333333333334</ele><time>2026-05-01T10:09:30.999Z</time></trkpt><trkpt lat="39.4071711697332" lon="8.551436750240338"><ele>547.0</ele><time>2026-05-01T10:09:31.999Z</time></trkpt><trkpt lat="39.4072290745969" lon="8.55134722653035"><ele>540.8000000000001</ele><time>2026-05-01T10:09:32.999Z</time></trkpt><trkpt lat="39.40728108117379" lon="8.551254064530045"><ele>534.6</ele><time>2026-05-01T10:09:33.999Z</time></trkpt><trkpt lat="39.407334010593075" lon="8.551150354312774"><ele>528.4000000000001</ele><time>2026-05-01T10:09:34.999Z</time></trkpt><trkpt lat="39.407387436046754" lon="8.551052153110549"><ele>522.2</ele><time>2026-05-01T10:09:35.999Z</time></trkpt><trkpt lat="39.407446537227074" lon="8.550952704126836"><ele>516.0</ele><time>2026-05-01T10:09:36.999Z</time></trkpt><trkpt lat="39.40750270194112" lon="8.55085741442205"><ele>516.0</ele><time>2026-05-01T10:09:37.999Z</time></trkpt><trkpt lat="39.40756765782837" lon="8.550773424723895"><ele>516.0</ele><time>2026-05-01T10:09:38.999Z</time></trkpt><trkpt lat="39.40764590385254" lon="8.550704454920046"><ele>516.0</ele><time>2026-05-01T10:09:39.998Z</time></trkpt><trkpt lat="39.40771924504215" lon="8.550614473061602"><ele>516.0</ele><time>2026-05-01T10:09:40.998Z</time></trkpt><trkpt lat="39.40777433978301" lon="8.550505305797449"><ele>516.0</ele><time>2026-05-01T10:09:41.998Z</time></trkpt><trkpt lat="39.40781940379696" lon="8.550381915992533"><ele>518.4</ele><time>2026-05-01T10:09:42.998Z</time></trkpt><trkpt lat="39.40786642990905" lon="8.550264518100242"><ele>520.8</ele><time>2026-05-01T10:09:43.998Z</time></trkpt><trkpt lat="39.40790642985463" lon="8.550151124409526"><ele>523.1999999999999</ele><time>2026-05-01T10:09:44.998Z</time></trkpt><trkpt lat="39.407960561988574" lon="8.550045865628363"><ele>525.6</ele><time>2026-05-01T10:09:45.998Z</time></trkpt><trkpt lat="39.40802006417516" lon="8.54994219501198"><ele>528.0</ele><time>2026-05-01T10:09:46.998Z</time></trkpt><trkpt lat="39.40805443651562" lon="8.549828438216856"><ele>520.8</ele><time>2026-05-01T10:09:47.998Z</time></trkpt><trkpt lat="39.408086952616785" lon="8.549709824622942"><ele>513.5999999999999</ele><time>2026-05-01T10:09:48.998Z</time></trkpt><trkpt lat="39.40812075754359" lon="8.549602239272112"><ele>506.40000000000003</ele><time>2026-05-01T10:09:49.998Z</time></trkpt><trkpt lat="39.408166008178675" lon="8.549499228594179"><ele>499.20000000000005</ele><time>2026-05-01T10:09:50.998Z</time></trkpt><trkpt lat="39.40821590299162" lon="8.549401752425187"><ele>492.0</ele><time>2026-05-01T10:09:51.998Z</time></trkpt><trkpt lat="39.40828569547805" lon="8.54933516711525"><ele>492.0</ele><time>2026-05-01T10:09:52.998Z</time></trkpt><trkpt lat="39.408388063176346" lon="8.549318661902637"><ele>492.0</ele><time>2026-05-01T10:09:53.998Z</time></trkpt><trkpt lat="39.40848612158724" lon="8.549326509244652"><ele>492.0</ele><time>2026-05-01T10:09:54.998Z</time></trkpt><trkpt lat="39.40856393057102" lon="8.549320215261465"><ele>492.0</ele><time>2026-05-01T10:09:55.998Z</time></trkpt><trkpt lat="39.40862246730111" lon="8.549256504716697"><ele>492.0</ele><time>2026-05-01T10:09:56.998Z</time></trkpt><trkpt lat="39.408655737728076" lon="8.549160220821719"><ele>492.0</ele><time>2026-05-01T10:09:57.998Z</time></trkpt><trkpt lat="39.408670604750725" lon="8.549052000252686"><ele>492.0</ele><time>2026-05-01T10:09:58.998Z</time></trkpt><trkpt lat="39.40866438062801" lon="8.548936362637605"><ele>492.0</ele><time>2026-05-01T10:09:59.998Z</time></trkpt><trkpt lat="39.40866704009193" lon="8.548831158711266"><ele>492.0</ele><time>2026-05-01T10:10:00.998Z</time></trkpt><trkpt lat="39.40868200475376" lon="8.548723607447515"><ele>492.0</ele><time>2026-05-01T10:10:01.998Z</time></trkpt><trkpt lat="39.40870881807783" lon="8.548616496552231"><ele>492.0</ele><time>2026-05-01T10:10:02.998Z</time></trkpt><trkpt lat="39.40875307722423" lon="8.548529323815583"><ele>492.0</ele><time>2026-05-01T10:10:03.998Z</time></trkpt><trkpt lat="39.40880786785814" lon="8.548399186449272"><ele>492.00000000000006</ele><time>2026-05-01T10:10:05.998Z</time></trkpt><trkpt lat="39.40879510879862" lon="8.548260626686334"><ele>492.0</ele><time>2026-05-01T10:10:07.998Z</time></trkpt><trkpt lat="39.40879551692823" lon="8.548177313026407"><ele>492.00000000000006</ele><time>2026-05-01T10:10:08.998Z</time></trkpt><trkpt lat="39.40879262381867" lon="8.548092031912436"><ele>492.00000000000006</ele><time>2026-05-01T10:10:09.998Z</time></trkpt><trkpt lat="39.40878657931465" lon="8.548000546873446"><ele>492.0</ele><time>2026-05-01T10:10:10.998Z</time></trkpt><trkpt lat="39.40878612076712" lon="8.547918028521647"><ele>492.00000000000006</ele><time>2026-05-01T10:10:11.998Z</time></trkpt><trkpt lat="39.40879025643832" lon="8.547829193932474"><ele>492.00000000000006</ele><time>2026-05-01T10:10:12.998Z</time></trkpt><trkpt lat="39.40879950347036" lon="8.547731209967564"><ele>492.0</ele><time>2026-05-01T10:10:13.999Z</time></trkpt><trkpt lat="39.40881828092229" lon="8.547633262584483"><ele>492.0</ele><time>2026-05-01T10:10:14.999Z</time></trkpt><trkpt lat="39.408839474299455" lon="8.547533397354531"><ele>492.0</ele><time>2026-05-01T10:10:15.999Z</time></trkpt><trkpt lat="39.40886314755486" lon="8.547454092632904"><ele>492.0</ele><time>2026-05-01T10:10:16.999Z</time></trkpt><trkpt lat="39.40889208905617" lon="8.5473808620881"><ele>492.0</ele><time>2026-05-01T10:10:17.999Z</time></trkpt><trkpt lat="39.408923650126226" lon="8.547292958327288"><ele>492.0</ele><time>2026-05-01T10:10:18.999Z</time></trkpt><trkpt lat="39.40897213786942" lon="8.547189705660324"><ele>484.6666666666667</ele><time>2026-05-01T10:10:19.999Z</time></trkpt><trkpt lat="39.40901840185071" lon="8.547109674696296"><ele>477.33333333333337</ele><time>2026-05-01T10:10:20.999Z</time></trkpt><trkpt lat="39.40906936099487" lon="8.547017052741516"><ele>470.0</ele><time>2026-05-01T10:10:21.999Z</time></trkpt><trkpt lat="39.409128996787615" lon="8.54693053675992"><ele>462.6666666666667</ele><time>2026-05-01T10:10:22.999Z</time></trkpt><trkpt lat="39.409195425141114" lon="8.546849190669867"><ele>455.33333333333337</ele><time>2026-05-01T10:10:23.999Z</time></trkpt><trkpt lat="39.409245176520734" lon="8.546756305358912"><ele>448.0</ele><time>2026-05-01T10:10:24.999Z</time></trkpt><trkpt lat="39.4092868106488" lon="8.546664806962884"><ele>448.00000000000006</ele><time>2026-05-01T10:10:25.999Z</time></trkpt><trkpt lat="39.409314731357085" lon="8.546561875116833"><ele>448.0</ele><time>2026-05-01T10:10:27Z</time></trkpt><trkpt lat="39.40932373506594" lon="8.54644472816226"><ele>448.0</ele><time>2026-05-01T10:10:28Z</time></trkpt><trkpt lat="39.40929773032705" lon="8.546330473930086"><ele>448.0</ele><time>2026-05-01T10:10:29Z</time></trkpt><trkpt lat="39.40926904522331" lon="8.546240294538887"><ele>448.00000000000006</ele><time>2026-05-01T10:10:30Z</time></trkpt><trkpt lat="39.40925409967441" lon="8.54614808589741"><ele>448.0</ele><time>2026-05-01T10:10:31Z</time></trkpt><trkpt lat="39.40927777331859" lon="8.546054281949337"><ele>449.1666666666667</ele><time>2026-05-01T10:10:32Z</time></trkpt><trkpt lat="39.409325964083756" lon="8.54598297641523"><ele>450.33333333333337</ele><time>2026-05-01T10:10:33Z</time></trkpt><trkpt lat="39.40938553518552" lon="8.545900825373169"><ele>451.5</ele><time>2026-05-01T10:10:34Z</time></trkpt><trkpt lat="39.40945888428622" lon="8.545814018293939"><ele>452.66666666666663</ele><time>2026-05-01T10:10:35Z</time></trkpt><trkpt lat="39.40952025233554" lon="8.545735585718278"><ele>453.8333333333333</ele><time>2026-05-01T10:10:35.999Z</time></trkpt><trkpt lat="39.40957518861392" lon="8.545672704882053"><ele>455.0</ele><time>2026-05-01T10:10:36.999Z</time></trkpt><trkpt lat="39.40964423588153" lon="8.545593951070718"><ele>448.66666666666663</ele><time>2026-05-01T10:10:37.999Z</time></trkpt><trkpt lat="39.40968879561696" lon="8.54550482725103"><ele>442.3333333333333</ele><time>2026-05-01T10:10:38.999Z</time></trkpt><trkpt lat="39.40971886301251" lon="8.545401564520906"><ele>436.0</ele><time>2026-05-01T10:10:39.999Z</time></trkpt><trkpt lat="39.40971245012444" lon="8.54529796794229"><ele>429.66666666666663</ele><time>2026-05-01T10:10:40.999Z</time></trkpt><trkpt lat="39.40969809668483" lon="8.54519286963534"><ele>423.3333333333333</ele><time>2026-05-01T10:10:41.999Z</time></trkpt><trkpt lat="39.40971910242769" lon="8.545090337325762"><ele>417.0</ele><time>2026-05-01T10:10:42.999Z</time></trkpt><trkpt lat="39.409766182811055" lon="8.544988568135297"><ele>417.0</ele><time>2026-05-01T10:10:43.999Z</time></trkpt><trkpt lat="39.40982131779259" lon="8.54490672581597"><ele>417.0</ele><time>2026-05-01T10:10:44.999Z</time></trkpt><trkpt lat="39.409887439824914" lon="8.544865872293412"><ele>417.0</ele><time>2026-05-01T10:10:45.999Z</time></trkpt><trkpt lat="39.409968492245454" lon="8.544830393321774"><ele>417.0</ele><time>2026-05-01T10:10:46.999Z</time></trkpt><trkpt lat="39.4100360183072" lon="8.54477613058565"><ele>417.0</ele><time>2026-05-01T10:10:47.999Z</time></trkpt><trkpt lat="39.41007409047941" lon="8.544674343548033"><ele>417.0</ele><time>2026-05-01T10:10:48.999Z</time></trkpt><trkpt lat="39.410104254955414" lon="8.544567013269395"><ele>419.1666666666667</ele><time>2026-05-01T10:10:49.999Z</time></trkpt><trkpt lat="39.41010877500577" lon="8.544462154187844"><ele>421.33333333333337</ele><time>2026-05-01T10:10:50.999Z</time></trkpt><trkpt lat="39.410114322381446" lon="8.54437544050201"><ele>423.5</ele><time>2026-05-01T10:10:51.999Z</time></trkpt><trkpt lat="39.41011798350318" lon="8.544265885404458"><ele>425.6666666666667</ele><time>2026-05-01T10:10:52.999Z</time></trkpt><trkpt lat="39.41011365944385" lon="8.54414954456884"><ele>427.83333333333337</ele><time>2026-05-01T10:10:53.999Z</time></trkpt><trkpt lat="39.41011210221006" lon="8.544033464232852"><ele>430.0</ele><time>2026-05-01T10:10:54.999Z</time></trkpt><trkpt lat="39.41012523591714" lon="8.543907943191419"><ele>430.00000000000006</ele><time>2026-05-01T10:10:55.999Z</time></trkpt><trkpt lat="39.41015457604772" lon="8.543804960543548"><ele>430.0</ele><time>2026-05-01T10:10:56.999Z</time></trkpt><trkpt lat="39.410198887156646" lon="8.543712173854592"><ele>430.0</ele><time>2026-05-01T10:10:57.999Z</time></trkpt><trkpt lat="39.41027737985409" lon="8.543645187131435"><ele>430.0</ele><time>2026-05-01T10:10:58.999Z</time></trkpt><trkpt lat="39.41034326134681" lon="8.543618617388693"><ele>430.00000000000006</ele><time>2026-05-01T10:10:59.999Z</time></trkpt><trkpt lat="39.41042618900192" lon="8.543603684128042"><ele>430.0</ele><time>2026-05-01T10:11:00.999Z</time></trkpt><trkpt lat="39.41051807188437" lon="8.54357579005397"><ele>427.33333333333337</ele><time>2026-05-01T10:11:01.999Z</time></trkpt><trkpt lat="39.410572591328524" lon="8.54350916953413"><ele>424.6666666666667</ele><time>2026-05-01T10:11:02.999Z</time></trkpt><trkpt lat="39.410597835088105" lon="8.54341608798656"><ele>422.0</ele><time>2026-05-01T10:11:03.999Z</time></trkpt><trkpt lat="39.41060215856889" lon="8.5433110710058"><ele>419.33333333333337</ele><time>2026-05-01T10:11:04.999Z</time></trkpt><trkpt lat="39.41060861903651" lon="8.543184006877206"><ele>416.6666666666667</ele><time>2026-05-01T10:11:05.999Z</time></trkpt><trkpt lat="39.410643913568656" lon="8.54307022303852"><ele>414.0</ele><time>2026-05-01T10:11:06.999Z</time></trkpt><trkpt lat="39.410685730368016" lon="8.542991285336024"><ele>413.6</ele><time>2026-05-01T10:11:07.999Z</time></trkpt><trkpt lat="39.410700413267584" lon="8.542855052218338"><ele>413.2</ele><time>2026-05-01T10:11:09.999Z</time></trkpt><trkpt lat="39.410600096733695" lon="8.54277793871553"><ele>412.8</ele><time>2026-05-01T10:11:11.999Z</time></trkpt><trkpt lat="39.41052892673227" lon="8.542786996793316"><ele>412.40000000000003</ele><time>2026-05-01T10:11:12.999Z</time></trkpt><trkpt lat="39.410444376647774" lon="8.542828920151367"><ele>412.0</ele><time>2026-05-01T10:11:13.999Z</time></trkpt><trkpt lat="39.41035974847218" lon="8.542884973101872"><ele>418.5</ele><time>2026-05-01T10:11:14.999Z</time></trkpt><trkpt lat="39.410275966890424" lon="8.5429457260943"><ele>425.0</ele><time>2026-05-01T10:11:15.999Z</time></trkpt><trkpt lat="39.410178021301775" lon="8.542991202417706"><ele>431.5</ele><time>2026-05-01T10:11:16.999Z</time></trkpt><trkpt lat="39.41005601439014" lon="8.543042710923851"><ele>438.0</ele><time>2026-05-01T10:11:17.999Z</time></trkpt><trkpt lat="39.409935759713065" lon="8.543099534513768"><ele>438.0</ele><time>2026-05-01T10:11:18.999Z</time></trkpt><trkpt lat="39.409845432012" lon="8.543153110902825"><ele>438.0</ele><time>2026-05-01T10:11:19.999Z</time></trkpt><trkpt lat="39.409759793753075" lon="8.543193652721087"><ele>438.0</ele><time>2026-05-01T10:11:20.999Z</time></trkpt><trkpt lat="39.409677589457694" lon="8.543200743156943"><ele>438.0</ele><time>2026-05-01T10:11:21.999Z</time></trkpt><trkpt lat="39.409597909586815" lon="8.543185695691466"><ele>438.0</ele><time>2026-05-01T10:11:22.999Z</time></trkpt><trkpt lat="39.409508923200384" lon="8.543193848366403"><ele>438.0</ele><time>2026-05-01T10:11:23.999Z</time></trkpt><trkpt lat="39.409410585770864" lon="8.543248546794532"><ele>441.0</ele><time>2026-05-01T10:11:24.999Z</time></trkpt><trkpt lat="39.40931425867863" lon="8.54329204899119"><ele>443.99999999999994</ele><time>2026-05-01T10:11:25.999Z</time></trkpt><trkpt lat="39.40921701553254" lon="8.543312891376528"><ele>446.99999999999994</ele><time>2026-05-01T10:11:26.999Z</time></trkpt><trkpt lat="39.40911461175441" lon="8.54331359875116"><ele>450.0</ele><time>2026-05-01T10:11:27.999Z</time></trkpt><trkpt lat="39.40901889211089" lon="8.543344919239944"><ele>453.0</ele><time>2026-05-01T10:11:28.999Z</time></trkpt><trkpt lat="39.40895373499756" lon="8.543363486749248"><ele>453.0</ele><time>2026-05-01T10:11:29.999Z</time></trkpt><trkpt lat="39.40886574818566" lon="8.543278386468254"><ele>452.99999999999994</ele><time>2026-05-01T10:11:31.999Z</time></trkpt><trkpt lat="39.408865537067214" lon="8.543186216161137"><ele>452.99999999999994</ele><time>2026-05-01T10:11:32.999Z</time></trkpt><trkpt lat="39.4088570335926" lon="8.543054022940773"><ele>453.0</ele><time>2026-05-01T10:11:33.999Z</time></trkpt><trkpt lat="39.40884866211314" lon="8.542912691338293"><ele>453.0</ele><time>2026-05-01T10:11:34.999Z</time></trkpt><trkpt lat="39.4088114985863" lon="8.542774033614608"><ele>453.0</ele><time>2026-05-01T10:11:35.999Z</time></trkpt><trkpt lat="39.40875190411633" lon="8.542617609242559"><ele>452.99999999999994</ele><time>2026-05-01T10:11:36.999Z</time></trkpt><trkpt lat="39.40869261168852" lon="8.54246541435566"><ele>452.99999999999994</ele><time>2026-05-01T10:11:37.999Z</time></trkpt><trkpt lat="39.40864390512579" lon="8.542369145983042"><ele>453.0</ele><time>2026-05-01T10:11:38.999Z</time></trkpt><trkpt lat="39.40856218756913" lon="8.542326809060631"><ele>453.0</ele><time>2026-05-01T10:11:39.999Z</time></trkpt><trkpt lat="39.40847470153179" lon="8.542314436728857"><ele>453.0</ele><time>2026-05-01T10:11:40.999Z</time></trkpt><trkpt lat="39.408389143738205" lon="8.542339032189723"><ele>452.99999999999994</ele><time>2026-05-01T10:11:41.999Z</time></trkpt><trkpt lat="39.40830699078848" lon="8.542404604081785"><ele>452.99999999999994</ele><time>2026-05-01T10:11:42.999Z</time></trkpt><trkpt lat="39.408245891037005" lon="8.54250105197282"><ele>453.0</ele><time>2026-05-01T10:11:43.999Z</time></trkpt><trkpt lat="39.40819820514693" lon="8.542633273985514"><ele>453.0</ele><time>2026-05-01T10:11:44.999Z</time></trkpt><trkpt lat="39.4081371297889" lon="8.54273547859971"><ele>453.0</ele><time>2026-05-01T10:11:45.999Z</time></trkpt><trkpt lat="39.408071380314425" lon="8.542815978119634"><ele>453.0</ele><time>2026-05-01T10:11:46.999Z</time></trkpt><trkpt lat="39.40801273380143" lon="8.542902602159892"><ele>453.0</ele><time>2026-05-01T10:11:47.999Z</time></trkpt><trkpt lat="39.407934498190336" lon="8.542940717402024"><ele>453.0</ele><time>2026-05-01T10:11:48.999Z</time></trkpt><trkpt lat="39.40785073114873" lon="8.542942674848662"><ele>453.0</ele><time>2026-05-01T10:11:49.999Z</time></trkpt><trkpt lat="39.40776660849352" lon="8.542923281105455"><ele>453.0</ele><time>2026-05-01T10:11:50.999Z</time></trkpt><trkpt lat="39.40768696352618" lon="8.542939262762436"><ele>452.6666666666667</ele><time>2026-05-01T10:11:51.999Z</time></trkpt><trkpt lat="39.407611137965894" lon="8.542998211457574"><ele>452.33333333333337</ele><time>2026-05-01T10:11:52.999Z</time></trkpt><trkpt lat="39.4075529085486" lon="8.543059452511141"><ele>452.0</ele><time>2026-05-01T10:11:53.999Z</time></trkpt><trkpt lat="39.407487153023666" lon="8.543085020848578"><ele>451.6666666666667</ele><time>2026-05-01T10:11:54.999Z</time></trkpt><trkpt lat="39.407404239821815" lon="8.54307907241684"><ele>451.33333333333337</ele><time>2026-05-01T10:11:55.999Z</time></trkpt><trkpt lat="39.40731007162332" lon="8.543066038332519"><ele>451.0</ele><time>2026-05-01T10:11:56.999Z</time></trkpt><trkpt lat="39.40721665862169" lon="8.543062033836167"><ele>449.0</ele><time>2026-05-01T10:11:57.999Z</time></trkpt><trkpt lat="39.40712269107817" lon="8.54308770476017"><ele>447.0</ele><time>2026-05-01T10:11:58.999Z</time></trkpt><trkpt lat="39.407035504583746" lon="8.543120029112844"><ele>445.0</ele><time>2026-05-01T10:11:59.999Z</time></trkpt><trkpt lat="39.40694894670785" lon="8.54318097935975"><ele>443.0</ele><time>2026-05-01T10:12:00.999Z</time></trkpt><trkpt lat="39.40688546968094" lon="8.543250359930973"><ele>441.0</ele><time>2026-05-01T10:12:01.999Z</time></trkpt><trkpt lat="39.40682286218472" lon="8.54333084600811"><ele>441.0</ele><time>2026-05-01T10:12:02.999Z</time></trkpt><trkpt lat="39.40675293435408" lon="8.543350557845738"><ele>441.0</ele><time>2026-05-01T10:12:04.999Z</time></trkpt><trkpt lat="39.406731926392524" lon="8.543272980998417"><ele>441.0</ele><time>2026-05-01T10:12:05.999Z</time></trkpt><trkpt lat="39.406730300881044" lon="8.543177104500682"><ele>441.0</ele><time>2026-05-01T10:12:06.999Z</time></trkpt><trkpt lat="39.4067389324972" lon="8.543092571605722"><ele>441.0</ele><time>2026-05-01T10:12:07.999Z</time></trkpt><trkpt lat="39.40674589835899" lon="8.54299764883563"><ele>441.0</ele><time>2026-05-01T10:12:09.999Z</time></trkpt><trkpt lat="39.406805727348704" lon="8.542915436935262"><ele>441.0</ele><time>2026-05-01T10:12:10.999Z</time></trkpt><trkpt lat="39.40683538533359" lon="8.54284077166758"><ele>439.0</ele><time>2026-05-01T10:12:11.999Z</time></trkpt><trkpt lat="39.40689139747206" lon="8.542737635055264"><ele>437.0</ele><time>2026-05-01T10:12:13.999Z</time></trkpt><trkpt lat="39.40692817619642" lon="8.542668960731636"><ele>435.0</ele><time>2026-05-01T10:12:14.999Z</time></trkpt><trkpt lat="39.4069145985373" lon="8.54257011678122"><ele>433.0</ele><time>2026-05-01T10:12:15.999Z</time></trkpt><trkpt lat="39.40683088283994" lon="8.542448918244077"><ele>431.0</ele><time>2026-05-01T10:12:17.999Z</time></trkpt><trkpt lat="39.406762829754584" lon="8.54237189994108"><ele>431.0</ele><time>2026-05-01T10:12:18.999Z</time></trkpt><trkpt lat="39.406755911541055" lon="8.542231273405726"><ele>431.0</ele><time>2026-05-01T10:12:21Z</time></trkpt><trkpt lat="39.406802996066276" lon="8.542143583261197"><ele>431.0</ele><time>2026-05-01T10:12:22Z</time></trkpt><trkpt lat="39.40685574672297" lon="8.542059377694319"><ele>431.0</ele><time>2026-05-01T10:12:23Z</time></trkpt><trkpt lat="39.40689392708821" lon="8.541957598641734"><ele>431.0</ele><time>2026-05-01T10:12:24Z</time></trkpt><trkpt lat="39.40692476928976" lon="8.541845655639348"><ele>431.20000000000005</ele><time>2026-05-01T10:12:25Z</time></trkpt><trkpt lat="39.40694316021135" lon="8.541750417308537"><ele>431.40000000000003</ele><time>2026-05-01T10:12:26Z</time></trkpt><trkpt lat="39.40696132397226" lon="8.541638002117894"><ele>431.6</ele><time>2026-05-01T10:12:27Z</time></trkpt><trkpt lat="39.406995341207036" lon="8.541525045715717"><ele>431.8</ele><time>2026-05-01T10:12:28Z</time></trkpt><trkpt lat="39.407017884403395" lon="8.541407377784928"><ele>432.0</ele><time>2026-05-01T10:12:29Z</time></trkpt><trkpt lat="39.40701462185892" lon="8.54126565041906"><ele>429.6</ele><time>2026-05-01T10:12:30Z</time></trkpt><trkpt lat="39.40699732253921" lon="8.541141453160133"><ele>427.20000000000005</ele><time>2026-05-01T10:12:31Z</time></trkpt><trkpt lat="39.40699651426388" lon="8.541029552443243"><ele>424.8</ele><time>2026-05-01T10:12:32Z</time></trkpt><trkpt lat="39.406982096896" lon="8.5409209424826"><ele>422.4</ele><time>2026-05-01T10:12:33Z</time></trkpt><trkpt lat="39.40694037304039" lon="8.540823689787079"><ele>420.0</ele><time>2026-05-01T10:12:34Z</time></trkpt><trkpt lat="39.40686672799706" lon="8.540743894365214"><ele>420.0</ele><time>2026-05-01T10:12:35Z</time></trkpt><trkpt lat="39.40679640176858" lon="8.540654590329254"><ele>420.0</ele><time>2026-05-01T10:12:36Z</time></trkpt><trkpt lat="39.40672943900788" lon="8.540548940048533"><ele>420.0</ele><time>2026-05-01T10:12:37Z</time></trkpt><trkpt lat="39.4066987022592" lon="8.54045313998378"><ele>420.0</ele><time>2026-05-01T10:12:38Z</time></trkpt><trkpt lat="39.40668406654863" lon="8.540369191850488"><ele>420.0</ele><time>2026-05-01T10:12:39Z</time></trkpt><trkpt lat="39.406671117524304" lon="8.540197436311576"><ele>416.8333333333333</ele><time>2026-05-01T10:12:41Z</time></trkpt><trkpt lat="39.40666479409807" lon="8.540107924361024"><ele>413.66666666666663</ele><time>2026-05-01T10:12:42Z</time></trkpt><trkpt lat="39.406668315452386" lon="8.5400148146507"><ele>410.5</ele><time>2026-05-01T10:12:43Z</time></trkpt><trkpt lat="39.40666840623841" lon="8.539926121550877"><ele>407.3333333333333</ele><time>2026-05-01T10:12:44Z</time></trkpt><trkpt lat="39.40665092828604" lon="8.539841664995137"><ele>404.16666666666663</ele><time>2026-05-01T10:12:45Z</time></trkpt><trkpt lat="39.40659658556372" lon="8.53969838204329"><ele>401.0</ele><time>2026-05-01T10:12:47Z</time></trkpt><trkpt lat="39.4065941244782" lon="8.53953358212057"><ele>400.99999999999994</ele><time>2026-05-01T10:12:49Z</time></trkpt><trkpt lat="39.406544667361864" lon="8.539469512131154"><ele>401.0</ele><time>2026-05-01T10:12:52Z</time></trkpt><trkpt lat="39.406520355932166" lon="8.539586284595284"><ele>401.0</ele><time>2026-05-01T10:12:54Z</time></trkpt><trkpt lat="39.40650889457952" lon="8.539714608547701"><ele>401.0</ele><time>2026-05-01T10:12:55Z</time></trkpt><trkpt lat="39.40648780765872" lon="8.539835626811136"><ele>400.99999999999994</ele><time>2026-05-01T10:12:56Z</time></trkpt><trkpt lat="39.40647343230455" lon="8.539916063464723"><ele>401.0</ele><time>2026-05-01T10:12:57Z</time></trkpt><trkpt lat="39.406399359267134" lon="8.53997945457654"><ele>400.99999999999994</ele><time>2026-05-01T10:12:59Z</time></trkpt><trkpt lat="39.40632985222316" lon="8.539939773801494"><ele>401.0</ele><time>2026-05-01T10:13:00Z</time></trkpt><trkpt lat="39.406255674992494" lon="8.539852855436466"><ele>401.0</ele><time>2026-05-01T10:13:01Z</time></trkpt><trkpt lat="39.40622863631866" lon="8.539748344410123"><ele>401.0</ele><time>2026-05-01T10:13:02Z</time></trkpt><trkpt lat="39.40625080532585" lon="8.539657813705498"><ele>400.99999999999994</ele><time>2026-05-01T10:13:03Z</time></trkpt><trkpt lat="39.40626291786101" lon="8.539549697885956"><ele>401.0</ele><time>2026-05-01T10:13:04Z</time></trkpt><trkpt lat="39.40625140894568" lon="8.539448375681118"><ele>396.49999999999994</ele><time>2026-05-01T10:13:05Z</time></trkpt><trkpt lat="39.40619590498403" lon="8.539366772483703"><ele>392.0</ele><time>2026-05-01T10:13:06Z</time></trkpt><trkpt lat="39.40612185110537" lon="8.53929022302627"><ele>387.5</ele><time>2026-05-01T10:13:07Z</time></trkpt><trkpt lat="39.406062673377185" lon="8.539206737803793"><ele>383.0</ele><time>2026-05-01T10:13:08Z</time></trkpt><trkpt lat="39.40601756278124" lon="8.539121245600887"><ele>378.5</ele><time>2026-05-01T10:13:09Z</time></trkpt><trkpt lat="39.40597296187122" lon="8.539023130613481"><ele>374.0</ele><time>2026-05-01T10:13:10Z</time></trkpt><trkpt lat="39.40593656889839" lon="8.538923720832997"><ele>374.0</ele><time>2026-05-01T10:13:11Z</time></trkpt><trkpt lat="39.40591114992608" lon="8.538809008736322"><ele>374.0</ele><time>2026-05-01T10:13:12Z</time></trkpt><trkpt lat="39.40588596187779" lon="8.538697983738746"><ele>374.0</ele><time>2026-05-01T10:13:13Z</time></trkpt><trkpt lat="39.405866215614445" lon="8.53859216429365"><ele>374.0</ele><time>2026-05-01T10:13:14Z</time></trkpt><trkpt lat="39.40586018885146" lon="8.53848127503358"><ele>374.0</ele><time>2026-05-01T10:13:15Z</time></trkpt><trkpt lat="39.40587058332941" lon="8.538390672314751"><ele>374.0</ele><time>2026-05-01T10:13:15.999Z</time></trkpt><trkpt lat="39.4059101714391" lon="8.53831507118856"><ele>371.2</ele><time>2026-05-01T10:13:16.999Z</time></trkpt><trkpt lat="39.40597746013969" lon="8.538256625993375"><ele>368.4</ele><time>2026-05-01T10:13:17.999Z</time></trkpt><trkpt lat="39.4060592149865" lon="8.538202320451335"><ele>365.6</ele><time>2026-05-01T10:13:18.999Z</time></trkpt><trkpt lat="39.406149379656426" lon="8.538151177030933"><ele>362.8</ele><time>2026-05-01T10:13:19.999Z</time></trkpt><trkpt lat="39.4062577429208" lon="8.53810100679632"><ele>360.0</ele><time>2026-05-01T10:13:21.999Z</time></trkpt><trkpt lat="39.406361595735014" lon="8.538100468835413"><ele>360.0</ele><time>2026-05-01T10:13:23.999Z</time></trkpt><trkpt lat="39.4064692749334" lon="8.538107369968273"><ele>360.0</ele><time>2026-05-01T10:13:25.999Z</time></trkpt><trkpt lat="39.40653775843212" lon="8.538063395424587"><ele>360.0</ele><time>2026-05-01T10:13:27.999Z</time></trkpt><trkpt lat="39.40673138514754" lon="8.537709069038263"><ele>355.8</ele><time>2026-05-01T10:13:31.999Z</time></trkpt><trkpt lat="39.406745868938" lon="8.537586815724726"><ele>351.6</ele><time>2026-05-01T10:13:32.999Z</time></trkpt><trkpt lat="39.406763092469326" lon="8.537470475713521"><ele>347.4</ele><time>2026-05-01T10:13:33.999Z</time></trkpt><trkpt lat="39.4067772364308" lon="8.537345877456284"><ele>343.2</ele><time>2026-05-01T10:13:34.999Z</time></trkpt><trkpt lat="39.40679510243297" lon="8.537224237215328"><ele>339.0</ele><time>2026-05-01T10:13:35.999Z</time></trkpt><trkpt lat="39.406814071962025" lon="8.537109610127132"><ele>337.1666666666667</ele><time>2026-05-01T10:13:36.999Z</time></trkpt><trkpt lat="39.40683382747742" lon="8.53701424842679"><ele>335.3333333333333</ele><time>2026-05-01T10:13:37.999Z</time></trkpt><trkpt lat="39.406840183796525" lon="8.536903555875288"><ele>333.5</ele><time>2026-05-01T10:13:40.999Z</time></trkpt><trkpt lat="39.40683159091225" lon="8.536787586967023"><ele>331.66666666666663</ele><time>2026-05-01T10:13:42.999Z</time></trkpt><trkpt lat="39.40680808643147" lon="8.536705006789028"><ele>329.8333333333333</ele><time>2026-05-01T10:13:43.999Z</time></trkpt><trkpt lat="39.4067769934751" lon="8.536600626696007"><ele>328.0</ele><time>2026-05-01T10:13:44.999Z</time></trkpt><trkpt lat="39.406734026565786" lon="8.536490655401497"><ele>328.0</ele><time>2026-05-01T10:13:45.999Z</time></trkpt><trkpt lat="39.406692397890225" lon="8.536396097493805"><ele>328.0</ele><time>2026-05-01T10:13:46.999Z</time></trkpt><trkpt lat="39.40664228682407" lon="8.536302546165693"><ele>328.0</ele><time>2026-05-01T10:13:47.999Z</time></trkpt><trkpt lat="39.40658662420329" lon="8.536207975950024"><ele>328.0</ele><time>2026-05-01T10:13:48.999Z</time></trkpt><trkpt lat="39.40651585714158" lon="8.536144256459968"><ele>328.0</ele><time>2026-05-01T10:13:49.999Z</time></trkpt><trkpt lat="39.40640399198065" lon="8.536097440793814"><ele>327.4285714285714</ele><time>2026-05-01T10:13:51.999Z</time></trkpt><trkpt lat="39.40633946501958" lon="8.536119880855649"><ele>326.85714285714283</ele><time>2026-05-01T10:13:52.999Z</time></trkpt><trkpt lat="39.406259867826655" lon="8.536171195060444"><ele>326.2857142857143</ele><time>2026-05-01T10:13:53.999Z</time></trkpt><trkpt lat="39.40619036396935" lon="8.53616342830958"><ele>325.71428571428567</ele><time>2026-05-01T10:13:54.999Z</time></trkpt><trkpt lat="39.40612357368095" lon="8.536136608969855"><ele>325.1428571428571</ele><time>2026-05-01T10:13:55.999Z</time></trkpt><trkpt lat="39.40607176727794" lon="8.536076629224352"><ele>324.57142857142856</ele><time>2026-05-01T10:13:56.999Z</time></trkpt><trkpt lat="39.406026956174124" lon="8.5359976566299"><ele>324.0</ele><time>2026-05-01T10:13:57.999Z</time></trkpt><trkpt lat="39.406005168780794" lon="8.535912304184631"><ele>323.5</ele><time>2026-05-01T10:13:58.999Z</time></trkpt><trkpt lat="39.40597215634422" lon="8.535769910617004"><ele>323.0</ele><time>2026-05-01T10:14:00.999Z</time></trkpt><trkpt lat="39.405976818211386" lon="8.535686170502586"><ele>322.5</ele><time>2026-05-01T10:14:01.999Z</time></trkpt><trkpt lat="39.4059976974253" lon="8.535582117306948"><ele>322.0</ele><time>2026-05-01T10:14:02.999Z</time></trkpt><trkpt lat="39.406020041049125" lon="8.535477591544543"><ele>321.5</ele><time>2026-05-01T10:14:03.999Z</time></trkpt><trkpt lat="39.40602721080085" lon="8.535379224338913"><ele>321.0</ele><time>2026-05-01T10:14:04.999Z</time></trkpt><trkpt lat="39.40602455112696" lon="8.535285566926461"><ele>319.3333333333333</ele><time>2026-05-01T10:14:05.999Z</time></trkpt><trkpt lat="39.40601071335706" lon="8.535184632278146"><ele>317.6666666666667</ele><time>2026-05-01T10:14:06.999Z</time></trkpt><trkpt lat="39.405975639783854" lon="8.535100912449833"><ele>316.0</ele><time>2026-05-01T10:14:07.999Z</time></trkpt><trkpt lat="39.40598079765198" lon="8.534967330562168"><ele>314.33333333333337</ele><time>2026-05-01T10:14:09.999Z</time></trkpt><trkpt lat="39.40603826526979" lon="8.534912718638935"><ele>312.6666666666667</ele><time>2026-05-01T10:14:10.999Z</time></trkpt><trkpt lat="39.40611128182933" lon="8.534848636812796"><ele>311.0</ele><time>2026-05-01T10:14:11.999Z</time></trkpt><trkpt lat="39.40618374117337" lon="8.53476830293878"><ele>311.0</ele><time>2026-05-01T10:14:12.999Z</time></trkpt><trkpt lat="39.40624239213976" lon="8.534679874805065"><ele>311.0</ele><time>2026-05-01T10:14:13.999Z</time></trkpt><trkpt lat="39.40627746653334" lon="8.534540830980667"><ele>311.0</ele><time>2026-05-01T10:14:15.999Z</time></trkpt><trkpt lat="39.40625751428336" lon="8.534453107805746"><ele>311.0</ele><time>2026-05-01T10:14:16.999Z</time></trkpt><trkpt lat="39.406198557532726" lon="8.534352279880236"><ele>311.0</ele><time>2026-05-01T10:14:17.999Z</time></trkpt><trkpt lat="39.406144632506816" lon="8.53425953592897"><ele>309.33333333333337</ele><time>2026-05-01T10:14:18.999Z</time></trkpt><trkpt lat="39.40610220628399" lon="8.534164756266447"><ele>307.6666666666667</ele><time>2026-05-01T10:14:19.999Z</time></trkpt><trkpt lat="39.406076361868415" lon="8.534061752247462"><ele>306.0</ele><time>2026-05-01T10:14:20.999Z</time></trkpt><trkpt lat="39.406063717997455" lon="8.533951191009624"><ele>304.3333333333333</ele><time>2026-05-01T10:14:21.999Z</time></trkpt><trkpt lat="39.40602992420129" lon="8.533851005004184"><ele>302.66666666666663</ele><time>2026-05-01T10:14:22.999Z</time></trkpt><trkpt lat="39.40600732166527" lon="8.5337565875719"><ele>301.0</ele><time>2026-05-01T10:14:23.999Z</time></trkpt><trkpt lat="39.40600314948353" lon="8.533662929972312"><ele>300.5</ele><time>2026-05-01T10:14:25Z</time></trkpt><trkpt lat="39.406027488983575" lon="8.533578983053575"><ele>300.0</ele><time>2026-05-01T10:14:26Z</time></trkpt><trkpt lat="39.40607621752223" lon="8.53351733497739"><ele>299.5</ele><time>2026-05-01T10:14:27Z</time></trkpt><trkpt lat="39.40616451290357" lon="8.533416990443255"><ele>299.0</ele><time>2026-05-01T10:14:29Z</time></trkpt><trkpt lat="39.40621642488552" lon="8.533328418701789"><ele>298.5</ele><time>2026-05-01T10:14:30Z</time></trkpt><trkpt lat="39.40626594112632" lon="8.533250071202122"><ele>298.0</ele><time>2026-05-01T10:14:31Z</time></trkpt><trkpt lat="39.40631848582537" lon="8.533172642988623"><ele>295.16666666666663</ele><time>2026-05-01T10:14:32Z</time></trkpt><trkpt lat="39.40636333013919" lon="8.533111112454579"><ele>292.3333333333333</ele><time>2026-05-01T10:14:33Z</time></trkpt><trkpt lat="39.40642480565052" lon="8.533033667503004"><ele>289.5</ele><time>2026-05-01T10:14:34Z</time></trkpt><trkpt lat="39.40649383727971" lon="8.532965483390003"><ele>286.6666666666667</ele><time>2026-05-01T10:14:35Z</time></trkpt><trkpt lat="39.40657937433276" lon="8.53291123813435"><ele>283.83333333333337</ele><time>2026-05-01T10:14:36Z</time></trkpt><trkpt lat="39.40663192670283" lon="8.532835557688351"><ele>281.0</ele><time>2026-05-01T10:14:37Z</time></trkpt><trkpt lat="39.40666875864041" lon="8.532738628042816"><ele>280.2</ele><time>2026-05-01T10:14:38Z</time></trkpt><trkpt lat="39.4067047253058" lon="8.532647538357962"><ele>279.40000000000003</ele><time>2026-05-01T10:14:39Z</time></trkpt><trkpt lat="39.40674734937666" lon="8.532566577790075"><ele>278.6</ele><time>2026-05-01T10:14:40Z</time></trkpt><trkpt lat="39.40685517441077" lon="8.532478856035516"><ele>277.8</ele><time>2026-05-01T10:14:42Z</time></trkpt><trkpt lat="39.40693928331701" lon="8.532444974647179"><ele>277.0</ele><time>2026-05-01T10:14:43Z</time></trkpt><trkpt lat="39.40702031026124" lon="8.532408796339428"><ele>277.0</ele><time>2026-05-01T10:14:44Z</time></trkpt><trkpt lat="39.40709993601853" lon="8.5323833031872"><ele>277.0</ele><time>2026-05-01T10:14:45Z</time></trkpt><trkpt lat="39.407182004123115" lon="8.532367243037273"><ele>277.0</ele><time>2026-05-01T10:14:46Z</time></trkpt><trkpt lat="39.40726687810329" lon="8.532351770043471"><ele>277.0</ele><time>2026-05-01T10:14:47Z</time></trkpt><trkpt lat="39.40735003442591" lon="8.532335405536736"><ele>277.0</ele><time>2026-05-01T10:14:48Z</time></trkpt><trkpt lat="39.407433640779864" lon="8.532318421156194"><ele>277.0</ele><time>2026-05-01T10:14:49Z</time></trkpt><trkpt lat="39.40751396099286" lon="8.53231965040449"><ele>273.4</ele><time>2026-05-01T10:14:50Z</time></trkpt><trkpt lat="39.407599513562324" lon="8.532326895655869"><ele>269.79999999999995</ele><time>2026-05-01T10:14:51Z</time></trkpt><trkpt lat="39.40768063656388" lon="8.532327902937368"><ele>266.2</ele><time>2026-05-01T10:14:52Z</time></trkpt><trkpt lat="39.40777053563627" lon="8.532337565351902"><ele>262.59999999999997</ele><time>2026-05-01T10:14:53Z</time></trkpt><trkpt lat="39.40787263511087" lon="8.532364876510375"><ele>259.0</ele><time>2026-05-01T10:14:54Z</time></trkpt><trkpt lat="39.40796633343043" lon="8.532386026463731"><ele>258.2857142857143</ele><time>2026-05-01T10:14:55Z</time></trkpt><trkpt lat="39.40804965217605" lon="8.532409587784048"><ele>257.57142857142856</ele><time>2026-05-01T10:14:56Z</time></trkpt><trkpt lat="39.4081263483206" lon="8.532412576688014"><ele>256.8571428571429</ele><time>2026-05-01T10:14:57Z</time></trkpt><trkpt lat="39.408190814022305" lon="8.532396356788624"><ele>256.1428571428571</ele><time>2026-05-01T10:14:58Z</time></trkpt><trkpt lat="39.40826079218941" lon="8.532368298014312"><ele>255.42857142857142</ele><time>2026-05-01T10:14:59Z</time></trkpt><trkpt lat="39.408323945426844" lon="8.532335623531461"><ele>254.71428571428572</ele><time>2026-05-01T10:15:00Z</time></trkpt><trkpt lat="39.40837222654274" lon="8.532274037801768"><ele>254.0</ele><time>2026-05-01T10:15:01Z</time></trkpt><trkpt lat="39.40844338246508" lon="8.532205838283854"><ele>254.00000000000003</ele><time>2026-05-01T10:15:02Z</time></trkpt><trkpt lat="39.40850151364835" lon="8.532097934404502"><ele>254.0</ele><time>2026-05-01T10:15:03Z</time></trkpt><trkpt lat="39.408519905349344" lon="8.531994553635526"><ele>254.0</ele><time>2026-05-01T10:15:04Z</time></trkpt><trkpt lat="39.40853888503482" lon="8.531909552767173"><ele>254.0</ele><time>2026-05-01T10:15:05Z</time></trkpt><trkpt lat="39.40854042937548" lon="8.53181657400305"><ele>254.00000000000003</ele><time>2026-05-01T10:15:06Z</time></trkpt><trkpt lat="39.4085195500356" lon="8.531720489495152"><ele>254.0</ele><time>2026-05-01T10:15:07Z</time></trkpt><trkpt lat="39.40846949670419" lon="8.531641834818924"><ele>252.66666666666669</ele><time>2026-05-01T10:15:08Z</time></trkpt><trkpt lat="39.40840040722525" lon="8.53159766080333"><ele>251.33333333333334</ele><time>2026-05-01T10:15:09Z</time></trkpt><trkpt lat="39.40832890684384" lon="8.531585770379179"><ele>250.0</ele><time>2026-05-01T10:15:10Z</time></trkpt><trkpt lat="39.408265952810474" lon="8.531547943814555"><ele>248.66666666666669</ele><time>2026-05-01T10:15:11Z</time></trkpt><trkpt lat="39.408204360909174" lon="8.531515637002936"><ele>247.33333333333334</ele><time>2026-05-01T10:15:12Z</time></trkpt><trkpt lat="39.4081188898113" lon="8.531410734027789"><ele>246.0</ele><time>2026-05-01T10:15:14Z</time></trkpt><trkpt lat="39.40810239151613" lon="8.53124617095504"><ele>244.60000000000002</ele><time>2026-05-01T10:15:16Z</time></trkpt><trkpt lat="39.40811674777795" lon="8.53114270274549"><ele>243.20000000000002</ele><time>2026-05-01T10:15:17Z</time></trkpt><trkpt lat="39.408145216943645" lon="8.531028461614136"><ele>241.79999999999998</ele><time>2026-05-01T10:15:18Z</time></trkpt><trkpt lat="39.40818070063013" lon="8.530919617252106"><ele>240.39999999999998</ele><time>2026-05-01T10:15:19Z</time></trkpt><trkpt lat="39.40821724678037" lon="8.53080613997883"><ele>239.0</ele><time>2026-05-01T10:15:20Z</time></trkpt><trkpt lat="39.408261013601575" lon="8.530684910685265"><ele>239.0</ele><time>2026-05-01T10:15:21Z</time></trkpt><trkpt lat="39.40831849526609" lon="8.530579687264506"><ele>238.99999999999997</ele><time>2026-05-01T10:15:22Z</time></trkpt><trkpt lat="39.40837134768492" lon="8.530474541566582"><ele>238.99999999999997</ele><time>2026-05-01T10:15:23Z</time></trkpt><trkpt lat="39.40841452119657" lon="8.530368447712751"><ele>239.0</ele><time>2026-05-01T10:15:24Z</time></trkpt><trkpt lat="39.40845119931813" lon="8.530258218649045"><ele>239.0</ele><time>2026-05-01T10:15:25Z</time></trkpt><trkpt lat="39.40849838205839" lon="8.530152766359018"><ele>238.0</ele><time>2026-05-01T10:15:26Z</time></trkpt><trkpt lat="39.408561262393526" lon="8.530051250130812"><ele>236.99999999999997</ele><time>2026-05-01T10:15:26.999Z</time></trkpt><trkpt lat="39.408645753377364" lon="8.529973655820868"><ele>235.99999999999997</ele><time>2026-05-01T10:15:27.999Z</time></trkpt><trkpt lat="39.408718742694" lon="8.529885106854874"><ele>235.0</ele><time>2026-05-01T10:15:28.999Z</time></trkpt><trkpt lat="39.4087733229511" lon="8.529802198112652"><ele>234.0</ele><time>2026-05-01T10:15:29.999Z</time></trkpt><trkpt lat="39.40882088420899" lon="8.529716015792184"><ele>235.0</ele><time>2026-05-01T10:15:30.999Z</time></trkpt><trkpt lat="39.408864890979565" lon="8.529622080320324"><ele>235.99999999999997</ele><time>2026-05-01T10:15:31.999Z</time></trkpt><trkpt lat="39.4088783191485" lon="8.52949600462573"><ele>236.99999999999997</ele><time>2026-05-01T10:15:32.999Z</time></trkpt><trkpt lat="39.408875403488025" lon="8.529351421377282"><ele>238.0</ele><time>2026-05-01T10:15:33.999Z</time></trkpt><trkpt lat="39.40888687275694" lon="8.529215652719547"><ele>239.0</ele><time>2026-05-01T10:15:34.999Z</time></trkpt><trkpt lat="39.40889571389558" lon="8.529096669762776"><ele>236.2857142857143</ele><time>2026-05-01T10:15:35.999Z</time></trkpt><trkpt lat="39.40893385840758" lon="8.528998638024175"><ele>233.57142857142858</ele><time>2026-05-01T10:15:36.999Z</time></trkpt><trkpt lat="39.40897133132364" lon="8.528922501816856"><ele>230.85714285714286</ele><time>2026-05-01T10:15:37.999Z</time></trkpt><trkpt lat="39.40901540143461" lon="8.528856571484807"><ele>228.14285714285717</ele><time>2026-05-01T10:15:38.999Z</time></trkpt><trkpt lat="39.409047653141386" lon="8.528777274819905"><ele>225.42857142857144</ele><time>2026-05-01T10:15:39.999Z</time></trkpt><trkpt lat="39.409107032554196" lon="8.528712942548086"><ele>222.7142857142857</ele><time>2026-05-01T10:15:40.999Z</time></trkpt><trkpt lat="39.40915026802466" lon="8.528624655005798"><ele>220.0</ele><time>2026-05-01T10:15:41.999Z</time></trkpt><trkpt lat="39.40920783532135" lon="8.528536640453824"><ele>218.8</ele><time>2026-05-01T10:15:42.999Z</time></trkpt><trkpt lat="39.40926061301762" lon="8.528427723468653"><ele>217.6</ele><time>2026-05-01T10:15:43.999Z</time></trkpt><trkpt lat="39.40933412367429" lon="8.528337888983963"><ele>216.39999999999998</ele><time>2026-05-01T10:15:44.999Z</time></trkpt><trkpt lat="39.409362502943885" lon="8.52824488599094"><ele>215.2</ele><time>2026-05-01T10:15:45.999Z</time></trkpt><trkpt lat="39.4094170810977" lon="8.52816010083934"><ele>214.0</ele><time>2026-05-01T10:15:53.999Z</time></trkpt><trkpt lat="39.4094538964496" lon="8.528051048996284"><ele>213.99999999999997</ele><time>2026-05-01T10:15:55.999Z</time></trkpt><trkpt lat="39.40949306370576" lon="8.527984903544365"><ele>214.0</ele><time>2026-05-01T10:15:56.999Z</time></trkpt><trkpt lat="39.409536283948086" lon="8.52789964199441"><ele>214.0</ele><time>2026-05-01T10:15:57.999Z</time></trkpt><trkpt lat="39.40956642940653" lon="8.527824480557683"><ele>214.0</ele><time>2026-05-01T10:15:58.999Z</time></trkpt><trkpt lat="39.4095808779763" lon="8.527733974338132"><ele>213.99999999999997</ele><time>2026-05-01T10:16:00.999Z</time></trkpt><trkpt lat="39.409609914525205" lon="8.527631417062404"><ele>214.0</ele><time>2026-05-01T10:16:03.999Z</time></trkpt><trkpt lat="39.40962691458485" lon="8.527513471822424"><ele>212.85714285714286</ele><time>2026-05-01T10:16:06.999Z</time></trkpt><trkpt lat="39.40963887193334" lon="8.527430512631328"><ele>211.71428571428572</ele><time>2026-05-01T10:16:08.999Z</time></trkpt><trkpt lat="39.40964892770587" lon="8.527331972681715"><ele>210.57142857142856</ele><time>2026-05-01T10:16:14.999Z</time></trkpt><trkpt lat="39.40966722954818" lon="8.527232840964816"><ele>209.42857142857144</ele><time>2026-05-01T10:16:16.999Z</time></trkpt><trkpt lat="39.40970243300177" lon="8.527145717867974"><ele>208.28571428571428</ele><time>2026-05-01T10:16:17.999Z</time></trkpt><trkpt lat="39.409743714367714" lon="8.527067156856281"><ele>207.14285714285714</ele><time>2026-05-01T10:16:18.999Z</time></trkpt><trkpt lat="39.40979496471015" lon="8.526994385716481"><ele>206.0</ele><time>2026-05-01T10:16:19.999Z</time></trkpt><trkpt lat="39.40984646267312" lon="8.526884559530853"><ele>206.0</ele><time>2026-05-01T10:16:20.999Z</time></trkpt><trkpt lat="39.40990138578006" lon="8.526744250219366"><ele>206.0</ele><time>2026-05-01T10:16:21.999Z</time></trkpt><trkpt lat="39.409963539551896" lon="8.52659122497349"><ele>206.0</ele><time>2026-05-01T10:16:22.999Z</time></trkpt><trkpt lat="39.41002759327112" lon="8.526439278821782"><ele>206.0</ele><time>2026-05-01T10:16:23.999Z</time></trkpt><trkpt lat="39.410087052423926" lon="8.526310470638132"><ele>208.20000000000002</ele><time>2026-05-01T10:16:24.999Z</time></trkpt><trkpt lat="39.41014565289698" lon="8.526192994319278"><ele>210.4</ele><time>2026-05-01T10:16:25.999Z</time></trkpt><trkpt lat="39.41019626206113" lon="8.526073593231922"><ele>212.6</ele><time>2026-05-01T10:16:26.999Z</time></trkpt><trkpt lat="39.41023799871441" lon="8.52595458941756"><ele>214.8</ele><time>2026-05-01T10:16:27.999Z</time></trkpt><trkpt lat="39.41026921453026" lon="8.525846155632982"><ele>217.0</ele><time>2026-05-01T10:16:28.999Z</time></trkpt><trkpt lat="39.41028530604928" lon="8.525686131613007"><ele>216.99999999999997</ele><time>2026-05-01T10:16:31Z</time></trkpt><trkpt lat="39.41030428675684" lon="8.52560051718926"><ele>217.0</ele><time>2026-05-01T10:16:32Z</time></trkpt><trkpt lat="39.4102940383443" lon="8.525497621335985"><ele>217.0</ele><time>2026-05-01T10:16:33Z</time></trkpt><trkpt lat="39.41027423668808" lon="8.525411007409087"><ele>217.0</ele><time>2026-05-01T10:16:34Z</time></trkpt><trkpt lat="39.41026662296393" lon="8.525317424818622"><ele>216.99999999999997</ele><time>2026-05-01T10:16:35Z</time></trkpt><trkpt lat="39.410329051617744" lon="8.525214035224558"><ele>217.0</ele><time>2026-05-01T10:16:36Z</time></trkpt><trkpt lat="39.41040213852566" lon="8.525142815225742"><ele>219.0</ele><time>2026-05-01T10:16:37Z</time></trkpt><trkpt lat="39.41045575402245" lon="8.525086123723005"><ele>221.0</ele><time>2026-05-01T10:16:38Z</time></trkpt><trkpt lat="39.410533853261185" lon="8.524995303319152"><ele>223.0</ele><time>2026-05-01T10:16:40Z</time></trkpt><trkpt lat="39.410608459452" lon="8.52490192679197"><ele>225.0</ele><time>2026-05-01T10:16:42Z</time></trkpt><trkpt lat="39.410705406134596" lon="8.52476706548453"><ele>227.0</ele><time>2026-05-01T10:16:44Z</time></trkpt><trkpt lat="39.41074518097737" lon="8.524698376350125"><ele>221.16666666666669</ele><time>2026-05-01T10:16:45Z</time></trkpt><trkpt lat="39.41079862936198" lon="8.524569268921917"><ele>215.33333333333334</ele><time>2026-05-01T10:16:47Z</time></trkpt><trkpt lat="39.410794782449656" lon="8.524475556461372"><ele>209.5</ele><time>2026-05-01T10:16:48Z</time></trkpt><trkpt lat="39.41077138919128" lon="8.524364452877236"><ele>203.66666666666669</ele><time>2026-05-01T10:16:49Z</time></trkpt><trkpt lat="39.410776075675386" lon="8.524254852013081"><ele>197.83333333333334</ele><time>2026-05-01T10:16:50Z</time></trkpt><trkpt lat="39.41081733104843" lon="8.524167605717523"><ele>192.0</ele><time>2026-05-01T10:16:51Z</time></trkpt><trkpt lat="39.41084744142954" lon="8.524069851520467"><ele>192.0</ele><time>2026-05-01T10:16:52Z</time></trkpt><trkpt lat="39.410874279243615" lon="8.523912619091945"><ele>192.0</ele><time>2026-05-01T10:16:53Z</time></trkpt><trkpt lat="39.41091285527055" lon="8.523773532709981"><ele>192.0</ele><time>2026-05-01T10:16:54Z</time></trkpt><trkpt lat="39.410928993618306" lon="8.523662445474335"><ele>192.0</ele><time>2026-05-01T10:16:55Z</time></trkpt><trkpt lat="39.410928757384205" lon="8.52354186933771"><ele>192.0</ele><time>2026-05-01T10:16:56Z</time></trkpt><trkpt lat="39.410904046571005" lon="8.52341295252406"><ele>192.5</ele><time>2026-05-01T10:16:57Z</time></trkpt><trkpt lat="39.410890403465324" lon="8.523291031004806"><ele>193.0</ele><time>2026-05-01T10:16:58Z</time></trkpt><trkpt lat="39.410891209446866" lon="8.5231242922438"><ele>193.5</ele><time>2026-05-01T10:16:59Z</time></trkpt><trkpt lat="39.410864954056" lon="8.522944698095895"><ele>194.0</ele><time>2026-05-01T10:17:00Z</time></trkpt><trkpt lat="39.410820634231754" lon="8.522761869115502"><ele>192.0</ele><time>2026-05-01T10:17:01Z</time></trkpt><trkpt lat="39.41079051461018" lon="8.52258951293121"><ele>190.0</ele><time>2026-05-01T10:17:02Z</time></trkpt><trkpt lat="39.410780509030346" lon="8.522426808631224"><ele>188.0</ele><time>2026-05-01T10:17:03Z</time></trkpt><trkpt lat="39.410774536566116" lon="8.522263143106933"><ele>186.0</ele><time>2026-05-01T10:17:04Z</time></trkpt><trkpt lat="39.41077479470292" lon="8.522102663031665"><ele>185.75</ele><time>2026-05-01T10:17:05Z</time></trkpt><trkpt lat="39.41077909621014" lon="8.521947874435446"><ele>185.5</ele><time>2026-05-01T10:17:06Z</time></trkpt><trkpt lat="39.410784698529085" lon="8.521791130568909"><ele>185.25</ele><time>2026-05-01T10:17:07Z</time></trkpt><trkpt lat="39.41077871810672" lon="8.521618530746707"><ele>185.0</ele><time>2026-05-01T10:17:08Z</time></trkpt><trkpt lat="39.41077660538671" lon="8.521456467008697"><ele>185.0</ele><time>2026-05-01T10:17:09Z</time></trkpt><trkpt lat="39.41078524829676" lon="8.521325143158194"><ele>185.0</ele><time>2026-05-01T10:17:10Z</time></trkpt><trkpt lat="39.410800776753014" lon="8.521218638619548"><ele>185.0</ele><time>2026-05-01T10:17:11Z</time></trkpt><trkpt lat="39.41083598737582" lon="8.521149098266605"><ele>185.0</ele><time>2026-05-01T10:17:12Z</time></trkpt><trkpt lat="39.41089487716659" lon="8.521051973689277"><ele>185.0</ele><time>2026-05-01T10:17:13Z</time></trkpt><trkpt lat="39.41097721920619" lon="8.520977680433763"><ele>185.0</ele><time>2026-05-01T10:17:14Z</time></trkpt><trkpt lat="39.4110618022358" lon="8.520899881762361"><ele>186.6</ele><time>2026-05-01T10:17:15Z</time></trkpt><trkpt lat="39.41117456136336" lon="8.520850341406188"><ele>188.2</ele><time>2026-05-01T10:17:16Z</time></trkpt><trkpt lat="39.411264710362886" lon="8.520857869560167"><ele>189.8</ele><time>2026-05-01T10:17:17Z</time></trkpt><trkpt lat="39.41135097094741" lon="8.520768634543332"><ele>191.4</ele><time>2026-05-01T10:17:19Z</time></trkpt><trkpt lat="39.41135944835648" lon="8.520666123706777"><ele>193.0</ele><time>2026-05-01T10:17:20Z</time></trkpt><trkpt lat="39.41134886245294" lon="8.520558155331743"><ele>193.0</ele><time>2026-05-01T10:17:21Z</time></trkpt><trkpt lat="39.411256909178626" lon="8.520455767198305"><ele>193.0</ele><time>2026-05-01T10:17:22Z</time></trkpt><trkpt lat="39.411175421863845" lon="8.520334936209887"><ele>193.0</ele><time>2026-05-01T10:17:23Z</time></trkpt><trkpt lat="39.411108843084676" lon="8.520199227149863"><ele>193.0</ele><time>2026-05-01T10:17:24Z</time></trkpt><trkpt lat="39.41106501989159" lon="8.520062768546794"><ele>193.2</ele><time>2026-05-01T10:17:25Z</time></trkpt><trkpt lat="39.411054177836924" lon="8.519940422449787"><ele>193.4</ele><time>2026-05-01T10:17:26Z</time></trkpt><trkpt lat="39.41104671478968" lon="8.519810171231667"><ele>193.6</ele><time>2026-05-01T10:17:27Z</time></trkpt><trkpt lat="39.411062097288315" lon="8.51966808217164"><ele>193.79999999999998</ele><time>2026-05-01T10:17:28Z</time></trkpt><trkpt lat="39.411091353991786" lon="8.519537434187201"><ele>194.0</ele><time>2026-05-01T10:17:29Z</time></trkpt><trkpt lat="39.41114294301506" lon="8.519418147990267"><ele>192.6</ele><time>2026-05-01T10:17:30Z</time></trkpt><trkpt lat="39.41119303119756" lon="8.519291344378042"><ele>191.2</ele><time>2026-05-01T10:17:31Z</time></trkpt><trkpt lat="39.41123637571279" lon="8.519196357825368"><ele>189.79999999999998</ele><time>2026-05-01T10:17:31.999Z</time></trkpt><trkpt lat="39.41124776488246" lon="8.519080477546309"><ele>188.39999999999998</ele><time>2026-05-01T10:17:32.999Z</time></trkpt><trkpt lat="39.41125869475139" lon="8.51894095991294"><ele>187.0</ele><time>2026-05-01T10:17:33.999Z</time></trkpt><trkpt lat="39.41127648878907" lon="8.51880292205458"><ele>182.6</ele><time>2026-05-01T10:17:34.999Z</time></trkpt><trkpt lat="39.41133156719364" lon="8.518699951322057"><ele>178.2</ele><time>2026-05-01T10:17:35.999Z</time></trkpt><trkpt lat="39.41138339957646" lon="8.518572181038866"><ele>173.8</ele><time>2026-05-01T10:17:36.999Z</time></trkpt><trkpt lat="39.41143067395588" lon="8.518468800928343"><ele>169.4</ele><time>2026-05-01T10:17:37.999Z</time></trkpt><trkpt lat="39.41145612308875" lon="8.518363498274041"><ele>165.0</ele><time>2026-05-01T10:17:38.999Z</time></trkpt><trkpt lat="39.41146361407499" lon="8.518264404818902"><ele>165.0</ele><time>2026-05-01T10:17:39.999Z</time></trkpt><trkpt lat="39.411439398355114" lon="8.518173362684504"><ele>165.0</ele><time>2026-05-01T10:17:40.999Z</time></trkpt><trkpt lat="39.41139818350558" lon="8.518084980651167"><ele>165.0</ele><time>2026-05-01T10:17:41.999Z</time></trkpt><trkpt lat="39.41133854940142" lon="8.518016992532361"><ele>165.0</ele><time>2026-05-01T10:17:42.999Z</time></trkpt><trkpt lat="39.41125784305345" lon="8.517990204248772"><ele>165.0</ele><time>2026-05-01T10:17:43.999Z</time></trkpt><trkpt lat="39.41117522513513" lon="8.517947299531555"><ele>165.0</ele><time>2026-05-01T10:17:44.999Z</time></trkpt><trkpt lat="39.41109075966714" lon="8.517907103875542"><ele>167.0</ele><time>2026-05-01T10:17:45.999Z</time></trkpt><trkpt lat="39.41102622445946" lon="8.517861402579113"><ele>169.0</ele><time>2026-05-01T10:17:46.999Z</time></trkpt><trkpt lat="39.410938125395795" lon="8.517789222593445"><ele>171.0</ele><time>2026-05-01T10:17:48.999Z</time></trkpt><trkpt lat="39.41086002153461" lon="8.51773114200152"><ele>173.0</ele><time>2026-05-01T10:17:50.999Z</time></trkpt><trkpt lat="39.41091452457331" lon="8.517653703164013"><ele>175.0</ele><time>2026-05-01T10:17:53.999Z</time></trkpt><trkpt lat="39.41098295842391" lon="8.517699168178199"><ele>177.0</ele><time>2026-05-01T10:17:54.999Z</time></trkpt><trkpt lat="39.411017970144435" lon="8.517798414397378"><ele>177.0</ele><time>2026-05-01T10:17:55.999Z</time></trkpt><trkpt lat="39.410991487296535" lon="8.517623421115674"><ele>177.0</ele><time>2026-05-01T10:17:59.999Z</time></trkpt><trkpt lat="39.411052217321256" lon="8.517520344644412"><ele>177.0</ele><time>2026-05-01T10:18:00.999Z</time></trkpt><trkpt lat="39.41112040644574" lon="8.517432820212901"><ele>177.0</ele><time>2026-05-01T10:18:01.999Z</time></trkpt><trkpt lat="39.41121259484247" lon="8.517374947612431"><ele>177.0</ele><time>2026-05-01T10:18:02.999Z</time></trkpt><trkpt lat="39.411333871985455" lon="8.517344275448616"><ele>177.0</ele><time>2026-05-01T10:18:03.999Z</time></trkpt><trkpt lat="39.41144544805459" lon="8.51735871932708"><ele>177.0</ele><time>2026-05-01T10:18:04.999Z</time></trkpt><trkpt lat="39.41152755247727" lon="8.517361807861016"><ele>177.0</ele><time>2026-05-01T10:18:05.999Z</time></trkpt><trkpt lat="39.41159552982095" lon="8.517427315676311"><ele>177.0</ele><time>2026-05-01T10:18:06.999Z</time></trkpt><trkpt lat="39.411655740247106" lon="8.517522024653562"><ele>177.0</ele><time>2026-05-01T10:18:07.999Z</time></trkpt><trkpt lat="39.41175892672373" lon="8.517581161315164"><ele>177.0</ele><time>2026-05-01T10:18:08.999Z</time></trkpt><trkpt lat="39.41186214650701" lon="8.517675733364921"><ele>177.0</ele><time>2026-05-01T10:18:09.999Z</time></trkpt><trkpt lat="39.4119776349347" lon="8.517766042621842"><ele>177.0</ele><time>2026-05-01T10:18:10.999Z</time></trkpt><trkpt lat="39.41207600912658" lon="8.51784957317149"><ele>177.0</ele><time>2026-05-01T10:18:11.999Z</time></trkpt><trkpt lat="39.41213725183835" lon="8.517943593950365"><ele>174.6</ele><time>2026-05-01T10:18:12.999Z</time></trkpt><trkpt lat="39.41219147192347" lon="8.518039824150504"><ele>172.2</ele><time>2026-05-01T10:18:13.999Z</time></trkpt><trkpt lat="39.412224573140165" lon="8.5181499588212"><ele>169.8</ele><time>2026-05-01T10:18:14.999Z</time></trkpt><trkpt lat="39.4122099901464" lon="8.518264677246906"><ele>167.4</ele><time>2026-05-01T10:18:15.999Z</time></trkpt><trkpt lat="39.41218666990035" lon="8.51838862921759"><ele>165.0</ele><time>2026-05-01T10:18:16.999Z</time></trkpt><trkpt lat="39.41213501259911" lon="8.518499879905805"><ele>165.0</ele><time>2026-05-01T10:18:17.999Z</time></trkpt><trkpt lat="39.4121246280721" lon="8.518623954429758"><ele>165.0</ele><time>2026-05-01T10:18:18.999Z</time></trkpt><trkpt lat="39.41211905532293" lon="8.518729907121443"><ele>165.0</ele><time>2026-05-01T10:18:19.999Z</time></trkpt><trkpt lat="39.412135452654155" lon="8.51882611623015"><ele>165.0</ele><time>2026-05-01T10:18:20.999Z</time></trkpt><trkpt lat="39.412222530415" lon="8.518897437172015"><ele>165.0</ele><time>2026-05-01T10:18:21.999Z</time></trkpt><trkpt lat="39.41225379354812" lon="8.519018284292537"><ele>163.8</ele><time>2026-05-01T10:18:22.999Z</time></trkpt><trkpt lat="39.41224855487376" lon="8.519140130776085"><ele>162.6</ele><time>2026-05-01T10:18:23.999Z</time></trkpt><trkpt lat="39.412213607478726" lon="8.519272886935537"><ele>161.4</ele><time>2026-05-01T10:18:24.999Z</time></trkpt><trkpt lat="39.412210148458165" lon="8.519431803659439"><ele>160.2</ele><time>2026-05-01T10:18:25.999Z</time></trkpt><trkpt lat="39.412182259536436" lon="8.519577631983967"><ele>159.0</ele><time>2026-05-01T10:18:26.999Z</time></trkpt><trkpt lat="39.41217213633536" lon="8.519684328945099"><ele>159.0</ele><time>2026-05-01T10:18:27.999Z</time></trkpt><trkpt lat="39.41216459356909" lon="8.519774370561622"><ele>159.0</ele><time>2026-05-01T10:18:28.999Z</time></trkpt><trkpt lat="39.41222938318487" lon="8.519853030488875"><ele>159.0</ele><time>2026-05-01T10:18:29.999Z</time></trkpt><trkpt lat="39.412295994920775" lon="8.519937912626467"><ele>159.0</ele><time>2026-05-01T10:18:30.999Z</time></trkpt><trkpt lat="39.41236508195373" lon="8.520010647706679"><ele>159.0</ele><time>2026-05-01T10:18:31.999Z</time></trkpt><trkpt lat="39.41242318355475" lon="8.52005949320624"><ele>159.0</ele><time>2026-05-01T10:18:32.999Z</time></trkpt><trkpt lat="39.41255535704129" lon="8.520001538868907"><ele>159.0</ele><time>2026-05-01T10:18:34.999Z</time></trkpt><trkpt lat="39.41265793912459" lon="8.51991022927968"><ele>159.0</ele><time>2026-05-01T10:18:35.999Z</time></trkpt><trkpt lat="39.412756991498135" lon="8.51984774755142"><ele>159.0</ele><time>2026-05-01T10:18:37Z</time></trkpt><trkpt lat="39.412846797927536" lon="8.519779055861726"><ele>159.0</ele><time>2026-05-01T10:18:38Z</time></trkpt><trkpt lat="39.41293103286567" lon="8.519653588557382"><ele>162.75</ele><time>2026-05-01T10:18:39Z</time></trkpt><trkpt lat="39.413023607039044" lon="8.519523427742067"><ele>166.5</ele><time>2026-05-01T10:18:40Z</time></trkpt><trkpt lat="39.413117778324434" lon="8.519401118599822"><ele>170.25</ele><time>2026-05-01T10:18:41Z</time></trkpt><trkpt lat="39.41320524150451" lon="8.51929906603457"><ele>174.0</ele><time>2026-05-01T10:18:42Z</time></trkpt><trkpt lat="39.41329587320111" lon="8.519211753246841"><ele>174.0</ele><time>2026-05-01T10:18:43Z</time></trkpt><trkpt lat="39.41336102912358" lon="8.51912127489684"><ele>174.0</ele><time>2026-05-01T10:18:44Z</time></trkpt><trkpt lat="39.4134195947188" lon="8.519056349970903"><ele>174.0</ele><time>2026-05-01T10:18:45Z</time></trkpt><trkpt lat="39.41350258590446" lon="8.519053492525131"><ele>174.0</ele><time>2026-05-01T10:18:46Z</time></trkpt><trkpt lat="39.41360152763981" lon="8.519135078339323"><ele>174.0</ele><time>2026-05-01T10:18:47Z</time></trkpt><trkpt lat="39.41372419653308" lon="8.519142481665785"><ele>174.25</ele><time>2026-05-01T10:18:48Z</time></trkpt><trkpt lat="39.41384892672465" lon="8.519149584289492"><ele>174.5</ele><time>2026-05-01T10:18:49Z</time></trkpt><trkpt lat="39.41397146361158" lon="8.519185449971005"><ele>174.75</ele><time>2026-05-01T10:18:50Z</time></trkpt><trkpt lat="39.414082022123786" lon="8.519236627376175"><ele>175.0</ele><time>2026-05-01T10:18:51Z</time></trkpt><trkpt lat="39.41415668575696" lon="8.519305332404969"><ele>175.0</ele><time>2026-05-01T10:18:52Z</time></trkpt><trkpt lat="39.41422638531871" lon="8.519406500523285"><ele>175.0</ele><time>2026-05-01T10:18:53Z</time></trkpt><trkpt lat="39.41433035843417" lon="8.519505545361072"><ele>175.0</ele><time>2026-05-01T10:18:54Z</time></trkpt><trkpt lat="39.41443635915477" lon="8.519619744648507"><ele>175.0</ele><time>2026-05-01T10:18:55Z</time></trkpt><trkpt lat="39.41455005312629" lon="8.519705671953169"><ele>171.83333333333334</ele><time>2026-05-01T10:18:56Z</time></trkpt><trkpt lat="39.41462036960919" lon="8.519819725744323"><ele>168.66666666666669</ele><time>2026-05-01T10:18:57Z</time></trkpt><trkpt lat="39.41469504387489" lon="8.519872266496785"><ele>165.5</ele><time>2026-05-01T10:18:58Z</time></trkpt><trkpt lat="39.414764560513696" lon="8.519903974567125"><ele>162.33333333333334</ele><time>2026-05-01T10:18:59Z</time></trkpt><trkpt lat="39.414831907268024" lon="8.519906872238007"><ele>159.16666666666666</ele><time>2026-05-01T10:19:00Z</time></trkpt><trkpt lat="39.41490840737807" lon="8.519807128621384"><ele>156.0</ele><time>2026-05-01T10:19:01Z</time></trkpt><trkpt lat="39.41500029810889" lon="8.519690966616668"><ele>156.0</ele><time>2026-05-01T10:19:02Z</time></trkpt><trkpt lat="39.41511603685201" lon="8.519571440412912"><ele>156.0</ele><time>2026-05-01T10:19:03Z</time></trkpt><trkpt lat="39.4152323791251" lon="8.519495715863039"><ele>156.0</ele><time>2026-05-01T10:19:04Z</time></trkpt><trkpt lat="39.41532747545898" lon="8.519414643998598"><ele>156.0</ele><time>2026-05-01T10:19:05Z</time></trkpt><trkpt lat="39.415398758954304" lon="8.519304074525843"><ele>159.0</ele><time>2026-05-01T10:19:06Z</time></trkpt><trkpt lat="39.41543260100012" lon="8.519175393151047"><ele>162.0</ele><time>2026-05-01T10:19:07Z</time></trkpt><trkpt lat="39.41541667898804" lon="8.519045322003128"><ele>165.0</ele><time>2026-05-01T10:19:08Z</time></trkpt><trkpt lat="39.415373600974576" lon="8.518916071739852"><ele>168.0</ele><time>2026-05-01T10:19:09Z</time></trkpt><trkpt lat="39.415314831320686" lon="8.51877994232941"><ele>171.0</ele><time>2026-05-01T10:19:10Z</time></trkpt><trkpt lat="39.41530525764592" lon="8.518665991654332"><ele>172.4</ele><time>2026-05-01T10:19:11Z</time></trkpt><trkpt lat="39.415371453888476" lon="8.518537249328096"><ele>173.8</ele><time>2026-05-01T10:19:13Z</time></trkpt><trkpt lat="39.415433720488885" lon="8.518468027193899"><ele>175.20000000000002</ele><time>2026-05-01T10:19:14Z</time></trkpt><trkpt lat="39.41550859215202" lon="8.518376156901407"><ele>176.60000000000002</ele><time>2026-05-01T10:19:15Z</time></trkpt><trkpt lat="39.415560307622584" lon="8.5182784291975"><ele>178.0</ele><time>2026-05-01T10:19:16Z</time></trkpt><trkpt lat="39.41558086901705" lon="8.518153075210904"><ele>174.33333333333334</ele><time>2026-05-01T10:19:17Z</time></trkpt><trkpt lat="39.41562238797204" lon="8.518066509493654"><ele>170.66666666666669</ele><time>2026-05-01T10:19:18Z</time></trkpt><trkpt lat="39.41572732521372" lon="8.518021361937173"><ele>167.0</ele><time>2026-05-01T10:19:20Z</time></trkpt><trkpt lat="39.41578629494736" lon="8.518064370872226"><ele>163.33333333333334</ele><time>2026-05-01T10:19:21Z</time></trkpt><trkpt lat="39.415812828262766" lon="8.518160753619842"><ele>159.66666666666666</ele><time>2026-05-01T10:19:22Z</time></trkpt><trkpt lat="39.415858410371996" lon="8.51829334971982"><ele>156.0</ele><time>2026-05-01T10:19:23Z</time></trkpt><trkpt lat="39.4159157849209" lon="8.51844766003821"><ele>156.0</ele><time>2026-05-01T10:19:24Z</time></trkpt><trkpt lat="39.415987046669116" lon="8.518537511275978"><ele>156.0</ele><time>2026-05-01T10:19:25Z</time></trkpt><trkpt lat="39.4160569136915" lon="8.518583784313572"><ele>156.0</ele><time>2026-05-01T10:19:26Z</time></trkpt><trkpt lat="39.416121840594535" lon="8.518593093453955"><ele>156.0</ele><time>2026-05-01T10:19:27Z</time></trkpt><trkpt lat="39.416204393730396" lon="8.51854729492222"><ele>156.0</ele><time>2026-05-01T10:19:28Z</time></trkpt><trkpt lat="39.41630504035067" lon="8.518457619612706"><ele>153.2</ele><time>2026-05-01T10:19:29Z</time></trkpt><trkpt lat="39.416418272961124" lon="8.518350747564284"><ele>150.39999999999998</ele><time>2026-05-01T10:19:29.999Z</time></trkpt><trkpt lat="39.416522891494026" lon="8.518269099424339"><ele>147.6</ele><time>2026-05-01T10:19:30.999Z</time></trkpt><trkpt lat="39.41660878953972" lon="8.518202581061583"><ele>144.79999999999998</ele><time>2026-05-01T10:19:31.999Z</time></trkpt><trkpt lat="39.416657817190725" lon="8.5181197857595"><ele>142.0</ele><time>2026-05-01T10:19:32.999Z</time></trkpt><trkpt lat="39.41666773454389" lon="8.518030668134843"><ele>142.0</ele><time>2026-05-01T10:19:33.999Z</time></trkpt><trkpt lat="39.41665129935262" lon="8.5179415633414"><ele>142.0</ele><time>2026-05-01T10:19:34.999Z</time></trkpt><trkpt lat="39.416621420675504" lon="8.517860340551456"><ele>142.0</ele><time>2026-05-01T10:19:35.999Z</time></trkpt><trkpt lat="39.416584258977814" lon="8.517760203349328"><ele>142.0</ele><time>2026-05-01T10:19:36.999Z</time></trkpt><trkpt lat="39.41654144227729" lon="8.517641598186655"><ele>142.0</ele><time>2026-05-01T10:19:37.999Z</time></trkpt><trkpt lat="39.41647452527122" lon="8.517503943252317"><ele>142.25</ele><time>2026-05-01T10:19:38.999Z</time></trkpt><trkpt lat="39.416405278090735" lon="8.517347540482088"><ele>142.5</ele><time>2026-05-01T10:19:39.999Z</time></trkpt><trkpt lat="39.41633165159034" lon="8.517211970570985"><ele>142.75</ele><time>2026-05-01T10:19:40.999Z</time></trkpt><trkpt lat="39.41629550231897" lon="8.517080761110988"><ele>143.0</ele><time>2026-05-01T10:19:41.999Z</time></trkpt><trkpt lat="39.41625389741285" lon="8.516952741994114"><ele>152.25</ele><time>2026-05-01T10:19:42.999Z</time></trkpt><trkpt lat="39.41623708570753" lon="8.516792165888518"><ele>161.5</ele><time>2026-05-01T10:19:43.999Z</time></trkpt><trkpt lat="39.416250034388774" lon="8.516619466801155"><ele>170.75</ele><time>2026-05-01T10:19:44.999Z</time></trkpt><trkpt lat="39.41625871836539" lon="8.51646429682652"><ele>180.0</ele><time>2026-05-01T10:19:45.999Z</time></trkpt><trkpt lat="39.41627225423228" lon="8.516334091570476"><ele>182.2</ele><time>2026-05-01T10:19:46.999Z</time></trkpt><trkpt lat="39.416274903612525" lon="8.51620735104658"><ele>184.4</ele><time>2026-05-01T10:19:47.999Z</time></trkpt><trkpt lat="39.41635623168105" lon="8.516111090350103"><ele>186.60000000000002</ele><time>2026-05-01T10:19:48.999Z</time></trkpt><trkpt lat="39.41639098076322" lon="8.515964288435093"><ele>188.8</ele><time>2026-05-01T10:19:49.999Z</time></trkpt><trkpt lat="39.416430444623686" lon="8.515850892511232"><ele>191.0</ele><time>2026-05-01T10:19:50.999Z</time></trkpt><trkpt lat="39.41649217444956" lon="8.515771123588445"><ele>182.0</ele><time>2026-05-01T10:19:51.999Z</time></trkpt><trkpt lat="39.416618718317075" lon="8.515736550340662"><ele>173.0</ele><time>2026-05-01T10:19:52.999Z</time></trkpt><trkpt lat="39.41675655750034" lon="8.51567465380858"><ele>164.0</ele><time>2026-05-01T10:19:53.999Z</time></trkpt><trkpt lat="39.41687411784388" lon="8.51559292728681"><ele>155.0</ele><time>2026-05-01T10:19:54.999Z</time></trkpt><trkpt lat="39.416987212851126" lon="8.515598637700688"><ele>155.0</ele><time>2026-05-01T10:19:55.999Z</time></trkpt><trkpt lat="39.41706555502801" lon="8.51558595304827"><ele>155.0</ele><time>2026-05-01T10:19:56.999Z</time></trkpt><trkpt lat="39.417153131297844" lon="8.515503748249927"><ele>155.0</ele><time>2026-05-01T10:19:58.999Z</time></trkpt><trkpt lat="39.41713544579004" lon="8.515319113187084"><ele>155.0</ele><time>2026-05-01T10:20:00.999Z</time></trkpt><trkpt lat="39.41713706275788" lon="8.515179012323095"><ele>155.0</ele><time>2026-05-01T10:20:01.999Z</time></trkpt><trkpt lat="39.41714755695685" lon="8.515063960075587"><ele>153.0</ele><time>2026-05-01T10:20:02.999Z</time></trkpt><trkpt lat="39.417171098869275" lon="8.514983644127886"><ele>151.0</ele><time>2026-05-01T10:20:03.999Z</time></trkpt><trkpt lat="39.41725742490127" lon="8.514952218649384"><ele>149.0</ele><time>2026-05-01T10:20:04.999Z</time></trkpt><trkpt lat="39.41733802106533" lon="8.514893686399608"><ele>147.0</ele><time>2026-05-01T10:20:05.999Z</time></trkpt><trkpt lat="39.417416857879594" lon="8.51484380996465"><ele>145.0</ele><time>2026-05-01T10:20:06.999Z</time></trkpt><trkpt lat="39.41747195287949" lon="8.514770531294545"><ele>143.0</ele><time>2026-05-01T10:20:07.999Z</time></trkpt><trkpt lat="39.41749206347114" lon="8.514672770688062"><ele>143.0</ele><time>2026-05-01T10:20:08.999Z</time></trkpt><trkpt lat="39.41748147552624" lon="8.514574179006878"><ele>143.0</ele><time>2026-05-01T10:20:09.999Z</time></trkpt><trkpt lat="39.41744098936132" lon="8.514451913953675"><ele>143.0</ele><time>2026-05-01T10:20:10.999Z</time></trkpt><trkpt lat="39.41744652572684" lon="8.51431169678829"><ele>143.0</ele><time>2026-05-01T10:20:11.999Z</time></trkpt><trkpt lat="39.41743352845663" lon="8.514180974788138"><ele>143.0</ele><time>2026-05-01T10:20:12.999Z</time></trkpt><trkpt lat="39.41739190844028" lon="8.514087548195208"><ele>143.0</ele><time>2026-05-01T10:20:13.999Z</time></trkpt><trkpt lat="39.41732883662445" lon="8.514029751879786"><ele>143.0</ele><time>2026-05-01T10:20:14.999Z</time></trkpt><trkpt lat="39.41723719327083" lon="8.513969302149677"><ele>143.0</ele><time>2026-05-01T10:20:15.999Z</time></trkpt><trkpt lat="39.41714087378087" lon="8.513862082616448"><ele>143.0</ele><time>2026-05-01T10:20:16.999Z</time></trkpt><trkpt lat="39.417043010340315" lon="8.513768454106026"><ele>143.0</ele><time>2026-05-01T10:20:17.999Z</time></trkpt><trkpt lat="39.417019461971876" lon="8.513618152908668"><ele>144.5</ele><time>2026-05-01T10:20:18.999Z</time></trkpt><trkpt lat="39.41696169056742" lon="8.513518675505809"><ele>146.0</ele><time>2026-05-01T10:20:19.999Z</time></trkpt><trkpt lat="39.41688168535709" lon="8.513427083796651"><ele>147.5</ele><time>2026-05-01T10:20:20.999Z</time></trkpt><trkpt lat="39.41677612834361" lon="8.513354566686004"><ele>149.0</ele><time>2026-05-01T10:20:21.999Z</time></trkpt><trkpt lat="39.416657639156774" lon="8.513293159414717"><ele>149.0</ele><time>2026-05-01T10:20:22.999Z</time></trkpt><trkpt lat="39.416539965761366" lon="8.513211420289075"><ele>149.0</ele><time>2026-05-01T10:20:23.999Z</time></trkpt><trkpt lat="39.41640655874523" lon="8.513193251143784"><ele>149.0</ele><time>2026-05-01T10:20:24.999Z</time></trkpt><trkpt lat="39.41629985412105" lon="8.513143587530859"><ele>149.0</ele><time>2026-05-01T10:20:25.999Z</time></trkpt><trkpt lat="39.41621146292034" lon="8.51310969365056"><ele>152.4</ele><time>2026-05-01T10:20:26.999Z</time></trkpt><trkpt lat="39.4161656053316" lon="8.51303790050721"><ele>155.8</ele><time>2026-05-01T10:20:27.999Z</time></trkpt><trkpt lat="39.416130013375636" lon="8.51288341291476"><ele>159.20000000000002</ele><time>2026-05-01T10:20:29.999Z</time></trkpt><trkpt lat="39.41612819902228" lon="8.512779040508468"><ele>162.60000000000002</ele><time>2026-05-01T10:20:30.999Z</time></trkpt><trkpt lat="39.416132287922515" lon="8.512653134224784"><ele>166.0</ele><time>2026-05-01T10:20:31.999Z</time></trkpt><trkpt lat="39.41614334537931" lon="8.512521012493632"><ele>166.0</ele><time>2026-05-01T10:20:32.999Z</time></trkpt><trkpt lat="39.41612793399085" lon="8.512391565038397"><ele>166.0</ele><time>2026-05-01T10:20:33.999Z</time></trkpt><trkpt lat="39.4160791718055" lon="8.512277965492515"><ele>166.0</ele><time>2026-05-01T10:20:34.999Z</time></trkpt><trkpt lat="39.41603517833866" lon="8.51218116156031"><ele>166.0</ele><time>2026-05-01T10:20:35.999Z</time></trkpt><trkpt lat="39.416046648338" lon="8.512078178080024"><ele>166.0</ele><time>2026-05-01T10:20:36.999Z</time></trkpt><trkpt lat="39.41606733086024" lon="8.511956401504372"><ele>167.0</ele><time>2026-05-01T10:20:37.999Z</time></trkpt><trkpt lat="39.41608682535944" lon="8.511812159686036"><ele>168.0</ele><time>2026-05-01T10:20:38.999Z</time></trkpt><trkpt lat="39.4161064259774" lon="8.511655574117157"><ele>169.0</ele><time>2026-05-01T10:20:39.999Z</time></trkpt><trkpt lat="39.41610273316802" lon="8.511502524674855"><ele>170.0</ele><time>2026-05-01T10:20:40.999Z</time></trkpt><trkpt lat="39.41611056359878" lon="8.511370962547904"><ele>170.0</ele><time>2026-05-01T10:20:41.999Z</time></trkpt><trkpt lat="39.41610586591308" lon="8.511260646128525"><ele>170.0</ele><time>2026-05-01T10:20:43Z</time></trkpt><trkpt lat="39.41612957583245" lon="8.51113195505838"><ele>170.0</ele><time>2026-05-01T10:20:45Z</time></trkpt><trkpt lat="39.41622346699467" lon="8.51114236085546"><ele>170.0</ele><time>2026-05-01T10:20:47Z</time></trkpt><trkpt lat="39.41632836851916" lon="8.511250118453633"><ele>170.0</ele><time>2026-05-01T10:20:49Z</time></trkpt><trkpt lat="39.41637659229615" lon="8.511361771402912"><ele>167.0</ele><time>2026-05-01T10:20:50Z</time></trkpt><trkpt lat="39.41641710613963" lon="8.511497037035284"><ele>164.0</ele><time>2026-05-01T10:20:51Z</time></trkpt><trkpt lat="39.41646607436363" lon="8.511636941497649"><ele>161.0</ele><time>2026-05-01T10:20:52Z</time></trkpt><trkpt lat="39.41651460707295" lon="8.511731363166954"><ele>158.0</ele><time>2026-05-01T10:20:53Z</time></trkpt><trkpt lat="39.41660018598239" lon="8.51180407742247"><ele>155.0</ele><time>2026-05-01T10:20:54Z</time></trkpt><trkpt lat="39.41670129728434" lon="8.511868126074656"><ele>155.0</ele><time>2026-05-01T10:20:55Z</time></trkpt><trkpt lat="39.41679279909946" lon="8.51193019754803"><ele>155.0</ele><time>2026-05-01T10:20:56Z</time></trkpt><trkpt lat="39.416877742424596" lon="8.511924760256367"><ele>155.0</ele><time>2026-05-01T10:20:57Z</time></trkpt><trkpt lat="39.41694798461829" lon="8.511884332565543"><ele>155.0</ele><time>2026-05-01T10:20:58Z</time></trkpt><trkpt lat="39.41706039511634" lon="8.511811441521244"><ele>155.0</ele><time>2026-05-01T10:20:59Z</time></trkpt><trkpt lat="39.41717627147466" lon="8.511836637882425"><ele>156.8</ele><time>2026-05-01T10:21:00Z</time></trkpt><trkpt lat="39.41731169749602" lon="8.511833628543853"><ele>158.6</ele><time>2026-05-01T10:21:01Z</time></trkpt><trkpt lat="39.41742928605262" lon="8.511823976200828"><ele>160.39999999999998</ele><time>2026-05-01T10:21:02Z</time></trkpt><trkpt lat="39.417511949525355" lon="8.511833001392327"><ele>162.2</ele><time>2026-05-01T10:21:03Z</time></trkpt><trkpt lat="39.41757598629282" lon="8.511854278171786"><ele>164.0</ele><time>2026-05-01T10:21:04Z</time></trkpt><trkpt lat="39.41762460564218" lon="8.51191810697841"><ele>164.0</ele><time>2026-05-01T10:21:05Z</time></trkpt><trkpt lat="39.41767049024675" lon="8.512010776348596"><ele>164.0</ele><time>2026-05-01T10:21:06Z</time></trkpt><trkpt lat="39.41771540566337" lon="8.51214202660529"><ele>164.0</ele><time>2026-05-01T10:21:07Z</time></trkpt><trkpt lat="39.41774719080615" lon="8.512272172602739"><ele>164.0</ele><time>2026-05-01T10:21:08Z</time></trkpt><trkpt lat="39.417799852871234" lon="8.512375621304347"><ele>164.0</ele><time>2026-05-01T10:21:09Z</time></trkpt><trkpt lat="39.41783813951949" lon="8.512468285863712"><ele>161.39999999999998</ele><time>2026-05-01T10:21:10Z</time></trkpt><trkpt lat="39.417894597084896" lon="8.512529691136582"><ele>158.79999999999998</ele><time>2026-05-01T10:21:11Z</time></trkpt><trkpt lat="39.41796887859448" lon="8.512550764009474"><ele>156.2</ele><time>2026-05-01T10:21:12Z</time></trkpt><trkpt lat="39.41807281933694" lon="8.512535310313458"><ele>153.6</ele><time>2026-05-01T10:21:13Z</time></trkpt><trkpt lat="39.418199750909594" lon="8.512502410149416"><ele>151.0</ele><time>2026-05-01T10:21:14Z</time></trkpt><trkpt lat="39.41832681323868" lon="8.51247511797867"><ele>151.0</ele><time>2026-05-01T10:21:15Z</time></trkpt><trkpt lat="39.41844161876368" lon="8.512506445439454"><ele>151.0</ele><time>2026-05-01T10:21:16Z</time></trkpt><trkpt lat="39.41856697192872" lon="8.512541801476058"><ele>151.0</ele><time>2026-05-01T10:21:17Z</time></trkpt><trkpt lat="39.41868736097763" lon="8.512530300074953"><ele>151.0</ele><time>2026-05-01T10:21:18Z</time></trkpt><trkpt lat="39.41879423173081" lon="8.512486380996014"><ele>151.8</ele><time>2026-05-01T10:21:19Z</time></trkpt><trkpt lat="39.41886683415083" lon="8.512441571720966"><ele>152.6</ele><time>2026-05-01T10:21:20Z</time></trkpt><trkpt lat="39.418929303676094" lon="8.512362684871103"><ele>153.4</ele><time>2026-05-01T10:21:21Z</time></trkpt><trkpt lat="39.41899406680652" lon="8.512249311207848"><ele>154.2</ele><time>2026-05-01T10:21:22Z</time></trkpt><trkpt lat="39.419114933804956" lon="8.512150921359193"><ele>155.0</ele><time>2026-05-01T10:21:23Z</time></trkpt><trkpt lat="39.419216967325745" lon="8.51202896305299"><ele>155.0</ele><time>2026-05-01T10:21:24Z</time></trkpt><trkpt lat="39.41929408762716" lon="8.51194481786718"><ele>155.0</ele><time>2026-05-01T10:21:25Z</time></trkpt><trkpt lat="39.419341562820435" lon="8.511858844376086"><ele>155.0</ele><time>2026-05-01T10:21:25.999Z</time></trkpt><trkpt lat="39.41937412843629" lon="8.511739222097882"><ele>155.0</ele><time>2026-05-01T10:21:26.999Z</time></trkpt><trkpt lat="39.419395872961175" lon="8.511629916400908"><ele>155.0</ele><time>2026-05-01T10:21:27.999Z</time></trkpt><trkpt lat="39.41942659533628" lon="8.511557599951027"><ele>155.0</ele><time>2026-05-01T10:21:28.999Z</time></trkpt><trkpt lat="39.41948944908541" lon="8.511525383864512"><ele>155.0</ele><time>2026-05-01T10:21:29.999Z</time></trkpt><trkpt lat="39.41957959882682" lon="8.511525960857508"><ele>155.0</ele><time>2026-05-01T10:21:30.999Z</time></trkpt><trkpt lat="39.41968679615809" lon="8.511533567976711"><ele>155.0</ele><time>2026-05-01T10:21:31.999Z</time></trkpt><trkpt lat="39.41976943916729" lon="8.511510784222802"><ele>155.0</ele><time>2026-05-01T10:21:32.999Z</time></trkpt><trkpt lat="39.419847178139996" lon="8.511439274230757"><ele>155.0</ele><time>2026-05-01T10:21:33.999Z</time></trkpt><trkpt lat="39.41991965865783" lon="8.51135665272674"><ele>152.5</ele><time>2026-05-01T10:21:34.999Z</time></trkpt><trkpt lat="39.41998520458946" lon="8.511320624642718"><ele>150.0</ele><time>2026-05-01T10:21:35.999Z</time></trkpt><trkpt lat="39.42006697457746" lon="8.511444231460569"><ele>147.5</ele><time>2026-05-01T10:21:37.999Z</time></trkpt><trkpt lat="39.420073317374424" lon="8.511542367743026"><ele>145.0</ele><time>2026-05-01T10:21:38.999Z</time></trkpt><trkpt lat="39.42011328411712" lon="8.51162857827703"><ele>142.5</ele><time>2026-05-01T10:21:39.999Z</time></trkpt><trkpt lat="39.42016903678127" lon="8.511686798797191"><ele>140.0</ele><time>2026-05-01T10:21:40.999Z</time></trkpt><trkpt lat="39.42025343204929" lon="8.511700147295329"><ele>140.0</ele><time>2026-05-01T10:21:41.999Z</time></trkpt><trkpt lat="39.420360311131454" lon="8.511668129846166"><ele>140.0</ele><time>2026-05-01T10:21:42.999Z</time></trkpt><trkpt lat="39.42047581784333" lon="8.511642439969423"><ele>140.0</ele><time>2026-05-01T10:21:43.999Z</time></trkpt><trkpt lat="39.42056910225336" lon="8.511620626086913"><ele>140.0</ele><time>2026-05-01T10:21:44.999Z</time></trkpt><trkpt lat="39.42064452323817" lon="8.511572291037545"><ele>140.0</ele><time>2026-05-01T10:21:45.999Z</time></trkpt><trkpt lat="39.420710864243375" lon="8.511480902226007"><ele>139.0</ele><time>2026-05-01T10:21:46.999Z</time></trkpt><trkpt lat="39.420793539949976" lon="8.511334245923226"><ele>138.0</ele><time>2026-05-01T10:21:47.999Z</time></trkpt><trkpt lat="39.42088175082191" lon="8.511218952818199"><ele>137.0</ele><time>2026-05-01T10:21:48.999Z</time></trkpt><trkpt lat="39.42095597845829" lon="8.511138254770618"><ele>136.0</ele><time>2026-05-01T10:21:49.999Z</time></trkpt><trkpt lat="39.421041528164565" lon="8.511144024684171"><ele>135.0</ele><time>2026-05-01T10:21:50.999Z</time></trkpt><trkpt lat="39.42113877173303" lon="8.51110759597071"><ele>136.66666666666666</ele><time>2026-05-01T10:21:51.999Z</time></trkpt><trkpt lat="39.42122630584821" lon="8.511048354376857"><ele>138.33333333333334</ele><time>2026-05-01T10:21:52.999Z</time></trkpt><trkpt lat="39.42127874739216" lon="8.510954637797587"><ele>140.0</ele><time>2026-05-01T10:21:53.999Z</time></trkpt><trkpt lat="39.42134797173994" lon="8.510871794596627"><ele>141.66666666666669</ele><time>2026-05-01T10:21:54.999Z</time></trkpt><trkpt lat="39.42141584480754" lon="8.51084939725301"><ele>143.33333333333334</ele><time>2026-05-01T10:21:55.999Z</time></trkpt><trkpt lat="39.42147708506071" lon="8.510888081087359"><ele>145.0</ele><time>2026-05-01T10:21:56.999Z</time></trkpt><trkpt lat="39.42155221569952" lon="8.510923635461591"><ele>145.0</ele><time>2026-05-01T10:21:57.999Z</time></trkpt><trkpt lat="39.4216746429751" lon="8.51093139117586"><ele>145.0</ele><time>2026-05-01T10:21:58.999Z</time></trkpt><trkpt lat="39.421782573236214" lon="8.510961700471388"><ele>145.0</ele><time>2026-05-01T10:21:59.999Z</time></trkpt><trkpt lat="39.42186192330958" lon="8.510949925913694"><ele>145.0</ele><time>2026-05-01T10:22:00.999Z</time></trkpt><trkpt lat="39.421970044662196" lon="8.510893870293618"><ele>145.0</ele><time>2026-05-01T10:22:02.999Z</time></trkpt><trkpt lat="39.421999822181526" lon="8.510793570082477"><ele>145.0</ele><time>2026-05-01T10:22:03.999Z</time></trkpt><trkpt lat="39.422010756483125" lon="8.510659595496076"><ele>145.0</ele><time>2026-05-01T10:22:04.999Z</time></trkpt><trkpt lat="39.42199258287365" lon="8.510527090325512"><ele>145.0</ele><time>2026-05-01T10:22:05.999Z</time></trkpt><trkpt lat="39.42194491072487" lon="8.510419994340122"><ele>145.0</ele><time>2026-05-01T10:22:06.999Z</time></trkpt><trkpt lat="39.421925140640305" lon="8.510321668890398"><ele>145.0</ele><time>2026-05-01T10:22:07.999Z</time></trkpt><trkpt lat="39.42191497265837" lon="8.510231712788492"><ele>142.83333333333334</ele><time>2026-05-01T10:22:08.999Z</time></trkpt><trkpt lat="39.42196336895461" lon="8.510128423519895"><ele>140.66666666666669</ele><time>2026-05-01T10:22:09.999Z</time></trkpt><trkpt lat="39.42205361266573" lon="8.510087127393003"><ele>138.5</ele><time>2026-05-01T10:22:10.999Z</time></trkpt><trkpt lat="39.4221318503639" lon="8.510047746395774"><ele>136.33333333333334</ele><time>2026-05-01T10:22:11.999Z</time></trkpt><trkpt lat="39.42219066763274" lon="8.510000294059243"><ele>134.16666666666666</ele><time>2026-05-01T10:22:12.999Z</time></trkpt><trkpt lat="39.42224819804873" lon="8.509953281549262"><ele>132.0</ele><time>2026-05-01T10:22:13.999Z</time></trkpt><trkpt lat="39.42226186902088" lon="8.50982715636437"><ele>132.0</ele><time>2026-05-01T10:22:14.999Z</time></trkpt><trkpt lat="39.422275210304825" lon="8.509686016763428"><ele>132.0</ele><time>2026-05-01T10:22:15.999Z</time></trkpt><trkpt lat="39.42232534041741" lon="8.509549811973077"><ele>132.0</ele><time>2026-05-01T10:22:16.999Z</time></trkpt><trkpt lat="39.4223628822939" lon="8.509389602514817"><ele>132.0</ele><time>2026-05-01T10:22:17.999Z</time></trkpt><trkpt lat="39.42240969014086" lon="8.509223951810318"><ele>135.25</ele><time>2026-05-01T10:22:18.999Z</time></trkpt><trkpt lat="39.42244634502736" lon="8.509059561180438"><ele>138.5</ele><time>2026-05-01T10:22:19.999Z</time></trkpt><trkpt lat="39.42248209879125" lon="8.508911307221778"><ele>141.75</ele><time>2026-05-01T10:22:20.999Z</time></trkpt><trkpt lat="39.42251519460156" lon="8.50877353187703"><ele>145.0</ele><time>2026-05-01T10:22:21.999Z</time></trkpt><trkpt lat="39.422576885730265" lon="8.508661596152304"><ele>143.5</ele><time>2026-05-01T10:22:22.999Z</time></trkpt><trkpt lat="39.42268050445965" lon="8.50858945065966"><ele>142.0</ele><time>2026-05-01T10:22:23.999Z</time></trkpt><trkpt lat="39.422787988209784" lon="8.508513298141066"><ele>140.5</ele><time>2026-05-01T10:22:24.999Z</time></trkpt><trkpt lat="39.422908122330384" lon="8.508446631934909"><ele>139.0</ele><time>2026-05-01T10:22:25.999Z</time></trkpt><trkpt lat="39.42303689447595" lon="8.508399050529535"><ele>139.0</ele><time>2026-05-01T10:22:26.999Z</time></trkpt><trkpt lat="39.42316182191319" lon="8.508349013216893"><ele>139.0</ele><time>2026-05-01T10:22:27.999Z</time></trkpt><trkpt lat="39.423273583995865" lon="8.50829654520589"><ele>139.0</ele><time>2026-05-01T10:22:28.999Z</time></trkpt><trkpt lat="39.42336538056534" lon="8.508244101277306"><ele>139.0</ele><time>2026-05-01T10:22:29.999Z</time></trkpt><trkpt lat="39.42343687748014" lon="8.50816318285562"><ele>139.0</ele><time>2026-05-01T10:22:30.999Z</time></trkpt><trkpt lat="39.42350582930724" lon="8.508072497595347"><ele>139.0</ele><time>2026-05-01T10:22:31.999Z</time></trkpt><trkpt lat="39.42351900632611" lon="8.50794378005264"><ele>139.0</ele><time>2026-05-01T10:22:32.999Z</time></trkpt><trkpt lat="39.42354241946528" lon="8.507824970401513"><ele>139.0</ele><time>2026-05-01T10:22:33.999Z</time></trkpt><trkpt lat="39.4235505020997" lon="8.507686456731973"><ele>139.0</ele><time>2026-05-01T10:22:34.999Z</time></trkpt><trkpt lat="39.423552862755386" lon="8.50755008926494"><ele>139.0</ele><time>2026-05-01T10:22:35.999Z</time></trkpt><trkpt lat="39.42355067515279" lon="8.507420265326244"><ele>141.0</ele><time>2026-05-01T10:22:36.999Z</time></trkpt><trkpt lat="39.42353894651975" lon="8.50730670229105"><ele>143.0</ele><time>2026-05-01T10:22:37.999Z</time></trkpt><trkpt lat="39.42354125831523" lon="8.507190716320647"><ele>145.0</ele><time>2026-05-01T10:22:38.999Z</time></trkpt><trkpt lat="39.42353751159083" lon="8.507098305241904"><ele>147.0</ele><time>2026-05-01T10:22:39.999Z</time></trkpt><trkpt lat="39.423534328057286" lon="8.506998931244132"><ele>149.0</ele><time>2026-05-01T10:22:40.999Z</time></trkpt><trkpt lat="39.42353189255477" lon="8.506883824974524"><ele>151.0</ele><time>2026-05-01T10:22:41.999Z</time></trkpt><trkpt lat="39.4235358913398" lon="8.50676491501164"><ele>151.4</ele><time>2026-05-01T10:22:42.998Z</time></trkpt><trkpt lat="39.42354141807243" lon="8.506609997926548"><ele>151.8</ele><time>2026-05-01T10:22:43.998Z</time></trkpt><trkpt lat="39.42352569040092" lon="8.506481255132712"><ele>152.20000000000002</ele><time>2026-05-01T10:22:44.998Z</time></trkpt><trkpt lat="39.42353532226778" lon="8.506366640321586"><ele>152.6</ele><time>2026-05-01T10:22:45.998Z</time></trkpt><trkpt lat="39.42354331537921" lon="8.506243398742722"><ele>153.0</ele><time>2026-05-01T10:22:46.998Z</time></trkpt><trkpt lat="39.423561841754626" lon="8.506114097450727"><ele>155.0</ele><time>2026-05-01T10:22:47.998Z</time></trkpt><trkpt lat="39.42359459755159" lon="8.505979834260186"><ele>157.0</ele><time>2026-05-01T10:22:49Z</time></trkpt><trkpt lat="39.423639779870506" lon="8.505859175132898"><ele>159.0</ele><time>2026-05-01T10:22:50Z</time></trkpt><trkpt lat="39.42370145483165" lon="8.50576880527967"><ele>161.0</ele><time>2026-05-01T10:22:51Z</time></trkpt><trkpt lat="39.42377405563992" lon="8.505679477197843"><ele>163.0</ele><time>2026-05-01T10:22:52Z</time></trkpt><trkpt lat="39.423874931607074" lon="8.505604903324315"><ele>161.8</ele><time>2026-05-01T10:22:53Z</time></trkpt><trkpt lat="39.42396231782596" lon="8.505535486445819"><ele>160.60000000000002</ele><time>2026-05-01T10:22:54Z</time></trkpt><trkpt lat="39.42404959121262" lon="8.505436980263603"><ele>159.39999999999998</ele><time>2026-05-01T10:22:55Z</time></trkpt><trkpt lat="39.42414362603749" lon="8.505381876242499"><ele>158.2</ele><time>2026-05-01T10:22:56Z</time></trkpt><trkpt lat="39.42425538428304" lon="8.505343266219851"><ele>157.0</ele><time>2026-05-01T10:22:57Z</time></trkpt><trkpt lat="39.42436228393507" lon="8.5053111164241"><ele>157.0</ele><time>2026-05-01T10:22:58Z</time></trkpt><trkpt lat="39.424460749791486" lon="8.505266434476304"><ele>157.0</ele><time>2026-05-01T10:22:59Z</time></trkpt><trkpt lat="39.42454262592796" lon="8.50522436454203"><ele>157.0</ele><time>2026-05-01T10:23:00Z</time></trkpt><trkpt lat="39.424629422120624" lon="8.50514706719078"><ele>157.0</ele><time>2026-05-01T10:23:01Z</time></trkpt><trkpt lat="39.424720667620115" lon="8.50505631351456"><ele>157.0</ele><time>2026-05-01T10:23:02Z</time></trkpt><trkpt lat="39.424813396016795" lon="8.504976698902281"><ele>152.6</ele><time>2026-05-01T10:23:03Z</time></trkpt><trkpt lat="39.4248960950965" lon="8.504903352526776"><ele>148.2</ele><time>2026-05-01T10:23:04Z</time></trkpt><trkpt lat="39.424972067336846" lon="8.504806798834649"><ele>143.8</ele><time>2026-05-01T10:23:05Z</time></trkpt><trkpt lat="39.425037358275034" lon="8.504704635200724"><ele>139.4</ele><time>2026-05-01T10:23:06Z</time></trkpt><trkpt lat="39.42508763399421" lon="8.504609960044663"><ele>135.0</ele><time>2026-05-01T10:23:07Z</time></trkpt><trkpt lat="39.42513293045665" lon="8.504520845788884"><ele>135.0</ele><time>2026-05-01T10:23:08Z</time></trkpt><trkpt lat="39.425159011500696" lon="8.504402715005803"><ele>135.0</ele><time>2026-05-01T10:23:09Z</time></trkpt><trkpt lat="39.42513643072717" lon="8.504262374824332"><ele>135.0</ele><time>2026-05-01T10:23:10Z</time></trkpt><trkpt lat="39.4250825144072" lon="8.504146941240025"><ele>135.0</ele><time>2026-05-01T10:23:11Z</time></trkpt><trkpt lat="39.42498149689305" lon="8.504087049911272"><ele>135.0</ele><time>2026-05-01T10:23:12Z</time></trkpt><trkpt lat="39.42492020746688" lon="8.504001668538372"><ele>135.0</ele><time>2026-05-01T10:23:13Z</time></trkpt><trkpt lat="39.42485670111318" lon="8.503937396416521"><ele>135.0</ele><time>2026-05-01T10:23:14Z</time></trkpt><trkpt lat="39.42482264595772" lon="8.503862644476886"><ele>135.0</ele><time>2026-05-01T10:23:15Z</time></trkpt><trkpt lat="39.42481656709656" lon="8.503764939748065"><ele>135.0</ele><time>2026-05-01T10:23:15.999Z</time></trkpt><trkpt lat="39.42481745859594" lon="8.503630592959894"><ele>135.0</ele><time>2026-05-01T10:23:16.999Z</time></trkpt><trkpt lat="39.424835578664464" lon="8.503469716192578"><ele>133.5</ele><time>2026-05-01T10:23:17.999Z</time></trkpt><trkpt lat="39.42486414320146" lon="8.503291699634437"><ele>132.0</ele><time>2026-05-01T10:23:18.999Z</time></trkpt><trkpt lat="39.4248960604748" lon="8.503105597775889"><ele>130.5</ele><time>2026-05-01T10:23:19.999Z</time></trkpt><trkpt lat="39.424927829885895" lon="8.502925034664267"><ele>129.0</ele><time>2026-05-01T10:23:20.999Z</time></trkpt><trkpt lat="39.424944276222384" lon="8.502766282559046"><ele>129.0</ele><time>2026-05-01T10:23:21.999Z</time></trkpt><trkpt lat="39.424984784042465" lon="8.502627833110953"><ele>129.0</ele><time>2026-05-01T10:23:22.999Z</time></trkpt><trkpt lat="39.42499804702477" lon="8.502494327877956"><ele>129.0</ele><time>2026-05-01T10:23:23.999Z</time></trkpt><trkpt lat="39.424984579594216" lon="8.502375251672342"><ele>129.0</ele><time>2026-05-01T10:23:24.999Z</time></trkpt><trkpt lat="39.42495458006559" lon="8.502257252124338"><ele>129.0</ele><time>2026-05-01T10:23:25.999Z</time></trkpt><trkpt lat="39.42491746527962" lon="8.502174211128949"><ele>129.0</ele><time>2026-05-01T10:23:26.999Z</time></trkpt><trkpt lat="39.424857450207256" lon="8.50211587069593"><ele>129.0</ele><time>2026-05-01T10:23:27.999Z</time></trkpt><trkpt lat="39.42476191235087" lon="8.502068156084707"><ele>129.0</ele><time>2026-05-01T10:23:28.999Z</time></trkpt><trkpt lat="39.42465967608137" lon="8.501974727015515"><ele>129.0</ele><time>2026-05-01T10:23:29.999Z</time></trkpt><trkpt lat="39.42453298204465" lon="8.501889416579512"><ele>129.0</ele><time>2026-05-01T10:23:30.999Z</time></trkpt><trkpt lat="39.42441004806317" lon="8.50178692634814"><ele>129.8</ele><time>2026-05-01T10:23:31.999Z</time></trkpt><trkpt lat="39.42430132301939" lon="8.501688762794346"><ele>130.60000000000002</ele><time>2026-05-01T10:23:32.999Z</time></trkpt><trkpt lat="39.42421696047815" lon="8.501601704154684"><ele>131.4</ele><time>2026-05-01T10:23:33.999Z</time></trkpt><trkpt lat="39.424147857502604" lon="8.501537828963459"><ele>132.20000000000002</ele><time>2026-05-01T10:23:34.999Z</time></trkpt><trkpt lat="39.424082016277254" lon="8.501517377051218"><ele>133.0</ele><time>2026-05-01T10:23:35.999Z</time></trkpt><trkpt lat="39.4240129496785" lon="8.501516865574596"><ele>133.0</ele><time>2026-05-01T10:23:36.999Z</time></trkpt><trkpt lat="39.42393879348749" lon="8.501564248729204"><ele>133.0</ele><time>2026-05-01T10:23:37.999Z</time></trkpt><trkpt lat="39.42385135030449" lon="8.501613645013247"><ele>133.0</ele><time>2026-05-01T10:23:38.999Z</time></trkpt><trkpt lat="39.42376906816532" lon="8.501673689388914"><ele>133.0</ele><time>2026-05-01T10:23:39.999Z</time></trkpt><trkpt lat="39.42367447595192" lon="8.501741745659952"><ele>133.0</ele><time>2026-05-01T10:23:40.999Z</time></trkpt><trkpt lat="39.42359626340159" lon="8.501787521201317"><ele>132.4</ele><time>2026-05-01T10:23:41.999Z</time></trkpt><trkpt lat="39.42351074018657" lon="8.501819707311235"><ele>131.8</ele><time>2026-05-01T10:23:42.999Z</time></trkpt><trkpt lat="39.423429260810586" lon="8.501822369872494"><ele>131.2</ele><time>2026-05-01T10:23:43.999Z</time></trkpt><trkpt lat="39.42336078546029" lon="8.50174706514942"><ele>130.6</ele><time>2026-05-01T10:23:44.999Z</time></trkpt><trkpt lat="39.423262217740415" lon="8.501680679764547"><ele>130.0</ele><time>2026-05-01T10:23:45.999Z</time></trkpt><trkpt lat="39.42315455338079" lon="8.501630258537512"><ele>130.0</ele><time>2026-05-01T10:23:46.999Z</time></trkpt><trkpt lat="39.42307221024072" lon="8.501608017402292"><ele>130.0</ele><time>2026-05-01T10:23:47.999Z</time></trkpt><trkpt lat="39.42298368134408" lon="8.501618200977083"><ele>130.0</ele><time>2026-05-01T10:23:48.999Z</time></trkpt><trkpt lat="39.42285530346981" lon="8.501641858039083"><ele>130.0</ele><time>2026-05-01T10:23:49.999Z</time></trkpt><trkpt lat="39.422688750751085" lon="8.501695912945602"><ele>129.5</ele><time>2026-05-01T10:23:50.999Z</time></trkpt><trkpt lat="39.42251538849024" lon="8.501713945058318"><ele>129.0</ele><time>2026-05-01T10:23:51.999Z</time></trkpt><trkpt lat="39.42239761608279" lon="8.501734020441136"><ele>128.5</ele><time>2026-05-01T10:23:52.999Z</time></trkpt><trkpt lat="39.42230562888488" lon="8.501773448096246"><ele>128.0</ele><time>2026-05-01T10:23:53.999Z</time></trkpt><trkpt lat="39.42220524396441" lon="8.50186300455746"><ele>127.80000000000001</ele><time>2026-05-01T10:23:54.999Z</time></trkpt><trkpt lat="39.42209080436837" lon="8.501965124055303"><ele>127.60000000000001</ele><time>2026-05-01T10:23:55.999Z</time></trkpt><trkpt lat="39.42199367092864" lon="8.501984546130553"><ele>127.39999999999999</ele><time>2026-05-01T10:23:56.999Z</time></trkpt><trkpt lat="39.421918781968614" lon="8.502007985637803"><ele>127.19999999999999</ele><time>2026-05-01T10:23:57.999Z</time></trkpt><trkpt lat="39.421806958152345" lon="8.502016656984832"><ele>127.0</ele><time>2026-05-01T10:23:59.999Z</time></trkpt><trkpt lat="39.42172258590956" lon="8.501985547931609"><ele>127.0</ele><time>2026-05-01T10:24:01.999Z</time></trkpt><trkpt lat="39.4216513730826" lon="8.501938474260006"><ele>127.0</ele><time>2026-05-01T10:24:03.999Z</time></trkpt><trkpt lat="39.42156944608457" lon="8.501871481326225"><ele>127.0</ele><time>2026-05-01T10:24:05.999Z</time></trkpt><trkpt lat="39.42149954122257" lon="8.501824242366443"><ele>127.0</ele><time>2026-05-01T10:24:07.999Z</time></trkpt><trkpt lat="39.42143983813354" lon="8.501797688103311"><ele>127.0</ele><time>2026-05-01T10:24:10.999Z</time></trkpt></trkseg><trkseg><trkpt lat="39.42141307894384" lon="8.50180724853293"><ele>127.0</ele><time>2026-05-01T11:03:16Z</time></trkpt><trkpt lat="39.4213500734748" lon="8.501777380091776"><ele>127.0</ele><time>2026-05-01T11:03:27Z</time></trkpt><trkpt lat="39.42130319841965" lon="8.501701625130522"><ele>127.0</ele><time>2026-05-01T11:03:29Z</time></trkpt><trkpt lat="39.421271624556674" lon="8.501626151629708"><ele>127.0</ele><time>2026-05-01T11:03:31Z</time></trkpt><trkpt lat="39.42130897956907" lon="8.501535445872099"><ele>127.0</ele><time>2026-05-01T11:03:33Z</time></trkpt><trkpt lat="39.42137726432246" lon="8.501499741768717"><ele>127.0</ele><time>2026-05-01T11:03:34Z</time></trkpt><trkpt lat="39.42145128887765" lon="8.50146082143673"><ele>127.0</ele><time>2026-05-01T11:03:35Z</time></trkpt><trkpt lat="39.42153964744729" lon="8.501397298698745"><ele>127.0</ele><time>2026-05-01T11:03:36Z</time></trkpt><trkpt lat="39.421622745990284" lon="8.501305683068864"><ele>127.0</ele><time>2026-05-01T11:03:37Z</time></trkpt><trkpt lat="39.42170827443088" lon="8.501154744128197"><ele>127.0</ele><time>2026-05-01T11:03:38Z</time></trkpt><trkpt lat="39.42180556439791" lon="8.50100092832069"><ele>127.0</ele><time>2026-05-01T11:03:39Z</time></trkpt><trkpt lat="39.42187241171004" lon="8.500913448252689"><ele>125.75</ele><time>2026-05-01T11:03:40Z</time></trkpt><trkpt lat="39.421915623662464" lon="8.50083638225704"><ele>124.5</ele><time>2026-05-01T11:03:41Z</time></trkpt><trkpt lat="39.42193456998569" lon="8.500716534791012"><ele>123.25</ele><time>2026-05-01T11:03:42Z</time></trkpt><trkpt lat="39.42193142885148" lon="8.50053475624883"><ele>122.0</ele><time>2026-05-01T11:03:43Z</time></trkpt><trkpt lat="39.421945759827274" lon="8.500338879149968"><ele>121.99999999999999</ele><time>2026-05-01T11:03:44Z</time></trkpt><trkpt lat="39.42196573852558" lon="8.5002087710505"><ele>122.0</ele><time>2026-05-01T11:03:45Z</time></trkpt><trkpt lat="39.42191614948589" lon="8.500124151389606"><ele>122.0</ele><time>2026-05-01T11:03:47Z</time></trkpt><trkpt lat="39.42185172852626" lon="8.500088503493247"><ele>122.0</ele><time>2026-05-01T11:03:48Z</time></trkpt><trkpt lat="39.42178302945003" lon="8.500078298097854"><ele>121.99999999999999</ele><time>2026-05-01T11:03:49Z</time></trkpt><trkpt lat="39.421684055427825" lon="8.500049854199649"><ele>122.0</ele><time>2026-05-01T11:03:51Z</time></trkpt><trkpt lat="39.42161807826564" lon="8.499991558192635"><ele>121.99999999999999</ele><time>2026-05-01T11:03:53Z</time></trkpt><trkpt lat="39.42154891043881" lon="8.499893536629312"><ele>122.0</ele><time>2026-05-01T11:03:55Z</time></trkpt><trkpt lat="39.421479178809676" lon="8.49977459158841"><ele>122.0</ele><time>2026-05-01T11:03:57Z</time></trkpt><trkpt lat="39.42146658128338" lon="8.499651214589802"><ele>122.0</ele><time>2026-05-01T11:03:59Z</time></trkpt><trkpt lat="39.42148066282756" lon="8.499563055297296"><ele>121.99999999999999</ele><time>2026-05-01T11:04:00.999Z</time></trkpt><trkpt lat="39.42148066283081" lon="8.49948124736993"><ele>122.0</ele><time>2026-05-01T11:04:02.999Z</time></trkpt><trkpt lat="39.42145648276886" lon="8.499335874978742"><ele>119.83333333333333</ele><time>2026-05-01T11:04:04.999Z</time></trkpt><trkpt lat="39.42144296211139" lon="8.499256234111815"><ele>117.66666666666666</ele><time>2026-05-01T11:04:05.999Z</time></trkpt><trkpt lat="39.42139716803493" lon="8.499186358796397"><ele>115.5</ele><time>2026-05-01T11:04:06.999Z</time></trkpt><trkpt lat="39.421326077525" lon="8.499134837831326"><ele>113.33333333333334</ele><time>2026-05-01T11:04:07.999Z</time></trkpt><trkpt lat="39.42125388755147" lon="8.49907738020702"><ele>111.16666666666667</ele><time>2026-05-01T11:04:09.999Z</time></trkpt><trkpt lat="39.42128060374296" lon="8.498960440974688"><ele>109.0</ele><time>2026-05-01T11:04:12.999Z</time></trkpt><trkpt lat="39.42140158613164" lon="8.498910371326438"><ele>109.00000000000001</ele><time>2026-05-01T11:04:14.999Z</time></trkpt><trkpt lat="39.42148200545707" lon="8.498901442626616"><ele>109.0</ele><time>2026-05-01T11:04:15.999Z</time></trkpt><trkpt lat="39.421566014742034" lon="8.498915593858525"><ele>109.0</ele><time>2026-05-01T11:04:16.999Z</time></trkpt><trkpt lat="39.42164129041818" lon="8.498936988397325"><ele>109.0</ele><time>2026-05-01T11:04:17.999Z</time></trkpt><trkpt lat="39.42172559970647" lon="8.4989642213288"><ele>109.00000000000001</ele><time>2026-05-01T11:04:18.999Z</time></trkpt><trkpt lat="39.42180030212325" lon="8.498981890686213"><ele>109.0</ele><time>2026-05-01T11:04:19.999Z</time></trkpt><trkpt lat="39.42191499137622" lon="8.49896615227199"><ele>109.00000000000001</ele><time>2026-05-01T11:04:21.999Z</time></trkpt><trkpt lat="39.42194888699163" lon="8.498878798920616"><ele>109.0</ele><time>2026-05-01T11:04:22.999Z</time></trkpt><trkpt lat="39.42194619766743" lon="8.498785983381095"><ele>109.0</ele><time>2026-05-01T11:04:23.999Z</time></trkpt><trkpt lat="39.42196370500611" lon="8.498671157228559"><ele>109.0</ele><time>2026-05-01T11:04:25.999Z</time></trkpt><trkpt lat="39.42205098877725" lon="8.498679274981994"><ele>109.00000000000001</ele><time>2026-05-01T11:04:27.999Z</time></trkpt><trkpt lat="39.422128589817795" lon="8.498690125327183"><ele>109.0</ele><time>2026-05-01T11:04:29.999Z</time></trkpt><trkpt lat="39.422168120774096" lon="8.498773343963647"><ele>111.6</ele><time>2026-05-01T11:04:33.999Z</time></trkpt><trkpt lat="39.42219157783299" lon="8.49888413400542"><ele>114.2</ele><time>2026-05-01T11:04:36.999Z</time></trkpt><trkpt lat="39.42220847823642" lon="8.49897468898467"><ele>116.79999999999998</ele><time>2026-05-01T11:04:37.999Z</time></trkpt><trkpt lat="39.42223577756689" lon="8.499089533666098"><ele>119.39999999999999</ele><time>2026-05-01T11:04:38.999Z</time></trkpt><trkpt lat="39.42225815249363" lon="8.499226441071055"><ele>122.0</ele><time>2026-05-01T11:04:39.999Z</time></trkpt><trkpt lat="39.42230401890154" lon="8.499367184482018"><ele>122.0</ele><time>2026-05-01T11:04:40.999Z</time></trkpt><trkpt lat="39.42235657224359" lon="8.499503045862284"><ele>122.0</ele><time>2026-05-01T11:04:41.999Z</time></trkpt><trkpt lat="39.42241991190526" lon="8.499634967899654"><ele>122.0</ele><time>2026-05-01T11:04:42.999Z</time></trkpt><trkpt lat="39.422485338468256" lon="8.499766355671085"><ele>122.0</ele><time>2026-05-01T11:04:43.999Z</time></trkpt><trkpt lat="39.422544406144304" lon="8.49989606928178"><ele>119.5</ele><time>2026-05-01T11:04:44.999Z</time></trkpt><trkpt lat="39.42258024233773" lon="8.500031378379592"><ele>117.0</ele><time>2026-05-01T11:04:45.999Z</time></trkpt><trkpt lat="39.4225694371333" lon="8.500171830345291"><ele>114.5</ele><time>2026-05-01T11:04:46.999Z</time></trkpt><trkpt lat="39.422489439198465" lon="8.500289547907348"><ele>112.0</ele><time>2026-05-01T11:04:48Z</time></trkpt><trkpt lat="39.42245851581897" lon="8.500437176726766"><ele>110.39999999999999</ele><time>2026-05-01T11:04:49Z</time></trkpt><trkpt lat="39.42244585302046" lon="8.500577983487409"><ele>108.79999999999998</ele><time>2026-05-01T11:04:50Z</time></trkpt><trkpt lat="39.42249389569382" lon="8.500707816523189"><ele>107.2</ele><time>2026-05-01T11:04:51Z</time></trkpt><trkpt lat="39.42258705443825" lon="8.500788856343524"><ele>105.6</ele><time>2026-05-01T11:04:52Z</time></trkpt><trkpt lat="39.42269591521253" lon="8.500811077384823"><ele>104.0</ele><time>2026-05-01T11:04:53Z</time></trkpt><trkpt lat="39.422805910959205" lon="8.500757740880585"><ele>104.0</ele><time>2026-05-01T11:04:54Z</time></trkpt><trkpt lat="39.42289900803992" lon="8.500673640317947"><ele>104.0</ele><time>2026-05-01T11:04:55Z</time></trkpt><trkpt lat="39.42299593606201" lon="8.500637367241959"><ele>104.0</ele><time>2026-05-01T11:04:56Z</time></trkpt><trkpt lat="39.42312373430146" lon="8.500569636868908"><ele>104.0</ele><time>2026-05-01T11:04:57Z</time></trkpt><trkpt lat="39.423260141099945" lon="8.500525326951557"><ele>104.5</ele><time>2026-05-01T11:04:58Z</time></trkpt><trkpt lat="39.42339312833704" lon="8.500496800368085"><ele>105.0</ele><time>2026-05-01T11:04:59Z</time></trkpt><trkpt lat="39.42352938448959" lon="8.50046394931903"><ele>105.5</ele><time>2026-05-01T11:05:00Z</time></trkpt><trkpt lat="39.42364734319387" lon="8.500379604264326"><ele>106.0</ele><time>2026-05-01T11:05:01Z</time></trkpt><trkpt lat="39.42377921715088" lon="8.500303185061677"><ele>107.0</ele><time>2026-05-01T11:05:02Z</time></trkpt><trkpt lat="39.42389885385326" lon="8.500205067974559"><ele>108.0</ele><time>2026-05-01T11:05:03Z</time></trkpt><trkpt lat="39.42400697112323" lon="8.500118808000288"><ele>109.0</ele><time>2026-05-01T11:05:04Z</time></trkpt><trkpt lat="39.42410872049035" lon="8.500041250848085"><ele>110.0</ele><time>2026-05-01T11:05:05Z</time></trkpt><trkpt lat="39.4242068395988" lon="8.499984946133088"><ele>110.0</ele><time>2026-05-01T11:05:06Z</time></trkpt><trkpt lat="39.424301018427826" lon="8.499978248075246"><ele>110.0</ele><time>2026-05-01T11:05:07Z</time></trkpt><trkpt lat="39.42438258291201" lon="8.500034270760251"><ele>110.0</ele><time>2026-05-01T11:05:08Z</time></trkpt><trkpt lat="39.42442871252686" lon="8.500168069400372"><ele>110.0</ele><time>2026-05-01T11:05:09Z</time></trkpt><trkpt lat="39.42451083138573" lon="8.500299475899196"><ele>110.0</ele><time>2026-05-01T11:05:10Z</time></trkpt><trkpt lat="39.42457574127953" lon="8.500450443065178"><ele>109.0</ele><time>2026-05-01T11:05:11Z</time></trkpt><trkpt lat="39.42465651178998" lon="8.500596626572813"><ele>108.0</ele><time>2026-05-01T11:05:12Z</time></trkpt><trkpt lat="39.4247432484878" lon="8.5007421181673"><ele>107.0</ele><time>2026-05-01T11:05:13Z</time></trkpt><trkpt lat="39.424836546945855" lon="8.500882410545925"><ele>106.0</ele><time>2026-05-01T11:05:14Z</time></trkpt><trkpt lat="39.42494559546913" lon="8.501001689037171"><ele>106.0</ele><time>2026-05-01T11:05:15Z</time></trkpt><trkpt lat="39.4250764561643" lon="8.501094013980355"><ele>106.0</ele><time>2026-05-01T11:05:16Z</time></trkpt><trkpt lat="39.42521996668481" lon="8.501159372241265"><ele>106.0</ele><time>2026-05-01T11:05:17Z</time></trkpt><trkpt lat="39.42536842793571" lon="8.501192887774263"><ele>105.25</ele><time>2026-05-01T11:05:18Z</time></trkpt><trkpt lat="39.42551381554977" lon="8.501206348320885"><ele>104.5</ele><time>2026-05-01T11:05:19Z</time></trkpt><trkpt lat="39.42564102072501" lon="8.501238586483414"><ele>103.75</ele><time>2026-05-01T11:05:20Z</time></trkpt><trkpt lat="39.425752776426755" lon="8.501272484927986"><ele>103.0</ele><time>2026-05-01T11:05:21Z</time></trkpt><trkpt lat="39.4258332248807" lon="8.501359208885932"><ele>103.0</ele><time>2026-05-01T11:05:22Z</time></trkpt><trkpt lat="39.42588508369641" lon="8.501507011599198"><ele>103.0</ele><time>2026-05-01T11:05:23Z</time></trkpt><trkpt lat="39.42595615879054" lon="8.501673217827136"><ele>103.0</ele><time>2026-05-01T11:05:24Z</time></trkpt><trkpt lat="39.42601050987994" lon="8.501835972622573"><ele>103.0</ele><time>2026-05-01T11:05:25Z</time></trkpt><trkpt lat="39.42598168574831" lon="8.50201914572159"><ele>100.66666666666667</ele><time>2026-05-01T11:05:26Z</time></trkpt><trkpt lat="39.425951160460734" lon="8.502209937135216"><ele>98.33333333333334</ele><time>2026-05-01T11:05:27Z</time></trkpt><trkpt lat="39.425929603514184" lon="8.502407799386848"><ele>96.0</ele><time>2026-05-01T11:05:28Z</time></trkpt><trkpt lat="39.4258903112693" lon="8.502599865378926"><ele>96.0</ele><time>2026-05-01T11:05:29Z</time></trkpt><trkpt lat="39.42585835600216" lon="8.502791621189164"><ele>96.0</ele><time>2026-05-01T11:05:30Z</time></trkpt><trkpt lat="39.425835850091104" lon="8.50297595276951"><ele>96.0</ele><time>2026-05-01T11:05:31Z</time></trkpt><trkpt lat="39.425844914454395" lon="8.503163385851497"><ele>96.0</ele><time>2026-05-01T11:05:32Z</time></trkpt><trkpt lat="39.42589862970173" lon="8.5033488657791"><ele>95.0</ele><time>2026-05-01T11:05:33Z</time></trkpt><trkpt lat="39.4259658673968" lon="8.503524817501143"><ele>94.0</ele><time>2026-05-01T11:05:34Z</time></trkpt><trkpt lat="39.42603092790657" lon="8.50369734160295"><ele>93.0</ele><time>2026-05-01T11:05:35Z</time></trkpt><trkpt lat="39.42609837426184" lon="8.503851239514011"><ele>92.0</ele><time>2026-05-01T11:05:36Z</time></trkpt><trkpt lat="39.42616045544811" lon="8.503975767039044"><ele>92.0</ele><time>2026-05-01T11:05:37Z</time></trkpt><trkpt lat="39.42625808023914" lon="8.504028027111058"><ele>92.0</ele><time>2026-05-01T11:05:38Z</time></trkpt><trkpt lat="39.42638868704828" lon="8.503962777354777"><ele>92.0</ele><time>2026-05-01T11:05:39Z</time></trkpt><trkpt lat="39.42650486719508" lon="8.503865526311355"><ele>92.0</ele><time>2026-05-01T11:05:40Z</time></trkpt><trkpt lat="39.426615081361476" lon="8.503755292807957"><ele>94.33333333333334</ele><time>2026-05-01T11:05:41Z</time></trkpt><trkpt lat="39.42673768563244" lon="8.503663817492145"><ele>96.66666666666667</ele><time>2026-05-01T11:05:42Z</time></trkpt><trkpt lat="39.42686961225276" lon="8.503543386935426"><ele>99.0</ele><time>2026-05-01T11:05:43Z</time></trkpt><trkpt lat="39.42697280077737" lon="8.503408245661815"><ele>99.0</ele><time>2026-05-01T11:05:44Z</time></trkpt><trkpt lat="39.42708114455873" lon="8.503266893551364"><ele>99.0</ele><time>2026-05-01T11:05:45Z</time></trkpt><trkpt lat="39.42718575889963" lon="8.503120801153926"><ele>99.0</ele><time>2026-05-01T11:05:46Z</time></trkpt><trkpt lat="39.427296543711336" lon="8.502979176671728"><ele>102.33333333333334</ele><time>2026-05-01T11:05:47Z</time></trkpt><trkpt lat="39.4274283276409" lon="8.502880209430076"><ele>105.66666666666667</ele><time>2026-05-01T11:05:48Z</time></trkpt><trkpt lat="39.42756850843448" lon="8.50282312541673"><ele>109.0</ele><time>2026-05-01T11:05:49Z</time></trkpt><trkpt lat="39.42772415871198" lon="8.502783811916338"><ele>109.0</ele><time>2026-05-01T11:05:50Z</time></trkpt><trkpt lat="39.427881368587954" lon="8.502733384906431"><ele>109.0</ele><time>2026-05-01T11:05:51Z</time></trkpt><trkpt lat="39.428025329456176" lon="8.502646650973007"><ele>109.0</ele><time>2026-05-01T11:05:52Z</time></trkpt><trkpt lat="39.42816728176371" lon="8.502550318892611"><ele>101.0</ele><time>2026-05-01T11:05:53Z</time></trkpt><trkpt lat="39.42830149821517" lon="8.502436475056442"><ele>93.0</ele><time>2026-05-01T11:05:54Z</time></trkpt><trkpt lat="39.42844650067813" lon="8.502351960232694"><ele>85.0</ele><time>2026-05-01T11:05:55Z</time></trkpt><trkpt lat="39.42858627185923" lon="8.50224988521571"><ele>85.0</ele><time>2026-05-01T11:05:56Z</time></trkpt><trkpt lat="39.42872700557276" lon="8.50214710724982"><ele>85.0</ele><time>2026-05-01T11:05:57Z</time></trkpt><trkpt lat="39.428868786232705" lon="8.502045517038741"><ele>85.0</ele><time>2026-05-01T11:05:58Z</time></trkpt><trkpt lat="39.4290157942103" lon="8.501960874543506"><ele>84.66666666666666</ele><time>2026-05-01T11:05:59Z</time></trkpt><trkpt lat="39.42917099724831" lon="8.50189987162978"><ele>84.33333333333333</ele><time>2026-05-01T11:06:00Z</time></trkpt><trkpt lat="39.42932867474958" lon="8.501841972003517"><ele>84.0</ele><time>2026-05-01T11:06:01Z</time></trkpt><trkpt lat="39.42947898701482" lon="8.501787639963043"><ele>84.0</ele><time>2026-05-01T11:06:02Z</time></trkpt><trkpt lat="39.4296201757843" lon="8.501764135723995"><ele>84.0</ele><time>2026-05-01T11:06:03Z</time></trkpt><trkpt lat="39.42974741957565" lon="8.501804642306938"><ele>84.0</ele><time>2026-05-01T11:06:04Z</time></trkpt><trkpt lat="39.42986142743007" lon="8.501811389815469"><ele>84.0</ele><time>2026-05-01T11:06:05Z</time></trkpt><trkpt lat="39.42997107641768" lon="8.501768121887213"><ele>81.75</ele><time>2026-05-01T11:06:06Z</time></trkpt><trkpt lat="39.43006605506833" lon="8.501661812139277"><ele>79.5</ele><time>2026-05-01T11:06:06.999Z</time></trkpt><trkpt lat="39.430131472614455" lon="8.501525086893327"><ele>77.25</ele><time>2026-05-01T11:06:07.999Z</time></trkpt><trkpt lat="39.43014389509865" lon="8.501344174490036"><ele>75.0</ele><time>2026-05-01T11:06:08.999Z</time></trkpt><trkpt lat="39.430108791147255" lon="8.50116327386735"><ele>75.0</ele><time>2026-05-01T11:06:09.999Z</time></trkpt><trkpt lat="39.430081323519154" lon="8.501003713791196"><ele>75.0</ele><time>2026-05-01T11:06:10.999Z</time></trkpt><trkpt lat="39.43012654556499" lon="8.500859805250506"><ele>75.0</ele><time>2026-05-01T11:06:11.999Z</time></trkpt><trkpt lat="39.43026438332068" lon="8.500783181122417"><ele>75.0</ele><time>2026-05-01T11:06:12.999Z</time></trkpt><trkpt lat="39.4303870288172" lon="8.500675411813571"><ele>74.25</ele><time>2026-05-01T11:06:13.999Z</time></trkpt><trkpt lat="39.43050679424478" lon="8.500575573053606"><ele>73.5</ele><time>2026-05-01T11:06:14.999Z</time></trkpt><trkpt lat="39.43061103291855" lon="8.500463447847741"><ele>72.75</ele><time>2026-05-01T11:06:15.999Z</time></trkpt><trkpt lat="39.4307246341039" lon="8.500393633248626"><ele>72.0</ele><time>2026-05-01T11:06:16.999Z</time></trkpt><trkpt lat="39.43082215227489" lon="8.500315426704116"><ele>75.5</ele><time>2026-05-01T11:06:17.999Z</time></trkpt><trkpt lat="39.43091377692473" lon="8.500241559870702"><ele>79.0</ele><time>2026-05-01T11:06:18.999Z</time></trkpt><trkpt lat="39.4310289395177" lon="8.500250111861183"><ele>82.5</ele><time>2026-05-01T11:06:19.999Z</time></trkpt><trkpt lat="39.431142366828546" lon="8.500287272197443"><ele>86.0</ele><time>2026-05-01T11:06:20.999Z</time></trkpt><trkpt lat="39.43126339225143" lon="8.500325809722987"><ele>86.0</ele><time>2026-05-01T11:06:21.999Z</time></trkpt><trkpt lat="39.43138482200515" lon="8.500364475978477"><ele>86.0</ele><time>2026-05-01T11:06:22.999Z</time></trkpt><trkpt lat="39.43150806305143" lon="8.500403719021046"><ele>86.0</ele><time>2026-05-01T11:06:23.999Z</time></trkpt><trkpt lat="39.43162847445649" lon="8.500443788346093"><ele>86.0</ele><time>2026-05-01T11:06:24.999Z</time></trkpt><trkpt lat="39.43174984159723" lon="8.50048444333983"><ele>82.25</ele><time>2026-05-01T11:06:25.999Z</time></trkpt><trkpt lat="39.43187467825331" lon="8.500505905102198"><ele>78.5</ele><time>2026-05-01T11:06:26.999Z</time></trkpt><trkpt lat="39.43199189333639" lon="8.500559367163474"><ele>74.75</ele><time>2026-05-01T11:06:27.999Z</time></trkpt><trkpt lat="39.43210873805192" lon="8.500618671139607"><ele>71.0</ele><time>2026-05-01T11:06:28.999Z</time></trkpt><trkpt lat="39.432226820420894" lon="8.500678580569247"><ele>71.0</ele><time>2026-05-01T11:06:29.999Z</time></trkpt><trkpt lat="39.432342270952304" lon="8.500733928284244"><ele>71.0</ele><time>2026-05-01T11:06:30.999Z</time></trkpt><trkpt lat="39.43244616272895" lon="8.500790230047498"><ele>71.0</ele><time>2026-05-01T11:06:31.999Z</time></trkpt><trkpt lat="39.432541247538786" lon="8.500842411186312"><ele>71.0</ele><time>2026-05-01T11:06:32.999Z</time></trkpt><trkpt lat="39.432625806105904" lon="8.50089547293711"><ele>71.0</ele><time>2026-05-01T11:06:33.999Z</time></trkpt><trkpt lat="39.43270180909959" lon="8.500957341055765"><ele>71.0</ele><time>2026-05-01T11:06:34.999Z</time></trkpt><trkpt lat="39.43276823022206" lon="8.501023218288358"><ele>71.0</ele><time>2026-05-01T11:06:35.999Z</time></trkpt><trkpt lat="39.4328340447542" lon="8.501086059420773"><ele>71.0</ele><time>2026-05-01T11:06:36.999Z</time></trkpt><trkpt lat="39.432898210435376" lon="8.50114522513148"><ele>71.0</ele><time>2026-05-01T11:06:37.999Z</time></trkpt><trkpt lat="39.432965371580515" lon="8.50118879366851"><ele>71.0</ele><time>2026-05-01T11:06:38.999Z</time></trkpt><trkpt lat="39.43304102335136" lon="8.501209880307567"><ele>71.0</ele><time>2026-05-01T11:06:39.999Z</time></trkpt><trkpt lat="39.433128523765085" lon="8.501204627872339"><ele>70.33333333333334</ele><time>2026-05-01T11:06:40.999Z</time></trkpt><trkpt lat="39.43321460997637" lon="8.501174862749687"><ele>69.66666666666667</ele><time>2026-05-01T11:06:41.999Z</time></trkpt><trkpt lat="39.433284004058905" lon="8.50112376490016"><ele>69.0</ele><time>2026-05-01T11:06:42.999Z</time></trkpt><trkpt lat="39.43334202536325" lon="8.501061649610916"><ele>68.33333333333333</ele><time>2026-05-01T11:06:43.999Z</time></trkpt><trkpt lat="39.43336744600867" lon="8.500948948011871"><ele>67.66666666666666</ele><time>2026-05-01T11:06:44.999Z</time></trkpt><trkpt lat="39.43340093254056" lon="8.500836539996273"><ele>67.0</ele><time>2026-05-01T11:06:45.999Z</time></trkpt><trkpt lat="39.433452002990556" lon="8.500748765186735"><ele>67.0</ele><time>2026-05-01T11:06:46.999Z</time></trkpt><trkpt lat="39.433496164317106" lon="8.50063847598544"><ele>67.0</ele><time>2026-05-01T11:06:47.999Z</time></trkpt><trkpt lat="39.43354104176574" lon="8.500543066269277"><ele>67.0</ele><time>2026-05-01T11:06:48.999Z</time></trkpt><trkpt lat="39.43358800150951" lon="8.50044511888721"><ele>67.0</ele><time>2026-05-01T11:06:49.999Z</time></trkpt><trkpt lat="39.433632846537094" lon="8.500349109323205"><ele>67.0</ele><time>2026-05-01T11:06:50.999Z</time></trkpt><trkpt lat="39.43371144280348" lon="8.500278554315253"><ele>66.6</ele><time>2026-05-01T11:06:51.999Z</time></trkpt><trkpt lat="39.433798833630036" lon="8.500204090853833"><ele>66.2</ele><time>2026-05-01T11:06:52.999Z</time></trkpt><trkpt lat="39.43388242490483" lon="8.500121712463145"><ele>65.8</ele><time>2026-05-01T11:06:54Z</time></trkpt><trkpt lat="39.43396799327382" lon="8.500057486542763"><ele>65.4</ele><time>2026-05-01T11:06:55Z</time></trkpt><trkpt lat="39.43405259196743" lon="8.500024830947961"><ele>65.0</ele><time>2026-05-01T11:06:56Z</time></trkpt><trkpt lat="39.43414386341072" lon="8.500027560483176"><ele>65.0</ele><time>2026-05-01T11:06:57Z</time></trkpt><trkpt lat="39.4342432557767" lon="8.500050090558046"><ele>65.0</ele><time>2026-05-01T11:06:58Z</time></trkpt><trkpt lat="39.43434562304298" lon="8.500079709294985"><ele>65.0</ele><time>2026-05-01T11:06:59Z</time></trkpt><trkpt lat="39.43443704089297" lon="8.500107447684469"><ele>65.0</ele><time>2026-05-01T11:07:00Z</time></trkpt><trkpt lat="39.434519946368304" lon="8.500131440748957"><ele>65.0</ele><time>2026-05-01T11:07:01Z</time></trkpt><trkpt lat="39.43459935788747" lon="8.500146311014714"><ele>64.66666666666667</ele><time>2026-05-01T11:07:02Z</time></trkpt><trkpt lat="39.434676718439235" lon="8.500166869582133"><ele>64.33333333333334</ele><time>2026-05-01T11:07:03Z</time></trkpt><trkpt lat="39.43474970335746" lon="8.500164599182236"><ele>64.0</ele><time>2026-05-01T11:07:04Z</time></trkpt><trkpt lat="39.43481970226085" lon="8.500154023999464"><ele>63.66666666666667</ele><time>2026-05-01T11:07:05Z</time></trkpt><trkpt lat="39.43488683011682" lon="8.50015039080947"><ele>63.333333333333336</ele><time>2026-05-01T11:07:06Z</time></trkpt><trkpt lat="39.43494552360761" lon="8.500081701229707"><ele>63.0</ele><time>2026-05-01T11:07:07Z</time></trkpt><trkpt lat="39.43500371027239" lon="8.49999978987436"><ele>63.0</ele><time>2026-05-01T11:07:08Z</time></trkpt><trkpt lat="39.43508218664265" lon="8.499929645146725"><ele>63.0</ele><time>2026-05-01T11:07:09Z</time></trkpt><trkpt lat="39.435156142009646" lon="8.49984723365717"><ele>63.0</ele><time>2026-05-01T11:07:10Z</time></trkpt><trkpt lat="39.435234672313456" lon="8.499765328782415"><ele>63.0</ele><time>2026-05-01T11:07:11Z</time></trkpt><trkpt lat="39.43530835623904" lon="8.499688271053344"><ele>63.0</ele><time>2026-05-01T11:07:12Z</time></trkpt><trkpt lat="39.43537445429243" lon="8.499610850166919"><ele>63.0</ele><time>2026-05-01T11:07:13Z</time></trkpt><trkpt lat="39.43543550330921" lon="8.499537611358472"><ele>63.0</ele><time>2026-05-01T11:07:14Z</time></trkpt><trkpt lat="39.43549339329149" lon="8.499465955649478"><ele>63.0</ele><time>2026-05-01T11:07:15Z</time></trkpt><trkpt lat="39.43553660592116" lon="8.499381807558954"><ele>63.0</ele><time>2026-05-01T11:07:16Z</time></trkpt><trkpt lat="39.435588918906106" lon="8.49931237363151"><ele>63.0</ele><time>2026-05-01T11:07:17Z</time></trkpt><trkpt lat="39.435648875231486" lon="8.499256424628289"><ele>63.0</ele><time>2026-05-01T11:07:18Z</time></trkpt><trkpt lat="39.43567952532369" lon="8.499169059572223"><ele>62.714285714285715</ele><time>2026-05-01T11:07:19Z</time></trkpt><trkpt lat="39.43572088067318" lon="8.499097292831625"><ele>62.42857142857143</ele><time>2026-05-01T11:07:20Z</time></trkpt><trkpt lat="39.4357591912619" lon="8.499025516751628"><ele>62.14285714285714</ele><time>2026-05-01T11:07:21Z</time></trkpt><trkpt lat="39.43579967474422" lon="8.498954089414577"><ele>61.857142857142854</ele><time>2026-05-01T11:07:22Z</time></trkpt><trkpt lat="39.43584393189583" lon="8.498887332005944"><ele>61.57142857142857</ele><time>2026-05-01T11:07:23Z</time></trkpt><trkpt lat="39.43588494972882" lon="8.498818588438073"><ele>61.28571428571428</ele><time>2026-05-01T11:07:24Z</time></trkpt><trkpt lat="39.4359249990395" lon="8.49875291144114"><ele>60.99999999999999</ele><time>2026-05-01T11:07:25Z</time></trkpt><trkpt lat="39.435963860580216" lon="8.498688067246633"><ele>60.99999999999999</ele><time>2026-05-01T11:07:26Z</time></trkpt><trkpt lat="39.43601065489036" lon="8.498626245930922"><ele>61.0</ele><time>2026-05-01T11:07:27Z</time></trkpt><trkpt lat="39.43605013936691" lon="8.498556528912934"><ele>60.99999999999999</ele><time>2026-05-01T11:07:28Z</time></trkpt><trkpt lat="39.43608754613887" lon="8.498485558248795"><ele>60.99999999999999</ele><time>2026-05-01T11:07:29Z</time></trkpt><trkpt lat="39.43612923437886" lon="8.4984140417818"><ele>61.0</ele><time>2026-05-01T11:07:30Z</time></trkpt><trkpt lat="39.4361708391348" lon="8.498348569433196"><ele>60.99999999999999</ele><time>2026-05-01T11:07:31Z</time></trkpt><trkpt lat="39.43621558511775" lon="8.498281525274766"><ele>60.99999999999999</ele><time>2026-05-01T11:07:32Z</time></trkpt><trkpt lat="39.436256596925425" lon="8.498218731146777"><ele>61.199999999999996</ele><time>2026-05-01T11:07:33Z</time></trkpt><trkpt lat="39.43633569564183" lon="8.49809589339575"><ele>61.39999999999999</ele><time>2026-05-01T11:07:35Z</time></trkpt><trkpt lat="39.43641584209008" lon="8.497992239424319"><ele>61.6</ele><time>2026-05-01T11:07:37Z</time></trkpt><trkpt lat="39.43649716306477" lon="8.49788527683025"><ele>61.8</ele><time>2026-05-01T11:07:39Z</time></trkpt><trkpt lat="39.43654269009271" lon="8.49782348637724"><ele>62.0</ele><time>2026-05-01T11:07:40Z</time></trkpt><trkpt lat="39.436603135468395" lon="8.497757889591382"><ele>62.00000000000001</ele><time>2026-05-01T11:07:41Z</time></trkpt><trkpt lat="39.436651089886055" lon="8.497694932233433"><ele>62.0</ele><time>2026-05-01T11:07:42Z</time></trkpt><trkpt lat="39.43669181199045" lon="8.497629487816157"><ele>62.0</ele><time>2026-05-01T11:07:43Z</time></trkpt><trkpt lat="39.43678287505982" lon="8.497543423637453"><ele>62.0</ele><time>2026-05-01T11:07:45Z</time></trkpt><trkpt lat="39.43683320068366" lon="8.497491360908992"><ele>62.00000000000001</ele><time>2026-05-01T11:07:46Z</time></trkpt><trkpt lat="39.43688569412234" lon="8.497438207347026"><ele>62.0</ele><time>2026-05-01T11:07:47Z</time></trkpt><trkpt lat="39.436976493729716" lon="8.497342634242887"><ele>62.0</ele><time>2026-05-01T11:07:49Z</time></trkpt><trkpt lat="39.43706189976715" lon="8.49725903345674"><ele>62.0</ele><time>2026-05-01T11:07:51Z</time></trkpt><trkpt lat="39.43715783939044" lon="8.497159037788176"><ele>62.0</ele><time>2026-05-01T11:07:53Z</time></trkpt><trkpt lat="39.43720954139371" lon="8.49710422311494"><ele>62.0</ele><time>2026-05-01T11:07:54Z</time></trkpt><trkpt lat="39.43725992413792" lon="8.49705104247594"><ele>62.0</ele><time>2026-05-01T11:07:55Z</time></trkpt><trkpt lat="39.43733933469816" lon="8.496965985134402"><ele>62.400000000000006</ele><time>2026-05-01T11:07:57Z</time></trkpt><trkpt lat="39.437432144873604" lon="8.496872044235882"><ele>62.800000000000004</ele><time>2026-05-01T11:07:59Z</time></trkpt><trkpt lat="39.43748213027936" lon="8.496821169038617"><ele>63.2</ele><time>2026-05-01T11:08:00Z</time></trkpt><trkpt lat="39.43758665682941" lon="8.496701031185243"><ele>63.6</ele><time>2026-05-01T11:08:02Z</time></trkpt><trkpt lat="39.43765338481002" lon="8.496612314317863"><ele>64.0</ele><time>2026-05-01T11:08:03Z</time></trkpt><trkpt lat="39.43770983034779" lon="8.496539425905475"><ele>64.0</ele><time>2026-05-01T11:08:04Z</time></trkpt><trkpt lat="39.43775917540425" lon="8.496469370330377"><ele>63.99999999999999</ele><time>2026-05-01T11:08:05Z</time></trkpt><trkpt lat="39.43780337807301" lon="8.496402096408238"><ele>64.0</ele><time>2026-05-01T11:08:06Z</time></trkpt><trkpt lat="39.43784947175526" lon="8.496330358842476"><ele>64.0</ele><time>2026-05-01T11:08:07Z</time></trkpt><trkpt lat="39.437898814758185" lon="8.496254668911439"><ele>63.99999999999999</ele><time>2026-05-01T11:08:07.999Z</time></trkpt><trkpt lat="39.437937022035804" lon="8.496168060416489"><ele>64.0</ele><time>2026-05-01T11:08:08.999Z</time></trkpt><trkpt lat="39.43796865231231" lon="8.496087542068636"><ele>64.0</ele><time>2026-05-01T11:08:09.999Z</time></trkpt><trkpt lat="39.43800168518404" lon="8.496014299540793"><ele>64.4</ele><time>2026-05-01T11:08:10.999Z</time></trkpt><trkpt lat="39.43807135048026" lon="8.495883223280277"><ele>64.80000000000001</ele><time>2026-05-01T11:08:12.999Z</time></trkpt><trkpt lat="39.43811743520501" lon="8.495731420253591"><ele>65.19999999999999</ele><time>2026-05-01T11:08:14.999Z</time></trkpt><trkpt lat="39.43814820781569" lon="8.49563673485028"><ele>65.6</ele><time>2026-05-01T11:08:15.999Z</time></trkpt><trkpt lat="39.43818683787667" lon="8.495528424060964"><ele>66.0</ele><time>2026-05-01T11:08:16.999Z</time></trkpt><trkpt lat="39.43822670896717" lon="8.49544101555915"><ele>64.83333333333333</ele><time>2026-05-01T11:08:17.999Z</time></trkpt><trkpt lat="39.43826161108605" lon="8.495360393372712"><ele>63.66666666666667</ele><time>2026-05-01T11:08:18.999Z</time></trkpt><trkpt lat="39.438292962465134" lon="8.495281250566997"><ele>62.5</ele><time>2026-05-01T11:08:19.999Z</time></trkpt><trkpt lat="39.438327780529576" lon="8.495202041767417"><ele>61.333333333333336</ele><time>2026-05-01T11:08:20.999Z</time></trkpt><trkpt lat="39.43837502937377" lon="8.49511431204996"><ele>60.16666666666667</ele><time>2026-05-01T11:08:21.999Z</time></trkpt><trkpt lat="39.43843956596406" lon="8.495017318480134"><ele>59.0</ele><time>2026-05-01T11:08:22.999Z</time></trkpt><trkpt lat="39.43851029213447" lon="8.494913391030442"><ele>59.0</ele><time>2026-05-01T11:08:23.999Z</time></trkpt><trkpt lat="39.43858909262508" lon="8.494807715262871"><ele>59.0</ele><time>2026-05-01T11:08:24.999Z</time></trkpt><trkpt lat="39.43866968409308" lon="8.49469954892887"><ele>59.0</ele><time>2026-05-01T11:08:25.999Z</time></trkpt><trkpt lat="39.43875361337375" lon="8.49459370365693"><ele>59.0</ele><time>2026-05-01T11:08:26.999Z</time></trkpt><trkpt lat="39.43883885902265" lon="8.494488706197503"><ele>58.5</ele><time>2026-05-01T11:08:27.999Z</time></trkpt><trkpt lat="39.43891814701633" lon="8.494383895193055"><ele>58.0</ele><time>2026-05-01T11:08:28.999Z</time></trkpt><trkpt lat="39.43899511581901" lon="8.494274000615478"><ele>57.5</ele><time>2026-05-01T11:08:29.999Z</time></trkpt><trkpt lat="39.43907618981453" lon="8.494158702332836"><ele>57.0</ele><time>2026-05-01T11:08:30.999Z</time></trkpt><trkpt lat="39.43915145860317" lon="8.494037483102408"><ele>57.0</ele><time>2026-05-01T11:08:31.999Z</time></trkpt><trkpt lat="39.439227192195176" lon="8.493918767694552"><ele>57.0</ele><time>2026-05-01T11:08:32.999Z</time></trkpt><trkpt lat="39.43929317702598" lon="8.493809068024238"><ele>57.0</ele><time>2026-05-01T11:08:33.999Z</time></trkpt><trkpt lat="39.439351994774924" lon="8.49371163241822"><ele>57.0</ele><time>2026-05-01T11:08:34.999Z</time></trkpt><trkpt lat="39.43940883633033" lon="8.493619634009194"><ele>57.0</ele><time>2026-05-01T11:08:35.999Z</time></trkpt><trkpt lat="39.43946065304072" lon="8.49353566961523"><ele>57.0</ele><time>2026-05-01T11:08:36.999Z</time></trkpt><trkpt lat="39.43950972837109" lon="8.493455189455114"><ele>57.0</ele><time>2026-05-01T11:08:37.999Z</time></trkpt><trkpt lat="39.43955753335831" lon="8.493379334444134"><ele>57.0</ele><time>2026-05-01T11:08:38.999Z</time></trkpt><trkpt lat="39.439604065942" lon="8.493312185580349"><ele>57.0</ele><time>2026-05-01T11:08:39.999Z</time></trkpt><trkpt lat="39.439708531658816" lon="8.493266342623064"><ele>57.0</ele><time>2026-05-01T11:08:41.999Z</time></trkpt><trkpt lat="39.43977363875738" lon="8.493245715102853"><ele>57.0</ele><time>2026-05-01T11:08:43.999Z</time></trkpt><trkpt lat="39.43983210521465" lon="8.493141628209456"><ele>57.166666666666664</ele><time>2026-05-01T11:13:05.999Z</time></trkpt><trkpt lat="39.43979117597471" lon="8.49306590813438"><ele>57.33333333333333</ele><time>2026-05-01T11:13:50Z</time></trkpt><trkpt lat="39.439819389570964" lon="8.492943827774"><ele>57.5</ele><time>2026-05-01T11:13:53Z</time></trkpt><trkpt lat="39.439876382818554" lon="8.492873132490868"><ele>57.666666666666664</ele><time>2026-05-01T11:13:54Z</time></trkpt><trkpt lat="39.43993356957528" lon="8.492794863609403"><ele>57.83333333333333</ele><time>2026-05-01T11:13:55Z</time></trkpt><trkpt lat="39.439991613384386" lon="8.492685980864396"><ele>58.0</ele><time>2026-05-01T11:13:56Z</time></trkpt><trkpt lat="39.4400794546573" lon="8.492583609673048"><ele>57.25</ele><time>2026-05-01T11:13:57Z</time></trkpt><trkpt lat="39.440155228575165" lon="8.49246529915325"><ele>56.5</ele><time>2026-05-01T11:13:58Z</time></trkpt><trkpt lat="39.440231943001216" lon="8.492344035359803"><ele>55.75</ele><time>2026-05-01T11:13:59Z</time></trkpt><trkpt lat="39.44030960305588" lon="8.49222092119218"><ele>55.0</ele><time>2026-05-01T11:14:00Z</time></trkpt><trkpt lat="39.440389254044455" lon="8.492097575967888"><ele>55.0</ele><time>2026-05-01T11:14:01Z</time></trkpt><trkpt lat="39.440471171846234" lon="8.491970720600278"><ele>55.0</ele><time>2026-05-01T11:14:02Z</time></trkpt><trkpt lat="39.44055457776762" lon="8.49184651272422"><ele>55.0</ele><time>2026-05-01T11:14:03Z</time></trkpt><trkpt lat="39.44064136186905" lon="8.491726151060153"><ele>55.0</ele><time>2026-05-01T11:14:04Z</time></trkpt><trkpt lat="39.440727562357175" lon="8.491613351123696"><ele>55.0</ele><time>2026-05-01T11:14:05Z</time></trkpt><trkpt lat="39.440815595944464" lon="8.491501047287908"><ele>55.0</ele><time>2026-05-01T11:14:06Z</time></trkpt><trkpt lat="39.440900397202014" lon="8.491385513381639"><ele>55.0</ele><time>2026-05-01T11:14:07Z</time></trkpt><trkpt lat="39.44100148623375" lon="8.491291218942836"><ele>55.0</ele><time>2026-05-01T11:14:08Z</time></trkpt><trkpt lat="39.441103460634245" lon="8.491199545095252"><ele>54.5</ele><time>2026-05-01T11:14:09Z</time></trkpt><trkpt lat="39.44120676322111" lon="8.491110435583714"><ele>54.0</ele><time>2026-05-01T11:14:10Z</time></trkpt><trkpt lat="39.44130817366669" lon="8.491018467988813"><ele>53.5</ele><time>2026-05-01T11:14:11Z</time></trkpt><trkpt lat="39.441410700693524" lon="8.490923394988796"><ele>53.0</ele><time>2026-05-01T11:14:12Z</time></trkpt><trkpt lat="39.44151020885151" lon="8.490828579195338"><ele>53.0</ele><time>2026-05-01T11:14:13Z</time></trkpt><trkpt lat="39.44161332902414" lon="8.490733143286466"><ele>53.0</ele><time>2026-05-01T11:14:14Z</time></trkpt><trkpt lat="39.44171387456928" lon="8.49063162875691"><ele>53.0</ele><time>2026-05-01T11:14:15Z</time></trkpt><trkpt lat="39.44180551133205" lon="8.490511931877291"><ele>53.0</ele><time>2026-05-01T11:14:16Z</time></trkpt><trkpt lat="39.44188760141254" lon="8.490372859932183"><ele>53.0</ele><time>2026-05-01T11:14:17Z</time></trkpt><trkpt lat="39.44196751160461" lon="8.490230370066158"><ele>53.0</ele><time>2026-05-01T11:14:18Z</time></trkpt><trkpt lat="39.44204992141585" lon="8.490087652491326"><ele>53.0</ele><time>2026-05-01T11:14:19Z</time></trkpt><trkpt lat="39.44214950309936" lon="8.489961801499959"><ele>53.0</ele><time>2026-05-01T11:14:20Z</time></trkpt><trkpt lat="39.44222562287519" lon="8.489806284338831"><ele>53.25</ele><time>2026-05-01T11:14:20.999Z</time></trkpt><trkpt lat="39.44230908439198" lon="8.48965781037013"><ele>53.5</ele><time>2026-05-01T11:14:21.999Z</time></trkpt><trkpt lat="39.442400147383715" lon="8.48951996218071"><ele>53.75</ele><time>2026-05-01T11:14:22.999Z</time></trkpt><trkpt lat="39.44248429050428" lon="8.489363664515093"><ele>54.0</ele><time>2026-05-01T11:14:23.999Z</time></trkpt><trkpt lat="39.44255835638036" lon="8.489188888060244"><ele>53.33333333333333</ele><time>2026-05-01T11:14:24.999Z</time></trkpt><trkpt lat="39.44264869517747" lon="8.489026728044704"><ele>52.666666666666664</ele><time>2026-05-01T11:14:25.999Z</time></trkpt><trkpt lat="39.44274236752207" lon="8.488866976202816"><ele>52.0</ele><time>2026-05-01T11:14:26.999Z</time></trkpt><trkpt lat="39.44284293512717" lon="8.488713006975372"><ele>52.0</ele><time>2026-05-01T11:14:27.999Z</time></trkpt><trkpt lat="39.44295192768637" lon="8.488563829380473"><ele>52.0</ele><time>2026-05-01T11:14:28.999Z</time></trkpt><trkpt lat="39.443063779393285" lon="8.488423735983028"><ele>52.0</ele><time>2026-05-01T11:14:29.999Z</time></trkpt><trkpt lat="39.44317691301316" lon="8.488279946986392"><ele>52.0</ele><time>2026-05-01T11:14:30.999Z</time></trkpt><trkpt lat="39.44328962319735" lon="8.488137947731051"><ele>52.0</ele><time>2026-05-01T11:14:31.999Z</time></trkpt><trkpt lat="39.443399571465235" lon="8.487998946162298"><ele>52.0</ele><time>2026-05-01T11:14:32.999Z</time></trkpt><trkpt lat="39.443509592788125" lon="8.4878588636126"><ele>51.33333333333333</ele><time>2026-05-01T11:14:33.999Z</time></trkpt><trkpt lat="39.44361820050001" lon="8.487717492764427"><ele>50.66666666666667</ele><time>2026-05-01T11:14:34.999Z</time></trkpt><trkpt lat="39.44372077278395" lon="8.487569166078194"><ele>50.0</ele><time>2026-05-01T11:14:35.999Z</time></trkpt><trkpt lat="39.44381722221483" lon="8.487411616667156"><ele>50.0</ele><time>2026-05-01T11:14:36.999Z</time></trkpt><trkpt lat="39.443910420493324" lon="8.48724911826777"><ele>50.0</ele><time>2026-05-01T11:14:37.999Z</time></trkpt><trkpt lat="39.444005360853374" lon="8.487083720565492"><ele>50.0</ele><time>2026-05-01T11:14:38.999Z</time></trkpt><trkpt lat="39.444101819353044" lon="8.486921847233774"><ele>49.0</ele><time>2026-05-01T11:14:39.999Z</time></trkpt><trkpt lat="39.444198456946694" lon="8.486758860877478"><ele>48.0</ele><time>2026-05-01T11:14:40.999Z</time></trkpt><trkpt lat="39.444295427428834" lon="8.486595587899934"><ele>47.0</ele><time>2026-05-01T11:14:41.999Z</time></trkpt><trkpt lat="39.444392377980776" lon="8.486429619904461"><ele>47.0</ele><time>2026-05-01T11:14:42.999Z</time></trkpt><trkpt lat="39.44448730543469" lon="8.486265233662401"><ele>47.0</ele><time>2026-05-01T11:14:43.999Z</time></trkpt><trkpt lat="39.44458287649402" lon="8.486101795733937"><ele>47.0</ele><time>2026-05-01T11:14:44.999Z</time></trkpt><trkpt lat="39.44467619493482" lon="8.485941117472267"><ele>47.33333333333333</ele><time>2026-05-01T11:14:45.999Z</time></trkpt><trkpt lat="39.44476747824293" lon="8.485781013808351"><ele>47.666666666666664</ele><time>2026-05-01T11:14:46.999Z</time></trkpt><trkpt lat="39.4448650091507" lon="8.485628839582292"><ele>48.0</ele><time>2026-05-01T11:14:47.999Z</time></trkpt><trkpt lat="39.4449733142828" lon="8.485488598210182"><ele>47.333333333333336</ele><time>2026-05-01T11:14:48.999Z</time></trkpt><trkpt lat="39.44509107251987" lon="8.48535717554585"><ele>46.66666666666667</ele><time>2026-05-01T11:14:49.999Z</time></trkpt><trkpt lat="39.44521183469268" lon="8.485229896838007"><ele>46.0</ele><time>2026-05-01T11:14:50.999Z</time></trkpt><trkpt lat="39.445338175355495" lon="8.485106231145949"><ele>46.66666666666667</ele><time>2026-05-01T11:14:51.999Z</time></trkpt><trkpt lat="39.44546282026767" lon="8.484980098699582"><ele>47.333333333333336</ele><time>2026-05-01T11:14:52.999Z</time></trkpt><trkpt lat="39.445587510656964" lon="8.484848372671294"><ele>48.0</ele><time>2026-05-01T11:14:53.999Z</time></trkpt><trkpt lat="39.445712613426934" lon="8.484715433953381"><ele>46.666666666666664</ele><time>2026-05-01T11:14:54.999Z</time></trkpt><trkpt lat="39.44583759374793" lon="8.484583346312247"><ele>45.33333333333333</ele><time>2026-05-01T11:14:55.999Z</time></trkpt><trkpt lat="39.445961916328386" lon="8.484450819155445"><ele>44.0</ele><time>2026-05-01T11:14:56.999Z</time></trkpt><trkpt lat="39.4460851307736" lon="8.484317730087099"><ele>44.0</ele><time>2026-05-01T11:14:57.999Z</time></trkpt><trkpt lat="39.446204740800866" lon="8.48418520909527"><ele>44.0</ele><time>2026-05-01T11:14:58.999Z</time></trkpt><trkpt lat="39.44631300403105" lon="8.484042146046608"><ele>44.0</ele><time>2026-05-01T11:14:59.999Z</time></trkpt><trkpt lat="39.446402292331385" lon="8.483880332965292"><ele>44.33333333333333</ele><time>2026-05-01T11:15:00.999Z</time></trkpt><trkpt lat="39.446482944450814" lon="8.483712016008596"><ele>44.666666666666664</ele><time>2026-05-01T11:15:01.999Z</time></trkpt><trkpt lat="39.446567603367356" lon="8.483551587246371"><ele>45.0</ele><time>2026-05-01T11:15:02.999Z</time></trkpt><trkpt lat="39.44668105958314" lon="8.48342157978621"><ele>45.0</ele><time>2026-05-01T11:15:03.999Z</time></trkpt><trkpt lat="39.44681607013574" lon="8.48332144889202"><ele>45.0</ele><time>2026-05-01T11:15:04.999Z</time></trkpt><trkpt lat="39.4469598578395" lon="8.48323941484685"><ele>45.0</ele><time>2026-05-01T11:15:05.999Z</time></trkpt><trkpt lat="39.44710923821606" lon="8.483173063130652"><ele>46.66666666666667</ele><time>2026-05-01T11:15:06.999Z</time></trkpt><trkpt lat="39.44726549342329" lon="8.4831212093034"><ele>48.333333333333336</ele><time>2026-05-01T11:15:07.999Z</time></trkpt><trkpt lat="39.447429805381155" lon="8.483095779583213"><ele>50.0</ele><time>2026-05-01T11:15:08.999Z</time></trkpt><trkpt lat="39.44759620544784" lon="8.483079022520169"><ele>50.0</ele><time>2026-05-01T11:15:09.999Z</time></trkpt><trkpt lat="39.447765072359196" lon="8.48306104850095"><ele>50.0</ele><time>2026-05-01T11:15:10.999Z</time></trkpt><trkpt lat="39.44793091904836" lon="8.483038077372482"><ele>50.0</ele><time>2026-05-01T11:15:11.999Z</time></trkpt><trkpt lat="39.448098428612084" lon="8.483015738258162"><ele>49.333333333333336</ele><time>2026-05-01T11:15:12.999Z</time></trkpt><trkpt lat="39.448265728949" lon="8.483004814198454"><ele>48.66666666666667</ele><time>2026-05-01T11:15:13.999Z</time></trkpt><trkpt lat="39.44843378649707" lon="8.483014458440664"><ele>48.0</ele><time>2026-05-01T11:15:14.999Z</time></trkpt><trkpt lat="39.44860088678457" lon="8.483036910504428"><ele>48.0</ele><time>2026-05-01T11:15:15.999Z</time></trkpt><trkpt lat="39.44876656470935" lon="8.483060531877754"><ele>48.0</ele><time>2026-05-01T11:15:17Z</time></trkpt><trkpt lat="39.44893340291402" lon="8.483084644551797"><ele>48.0</ele><time>2026-05-01T11:15:18Z</time></trkpt><trkpt lat="39.44910078245065" lon="8.483106844163865"><ele>46.666666666666664</ele><time>2026-05-01T11:15:19Z</time></trkpt><trkpt lat="39.44926949136224" lon="8.483130865897811"><ele>45.33333333333333</ele><time>2026-05-01T11:15:20Z</time></trkpt><trkpt lat="39.44943910051172" lon="8.483153903380723"><ele>44.0</ele><time>2026-05-01T11:15:21Z</time></trkpt><trkpt lat="39.44961102546803" lon="8.483172170834225"><ele>43.666666666666664</ele><time>2026-05-01T11:15:22Z</time></trkpt><trkpt lat="39.44978274478293" lon="8.483186303093571"><ele>43.333333333333336</ele><time>2026-05-01T11:15:23Z</time></trkpt><trkpt lat="39.44995428533582" lon="8.48319699476232"><ele>43.0</ele><time>2026-05-01T11:15:24Z</time></trkpt><trkpt lat="39.450125993870046" lon="8.48320386172218"><ele>43.0</ele><time>2026-05-01T11:15:25Z</time></trkpt><trkpt lat="39.45029807291549" lon="8.48320810452452"><ele>43.0</ele><time>2026-05-01T11:15:26Z</time></trkpt><trkpt lat="39.450468775846495" lon="8.483216376747496"><ele>43.0</ele><time>2026-05-01T11:15:27Z</time></trkpt><trkpt lat="39.45063880464215" lon="8.483229718360539"><ele>43.66666666666667</ele><time>2026-05-01T11:15:28Z</time></trkpt><trkpt lat="39.4508082269487" lon="8.48324240897084"><ele>44.333333333333336</ele><time>2026-05-01T11:15:29Z</time></trkpt><trkpt lat="39.45097508122215" lon="8.48325249545222"><ele>45.0</ele><time>2026-05-01T11:15:30Z</time></trkpt><trkpt lat="39.45113442714492" lon="8.483251015533689"><ele>45.0</ele><time>2026-05-01T11:15:31Z</time></trkpt><trkpt lat="39.45128756604183" lon="8.483208734685785"><ele>45.0</ele><time>2026-05-01T11:15:32Z</time></trkpt><trkpt lat="39.45142841890523" lon="8.48311577977381"><ele>45.0</ele><time>2026-05-01T11:15:33Z</time></trkpt><trkpt lat="39.45155235215297" lon="8.48298115532754"><ele>44.0</ele><time>2026-05-01T11:15:34Z</time></trkpt><trkpt lat="39.451663731964125" lon="8.482826878581402"><ele>43.0</ele><time>2026-05-01T11:15:35Z</time></trkpt><trkpt lat="39.45177813225288" lon="8.482670192646214"><ele>42.0</ele><time>2026-05-01T11:15:36Z</time></trkpt><trkpt lat="39.4518954302969" lon="8.482518780246508"><ele>42.0</ele><time>2026-05-01T11:15:37Z</time></trkpt><trkpt lat="39.45201193906146" lon="8.482360845737315"><ele>42.0</ele><time>2026-05-01T11:15:38Z</time></trkpt><trkpt lat="39.452123534566454" lon="8.482200329765718"><ele>42.0</ele><time>2026-05-01T11:15:39Z</time></trkpt><trkpt lat="39.45222106560559" lon="8.482025750598874"><ele>45.66666666666667</ele><time>2026-05-01T11:15:40Z</time></trkpt><trkpt lat="39.45230133358401" lon="8.481835670710508"><ele>49.333333333333336</ele><time>2026-05-01T11:15:41Z</time></trkpt><trkpt lat="39.45237831257774" lon="8.481643248277324"><ele>53.0</ele><time>2026-05-01T11:15:42Z</time></trkpt><trkpt lat="39.452454649477396" lon="8.481451007964898"><ele>49.0</ele><time>2026-05-01T11:15:43Z</time></trkpt><trkpt lat="39.45252755331734" lon="8.481256168615348"><ele>45.0</ele><time>2026-05-01T11:15:44Z</time></trkpt><trkpt lat="39.45259713581748" lon="8.481058941172346"><ele>41.0</ele><time>2026-05-01T11:15:45Z</time></trkpt><trkpt lat="39.45266107006156" lon="8.480858675938332"><ele>41.0</ele><time>2026-05-01T11:15:46Z</time></trkpt><trkpt lat="39.45271975195135" lon="8.480657164185473"><ele>41.0</ele><time>2026-05-01T11:15:47Z</time></trkpt><trkpt lat="39.45277869107902" lon="8.48045629695211"><ele>41.0</ele><time>2026-05-01T11:15:48Z</time></trkpt><trkpt lat="39.45283789708605" lon="8.480256064068486"><ele>38.666666666666664</ele><time>2026-05-01T11:15:49Z</time></trkpt><trkpt lat="39.45289817901088" lon="8.480059050170013"><ele>36.333333333333336</ele><time>2026-05-01T11:15:50Z</time></trkpt><trkpt lat="39.45296097457246" lon="8.479866226173934"><ele>34.0</ele><time>2026-05-01T11:15:51Z</time></trkpt><trkpt lat="39.45303110047316" lon="8.479678027587626"><ele>35.66666666666667</ele><time>2026-05-01T11:15:52Z</time></trkpt><trkpt lat="39.45311263609188" lon="8.479499294258913"><ele>37.333333333333336</ele><time>2026-05-01T11:15:53Z</time></trkpt><trkpt lat="39.45320362853786" lon="8.47933082127045"><ele>39.0</ele><time>2026-05-01T11:15:54Z</time></trkpt><trkpt lat="39.45330089905885" lon="8.47916942404514"><ele>39.0</ele><time>2026-05-01T11:15:55Z</time></trkpt><trkpt lat="39.4533991556455" lon="8.479011288189891"><ele>39.0</ele><time>2026-05-01T11:15:56Z</time></trkpt><trkpt lat="39.45349914685516" lon="8.478854914093596"><ele>39.0</ele><time>2026-05-01T11:15:57Z</time></trkpt><trkpt lat="39.45359972883445" lon="8.478703631422928"><ele>39.0</ele><time>2026-05-01T11:15:58Z</time></trkpt><trkpt lat="39.45371113684833" lon="8.478568896098642"><ele>39.0</ele><time>2026-05-01T11:15:59Z</time></trkpt><trkpt lat="39.45384147905636" lon="8.47849236509242"><ele>39.0</ele><time>2026-05-01T11:16:00Z</time></trkpt><trkpt lat="39.4539868259981" lon="8.478478669716274"><ele>39.0</ele><time>2026-05-01T11:16:01Z</time></trkpt><trkpt lat="39.4541461617504" lon="8.478497296633543"><ele>39.0</ele><time>2026-05-01T11:16:02Z</time></trkpt><trkpt lat="39.45431030956305" lon="8.478493668284651"><ele>39.0</ele><time>2026-05-01T11:16:03Z</time></trkpt><trkpt lat="39.45447669865763" lon="8.47848690384391"><ele>39.0</ele><time>2026-05-01T11:16:04Z</time></trkpt><trkpt lat="39.45464590430152" lon="8.478477648244697"><ele>39.0</ele><time>2026-05-01T11:16:05Z</time></trkpt><trkpt lat="39.454817826239825" lon="8.478471286358852"><ele>39.0</ele><time>2026-05-01T11:16:06Z</time></trkpt><trkpt lat="39.45499080960313" lon="8.478465053292606"><ele>39.0</ele><time>2026-05-01T11:16:07Z</time></trkpt><trkpt lat="39.45516237471983" lon="8.478462887213439"><ele>39.0</ele><time>2026-05-01T11:16:08Z</time></trkpt><trkpt lat="39.45533474276752" lon="8.478462392680889"><ele>39.0</ele><time>2026-05-01T11:16:09Z</time></trkpt><trkpt lat="39.45550637491982" lon="8.47846116153747"><ele>39.0</ele><time>2026-05-01T11:16:10Z</time></trkpt><trkpt lat="39.45567695325488" lon="8.478462041421068"><ele>40.0</ele><time>2026-05-01T11:16:11Z</time></trkpt><trkpt lat="39.4558475502473" lon="8.478467800254393"><ele>41.0</ele><time>2026-05-01T11:16:12Z</time></trkpt><trkpt lat="39.45601655395337" lon="8.478483409652288"><ele>42.0</ele><time>2026-05-01T11:16:13Z</time></trkpt><trkpt lat="39.4561836123502" lon="8.478509422522633"><ele>43.333333333333336</ele><time>2026-05-01T11:16:14Z</time></trkpt><trkpt lat="39.45634922224188" lon="8.478534142234766"><ele>44.66666666666667</ele><time>2026-05-01T11:16:15Z</time></trkpt><trkpt lat="39.45651468717017" lon="8.47855126015444"><ele>46.0</ele><time>2026-05-01T11:16:16Z</time></trkpt><trkpt lat="39.45667746241263" lon="8.47853829729082"><ele>46.0</ele><time>2026-05-01T11:16:17Z</time></trkpt><trkpt lat="39.45683624647005" lon="8.478488384644518"><ele>46.0</ele><time>2026-05-01T11:16:18Z</time></trkpt><trkpt lat="39.456990706884504" lon="8.478418918420356"><ele>46.0</ele><time>2026-05-01T11:16:19Z</time></trkpt><trkpt lat="39.45714321736268" lon="8.478352665499575"><ele>47.0</ele><time>2026-05-01T11:16:20Z</time></trkpt><trkpt lat="39.457303093360835" lon="8.478315774477469"><ele>48.0</ele><time>2026-05-01T11:16:21Z</time></trkpt><trkpt lat="39.457468413557656" lon="8.478319563046805"><ele>49.0</ele><time>2026-05-01T11:16:22Z</time></trkpt><trkpt lat="39.45763194577903" lon="8.478357808265052"><ele>49.0</ele><time>2026-05-01T11:16:23Z</time></trkpt><trkpt lat="39.45779613044947" lon="8.478414399997089"><ele>49.0</ele><time>2026-05-01T11:16:24Z</time></trkpt><trkpt lat="39.45796183003334" lon="8.478471781667094"><ele>49.0</ele><time>2026-05-01T11:16:24.999Z</time></trkpt><trkpt lat="39.45812294828096" lon="8.478535151046172"><ele>51.666666666666664</ele><time>2026-05-01T11:16:25.999Z</time></trkpt><trkpt lat="39.45828871624801" lon="8.478590656927576"><ele>54.33333333333333</ele><time>2026-05-01T11:16:26.999Z</time></trkpt><trkpt lat="39.45845234491497" lon="8.478642756903959"><ele>57.0</ele><time>2026-05-01T11:16:27.999Z</time></trkpt><trkpt lat="39.45861654266126" lon="8.478690718600141"><ele>57.0</ele><time>2026-05-01T11:16:28.999Z</time></trkpt><trkpt lat="39.45877916774838" lon="8.47872790561911"><ele>57.0</ele><time>2026-05-01T11:16:29.999Z</time></trkpt><trkpt lat="39.45894321481275" lon="8.478749521057004"><ele>57.0</ele><time>2026-05-01T11:16:30.999Z</time></trkpt><trkpt lat="39.459106193185306" lon="8.478763826833248"><ele>55.66666666666667</ele><time>2026-05-01T11:16:31.999Z</time></trkpt><trkpt lat="39.45926871233169" lon="8.478772147917123"><ele>54.333333333333336</ele><time>2026-05-01T11:16:32.999Z</time></trkpt><trkpt lat="39.45943150316181" lon="8.478773531885075"><ele>53.0</ele><time>2026-05-01T11:16:33.999Z</time></trkpt><trkpt lat="39.459593159856574" lon="8.478770970614093"><ele>55.25</ele><time>2026-05-01T11:16:34.999Z</time></trkpt><trkpt lat="39.4597462431797" lon="8.478777765673001"><ele>57.5</ele><time>2026-05-01T11:16:35.999Z</time></trkpt><trkpt lat="39.45987455921555" lon="8.478826386034147"><ele>59.75</ele><time>2026-05-01T11:16:36.999Z</time></trkpt><trkpt lat="39.4599687704782" lon="8.478935510666435"><ele>62.0</ele><time>2026-05-01T11:16:37.999Z</time></trkpt><trkpt lat="39.46005084599054" lon="8.479083867538522"><ele>62.0</ele><time>2026-05-01T11:16:38.999Z</time></trkpt><trkpt lat="39.46015076336929" lon="8.479224451689667"><ele>62.0</ele><time>2026-05-01T11:16:39.999Z</time></trkpt><trkpt lat="39.46027822778371" lon="8.479336909901363"><ele>62.0</ele><time>2026-05-01T11:16:40.999Z</time></trkpt><trkpt lat="39.46041016813852" lon="8.479441397064193"><ele>61.75</ele><time>2026-05-01T11:16:41.999Z</time></trkpt><trkpt lat="39.460539457817944" lon="8.47954948026378"><ele>61.5</ele><time>2026-05-01T11:16:42.999Z</time></trkpt><trkpt lat="39.46066057820525" lon="8.47965592876259"><ele>61.25</ele><time>2026-05-01T11:16:43.999Z</time></trkpt><trkpt lat="39.46078329701926" lon="8.479734533434499"><ele>61.0</ele><time>2026-05-01T11:16:44.999Z</time></trkpt><trkpt lat="39.46092160601223" lon="8.479759693728164"><ele>61.0</ele><time>2026-05-01T11:16:45.999Z</time></trkpt><trkpt lat="39.461059289388274" lon="8.47971369253411"><ele>61.0</ele><time>2026-05-01T11:16:46.999Z</time></trkpt><trkpt lat="39.461178211630326" lon="8.479596594993946"><ele>61.0</ele><time>2026-05-01T11:16:47.999Z</time></trkpt><trkpt lat="39.461276150549246" lon="8.47944290307445"><ele>61.0</ele><time>2026-05-01T11:16:48.999Z</time></trkpt><trkpt lat="39.46137075886209" lon="8.47927684946554"><ele>65.0</ele><time>2026-05-01T11:16:49.999Z</time></trkpt><trkpt lat="39.46147220540508" lon="8.479111555484423"><ele>69.0</ele><time>2026-05-01T11:16:50.999Z</time></trkpt><trkpt lat="39.46157236883269" lon="8.47894701497786"><ele>73.0</ele><time>2026-05-01T11:16:51.999Z</time></trkpt><trkpt lat="39.4616680150866" lon="8.478773533648779"><ele>77.66666666666666</ele><time>2026-05-01T11:16:52.999Z</time></trkpt><trkpt lat="39.46175621899778" lon="8.478596407546718"><ele>82.33333333333333</ele><time>2026-05-01T11:16:53.999Z</time></trkpt><trkpt lat="39.46184937492161" lon="8.478428703476713"><ele>87.0</ele><time>2026-05-01T11:16:54.999Z</time></trkpt><trkpt lat="39.46195573499049" lon="8.47827842381959"><ele>87.0</ele><time>2026-05-01T11:16:55.999Z</time></trkpt><trkpt lat="39.46207323509237" lon="8.478150006095563"><ele>87.0</ele><time>2026-05-01T11:16:56.999Z</time></trkpt><trkpt lat="39.462207719855314" lon="8.478063710100756"><ele>87.0</ele><time>2026-05-01T11:16:57.999Z</time></trkpt><trkpt lat="39.46235849233668" lon="8.478033906619718"><ele>86.0</ele><time>2026-05-01T11:16:58.999Z</time></trkpt><trkpt lat="39.462508063276815" lon="8.478002119819465"><ele>85.0</ele><time>2026-05-01T11:16:59.999Z</time></trkpt><trkpt lat="39.46265374125734" lon="8.477938564938672"><ele>84.0</ele><time>2026-05-01T11:17:00.999Z</time></trkpt><trkpt lat="39.462793289115794" lon="8.477845698388846"><ele>88.0</ele><time>2026-05-01T11:17:01.999Z</time></trkpt><trkpt lat="39.46292345768573" lon="8.477737141208786"><ele>92.0</ele><time>2026-05-01T11:17:02.999Z</time></trkpt><trkpt lat="39.463041850745974" lon="8.477628116186567"><ele>96.0</ele><time>2026-05-01T11:17:03.999Z</time></trkpt><trkpt lat="39.46314239227427" lon="8.477519441761732"><ele>100.0</ele><time>2026-05-01T11:17:04.999Z</time></trkpt><trkpt lat="39.463235061442425" lon="8.477431948268418"><ele>100.0</ele><time>2026-05-01T11:17:05.999Z</time></trkpt><trkpt lat="39.463332948892834" lon="8.477406865767271"><ele>100.0</ele><time>2026-05-01T11:17:06.999Z</time></trkpt><trkpt lat="39.46341602420488" lon="8.477465137126428"><ele>100.0</ele><time>2026-05-01T11:17:07.999Z</time></trkpt><trkpt lat="39.463449302809295" lon="8.477579336244519"><ele>100.0</ele><time>2026-05-01T11:17:08.999Z</time></trkpt><trkpt lat="39.4633997489974" lon="8.477707714612906"><ele>100.0</ele><time>2026-05-01T11:17:09.999Z</time></trkpt><trkpt lat="39.46333580999883" lon="8.47783584537547"><ele>101.25</ele><time>2026-05-01T11:17:10.999Z</time></trkpt><trkpt lat="39.46324212567675" lon="8.477959890479537"><ele>102.5</ele><time>2026-05-01T11:17:11.999Z</time></trkpt><trkpt lat="39.463149292646115" lon="8.478100907969848"><ele>103.75</ele><time>2026-05-01T11:17:12.999Z</time></trkpt><trkpt lat="39.46305012800857" lon="8.478244207383591"><ele>105.0</ele><time>2026-05-01T11:17:13.999Z</time></trkpt><trkpt lat="39.46294914832519" lon="8.478392619153972"><ele>101.0</ele><time>2026-05-01T11:17:14.999Z</time></trkpt><trkpt lat="39.46284517945482" lon="8.47853990278119"><ele>97.0</ele><time>2026-05-01T11:17:15.999Z</time></trkpt><trkpt lat="39.462742571567134" lon="8.47867489015941"><ele>93.0</ele><time>2026-05-01T11:17:16.999Z</time></trkpt><trkpt lat="39.46265693084023" lon="8.478797808588135"><ele>89.0</ele><time>2026-05-01T11:17:17.999Z</time></trkpt><trkpt lat="39.462611554762624" lon="8.478930544019205"><ele>89.0</ele><time>2026-05-01T11:17:18.999Z</time></trkpt><trkpt lat="39.46262807831158" lon="8.479077888629636"><ele>89.0</ele><time>2026-05-01T11:17:19.999Z</time></trkpt><trkpt lat="39.46270563919293" lon="8.479228630109976"><ele>89.0</ele><time>2026-05-01T11:17:20.999Z</time></trkpt><trkpt lat="39.4628036050927" lon="8.479379290130778"><ele>89.0</ele><time>2026-05-01T11:17:21.999Z</time></trkpt><trkpt lat="39.46289276642038" lon="8.479536412928507"><ele>95.66666666666667</ele><time>2026-05-01T11:17:23Z</time></trkpt><trkpt lat="39.46296355266295" lon="8.479713682211194"><ele>102.33333333333334</ele><time>2026-05-01T11:17:24Z</time></trkpt><trkpt lat="39.46305717215559" lon="8.479873159157217"><ele>109.0</ele><time>2026-05-01T11:17:25Z</time></trkpt><trkpt lat="39.463133729283065" lon="8.480046772022883"><ele>109.0</ele><time>2026-05-01T11:17:26Z</time></trkpt><trkpt lat="39.46320924006613" lon="8.48021892278323"><ele>109.0</ele><time>2026-05-01T11:17:27Z</time></trkpt><trkpt lat="39.46328939831662" lon="8.480385852657834"><ele>109.0</ele><time>2026-05-01T11:17:28Z</time></trkpt><trkpt lat="39.4633715319639" lon="8.480534189908294"><ele>109.0</ele><time>2026-05-01T11:17:29Z</time></trkpt><trkpt lat="39.46347414356608" lon="8.480624351704948"><ele>109.2</ele><time>2026-05-01T11:17:30Z</time></trkpt><trkpt lat="39.46359277142842" lon="8.480654137685004"><ele>109.4</ele><time>2026-05-01T11:17:31Z</time></trkpt><trkpt lat="39.463687325370906" lon="8.480624376734509"><ele>109.6</ele><time>2026-05-01T11:17:32Z</time></trkpt><trkpt lat="39.4637554389823" lon="8.480612976729914"><ele>109.8</ele><time>2026-05-01T11:17:33Z</time></trkpt><trkpt lat="39.463844833330384" lon="8.480610650026184"><ele>110.0</ele><time>2026-05-01T11:17:35Z</time></trkpt><trkpt lat="39.463976021619914" lon="8.480612696599247"><ele>110.0</ele><time>2026-05-01T11:17:37Z</time></trkpt><trkpt lat="39.46406655229167" lon="8.4806366503566"><ele>110.0</ele><time>2026-05-01T11:17:38Z</time></trkpt><trkpt lat="39.46416273790973" lon="8.480641165711361"><ele>110.0</ele><time>2026-05-01T11:17:39Z</time></trkpt><trkpt lat="39.46426052122301" lon="8.480650681329031"><ele>110.0</ele><time>2026-05-01T11:17:40Z</time></trkpt><trkpt lat="39.46435447233666" lon="8.480681926301939"><ele>110.0</ele><time>2026-05-01T11:17:41Z</time></trkpt><trkpt lat="39.4644180494001" lon="8.480790900701761"><ele>110.0</ele><time>2026-05-01T11:17:42Z</time></trkpt><trkpt lat="39.464388637277445" lon="8.480941419805728"><ele>110.0</ele><time>2026-05-01T11:17:43Z</time></trkpt><trkpt lat="39.46436322441485" lon="8.481087801590448"><ele>110.0</ele><time>2026-05-01T11:17:44Z</time></trkpt><trkpt lat="39.464327366247566" lon="8.481231425606916"><ele>110.0</ele><time>2026-05-01T11:17:45Z</time></trkpt><trkpt lat="39.46433600526207" lon="8.481376730638942"><ele>108.0</ele><time>2026-05-01T11:17:46Z</time></trkpt><trkpt lat="39.464409283050934" lon="8.481500948885708"><ele>106.0</ele><time>2026-05-01T11:17:47Z</time></trkpt><trkpt lat="39.464530154552634" lon="8.481554090105703"><ele>104.0</ele><time>2026-05-01T11:17:48Z</time></trkpt><trkpt lat="39.464660068821736" lon="8.481535881342026"><ele>102.0</ele><time>2026-05-01T11:17:49Z</time></trkpt><trkpt lat="39.464783051397504" lon="8.481487275146996"><ele>107.0</ele><time>2026-05-01T11:17:50Z</time></trkpt><trkpt lat="39.46490522359065" lon="8.481473673501256"><ele>112.0</ele><time>2026-05-01T11:17:51Z</time></trkpt><trkpt lat="39.46502216548562" lon="8.481427229283849"><ele>117.0</ele><time>2026-05-01T11:17:52Z</time></trkpt><trkpt lat="39.465145621335544" lon="8.48140597223915"><ele>122.0</ele><time>2026-05-01T11:17:53Z</time></trkpt><trkpt lat="39.465269019131725" lon="8.481398219647716"><ele>122.0</ele><time>2026-05-01T11:17:54Z</time></trkpt><trkpt lat="39.46538747182776" lon="8.481407071347252"><ele>121.99999999999999</ele><time>2026-05-01T11:17:55Z</time></trkpt><trkpt lat="39.465500227400526" lon="8.481459770732476"><ele>121.99999999999999</ele><time>2026-05-01T11:17:56Z</time></trkpt><trkpt lat="39.46560643151847" lon="8.481499601387439"><ele>122.0</ele><time>2026-05-01T11:17:57Z</time></trkpt><trkpt lat="39.46568624881858" lon="8.481545980583048"><ele>122.0</ele><time>2026-05-01T11:17:58Z</time></trkpt><trkpt lat="39.46574337339264" lon="8.481612242964623"><ele>122.39999999999999</ele><time>2026-05-01T11:17:59Z</time></trkpt><trkpt lat="39.465759717436576" lon="8.481733902881603"><ele>122.79999999999998</ele><time>2026-05-01T11:18:00Z</time></trkpt><trkpt lat="39.4657219050058" lon="8.481858580182069"><ele>123.2</ele><time>2026-05-01T11:18:01Z</time></trkpt><trkpt lat="39.46561945184318" lon="8.481956330481042"><ele>123.6</ele><time>2026-05-01T11:18:02Z</time></trkpt><trkpt lat="39.46551500128652" lon="8.482038033963908"><ele>124.0</ele><time>2026-05-01T11:18:03Z</time></trkpt><trkpt lat="39.465416410055234" lon="8.48210585596337"><ele>124.00000000000001</ele><time>2026-05-01T11:18:04Z</time></trkpt><trkpt lat="39.4653494686027" lon="8.4821690938564"><ele>124.0</ele><time>2026-05-01T11:18:05Z</time></trkpt><trkpt lat="39.465281956426566" lon="8.482216306827958"><ele>124.0</ele><time>2026-05-01T11:18:06Z</time></trkpt><trkpt lat="39.465220985116275" lon="8.482291374331457"><ele>124.0</ele><time>2026-05-01T11:18:07Z</time></trkpt><trkpt lat="39.465169372177925" lon="8.482389838702105"><ele>124.00000000000001</ele><time>2026-05-01T11:18:08Z</time></trkpt><trkpt lat="39.465154419159454" lon="8.482511314004247"><ele>124.0</ele><time>2026-05-01T11:18:09Z</time></trkpt><trkpt lat="39.465175663447106" lon="8.482640348632827"><ele>124.00000000000001</ele><time>2026-05-01T11:18:10Z</time></trkpt><trkpt lat="39.46522083026216" lon="8.482758727082457"><ele>124.0</ele><time>2026-05-01T11:18:11Z</time></trkpt><trkpt lat="39.46527173914524" lon="8.482843889163343"><ele>124.0</ele><time>2026-05-01T11:18:12Z</time></trkpt><trkpt lat="39.46531241140504" lon="8.482915971547962"><ele>124.0</ele><time>2026-05-01T11:18:13Z</time></trkpt><trkpt lat="39.46531312765441" lon="8.483003713521176"><ele>124.00000000000001</ele><time>2026-05-01T11:18:14Z</time></trkpt><trkpt lat="39.46531474686485" lon="8.483093580531717"><ele>124.0</ele><time>2026-05-01T11:18:15Z</time></trkpt><trkpt lat="39.46526727693653" lon="8.483188275053429"><ele>126.33333333333334</ele><time>2026-05-01T11:18:16Z</time></trkpt><trkpt lat="39.4651864486417" lon="8.483245183216221"><ele>128.66666666666669</ele><time>2026-05-01T11:18:17Z</time></trkpt><trkpt lat="39.46511547361991" lon="8.483314371048046"><ele>131.0</ele><time>2026-05-01T11:18:18Z</time></trkpt><trkpt lat="39.465037401272255" lon="8.483370567760534"><ele>133.33333333333334</ele><time>2026-05-01T11:18:19Z</time></trkpt><trkpt lat="39.46497685830656" lon="8.483457955263132"><ele>135.66666666666666</ele><time>2026-05-01T11:18:20Z</time></trkpt><trkpt lat="39.46492979042189" lon="8.483551149533813"><ele>138.0</ele><time>2026-05-01T11:18:21Z</time></trkpt><trkpt lat="39.46488109293652" lon="8.48365144546257"><ele>138.0</ele><time>2026-05-01T11:18:22Z</time></trkpt><trkpt lat="39.464844619264504" lon="8.483736137917369"><ele>138.0</ele><time>2026-05-01T11:18:23Z</time></trkpt><trkpt lat="39.464818657816814" lon="8.483836710728529"><ele>138.0</ele><time>2026-05-01T11:18:24Z</time></trkpt><trkpt lat="39.464840001876304" lon="8.483953762614497"><ele>138.0</ele><time>2026-05-01T11:18:25Z</time></trkpt><trkpt lat="39.464876124605865" lon="8.484058022100132"><ele>138.0</ele><time>2026-05-01T11:18:26Z</time></trkpt><trkpt lat="39.46493907116758" lon="8.484160408711281"><ele>138.0</ele><time>2026-05-01T11:18:27Z</time></trkpt><trkpt lat="39.465057837036504" lon="8.484241446744058"><ele>139.75</ele><time>2026-05-01T11:18:28Z</time></trkpt><trkpt lat="39.46518440159392" lon="8.484312777743739"><ele>141.5</ele><time>2026-05-01T11:18:29Z</time></trkpt><trkpt lat="39.465317113271354" lon="8.484389210500757"><ele>143.25</ele><time>2026-05-01T11:18:29.999Z</time></trkpt><trkpt lat="39.4654419058022" lon="8.484461082343415"><ele>145.0</ele><time>2026-05-01T11:18:30.999Z</time></trkpt><trkpt lat="39.465560460379486" lon="8.484529361543089"><ele>146.8</ele><time>2026-05-01T11:18:31.999Z</time></trkpt><trkpt lat="39.46566148030512" lon="8.48459494102981"><ele>148.6</ele><time>2026-05-01T11:18:32.999Z</time></trkpt><trkpt lat="39.46574178825868" lon="8.484660536556017"><ele>150.4</ele><time>2026-05-01T11:18:33.999Z</time></trkpt><trkpt lat="39.465801790600445" lon="8.484741794461797"><ele>152.2</ele><time>2026-05-01T11:18:34.999Z</time></trkpt><trkpt lat="39.4658521103779" lon="8.4848447249522"><ele>154.0</ele><time>2026-05-01T11:18:35.999Z</time></trkpt><trkpt lat="39.46589081756998" lon="8.484960838175667"><ele>154.0</ele><time>2026-05-01T11:18:36.999Z</time></trkpt><trkpt lat="39.465932724458206" lon="8.485080516737026"><ele>154.0</ele><time>2026-05-01T11:18:37.999Z</time></trkpt><trkpt lat="39.465989143225556" lon="8.485193853773032"><ele>154.0</ele><time>2026-05-01T11:18:38.999Z</time></trkpt><trkpt lat="39.46604367866365" lon="8.485306672923656"><ele>154.0</ele><time>2026-05-01T11:18:39.999Z</time></trkpt><trkpt lat="39.46609563458039" lon="8.485396828846802"><ele>154.0</ele><time>2026-05-01T11:18:40.999Z</time></trkpt><trkpt lat="39.46616767398564" lon="8.485467447138749"><ele>152.33333333333334</ele><time>2026-05-01T11:18:41.999Z</time></trkpt><trkpt lat="39.466236578848864" lon="8.485527055964573"><ele>150.66666666666669</ele><time>2026-05-01T11:18:42.999Z</time></trkpt><trkpt lat="39.46629900114522" lon="8.485593516779426"><ele>149.0</ele><time>2026-05-01T11:18:43.999Z</time></trkpt><trkpt lat="39.4663285113081" lon="8.485680302307047"><ele>147.33333333333334</ele><time>2026-05-01T11:18:44.999Z</time></trkpt><trkpt lat="39.46632783351435" lon="8.485777301739331"><ele>145.66666666666666</ele><time>2026-05-01T11:18:45.999Z</time></trkpt><trkpt lat="39.4663195866433" lon="8.48587368312216"><ele>144.0</ele><time>2026-05-01T11:18:46.999Z</time></trkpt><trkpt lat="39.466329673041194" lon="8.485969163364759"><ele>148.5</ele><time>2026-05-01T11:18:47.999Z</time></trkpt><trkpt lat="39.46635802595932" lon="8.486060890252743"><ele>153.0</ele><time>2026-05-01T11:18:48.999Z</time></trkpt><trkpt lat="39.46638899309077" lon="8.486144129338834"><ele>157.5</ele><time>2026-05-01T11:18:49.999Z</time></trkpt><trkpt lat="39.466465429248736" lon="8.48618271470922"><ele>162.0</ele><time>2026-05-01T11:18:50.999Z</time></trkpt><trkpt lat="39.46653975936838" lon="8.48618713712372"><ele>166.5</ele><time>2026-05-01T11:18:51.999Z</time></trkpt><trkpt lat="39.466602790290345" lon="8.486193072748826"><ele>171.0</ele><time>2026-05-01T11:18:52.999Z</time></trkpt><trkpt lat="39.466706435079885" lon="8.486205341463803"><ele>169.60000000000002</ele><time>2026-05-01T11:18:54.999Z</time></trkpt><trkpt lat="39.466766739449476" lon="8.48632375528723"><ele>168.2</ele><time>2026-05-01T11:18:56.999Z</time></trkpt><trkpt lat="39.46679013543895" lon="8.486482579037926"><ele>166.8</ele><time>2026-05-01T11:18:58.999Z</time></trkpt><trkpt lat="39.46676539013657" lon="8.486576507652677"><ele>165.39999999999998</ele><time>2026-05-01T11:18:59.999Z</time></trkpt><trkpt lat="39.466730660639946" lon="8.486662331344514"><ele>164.0</ele><time>2026-05-01T11:19:00.999Z</time></trkpt><trkpt lat="39.466700821991374" lon="8.486747192257354"><ele>164.0</ele><time>2026-05-01T11:19:01.999Z</time></trkpt><trkpt lat="39.466672720175495" lon="8.486836002363566"><ele>164.0</ele><time>2026-05-01T11:19:02.999Z</time></trkpt><trkpt lat="39.46665044469059" lon="8.486924717978614"><ele>164.0</ele><time>2026-05-01T11:19:03.999Z</time></trkpt><trkpt lat="39.46666181188306" lon="8.487092069728911"><ele>164.0</ele><time>2026-05-01T11:19:05.999Z</time></trkpt><trkpt lat="39.46668282114898" lon="8.487192986245837"><ele>164.0</ele><time>2026-05-01T11:19:06.999Z</time></trkpt><trkpt lat="39.46672671357122" lon="8.487281403171984"><ele>164.0</ele><time>2026-05-01T11:19:07.999Z</time></trkpt><trkpt lat="39.46676400190844" lon="8.487370747141332"><ele>163.85714285714283</ele><time>2026-05-01T11:19:08.999Z</time></trkpt><trkpt lat="39.466802431863364" lon="8.48745259882845"><ele>163.71428571428572</ele><time>2026-05-01T11:19:09.999Z</time></trkpt><trkpt lat="39.466788101085136" lon="8.487541516082105"><ele>163.57142857142856</ele><time>2026-05-01T11:19:10.999Z</time></trkpt><trkpt lat="39.46677955641546" lon="8.487622493471099"><ele>163.42857142857142</ele><time>2026-05-01T11:19:11.999Z</time></trkpt><trkpt lat="39.46673763992002" lon="8.487700419479838"><ele>163.28571428571428</ele><time>2026-05-01T11:19:12.999Z</time></trkpt><trkpt lat="39.466704283659396" lon="8.487780520446881"><ele>163.14285714285714</ele><time>2026-05-01T11:19:13.999Z</time></trkpt><trkpt lat="39.46668500230885" lon="8.487863794801589"><ele>163.0</ele><time>2026-05-01T11:19:14.999Z</time></trkpt><trkpt lat="39.466683095591804" lon="8.487960513192728"><ele>163.0</ele><time>2026-05-01T11:19:15.999Z</time></trkpt><trkpt lat="39.46669896831371" lon="8.488065839487195"><ele>163.0</ele><time>2026-05-01T11:19:16.999Z</time></trkpt><trkpt lat="39.46677644214981" lon="8.488135676568458"><ele>163.0</ele><time>2026-05-01T11:19:17.999Z</time></trkpt><trkpt lat="39.466839025708786" lon="8.488210663244333"><ele>163.0</ele><time>2026-05-01T11:19:18.999Z</time></trkpt><trkpt lat="39.46691199973392" lon="8.488269296272994"><ele>163.0</ele><time>2026-05-01T11:19:19.999Z</time></trkpt><trkpt lat="39.46699024061032" lon="8.488318141973425"><ele>163.0</ele><time>2026-05-01T11:19:20.999Z</time></trkpt><trkpt lat="39.467070753148874" lon="8.488348707334533"><ele>166.25</ele><time>2026-05-01T11:19:21.999Z</time></trkpt><trkpt lat="39.46715650319131" lon="8.48832178028147"><ele>169.5</ele><time>2026-05-01T11:19:22.999Z</time></trkpt><trkpt lat="39.46726721121198" lon="8.488284205150709"><ele>172.75</ele><time>2026-05-01T11:19:23.999Z</time></trkpt><trkpt lat="39.467401845197266" lon="8.48817799088534"><ele>176.0</ele><time>2026-05-01T11:19:24.999Z</time></trkpt><trkpt lat="39.4675550314861" lon="8.488092701474656"><ele>176.0</ele><time>2026-05-01T11:19:25.999Z</time></trkpt><trkpt lat="39.467755259746085" lon="8.488045301124458"><ele>176.0</ele><time>2026-05-01T11:19:26.999Z</time></trkpt><trkpt lat="39.46795308016382" lon="8.48799520495532"><ele>176.0</ele><time>2026-05-01T11:19:27.999Z</time></trkpt><trkpt lat="39.468111207004426" lon="8.487944410724605"><ele>179.5</ele><time>2026-05-01T11:19:29Z</time></trkpt><trkpt lat="39.468252953705026" lon="8.48791753075848"><ele>183.0</ele><time>2026-05-01T11:19:30Z</time></trkpt><trkpt lat="39.46837757853581" lon="8.487915597314318"><ele>186.5</ele><time>2026-05-01T11:19:31Z</time></trkpt><trkpt lat="39.4684558214481" lon="8.487962760231232"><ele>190.0</ele><time>2026-05-01T11:19:32Z</time></trkpt><trkpt lat="39.46853926908639" lon="8.488046144587553"><ele>190.0</ele><time>2026-05-01T11:19:33Z</time></trkpt><trkpt lat="39.46855635912363" lon="8.488203951693798"><ele>190.0</ele><time>2026-05-01T11:19:34Z</time></trkpt><trkpt lat="39.468519583573524" lon="8.48838289929288"><ele>190.0</ele><time>2026-05-01T11:19:35Z</time></trkpt><trkpt lat="39.468453988307914" lon="8.488556675440659"><ele>190.0</ele><time>2026-05-01T11:19:36Z</time></trkpt><trkpt lat="39.468431670721515" lon="8.48872329207834"><ele>189.5</ele><time>2026-05-01T11:19:37Z</time></trkpt><trkpt lat="39.468410706674305" lon="8.488895488089122"><ele>189.0</ele><time>2026-05-01T11:19:38Z</time></trkpt><trkpt lat="39.46840606507957" lon="8.489032684764926"><ele>188.5</ele><time>2026-05-01T11:19:39Z</time></trkpt><trkpt lat="39.4685020244537" lon="8.489228104669756"><ele>188.0</ele><time>2026-05-01T11:19:40Z</time></trkpt><trkpt lat="39.468616059705894" lon="8.48934283049747"><ele>188.0</ele><time>2026-05-01T11:19:41Z</time></trkpt><trkpt lat="39.46875768487884" lon="8.48942811442624"><ele>188.0</ele><time>2026-05-01T11:19:42Z</time></trkpt><trkpt lat="39.46889115880526" lon="8.489528390824516"><ele>188.0</ele><time>2026-05-01T11:19:43Z</time></trkpt><trkpt lat="39.469031798993825" lon="8.489631374468386"><ele>189.0</ele><time>2026-05-01T11:19:44Z</time></trkpt><trkpt lat="39.469183527040535" lon="8.489717864874153"><ele>190.0</ele><time>2026-05-01T11:19:45Z</time></trkpt><trkpt lat="39.46932610303671" lon="8.489825335062957"><ele>191.0</ele><time>2026-05-01T11:19:46Z</time></trkpt><trkpt lat="39.46946986671765" lon="8.489936235115088"><ele>203.0</ele><time>2026-05-01T11:19:47Z</time></trkpt><trkpt lat="39.469610445450805" lon="8.490045447699632"><ele>215.0</ele><time>2026-05-01T11:19:48Z</time></trkpt><trkpt lat="39.469728937997765" lon="8.490184802526628"><ele>227.0</ele><time>2026-05-01T11:19:49Z</time></trkpt><trkpt lat="39.46983206482189" lon="8.490336274220674"><ele>220.0</ele><time>2026-05-01T11:19:50Z</time></trkpt><trkpt lat="39.46990974594013" lon="8.490517794906971"><ele>213.0</ele><time>2026-05-01T11:19:51Z</time></trkpt><trkpt lat="39.47000673485005" lon="8.490679670672167"><ele>206.0</ele><time>2026-05-01T11:19:52Z</time></trkpt><trkpt lat="39.47011070002644" lon="8.490824978624657"><ele>206.0</ele><time>2026-05-01T11:19:53Z</time></trkpt><trkpt lat="39.47025039999283" lon="8.490919673433808"><ele>206.0</ele><time>2026-05-01T11:19:54Z</time></trkpt><trkpt lat="39.47039800173155" lon="8.490990418195272"><ele>206.0</ele><time>2026-05-01T11:19:55Z</time></trkpt><trkpt lat="39.470553829565596" lon="8.49104553073358"><ele>211.66666666666669</ele><time>2026-05-01T11:19:56Z</time></trkpt><trkpt lat="39.470711195041474" lon="8.491089586295619"><ele>217.33333333333331</ele><time>2026-05-01T11:19:57Z</time></trkpt><trkpt lat="39.47087204730317" lon="8.49110985701728"><ele>223.0</ele><time>2026-05-01T11:19:58Z</time></trkpt><trkpt lat="39.47103287213902" lon="8.491098573043192"><ele>223.0</ele><time>2026-05-01T11:19:59Z</time></trkpt><trkpt lat="39.47119446237915" lon="8.491066021972296"><ele>223.0</ele><time>2026-05-01T11:20:00Z</time></trkpt><trkpt lat="39.4713559970446" lon="8.491034492521806"><ele>223.0</ele><time>2026-05-01T11:20:01Z</time></trkpt><trkpt lat="39.471521154535196" lon="8.491024710149286"><ele>223.66666666666666</ele><time>2026-05-01T11:20:02Z</time></trkpt><trkpt lat="39.47168457638329" lon="8.491063174276285"><ele>224.33333333333331</ele><time>2026-05-01T11:20:03Z</time></trkpt><trkpt lat="39.47184803693954" lon="8.4910902986703"><ele>225.0</ele><time>2026-05-01T11:20:04Z</time></trkpt><trkpt lat="39.47201367297442" lon="8.491097838608875"><ele>228.0</ele><time>2026-05-01T11:20:05Z</time></trkpt><trkpt lat="39.472176292995215" lon="8.491127337879576"><ele>231.0</ele><time>2026-05-01T11:20:06Z</time></trkpt><trkpt lat="39.47233171099171" lon="8.491151979589205"><ele>234.0</ele><time>2026-05-01T11:20:07Z</time></trkpt><trkpt lat="39.47246824063214" lon="8.49119246557177"><ele>234.0</ele><time>2026-05-01T11:20:08Z</time></trkpt><trkpt lat="39.47259391214742" lon="8.491194585330003"><ele>234.0</ele><time>2026-05-01T11:20:09Z</time></trkpt><trkpt lat="39.47269691315648" lon="8.491246268347961"><ele>234.0</ele><time>2026-05-01T11:20:10Z</time></trkpt><trkpt lat="39.47277168581132" lon="8.491341147590274"><ele>234.0</ele><time>2026-05-01T11:20:11Z</time></trkpt><trkpt lat="39.47278600621295" lon="8.491497336809354"><ele>229.25</ele><time>2026-05-01T11:20:12Z</time></trkpt><trkpt lat="39.47276586575134" lon="8.49168508214248"><ele>224.5</ele><time>2026-05-01T11:20:13Z</time></trkpt><trkpt lat="39.47275857415998" lon="8.491876949334943"><ele>219.75</ele><time>2026-05-01T11:20:14Z</time></trkpt><trkpt lat="39.47279397237197" lon="8.492064714772917"><ele>215.0</ele><time>2026-05-01T11:20:15Z</time></trkpt><trkpt lat="39.472859829639866" lon="8.492250835911946"><ele>223.33333333333334</ele><time>2026-05-01T11:20:16Z</time></trkpt><trkpt lat="39.472957108501554" lon="8.492413848768436"><ele>231.66666666666669</ele><time>2026-05-01T11:20:17Z</time></trkpt><trkpt lat="39.47308202554477" lon="8.492537855511578"><ele>240.0</ele><time>2026-05-01T11:20:18Z</time></trkpt><trkpt lat="39.47319470339478" lon="8.492650815174407"><ele>240.0</ele><time>2026-05-01T11:20:19Z</time></trkpt><trkpt lat="39.47324232015421" lon="8.492799845202287"><ele>240.0</ele><time>2026-05-01T11:20:20Z</time></trkpt><trkpt lat="39.4732235897765" lon="8.492993241498251"><ele>240.0</ele><time>2026-05-01T11:20:21Z</time></trkpt><trkpt lat="39.473194487119066" lon="8.493175052388974"><ele>240.0</ele><time>2026-05-01T11:20:22Z</time></trkpt><trkpt lat="39.47319290227848" lon="8.493340012883454"><ele>236.5</ele><time>2026-05-01T11:20:23Z</time></trkpt><trkpt lat="39.47324560668532" lon="8.493493581365732"><ele>233.0</ele><time>2026-05-01T11:20:24Z</time></trkpt><trkpt lat="39.473347058422355" lon="8.493613146423701"><ele>229.5</ele><time>2026-05-01T11:20:25Z</time></trkpt><trkpt lat="39.473486057217634" lon="8.493692189841138"><ele>226.0</ele><time>2026-05-01T11:20:26Z</time></trkpt><trkpt lat="39.47363867216215" lon="8.493735206002883"><ele>227.0</ele><time>2026-05-01T11:20:27Z</time></trkpt><trkpt lat="39.473793791242386" lon="8.493739377778427"><ele>228.0</ele><time>2026-05-01T11:20:28Z</time></trkpt><trkpt lat="39.4739493382582" lon="8.49375779948922"><ele>229.0</ele><time>2026-05-01T11:20:29Z</time></trkpt><trkpt lat="39.47406158635048" lon="8.493895980837024"><ele>229.0</ele><time>2026-05-01T11:20:30Z</time></trkpt><trkpt lat="39.474206044749074" lon="8.493998340779951"><ele>229.0</ele><time>2026-05-01T11:20:31Z</time></trkpt><trkpt lat="39.47434158848435" lon="8.49410384108548"><ele>229.0</ele><time>2026-05-01T11:20:32Z</time></trkpt><trkpt lat="39.47449830199924" lon="8.494156949632718"><ele>234.66666666666666</ele><time>2026-05-01T11:20:33Z</time></trkpt><trkpt lat="39.47466128184834" lon="8.494192222119716"><ele>240.33333333333331</ele><time>2026-05-01T11:20:34Z</time></trkpt><trkpt lat="39.47482526767504" lon="8.494237168327698"><ele>246.0</ele><time>2026-05-01T11:20:35Z</time></trkpt><trkpt lat="39.474986254694954" lon="8.494293866809507"><ele>246.0</ele><time>2026-05-01T11:20:35.999Z</time></trkpt><trkpt lat="39.475141228767114" lon="8.494353371938034"><ele>246.0</ele><time>2026-05-01T11:20:36.999Z</time></trkpt><trkpt lat="39.475283833425536" lon="8.49440542951379"><ele>246.0</ele><time>2026-05-01T11:20:37.999Z</time></trkpt><trkpt lat="39.47542518647365" lon="8.49443181731289"><ele>245.0</ele><time>2026-05-01T11:20:38.999Z</time></trkpt><trkpt lat="39.47556483510298" lon="8.494392671646029"><ele>244.0</ele><time>2026-05-01T11:20:39.999Z</time></trkpt><trkpt lat="39.475678477878105" lon="8.494259291968977"><ele>243.0</ele><time>2026-05-01T11:20:40.999Z</time></trkpt><trkpt lat="39.47576375028647" lon="8.494063452539901"><ele>243.0</ele><time>2026-05-01T11:20:41.999Z</time></trkpt><trkpt lat="39.47581201412084" lon="8.493865781129614"><ele>243.0</ele><time>2026-05-01T11:20:42.999Z</time></trkpt><trkpt lat="39.47588621786313" lon="8.493724138140529"><ele>243.0</ele><time>2026-05-01T11:20:43.999Z</time></trkpt><trkpt lat="39.47595666021078" lon="8.493597724218892"><ele>243.0</ele><time>2026-05-01T11:20:44.999Z</time></trkpt><trkpt lat="39.47607647128078" lon="8.493581526124597"><ele>244.0</ele><time>2026-05-01T11:20:45.999Z</time></trkpt><trkpt lat="39.47618714393624" lon="8.493613759667337"><ele>245.0</ele><time>2026-05-01T11:20:46.999Z</time></trkpt><trkpt lat="39.476297564045666" lon="8.493717441559648"><ele>246.0</ele><time>2026-05-01T11:20:47.999Z</time></trkpt><trkpt lat="39.476425871721275" lon="8.493790664570323"><ele>247.0</ele><time>2026-05-01T11:20:48.999Z</time></trkpt><trkpt lat="39.47655459696883" lon="8.493794252197254"><ele>253.25</ele><time>2026-05-01T11:20:49.999Z</time></trkpt><trkpt lat="39.47669270122215" lon="8.493700935440296"><ele>259.5</ele><time>2026-05-01T11:20:50.999Z</time></trkpt><trkpt lat="39.47680023192734" lon="8.493607084286941"><ele>265.75</ele><time>2026-05-01T11:20:51.999Z</time></trkpt><trkpt lat="39.47689686281652" lon="8.493565538414108"><ele>272.0</ele><time>2026-05-01T11:20:52.999Z</time></trkpt><trkpt lat="39.47698077023556" lon="8.493621620669819"><ele>272.0</ele><time>2026-05-01T11:20:53.999Z</time></trkpt><trkpt lat="39.47704376312913" lon="8.493743071796"><ele>272.0</ele><time>2026-05-01T11:20:54.999Z</time></trkpt><trkpt lat="39.47702443312337" lon="8.493922368765878"><ele>272.0</ele><time>2026-05-01T11:20:55.999Z</time></trkpt><trkpt lat="39.477018163753726" lon="8.494102146388052"><ele>272.0</ele><time>2026-05-01T11:20:56.999Z</time></trkpt><trkpt lat="39.47698483369823" lon="8.494283415418112"><ele>272.5</ele><time>2026-05-01T11:20:57.999Z</time></trkpt><trkpt lat="39.476962300799926" lon="8.494455786551796"><ele>273.0</ele><time>2026-05-01T11:20:58.999Z</time></trkpt><trkpt lat="39.47697115096544" lon="8.494639802096481"><ele>273.5</ele><time>2026-05-01T11:20:59.999Z</time></trkpt><trkpt lat="39.477046596791915" lon="8.494810542859975"><ele>274.0</ele><time>2026-05-01T11:21:00.999Z</time></trkpt><trkpt lat="39.47717002475546" lon="8.494936233667232"><ele>274.0</ele><time>2026-05-01T11:21:01.999Z</time></trkpt><trkpt lat="39.47731186044482" lon="8.495010663080189"><ele>274.0</ele><time>2026-05-01T11:21:02.999Z</time></trkpt><trkpt lat="39.4774366759457" lon="8.495084994557017"><ele>274.0</ele><time>2026-05-01T11:21:03.999Z</time></trkpt><trkpt lat="39.47749296092352" lon="8.495215162932315"><ele>274.0</ele><time>2026-05-01T11:21:04.999Z</time></trkpt><trkpt lat="39.47747163724573" lon="8.495396371624915"><ele>274.0</ele><time>2026-05-01T11:21:05.999Z</time></trkpt><trkpt lat="39.47744203723" lon="8.495551004865929"><ele>274.0</ele><time>2026-05-01T11:21:06.999Z</time></trkpt><trkpt lat="39.477306369850844" lon="8.495595616410844"><ele>274.0</ele><time>2026-05-01T11:21:07.999Z</time></trkpt><trkpt lat="39.47720647020887" lon="8.495694601772128"><ele>274.0</ele><time>2026-05-01T11:21:08.999Z</time></trkpt><trkpt lat="39.47713205070395" lon="8.49577813849668"><ele>274.0</ele><time>2026-05-01T11:21:09.999Z</time></trkpt><trkpt lat="39.477126196397045" lon="8.495920242058023"><ele>274.0</ele><time>2026-05-01T11:21:10.999Z</time></trkpt><trkpt lat="39.47718806194479" lon="8.496099935954021"><ele>274.0</ele><time>2026-05-01T11:21:11.999Z</time></trkpt><trkpt lat="39.47727919455613" lon="8.496238248239282"><ele>274.0</ele><time>2026-05-01T11:21:12.999Z</time></trkpt><trkpt lat="39.47731754617046" lon="8.496387404146876"><ele>275.75</ele><time>2026-05-01T11:21:13.999Z</time></trkpt><trkpt lat="39.47723047745078" lon="8.496539193737934"><ele>277.5</ele><time>2026-05-01T11:21:14.999Z</time></trkpt><trkpt lat="39.477158137285706" lon="8.496702241469691"><ele>279.25</ele><time>2026-05-01T11:21:15.999Z</time></trkpt><trkpt lat="39.47713174122431" lon="8.496864811493136"><ele>281.0</ele><time>2026-05-01T11:21:16.999Z</time></trkpt><trkpt lat="39.47714868564342" lon="8.497038861945814"><ele>278.25</ele><time>2026-05-01T11:21:17.999Z</time></trkpt><trkpt lat="39.47717395285469" lon="8.497217394694953"><ele>275.5</ele><time>2026-05-01T11:21:18.999Z</time></trkpt><trkpt lat="39.47727370872438" lon="8.497350551148859"><ele>272.75</ele><time>2026-05-01T11:21:19.999Z</time></trkpt><trkpt lat="39.47740444417114" lon="8.497423607255897"><ele>270.0</ele><time>2026-05-01T11:21:20.999Z</time></trkpt><trkpt lat="39.477556168613084" lon="8.497435704560717"><ele>270.0</ele><time>2026-05-01T11:21:21.999Z</time></trkpt><trkpt lat="39.47770360252656" lon="8.497419705308491"><ele>270.0</ele><time>2026-05-01T11:21:22.999Z</time></trkpt><trkpt lat="39.47784439749662" lon="8.497371009756979"><ele>270.0</ele><time>2026-05-01T11:21:23.999Z</time></trkpt><trkpt lat="39.47798018236673" lon="8.497293863169798"><ele>270.0</ele><time>2026-05-01T11:21:24.999Z</time></trkpt><trkpt lat="39.478110795561705" lon="8.49720099533528"><ele>267.0</ele><time>2026-05-01T11:21:25.999Z</time></trkpt><trkpt lat="39.478228824214206" lon="8.49708882120778"><ele>264.0</ele><time>2026-05-01T11:21:26.999Z</time></trkpt><trkpt lat="39.47833842680524" lon="8.496960613926651"><ele>261.0</ele><time>2026-05-01T11:21:27.999Z</time></trkpt><trkpt lat="39.47845120406213" lon="8.496841563073577"><ele>258.0</ele><time>2026-05-01T11:21:28.999Z</time></trkpt><trkpt lat="39.478573786122084" lon="8.49673664850691"><ele>262.75</ele><time>2026-05-01T11:21:29.999Z</time></trkpt><trkpt lat="39.4786938374413" lon="8.496627853572342"><ele>267.5</ele><time>2026-05-01T11:21:30.999Z</time></trkpt><trkpt lat="39.47881166574288" lon="8.496517031748784"><ele>272.25</ele><time>2026-05-01T11:21:31.999Z</time></trkpt><trkpt lat="39.4789251011431" lon="8.496398320278402"><ele>277.0</ele><time>2026-05-01T11:21:32.999Z</time></trkpt><trkpt lat="39.479034315180314" lon="8.496278055196527"><ele>284.75</ele><time>2026-05-01T11:21:34Z</time></trkpt><trkpt lat="39.47914385030738" lon="8.496157873783144"><ele>292.5</ele><time>2026-05-01T11:21:35Z</time></trkpt><trkpt lat="39.47926273357918" lon="8.496059136204435"><ele>300.25</ele><time>2026-05-01T11:21:36Z</time></trkpt><trkpt lat="39.47938729529545" lon="8.495977155583406"><ele>308.0</ele><time>2026-05-01T11:21:37Z</time></trkpt><trkpt lat="39.47950625472962" lon="8.495902518903494"><ele>309.5</ele><time>2026-05-01T11:21:38Z</time></trkpt><trkpt lat="39.47961180499691" lon="8.49584363743692"><ele>311.0</ele><time>2026-05-01T11:21:39Z</time></trkpt><trkpt lat="39.47970406244881" lon="8.495845173035992"><ele>312.5</ele><time>2026-05-01T11:21:40Z</time></trkpt><trkpt lat="39.47982220960718" lon="8.495970179013053"><ele>314.0</ele><time>2026-05-01T11:21:41Z</time></trkpt><trkpt lat="39.47991092889871" lon="8.496108269165273"><ele>310.25</ele><time>2026-05-01T11:21:42Z</time></trkpt><trkpt lat="39.47995810069686" lon="8.49628491667245"><ele>306.5</ele><time>2026-05-01T11:21:43Z</time></trkpt><trkpt lat="39.479960521844305" lon="8.496458218093164"><ele>302.75</ele><time>2026-05-01T11:21:44Z</time></trkpt><trkpt lat="39.479925114035105" lon="8.496601270961177"><ele>299.0</ele><time>2026-05-01T11:21:45Z</time></trkpt><trkpt lat="39.47985812615582" lon="8.49675592397623"><ele>299.0</ele><time>2026-05-01T11:21:46Z</time></trkpt><trkpt lat="39.47979968137498" lon="8.49692552949777"><ele>299.0</ele><time>2026-05-01T11:21:47Z</time></trkpt><trkpt lat="39.47977607957162" lon="8.497103046022795"><ele>299.0</ele><time>2026-05-01T11:21:48Z</time></trkpt><trkpt lat="39.47980106739775" lon="8.49728446883032"><ele>299.0</ele><time>2026-05-01T11:21:49Z</time></trkpt><trkpt lat="39.47987546392556" lon="8.497447010988175"><ele>298.75</ele><time>2026-05-01T11:21:50Z</time></trkpt><trkpt lat="39.479979907406026" lon="8.497581864817365"><ele>298.5</ele><time>2026-05-01T11:21:51Z</time></trkpt><trkpt lat="39.48011523462702" lon="8.497659374834479"><ele>298.25</ele><time>2026-05-01T11:21:52Z</time></trkpt><trkpt lat="39.48026494100287" lon="8.497687084918168"><ele>298.0</ele><time>2026-05-01T11:21:53Z</time></trkpt><trkpt lat="39.48042184979161" lon="8.497669838404368"><ele>301.66666666666663</ele><time>2026-05-01T11:21:54Z</time></trkpt><trkpt lat="39.4805770136497" lon="8.497645509225636"><ele>305.3333333333333</ele><time>2026-05-01T11:21:55Z</time></trkpt><trkpt lat="39.480737162183374" lon="8.49763245741581"><ele>309.0</ele><time>2026-05-01T11:21:56Z</time></trkpt><trkpt lat="39.4808955510643" lon="8.497622869500557"><ele>309.0</ele><time>2026-05-01T11:21:57Z</time></trkpt><trkpt lat="39.48104889767206" lon="8.497614032625933"><ele>309.0</ele><time>2026-05-01T11:21:58Z</time></trkpt><trkpt lat="39.4811887620819" lon="8.497604106862337"><ele>309.0</ele><time>2026-05-01T11:21:59Z</time></trkpt><trkpt lat="39.48131842859911" lon="8.497598394919155"><ele>309.0</ele><time>2026-05-01T11:22:00Z</time></trkpt><trkpt lat="39.48144973421946" lon="8.497615267947559"><ele>306.25</ele><time>2026-05-01T11:22:01Z</time></trkpt><trkpt lat="39.48158436191936" lon="8.497666906326614"><ele>303.5</ele><time>2026-05-01T11:22:02Z</time></trkpt><trkpt lat="39.48168863244643" lon="8.4978097294474"><ele>300.75</ele><time>2026-05-01T11:22:03Z</time></trkpt><trkpt lat="39.48177958160262" lon="8.497971446661735"><ele>298.0</ele><time>2026-05-01T11:22:04Z</time></trkpt><trkpt lat="39.48183396804829" lon="8.498163338522845"><ele>298.0</ele><time>2026-05-01T11:22:05Z</time></trkpt><trkpt lat="39.48186538209386" lon="8.498343348949769"><ele>298.0</ele><time>2026-05-01T11:22:06Z</time></trkpt><trkpt lat="39.481941805975666" lon="8.498497594362652"><ele>298.0</ele><time>2026-05-01T11:22:07Z</time></trkpt><trkpt lat="39.48206747562482" lon="8.498600868164377"><ele>298.0</ele><time>2026-05-01T11:22:08Z</time></trkpt><trkpt lat="39.48222224966175" lon="8.498676756254072"><ele>298.0</ele><time>2026-05-01T11:22:09Z</time></trkpt><trkpt lat="39.48236564141204" lon="8.498747944095642"><ele>298.0</ele><time>2026-05-01T11:22:10Z</time></trkpt><trkpt lat="39.482512719724525" lon="8.49882725156456"><ele>298.0</ele><time>2026-05-01T11:22:11Z</time></trkpt><trkpt lat="39.48265625105121" lon="8.498909698330184"><ele>298.0</ele><time>2026-05-01T11:22:12Z</time></trkpt><trkpt lat="39.48279758768945" lon="8.498992035412094"><ele>298.0</ele><time>2026-05-01T11:22:13Z</time></trkpt><trkpt lat="39.4829435246601" lon="8.499058408232507"><ele>298.0</ele><time>2026-05-01T11:22:14Z</time></trkpt><trkpt lat="39.48309491706849" lon="8.499059773557752"><ele>302.75</ele><time>2026-05-01T11:22:15Z</time></trkpt><trkpt lat="39.48324381721793" lon="8.498999305288443"><ele>307.5</ele><time>2026-05-01T11:22:16Z</time></trkpt><trkpt lat="39.483390270111876" lon="8.49893892746072"><ele>312.25</ele><time>2026-05-01T11:22:17Z</time></trkpt><trkpt lat="39.483527787698684" lon="8.498906804089719"><ele>317.0</ele><time>2026-05-01T11:22:18Z</time></trkpt><trkpt lat="39.48365347719261" lon="8.498891222409949"><ele>322.0</ele><time>2026-05-01T11:22:19Z</time></trkpt><trkpt lat="39.48376457868917" lon="8.498891821353904"><ele>327.0</ele><time>2026-05-01T11:22:20Z</time></trkpt><trkpt lat="39.4838459908927" lon="8.498986587254468"><ele>332.0</ele><time>2026-05-01T11:22:21Z</time></trkpt><trkpt lat="39.48387431205006" lon="8.499138249924306"><ele>337.0</ele><time>2026-05-01T11:22:22Z</time></trkpt><trkpt lat="39.48386287243998" lon="8.499318900260702"><ele>337.0</ele><time>2026-05-01T11:22:23Z</time></trkpt><trkpt lat="39.48383825177234" lon="8.499491633391354"><ele>337.0</ele><time>2026-05-01T11:22:24Z</time></trkpt><trkpt lat="39.48384591682533" lon="8.499680991719368"><ele>337.0</ele><time>2026-05-01T11:22:25Z</time></trkpt><trkpt lat="39.48384085710467" lon="8.499863433034088"><ele>337.0</ele><time>2026-05-01T11:22:26Z</time></trkpt><trkpt lat="39.48376920232138" lon="8.500020383689316"><ele>338.5</ele><time>2026-05-01T11:22:27Z</time></trkpt><trkpt lat="39.48370019189653" lon="8.500175893271496"><ele>340.0</ele><time>2026-05-01T11:22:28Z</time></trkpt><trkpt lat="39.48365263978678" lon="8.500332703045554"><ele>341.5</ele><time>2026-05-01T11:22:29Z</time></trkpt><trkpt lat="39.48369391428181" lon="8.50050899047331"><ele>343.0</ele><time>2026-05-01T11:22:30Z</time></trkpt><trkpt lat="39.483773585129065" lon="8.500668570901816"><ele>343.0</ele><time>2026-05-01T11:22:31Z</time></trkpt><trkpt lat="39.48387735016568" lon="8.500799779664447"><ele>343.0</ele><time>2026-05-01T11:22:32Z</time></trkpt><trkpt lat="39.483981393957336" lon="8.500891610251921"><ele>343.0</ele><time>2026-05-01T11:22:33Z</time></trkpt><trkpt lat="39.48401132466521" lon="8.501009642245076"><ele>343.0</ele><time>2026-05-01T11:22:34Z</time></trkpt><trkpt lat="39.48395947959339" lon="8.501145138368125"><ele>343.0</ele><time>2026-05-01T11:22:35Z</time></trkpt><trkpt lat="39.48383838542279" lon="8.50124671041935"><ele>343.0</ele><time>2026-05-01T11:22:36Z</time></trkpt><trkpt lat="39.48372065284741" lon="8.501360657745396"><ele>343.0</ele><time>2026-05-01T11:22:37Z</time></trkpt><trkpt lat="39.48360383168745" lon="8.501448815733106"><ele>343.0</ele><time>2026-05-01T11:22:37.999Z</time></trkpt><trkpt lat="39.48351167236458" lon="8.501557715109683"><ele>337.0</ele><time>2026-05-01T11:22:38.999Z</time></trkpt><trkpt lat="39.48347494152774" lon="8.501678388606749"><ele>331.0</ele><time>2026-05-01T11:22:39.999Z</time></trkpt><trkpt lat="39.483515622090756" lon="8.501819048263403"><ele>325.0</ele><time>2026-05-01T11:22:40.999Z</time></trkpt><trkpt lat="39.48361561322265" lon="8.501933646916415"><ele>319.0</ele><time>2026-05-01T11:22:41.999Z</time></trkpt><trkpt lat="39.48374024744419" lon="8.50202289025266"><ele>328.75</ele><time>2026-05-01T11:22:42.999Z</time></trkpt><trkpt lat="39.48382857907283" lon="8.502151090152301"><ele>338.5</ele><time>2026-05-01T11:22:43.999Z</time></trkpt><trkpt lat="39.483916527579815" lon="8.502301383940143"><ele>348.25</ele><time>2026-05-01T11:22:44.999Z</time></trkpt><trkpt lat="39.48399710415838" lon="8.502447041806214"><ele>358.0</ele><time>2026-05-01T11:22:45.999Z</time></trkpt><trkpt lat="39.48407865154732" lon="8.502567529867722"><ele>358.0</ele><time>2026-05-01T11:22:46.999Z</time></trkpt><trkpt lat="39.48411142324669" lon="8.502691057105984"><ele>358.0</ele><time>2026-05-01T11:22:47.999Z</time></trkpt><trkpt lat="39.48408976260106" lon="8.502809334130252"><ele>358.0</ele><time>2026-05-01T11:22:48.999Z</time></trkpt><trkpt lat="39.48400711980398" lon="8.502905573025272"><ele>358.0</ele><time>2026-05-01T11:22:49.999Z</time></trkpt><trkpt lat="39.483877512782975" lon="8.502892491925671"><ele>358.0</ele><time>2026-05-01T11:22:50.999Z</time></trkpt><trkpt lat="39.483739112883526" lon="8.502912938705673"><ele>357.25</ele><time>2026-05-01T11:22:51.999Z</time></trkpt><trkpt lat="39.48360760677429" lon="8.502912038630443"><ele>356.5</ele><time>2026-05-01T11:22:52.999Z</time></trkpt><trkpt lat="39.48347518493729" lon="8.502927704346428"><ele>355.75</ele><time>2026-05-01T11:22:53.999Z</time></trkpt><trkpt lat="39.48334777400787" lon="8.502937790949277"><ele>355.0</ele><time>2026-05-01T11:22:54.999Z</time></trkpt><trkpt lat="39.48322891904068" lon="8.502956699128939"><ele>355.0</ele><time>2026-05-01T11:22:55.999Z</time></trkpt><trkpt lat="39.48312240805495" lon="8.503027399111925"><ele>355.0</ele><time>2026-05-01T11:22:56.999Z</time></trkpt><trkpt lat="39.48303135965105" lon="8.503148624490047"><ele>355.0</ele><time>2026-05-01T11:22:57.999Z</time></trkpt><trkpt lat="39.48294927148221" lon="8.503291091324934"><ele>355.0</ele><time>2026-05-01T11:22:58.999Z</time></trkpt><trkpt lat="39.482859714032735" lon="8.503421090262252"><ele>349.0</ele><time>2026-05-01T11:22:59.999Z</time></trkpt><trkpt lat="39.48276926814679" lon="8.503540853644534"><ele>343.0</ele><time>2026-05-01T11:23:00.999Z</time></trkpt><trkpt lat="39.482693966417905" lon="8.503678686415602"><ele>337.0</ele><time>2026-05-01T11:23:01.999Z</time></trkpt><trkpt lat="39.48267010058525" lon="8.503847701387027"><ele>331.0</ele><time>2026-05-01T11:23:02.999Z</time></trkpt><trkpt lat="39.48271397472629" lon="8.504039219963735"><ele>331.0</ele><time>2026-05-01T11:23:03.999Z</time></trkpt><trkpt lat="39.482768791445494" lon="8.504235836969276"><ele>331.0</ele><time>2026-05-01T11:23:04.999Z</time></trkpt><trkpt lat="39.48282854044469" lon="8.50441917624665"><ele>331.0</ele><time>2026-05-01T11:23:05.999Z</time></trkpt><trkpt lat="39.48289610197811" lon="8.504589651556907"><ele>333.75</ele><time>2026-05-01T11:23:06.999Z</time></trkpt><trkpt lat="39.482957943420956" lon="8.504747640967791"><ele>336.5</ele><time>2026-05-01T11:23:07.999Z</time></trkpt><trkpt lat="39.48299899377218" lon="8.504882410838148"><ele>339.25</ele><time>2026-05-01T11:23:08.999Z</time></trkpt><trkpt lat="39.483007194983365" lon="8.505002573114862"><ele>342.0</ele><time>2026-05-01T11:23:09.999Z</time></trkpt><trkpt lat="39.48291645882415" lon="8.50508492934482"><ele>342.0</ele><time>2026-05-01T11:23:10.999Z</time></trkpt><trkpt lat="39.48280931830972" lon="8.505157012702444"><ele>342.0</ele><time>2026-05-01T11:23:11.999Z</time></trkpt><trkpt lat="39.482703987989495" lon="8.505256058547511"><ele>342.0</ele><time>2026-05-01T11:23:12.999Z</time></trkpt><trkpt lat="39.48259387843818" lon="8.505369984282032"><ele>342.0</ele><time>2026-05-01T11:23:13.999Z</time></trkpt><trkpt lat="39.482506437726535" lon="8.505519105374702"><ele>348.5</ele><time>2026-05-01T11:23:14.999Z</time></trkpt><trkpt lat="39.482438538600555" lon="8.505689395380521"><ele>355.0</ele><time>2026-05-01T11:23:15.999Z</time></trkpt><trkpt lat="39.48237404422874" lon="8.505844881775152"><ele>361.5</ele><time>2026-05-01T11:23:16.999Z</time></trkpt><trkpt lat="39.48231267238698" lon="8.505981313665945"><ele>368.0</ele><time>2026-05-01T11:23:17.999Z</time></trkpt><trkpt lat="39.48228505376271" lon="8.506120293746536"><ele>368.5</ele><time>2026-05-01T11:23:18.999Z</time></trkpt><trkpt lat="39.482326810528676" lon="8.506257983698125"><ele>369.0</ele><time>2026-05-01T11:23:19.999Z</time></trkpt><trkpt lat="39.48243218206587" lon="8.506344445864519"><ele>369.5</ele><time>2026-05-01T11:23:20.999Z</time></trkpt><trkpt lat="39.482560333086205" lon="8.506348471267637"><ele>370.0</ele><time>2026-05-01T11:23:21.999Z</time></trkpt><trkpt lat="39.482689683859746" lon="8.50630477344074"><ele>370.0</ele><time>2026-05-01T11:23:22.999Z</time></trkpt><trkpt lat="39.48283266395787" lon="8.50628758421939"><ele>370.0</ele><time>2026-05-01T11:23:23.999Z</time></trkpt><trkpt lat="39.48297905225159" lon="8.506263119980563"><ele>370.0</ele><time>2026-05-01T11:23:24.999Z</time></trkpt><trkpt lat="39.48312830620535" lon="8.506210973151163"><ele>370.0</ele><time>2026-05-01T11:23:25.999Z</time></trkpt><trkpt lat="39.48328278062099" lon="8.506163294661263"><ele>373.66666666666663</ele><time>2026-05-01T11:23:26.999Z</time></trkpt><trkpt lat="39.483437908046355" lon="8.50609994449662"><ele>377.3333333333333</ele><time>2026-05-01T11:23:27.999Z</time></trkpt><trkpt lat="39.48358796753604" lon="8.506021391224065"><ele>381.0</ele><time>2026-05-01T11:23:28.999Z</time></trkpt><trkpt lat="39.4837254574556" lon="8.505917652930563"><ele>382.33333333333337</ele><time>2026-05-01T11:23:29.999Z</time></trkpt><trkpt lat="39.48383640523066" lon="8.505771531062907"><ele>383.6666666666667</ele><time>2026-05-01T11:23:30.999Z</time></trkpt><trkpt lat="39.48392620546869" lon="8.505600882384142"><ele>385.0</ele><time>2026-05-01T11:23:31.999Z</time></trkpt><trkpt lat="39.48402079400797" lon="8.505440590502914"><ele>385.25</ele><time>2026-05-01T11:23:32.999Z</time></trkpt><trkpt lat="39.48412348447574" lon="8.50529511637787"><ele>385.5</ele><time>2026-05-01T11:23:33.999Z</time></trkpt><trkpt lat="39.48422312928229" lon="8.505158577067478"><ele>385.75</ele><time>2026-05-01T11:23:34.999Z</time></trkpt><trkpt lat="39.48431549079502" lon="8.505032045806358"><ele>386.0</ele><time>2026-05-01T11:23:35.999Z</time></trkpt><trkpt lat="39.48440762834005" lon="8.504947388206881"><ele>385.99999999999994</ele><time>2026-05-01T11:23:36.999Z</time></trkpt><trkpt lat="39.48449967841145" lon="8.504943699735257"><ele>386.0</ele><time>2026-05-01T11:23:37.999Z</time></trkpt><trkpt lat="39.484573615995664" lon="8.504991211913472"><ele>386.0</ele><time>2026-05-01T11:23:38.999Z</time></trkpt><trkpt lat="39.48462664782174" lon="8.505065203835548"><ele>386.0</ele><time>2026-05-01T11:23:40Z</time></trkpt><trkpt lat="39.48466302208908" lon="8.505149400527353"><ele>385.99999999999994</ele><time>2026-05-01T11:23:41Z</time></trkpt><trkpt lat="39.48466400277118" lon="8.505261068781387"><ele>386.0</ele><time>2026-05-01T11:23:42Z</time></trkpt><trkpt lat="39.48464467925408" lon="8.505352272626862"><ele>385.8333333333333</ele><time>2026-05-01T11:23:43Z</time></trkpt><trkpt lat="39.48460793581168" lon="8.505419602049392"><ele>385.66666666666663</ele><time>2026-05-01T11:23:44Z</time></trkpt><trkpt lat="39.48455288478507" lon="8.505541343987582"><ele>385.5</ele><time>2026-05-01T11:23:46Z</time></trkpt><trkpt lat="39.48453456605386" lon="8.505624049535953"><ele>385.33333333333337</ele><time>2026-05-01T11:23:48Z</time></trkpt><trkpt lat="39.48450547301156" lon="8.50570455199554"><ele>385.1666666666667</ele><time>2026-05-01T11:23:51Z</time></trkpt><trkpt lat="39.484528243762405" lon="8.505604793540419"><ele>385.0</ele><time>2026-05-01T11:23:53Z</time></trkpt><trkpt lat="39.48460571445965" lon="8.50552834540967"><ele>386.0</ele><time>2026-05-01T11:23:54Z</time></trkpt><trkpt lat="39.4846328021698" lon="8.5054206519629"><ele>387.0</ele><time>2026-05-01T11:23:55Z</time></trkpt><trkpt lat="39.48466566080591" lon="8.505306267565523"><ele>388.0</ele><time>2026-05-01T11:23:56Z</time></trkpt><trkpt lat="39.48470626833203" lon="8.505190751325394"><ele>389.0</ele><time>2026-05-01T11:23:57Z</time></trkpt><trkpt lat="39.484764486127986" lon="8.505072006603198"><ele>390.0</ele><time>2026-05-01T11:23:58Z</time></trkpt><trkpt lat="39.48483764204268" lon="8.504948901595476"><ele>390.0</ele><time>2026-05-01T11:23:59Z</time></trkpt><trkpt lat="39.484895855618525" lon="8.504808530199696"><ele>390.0</ele><time>2026-05-01T11:24:00Z</time></trkpt><trkpt lat="39.48501889392256" lon="8.50470221378494"><ele>390.0</ele><time>2026-05-01T11:24:01Z</time></trkpt><trkpt lat="39.48512073133073" lon="8.504585858696682"><ele>390.0</ele><time>2026-05-01T11:24:02Z</time></trkpt><trkpt lat="39.48523875790892" lon="8.504496863851651"><ele>387.5</ele><time>2026-05-01T11:24:03Z</time></trkpt><trkpt lat="39.48536674312072" lon="8.50443041580574"><ele>385.0</ele><time>2026-05-01T11:24:04Z</time></trkpt><trkpt lat="39.48549243980287" lon="8.504357129149918"><ele>382.5</ele><time>2026-05-01T11:24:05Z</time></trkpt><trkpt lat="39.485605309730516" lon="8.504285565494845"><ele>380.0</ele><time>2026-05-01T11:24:06Z</time></trkpt><trkpt lat="39.48571417744768" lon="8.504199491840241"><ele>382.75</ele><time>2026-05-01T11:24:07Z</time></trkpt><trkpt lat="39.48580346259807" lon="8.50407192875009"><ele>385.5</ele><time>2026-05-01T11:24:08Z</time></trkpt><trkpt lat="39.48584906915109" lon="8.503903454518415"><ele>388.25</ele><time>2026-05-01T11:24:09Z</time></trkpt><trkpt lat="39.485863366549104" lon="8.503726181994393"><ele>391.0</ele><time>2026-05-01T11:24:10Z</time></trkpt><trkpt lat="39.48589563629032" lon="8.503566281372601"><ele>391.0</ele><time>2026-05-01T11:24:11Z</time></trkpt><trkpt lat="39.48596536708099" lon="8.503443700285496"><ele>391.0</ele><time>2026-05-01T11:24:12Z</time></trkpt><trkpt lat="39.4860692837686" lon="8.503372928354558"><ele>391.0</ele><time>2026-05-01T11:24:13Z</time></trkpt><trkpt lat="39.486200430311925" lon="8.5033465850547"><ele>391.0</ele><time>2026-05-01T11:24:14Z</time></trkpt><trkpt lat="39.486340167723704" lon="8.503348805728846"><ele>395.25</ele><time>2026-05-01T11:24:15Z</time></trkpt><trkpt lat="39.486475383204684" lon="8.503400995493289"><ele>399.5</ele><time>2026-05-01T11:24:16Z</time></trkpt><trkpt lat="39.48660878093216" lon="8.50348488221674"><ele>403.75</ele><time>2026-05-01T11:24:17Z</time></trkpt><trkpt lat="39.48674234826274" lon="8.503567485373777"><ele>408.0</ele><time>2026-05-01T11:24:18Z</time></trkpt><trkpt lat="39.48687623366998" lon="8.503649262222165"><ele>408.0</ele><time>2026-05-01T11:24:19Z</time></trkpt><trkpt lat="39.48701156808168" lon="8.503724863699285"><ele>408.0</ele><time>2026-05-01T11:24:20Z</time></trkpt><trkpt lat="39.48714551687897" lon="8.503793866254366"><ele>408.0</ele><time>2026-05-01T11:24:21Z</time></trkpt><trkpt lat="39.487277994576736" lon="8.50386306217527"><ele>408.0</ele><time>2026-05-01T11:24:22Z</time></trkpt><trkpt lat="39.4874064871956" lon="8.503927424428264"><ele>412.75</ele><time>2026-05-01T11:24:23Z</time></trkpt><trkpt lat="39.48753744185092" lon="8.50397261974657"><ele>417.5</ele><time>2026-05-01T11:24:24Z</time></trkpt><trkpt lat="39.487676808938616" lon="8.50397888731493"><ele>422.25</ele><time>2026-05-01T11:24:25Z</time></trkpt><trkpt lat="39.487819760242985" lon="8.503943360095871"><ele>427.0</ele><time>2026-05-01T11:24:26Z</time></trkpt><trkpt lat="39.48796123317599" lon="8.503877732432425"><ele>427.0</ele><time>2026-05-01T11:24:27Z</time></trkpt><trkpt lat="39.48809594645692" lon="8.503794262064785"><ele>427.0</ele><time>2026-05-01T11:24:28Z</time></trkpt><trkpt lat="39.48822435917978" lon="8.5037008348159"><ele>427.0</ele><time>2026-05-01T11:24:29Z</time></trkpt><trkpt lat="39.48834014698988" lon="8.503591957454011"><ele>427.0</ele><time>2026-05-01T11:24:30Z</time></trkpt><trkpt lat="39.48843048024763" lon="8.503437538617552"><ele>427.0</ele><time>2026-05-01T11:24:31Z</time></trkpt><trkpt lat="39.48848710589798" lon="8.503244699390082"><ele>427.0</ele><time>2026-05-01T11:24:32Z</time></trkpt><trkpt lat="39.48853798989492" lon="8.503051562938845"><ele>427.0</ele><time>2026-05-01T11:24:33Z</time></trkpt><trkpt lat="39.488604216604045" lon="8.50286777631827"><ele>427.6666666666667</ele><time>2026-05-01T11:24:34Z</time></trkpt><trkpt lat="39.48867685696055" lon="8.502685952545788"><ele>428.33333333333337</ele><time>2026-05-01T11:24:35Z</time></trkpt><trkpt lat="39.48874872002303" lon="8.50250773014827"><ele>429.0</ele><time>2026-05-01T11:24:36Z</time></trkpt><trkpt lat="39.48882362853923" lon="8.502334306318321"><ele>431.5</ele><time>2026-05-01T11:24:37Z</time></trkpt><trkpt lat="39.48889936736026" lon="8.50216327416648"><ele>434.0</ele><time>2026-05-01T11:24:38Z</time></trkpt><trkpt lat="39.488972075611684" lon="8.501997351565928"><ele>436.5</ele><time>2026-05-01T11:24:39Z</time></trkpt><trkpt lat="39.48904143320008" lon="8.50183593634806"><ele>439.0</ele><time>2026-05-01T11:24:40Z</time></trkpt><trkpt lat="39.489111038141445" lon="8.501683579554411"><ele>439.0</ele><time>2026-05-01T11:24:41Z</time></trkpt><trkpt lat="39.48918649399177" lon="8.501537760444435"><ele>439.0</ele><time>2026-05-01T11:24:41.999Z</time></trkpt><trkpt lat="39.489262479016524" lon="8.5013897350314"><ele>439.0</ele><time>2026-05-01T11:24:42.999Z</time></trkpt><trkpt lat="39.48934394217263" lon="8.501246390084145"><ele>439.0</ele><time>2026-05-01T11:24:43.999Z</time></trkpt><trkpt lat="39.48943166164558" lon="8.501121920474047"><ele>440.25</ele><time>2026-05-01T11:24:44.999Z</time></trkpt><trkpt lat="39.48952703657527" lon="8.501010415861165"><ele>441.5</ele><time>2026-05-01T11:24:45.999Z</time></trkpt><trkpt lat="39.48962343733833" lon="8.500906477494077"><ele>442.75</ele><time>2026-05-01T11:24:46.999Z</time></trkpt><trkpt lat="39.48972086104394" lon="8.500812828755596"><ele>444.0</ele><time>2026-05-01T11:24:47.999Z</time></trkpt><trkpt lat="39.48982312082904" lon="8.500731370074263"><ele>440.2</ele><time>2026-05-01T11:24:48.999Z</time></trkpt><trkpt lat="39.48991812320654" lon="8.500646357109801"><ele>436.4</ele><time>2026-05-01T11:24:49.999Z</time></trkpt><trkpt lat="39.48999684125248" lon="8.500540600552338"><ele>432.6</ele><time>2026-05-01T11:24:50.999Z</time></trkpt><trkpt lat="39.49006124208498" lon="8.500422988925148"><ele>428.8</ele><time>2026-05-01T11:24:51.999Z</time></trkpt><trkpt lat="39.49011402254962" lon="8.5002997167019"><ele>425.0</ele><time>2026-05-01T11:24:52.999Z</time></trkpt><trkpt lat="39.4901448858538" lon="8.500173139223175"><ele>424.6</ele><time>2026-05-01T11:24:53.999Z</time></trkpt><trkpt lat="39.49014187733828" lon="8.500044346966815"><ele>424.2</ele><time>2026-05-01T11:24:54.999Z</time></trkpt><trkpt lat="39.49010128033223" lon="8.499917162776736"><ele>423.79999999999995</ele><time>2026-05-01T11:24:55.999Z</time></trkpt><trkpt lat="39.490041644985205" lon="8.499782118191478"><ele>423.4</ele><time>2026-05-01T11:24:56.999Z</time></trkpt><trkpt lat="39.489978016971875" lon="8.499644824327877"><ele>423.0</ele><time>2026-05-01T11:24:57.999Z</time></trkpt><trkpt lat="39.48990385749186" lon="8.499505918264568"><ele>423.0</ele><time>2026-05-01T11:24:58.999Z</time></trkpt><trkpt lat="39.48981225180579" lon="8.499373455691407"><ele>423.0</ele><time>2026-05-01T11:24:59.999Z</time></trkpt><trkpt lat="39.48970972049448" lon="8.499239900356521"><ele>423.0</ele><time>2026-05-01T11:25:00.999Z</time></trkpt><trkpt lat="39.489601518780084" lon="8.499105389658723"><ele>423.0</ele><time>2026-05-01T11:25:01.999Z</time></trkpt><trkpt lat="39.4894832509513" lon="8.49898516123564"><ele>423.0</ele><time>2026-05-01T11:25:02.999Z</time></trkpt><trkpt lat="39.48935417934101" lon="8.498907887144114"><ele>423.0</ele><time>2026-05-01T11:25:03.999Z</time></trkpt><trkpt lat="39.48922942138001" lon="8.498835095432748"><ele>423.0</ele><time>2026-05-01T11:25:04.999Z</time></trkpt><trkpt lat="39.48911017215508" lon="8.498783813334684"><ele>423.0</ele><time>2026-05-01T11:25:05.999Z</time></trkpt><trkpt lat="39.48900850575945" lon="8.498720413433064"><ele>418.75</ele><time>2026-05-01T11:25:06.999Z</time></trkpt><trkpt lat="39.488958954107154" lon="8.498603988126748"><ele>414.5</ele><time>2026-05-01T11:25:07.999Z</time></trkpt><trkpt lat="39.488922185947175" lon="8.498504940734295"><ele>410.25</ele><time>2026-05-01T11:25:08.999Z</time></trkpt><trkpt lat="39.488888086185284" lon="8.49838127976785"><ele>406.0</ele><time>2026-05-01T11:25:10.999Z</time></trkpt><trkpt lat="39.48886090064872" lon="8.498613437711537"><ele>406.00000000000006</ele><time>2026-05-01T11:25:16.999Z</time></trkpt><trkpt lat="39.488924316878084" lon="8.498615622351535"><ele>406.0</ele><time>2026-05-01T11:25:17.999Z</time></trkpt><trkpt lat="39.48903669524801" lon="8.498687220772004"><ele>406.0</ele><time>2026-05-01T11:25:19.999Z</time></trkpt><trkpt lat="39.48914366895036" lon="8.49871298207079"><ele>406.0</ele><time>2026-05-01T11:25:22.999Z</time></trkpt><trkpt lat="39.48921163617815" lon="8.498735410683624"><ele>406.00000000000006</ele><time>2026-05-01T11:25:23.999Z</time></trkpt><trkpt lat="39.48928440719956" lon="8.498769094781935"><ele>406.0</ele><time>2026-05-01T11:25:24.999Z</time></trkpt><trkpt lat="39.48935677949999" lon="8.498784914759334"><ele>406.14285714285717</ele><time>2026-05-01T11:25:25.999Z</time></trkpt><trkpt lat="39.489429152627224" lon="8.498793931340616"><ele>406.2857142857143</ele><time>2026-05-01T11:25:26.999Z</time></trkpt><trkpt lat="39.48950592978003" lon="8.498803530048084"><ele>406.42857142857144</ele><time>2026-05-01T11:25:27.999Z</time></trkpt><trkpt lat="39.489570547445" lon="8.498819200577929"><ele>406.57142857142856</ele><time>2026-05-01T11:25:28.999Z</time></trkpt><trkpt lat="39.48963210879259" lon="8.498859827434082"><ele>406.7142857142857</ele><time>2026-05-01T11:25:29.999Z</time></trkpt><trkpt lat="39.48970632519514" lon="8.498889530344943"><ele>406.8571428571429</ele><time>2026-05-01T11:25:30.999Z</time></trkpt><trkpt lat="39.489771042682314" lon="8.498896094638754"><ele>407.0</ele><time>2026-05-01T11:25:31.999Z</time></trkpt><trkpt lat="39.48989532635247" lon="8.498977481436969"><ele>406.99999999999994</ele><time>2026-05-01T11:25:33.999Z</time></trkpt><trkpt lat="39.48996905210098" lon="8.499008689046569"><ele>407.0</ele><time>2026-05-01T11:25:34.999Z</time></trkpt><trkpt lat="39.49002827264247" lon="8.499037184889106"><ele>407.0</ele><time>2026-05-01T11:25:35.999Z</time></trkpt><trkpt lat="39.49013204860364" lon="8.499104269250664"><ele>407.0</ele><time>2026-05-01T11:25:37.999Z</time></trkpt><trkpt lat="39.49017820560765" lon="8.499159999542778"><ele>406.99999999999994</ele><time>2026-05-01T11:25:38.999Z</time></trkpt><trkpt lat="39.49024515360321" lon="8.49921411014122"><ele>407.0</ele><time>2026-05-01T11:25:39.999Z</time></trkpt><trkpt lat="39.490288030984836" lon="8.49929198185731"><ele>406.99999999999994</ele><time>2026-05-01T11:25:40.999Z</time></trkpt><trkpt lat="39.49035723010007" lon="8.499354537578851"><ele>407.0</ele><time>2026-05-01T11:25:41.999Z</time></trkpt><trkpt lat="39.49043551928254" lon="8.499401994540678"><ele>407.0</ele><time>2026-05-01T11:25:42.999Z</time></trkpt><trkpt lat="39.49050983699404" lon="8.499433752123316"><ele>407.0</ele><time>2026-05-01T11:25:43.999Z</time></trkpt><trkpt lat="39.490583847451404" lon="8.499438416669612"><ele>406.99999999999994</ele><time>2026-05-01T11:25:44.999Z</time></trkpt><trkpt lat="39.490659040661875" lon="8.499409296773681"><ele>407.0</ele><time>2026-05-01T11:25:46Z</time></trkpt><trkpt lat="39.49073279234841" lon="8.49937956745193"><ele>404.16666666666663</ele><time>2026-05-01T11:25:47Z</time></trkpt><trkpt lat="39.49081587326034" lon="8.499357621592978"><ele>401.3333333333333</ele><time>2026-05-01T11:25:48Z</time></trkpt><trkpt lat="39.49089755732507" lon="8.499339639744939"><ele>398.5</ele><time>2026-05-01T11:25:49Z</time></trkpt><trkpt lat="39.49096636639517" lon="8.499310906183423"><ele>395.66666666666663</ele><time>2026-05-01T11:25:50Z</time></trkpt><trkpt lat="39.49106789937288" lon="8.4993392789556"><ele>392.8333333333333</ele><time>2026-05-01T11:25:52Z</time></trkpt><trkpt lat="39.4911441468301" lon="8.49939232691445"><ele>390.0</ele><time>2026-05-01T11:25:54Z</time></trkpt><trkpt lat="39.49117964379383" lon="8.499492368159611"><ele>390.0</ele><time>2026-05-01T11:25:56Z</time></trkpt><trkpt lat="39.49115463753841" lon="8.49956844733752"><ele>390.0</ele><time>2026-05-01T11:25:57Z</time></trkpt><trkpt lat="39.491159501628076" lon="8.499668833972818"><ele>390.0</ele><time>2026-05-01T11:25:59Z</time></trkpt><trkpt lat="39.491120520583024" lon="8.499757116848198"><ele>390.0</ele><time>2026-05-01T11:26:01Z</time></trkpt><trkpt lat="39.49107688699081" lon="8.499907899801876"><ele>390.0</ele><time>2026-05-01T11:26:03Z</time></trkpt><trkpt lat="39.49103816195789" lon="8.500055536765519"><ele>391.8</ele><time>2026-05-01T11:26:05Z</time></trkpt><trkpt lat="39.49101301939312" lon="8.500208112737791"><ele>393.6</ele><time>2026-05-01T11:26:07Z</time></trkpt><trkpt lat="39.491018762000856" lon="8.500351333479426"><ele>395.4</ele><time>2026-05-01T11:26:09Z</time></trkpt><trkpt lat="39.49105866528507" lon="8.50048572920638"><ele>397.2</ele><time>2026-05-01T11:26:11Z</time></trkpt><trkpt lat="39.49109517167201" lon="8.500569218410137"><ele>399.0</ele><time>2026-05-01T11:26:12Z</time></trkpt><trkpt lat="39.491150349516005" lon="8.50067330511199"><ele>400.2</ele><time>2026-05-01T11:26:14Z</time></trkpt><trkpt lat="39.49120303289808" lon="8.50074811169607"><ele>401.4</ele><time>2026-05-01T11:26:16Z</time></trkpt><trkpt lat="39.49128426809796" lon="8.500824144883616"><ele>402.6</ele><time>2026-05-01T11:26:18Z</time></trkpt><trkpt lat="39.491396401349895" lon="8.500843027302276"><ele>403.8</ele><time>2026-05-01T11:26:20Z</time></trkpt><trkpt lat="39.49131832295307" lon="8.500819008024866"><ele>405.0</ele><time>2026-05-01T11:26:35Z</time></trkpt><trkpt lat="39.49124587488738" lon="8.500743509077251"><ele>405.0</ele><time>2026-05-01T11:26:36Z</time></trkpt><trkpt lat="39.4911699012194" lon="8.50066285137733"><ele>405.0</ele><time>2026-05-01T11:26:37Z</time></trkpt><trkpt lat="39.491111355176805" lon="8.50055656300629"><ele>405.0</ele><time>2026-05-01T11:26:38Z</time></trkpt><trkpt lat="39.49106389027791" lon="8.500436336190807"><ele>405.0</ele><time>2026-05-01T11:26:39Z</time></trkpt><trkpt lat="39.49103231772282" lon="8.50031974546085"><ele>405.0</ele><time>2026-05-01T11:26:40Z</time></trkpt><trkpt lat="39.49101933989865" lon="8.500207202443562"><ele>404.0</ele><time>2026-05-01T11:26:41Z</time></trkpt><trkpt lat="39.49102524933608" lon="8.500088084434774"><ele>403.0</ele><time>2026-05-01T11:26:42Z</time></trkpt><trkpt lat="39.491043828808245" lon="8.499988578272529"><ele>402.0</ele><time>2026-05-01T11:26:42.999Z</time></trkpt><trkpt lat="39.49108536565514" lon="8.499892097419817"><ele>401.0</ele><time>2026-05-01T11:26:43.999Z</time></trkpt><trkpt lat="39.49113167522308" lon="8.49978433769108"><ele>400.0</ele><time>2026-05-01T11:26:44.999Z</time></trkpt><trkpt lat="39.4911663475618" lon="8.499671832959939"><ele>399.0</ele><time>2026-05-01T11:26:45.999Z</time></trkpt><trkpt lat="39.49119426874533" lon="8.499584987483813"><ele>399.0</ele><time>2026-05-01T11:26:46.999Z</time></trkpt><trkpt lat="39.49121576286981" lon="8.499507784079519"><ele>399.0</ele><time>2026-05-01T11:26:47.999Z</time></trkpt><trkpt lat="39.49118449755287" lon="8.499426020403924"><ele>399.0</ele><time>2026-05-01T11:26:49.999Z</time></trkpt><trkpt lat="39.49112250674692" lon="8.499473988796673"><ele>399.0</ele><time>2026-05-01T11:26:52.999Z</time></trkpt><trkpt lat="39.491136152278905" lon="8.499576813858237"><ele>399.0</ele><time>2026-05-01T11:26:59.999Z</time></trkpt><trkpt lat="39.49109263934504" lon="8.499753239571223"><ele>399.0</ele><time>2026-05-01T11:27:01.999Z</time></trkpt><trkpt lat="39.4910458649665" lon="8.499872406488379"><ele>399.0</ele><time>2026-05-01T11:27:02.999Z</time></trkpt><trkpt lat="39.49098625082267" lon="8.499983308496608"><ele>399.0</ele><time>2026-05-01T11:27:03.999Z</time></trkpt><trkpt lat="39.49092401057037" lon="8.5000911558"><ele>399.0</ele><time>2026-05-01T11:27:04.999Z</time></trkpt><trkpt lat="39.49088576474037" lon="8.500208069970371"><ele>399.0</ele><time>2026-05-01T11:27:05.999Z</time></trkpt><trkpt lat="39.490853588731895" lon="8.500312116141192"><ele>399.0</ele><time>2026-05-01T11:27:06.999Z</time></trkpt><trkpt lat="39.490848852910496" lon="8.500414321686216"><ele>400.0</ele><time>2026-05-01T11:27:07.999Z</time></trkpt><trkpt lat="39.49085510658208" lon="8.500521959471978"><ele>401.0</ele><time>2026-05-01T11:27:08.999Z</time></trkpt><trkpt lat="39.490876733560626" lon="8.500625844065167"><ele>402.0</ele><time>2026-05-01T11:27:09.999Z</time></trkpt><trkpt lat="39.49093537957786" lon="8.500714128751403"><ele>403.0</ele><time>2026-05-01T11:27:10.999Z</time></trkpt><trkpt lat="39.490964717673336" lon="8.500817564806725"><ele>404.0</ele><time>2026-05-01T11:27:11.999Z</time></trkpt><trkpt lat="39.491005729551226" lon="8.500907686834267"><ele>405.0</ele><time>2026-05-01T11:27:12.999Z</time></trkpt><trkpt lat="39.49102906253476" lon="8.500988291033993"><ele>405.0</ele><time>2026-05-01T11:27:13.999Z</time></trkpt><trkpt lat="39.491075254844176" lon="8.501130956531938"><ele>405.0</ele><time>2026-05-01T11:27:15.999Z</time></trkpt><trkpt lat="39.491133180088454" lon="8.501164461608738"><ele>405.0</ele><time>2026-05-01T11:27:16.999Z</time></trkpt><trkpt lat="39.49119664505802" lon="8.501182153821093"><ele>405.0</ele><time>2026-05-01T11:27:17.999Z</time></trkpt><trkpt lat="39.491263762148314" lon="8.501163420126884"><ele>405.0</ele><time>2026-05-01T11:27:18.999Z</time></trkpt><trkpt lat="39.49136139596748" lon="8.501134870187261"><ele>405.0</ele><time>2026-05-01T11:27:19.999Z</time></trkpt><trkpt lat="39.49144764112121" lon="8.501151303910374"><ele>407.2</ele><time>2026-05-01T11:27:20.999Z</time></trkpt><trkpt lat="39.491526749413" lon="8.501196089383644"><ele>409.4</ele><time>2026-05-01T11:27:21.999Z</time></trkpt><trkpt lat="39.49159575027735" lon="8.501268723057214"><ele>411.6</ele><time>2026-05-01T11:27:22.999Z</time></trkpt><trkpt lat="39.491674741432696" lon="8.501322664490658"><ele>413.8</ele><time>2026-05-01T11:27:23.999Z</time></trkpt><trkpt lat="39.49175589012153" lon="8.501352940588514"><ele>416.0</ele><time>2026-05-01T11:27:24.999Z</time></trkpt><trkpt lat="39.491862691978476" lon="8.50129634458072"><ele>416.0</ele><time>2026-05-01T11:27:25.999Z</time></trkpt><trkpt lat="39.49194432405633" lon="8.50128241217146"><ele>416.0</ele><time>2026-05-01T11:27:26.999Z</time></trkpt><trkpt lat="39.49203400468217" lon="8.501231413305689"><ele>416.0</ele><time>2026-05-01T11:27:27.999Z</time></trkpt><trkpt lat="39.49213569976528" lon="8.501188748188012"><ele>416.0</ele><time>2026-05-01T11:27:28.999Z</time></trkpt><trkpt lat="39.49222619612603" lon="8.501177519175538"><ele>416.0</ele><time>2026-05-01T11:27:29.999Z</time></trkpt><trkpt lat="39.49229325726244" lon="8.501138808543196"><ele>414.3333333333333</ele><time>2026-05-01T11:27:30.999Z</time></trkpt><trkpt lat="39.49236049988451" lon="8.501175367968091"><ele>412.66666666666663</ele><time>2026-05-01T11:27:31.999Z</time></trkpt><trkpt lat="39.492441442037766" lon="8.501187498300208"><ele>411.0</ele><time>2026-05-01T11:27:32.999Z</time></trkpt><trkpt lat="39.49251128899699" lon="8.50126292084411"><ele>409.33333333333337</ele><time>2026-05-01T11:27:33.999Z</time></trkpt><trkpt lat="39.49258276433832" lon="8.501345195185706"><ele>407.6666666666667</ele><time>2026-05-01T11:27:34.999Z</time></trkpt><trkpt lat="39.492674500898374" lon="8.50141656981055"><ele>406.0</ele><time>2026-05-01T11:27:35.999Z</time></trkpt><trkpt lat="39.492744434550325" lon="8.501493005289744"><ele>406.00000000000006</ele><time>2026-05-01T11:27:36.999Z</time></trkpt><trkpt lat="39.492811600558106" lon="8.50156694421069"><ele>406.0</ele><time>2026-05-01T11:27:37.999Z</time></trkpt><trkpt lat="39.49287633562922" lon="8.501653143861393"><ele>406.0</ele><time>2026-05-01T11:27:38.999Z</time></trkpt><trkpt lat="39.492909213887295" lon="8.501759115287443"><ele>406.0</ele><time>2026-05-01T11:27:39.999Z</time></trkpt><trkpt lat="39.49296617341675" lon="8.501820479603358"><ele>406.00000000000006</ele><time>2026-05-01T11:27:40.999Z</time></trkpt><trkpt lat="39.4930211722723" lon="8.501870228315886"><ele>406.0</ele><time>2026-05-01T11:27:41.999Z</time></trkpt><trkpt lat="39.4931004207091" lon="8.501894487164632"><ele>403.0</ele><time>2026-05-01T11:27:42.999Z</time></trkpt><trkpt lat="39.493193973529266" lon="8.501890225932765"><ele>400.0</ele><time>2026-05-01T11:27:43.999Z</time></trkpt><trkpt lat="39.49328996777246" lon="8.501892007774213"><ele>397.0</ele><time>2026-05-01T11:27:44.999Z</time></trkpt><trkpt lat="39.49338353836925" lon="8.501887330251508"><ele>394.0</ele><time>2026-05-01T11:27:45.999Z</time></trkpt><trkpt lat="39.493469502040924" lon="8.501859116694966"><ele>391.0</ele><time>2026-05-01T11:27:46.999Z</time></trkpt><trkpt lat="39.49354595654458" lon="8.501826032622223"><ele>391.00000000000006</ele><time>2026-05-01T11:27:47.999Z</time></trkpt><trkpt lat="39.49362041968264" lon="8.501764695197426"><ele>391.0</ele><time>2026-05-01T11:27:48.999Z</time></trkpt><trkpt lat="39.49368180859701" lon="8.501665969643037"><ele>391.0</ele><time>2026-05-01T11:27:49.999Z</time></trkpt><trkpt lat="39.49372683298871" lon="8.501550034342193"><ele>391.0</ele><time>2026-05-01T11:27:50.999Z</time></trkpt><trkpt lat="39.493762886583234" lon="8.501446491401937"><ele>391.00000000000006</ele><time>2026-05-01T11:27:52Z</time></trkpt><trkpt lat="39.49380527511845" lon="8.50137001758518"><ele>391.0</ele><time>2026-05-01T11:27:53Z</time></trkpt><trkpt lat="39.49386334132134" lon="8.50132615920777"><ele>390.4</ele><time>2026-05-01T11:27:54Z</time></trkpt><trkpt lat="39.493941021489405" lon="8.501309636935112"><ele>389.8</ele><time>2026-05-01T11:27:55Z</time></trkpt><trkpt lat="39.4940344751137" lon="8.501306711201854"><ele>389.2</ele><time>2026-05-01T11:27:56Z</time></trkpt><trkpt lat="39.49413550660848" lon="8.501308074405149"><ele>388.59999999999997</ele><time>2026-05-01T11:27:57Z</time></trkpt><trkpt lat="39.49423612360196" lon="8.501334657319168"><ele>388.0</ele><time>2026-05-01T11:27:58Z</time></trkpt><trkpt lat="39.49432188130943" lon="8.501384821356304"><ele>388.00000000000006</ele><time>2026-05-01T11:27:59Z</time></trkpt><trkpt lat="39.49438345823597" lon="8.501453623932385"><ele>388.0</ele><time>2026-05-01T11:28:00Z</time></trkpt><trkpt lat="39.49439975268983" lon="8.50156178328562"><ele>388.0</ele><time>2026-05-01T11:28:01Z</time></trkpt><trkpt lat="39.49440674509462" lon="8.50166224897661"><ele>388.0</ele><time>2026-05-01T11:28:02Z</time></trkpt><trkpt lat="39.494380632042166" lon="8.501764013589309"><ele>388.00000000000006</ele><time>2026-05-01T11:28:03Z</time></trkpt><trkpt lat="39.494358143202405" lon="8.501882911476292"><ele>388.0</ele><time>2026-05-01T11:28:04Z</time></trkpt><trkpt lat="39.494337245716885" lon="8.502004392082553"><ele>390.0</ele><time>2026-05-01T11:28:05Z</time></trkpt><trkpt lat="39.49432031107457" lon="8.502102836070174"><ele>392.0</ele><time>2026-05-01T11:28:06Z</time></trkpt><trkpt lat="39.49430034450286" lon="8.502201270479267"><ele>394.0</ele><time>2026-05-01T11:28:07Z</time></trkpt><trkpt lat="39.494281536407804" lon="8.502308391562279"><ele>396.0</ele><time>2026-05-01T11:28:08Z</time></trkpt><trkpt lat="39.49426979878963" lon="8.502394720307356"><ele>398.0</ele><time>2026-05-01T11:28:09Z</time></trkpt><trkpt lat="39.494278746073334" lon="8.502482068575455"><ele>400.0</ele><time>2026-05-01T11:28:10Z</time></trkpt><trkpt lat="39.49429516424343" lon="8.5025666849616"><ele>402.0</ele><time>2026-05-01T11:28:11Z</time></trkpt><trkpt lat="39.49432877545582" lon="8.502646543994102"><ele>402.0</ele><time>2026-05-01T11:28:12Z</time></trkpt><trkpt lat="39.49438837474544" lon="8.502706014788393"><ele>402.0</ele><time>2026-05-01T11:28:13Z</time></trkpt><trkpt lat="39.49446010435251" lon="8.502732277251681"><ele>402.0</ele><time>2026-05-01T11:28:14Z</time></trkpt><trkpt lat="39.49453779674306" lon="8.502687734689605"><ele>402.0</ele><time>2026-05-01T11:28:15Z</time></trkpt><trkpt lat="39.49461126425274" lon="8.502681456736509"><ele>402.0</ele><time>2026-05-01T11:28:16Z</time></trkpt><trkpt lat="39.49469855638191" lon="8.50267006118634"><ele>402.0</ele><time>2026-05-01T11:28:17Z</time></trkpt><trkpt lat="39.4947854037098" lon="8.502638225364542"><ele>398.8333333333333</ele><time>2026-05-01T11:28:18Z</time></trkpt><trkpt lat="39.49487712220038" lon="8.502619095528944"><ele>395.6666666666667</ele><time>2026-05-01T11:28:19Z</time></trkpt><trkpt lat="39.49495394128942" lon="8.502603078002217"><ele>392.5</ele><time>2026-05-01T11:28:20Z</time></trkpt><trkpt lat="39.49502283523483" lon="8.502596880555345"><ele>389.33333333333337</ele><time>2026-05-01T11:28:21Z</time></trkpt><trkpt lat="39.495089179159805" lon="8.502576765014823"><ele>386.1666666666667</ele><time>2026-05-01T11:28:22Z</time></trkpt><trkpt lat="39.49515055404024" lon="8.502621686825755"><ele>383.0</ele><time>2026-05-01T11:28:23Z</time></trkpt><trkpt lat="39.49519649851532" lon="8.50269806858492"><ele>383.0</ele><time>2026-05-01T11:28:24Z</time></trkpt><trkpt lat="39.49522098786852" lon="8.502792788587644"><ele>383.0</ele><time>2026-05-01T11:28:25Z</time></trkpt><trkpt lat="39.49531723583187" lon="8.502855432848717"><ele>383.0</ele><time>2026-05-01T11:28:27Z</time></trkpt><trkpt lat="39.49540178971715" lon="8.502825699915409"><ele>383.0</ele><time>2026-05-01T11:28:28Z</time></trkpt><trkpt lat="39.495483207703906" lon="8.502780399925028"><ele>383.0</ele><time>2026-05-01T11:28:29Z</time></trkpt><trkpt lat="39.495552623133875" lon="8.502699694863926"><ele>382.83333333333337</ele><time>2026-05-01T11:28:30Z</time></trkpt><trkpt lat="39.49563933353884" lon="8.502648352731109"><ele>382.6666666666667</ele><time>2026-05-01T11:28:31Z</time></trkpt><trkpt lat="39.49571052728926" lon="8.502633439559713"><ele>382.5</ele><time>2026-05-01T11:28:32Z</time></trkpt><trkpt lat="39.49578821061673" lon="8.502641804885279"><ele>382.3333333333333</ele><time>2026-05-01T11:28:33Z</time></trkpt><trkpt lat="39.495883179756134" lon="8.502644950276961"><ele>382.16666666666663</ele><time>2026-05-01T11:28:34Z</time></trkpt><trkpt lat="39.49598211528196" lon="8.502674335768651"><ele>382.0</ele><time>2026-05-01T11:28:35Z</time></trkpt><trkpt lat="39.49608710185593" lon="8.502706164132354"><ele>382.0</ele><time>2026-05-01T11:28:36Z</time></trkpt><trkpt lat="39.49619312594297" lon="8.50275811811739"><ele>382.0</ele><time>2026-05-01T11:28:37Z</time></trkpt><trkpt lat="39.49628976238529" lon="8.502807555546005"><ele>382.0</ele><time>2026-05-01T11:28:38Z</time></trkpt><trkpt lat="39.49637932568931" lon="8.502830546075412"><ele>382.0</ele><time>2026-05-01T11:28:39Z</time></trkpt><trkpt lat="39.49647612116322" lon="8.502817077279905"><ele>382.0</ele><time>2026-05-01T11:28:40Z</time></trkpt><trkpt lat="39.49658243526234" lon="8.50277829052157"><ele>381.6</ele><time>2026-05-01T11:28:41Z</time></trkpt><trkpt lat="39.496694617138346" lon="8.502775554198974"><ele>381.20000000000005</ele><time>2026-05-01T11:28:42Z</time></trkpt><trkpt lat="39.496803855558234" lon="8.502771200857454"><ele>380.8</ele><time>2026-05-01T11:28:43Z</time></trkpt><trkpt lat="39.49690264445325" lon="8.502784024034668"><ele>380.4</ele><time>2026-05-01T11:28:44Z</time></trkpt><trkpt lat="39.49699721389614" lon="8.502817739296912"><ele>380.0</ele><time>2026-05-01T11:28:45Z</time></trkpt><trkpt lat="39.49709077954763" lon="8.502875004590084"><ele>385.8</ele><time>2026-05-01T11:28:46Z</time></trkpt><trkpt lat="39.4971826854376" lon="8.502954754366737"><ele>391.6</ele><time>2026-05-01T11:28:46.999Z</time></trkpt><trkpt lat="39.497284892637275" lon="8.503021872488977"><ele>397.4</ele><time>2026-05-01T11:28:47.999Z</time></trkpt><trkpt lat="39.49737150051396" lon="8.503093433795145"><ele>403.2</ele><time>2026-05-01T11:28:48.999Z</time></trkpt><trkpt lat="39.49746367572363" lon="8.503126277571669"><ele>409.0</ele><time>2026-05-01T11:28:49.999Z</time></trkpt><trkpt lat="39.49757199479908" lon="8.503115008982263"><ele>409.0</ele><time>2026-05-01T11:28:50.999Z</time></trkpt><trkpt lat="39.49769291051424" lon="8.503060089210985"><ele>409.0</ele><time>2026-05-01T11:28:51.999Z</time></trkpt><trkpt lat="39.49781518849" lon="8.503012442681797"><ele>409.0</ele><time>2026-05-01T11:28:52.999Z</time></trkpt><trkpt lat="39.497930773725294" lon="8.5029803962947"><ele>409.0</ele><time>2026-05-01T11:28:53.999Z</time></trkpt><trkpt lat="39.49802161724463" lon="8.502983002589714"><ele>407.83333333333337</ele><time>2026-05-01T11:28:54.999Z</time></trkpt><trkpt lat="39.49809176651411" lon="8.502985244157577"><ele>406.6666666666667</ele><time>2026-05-01T11:28:55.999Z</time></trkpt><trkpt lat="39.49815486678622" lon="8.503015310076515"><ele>405.5</ele><time>2026-05-01T11:28:56.999Z</time></trkpt><trkpt lat="39.49820500633604" lon="8.503085565622138"><ele>404.33333333333337</ele><time>2026-05-01T11:28:57.999Z</time></trkpt><trkpt lat="39.49826865230868" lon="8.503157678279452"><ele>403.1666666666667</ele><time>2026-05-01T11:28:58.999Z</time></trkpt><trkpt lat="39.498346760618496" lon="8.503226071941748"><ele>402.0</ele><time>2026-05-01T11:28:59.999Z</time></trkpt><trkpt lat="39.49842292967898" lon="8.503325814158602"><ele>402.0</ele><time>2026-05-01T11:29:00.999Z</time></trkpt><trkpt lat="39.49849295265564" lon="8.503401676229716"><ele>402.0</ele><time>2026-05-01T11:29:01.999Z</time></trkpt><trkpt lat="39.49859623477816" lon="8.50346063810753"><ele>402.0</ele><time>2026-05-01T11:29:03.999Z</time></trkpt><trkpt lat="39.4986658922778" lon="8.503432506962515"><ele>402.0</ele><time>2026-05-01T11:29:04.999Z</time></trkpt><trkpt lat="39.49875285862801" lon="8.50337357312486"><ele>402.0</ele><time>2026-05-01T11:29:05.999Z</time></trkpt><trkpt lat="39.498836551998764" lon="8.503297769946965"><ele>402.8</ele><time>2026-05-01T11:29:06.999Z</time></trkpt><trkpt lat="39.498915424639584" lon="8.503211868556383"><ele>403.6</ele><time>2026-05-01T11:29:07.999Z</time></trkpt><trkpt lat="39.49898285914002" lon="8.503143860718144"><ele>404.40000000000003</ele><time>2026-05-01T11:29:08.999Z</time></trkpt><trkpt lat="39.49907067789668" lon="8.503137145586287"><ele>405.20000000000005</ele><time>2026-05-01T11:29:09.999Z</time></trkpt><trkpt lat="39.49917290265029" lon="8.503117499032316"><ele>406.0</ele><time>2026-05-01T11:29:10.999Z</time></trkpt><trkpt lat="39.49927343076498" lon="8.503112887997595"><ele>406.00000000000006</ele><time>2026-05-01T11:29:11.999Z</time></trkpt><trkpt lat="39.499343616350735" lon="8.503079665371052"><ele>406.0</ele><time>2026-05-01T11:29:12.999Z</time></trkpt><trkpt lat="39.499405492516225" lon="8.503008107526357"><ele>406.0</ele><time>2026-05-01T11:29:13.999Z</time></trkpt><trkpt lat="39.499456326906746" lon="8.502910351382242"><ele>406.0</ele><time>2026-05-01T11:29:14.999Z</time></trkpt><trkpt lat="39.499516582718215" lon="8.502836954436042"><ele>406.00000000000006</ele><time>2026-05-01T11:29:15.999Z</time></trkpt><trkpt lat="39.49960855143968" lon="8.502812203784249"><ele>406.0</ele><time>2026-05-01T11:29:16.999Z</time></trkpt><trkpt lat="39.4997058183184" lon="8.502759562463432"><ele>402.8</ele><time>2026-05-01T11:29:17.999Z</time></trkpt><trkpt lat="39.49980962668621" lon="8.502724518666975"><ele>399.6</ele><time>2026-05-01T11:29:18.999Z</time></trkpt><trkpt lat="39.49991263938481" lon="8.50267528914202"><ele>396.4</ele><time>2026-05-01T11:29:19.999Z</time></trkpt><trkpt lat="39.49999797797521" lon="8.50260929137707"><ele>393.2</ele><time>2026-05-01T11:29:20.999Z</time></trkpt><trkpt lat="39.50007770127295" lon="8.502521336884707"><ele>390.0</ele><time>2026-05-01T11:29:21.999Z</time></trkpt><trkpt lat="39.50014867759182" lon="8.502413752373824"><ele>390.0</ele><time>2026-05-01T11:29:22.999Z</time></trkpt><trkpt lat="39.50020299161062" lon="8.502302975905573"><ele>390.0</ele><time>2026-05-01T11:29:23.999Z</time></trkpt><trkpt lat="39.50027216033152" lon="8.502237486352424"><ele>390.0</ele><time>2026-05-01T11:29:24.999Z</time></trkpt><trkpt lat="39.500329050650784" lon="8.502156022663613"><ele>390.0</ele><time>2026-05-01T11:29:25.999Z</time></trkpt><trkpt lat="39.50040151599391" lon="8.502086755765472"><ele>390.0</ele><time>2026-05-01T11:29:26.999Z</time></trkpt><trkpt lat="39.500464713592045" lon="8.502020507989531"><ele>390.0</ele><time>2026-05-01T11:29:27.999Z</time></trkpt><trkpt lat="39.50052865372083" lon="8.50198007697134"><ele>389.3333333333333</ele><time>2026-05-01T11:29:28.999Z</time></trkpt><trkpt lat="39.50060306123352" lon="8.50199512665491"><ele>388.66666666666663</ele><time>2026-05-01T11:29:29.999Z</time></trkpt><trkpt lat="39.50071232049665" lon="8.50205782212042"><ele>388.0</ele><time>2026-05-01T11:29:31.999Z</time></trkpt><trkpt lat="39.50075783891378" lon="8.502118598388114"><ele>387.3333333333333</ele><time>2026-05-01T11:29:32.999Z</time></trkpt><trkpt lat="39.50076850321519" lon="8.502209576270891"><ele>386.66666666666663</ele><time>2026-05-01T11:29:33.999Z</time></trkpt><trkpt lat="39.500813566664384" lon="8.502316870169047"><ele>386.0</ele><time>2026-05-01T11:29:34.999Z</time></trkpt><trkpt lat="39.50084284709828" lon="8.502432712854278"><ele>386.0</ele><time>2026-05-01T11:29:35.999Z</time></trkpt><trkpt lat="39.500856029898884" lon="8.502547722469568"><ele>386.0</ele><time>2026-05-01T11:29:36.999Z</time></trkpt><trkpt lat="39.500876585412975" lon="8.50264438696756"><ele>386.0</ele><time>2026-05-01T11:29:37.999Z</time></trkpt><trkpt lat="39.5008905732987" lon="8.502725751720293"><ele>386.0</ele><time>2026-05-01T11:29:38.999Z</time></trkpt><trkpt lat="39.50088260700746" lon="8.502860212171498"><ele>386.0</ele><time>2026-05-01T11:29:40.999Z</time></trkpt><trkpt lat="39.50081902969522" lon="8.502986792693608"><ele>387.3333333333333</ele><time>2026-05-01T11:29:42.999Z</time></trkpt><trkpt lat="39.50076236655326" lon="8.50304653473975"><ele>388.66666666666663</ele><time>2026-05-01T11:29:43.999Z</time></trkpt><trkpt lat="39.50069964277652" lon="8.503125051740144"><ele>390.0</ele><time>2026-05-01T11:29:44.999Z</time></trkpt><trkpt lat="39.500653161013204" lon="8.503206772323848"><ele>391.33333333333337</ele><time>2026-05-01T11:29:45.999Z</time></trkpt><trkpt lat="39.50062786473309" lon="8.503286374706464"><ele>392.6666666666667</ele><time>2026-05-01T11:29:46.999Z</time></trkpt><trkpt lat="39.50063619957683" lon="8.503386543274818"><ele>394.0</ele><time>2026-05-01T11:29:47.999Z</time></trkpt><trkpt lat="39.50069493466397" lon="8.503478048876305"><ele>394.00000000000006</ele><time>2026-05-01T11:29:48.999Z</time></trkpt><trkpt lat="39.500757510631736" lon="8.503558370388282"><ele>394.0</ele><time>2026-05-01T11:29:49.999Z</time></trkpt><trkpt lat="39.500791506669124" lon="8.503634039888942"><ele>394.0</ele><time>2026-05-01T11:29:50.999Z</time></trkpt><trkpt lat="39.50085876532233" lon="8.503760568818867"><ele>394.0</ele><time>2026-05-01T11:29:52.999Z</time></trkpt><trkpt lat="39.500884464643924" lon="8.503839853321262"><ele>394.00000000000006</ele><time>2026-05-01T11:29:53.999Z</time></trkpt><trkpt lat="39.50091137046485" lon="8.503933853992503"><ele>394.0</ele><time>2026-05-01T11:29:54.999Z</time></trkpt><trkpt lat="39.50093510205759" lon="8.504039229210488"><ele>395.0</ele><time>2026-05-01T11:29:55.999Z</time></trkpt><trkpt lat="39.50095815246085" lon="8.504159922612065"><ele>396.0</ele><time>2026-05-01T11:29:56.999Z</time></trkpt><trkpt lat="39.50097064352249" lon="8.50428973647162"><ele>397.0</ele><time>2026-05-01T11:29:58Z</time></trkpt><trkpt lat="39.500975480892144" lon="8.504422951955396"><ele>398.0</ele><time>2026-05-01T11:29:59Z</time></trkpt><trkpt lat="39.50097279245669" lon="8.504555271400852"><ele>399.0</ele><time>2026-05-01T11:30:00Z</time></trkpt><trkpt lat="39.50096252486612" lon="8.504677010568146"><ele>400.5</ele><time>2026-05-01T11:30:01Z</time></trkpt><trkpt lat="39.500951094096266" lon="8.504782367130936"><ele>402.0</ele><time>2026-05-01T11:30:02Z</time></trkpt><trkpt lat="39.50096629958365" lon="8.50487716142479"><ele>403.5</ele><time>2026-05-01T11:30:03Z</time></trkpt><trkpt lat="39.50099397855078" lon="8.505019308810672"><ele>405.0</ele><time>2026-05-01T11:30:05Z</time></trkpt><trkpt lat="39.50108643334888" lon="8.505058266137755"><ele>406.5</ele><time>2026-05-01T11:30:07Z</time></trkpt><trkpt lat="39.50115603792367" lon="8.505033475930617"><ele>408.0</ele><time>2026-05-01T11:30:08Z</time></trkpt><trkpt lat="39.501243259928614" lon="8.505035142697118"><ele>405.4</ele><time>2026-05-01T11:30:09Z</time></trkpt><trkpt lat="39.50133684749914" lon="8.505010404217039"><ele>402.79999999999995</ele><time>2026-05-01T11:30:10Z</time></trkpt><trkpt lat="39.50143682383062" lon="8.504979000894595"><ele>400.2</ele><time>2026-05-01T11:30:11Z</time></trkpt><trkpt lat="39.50153883044212" lon="8.504944686539192"><ele>397.6</ele><time>2026-05-01T11:30:12Z</time></trkpt><trkpt lat="39.50162832333295" lon="8.504906819977052"><ele>395.0</ele><time>2026-05-01T11:30:13Z</time></trkpt><trkpt lat="39.501704136892926" lon="8.50487702485343"><ele>394.99999999999994</ele><time>2026-05-01T11:30:14Z</time></trkpt><trkpt lat="39.50177478219964" lon="8.504807398002878"><ele>395.0</ele><time>2026-05-01T11:30:15Z</time></trkpt><trkpt lat="39.501858677261964" lon="8.504751868330615"><ele>395.0</ele><time>2026-05-01T11:30:16Z</time></trkpt><trkpt lat="39.501923911397476" lon="8.504712747530926"><ele>395.0</ele><time>2026-05-01T11:30:17Z</time></trkpt><trkpt lat="39.501988804577074" lon="8.504679459285578"><ele>394.99999999999994</ele><time>2026-05-01T11:30:18Z</time></trkpt><trkpt lat="39.50207117123819" lon="8.504721089020926"><ele>395.0</ele><time>2026-05-01T11:30:19Z</time></trkpt><trkpt lat="39.50215688053694" lon="8.504750155052974"><ele>395.2</ele><time>2026-05-01T11:30:20Z</time></trkpt><trkpt lat="39.50225059715645" lon="8.504784925082568"><ele>395.4</ele><time>2026-05-01T11:30:21Z</time></trkpt><trkpt lat="39.50234445276827" lon="8.504802484050098"><ele>395.6</ele><time>2026-05-01T11:30:22Z</time></trkpt><trkpt lat="39.502443433527574" lon="8.504838851050199"><ele>395.8</ele><time>2026-05-01T11:30:23Z</time></trkpt><trkpt lat="39.50254238403838" lon="8.504875265218814"><ele>396.0</ele><time>2026-05-01T11:30:24Z</time></trkpt><trkpt lat="39.50263767697081" lon="8.504929754912252"><ele>396.0</ele><time>2026-05-01T11:30:25Z</time></trkpt><trkpt lat="39.50273231059229" lon="8.504966511163389"><ele>396.0</ele><time>2026-05-01T11:30:26Z</time></trkpt><trkpt lat="39.502826165922336" lon="8.50500357463512"><ele>396.0</ele><time>2026-05-01T11:30:27Z</time></trkpt><trkpt lat="39.50291700401235" lon="8.50504352608979"><ele>396.0</ele><time>2026-05-01T11:30:28Z</time></trkpt><trkpt lat="39.5029993496474" lon="8.505080152715415"><ele>396.0</ele><time>2026-05-01T11:30:29Z</time></trkpt><trkpt lat="39.50306518890082" lon="8.505167568855718"><ele>396.0</ele><time>2026-05-01T11:30:30Z</time></trkpt><trkpt lat="39.503137171052785" lon="8.50524899329936"><ele>396.0</ele><time>2026-05-01T11:30:31Z</time></trkpt><trkpt lat="39.50320472216351" lon="8.505335684627164"><ele>396.0</ele><time>2026-05-01T11:30:32Z</time></trkpt><trkpt lat="39.50324707959891" lon="8.505434732993752"><ele>396.0</ele><time>2026-05-01T11:30:33Z</time></trkpt><trkpt lat="39.503262432615756" lon="8.505542016686027"><ele>396.0</ele><time>2026-05-01T11:30:34Z</time></trkpt><trkpt lat="39.503267147689684" lon="8.50566261192411"><ele>396.0</ele><time>2026-05-01T11:30:35Z</time></trkpt><trkpt lat="39.50331979429308" lon="8.50573559529499"><ele>396.0</ele><time>2026-05-01T11:30:36Z</time></trkpt><trkpt lat="39.503385074141896" lon="8.505799755876202"><ele>396.0</ele><time>2026-05-01T11:30:37Z</time></trkpt><trkpt lat="39.50346881710914" lon="8.50584939999947"><ele>396.0</ele><time>2026-05-01T11:30:38Z</time></trkpt><trkpt lat="39.50355069982535" lon="8.505888033502668"><ele>396.0</ele><time>2026-05-01T11:30:39Z</time></trkpt><trkpt lat="39.503579769990765" lon="8.506006791638045"><ele>396.0</ele><time>2026-05-01T11:30:40Z</time></trkpt><trkpt lat="39.50362993027781" lon="8.506115215406636"><ele>396.0</ele><time>2026-05-01T11:30:41Z</time></trkpt><trkpt lat="39.503690016744" lon="8.506223798259505"><ele>396.0</ele><time>2026-05-01T11:30:42Z</time></trkpt><trkpt lat="39.503762665145686" lon="8.506299876897828"><ele>396.0</ele><time>2026-05-01T11:30:43Z</time></trkpt><trkpt lat="39.503844814709254" lon="8.506326119163523"><ele>396.0</ele><time>2026-05-01T11:30:44Z</time></trkpt><trkpt lat="39.503933789405956" lon="8.50635581041352"><ele>396.0</ele><time>2026-05-01T11:30:45Z</time></trkpt><trkpt lat="39.50403029291142" lon="8.506365848923943"><ele>396.8333333333333</ele><time>2026-05-01T11:30:46Z</time></trkpt><trkpt lat="39.50411683304788" lon="8.506342834744245"><ele>397.66666666666663</ele><time>2026-05-01T11:30:47Z</time></trkpt><trkpt lat="39.504191786546414" lon="8.506276617149053"><ele>398.5</ele><time>2026-05-01T11:30:48Z</time></trkpt><trkpt lat="39.50426654612372" lon="8.506183474491145"><ele>399.3333333333333</ele><time>2026-05-01T11:30:49Z</time></trkpt><trkpt lat="39.504337294937386" lon="8.506121600057602"><ele>400.16666666666663</ele><time>2026-05-01T11:30:50Z</time></trkpt><trkpt lat="39.504413106767885" lon="8.506107426746784"><ele>401.0</ele><time>2026-05-01T11:30:51Z</time></trkpt><trkpt lat="39.50449807206337" lon="8.506142000454666"><ele>401.3333333333333</ele><time>2026-05-01T11:30:51.999Z</time></trkpt><trkpt lat="39.50458164833591" lon="8.506186923385714"><ele>401.66666666666663</ele><time>2026-05-01T11:30:52.999Z</time></trkpt><trkpt lat="39.50465310132626" lon="8.50625179894054"><ele>402.0</ele><time>2026-05-01T11:30:53.999Z</time></trkpt><trkpt lat="39.50471988278846" lon="8.506326667073802"><ele>402.33333333333337</ele><time>2026-05-01T11:30:54.999Z</time></trkpt><trkpt lat="39.50479291835982" lon="8.506370587186572"><ele>402.6666666666667</ele><time>2026-05-01T11:30:55.999Z</time></trkpt><trkpt lat="39.50486585584971" lon="8.50640111454019"><ele>403.0</ele><time>2026-05-01T11:30:56.999Z</time></trkpt><trkpt lat="39.50495931342491" lon="8.506404155656652"><ele>403.0</ele><time>2026-05-01T11:30:57.999Z</time></trkpt><trkpt lat="39.50504912562645" lon="8.506412660150248"><ele>403.0</ele><time>2026-05-01T11:30:58.999Z</time></trkpt><trkpt lat="39.505125299174544" lon="8.506409415790937"><ele>403.0</ele><time>2026-05-01T11:30:59.999Z</time></trkpt><trkpt lat="39.505215967107304" lon="8.506285271136276"><ele>403.0</ele><time>2026-05-01T11:31:01.999Z</time></trkpt><trkpt lat="39.5052266748346" lon="8.506170568964471"><ele>403.0</ele><time>2026-05-01T11:31:02.999Z</time></trkpt><trkpt lat="39.505240085651465" lon="8.506070977808632"><ele>401.33333333333337</ele><time>2026-05-01T11:31:03.999Z</time></trkpt><trkpt lat="39.505266232591886" lon="8.505984053500434"><ele>399.6666666666667</ele><time>2026-05-01T11:31:04.999Z</time></trkpt><trkpt lat="39.505288745532006" lon="8.505888436789977"><ele>398.0</ele><time>2026-05-01T11:31:05.999Z</time></trkpt><trkpt lat="39.50533464340035" lon="8.505814609192218"><ele>396.33333333333337</ele><time>2026-05-01T11:31:06.999Z</time></trkpt><trkpt lat="39.50539786195128" lon="8.505770220269769"><ele>394.6666666666667</ele><time>2026-05-01T11:31:07.999Z</time></trkpt><trkpt lat="39.50548278551179" lon="8.50579579804372"><ele>393.0</ele><time>2026-05-01T11:31:08.999Z</time></trkpt><trkpt lat="39.50558218131863" lon="8.505800127270009"><ele>393.0</ele><time>2026-05-01T11:31:09.999Z</time></trkpt><trkpt lat="39.50569232684215" lon="8.505808474999995"><ele>393.0</ele><time>2026-05-01T11:31:10.999Z</time></trkpt><trkpt lat="39.505805759384735" lon="8.505789381443273"><ele>393.0</ele><time>2026-05-01T11:31:11.999Z</time></trkpt><trkpt lat="39.505909909439026" lon="8.505770666020922"><ele>393.0</ele><time>2026-05-01T11:31:12.999Z</time></trkpt><trkpt lat="39.506000802122394" lon="8.505742196964878"><ele>393.0</ele><time>2026-05-01T11:31:13.999Z</time></trkpt><trkpt lat="39.506075619640285" lon="8.505702362928513"><ele>393.0</ele><time>2026-05-01T11:31:14.999Z</time></trkpt><trkpt lat="39.506145300086295" lon="8.505685346075738"><ele>393.0</ele><time>2026-05-01T11:31:15.999Z</time></trkpt><trkpt lat="39.506232186010216" lon="8.50578510550258"><ele>393.0</ele><time>2026-05-01T11:31:17.999Z</time></trkpt><trkpt lat="39.50620009867573" lon="8.505904268122304"><ele>393.0</ele><time>2026-05-01T11:31:18.999Z</time></trkpt><trkpt lat="39.50621923942226" lon="8.506041690522578"><ele>393.0</ele><time>2026-05-01T11:31:19.999Z</time></trkpt><trkpt lat="39.50619689695952" lon="8.506182147307022"><ele>396.0</ele><time>2026-05-01T11:31:20.999Z</time></trkpt><trkpt lat="39.50618613076972" lon="8.506317982025749"><ele>399.0</ele><time>2026-05-01T11:31:21.999Z</time></trkpt><trkpt lat="39.50615959750663" lon="8.506455280756796"><ele>402.0</ele><time>2026-05-01T11:31:22.999Z</time></trkpt><trkpt lat="39.506141456812664" lon="8.506582726558467"><ele>405.0</ele><time>2026-05-01T11:31:23.999Z</time></trkpt><trkpt lat="39.50613898363113" lon="8.506688083818716"><ele>408.0</ele><time>2026-05-01T11:31:24.999Z</time></trkpt><trkpt lat="39.50614494648902" lon="8.50677466413831"><ele>408.0</ele><time>2026-05-01T11:31:25.999Z</time></trkpt><trkpt lat="39.50617409867197" lon="8.506866986391499"><ele>408.0</ele><time>2026-05-01T11:31:26.999Z</time></trkpt><trkpt lat="39.50627024128612" lon="8.50690995316431"><ele>408.0</ele><time>2026-05-01T11:31:27.999Z</time></trkpt><trkpt lat="39.50635236929362" lon="8.506970215458251"><ele>408.0</ele><time>2026-05-01T11:31:28.999Z</time></trkpt><trkpt lat="39.5064560312355" lon="8.507018814624509"><ele>408.0</ele><time>2026-05-01T11:31:29.999Z</time></trkpt><trkpt lat="39.5065644684146" lon="8.507062079175993"><ele>407.0</ele><time>2026-05-01T11:31:30.999Z</time></trkpt><trkpt lat="39.50668377007543" lon="8.507100901637472"><ele>406.0</ele><time>2026-05-01T11:31:31.999Z</time></trkpt><trkpt lat="39.50680482198701" lon="8.507140293529524"><ele>405.0</ele><time>2026-05-01T11:31:32.999Z</time></trkpt><trkpt lat="39.50690323520779" lon="8.50718160985209"><ele>404.0</ele><time>2026-05-01T11:31:33.999Z</time></trkpt><trkpt lat="39.5069848870006" lon="8.50722867948073"><ele>403.0</ele><time>2026-05-01T11:31:34.999Z</time></trkpt><trkpt lat="39.50705145173248" lon="8.507298178096335"><ele>403.00000000000006</ele><time>2026-05-01T11:31:35.999Z</time></trkpt><trkpt lat="39.50710607165384" lon="8.507387338475706"><ele>403.0</ele><time>2026-05-01T11:31:36.999Z</time></trkpt><trkpt lat="39.50710828676239" lon="8.507497759973171"><ele>403.0</ele><time>2026-05-01T11:31:37.999Z</time></trkpt><trkpt lat="39.50709359307557" lon="8.507588263124878"><ele>403.0</ele><time>2026-05-01T11:31:38.999Z</time></trkpt><trkpt lat="39.507063086393785" lon="8.507680482631896"><ele>403.00000000000006</ele><time>2026-05-01T11:31:39.999Z</time></trkpt><trkpt lat="39.506991770378676" lon="8.50775227502841"><ele>403.0</ele><time>2026-05-01T11:31:40.999Z</time></trkpt><trkpt lat="39.506904185253475" lon="8.507829319618455"><ele>401.25</ele><time>2026-05-01T11:31:41.999Z</time></trkpt><trkpt lat="39.506811600568156" lon="8.507924287361458"><ele>399.5</ele><time>2026-05-01T11:31:42.999Z</time></trkpt><trkpt lat="39.50671679836874" lon="8.508009965189178"><ele>397.75</ele><time>2026-05-01T11:31:43.999Z</time></trkpt><trkpt lat="39.50661031908781" lon="8.508075938590203"><ele>396.0</ele><time>2026-05-01T11:31:44.999Z</time></trkpt><trkpt lat="39.50649577150608" lon="8.50815020597364"><ele>396.0</ele><time>2026-05-01T11:31:45.999Z</time></trkpt><trkpt lat="39.50639360112525" lon="8.508248480046245"><ele>396.0</ele><time>2026-05-01T11:31:46.999Z</time></trkpt><trkpt lat="39.50629906334727" lon="8.508328296106553"><ele>396.0</ele><time>2026-05-01T11:31:47.999Z</time></trkpt><trkpt lat="39.50622040235139" lon="8.50840606247019"><ele>396.0</ele><time>2026-05-01T11:31:48.999Z</time></trkpt><trkpt lat="39.50616693269128" lon="8.508493573779825"><ele>396.0</ele><time>2026-05-01T11:31:49.999Z</time></trkpt><trkpt lat="39.506131926595614" lon="8.508592536971628"><ele>396.1666666666667</ele><time>2026-05-01T11:31:50.999Z</time></trkpt><trkpt lat="39.50612496884813" lon="8.508686779907602"><ele>396.33333333333337</ele><time>2026-05-01T11:31:51.999Z</time></trkpt><trkpt lat="39.50614687954027" lon="8.508779814097181"><ele>396.5</ele><time>2026-05-01T11:31:52.999Z</time></trkpt><trkpt lat="39.506201750599715" lon="8.508856912238885"><ele>396.6666666666667</ele><time>2026-05-01T11:31:53.999Z</time></trkpt><trkpt lat="39.50626374331367" lon="8.50893987921876"><ele>396.83333333333337</ele><time>2026-05-01T11:31:54.999Z</time></trkpt><trkpt lat="39.50632197021997" lon="8.509037878340175"><ele>397.0</ele><time>2026-05-01T11:31:55.999Z</time></trkpt><trkpt lat="39.50638186978083" lon="8.509148520878966"><ele>397.0</ele><time>2026-05-01T11:31:56.999Z</time></trkpt><trkpt lat="39.506440684794" lon="8.509270272394488"><ele>397.0</ele><time>2026-05-01T11:31:57.999Z</time></trkpt><trkpt lat="39.50650123616774" lon="8.509398288288159"><ele>397.0</ele><time>2026-05-01T11:31:58.999Z</time></trkpt><trkpt lat="39.506565441049155" lon="8.509527345647957"><ele>397.0</ele><time>2026-05-01T11:31:59.999Z</time></trkpt><trkpt lat="39.506634683285746" lon="8.509659035099043"><ele>400.0</ele><time>2026-05-01T11:32:00.999Z</time></trkpt><trkpt lat="39.50670741662892" lon="8.509788936579998"><ele>403.0</ele><time>2026-05-01T11:32:01.999Z</time></trkpt><trkpt lat="39.50677481473549" lon="8.509916961509555"><ele>406.0</ele><time>2026-05-01T11:32:02.999Z</time></trkpt><trkpt lat="39.50682836584913" lon="8.5100319406063"><ele>409.0</ele><time>2026-05-01T11:32:04Z</time></trkpt><trkpt lat="39.50686123413316" lon="8.510136917038814"><ele>412.0</ele><time>2026-05-01T11:32:05Z</time></trkpt><trkpt lat="39.50686711022816" lon="8.5102468852407"><ele>412.0</ele><time>2026-05-01T11:32:06Z</time></trkpt><trkpt lat="39.5068988085632" lon="8.51036275769139"><ele>412.0</ele><time>2026-05-01T11:32:07Z</time></trkpt><trkpt lat="39.50693218532244" lon="8.510475806503464"><ele>412.0</ele><time>2026-05-01T11:32:08Z</time></trkpt><trkpt lat="39.50700221296007" lon="8.510579366289674"><ele>412.0</ele><time>2026-05-01T11:32:09Z</time></trkpt><trkpt lat="39.50708090603981" lon="8.510672814712358"><ele>412.0</ele><time>2026-05-01T11:32:10Z</time></trkpt><trkpt lat="39.50717414539385" lon="8.510746263273143"><ele>410.40000000000003</ele><time>2026-05-01T11:32:11Z</time></trkpt><trkpt lat="39.507268681396745" lon="8.510836450236324"><ele>408.8</ele><time>2026-05-01T11:32:12Z</time></trkpt><trkpt lat="39.50736655273193" lon="8.510903904792135"><ele>407.2</ele><time>2026-05-01T11:32:13Z</time></trkpt><trkpt lat="39.507468463895414" lon="8.510952200744006"><ele>405.6</ele><time>2026-05-01T11:32:14Z</time></trkpt><trkpt lat="39.50757194882226" lon="8.510994350320482"><ele>404.0</ele><time>2026-05-01T11:32:15Z</time></trkpt><trkpt lat="39.507682010920895" lon="8.511016575415873"><ele>404.0</ele><time>2026-05-01T11:32:16Z</time></trkpt><trkpt lat="39.50779089012706" lon="8.511069146366271"><ele>404.0</ele><time>2026-05-01T11:32:17Z</time></trkpt><trkpt lat="39.50789177543347" lon="8.511110188173815"><ele>404.0</ele><time>2026-05-01T11:32:18Z</time></trkpt><trkpt lat="39.507995661496224" lon="8.511158078023637"><ele>404.0</ele><time>2026-05-01T11:32:19Z</time></trkpt><trkpt lat="39.50811145959208" lon="8.511201793339161"><ele>407.0</ele><time>2026-05-01T11:32:20Z</time></trkpt><trkpt lat="39.50819026330898" lon="8.511257988192195"><ele>410.0</ele><time>2026-05-01T11:32:21Z</time></trkpt><trkpt lat="39.508257921897865" lon="8.51133005872321"><ele>413.0</ele><time>2026-05-01T11:32:22Z</time></trkpt><trkpt lat="39.5083291573125" lon="8.511390133027735"><ele>416.0</ele><time>2026-05-01T11:32:23Z</time></trkpt><trkpt lat="39.508412201102644" lon="8.511468685162633"><ele>419.0</ele><time>2026-05-01T11:32:24Z</time></trkpt><trkpt lat="39.50848987608678" lon="8.511557167478847"><ele>419.0</ele><time>2026-05-01T11:32:25Z</time></trkpt><trkpt lat="39.50857231671405" lon="8.51165050390628"><ele>419.0</ele><time>2026-05-01T11:32:26Z</time></trkpt><trkpt lat="39.50865604741664" lon="8.511754267001463"><ele>419.0</ele><time>2026-05-01T11:32:27Z</time></trkpt><trkpt lat="39.50871459309633" lon="8.511876528790344"><ele>419.0</ele><time>2026-05-01T11:32:28Z</time></trkpt><trkpt lat="39.508768307340624" lon="8.512012717631467"><ele>416.4</ele><time>2026-05-01T11:32:29Z</time></trkpt><trkpt lat="39.508824000711215" lon="8.512147475515524"><ele>413.79999999999995</ele><time>2026-05-01T11:32:30Z</time></trkpt><trkpt lat="39.50888909933265" lon="8.512251520267899"><ele>411.20000000000005</ele><time>2026-05-01T11:32:31Z</time></trkpt><trkpt lat="39.508943270078646" lon="8.512348815311588"><ele>408.6</ele><time>2026-05-01T11:32:32Z</time></trkpt><trkpt lat="39.50900760860162" lon="8.51242836395598"><ele>406.0</ele><time>2026-05-01T11:32:33Z</time></trkpt><trkpt lat="39.50906642688269" lon="8.512515886227783"><ele>406.00000000000006</ele><time>2026-05-01T11:32:34Z</time></trkpt><trkpt lat="39.50913497402321" lon="8.512586467393726"><ele>406.0</ele><time>2026-05-01T11:32:35Z</time></trkpt><trkpt lat="39.50919969316133" lon="8.512653080604109"><ele>406.0</ele><time>2026-05-01T11:32:36Z</time></trkpt><trkpt lat="39.50926885520937" lon="8.512706118845076"><ele>406.0</ele><time>2026-05-01T11:32:37Z</time></trkpt><trkpt lat="39.50933573176351" lon="8.512757608250368"><ele>406.00000000000006</ele><time>2026-05-01T11:32:38Z</time></trkpt><trkpt lat="39.50940528960893" lon="8.51279582915235"><ele>406.0</ele><time>2026-05-01T11:32:39Z</time></trkpt><trkpt lat="39.50947785992902" lon="8.512827757515785"><ele>406.00000000000006</ele><time>2026-05-01T11:32:40Z</time></trkpt><trkpt lat="39.50954654132615" lon="8.51284908097183"><ele>406.0</ele><time>2026-05-01T11:32:41Z</time></trkpt><trkpt lat="39.50961151902932" lon="8.512853560292044"><ele>406.0</ele><time>2026-05-01T11:32:42Z</time></trkpt><trkpt lat="39.50973113945979" lon="8.512838785638845"><ele>406.0</ele><time>2026-05-01T11:32:44Z</time></trkpt><trkpt lat="39.509809726766306" lon="8.512798604885802"><ele>406.00000000000006</ele><time>2026-05-01T11:32:45Z</time></trkpt><trkpt lat="39.509900008388286" lon="8.512762941167699"><ele>406.0</ele><time>2026-05-01T11:32:46Z</time></trkpt><trkpt lat="39.5099928819615" lon="8.512750818993739"><ele>403.0</ele><time>2026-05-01T11:32:47Z</time></trkpt><trkpt lat="39.51009114442999" lon="8.512718440576926"><ele>400.0</ele><time>2026-05-01T11:32:48Z</time></trkpt><trkpt lat="39.51020013170863" lon="8.512688498239154"><ele>397.0</ele><time>2026-05-01T11:32:49Z</time></trkpt><trkpt lat="39.51031637195254" lon="8.512662025289428"><ele>394.0</ele><time>2026-05-01T11:32:50Z</time></trkpt><trkpt lat="39.51043080950672" lon="8.512646138105708"><ele>391.0</ele><time>2026-05-01T11:32:51Z</time></trkpt><trkpt lat="39.51054524506046" lon="8.512643309895662"><ele>391.0</ele><time>2026-05-01T11:32:52Z</time></trkpt><trkpt lat="39.510653644453505" lon="8.512643309897834"><ele>391.0</ele><time>2026-05-01T11:32:53Z</time></trkpt><trkpt lat="39.51074901400138" lon="8.512651037152478"><ele>391.0</ele><time>2026-05-01T11:32:53.999Z</time></trkpt><trkpt lat="39.510841444866024" lon="8.512655528366713"><ele>391.0</ele><time>2026-05-01T11:32:54.999Z</time></trkpt><trkpt lat="39.51092931511678" lon="8.512655309903248"><ele>391.0</ele><time>2026-05-01T11:32:55.999Z</time></trkpt><trkpt lat="39.511008553364526" lon="8.512638031056774"><ele>390.99999999999994</ele><time>2026-05-01T11:32:56.999Z</time></trkpt><trkpt lat="39.51107214180166" lon="8.512590158040663"><ele>391.0</ele><time>2026-05-01T11:32:57.999Z</time></trkpt><trkpt lat="39.51112978654791" lon="8.512554974605637"><ele>391.0</ele><time>2026-05-01T11:32:58.999Z</time></trkpt><trkpt lat="39.51119128691304" lon="8.512510855432286"><ele>391.0</ele><time>2026-05-01T11:32:59.999Z</time></trkpt><trkpt lat="39.51126356753083" lon="8.51246380727008"><ele>391.0</ele><time>2026-05-01T11:33:00.999Z</time></trkpt><trkpt lat="39.51133177876958" lon="8.512401417228574"><ele>390.99999999999994</ele><time>2026-05-01T11:33:01.999Z</time></trkpt><trkpt lat="39.51139843077276" lon="8.512363663003942"><ele>391.0</ele><time>2026-05-01T11:33:02.999Z</time></trkpt><trkpt lat="39.51145444553122" lon="8.51231954189058"><ele>391.1666666666667</ele><time>2026-05-01T11:33:03.999Z</time></trkpt><trkpt lat="39.51152187275208" lon="8.512283905535863"><ele>391.33333333333337</ele><time>2026-05-01T11:33:04.999Z</time></trkpt><trkpt lat="39.5115952059198" lon="8.512239716644231"><ele>391.5</ele><time>2026-05-01T11:33:05.999Z</time></trkpt><trkpt lat="39.51164763255352" lon="8.512185205031196"><ele>391.66666666666663</ele><time>2026-05-01T11:33:06.999Z</time></trkpt><trkpt lat="39.51172012233345" lon="8.512117234374147"><ele>391.8333333333333</ele><time>2026-05-01T11:33:08.999Z</time></trkpt><trkpt lat="39.51181019937484" lon="8.51209985400354"><ele>392.0</ele><time>2026-05-01T11:33:11.999Z</time></trkpt><trkpt lat="39.51189263931704" lon="8.512103298371752"><ele>391.99999999999994</ele><time>2026-05-01T11:33:13.999Z</time></trkpt><trkpt lat="39.5119279969584" lon="8.512171684286727"><ele>392.0</ele><time>2026-05-01T11:33:14.999Z</time></trkpt><trkpt lat="39.51198713674245" lon="8.512233790093951"><ele>392.0</ele><time>2026-05-01T11:33:15.999Z</time></trkpt><trkpt lat="39.512044475728125" lon="8.512281784248593"><ele>392.0</ele><time>2026-05-01T11:33:16.999Z</time></trkpt><trkpt lat="39.51210881377115" lon="8.51233940654349"><ele>391.99999999999994</ele><time>2026-05-01T11:33:17.999Z</time></trkpt><trkpt lat="39.512168916600665" lon="8.512425534969719"><ele>392.0</ele><time>2026-05-01T11:33:18.999Z</time></trkpt><trkpt lat="39.512222564888056" lon="8.512510851377776"><ele>391.16666666666663</ele><time>2026-05-01T11:33:19.999Z</time></trkpt><trkpt lat="39.512261823026805" lon="8.512586495717077"><ele>390.3333333333333</ele><time>2026-05-01T11:33:20.999Z</time></trkpt><trkpt lat="39.512316263903614" lon="8.51265906477136"><ele>389.5</ele><time>2026-05-01T11:33:21.999Z</time></trkpt><trkpt lat="39.51237750503432" lon="8.51274423799677"><ele>388.66666666666663</ele><time>2026-05-01T11:33:22.999Z</time></trkpt><trkpt lat="39.51244376966202" lon="8.512839531867039"><ele>387.8333333333333</ele><time>2026-05-01T11:33:23.999Z</time></trkpt><trkpt lat="39.51251397222275" lon="8.51291004434616"><ele>387.0</ele><time>2026-05-01T11:33:24.999Z</time></trkpt><trkpt lat="39.5125798466022" lon="8.512974656850453"><ele>387.0</ele><time>2026-05-01T11:33:25.999Z</time></trkpt><trkpt lat="39.51264465446326" lon="8.513038223321207"><ele>387.0</ele><time>2026-05-01T11:33:26.999Z</time></trkpt><trkpt lat="39.51271853962949" lon="8.513110693200062"><ele>387.0</ele><time>2026-05-01T11:33:27.999Z</time></trkpt><trkpt lat="39.512784916119074" lon="8.513177505043013"><ele>387.0</ele><time>2026-05-01T11:33:28.999Z</time></trkpt><trkpt lat="39.51284456006056" lon="8.51324148167497"><ele>387.0</ele><time>2026-05-01T11:33:29.999Z</time></trkpt><trkpt lat="39.512902879492025" lon="8.513310516927227"><ele>387.0</ele><time>2026-05-01T11:33:30.999Z</time></trkpt><trkpt lat="39.512963008309825" lon="8.513397282961632"><ele>386.3333333333333</ele><time>2026-05-01T11:33:31.999Z</time></trkpt><trkpt lat="39.51302072586038" lon="8.513487251109247"><ele>385.6666666666667</ele><time>2026-05-01T11:33:32.999Z</time></trkpt><trkpt lat="39.51309018161752" lon="8.51355198278638"><ele>385.0</ele><time>2026-05-01T11:33:33.999Z</time></trkpt><trkpt lat="39.5131529972516" lon="8.513631099585352"><ele>384.33333333333337</ele><time>2026-05-01T11:33:34.999Z</time></trkpt><trkpt lat="39.51322991020512" lon="8.513689822317978"><ele>383.6666666666667</ele><time>2026-05-01T11:33:35.999Z</time></trkpt><trkpt lat="39.51331310869312" lon="8.51371996918155"><ele>383.0</ele><time>2026-05-01T11:33:36.999Z</time></trkpt><trkpt lat="39.51340192640858" lon="8.513740252611148"><ele>383.0</ele><time>2026-05-01T11:33:37.999Z</time></trkpt><trkpt lat="39.51348352545632" lon="8.513789462178478"><ele>383.0</ele><time>2026-05-01T11:33:38.999Z</time></trkpt><trkpt lat="39.513562877666516" lon="8.513819058669464"><ele>383.0</ele><time>2026-05-01T11:33:39.999Z</time></trkpt><trkpt lat="39.513636644115294" lon="8.51384186510884"><ele>383.0</ele><time>2026-05-01T11:33:40.999Z</time></trkpt><trkpt lat="39.513706190633116" lon="8.513863366857867"><ele>383.0</ele><time>2026-05-01T11:33:41.999Z</time></trkpt><trkpt lat="39.51377298283168" lon="8.51388503725222"><ele>383.0</ele><time>2026-05-01T11:33:42.999Z</time></trkpt><trkpt lat="39.51383974877529" lon="8.513913584273922"><ele>380.1428571428571</ele><time>2026-05-01T11:33:43.999Z</time></trkpt><trkpt lat="39.5139014828917" lon="8.513948680511463"><ele>377.2857142857143</ele><time>2026-05-01T11:33:44.999Z</time></trkpt><trkpt lat="39.51396467534435" lon="8.51398892515844"><ele>374.42857142857144</ele><time>2026-05-01T11:33:45.999Z</time></trkpt><trkpt lat="39.51402271858344" lon="8.51402837886236"><ele>371.57142857142856</ele><time>2026-05-01T11:33:46.999Z</time></trkpt><trkpt lat="39.51408253024738" lon="8.514069114760757"><ele>368.7142857142857</ele><time>2026-05-01T11:33:47.999Z</time></trkpt><trkpt lat="39.51414982039517" lon="8.514095862827551"><ele>365.85714285714283</ele><time>2026-05-01T11:33:48.999Z</time></trkpt><trkpt lat="39.51420730283106" lon="8.514141144129836"><ele>363.0</ele><time>2026-05-01T11:33:49.999Z</time></trkpt><trkpt lat="39.51427625047779" lon="8.514143745359652"><ele>363.0</ele><time>2026-05-01T11:33:52.999Z</time></trkpt><trkpt lat="39.51427870628519" lon="8.514031526605276"><ele>363.0</ele><time>2026-05-01T11:33:55.999Z</time></trkpt><trkpt lat="39.51433046514057" lon="8.513907791171267"><ele>363.0</ele><time>2026-05-01T11:33:57.999Z</time></trkpt><trkpt lat="39.51442296224696" lon="8.513856432138544"><ele>363.0</ele><time>2026-05-01T11:33:58.999Z</time></trkpt><trkpt lat="39.51452267803706" lon="8.51388285890603"><ele>363.0</ele><time>2026-05-01T11:33:59.999Z</time></trkpt><trkpt lat="39.51459832273359" lon="8.513983629257655"><ele>361.0</ele><time>2026-05-01T11:34:00.999Z</time></trkpt><trkpt lat="39.51470912165825" lon="8.51403211895311"><ele>359.0</ele><time>2026-05-01T11:34:01.999Z</time></trkpt><trkpt lat="39.51480872872438" lon="8.51408338862674"><ele>357.0</ele><time>2026-05-01T11:34:02.999Z</time></trkpt><trkpt lat="39.514912913706624" lon="8.514057397657535"><ele>355.0</ele><time>2026-05-01T11:34:03.999Z</time></trkpt><trkpt lat="39.515008871724646" lon="8.513970777107312"><ele>353.0</ele><time>2026-05-01T11:34:04.999Z</time></trkpt><trkpt lat="39.51509919244984" lon="8.513875808511687"><ele>353.0</ele><time>2026-05-01T11:34:05.999Z</time></trkpt><trkpt lat="39.51518432195828" lon="8.513791946152287"><ele>353.0</ele><time>2026-05-01T11:34:06.999Z</time></trkpt><trkpt lat="39.515269017207636" lon="8.513713191197217"><ele>353.0</ele><time>2026-05-01T11:34:07.999Z</time></trkpt><trkpt lat="39.51534575171174" lon="8.513627489881364"><ele>353.0</ele><time>2026-05-01T11:34:08.999Z</time></trkpt><trkpt lat="39.51538538651761" lon="8.513500156401742"><ele>353.0</ele><time>2026-05-01T11:34:10Z</time></trkpt><trkpt lat="39.51538525387462" lon="8.513361978145689"><ele>350.0</ele><time>2026-05-01T11:34:11Z</time></trkpt><trkpt lat="39.51537798998233" lon="8.513207239992738"><ele>347.0</ele><time>2026-05-01T11:34:12Z</time></trkpt><trkpt lat="39.515364634791894" lon="8.51304523164057"><ele>344.0</ele><time>2026-05-01T11:34:13Z</time></trkpt><trkpt lat="39.515356701311674" lon="8.512892602493057"><ele>341.0</ele><time>2026-05-01T11:34:14Z</time></trkpt><trkpt lat="39.515351419185" lon="8.512741089461079"><ele>338.25</ele><time>2026-05-01T11:34:15Z</time></trkpt><trkpt lat="39.51534201210685" lon="8.512597362379504"><ele>335.5</ele><time>2026-05-01T11:34:16Z</time></trkpt><trkpt lat="39.515340164673034" lon="8.512432266232983"><ele>332.75</ele><time>2026-05-01T11:34:17Z</time></trkpt><trkpt lat="39.51533011061308" lon="8.512289537641601"><ele>330.0</ele><time>2026-05-01T11:34:18Z</time></trkpt><trkpt lat="39.515299286054024" lon="8.512142789434213"><ele>328.6</ele><time>2026-05-01T11:34:19Z</time></trkpt><trkpt lat="39.515246236640934" lon="8.512006138347306"><ele>327.2</ele><time>2026-05-01T11:34:20Z</time></trkpt><trkpt lat="39.51518695639513" lon="8.511872893834918"><ele>325.79999999999995</ele><time>2026-05-01T11:34:21Z</time></trkpt><trkpt lat="39.51514543381815" lon="8.511747628635238"><ele>324.4</ele><time>2026-05-01T11:34:22Z</time></trkpt><trkpt lat="39.51514607574718" lon="8.511611637954713"><ele>323.0</ele><time>2026-05-01T11:34:23Z</time></trkpt><trkpt lat="39.51521011866711" lon="8.511494470371279"><ele>323.0</ele><time>2026-05-01T11:34:24Z</time></trkpt><trkpt lat="39.51530345493569" lon="8.51140282639809"><ele>323.0</ele><time>2026-05-01T11:34:25Z</time></trkpt><trkpt lat="39.51540476997444" lon="8.511289793585414"><ele>323.0</ele><time>2026-05-01T11:34:26Z</time></trkpt><trkpt lat="39.515493597920006" lon="8.51117143176252"><ele>323.0</ele><time>2026-05-01T11:34:27Z</time></trkpt><trkpt lat="39.51559655382404" lon="8.511082651712776"><ele>323.0</ele><time>2026-05-01T11:34:28Z</time></trkpt><trkpt lat="39.51569992947905" lon="8.51102789347812"><ele>323.0</ele><time>2026-05-01T11:34:29Z</time></trkpt><trkpt lat="39.515804205664175" lon="8.511028880148979"><ele>323.0</ele><time>2026-05-01T11:34:30Z</time></trkpt><trkpt lat="39.51590736799424" lon="8.511064654344977"><ele>323.0</ele><time>2026-05-01T11:34:31Z</time></trkpt><trkpt lat="39.51599695797852" lon="8.511137674865076"><ele>323.0</ele><time>2026-05-01T11:34:32Z</time></trkpt><trkpt lat="39.51605202246974" lon="8.511257960510518"><ele>323.0</ele><time>2026-05-01T11:34:33Z</time></trkpt><trkpt lat="39.51604391549401" lon="8.511392293774175"><ele>323.0</ele><time>2026-05-01T11:34:34Z</time></trkpt><trkpt lat="39.51603136456683" lon="8.511528651988126"><ele>323.0</ele><time>2026-05-01T11:34:35Z</time></trkpt><trkpt lat="39.51603463759857" lon="8.51168226879712"><ele>323.0</ele><time>2026-05-01T11:34:36Z</time></trkpt><trkpt lat="39.516042072183716" lon="8.511805959755334"><ele>323.0</ele><time>2026-05-01T11:34:37Z</time></trkpt><trkpt lat="39.51609224901207" lon="8.511912771640471"><ele>323.0</ele><time>2026-05-01T11:34:38Z</time></trkpt><trkpt lat="39.51619082382674" lon="8.512003078931478"><ele>323.0</ele><time>2026-05-01T11:34:39Z</time></trkpt><trkpt lat="39.51631525612047" lon="8.512061741344015"><ele>323.0</ele><time>2026-05-01T11:34:40Z</time></trkpt><trkpt lat="39.51644013970442" lon="8.512098270428009"><ele>323.0</ele><time>2026-05-01T11:34:41Z</time></trkpt><trkpt lat="39.51656238998138" lon="8.512140716651912"><ele>322.25</ele><time>2026-05-01T11:34:42Z</time></trkpt><trkpt lat="39.51667998233537" lon="8.512200402889986"><ele>321.5</ele><time>2026-05-01T11:34:43Z</time></trkpt><trkpt lat="39.51678798741069" lon="8.512271330821308"><ele>320.75</ele><time>2026-05-01T11:34:44Z</time></trkpt><trkpt lat="39.5168907519212" lon="8.512348764239283"><ele>320.0</ele><time>2026-05-01T11:34:45Z</time></trkpt><trkpt lat="39.51699376663471" lon="8.512422373172562"><ele>318.0</ele><time>2026-05-01T11:34:46Z</time></trkpt><trkpt lat="39.51709342785088" lon="8.51249510231908"><ele>316.0</ele><time>2026-05-01T11:34:47Z</time></trkpt><trkpt lat="39.51718869228765" lon="8.512569263626034"><ele>314.0</ele><time>2026-05-01T11:34:48Z</time></trkpt><trkpt lat="39.517278370410935" lon="8.512620783592476"><ele>312.0</ele><time>2026-05-01T11:34:49Z</time></trkpt><trkpt lat="39.51736984102603" lon="8.512631232961006"><ele>310.0</ele><time>2026-05-01T11:34:50Z</time></trkpt><trkpt lat="39.51745374061676" lon="8.512582822970778"><ele>310.0</ele><time>2026-05-01T11:34:51Z</time></trkpt><trkpt lat="39.51751894962087" lon="8.51248692774095"><ele>310.0</ele><time>2026-05-01T11:34:52Z</time></trkpt><trkpt lat="39.51757471997718" lon="8.512357037814747"><ele>310.0</ele><time>2026-05-01T11:34:53Z</time></trkpt><trkpt lat="39.51763555789362" lon="8.512221630554828"><ele>310.0</ele><time>2026-05-01T11:34:54Z</time></trkpt><trkpt lat="39.51770364334379" lon="8.51208358409301"><ele>302.75</ele><time>2026-05-01T11:34:55Z</time></trkpt><trkpt lat="39.517770085211374" lon="8.51193679226335"><ele>295.5</ele><time>2026-05-01T11:34:56Z</time></trkpt><trkpt lat="39.51782857506992" lon="8.511783896841193"><ele>288.25</ele><time>2026-05-01T11:34:57Z</time></trkpt><trkpt lat="39.517869796412946" lon="8.511619520241029"><ele>281.0</ele><time>2026-05-01T11:34:58Z</time></trkpt><trkpt lat="39.51789023373083" lon="8.511455757516783"><ele>281.0</ele><time>2026-05-01T11:34:59Z</time></trkpt><trkpt lat="39.517890711965535" lon="8.511296697973469"><ele>281.0</ele><time>2026-05-01T11:34:59.999Z</time></trkpt><trkpt lat="39.51788562592021" lon="8.511138764726464"><ele>281.0</ele><time>2026-05-01T11:35:00.999Z</time></trkpt><trkpt lat="39.517915827052505" lon="8.510993295743793"><ele>281.0</ele><time>2026-05-01T11:35:01.999Z</time></trkpt><trkpt lat="39.51798612550954" lon="8.510872186857512"><ele>283.0</ele><time>2026-05-01T11:35:02.999Z</time></trkpt><trkpt lat="39.51807382183743" lon="8.510765161774339"><ele>285.0</ele><time>2026-05-01T11:35:03.999Z</time></trkpt><trkpt lat="39.51816907420467" lon="8.510657434568795"><ele>287.0</ele><time>2026-05-01T11:35:04.999Z</time></trkpt><trkpt lat="39.51826613603831" lon="8.510543151070413"><ele>289.0</ele><time>2026-05-01T11:35:05.999Z</time></trkpt><trkpt lat="39.51835641276773" lon="8.510429191973342"><ele>284.59999999999997</ele><time>2026-05-01T11:35:06.999Z</time></trkpt><trkpt lat="39.51844174177442" lon="8.510323428769267"><ele>280.2</ele><time>2026-05-01T11:35:07.999Z</time></trkpt><trkpt lat="39.518512100224235" lon="8.510238540016232"><ele>275.79999999999995</ele><time>2026-05-01T11:35:08.999Z</time></trkpt><trkpt lat="39.51858173819801" lon="8.510198267228638"><ele>271.4</ele><time>2026-05-01T11:35:09.999Z</time></trkpt><trkpt lat="39.51865622854792" lon="8.510208549160364"><ele>267.0</ele><time>2026-05-01T11:35:10.999Z</time></trkpt><trkpt lat="39.51871962001052" lon="8.510285183287028"><ele>267.4</ele><time>2026-05-01T11:35:11.999Z</time></trkpt><trkpt lat="39.51872862225313" lon="8.510415562257304"><ele>267.79999999999995</ele><time>2026-05-01T11:35:12.999Z</time></trkpt><trkpt lat="39.51875657937141" lon="8.510532100570067"><ele>268.2</ele><time>2026-05-01T11:35:13.999Z</time></trkpt><trkpt lat="39.51877546453588" lon="8.51065883527371"><ele>268.59999999999997</ele><time>2026-05-01T11:35:14.999Z</time></trkpt><trkpt lat="39.518776937869426" lon="8.510777331063785"><ele>269.0</ele><time>2026-05-01T11:35:15.999Z</time></trkpt><trkpt lat="39.51877031046963" lon="8.510894625498409"><ele>269.0</ele><time>2026-05-01T11:35:16.999Z</time></trkpt><trkpt lat="39.5187676378673" lon="8.511015379176557"><ele>269.0</ele><time>2026-05-01T11:35:17.999Z</time></trkpt><trkpt lat="39.518786490507544" lon="8.511136129709353"><ele>269.0</ele><time>2026-05-01T11:35:18.999Z</time></trkpt><trkpt lat="39.51881147274613" lon="8.511257238167833"><ele>269.0</ele><time>2026-05-01T11:35:19.999Z</time></trkpt><trkpt lat="39.51886358245029" lon="8.511364383489935"><ele>269.0</ele><time>2026-05-01T11:35:20.999Z</time></trkpt><trkpt lat="39.51894064025449" lon="8.511459615555866"><ele>272.2</ele><time>2026-05-01T11:35:21.999Z</time></trkpt><trkpt lat="39.5190283686985" lon="8.511533749736438"><ele>275.4</ele><time>2026-05-01T11:35:22.999Z</time></trkpt><trkpt lat="39.519123296961155" lon="8.511583998603774"><ele>278.6</ele><time>2026-05-01T11:35:23.999Z</time></trkpt><trkpt lat="39.51922904015452" lon="8.511608600828687"><ele>281.8</ele><time>2026-05-01T11:35:24.999Z</time></trkpt><trkpt lat="39.519334948395105" lon="8.511634162017742"><ele>285.0</ele><time>2026-05-01T11:35:25.999Z</time></trkpt><trkpt lat="39.51943284761776" lon="8.51165551123218"><ele>285.0</ele><time>2026-05-01T11:35:26.999Z</time></trkpt><trkpt lat="39.51952798113298" lon="8.511678524710074"><ele>285.0</ele><time>2026-05-01T11:35:27.999Z</time></trkpt><trkpt lat="39.519613308244935" lon="8.511710421809818"><ele>285.0</ele><time>2026-05-01T11:35:28.999Z</time></trkpt><trkpt lat="39.51968065862595" lon="8.511794072461175"><ele>285.0</ele><time>2026-05-01T11:35:29.999Z</time></trkpt><trkpt lat="39.51972176884677" lon="8.51190719170031"><ele>285.0</ele><time>2026-05-01T11:35:30.999Z</time></trkpt><trkpt lat="39.51976593033948" lon="8.512000054412685"><ele>281.6</ele><time>2026-05-01T11:35:31.999Z</time></trkpt><trkpt lat="39.51984728606035" lon="8.512029718452593"><ele>278.2</ele><time>2026-05-01T11:35:32.999Z</time></trkpt><trkpt lat="39.519949217323806" lon="8.511996787417374"><ele>274.8</ele><time>2026-05-01T11:35:33.999Z</time></trkpt><trkpt lat="39.520042298546244" lon="8.511922288960822"><ele>271.4</ele><time>2026-05-01T11:35:34.999Z</time></trkpt><trkpt lat="39.520129169342155" lon="8.511836651320365"><ele>268.0</ele><time>2026-05-01T11:35:35.999Z</time></trkpt><trkpt lat="39.520209358196546" lon="8.51176232253609"><ele>268.0</ele><time>2026-05-01T11:35:36.999Z</time></trkpt><trkpt lat="39.5202780487865" lon="8.511678745251197"><ele>268.0</ele><time>2026-05-01T11:35:37.999Z</time></trkpt><trkpt lat="39.52032812054259" lon="8.511572515044616"><ele>268.0</ele><time>2026-05-01T11:35:38.999Z</time></trkpt><trkpt lat="39.520349036175844" lon="8.51146163488853"><ele>268.0</ele><time>2026-05-01T11:35:39.999Z</time></trkpt><trkpt lat="39.52038949021859" lon="8.511366626980163"><ele>268.0</ele><time>2026-05-01T11:35:40.999Z</time></trkpt><trkpt lat="39.520407716190036" lon="8.51126422272508"><ele>268.0</ele><time>2026-05-01T11:35:41.999Z</time></trkpt><trkpt lat="39.520440094590164" lon="8.511175149630406"><ele>266.6</ele><time>2026-05-01T11:35:42.999Z</time></trkpt><trkpt lat="39.52046658788919" lon="8.511100161250392"><ele>265.20000000000005</ele><time>2026-05-01T11:35:43.999Z</time></trkpt><trkpt lat="39.52051277262729" lon="8.5110305883078"><ele>263.8</ele><time>2026-05-01T11:35:45.999Z</time></trkpt><trkpt lat="39.520643464144406" lon="8.511006855842389"><ele>262.40000000000003</ele><time>2026-05-01T11:35:48.999Z</time></trkpt><trkpt lat="39.52072204524987" lon="8.51097127024629"><ele>261.0</ele><time>2026-05-01T11:35:49.999Z</time></trkpt><trkpt lat="39.5208152852406" lon="8.510910005809816"><ele>261.0</ele><time>2026-05-01T11:35:50.999Z</time></trkpt><trkpt lat="39.52090679477156" lon="8.510837798344554"><ele>261.0</ele><time>2026-05-01T11:35:51.999Z</time></trkpt><trkpt lat="39.520974017151566" lon="8.51072566733042"><ele>261.0</ele><time>2026-05-01T11:35:52.999Z</time></trkpt><trkpt lat="39.521015537667886" lon="8.510586922256648"><ele>261.0</ele><time>2026-05-01T11:35:53.999Z</time></trkpt><trkpt lat="39.52107046799723" lon="8.51048330146374"><ele>261.0</ele><time>2026-05-01T11:35:54.999Z</time></trkpt><trkpt lat="39.52111037754797" lon="8.510373840127148"><ele>259.0</ele><time>2026-05-01T11:35:55.999Z</time></trkpt><trkpt lat="39.52119945334199" lon="8.510318776347056"><ele>257.0</ele><time>2026-05-01T11:35:56.999Z</time></trkpt><trkpt lat="39.52130946300776" lon="8.510341415745279"><ele>255.0</ele><time>2026-05-01T11:35:57.999Z</time></trkpt><trkpt lat="39.521396183664265" lon="8.510459114928436"><ele>253.0</ele><time>2026-05-01T11:35:58.999Z</time></trkpt><trkpt lat="39.52144721905013" lon="8.510593527951544"><ele>252.99999999999997</ele><time>2026-05-01T11:35:59.999Z</time></trkpt><trkpt lat="39.521445423956564" lon="8.510733811129782"><ele>253.0</ele><time>2026-05-01T11:36:00.999Z</time></trkpt><trkpt lat="39.52143161466228" lon="8.510862570251389"><ele>253.0</ele><time>2026-05-01T11:36:01.999Z</time></trkpt><trkpt lat="39.52143449734527" lon="8.510948710261049"><ele>253.0</ele><time>2026-05-01T11:36:02.999Z</time></trkpt><trkpt lat="39.52146777893338" lon="8.511036037915362"><ele>252.99999999999997</ele><time>2026-05-01T11:36:04.999Z</time></trkpt><trkpt lat="39.52153833459792" lon="8.51103448054763"><ele>253.0</ele><time>2026-05-01T11:36:07.999Z</time></trkpt><trkpt lat="39.52156116905731" lon="8.51093043201926"><ele>252.99999999999997</ele><time>2026-05-01T11:36:11.999Z</time></trkpt><trkpt lat="39.52157254178838" lon="8.511086988926946"><ele>253.0</ele><time>2026-05-01T11:36:21Z</time></trkpt><trkpt lat="39.521624984059635" lon="8.511150088243246"><ele>253.0</ele><time>2026-05-01T11:36:22Z</time></trkpt><trkpt lat="39.521696305519825" lon="8.51119906497246"><ele>253.0</ele><time>2026-05-01T11:36:23Z</time></trkpt><trkpt lat="39.52172990348921" lon="8.51128695913693"><ele>252.99999999999997</ele><time>2026-05-01T11:36:24Z</time></trkpt><trkpt lat="39.52174233589629" lon="8.511375313161421"><ele>253.0</ele><time>2026-05-01T11:36:25Z</time></trkpt><trkpt lat="39.52172978636312" lon="8.511468003472785"><ele>255.66666666666666</ele><time>2026-05-01T11:36:26Z</time></trkpt><trkpt lat="39.52172502023353" lon="8.511572390547187"><ele>258.3333333333333</ele><time>2026-05-01T11:36:27Z</time></trkpt><trkpt lat="39.52170421964091" lon="8.511672729339509"><ele>261.0</ele><time>2026-05-01T11:36:28Z</time></trkpt><trkpt lat="39.52170545270196" lon="8.511781693638408"><ele>263.6666666666667</ele><time>2026-05-01T11:36:29Z</time></trkpt><trkpt lat="39.5217387112075" lon="8.511879010008819"><ele>266.33333333333337</ele><time>2026-05-01T11:36:30Z</time></trkpt><trkpt lat="39.52180294518943" lon="8.511947362989973"><ele>269.0</ele><time>2026-05-01T11:36:31Z</time></trkpt><trkpt lat="39.52187887852035" lon="8.511987218986897"><ele>269.0</ele><time>2026-05-01T11:36:32Z</time></trkpt><trkpt lat="39.521964384386344" lon="8.512004079288245"><ele>269.0</ele><time>2026-05-01T11:36:33Z</time></trkpt><trkpt lat="39.522052384780714" lon="8.511999007569857"><ele>269.0</ele><time>2026-05-01T11:36:34Z</time></trkpt><trkpt lat="39.522140818423324" lon="8.51201342667122"><ele>269.0</ele><time>2026-05-01T11:36:35Z</time></trkpt><trkpt lat="39.52222423805419" lon="8.512016355534012"><ele>269.0</ele><time>2026-05-01T11:36:36Z</time></trkpt><trkpt lat="39.52230379473646" lon="8.512017090365564"><ele>269.0</ele><time>2026-05-01T11:36:37Z</time></trkpt><trkpt lat="39.522376087827425" lon="8.512070842904079"><ele>267.83333333333337</ele><time>2026-05-01T11:36:38Z</time></trkpt><trkpt lat="39.52243165777807" lon="8.512149675915733"><ele>266.6666666666667</ele><time>2026-05-01T11:36:39Z</time></trkpt><trkpt lat="39.522447777600526" lon="8.512268647045842"><ele>265.5</ele><time>2026-05-01T11:36:40Z</time></trkpt><trkpt lat="39.52246352795363" lon="8.51237626085877"><ele>264.3333333333333</ele><time>2026-05-01T11:36:41Z</time></trkpt><trkpt lat="39.522464437857295" lon="8.512493344102099"><ele>263.16666666666663</ele><time>2026-05-01T11:36:42Z</time></trkpt><trkpt lat="39.522448667818324" lon="8.512618173987835"><ele>262.0</ele><time>2026-05-01T11:36:43Z</time></trkpt><trkpt lat="39.522428099351636" lon="8.512758621869514"><ele>263.5</ele><time>2026-05-01T11:36:44Z</time></trkpt><trkpt lat="39.52241765208951" lon="8.512914103293197"><ele>265.0</ele><time>2026-05-01T11:36:45Z</time></trkpt><trkpt lat="39.52238842464497" lon="8.513069512997841"><ele>266.5</ele><time>2026-05-01T11:36:46Z</time></trkpt><trkpt lat="39.52237447031194" lon="8.513225691606591"><ele>268.0</ele><time>2026-05-01T11:36:47Z</time></trkpt><trkpt lat="39.52238206040652" lon="8.513374339296977"><ele>268.0</ele><time>2026-05-01T11:36:48Z</time></trkpt><trkpt lat="39.52240783894548" lon="8.513500070732771"><ele>268.0</ele><time>2026-05-01T11:36:49Z</time></trkpt><trkpt lat="39.52240477252218" lon="8.51361264692614"><ele>268.0</ele><time>2026-05-01T11:36:50Z</time></trkpt><trkpt lat="39.52239073590998" lon="8.513729454094957"><ele>268.0</ele><time>2026-05-01T11:36:51Z</time></trkpt><trkpt lat="39.5223525404701" lon="8.513829559358527"><ele>268.0</ele><time>2026-05-01T11:36:52Z</time></trkpt><trkpt lat="39.52230490912484" lon="8.51394217127288"><ele>268.8</ele><time>2026-05-01T11:36:53Z</time></trkpt><trkpt lat="39.52225270431269" lon="8.514065010252256"><ele>269.6</ele><time>2026-05-01T11:36:54Z</time></trkpt><trkpt lat="39.52221763358016" lon="8.51419944132586"><ele>270.4</ele><time>2026-05-01T11:36:55Z</time></trkpt><trkpt lat="39.52217880641278" lon="8.514334479693856"><ele>271.2</ele><time>2026-05-01T11:36:56Z</time></trkpt><trkpt lat="39.522148278682195" lon="8.514468690336173"><ele>272.0</ele><time>2026-05-01T11:36:57Z</time></trkpt><trkpt lat="39.52211460549621" lon="8.514583663373594"><ele>274.5</ele><time>2026-05-01T11:36:58Z</time></trkpt><trkpt lat="39.52212163346838" lon="8.514697765398411"><ele>277.0</ele><time>2026-05-01T11:36:59Z</time></trkpt><trkpt lat="39.52217210446424" lon="8.514793176764824"><ele>279.5</ele><time>2026-05-01T11:37:00Z</time></trkpt><trkpt lat="39.52225183710161" lon="8.514841929211208"><ele>282.0</ele><time>2026-05-01T11:37:01Z</time></trkpt><trkpt lat="39.52233038170254" lon="8.514883327291491"><ele>284.5</ele><time>2026-05-01T11:37:01.999Z</time></trkpt><trkpt lat="39.52242032131017" lon="8.514892849530668"><ele>287.0</ele><time>2026-05-01T11:37:02.999Z</time></trkpt><trkpt lat="39.52251457136351" lon="8.51486518596135"><ele>287.0</ele><time>2026-05-01T11:37:03.999Z</time></trkpt><trkpt lat="39.52260085530173" lon="8.514794832930091"><ele>287.0</ele><time>2026-05-01T11:37:04.999Z</time></trkpt><trkpt lat="39.52268091427238" lon="8.514696204838227"><ele>287.0</ele><time>2026-05-01T11:37:05.999Z</time></trkpt><trkpt lat="39.52276754712618" lon="8.514609540622137"><ele>287.0</ele><time>2026-05-01T11:37:06.999Z</time></trkpt><trkpt lat="39.52287979741353" lon="8.51457754210101"><ele>287.0</ele><time>2026-05-01T11:37:07.999Z</time></trkpt><trkpt lat="39.52298710590933" lon="8.514507801343854"><ele>285.5</ele><time>2026-05-01T11:37:08.999Z</time></trkpt><trkpt lat="39.52310423441193" lon="8.51446145660216"><ele>284.0</ele><time>2026-05-01T11:37:09.999Z</time></trkpt><trkpt lat="39.523214389269874" lon="8.514392794154325"><ele>282.5</ele><time>2026-05-01T11:37:10.999Z</time></trkpt><trkpt lat="39.52332375027899" lon="8.514331184591663"><ele>281.0</ele><time>2026-05-01T11:37:11.999Z</time></trkpt><trkpt lat="39.5233924978338" lon="8.514207848638765"><ele>281.0</ele><time>2026-05-01T11:37:12.999Z</time></trkpt><trkpt lat="39.52344532466319" lon="8.514105722106251"><ele>281.0</ele><time>2026-05-01T11:37:13.999Z</time></trkpt><trkpt lat="39.52347427373277" lon="8.514006335077788"><ele>281.0</ele><time>2026-05-01T11:37:14.999Z</time></trkpt><trkpt lat="39.52351409085194" lon="8.513931554068986"><ele>281.0</ele><time>2026-05-01T11:37:15.999Z</time></trkpt><trkpt lat="39.52365497664137" lon="8.513932213264708"><ele>281.0</ele><time>2026-05-01T11:37:17.999Z</time></trkpt><trkpt lat="39.52374116356672" lon="8.51397264145052"><ele>281.8</ele><time>2026-05-01T11:37:18.999Z</time></trkpt><trkpt lat="39.52384122028336" lon="8.51398449810426"><ele>282.6</ele><time>2026-05-01T11:37:19.999Z</time></trkpt><trkpt lat="39.5239251167416" lon="8.513987504264756"><ele>283.4</ele><time>2026-05-01T11:37:20.999Z</time></trkpt><trkpt lat="39.52399996224481" lon="8.513934678027212"><ele>284.2</ele><time>2026-05-01T11:37:21.999Z</time></trkpt><trkpt lat="39.52405681632334" lon="8.513839869884748"><ele>285.0</ele><time>2026-05-01T11:37:22.999Z</time></trkpt><trkpt lat="39.524098627934116" lon="8.513724188489817"><ele>285.0</ele><time>2026-05-01T11:37:23.999Z</time></trkpt><trkpt lat="39.524146868349696" lon="8.513613540770297"><ele>285.0</ele><time>2026-05-01T11:37:24.999Z</time></trkpt><trkpt lat="39.524176352666345" lon="8.513474407920278"><ele>285.0</ele><time>2026-05-01T11:37:25.999Z</time></trkpt><trkpt lat="39.52420759633846" lon="8.513335363637976"><ele>285.0</ele><time>2026-05-01T11:37:26.999Z</time></trkpt><trkpt lat="39.52423023639433" lon="8.51320719373026"><ele>285.0</ele><time>2026-05-01T11:37:27.999Z</time></trkpt><trkpt lat="39.524268488184795" lon="8.513109756163002"><ele>285.0</ele><time>2026-05-01T11:37:28.999Z</time></trkpt><trkpt lat="39.524331644786535" lon="8.513047691708953"><ele>285.0</ele><time>2026-05-01T11:37:29.999Z</time></trkpt><trkpt lat="39.524413404478366" lon="8.513026279866803"><ele>285.0</ele><time>2026-05-01T11:37:30.999Z</time></trkpt><trkpt lat="39.52451077428584" lon="8.513050293783367"><ele>285.0</ele><time>2026-05-01T11:37:31.999Z</time></trkpt><trkpt lat="39.52460946733855" lon="8.513102045379274"><ele>285.0</ele><time>2026-05-01T11:37:32.999Z</time></trkpt><trkpt lat="39.524726330149214" lon="8.513148350789546"><ele>289.25</ele><time>2026-05-01T11:37:33.999Z</time></trkpt><trkpt lat="39.52485399472508" lon="8.513153814622063"><ele>293.5</ele><time>2026-05-01T11:37:34.999Z</time></trkpt><trkpt lat="39.5249772693058" lon="8.513134363179399"><ele>297.75</ele><time>2026-05-01T11:37:35.999Z</time></trkpt><trkpt lat="39.52509162609259" lon="8.513096097749706"><ele>302.0</ele><time>2026-05-01T11:37:36.999Z</time></trkpt><trkpt lat="39.52518741794296" lon="8.513042049151025"><ele>302.0</ele><time>2026-05-01T11:37:37.999Z</time></trkpt><trkpt lat="39.5252644408674" lon="8.513003450932978"><ele>302.0</ele><time>2026-05-01T11:37:38.999Z</time></trkpt><trkpt lat="39.525339413453814" lon="8.513007493868018"><ele>302.0</ele><time>2026-05-01T11:37:39.999Z</time></trkpt><trkpt lat="39.52541813215905" lon="8.513064285859937"><ele>302.0</ele><time>2026-05-01T11:37:40.999Z</time></trkpt><trkpt lat="39.52547941653032" lon="8.513171800704496"><ele>302.0</ele><time>2026-05-01T11:37:41.999Z</time></trkpt><trkpt lat="39.525536968473276" lon="8.513265726272977"><ele>302.0</ele><time>2026-05-01T11:37:42.999Z</time></trkpt><trkpt lat="39.52552295081418" lon="8.513405357053252"><ele>301.2</ele><time>2026-05-01T11:37:43.999Z</time></trkpt><trkpt lat="39.52547332497386" lon="8.513551841270603"><ele>300.4</ele><time>2026-05-01T11:37:44.999Z</time></trkpt><trkpt lat="39.5254629479244" lon="8.513690891707052"><ele>299.6</ele><time>2026-05-01T11:37:45.999Z</time></trkpt><trkpt lat="39.52547239210818" lon="8.513831715699306"><ele>298.8</ele><time>2026-05-01T11:37:46.999Z</time></trkpt><trkpt lat="39.52548555655672" lon="8.513962676385063"><ele>298.0</ele><time>2026-05-01T11:37:47.999Z</time></trkpt><trkpt lat="39.52549719164288" lon="8.514080895694976"><ele>299.66666666666663</ele><time>2026-05-01T11:37:48.999Z</time></trkpt><trkpt lat="39.52544824453589" lon="8.514165785493956"><ele>301.3333333333333</ele><time>2026-05-01T11:37:49.999Z</time></trkpt><trkpt lat="39.52539618727638" lon="8.514247193133238"><ele>303.0</ele><time>2026-05-01T11:37:50.999Z</time></trkpt><trkpt lat="39.52535938194109" lon="8.514330113825089"><ele>304.6666666666667</ele><time>2026-05-01T11:37:51.999Z</time></trkpt><trkpt lat="39.52535068432287" lon="8.514427536998701"><ele>306.33333333333337</ele><time>2026-05-01T11:37:52.999Z</time></trkpt><trkpt lat="39.52537784992681" lon="8.514539539394868"><ele>308.0</ele><time>2026-05-01T11:37:53.999Z</time></trkpt><trkpt lat="39.525421476341855" lon="8.514661993160122"><ele>301.0</ele><time>2026-05-01T11:37:54.999Z</time></trkpt><trkpt lat="39.525469172090716" lon="8.514801302577425"><ele>294.0</ele><time>2026-05-01T11:37:55.999Z</time></trkpt><trkpt lat="39.525508326027484" lon="8.514958489852525"><ele>287.0</ele><time>2026-05-01T11:37:56.999Z</time></trkpt><trkpt lat="39.52553882316011" lon="8.515121532627969"><ele>280.0</ele><time>2026-05-01T11:37:57.999Z</time></trkpt><trkpt lat="39.52557113437962" lon="8.515288588048149"><ele>280.0</ele><time>2026-05-01T11:37:58.999Z</time></trkpt><trkpt lat="39.52561024907346" lon="8.515462755896623"><ele>280.0</ele><time>2026-05-01T11:37:59.999Z</time></trkpt><trkpt lat="39.525651586288696" lon="8.515625941413628"><ele>280.0</ele><time>2026-05-01T11:38:00.999Z</time></trkpt><trkpt lat="39.52568671221669" lon="8.515769760066952"><ele>280.0</ele><time>2026-05-01T11:38:01.999Z</time></trkpt><trkpt lat="39.52570059995804" lon="8.51589909769221"><ele>280.0</ele><time>2026-05-01T11:38:02.999Z</time></trkpt><trkpt lat="39.525671225098584" lon="8.51601465356448"><ele>280.0</ele><time>2026-05-01T11:38:03.999Z</time></trkpt><trkpt lat="39.5256512771272" lon="8.516153820683106"><ele>280.0</ele><time>2026-05-01T11:38:04.999Z</time></trkpt><trkpt lat="39.52558579346546" lon="8.516295571801827"><ele>280.0</ele><time>2026-05-01T11:38:05.999Z</time></trkpt><trkpt lat="39.525532478025205" lon="8.51645028729102"><ele>278.6</ele><time>2026-05-01T11:38:06.999Z</time></trkpt><trkpt lat="39.52546233775988" lon="8.51659228463468"><ele>277.2</ele><time>2026-05-01T11:38:07.999Z</time></trkpt><trkpt lat="39.525395915289636" lon="8.516707251018486"><ele>275.8</ele><time>2026-05-01T11:38:08.999Z</time></trkpt><trkpt lat="39.52534351650119" lon="8.516788765140829"><ele>274.4</ele><time>2026-05-01T11:38:09.999Z</time></trkpt><trkpt lat="39.52528736787737" lon="8.51684664574732"><ele>273.0</ele><time>2026-05-01T11:38:10.999Z</time></trkpt><trkpt lat="39.525220916949046" lon="8.516892997680184"><ele>275.5</ele><time>2026-05-01T11:38:11.999Z</time></trkpt><trkpt lat="39.52516999556319" lon="8.5169607594626"><ele>278.0</ele><time>2026-05-01T11:38:12.999Z</time></trkpt><trkpt lat="39.525127100845985" lon="8.517086595800457"><ele>280.5</ele><time>2026-05-01T11:38:14.999Z</time></trkpt><trkpt lat="39.525149460907784" lon="8.517170105534555"><ele>283.0</ele><time>2026-05-01T11:38:15.999Z</time></trkpt><trkpt lat="39.525204851537154" lon="8.517236204917866"><ele>285.5</ele><time>2026-05-01T11:38:16.999Z</time></trkpt><trkpt lat="39.52528732116666" lon="8.517289563030806"><ele>288.0</ele><time>2026-05-01T11:38:17.999Z</time></trkpt><trkpt lat="39.525387775453794" lon="8.517322987968873"><ele>284.4</ele><time>2026-05-01T11:38:18.999Z</time></trkpt><trkpt lat="39.52550124955385" lon="8.517338627024104"><ele>280.8</ele><time>2026-05-01T11:38:19.998Z</time></trkpt><trkpt lat="39.52561935819575" lon="8.517338826775031"><ele>277.2</ele><time>2026-05-01T11:38:20.998Z</time></trkpt><trkpt lat="39.52572953543844" lon="8.517320286949118"><ele>273.6</ele><time>2026-05-01T11:38:22Z</time></trkpt><trkpt lat="39.52582774667784" lon="8.517341829216068"><ele>270.0</ele><time>2026-05-01T11:38:23Z</time></trkpt><trkpt lat="39.5259182666112" lon="8.51734985783072"><ele>270.0</ele><time>2026-05-01T11:38:24Z</time></trkpt><trkpt lat="39.52599884415355" lon="8.51737241117764"><ele>270.0</ele><time>2026-05-01T11:38:25Z</time></trkpt><trkpt lat="39.52607057032699" lon="8.517426353020317"><ele>270.0</ele><time>2026-05-01T11:38:26Z</time></trkpt><trkpt lat="39.526123059068105" lon="8.517513252570806"><ele>270.0</ele><time>2026-05-01T11:38:27Z</time></trkpt><trkpt lat="39.5261594988376" lon="8.517626721828416"><ele>270.0</ele><time>2026-05-01T11:38:28Z</time></trkpt><trkpt lat="39.52616876291949" lon="8.517763693965236"><ele>271.0</ele><time>2026-05-01T11:38:29Z</time></trkpt><trkpt lat="39.52616886109889" lon="8.517916488800275"><ele>272.0</ele><time>2026-05-01T11:38:30Z</time></trkpt><trkpt lat="39.526162218726675" lon="8.518076940001537"><ele>273.0</ele><time>2026-05-01T11:38:31Z</time></trkpt><trkpt lat="39.52615942683774" lon="8.518244392551754"><ele>274.0</ele><time>2026-05-01T11:38:32Z</time></trkpt><trkpt lat="39.52611652672348" lon="8.518405435106422"><ele>274.0</ele><time>2026-05-01T11:38:33Z</time></trkpt><trkpt lat="39.52607774828199" lon="8.518560477462632"><ele>274.0</ele><time>2026-05-01T11:38:34Z</time></trkpt><trkpt lat="39.52604498029926" lon="8.518706529715361"><ele>274.0</ele><time>2026-05-01T11:38:35Z</time></trkpt><trkpt lat="39.52603857174296" lon="8.518856963806327"><ele>274.0</ele><time>2026-05-01T11:38:36Z</time></trkpt><trkpt lat="39.52599975391637" lon="8.518976076017443"><ele>272.66666666666663</ele><time>2026-05-01T11:38:37Z</time></trkpt><trkpt lat="39.525973699572376" lon="8.519087004530386"><ele>271.3333333333333</ele><time>2026-05-01T11:38:38Z</time></trkpt><trkpt lat="39.52595964274917" lon="8.519194172229234"><ele>270.0</ele><time>2026-05-01T11:38:39Z</time></trkpt><trkpt lat="39.52593234366153" lon="8.519279328218062"><ele>268.6666666666667</ele><time>2026-05-01T11:38:40Z</time></trkpt><trkpt lat="39.52594219163226" lon="8.519436531575309"><ele>267.33333333333337</ele><time>2026-05-01T11:38:42Z</time></trkpt><trkpt lat="39.52598126834646" lon="8.519506397998155"><ele>266.0</ele><time>2026-05-01T11:38:43Z</time></trkpt><trkpt lat="39.526031080628705" lon="8.51955719339326"><ele>266.0</ele><time>2026-05-01T11:38:44Z</time></trkpt><trkpt lat="39.526117105361216" lon="8.519585889023228"><ele>266.0</ele><time>2026-05-01T11:38:46Z</time></trkpt><trkpt lat="39.52618807878129" lon="8.519538901889955"><ele>266.0</ele><time>2026-05-01T11:38:48Z</time></trkpt><trkpt lat="39.5262719127691" lon="8.519398715855516"><ele>266.0</ele><time>2026-05-01T11:38:50Z</time></trkpt><trkpt lat="39.52630715447624" lon="8.519287287858484"><ele>266.0</ele><time>2026-05-01T11:38:51Z</time></trkpt><trkpt lat="39.52637371580354" lon="8.51918837256805"><ele>264.25</ele><time>2026-05-01T11:38:52Z</time></trkpt><trkpt lat="39.526446033857844" lon="8.519089050074015"><ele>262.5</ele><time>2026-05-01T11:38:53Z</time></trkpt><trkpt lat="39.52654140366931" lon="8.519002643547703"><ele>260.75</ele><time>2026-05-01T11:38:54Z</time></trkpt><trkpt lat="39.52664551643257" lon="8.51892412629755"><ele>259.0</ele><time>2026-05-01T11:38:55Z</time></trkpt><trkpt lat="39.52675286253168" lon="8.518833993983943"><ele>259.0</ele><time>2026-05-01T11:38:56Z</time></trkpt><trkpt lat="39.526866256695364" lon="8.518744009693593"><ele>259.0</ele><time>2026-05-01T11:38:57Z</time></trkpt><trkpt lat="39.5269734133502" lon="8.518644070256618"><ele>259.0</ele><time>2026-05-01T11:38:58Z</time></trkpt><trkpt lat="39.52706820055643" lon="8.518565440786194"><ele>259.0</ele><time>2026-05-01T11:38:59Z</time></trkpt><trkpt lat="39.52716548646958" lon="8.5184802246342"><ele>255.0</ele><time>2026-05-01T11:39:00Z</time></trkpt><trkpt lat="39.527248109957846" lon="8.518388389087152"><ele>250.99999999999997</ele><time>2026-05-01T11:39:01Z</time></trkpt><trkpt lat="39.527347499352764" lon="8.518347158673993"><ele>246.99999999999997</ele><time>2026-05-01T11:39:02Z</time></trkpt><trkpt lat="39.52743855232362" lon="8.51830191808625"><ele>243.0</ele><time>2026-05-01T11:39:03Z</time></trkpt><trkpt lat="39.52753015652469" lon="8.518287700170116"><ele>239.0</ele><time>2026-05-01T11:39:04Z</time></trkpt><trkpt lat="39.52762231802426" lon="8.518288614963076"><ele>239.0</ele><time>2026-05-01T11:39:05Z</time></trkpt><trkpt lat="39.52770907016563" lon="8.518299133861806"><ele>238.99999999999997</ele><time>2026-05-01T11:39:05.999Z</time></trkpt><trkpt lat="39.52779675154482" lon="8.51832835666013"><ele>238.99999999999997</ele><time>2026-05-01T11:39:06.999Z</time></trkpt><trkpt lat="39.52788888906891" lon="8.518388902652381"><ele>239.0</ele><time>2026-05-01T11:39:07.999Z</time></trkpt><trkpt lat="39.527992532189685" lon="8.518438387626693"><ele>239.0</ele><time>2026-05-01T11:39:08.999Z</time></trkpt><trkpt lat="39.52807870870274" lon="8.518531975483262"><ele>240.2</ele><time>2026-05-01T11:39:09.999Z</time></trkpt><trkpt lat="39.52817850449534" lon="8.518613671695311"><ele>241.39999999999998</ele><time>2026-05-01T11:39:10.999Z</time></trkpt><trkpt lat="39.528272869487004" lon="8.518690696379334"><ele>242.6</ele><time>2026-05-01T11:39:11.999Z</time></trkpt><trkpt lat="39.52835585226976" lon="8.518775932638928"><ele>243.8</ele><time>2026-05-01T11:39:12.999Z</time></trkpt><trkpt lat="39.52844571967966" lon="8.518852601616599"><ele>245.0</ele><time>2026-05-01T11:39:13.999Z</time></trkpt><trkpt lat="39.52854893924425" lon="8.518898473464885"><ele>245.00000000000003</ele><time>2026-05-01T11:39:14.999Z</time></trkpt><trkpt lat="39.52864884592562" lon="8.518926672311874"><ele>245.0</ele><time>2026-05-01T11:39:15.999Z</time></trkpt><trkpt lat="39.52873066231983" lon="8.518936426972273"><ele>245.0</ele><time>2026-05-01T11:39:16.999Z</time></trkpt><trkpt lat="39.52880863330592" lon="8.518920716888042"><ele>245.0</ele><time>2026-05-01T11:39:17.999Z</time></trkpt><trkpt lat="39.528878270162465" lon="8.518861926462437"><ele>245.00000000000003</ele><time>2026-05-01T11:39:18.999Z</time></trkpt><trkpt lat="39.52893272740361" lon="8.5187612763567"><ele>245.0</ele><time>2026-05-01T11:39:19.999Z</time></trkpt><trkpt lat="39.52897166267839" lon="8.518636447512298"><ele>240.8</ele><time>2026-05-01T11:39:20.999Z</time></trkpt><trkpt lat="39.52901354713873" lon="8.518509685045556"><ele>236.6</ele><time>2026-05-01T11:39:21.999Z</time></trkpt><trkpt lat="39.52907989987468" lon="8.518414655412542"><ele>232.39999999999998</ele><time>2026-05-01T11:39:22.999Z</time></trkpt><trkpt lat="39.529181318900726" lon="8.518341982246332"><ele>228.2</ele><time>2026-05-01T11:39:23.999Z</time></trkpt><trkpt lat="39.52929222559834" lon="8.518278394846504"><ele>224.0</ele><time>2026-05-01T11:39:24.999Z</time></trkpt><trkpt lat="39.52940790747283" lon="8.518215444771055"><ele>224.0</ele><time>2026-05-01T11:39:25.999Z</time></trkpt><trkpt lat="39.52952577429394" lon="8.518146152234195"><ele>224.0</ele><time>2026-05-01T11:39:26.999Z</time></trkpt><trkpt lat="39.529651772694834" lon="8.518077166445522"><ele>224.0</ele><time>2026-05-01T11:39:27.999Z</time></trkpt><trkpt lat="39.52978270329957" lon="8.518005330190697"><ele>224.0</ele><time>2026-05-01T11:39:28.999Z</time></trkpt><trkpt lat="39.52991895191558" lon="8.517925169075308"><ele>219.33333333333334</ele><time>2026-05-01T11:39:29.999Z</time></trkpt><trkpt lat="39.530055017927246" lon="8.517836597237016"><ele>214.66666666666669</ele><time>2026-05-01T11:39:30.999Z</time></trkpt><trkpt lat="39.53019432968653" lon="8.517742130200936"><ele>210.0</ele><time>2026-05-01T11:39:31.999Z</time></trkpt><trkpt lat="39.530330432880014" lon="8.517649893028484"><ele>210.4</ele><time>2026-05-01T11:39:32.999Z</time></trkpt><trkpt lat="39.53045317797631" lon="8.517565261609354"><ele>210.8</ele><time>2026-05-01T11:39:33.999Z</time></trkpt><trkpt lat="39.530556382730886" lon="8.517493676643653"><ele>211.2</ele><time>2026-05-01T11:39:34.999Z</time></trkpt><trkpt lat="39.53064180696228" lon="8.517446743986284"><ele>211.6</ele><time>2026-05-01T11:39:35.999Z</time></trkpt><trkpt lat="39.53072974849528" lon="8.517433644696835"><ele>212.0</ele><time>2026-05-01T11:39:36.999Z</time></trkpt><trkpt lat="39.53082562504439" lon="8.517483020306678"><ele>212.0</ele><time>2026-05-01T11:39:37.999Z</time></trkpt><trkpt lat="39.53092334835755" lon="8.517546415708916"><ele>212.0</ele><time>2026-05-01T11:39:38.999Z</time></trkpt><trkpt lat="39.531024773146875" lon="8.51761853226437"><ele>212.0</ele><time>2026-05-01T11:39:39.999Z</time></trkpt><trkpt lat="39.53112942636412" lon="8.517700902863632"><ele>212.0</ele><time>2026-05-01T11:39:40.999Z</time></trkpt><trkpt lat="39.53121791456321" lon="8.517808062892449"><ele>210.25</ele><time>2026-05-01T11:39:41.999Z</time></trkpt><trkpt lat="39.5313030746089" lon="8.517940616659718"><ele>208.5</ele><time>2026-05-01T11:39:42.999Z</time></trkpt><trkpt lat="39.53138127641676" lon="8.518084925683254"><ele>206.75</ele><time>2026-05-01T11:39:43.999Z</time></trkpt><trkpt lat="39.531445851161536" lon="8.518243391942365"><ele>205.0</ele><time>2026-05-01T11:39:44.999Z</time></trkpt><trkpt lat="39.53149457314404" lon="8.518421621314273"><ele>205.0</ele><time>2026-05-01T11:39:45.999Z</time></trkpt><trkpt lat="39.53153676349138" lon="8.518602147003218"><ele>205.0</ele><time>2026-05-01T11:39:46.999Z</time></trkpt><trkpt lat="39.53156227731225" lon="8.518761630560023"><ele>205.0</ele><time>2026-05-01T11:39:47.999Z</time></trkpt><trkpt lat="39.5315707320779" lon="8.518895215173526"><ele>205.0</ele><time>2026-05-01T11:39:48.999Z</time></trkpt><trkpt lat="39.53155798758208" lon="8.519025071409416"><ele>203.6</ele><time>2026-05-01T11:39:49.999Z</time></trkpt><trkpt lat="39.53150883575618" lon="8.519138271320628"><ele>202.2</ele><time>2026-05-01T11:39:50.999Z</time></trkpt><trkpt lat="39.5314482997746" lon="8.519230588833812"><ele>200.8</ele><time>2026-05-01T11:39:51.999Z</time></trkpt><trkpt lat="39.53137801267643" lon="8.51930027307703"><ele>199.4</ele><time>2026-05-01T11:39:52.999Z</time></trkpt><trkpt lat="39.531289265804865" lon="8.519361096825843"><ele>198.0</ele><time>2026-05-01T11:39:53.999Z</time></trkpt><trkpt lat="39.531183642694785" lon="8.519418144373708"><ele>197.25</ele><time>2026-05-01T11:39:54.999Z</time></trkpt><trkpt lat="39.531070535321554" lon="8.519472000487703"><ele>196.5</ele><time>2026-05-01T11:39:55.999Z</time></trkpt><trkpt lat="39.5309546076627" lon="8.519547349732209"><ele>195.75</ele><time>2026-05-01T11:39:56.999Z</time></trkpt><trkpt lat="39.53085022886082" lon="8.519614966560063"><ele>195.0</ele><time>2026-05-01T11:39:57.999Z</time></trkpt><trkpt lat="39.53075944611451" lon="8.519697923108478"><ele>195.0</ele><time>2026-05-01T11:39:58.999Z</time></trkpt><trkpt lat="39.53066426118087" lon="8.519755739393371"><ele>195.0</ele><time>2026-05-01T11:39:59.999Z</time></trkpt><trkpt lat="39.53058386606337" lon="8.519825210794632"><ele>195.0</ele><time>2026-05-01T11:40:00.999Z</time></trkpt><trkpt lat="39.53050600923255" lon="8.519877534179374"><ele>195.0</ele><time>2026-05-01T11:40:01.999Z</time></trkpt><trkpt lat="39.53041106292736" lon="8.519871254091548"><ele>195.0</ele><time>2026-05-01T11:40:02.999Z</time></trkpt><trkpt lat="39.53030240119032" lon="8.519876443915642"><ele>197.6</ele><time>2026-05-01T11:40:03.999Z</time></trkpt><trkpt lat="39.5302063580897" lon="8.519903043663708"><ele>200.2</ele><time>2026-05-01T11:40:04.999Z</time></trkpt><trkpt lat="39.53011395634298" lon="8.51993579202374"><ele>202.8</ele><time>2026-05-01T11:40:05.999Z</time></trkpt><trkpt lat="39.53002854643018" lon="8.520004316798282"><ele>205.4</ele><time>2026-05-01T11:40:06.999Z</time></trkpt><trkpt lat="39.529934097676175" lon="8.520084276578492"><ele>208.0</ele><time>2026-05-01T11:40:07.999Z</time></trkpt><trkpt lat="39.529841103805914" lon="8.520186907017038"><ele>208.0</ele><time>2026-05-01T11:40:08.999Z</time></trkpt><trkpt lat="39.52975407188063" lon="8.520313956364616"><ele>208.0</ele><time>2026-05-01T11:40:09.999Z</time></trkpt><trkpt lat="39.52968383269588" lon="8.520447686773682"><ele>208.0</ele><time>2026-05-01T11:40:10.999Z</time></trkpt><trkpt lat="39.529640522623026" lon="8.52058835385011"><ele>208.0</ele><time>2026-05-01T11:40:11.999Z</time></trkpt><trkpt lat="39.52958999644425" lon="8.520712226577468"><ele>210.4</ele><time>2026-05-01T11:40:12.999Z</time></trkpt><trkpt lat="39.52954862662474" lon="8.520831857685605"><ele>212.8</ele><time>2026-05-01T11:40:13.999Z</time></trkpt><trkpt lat="39.52952129247224" lon="8.520931053264478"><ele>215.2</ele><time>2026-05-01T11:40:14.999Z</time></trkpt><trkpt lat="39.52954277508871" lon="8.521071547043302"><ele>217.6</ele><time>2026-05-01T11:40:16.999Z</time></trkpt><trkpt lat="39.52964574736123" lon="8.521138823591302"><ele>220.0</ele><time>2026-05-01T11:40:18.999Z</time></trkpt><trkpt lat="39.52971691072627" lon="8.521142116658138"><ele>215.2</ele><time>2026-05-01T11:40:19.999Z</time></trkpt><trkpt lat="39.52979367576284" lon="8.521116073038094"><ele>210.4</ele><time>2026-05-01T11:40:20.999Z</time></trkpt><trkpt lat="39.529875180047476" lon="8.521057208222553"><ele>205.60000000000002</ele><time>2026-05-01T11:40:21.999Z</time></trkpt><trkpt lat="39.5299554860256" lon="8.520988439942455"><ele>200.8</ele><time>2026-05-01T11:40:22.999Z</time></trkpt><trkpt lat="39.530047380453524" lon="8.520974530342816"><ele>196.0</ele><time>2026-05-01T11:40:23.999Z</time></trkpt><trkpt lat="39.530136500676726" lon="8.520957008197552"><ele>195.99999999999997</ele><time>2026-05-01T11:40:24.998Z</time></trkpt><trkpt lat="39.53021344219108" lon="8.520951214505299"><ele>196.0</ele><time>2026-05-01T11:40:25.998Z</time></trkpt><trkpt lat="39.53027638398867" lon="8.520967408850058"><ele>196.0</ele><time>2026-05-01T11:40:26.998Z</time></trkpt><trkpt lat="39.53033763128141" lon="8.521000306885615"><ele>196.0</ele><time>2026-05-01T11:40:28Z</time></trkpt><trkpt lat="39.53041333113565" lon="8.521039337315484"><ele>195.99999999999997</ele><time>2026-05-01T11:40:29Z</time></trkpt><trkpt lat="39.530499179998706" lon="8.521094060777639"><ele>196.0</ele><time>2026-05-01T11:40:30Z</time></trkpt><trkpt lat="39.530593237762105" lon="8.521152596534234"><ele>194.16666666666666</ele><time>2026-05-01T11:40:31Z</time></trkpt><trkpt lat="39.53068184276547" lon="8.52118952789385"><ele>192.33333333333331</ele><time>2026-05-01T11:40:32Z</time></trkpt><trkpt lat="39.53075682210811" lon="8.52123290008271"><ele>190.5</ele><time>2026-05-01T11:40:33Z</time></trkpt><trkpt lat="39.530832828187854" lon="8.521286386210429"><ele>188.66666666666666</ele><time>2026-05-01T11:40:34Z</time></trkpt><trkpt lat="39.53091651821866" lon="8.52130947262536"><ele>186.83333333333331</ele><time>2026-05-01T11:40:35Z</time></trkpt><trkpt lat="39.53098247662113" lon="8.521372521679552"><ele>185.0</ele><time>2026-05-01T11:40:36Z</time></trkpt><trkpt lat="39.531005277561974" lon="8.521471421196223"><ele>185.0</ele><time>2026-05-01T11:40:37Z</time></trkpt><trkpt lat="39.530994897628105" lon="8.521568607731803"><ele>185.0</ele><time>2026-05-01T11:40:38Z</time></trkpt><trkpt lat="39.53097376555435" lon="8.521674061843681"><ele>185.0</ele><time>2026-05-01T11:40:39Z</time></trkpt><trkpt lat="39.53094970568131" lon="8.521805641848522"><ele>185.0</ele><time>2026-05-01T11:40:40Z</time></trkpt><trkpt lat="39.53093511560959" lon="8.521945038114453"><ele>185.0</ele><time>2026-05-01T11:40:41Z</time></trkpt><trkpt lat="39.53095617725601" lon="8.522081148982398"><ele>186.6</ele><time>2026-05-01T11:40:42Z</time></trkpt><trkpt lat="39.530966354675265" lon="8.522207654596672"><ele>188.2</ele><time>2026-05-01T11:40:43Z</time></trkpt><trkpt lat="39.53099156698045" lon="8.522328269232098"><ele>189.8</ele><time>2026-05-01T11:40:44Z</time></trkpt><trkpt lat="39.53102879659967" lon="8.522439061620751"><ele>191.4</ele><time>2026-05-01T11:40:45Z</time></trkpt><trkpt lat="39.53107048863966" lon="8.52254571164851"><ele>193.0</ele><time>2026-05-01T11:40:46Z</time></trkpt><trkpt lat="39.531110760982166" lon="8.522634204365874"><ele>192.99999999999997</ele><time>2026-05-01T11:40:47Z</time></trkpt><trkpt lat="39.53115719784632" lon="8.522701510443715"><ele>193.0</ele><time>2026-05-01T11:40:48Z</time></trkpt><trkpt lat="39.53120742347427" lon="8.522755409491147"><ele>193.0</ele><time>2026-05-01T11:40:49Z</time></trkpt><trkpt lat="39.531312293711075" lon="8.522787338185395"><ele>193.0</ele><time>2026-05-01T11:40:51Z</time></trkpt><trkpt lat="39.53139795601259" lon="8.522688581166092"><ele>192.99999999999997</ele><time>2026-05-01T11:40:53Z</time></trkpt><trkpt lat="39.53142353652174" lon="8.522594369628086"><ele>193.0</ele><time>2026-05-01T11:40:54Z</time></trkpt><trkpt lat="39.5313989613923" lon="8.522482489034381"><ele>190.16666666666666</ele><time>2026-05-01T11:40:55Z</time></trkpt><trkpt lat="39.53138266168034" lon="8.52236690222014"><ele>187.33333333333331</ele><time>2026-05-01T11:40:56Z</time></trkpt><trkpt lat="39.53133721939943" lon="8.522262404280335"><ele>184.5</ele><time>2026-05-01T11:40:57Z</time></trkpt><trkpt lat="39.53130412067349" lon="8.522166835166919"><ele>181.66666666666666</ele><time>2026-05-01T11:40:58Z</time></trkpt><trkpt lat="39.531318350530555" lon="8.522068650145085"><ele>178.83333333333331</ele><time>2026-05-01T11:40:59Z</time></trkpt><trkpt lat="39.53132296747152" lon="8.521951239940174"><ele>176.0</ele><time>2026-05-01T11:41:00Z</time></trkpt><trkpt lat="39.531341633423004" lon="8.521830415363517"><ele>174.8</ele><time>2026-05-01T11:41:01Z</time></trkpt><trkpt lat="39.5313802320889" lon="8.521728028707605"><ele>173.60000000000002</ele><time>2026-05-01T11:41:02Z</time></trkpt><trkpt lat="39.531441748273814" lon="8.521660019386282"><ele>172.4</ele><time>2026-05-01T11:41:03Z</time></trkpt><trkpt lat="39.53151531599444" lon="8.521605452571938"><ele>171.2</ele><time>2026-05-01T11:41:04Z</time></trkpt><trkpt lat="39.531598837731885" lon="8.521530013030583"><ele>170.0</ele><time>2026-05-01T11:41:05Z</time></trkpt><trkpt lat="39.531687353280326" lon="8.521466242559866"><ele>170.0</ele><time>2026-05-01T11:41:06Z</time></trkpt><trkpt lat="39.53176885909435" lon="8.521424252601186"><ele>170.0</ele><time>2026-05-01T11:41:07Z</time></trkpt><trkpt lat="39.53184477674066" lon="8.52142153146581"><ele>170.0</ele><time>2026-05-01T11:41:08Z</time></trkpt><trkpt lat="39.53191097163681" lon="8.521467670493397"><ele>170.0</ele><time>2026-05-01T11:41:09Z</time></trkpt><trkpt lat="39.53194066454352" lon="8.521576609777364"><ele>170.0</ele><time>2026-05-01T11:41:10Z</time></trkpt><trkpt lat="39.53197506650588" lon="8.5216838434815"><ele>170.0</ele><time>2026-05-01T11:41:10.999Z</time></trkpt><trkpt lat="39.53199119580613" lon="8.521809698202603"><ele>170.0</ele><time>2026-05-01T11:41:11.999Z</time></trkpt><trkpt lat="39.532010703518985" lon="8.521950258800414"><ele>170.0</ele><time>2026-05-01T11:41:12.999Z</time></trkpt><trkpt lat="39.53203615447956" lon="8.522095396662385"><ele>170.0</ele><time>2026-05-01T11:41:13.999Z</time></trkpt><trkpt lat="39.53202868970205" lon="8.52223671167721"><ele>170.0</ele><time>2026-05-01T11:41:14.999Z</time></trkpt><trkpt lat="39.53202948370435" lon="8.522369449368778"><ele>170.0</ele><time>2026-05-01T11:41:15.999Z</time></trkpt><trkpt lat="39.53202870377713" lon="8.522495957560796"><ele>169.2</ele><time>2026-05-01T11:41:16.999Z</time></trkpt><trkpt lat="39.53203056523639" lon="8.522613672621356"><ele>168.4</ele><time>2026-05-01T11:41:17.999Z</time></trkpt><trkpt lat="39.53203588162963" lon="8.52273154711023"><ele>167.60000000000002</ele><time>2026-05-01T11:41:18.999Z</time></trkpt><trkpt lat="39.532058124074084" lon="8.522834514520758"><ele>166.8</ele><time>2026-05-01T11:41:19.999Z</time></trkpt><trkpt lat="39.53208794565597" lon="8.522942296456275"><ele>166.0</ele><time>2026-05-01T11:41:20.999Z</time></trkpt><trkpt lat="39.53213598289745" lon="8.523055275164827"><ele>165.4</ele><time>2026-05-01T11:41:21.999Z</time></trkpt><trkpt lat="39.53220389875423" lon="8.523158958528203"><ele>164.8</ele><time>2026-05-01T11:41:22.999Z</time></trkpt><trkpt lat="39.53228821850815" lon="8.523249786851048"><ele>164.20000000000002</ele><time>2026-05-01T11:41:23.999Z</time></trkpt><trkpt lat="39.532384766192" lon="8.52332295320447"><ele>163.60000000000002</ele><time>2026-05-01T11:41:24.999Z</time></trkpt><trkpt lat="39.53248802233395" lon="8.523379059560481"><ele>163.0</ele><time>2026-05-01T11:41:25.999Z</time></trkpt><trkpt lat="39.532594314210804" lon="8.523432763140017"><ele>163.0</ele><time>2026-05-01T11:41:26.999Z</time></trkpt><trkpt lat="39.53269524923207" lon="8.523504832801093"><ele>163.0</ele><time>2026-05-01T11:41:27.999Z</time></trkpt><trkpt lat="39.53276995977698" lon="8.523623685332536"><ele>163.0</ele><time>2026-05-01T11:41:28.999Z</time></trkpt><trkpt lat="39.532859644165555" lon="8.523728307809357"><ele>163.0</ele><time>2026-05-01T11:41:29.999Z</time></trkpt><trkpt lat="39.532902677224804" lon="8.52387732880118"><ele>166.0</ele><time>2026-05-01T11:41:30.999Z</time></trkpt><trkpt lat="39.532953422745955" lon="8.524024041683512"><ele>169.0</ele><time>2026-05-01T11:41:31.999Z</time></trkpt><trkpt lat="39.53299937036955" lon="8.52418014484449"><ele>172.0</ele><time>2026-05-01T11:41:32.999Z</time></trkpt><trkpt lat="39.53305498919541" lon="8.524341258329397"><ele>175.0</ele><time>2026-05-01T11:41:33.999Z</time></trkpt><trkpt lat="39.53310475392564" lon="8.524523753422553"><ele>172.66666666666669</ele><time>2026-05-01T11:41:34.999Z</time></trkpt><trkpt lat="39.53316272659167" lon="8.524711789182097"><ele>170.33333333333334</ele><time>2026-05-01T11:41:35.999Z</time></trkpt><trkpt lat="39.53322771945104" lon="8.524905132366634"><ele>168.0</ele><time>2026-05-01T11:41:36.999Z</time></trkpt><trkpt lat="39.533284440454075" lon="8.525098780518956"><ele>168.0</ele><time>2026-05-01T11:41:37.999Z</time></trkpt><trkpt lat="39.53332743688569" lon="8.525306706108951"><ele>168.0</ele><time>2026-05-01T11:41:38.999Z</time></trkpt><trkpt lat="39.53338308257839" lon="8.525514787715295"><ele>168.0</ele><time>2026-05-01T11:41:39.999Z</time></trkpt><trkpt lat="39.53343965319917" lon="8.52572700568679"><ele>168.33333333333334</ele><time>2026-05-01T11:41:40.999Z</time></trkpt><trkpt lat="39.53349680386375" lon="8.525941377743074"><ele>168.66666666666669</ele><time>2026-05-01T11:41:41.999Z</time></trkpt><trkpt lat="39.53355743751797" lon="8.526157175700234"><ele>169.0</ele><time>2026-05-01T11:41:42.999Z</time></trkpt><trkpt lat="39.5336332769457" lon="8.526368468251835"><ele>170.66666666666669</ele><time>2026-05-01T11:41:43.999Z</time></trkpt><trkpt lat="39.533679499460725" lon="8.526598275617529"><ele>172.33333333333334</ele><time>2026-05-01T11:41:44.999Z</time></trkpt><trkpt lat="39.53373999423156" lon="8.526819023752186"><ele>174.0</ele><time>2026-05-01T11:41:45.999Z</time></trkpt><trkpt lat="39.53380318844909" lon="8.527039204270226"><ele>175.66666666666666</ele><time>2026-05-01T11:41:46.999Z</time></trkpt><trkpt lat="39.533880747403295" lon="8.527252167016824"><ele>177.33333333333331</ele><time>2026-05-01T11:41:47.999Z</time></trkpt><trkpt lat="39.53392488674844" lon="8.527484521574412"><ele>179.0</ele><time>2026-05-01T11:41:48.999Z</time></trkpt><trkpt lat="39.5339858165548" lon="8.52770956404849"><ele>177.33333333333331</ele><time>2026-05-01T11:41:49.999Z</time></trkpt><trkpt lat="39.534049847921914" lon="8.527937546986108"><ele>175.66666666666666</ele><time>2026-05-01T11:41:50.999Z</time></trkpt><trkpt lat="39.53410846419177" lon="8.52814413706699"><ele>174.0</ele><time>2026-05-01T11:41:51.999Z</time></trkpt><trkpt lat="39.53416010004028" lon="8.528333416900097"><ele>174.0</ele><time>2026-05-01T11:41:52.999Z</time></trkpt><trkpt lat="39.5342073777117" lon="8.52850924514289"><ele>174.0</ele><time>2026-05-01T11:41:53.999Z</time></trkpt><trkpt lat="39.53425414444897" lon="8.52867198445939"><ele>174.0</ele><time>2026-05-01T11:41:54.999Z</time></trkpt><trkpt lat="39.53430367029314" lon="8.528815639320635"><ele>174.0</ele><time>2026-05-01T11:41:55.999Z</time></trkpt><trkpt lat="39.534349088995235" lon="8.528947438045284"><ele>175.16666666666666</ele><time>2026-05-01T11:41:56.999Z</time></trkpt><trkpt lat="39.53439048443617" lon="8.529067561543416"><ele>176.33333333333334</ele><time>2026-05-01T11:41:57.999Z</time></trkpt><trkpt lat="39.534426957693555" lon="8.529174473221751"><ele>177.5</ele><time>2026-05-01T11:41:58.999Z</time></trkpt><trkpt lat="39.53447381116463" lon="8.52927336542368"><ele>178.66666666666669</ele><time>2026-05-01T11:41:59.999Z</time></trkpt><trkpt lat="39.534484367296066" lon="8.529375550786488"><ele>179.83333333333334</ele><time>2026-05-01T11:42:00.999Z</time></trkpt><trkpt lat="39.53445832004333" lon="8.529465730052427"><ele>181.0</ele><time>2026-05-01T11:42:01.999Z</time></trkpt><trkpt lat="39.53440914142189" lon="8.52956399663721"><ele>181.16666666666669</ele><time>2026-05-01T11:42:02.999Z</time></trkpt><trkpt lat="39.534343520302365" lon="8.529652192536863"><ele>181.33333333333334</ele><time>2026-05-01T11:42:03.999Z</time></trkpt><trkpt lat="39.53429020924574" lon="8.52974248144924"><ele>181.5</ele><time>2026-05-01T11:42:04.999Z</time></trkpt><trkpt lat="39.53426408317934" lon="8.529829361451094"><ele>181.66666666666666</ele><time>2026-05-01T11:42:05.999Z</time></trkpt><trkpt lat="39.53430117069735" lon="8.52998625528348"><ele>181.83333333333331</ele><time>2026-05-01T11:42:07.999Z</time></trkpt><trkpt lat="39.53434938617461" lon="8.530043292489754"><ele>182.0</ele><time>2026-05-01T11:42:08.999Z</time></trkpt><trkpt lat="39.534418868612335" lon="8.530068270391498"><ele>182.0</ele><time>2026-05-01T11:42:09.999Z</time></trkpt><trkpt lat="39.53450556583391" lon="8.530101529686275"><ele>182.0</ele><time>2026-05-01T11:42:10.999Z</time></trkpt><trkpt lat="39.534596998869596" lon="8.530126341395503"><ele>182.0</ele><time>2026-05-01T11:42:11.999Z</time></trkpt><trkpt lat="39.5346922644157" lon="8.530156780804276"><ele>182.0</ele><time>2026-05-01T11:42:12.999Z</time></trkpt><trkpt lat="39.534764927927405" lon="8.530222808108872"><ele>182.0</ele><time>2026-05-01T11:42:13.999Z</time></trkpt><trkpt lat="39.534833742261796" lon="8.530294162046056"><ele>183.2</ele><time>2026-05-01T11:42:14.999Z</time></trkpt><trkpt lat="39.534883804996156" lon="8.530384519918941"><ele>184.39999999999998</ele><time>2026-05-01T11:42:15.999Z</time></trkpt><trkpt lat="39.53491143157846" lon="8.530485519376724"><ele>185.60000000000002</ele><time>2026-05-01T11:42:16.999Z</time></trkpt><trkpt lat="39.53493693044507" lon="8.530595856123732"><ele>186.8</ele><time>2026-05-01T11:42:17.999Z</time></trkpt><trkpt lat="39.53496532901363" lon="8.5307294032706"><ele>188.0</ele><time>2026-05-01T11:42:18.999Z</time></trkpt><trkpt lat="39.53500199211573" lon="8.530883405548385"><ele>189.0</ele><time>2026-05-01T11:42:19.999Z</time></trkpt><trkpt lat="39.535039446788524" lon="8.53107013326042"><ele>190.0</ele><time>2026-05-01T11:42:20.999Z</time></trkpt><trkpt lat="39.53504588243161" lon="8.53127338755567"><ele>191.0</ele><time>2026-05-01T11:42:21.999Z</time></trkpt><trkpt lat="39.535076692442004" lon="8.531493240190171"><ele>191.33333333333331</ele><time>2026-05-01T11:42:22.999Z</time></trkpt><trkpt lat="39.53509328567092" lon="8.531730005248116"><ele>191.66666666666666</ele><time>2026-05-01T11:42:23.999Z</time></trkpt><trkpt lat="39.53511417117477" lon="8.531941816188464"><ele>192.0</ele><time>2026-05-01T11:42:24.999Z</time></trkpt><trkpt lat="39.53514590961472" lon="8.532115494891185"><ele>191.5</ele><time>2026-05-01T11:42:25.999Z</time></trkpt><trkpt lat="39.535198580107" lon="8.532264015174363"><ele>191.0</ele><time>2026-05-01T11:42:26.999Z</time></trkpt><trkpt lat="39.535268139281214" lon="8.532397775654882"><ele>190.5</ele><time>2026-05-01T11:42:27.999Z</time></trkpt><trkpt lat="39.53535104725273" lon="8.532530590235542"><ele>190.0</ele><time>2026-05-01T11:42:28.998Z</time></trkpt><trkpt lat="39.535448186847" lon="8.5326548045083"><ele>193.25</ele><time>2026-05-01T11:42:29.998Z</time></trkpt><trkpt lat="39.5355570242926" lon="8.532769829399042"><ele>196.5</ele><time>2026-05-01T11:42:30.998Z</time></trkpt><trkpt lat="39.535671973360174" lon="8.532881875148563"><ele>199.75</ele><time>2026-05-01T11:42:31.998Z</time></trkpt><trkpt lat="39.535773155518" lon="8.5329847852758"><ele>203.0</ele><time>2026-05-01T11:42:32.998Z</time></trkpt><trkpt lat="39.5358481519898" lon="8.533077678051724"><ele>203.0</ele><time>2026-05-01T11:42:34Z</time></trkpt><trkpt lat="39.53593855160961" lon="8.533096541993837"><ele>203.0</ele><time>2026-05-01T11:42:35Z</time></trkpt><trkpt lat="39.536027667811524" lon="8.5330974685275"><ele>203.0</ele><time>2026-05-01T11:42:36Z</time></trkpt><trkpt lat="39.536129671068814" lon="8.533110169225154"><ele>203.0</ele><time>2026-05-01T11:42:37Z</time></trkpt><trkpt lat="39.53623217469242" lon="8.53311123452226"><ele>203.0</ele><time>2026-05-01T11:42:38Z</time></trkpt><trkpt lat="39.53630366120106" lon="8.533113312612793"><ele>203.0</ele><time>2026-05-01T11:42:39Z</time></trkpt><trkpt lat="39.5363684939424" lon="8.533154020823117"><ele>203.0</ele><time>2026-05-01T11:42:41Z</time></trkpt><trkpt lat="39.53634155898012" lon="8.533280315876535"><ele>203.0</ele><time>2026-05-01T11:42:44Z</time></trkpt><trkpt lat="39.536303202783635" lon="8.53335585592129"><ele>203.0</ele><time>2026-05-01T11:42:45Z</time></trkpt><trkpt lat="39.53623184892299" lon="8.53343533861632"><ele>203.0</ele><time>2026-05-01T11:42:46Z</time></trkpt><trkpt lat="39.53614613845196" lon="8.533530969276079"><ele>203.0</ele><time>2026-05-01T11:42:47Z</time></trkpt><trkpt lat="39.53605618035373" lon="8.533660916012266"><ele>203.0</ele><time>2026-05-01T11:42:48Z</time></trkpt><trkpt lat="39.53598649704227" lon="8.533802004578922"><ele>203.0</ele><time>2026-05-01T11:42:49Z</time></trkpt><trkpt lat="39.53592605429366" lon="8.533950957014744"><ele>203.0</ele><time>2026-05-01T11:42:50Z</time></trkpt><trkpt lat="39.53587551820008" lon="8.534095308729313"><ele>204.50000000000003</ele><time>2026-05-01T11:42:51Z</time></trkpt><trkpt lat="39.535832916072685" lon="8.534216094980872"><ele>206.0</ele><time>2026-05-01T11:42:52Z</time></trkpt><trkpt lat="39.53579902845396" lon="8.534324539371246"><ele>207.5</ele><time>2026-05-01T11:42:53Z</time></trkpt><trkpt lat="39.535784273474455" lon="8.534421244897729"><ele>209.0</ele><time>2026-05-01T11:42:54Z</time></trkpt><trkpt lat="39.53580180377545" lon="8.534521404689285"><ele>210.50000000000003</ele><time>2026-05-01T11:42:55Z</time></trkpt><trkpt lat="39.535832654117314" lon="8.53462494761091"><ele>212.0</ele><time>2026-05-01T11:42:56Z</time></trkpt><trkpt lat="39.53591286678215" lon="8.534696873535776"><ele>212.2</ele><time>2026-05-01T11:42:57Z</time></trkpt><trkpt lat="39.53596762934424" lon="8.534808027276501"><ele>212.39999999999998</ele><time>2026-05-01T11:42:58Z</time></trkpt><trkpt lat="39.53600997587323" lon="8.53493806374335"><ele>212.60000000000002</ele><time>2026-05-01T11:42:59Z</time></trkpt><trkpt lat="39.536051836714215" lon="8.53508435419217"><ele>212.8</ele><time>2026-05-01T11:43:00Z</time></trkpt><trkpt lat="39.53607334174464" lon="8.535233560767386"><ele>213.0</ele><time>2026-05-01T11:43:01Z</time></trkpt><trkpt lat="39.53606901148021" lon="8.535368989366836"><ele>212.83333333333334</ele><time>2026-05-01T11:43:02Z</time></trkpt><trkpt lat="39.5360262089307" lon="8.535492941824533"><ele>212.66666666666669</ele><time>2026-05-01T11:43:03Z</time></trkpt><trkpt lat="39.53600947808752" lon="8.535613916845259"><ele>212.5</ele><time>2026-05-01T11:43:04Z</time></trkpt><trkpt lat="39.53601929047894" lon="8.535721964223882"><ele>212.33333333333334</ele><time>2026-05-01T11:43:05Z</time></trkpt><trkpt lat="39.53604690038036" lon="8.535812568090854"><ele>212.16666666666669</ele><time>2026-05-01T11:43:06Z</time></trkpt><trkpt lat="39.5361069725662" lon="8.535888634199047"><ele>212.0</ele><time>2026-05-01T11:43:07Z</time></trkpt><trkpt lat="39.53619103385773" lon="8.535929783649426"><ele>215.8</ele><time>2026-05-01T11:43:08Z</time></trkpt><trkpt lat="39.53629973562073" lon="8.53594991430093"><ele>219.6</ele><time>2026-05-01T11:43:09Z</time></trkpt><trkpt lat="39.53640036038503" lon="8.53601894832856"><ele>223.40000000000003</ele><time>2026-05-01T11:43:10Z</time></trkpt><trkpt lat="39.53648010080121" lon="8.536112299552258"><ele>227.20000000000002</ele><time>2026-05-01T11:43:11Z</time></trkpt><trkpt lat="39.53655379947321" lon="8.53622178151846"><ele>231.0</ele><time>2026-05-01T11:43:11.999Z</time></trkpt><trkpt lat="39.53663227662981" lon="8.536319006111817"><ele>231.0</ele><time>2026-05-01T11:43:12.999Z</time></trkpt><trkpt lat="39.53672846423929" lon="8.536381739375889"><ele>231.00000000000003</ele><time>2026-05-01T11:43:13.999Z</time></trkpt><trkpt lat="39.53681913137986" lon="8.536419281220407"><ele>231.00000000000003</ele><time>2026-05-01T11:43:14.999Z</time></trkpt><trkpt lat="39.53690514268955" lon="8.53641442157552"><ele>231.0</ele><time>2026-05-01T11:43:15.999Z</time></trkpt><trkpt lat="39.53697455199584" lon="8.536373357064244"><ele>231.0</ele><time>2026-05-01T11:43:16.999Z</time></trkpt><trkpt lat="39.53704515214293" lon="8.536298202045451"><ele>234.5</ele><time>2026-05-01T11:43:17.999Z</time></trkpt><trkpt lat="39.53712074601012" lon="8.536197307476092"><ele>238.0</ele><time>2026-05-01T11:43:18.999Z</time></trkpt><trkpt lat="39.53722465712059" lon="8.536112136001721"><ele>241.5</ele><time>2026-05-01T11:43:19.999Z</time></trkpt><trkpt lat="39.537322139952025" lon="8.536007049263741"><ele>245.0</ele><time>2026-05-01T11:43:20.999Z</time></trkpt><trkpt lat="39.5374217917092" lon="8.535919199289886"><ele>245.0</ele><time>2026-05-01T11:43:21.999Z</time></trkpt><trkpt lat="39.53752136822171" lon="8.535842619024361"><ele>245.0</ele><time>2026-05-01T11:43:22.999Z</time></trkpt><trkpt lat="39.53760246064576" lon="8.53578031687505"><ele>245.0</ele><time>2026-05-01T11:43:23.999Z</time></trkpt><trkpt lat="39.53766318118067" lon="8.535736265491664"><ele>245.0</ele><time>2026-05-01T11:43:24.999Z</time></trkpt><trkpt lat="39.537753350559" lon="8.535745312534688"><ele>245.0</ele><time>2026-05-01T11:43:26.999Z</time></trkpt><trkpt lat="39.537759663598045" lon="8.535862563699634"><ele>245.0</ele><time>2026-05-01T11:43:28.999Z</time></trkpt><trkpt lat="39.53767925616064" lon="8.535984039458892"><ele>245.0</ele><time>2026-05-01T11:43:30.999Z</time></trkpt><trkpt lat="39.53763208009388" lon="8.536083086709024"><ele>245.0</ele><time>2026-05-01T11:43:31.999Z</time></trkpt><trkpt lat="39.53755753642861" lon="8.536198126470893"><ele>245.0</ele><time>2026-05-01T11:43:32.999Z</time></trkpt><trkpt lat="39.53748859329288" lon="8.53632649851729"><ele>244.33333333333334</ele><time>2026-05-01T11:43:33.999Z</time></trkpt><trkpt lat="39.53743553744076" lon="8.536438981410544"><ele>243.66666666666669</ele><time>2026-05-01T11:43:34.999Z</time></trkpt><trkpt lat="39.53738746153616" lon="8.536517664809459"><ele>243.0</ele><time>2026-05-01T11:43:35.999Z</time></trkpt><trkpt lat="39.53740689925948" lon="8.536619362111473"><ele>242.33333333333331</ele><time>2026-05-01T11:43:36.999Z</time></trkpt><trkpt lat="39.53743778343086" lon="8.53670771241315"><ele>241.66666666666666</ele><time>2026-05-01T11:43:37.999Z</time></trkpt><trkpt lat="39.53749884171624" lon="8.536795677383083"><ele>241.0</ele><time>2026-05-01T11:43:38.999Z</time></trkpt><trkpt lat="39.537578044065775" lon="8.536893982747301"><ele>241.0</ele><time>2026-05-01T11:43:39.999Z</time></trkpt><trkpt lat="39.537656339966674" lon="8.537016100353858"><ele>241.0</ele><time>2026-05-01T11:43:40.999Z</time></trkpt><trkpt lat="39.5377507787827" lon="8.537136310356717"><ele>241.0</ele><time>2026-05-01T11:43:41.999Z</time></trkpt><trkpt lat="39.53783925540947" lon="8.537257580945672"><ele>241.0</ele><time>2026-05-01T11:43:42.999Z</time></trkpt><trkpt lat="39.537920410037934" lon="8.53738017338441"><ele>245.0</ele><time>2026-05-01T11:43:43.999Z</time></trkpt><trkpt lat="39.53799679518831" lon="8.537507941612992"><ele>249.0</ele><time>2026-05-01T11:43:44.999Z</time></trkpt><trkpt lat="39.53807740556537" lon="8.537648214298592"><ele>253.0</ele><time>2026-05-01T11:43:45.999Z</time></trkpt><trkpt lat="39.538135426558625" lon="8.537770318943819"><ele>257.0</ele><time>2026-05-01T11:43:46.999Z</time></trkpt><trkpt lat="39.53817455893179" lon="8.537868607813666"><ele>257.0</ele><time>2026-05-01T11:43:47.999Z</time></trkpt><trkpt lat="39.538229503503445" lon="8.537921207575055"><ele>257.0</ele><time>2026-05-01T11:43:48.999Z</time></trkpt><trkpt lat="39.53829881029171" lon="8.53793245855142"><ele>257.0</ele><time>2026-05-01T11:43:49.999Z</time></trkpt><trkpt lat="39.53836824927921" lon="8.537917532957952"><ele>257.0</ele><time>2026-05-01T11:43:50.999Z</time></trkpt><trkpt lat="39.53845718218059" lon="8.53792091910369"><ele>257.0</ele><time>2026-05-01T11:43:51.999Z</time></trkpt><trkpt lat="39.53849832976321" lon="8.537749485212357"><ele>257.0</ele><time>2026-05-01T11:43:52.999Z</time></trkpt><trkpt lat="39.53855050121306" lon="8.537671112181972"><ele>257.0</ele><time>2026-05-01T11:43:53.999Z</time></trkpt><trkpt lat="39.538606431701524" lon="8.537607570753458"><ele>257.0</ele><time>2026-05-01T11:43:54.999Z</time></trkpt><trkpt lat="39.538707477008614" lon="8.537587775163628"><ele>257.0</ele><time>2026-05-01T11:43:56.999Z</time></trkpt><trkpt lat="39.53875489058591" lon="8.537657521822876"><ele>257.0</ele><time>2026-05-01T11:43:58.999Z</time></trkpt><trkpt lat="39.5387350378653" lon="8.537793030480875"><ele>257.0</ele><time>2026-05-01T11:44:00.999Z</time></trkpt><trkpt lat="39.538759697619724" lon="8.537897225976396"><ele>257.0</ele><time>2026-05-01T11:44:01.999Z</time></trkpt><trkpt lat="39.53877673395359" lon="8.538005437719455"><ele>258.4</ele><time>2026-05-01T11:44:02.999Z</time></trkpt><trkpt lat="39.538811824396184" lon="8.538101504286617"><ele>259.79999999999995</ele><time>2026-05-01T11:44:03.999Z</time></trkpt><trkpt lat="39.53887444649115" lon="8.538171559547171"><ele>261.2</ele><time>2026-05-01T11:44:04.999Z</time></trkpt><trkpt lat="39.53895624317041" lon="8.53822002761313"><ele>262.59999999999997</ele><time>2026-05-01T11:44:05.999Z</time></trkpt><trkpt lat="39.5390529235735" lon="8.53824979862112"><ele>264.0</ele><time>2026-05-01T11:44:06.999Z</time></trkpt><trkpt lat="39.53915669166069" lon="8.538258057203587"><ele>264.0</ele><time>2026-05-01T11:44:07.999Z</time></trkpt><trkpt lat="39.53925075321245" lon="8.538265061445706"><ele>264.0</ele><time>2026-05-01T11:44:08.999Z</time></trkpt><trkpt lat="39.53932287959567" lon="8.538298427915183"><ele>264.0</ele><time>2026-05-01T11:44:09.999Z</time></trkpt><trkpt lat="39.53936445472672" lon="8.538360804796701"><ele>264.0</ele><time>2026-05-01T11:44:10.999Z</time></trkpt><trkpt lat="39.53934611640506" lon="8.5385215589044"><ele>264.0</ele><time>2026-05-01T11:44:12.999Z</time></trkpt><trkpt lat="39.53929384308059" lon="8.538624667271272"><ele>261.8333333333333</ele><time>2026-05-01T11:44:13.999Z</time></trkpt><trkpt lat="39.53924753505263" lon="8.538727576581667"><ele>259.6666666666667</ele><time>2026-05-01T11:44:14.999Z</time></trkpt><trkpt lat="39.539228020767126" lon="8.538824754960078"><ele>257.5</ele><time>2026-05-01T11:44:15.999Z</time></trkpt><trkpt lat="39.53922039018197" lon="8.538912441282616"><ele>255.33333333333334</ele><time>2026-05-01T11:44:16.999Z</time></trkpt><trkpt lat="39.539283982847756" lon="8.539010413311233"><ele>253.16666666666669</ele><time>2026-05-01T11:44:17.999Z</time></trkpt><trkpt lat="39.53937911601164" lon="8.539059392847332"><ele>251.0</ele><time>2026-05-01T11:44:18.999Z</time></trkpt><trkpt lat="39.53947075263567" lon="8.539107830194524"><ele>255.60000000000002</ele><time>2026-05-01T11:44:19.999Z</time></trkpt><trkpt lat="39.53955892657483" lon="8.539163950791446"><ele>260.20000000000005</ele><time>2026-05-01T11:44:20.999Z</time></trkpt><trkpt lat="39.539645769858225" lon="8.539232022283233"><ele>264.79999999999995</ele><time>2026-05-01T11:44:21.999Z</time></trkpt><trkpt lat="39.53973107587099" lon="8.539313760738315"><ele>269.4</ele><time>2026-05-01T11:44:22.999Z</time></trkpt><trkpt lat="39.53981176210812" lon="8.5393940739468"><ele>274.0</ele><time>2026-05-01T11:44:23.999Z</time></trkpt><trkpt lat="39.539886653347" lon="8.53947453602426"><ele>274.0</ele><time>2026-05-01T11:44:24.999Z</time></trkpt><trkpt lat="39.53996665845984" lon="8.53953839019748"><ele>274.0</ele><time>2026-05-01T11:44:25.999Z</time></trkpt><trkpt lat="39.54006998506806" lon="8.539564089556608"><ele>274.0</ele><time>2026-05-01T11:44:26.999Z</time></trkpt><trkpt lat="39.540181513178275" lon="8.539562273733374"><ele>274.0</ele><time>2026-05-01T11:44:27.999Z</time></trkpt><trkpt lat="39.54029815257615" lon="8.539547111263932"><ele>274.0</ele><time>2026-05-01T11:44:28.999Z</time></trkpt><trkpt lat="39.54041412363515" lon="8.539539003426249"><ele>273.0</ele><time>2026-05-01T11:44:29.998Z</time></trkpt><trkpt lat="39.54056356822071" lon="8.539571237165891"><ele>272.0</ele><time>2026-05-01T11:44:30.998Z</time></trkpt><trkpt lat="39.540717005458404" lon="8.53953721747921"><ele>271.0</ele><time>2026-05-01T11:44:31.998Z</time></trkpt><trkpt lat="39.54085327896978" lon="8.539509884104922"><ele>270.0</ele><time>2026-05-01T11:44:32.998Z</time></trkpt><trkpt lat="39.54096444565652" lon="8.539534607979133"><ele>270.0</ele><time>2026-05-01T11:44:33.998Z</time></trkpt><trkpt lat="39.54105688213661" lon="8.539579752399538"><ele>270.0</ele><time>2026-05-01T11:44:34.998Z</time></trkpt><trkpt lat="39.541168865298424" lon="8.539631330196093"><ele>270.0</ele><time>2026-05-01T11:44:35.998Z</time></trkpt><trkpt lat="39.54128569053054" lon="8.539653304913738"><ele>270.0</ele><time>2026-05-01T11:44:36.998Z</time></trkpt><trkpt lat="39.54137237740253" lon="8.53971618708141"><ele>270.0</ele><time>2026-05-01T11:44:37.998Z</time></trkpt><trkpt lat="39.5414446158407" lon="8.53975200611753"><ele>270.0</ele><time>2026-05-01T11:44:38.998Z</time></trkpt><trkpt lat="39.5414837734375" lon="8.539825778475004"><ele>270.0</ele><time>2026-05-01T11:44:40Z</time></trkpt><trkpt lat="39.54149190250572" lon="8.539918943817261"><ele>270.0</ele><time>2026-05-01T11:44:41Z</time></trkpt><trkpt lat="39.5414543543341" lon="8.540016528688563"><ele>270.0</ele><time>2026-05-01T11:44:42Z</time></trkpt><trkpt lat="39.54141193378188" lon="8.54009385562102"><ele>270.0</ele><time>2026-05-01T11:44:43Z</time></trkpt><trkpt lat="39.541355648638415" lon="8.540138213693362"><ele>270.0</ele><time>2026-05-01T11:44:44Z</time></trkpt><trkpt lat="39.54128846775595" lon="8.540165974166673"><ele>270.0</ele><time>2026-05-01T11:44:45Z</time></trkpt><trkpt lat="39.541206278963074" lon="8.5402028948164"><ele>270.0</ele><time>2026-05-01T11:44:46Z</time></trkpt><trkpt lat="39.54111543935413" lon="8.540244938349234"><ele>270.0</ele><time>2026-05-01T11:44:47Z</time></trkpt><trkpt lat="39.54104660749826" lon="8.54031265972275"><ele>270.0</ele><time>2026-05-01T11:44:48Z</time></trkpt><trkpt lat="39.54099667792619" lon="8.540394041263692"><ele>270.0</ele><time>2026-05-01T11:44:49Z</time></trkpt><trkpt lat="39.54095519582862" lon="8.540488687798605"><ele>270.0</ele><time>2026-05-01T11:44:50Z</time></trkpt><trkpt lat="39.5409199417809" lon="8.540597002842095"><ele>270.0</ele><time>2026-05-01T11:44:51Z</time></trkpt><trkpt lat="39.54085329290276" lon="8.540699441275748"><ele>272.75</ele><time>2026-05-01T11:44:52Z</time></trkpt><trkpt lat="39.540809563263686" lon="8.540826690007814"><ele>275.5</ele><time>2026-05-01T11:44:53Z</time></trkpt><trkpt lat="39.54075206988808" lon="8.540955811200021"><ele>278.25</ele><time>2026-05-01T11:44:54Z</time></trkpt><trkpt lat="39.540750271887525" lon="8.54110834007989"><ele>281.0</ele><time>2026-05-01T11:44:55Z</time></trkpt><trkpt lat="39.54072547822653" lon="8.541269908704926"><ele>283.6</ele><time>2026-05-01T11:44:56Z</time></trkpt><trkpt lat="39.54070362769382" lon="8.541428421797315"><ele>286.20000000000005</ele><time>2026-05-01T11:44:57Z</time></trkpt><trkpt lat="39.54065095540393" lon="8.54153873680964"><ele>288.79999999999995</ele><time>2026-05-01T11:44:58Z</time></trkpt><trkpt lat="39.54059901436327" lon="8.54162865053322"><ele>291.4</ele><time>2026-05-01T11:44:59Z</time></trkpt><trkpt lat="39.54056550611205" lon="8.541712561384104"><ele>294.0</ele><time>2026-05-01T11:45:00Z</time></trkpt><trkpt lat="39.54055843657986" lon="8.541797854797073"><ele>294.0</ele><time>2026-05-01T11:45:01Z</time></trkpt><trkpt lat="39.54060027237184" lon="8.54189660664477"><ele>294.0</ele><time>2026-05-01T11:45:02Z</time></trkpt><trkpt lat="39.5406501522455" lon="8.54199271636859"><ele>294.0</ele><time>2026-05-01T11:45:03Z</time></trkpt><trkpt lat="39.540703460277186" lon="8.542109726027592"><ele>294.0</ele><time>2026-05-01T11:45:04Z</time></trkpt><trkpt lat="39.5407694768752" lon="8.5422501420381"><ele>294.0</ele><time>2026-05-01T11:45:05Z</time></trkpt><trkpt lat="39.54084782779462" lon="8.542411405896049"><ele>292.3333333333333</ele><time>2026-05-01T11:45:06Z</time></trkpt><trkpt lat="39.54093659540557" lon="8.542592639837189"><ele>290.66666666666663</ele><time>2026-05-01T11:45:07Z</time></trkpt><trkpt lat="39.54102819920164" lon="8.542777138542675"><ele>289.0</ele><time>2026-05-01T11:45:08Z</time></trkpt><trkpt lat="39.54112720930873" lon="8.542913735690211"><ele>291.59999999999997</ele><time>2026-05-01T11:45:09Z</time></trkpt><trkpt lat="39.54118997356697" lon="8.54303157430645"><ele>294.2</ele><time>2026-05-01T11:45:10Z</time></trkpt><trkpt lat="39.54125699525381" lon="8.543114956442922"><ele>296.79999999999995</ele><time>2026-05-01T11:45:11Z</time></trkpt><trkpt lat="39.54134068434584" lon="8.543175768376013"><ele>299.4</ele><time>2026-05-01T11:45:12Z</time></trkpt><trkpt lat="39.541439828131296" lon="8.543211938871478"><ele>302.0</ele><time>2026-05-01T11:45:13Z</time></trkpt><trkpt lat="39.54155333861446" lon="8.543239772665128"><ele>302.0</ele><time>2026-05-01T11:45:14Z</time></trkpt><trkpt lat="39.541663147778955" lon="8.543312023030413"><ele>302.0</ele><time>2026-05-01T11:45:15Z</time></trkpt><trkpt lat="39.54176393529832" lon="8.543379666166992"><ele>302.0</ele><time>2026-05-01T11:45:16Z</time></trkpt><trkpt lat="39.54186155477501" lon="8.543409266281639"><ele>302.0</ele><time>2026-05-01T11:45:16.999Z</time></trkpt><trkpt lat="39.541943658696205" lon="8.543418634379917"><ele>302.0</ele><time>2026-05-01T11:45:17.999Z</time></trkpt><trkpt lat="39.54203034368333" lon="8.543391974164944"><ele>303.0</ele><time>2026-05-01T11:45:18.999Z</time></trkpt><trkpt lat="39.54211499455979" lon="8.543341388121"><ele>304.0</ele><time>2026-05-01T11:45:19.999Z</time></trkpt><trkpt lat="39.54221549784213" lon="8.543259033666883"><ele>305.0</ele><time>2026-05-01T11:45:20.999Z</time></trkpt><trkpt lat="39.54232375025441" lon="8.543187374287115"><ele>306.0</ele><time>2026-05-01T11:45:21.999Z</time></trkpt><trkpt lat="39.54244525968868" lon="8.543115069537476"><ele>306.0</ele><time>2026-05-01T11:45:22.999Z</time></trkpt><trkpt lat="39.542560198280206" lon="8.543046713987415"><ele>306.0</ele><time>2026-05-01T11:45:23.999Z</time></trkpt><trkpt lat="39.542653139597576" lon="8.542991255025102"><ele>306.0</ele><time>2026-05-01T11:45:24.999Z</time></trkpt><trkpt lat="39.542743881734985" lon="8.542994620718384"><ele>306.0</ele><time>2026-05-01T11:45:25.999Z</time></trkpt><trkpt lat="39.54282603123485" lon="8.542995338367552"><ele>306.0</ele><time>2026-05-01T11:45:26.999Z</time></trkpt><trkpt lat="39.54290177806356" lon="8.543070592609789"><ele>310.25</ele><time>2026-05-01T11:45:27.999Z</time></trkpt><trkpt lat="39.5429702258372" lon="8.543155440212056"><ele>314.5</ele><time>2026-05-01T11:45:28.999Z</time></trkpt><trkpt lat="39.54306905825874" lon="8.5432428330029"><ele>318.75</ele><time>2026-05-01T11:45:29.999Z</time></trkpt><trkpt lat="39.54316227423035" lon="8.543363109303913"><ele>323.0</ele><time>2026-05-01T11:45:30.999Z</time></trkpt><trkpt lat="39.5432469982854" lon="8.543508814241017"><ele>323.0</ele><time>2026-05-01T11:45:31.999Z</time></trkpt><trkpt lat="39.54335439990764" lon="8.543637764481373"><ele>323.0</ele><time>2026-05-01T11:45:32.999Z</time></trkpt><trkpt lat="39.54345326966624" lon="8.54378038508664"><ele>323.0</ele><time>2026-05-01T11:45:33.999Z</time></trkpt><trkpt lat="39.54353886278443" lon="8.54393222842102"><ele>323.0</ele><time>2026-05-01T11:45:34.999Z</time></trkpt><trkpt lat="39.543618814741315" lon="8.544084548406348"><ele>320.25</ele><time>2026-05-01T11:45:35.999Z</time></trkpt><trkpt lat="39.54368452063407" lon="8.54424372097669"><ele>317.5</ele><time>2026-05-01T11:45:36.999Z</time></trkpt><trkpt lat="39.54373570732584" lon="8.544399271289715"><ele>314.75</ele><time>2026-05-01T11:45:37.999Z</time></trkpt><trkpt lat="39.54377390334783" lon="8.544542760933862"><ele>312.0</ele><time>2026-05-01T11:45:38.999Z</time></trkpt><trkpt lat="39.543813304992284" lon="8.544674786756179"><ele>313.4</ele><time>2026-05-01T11:45:39.999Z</time></trkpt><trkpt lat="39.54381892465995" lon="8.544823830986992"><ele>314.79999999999995</ele><time>2026-05-01T11:45:40.999Z</time></trkpt><trkpt lat="39.543794185995715" lon="8.544954112539427"><ele>316.2</ele><time>2026-05-01T11:45:41.999Z</time></trkpt><trkpt lat="39.543781516690714" lon="8.545058870554685"><ele>317.59999999999997</ele><time>2026-05-01T11:45:42.999Z</time></trkpt><trkpt lat="39.54373642950662" lon="8.545193412678007"><ele>319.0</ele><time>2026-05-01T11:45:44.999Z</time></trkpt><trkpt lat="39.54366951548997" lon="8.54528234352713"><ele>319.0</ele><time>2026-05-01T11:45:46.999Z</time></trkpt><trkpt lat="39.5435644851953" lon="8.545342404520287"><ele>319.0</ele><time>2026-05-01T11:45:48.999Z</time></trkpt><trkpt lat="39.54350608676329" lon="8.545276318320257"><ele>319.0</ele><time>2026-05-01T11:45:49.999Z</time></trkpt><trkpt lat="39.543442621511325" lon="8.545266055870485"><ele>319.0</ele><time>2026-05-01T11:45:50.999Z</time></trkpt><trkpt lat="39.54333400344785" lon="8.54530392085287"><ele>319.0</ele><time>2026-05-01T11:45:52.999Z</time></trkpt><trkpt lat="39.54329865404764" lon="8.54540315130028"><ele>318.8</ele><time>2026-05-01T11:45:53.999Z</time></trkpt><trkpt lat="39.54331210737737" lon="8.545510079564178"><ele>318.59999999999997</ele><time>2026-05-01T11:45:54.999Z</time></trkpt><trkpt lat="39.543376403406555" lon="8.545582921751679"><ele>318.4</ele><time>2026-05-01T11:45:55.999Z</time></trkpt><trkpt lat="39.543448905934824" lon="8.545638030906735"><ele>318.2</ele><time>2026-05-01T11:45:56.999Z</time></trkpt><trkpt lat="39.54353016415823" lon="8.545702552035598"><ele>318.0</ele><time>2026-05-01T11:45:57.999Z</time></trkpt><trkpt lat="39.543635868081424" lon="8.545751165557045"><ele>323.25</ele><time>2026-05-01T11:45:58.999Z</time></trkpt><trkpt lat="39.5437544137224" lon="8.545789433711995"><ele>328.5</ele><time>2026-05-01T11:45:59.999Z</time></trkpt><trkpt lat="39.543869892655266" lon="8.545841570923724"><ele>333.75</ele><time>2026-05-01T11:46:00.999Z</time></trkpt><trkpt lat="39.543997858455604" lon="8.545913317135481"><ele>339.0</ele><time>2026-05-01T11:46:01.999Z</time></trkpt><trkpt lat="39.54411059580643" lon="8.546007560908999"><ele>339.0</ele><time>2026-05-01T11:46:02.999Z</time></trkpt><trkpt lat="39.54419461788789" lon="8.546110404052657"><ele>339.0</ele><time>2026-05-01T11:46:03.999Z</time></trkpt><trkpt lat="39.544251144339825" lon="8.546238235199885"><ele>339.0</ele><time>2026-05-01T11:46:04.999Z</time></trkpt><trkpt lat="39.54430537439136" lon="8.546387901578699"><ele>339.0</ele><time>2026-05-01T11:46:05.999Z</time></trkpt><trkpt lat="39.54435026630956" lon="8.546528558076664"><ele>339.2</ele><time>2026-05-01T11:46:06.999Z</time></trkpt><trkpt lat="39.5443894146498" lon="8.546639139353783"><ele>339.4</ele><time>2026-05-01T11:46:07.999Z</time></trkpt><trkpt lat="39.544467006095886" lon="8.54670270143637"><ele>339.6</ele><time>2026-05-01T11:46:08.999Z</time></trkpt><trkpt lat="39.54455741329008" lon="8.546750285110019"><ele>339.8</ele><time>2026-05-01T11:46:09.999Z</time></trkpt><trkpt lat="39.54467657335209" lon="8.546786216313574"><ele>340.0</ele><time>2026-05-01T11:46:10.999Z</time></trkpt><trkpt lat="39.54481255270037" lon="8.546823753226223"><ele>340.0</ele><time>2026-05-01T11:46:11.999Z</time></trkpt><trkpt lat="39.54496023759706" lon="8.546866537310594"><ele>340.0</ele><time>2026-05-01T11:46:12.999Z</time></trkpt><trkpt lat="39.545093099937496" lon="8.54690909422641"><ele>340.0</ele><time>2026-05-01T11:46:13.999Z</time></trkpt><trkpt lat="39.545208092797616" lon="8.546954778910797"><ele>340.0</ele><time>2026-05-01T11:46:14.999Z</time></trkpt><trkpt lat="39.545306933041914" lon="8.547010865889048"><ele>340.8</ele><time>2026-05-01T11:46:15.999Z</time></trkpt><trkpt lat="39.545376333897686" lon="8.547087866660565"><ele>341.6</ele><time>2026-05-01T11:46:16.999Z</time></trkpt><trkpt lat="39.54540731434263" lon="8.547210439391579"><ele>342.4</ele><time>2026-05-01T11:46:17.999Z</time></trkpt><trkpt lat="39.545438524363824" lon="8.547350571210387"><ele>343.2</ele><time>2026-05-01T11:46:18.999Z</time></trkpt><trkpt lat="39.54548953705816" lon="8.547499785217557"><ele>344.0</ele><time>2026-05-01T11:46:19.999Z</time></trkpt><trkpt lat="39.545528932744425" lon="8.54765019277161"><ele>344.2</ele><time>2026-05-01T11:46:20.999Z</time></trkpt><trkpt lat="39.54559320310248" lon="8.547762591349473"><ele>344.4</ele><time>2026-05-01T11:46:21.999Z</time></trkpt><trkpt lat="39.54567870533504" lon="8.547840418866551"><ele>344.6</ele><time>2026-05-01T11:46:22.999Z</time></trkpt><trkpt lat="39.54578259384165" lon="8.547886158082719"><ele>344.8</ele><time>2026-05-01T11:46:23.999Z</time></trkpt><trkpt lat="39.545891738278016" lon="8.547896306999782"><ele>345.0</ele><time>2026-05-01T11:46:24.999Z</time></trkpt><trkpt lat="39.5460087002191" lon="8.547922917127647"><ele>345.0</ele><time>2026-05-01T11:46:25.999Z</time></trkpt><trkpt lat="39.546106974549346" lon="8.548022200320064"><ele>345.0</ele><time>2026-05-01T11:46:26.999Z</time></trkpt><trkpt lat="39.546201218289774" lon="8.548106104506948"><ele>345.0</ele><time>2026-05-01T11:46:27.999Z</time></trkpt><trkpt lat="39.546294867666504" lon="8.548157877519076"><ele>345.0</ele><time>2026-05-01T11:46:28.999Z</time></trkpt><trkpt lat="39.54636135718762" lon="8.54823874058454"><ele>345.0</ele><time>2026-05-01T11:46:29.999Z</time></trkpt><trkpt lat="39.54641866735902" lon="8.548340605344444"><ele>341.0</ele><time>2026-05-01T11:46:30.999Z</time></trkpt><trkpt lat="39.54646653690063" lon="8.548468131681812"><ele>337.0</ele><time>2026-05-01T11:46:31.999Z</time></trkpt><trkpt lat="39.54650765654593" lon="8.548607812996238"><ele>333.0</ele><time>2026-05-01T11:46:32.999Z</time></trkpt><trkpt lat="39.5465282038364" lon="8.548763525613188"><ele>329.0</ele><time>2026-05-01T11:46:33.999Z</time></trkpt><trkpt lat="39.546556145993826" lon="8.548924013833432"><ele>329.0</ele><time>2026-05-01T11:46:34.999Z</time></trkpt><trkpt lat="39.546577505412266" lon="8.549082638838703"><ele>329.0</ele><time>2026-05-01T11:46:35.998Z</time></trkpt><trkpt lat="39.54659646680225" lon="8.549227510902645"><ele>329.0</ele><time>2026-05-01T11:46:36.998Z</time></trkpt><trkpt lat="39.54661569321708" lon="8.549359235875947"><ele>329.0</ele><time>2026-05-01T11:46:37.998Z</time></trkpt><trkpt lat="39.546665111697244" lon="8.549469493574582"><ele>329.0</ele><time>2026-05-01T11:46:38.998Z</time></trkpt><trkpt lat="39.5467062146129" lon="8.549578216329426"><ele>328.0</ele><time>2026-05-01T11:46:39.998Z</time></trkpt><trkpt lat="39.54681049283647" lon="8.549638231674185"><ele>327.0</ele><time>2026-05-01T11:46:40.998Z</time></trkpt><trkpt lat="39.5469123313436" lon="8.549692616508038"><ele>326.0</ele><time>2026-05-01T11:46:41.998Z</time></trkpt><trkpt lat="39.54702336244855" lon="8.54971826086876"><ele>325.0</ele><time>2026-05-01T11:46:42.998Z</time></trkpt><trkpt lat="39.547130590168486" lon="8.549731813913066"><ele>324.0</ele><time>2026-05-01T11:46:43.998Z</time></trkpt><trkpt lat="39.547216226320465" lon="8.549784802817353"><ele>324.0</ele><time>2026-05-01T11:46:44.998Z</time></trkpt><trkpt lat="39.54729285442064" lon="8.549833721685166"><ele>324.0</ele><time>2026-05-01T11:46:46Z</time></trkpt><trkpt lat="39.54733876752866" lon="8.549933226366198"><ele>324.0</ele><time>2026-05-01T11:46:47Z</time></trkpt><trkpt lat="39.54736787630379" lon="8.55004402413075"><ele>324.0</ele><time>2026-05-01T11:46:48Z</time></trkpt><trkpt lat="39.54735528824025" lon="8.550161581836887"><ele>324.0</ele><time>2026-05-01T11:46:49Z</time></trkpt><trkpt lat="39.54733900388499" lon="8.550286307847625"><ele>322.25</ele><time>2026-05-01T11:46:50Z</time></trkpt><trkpt lat="39.54731743485453" lon="8.55042670733041"><ele>320.5</ele><time>2026-05-01T11:46:51Z</time></trkpt><trkpt lat="39.54730612922184" lon="8.550583939465408"><ele>318.75</ele><time>2026-05-01T11:46:52Z</time></trkpt><trkpt lat="39.54728490713905" lon="8.550741119760398"><ele>317.0</ele><time>2026-05-01T11:46:53Z</time></trkpt><trkpt lat="39.54727590329792" lon="8.550904520660026"><ele>317.0</ele><time>2026-05-01T11:46:54Z</time></trkpt><trkpt lat="39.54725628156689" lon="8.551057022567825"><ele>317.0</ele><time>2026-05-01T11:46:55Z</time></trkpt><trkpt lat="39.547274073790376" lon="8.551202268275208"><ele>317.0</ele><time>2026-05-01T11:46:56Z</time></trkpt><trkpt lat="39.54728300338563" lon="8.551333060535445"><ele>317.0</ele><time>2026-05-01T11:46:57Z</time></trkpt><trkpt lat="39.54729000190488" lon="8.551472600836801"><ele>317.0</ele><time>2026-05-01T11:46:58Z</time></trkpt><trkpt lat="39.54731647169758" lon="8.551620355105626"><ele>316.8</ele><time>2026-05-01T11:46:59Z</time></trkpt><trkpt lat="39.547360970851315" lon="8.5517541932732"><ele>316.6</ele><time>2026-05-01T11:47:00Z</time></trkpt><trkpt lat="39.54739207018295" lon="8.551880565111444"><ele>316.40000000000003</ele><time>2026-05-01T11:47:01Z</time></trkpt><trkpt lat="39.54743409451814" lon="8.551991703548861"><ele>316.2</ele><time>2026-05-01T11:47:02Z</time></trkpt><trkpt lat="39.54749046551818" lon="8.552088712006032"><ele>316.0</ele><time>2026-05-01T11:47:03Z</time></trkpt><trkpt lat="39.54755927601451" lon="8.55218150536365"><ele>315.5</ele><time>2026-05-01T11:47:04Z</time></trkpt><trkpt lat="39.54764466912095" lon="8.55226466612031"><ele>315.0</ele><time>2026-05-01T11:47:05Z</time></trkpt><trkpt lat="39.54774117709151" lon="8.5523327304824"><ele>314.5</ele><time>2026-05-01T11:47:06Z</time></trkpt><trkpt lat="39.54784850420569" lon="8.552388873661942"><ele>314.0</ele><time>2026-05-01T11:47:07Z</time></trkpt><trkpt lat="39.54796357377318" lon="8.55242693309711"><ele>314.0</ele><time>2026-05-01T11:47:08Z</time></trkpt><trkpt lat="39.54808364537094" lon="8.552449455305286"><ele>314.0</ele><time>2026-05-01T11:47:09Z</time></trkpt><trkpt lat="39.54820443579506" lon="8.5524653835099"><ele>314.0</ele><time>2026-05-01T11:47:10Z</time></trkpt><trkpt lat="39.54832021671388" lon="8.552481659068272"><ele>314.0</ele><time>2026-05-01T11:47:11Z</time></trkpt><trkpt lat="39.54842539244526" lon="8.552493640608166"><ele>314.0</ele><time>2026-05-01T11:47:12Z</time></trkpt><trkpt lat="39.54852272611296" lon="8.552506235066272"><ele>314.0</ele><time>2026-05-01T11:47:13Z</time></trkpt><trkpt lat="39.54861954014282" lon="8.552519589382602"><ele>314.0</ele><time>2026-05-01T11:47:14Z</time></trkpt><trkpt lat="39.54870643332124" lon="8.55253465293671"><ele>314.0</ele><time>2026-05-01T11:47:15Z</time></trkpt><trkpt lat="39.548782339890096" lon="8.552567787064907"><ele>314.0</ele><time>2026-05-01T11:47:16Z</time></trkpt><trkpt lat="39.54883403556416" lon="8.552637044142491"><ele>314.0</ele><time>2026-05-01T11:47:17Z</time></trkpt><trkpt lat="39.54882770322295" lon="8.552748181277915"><ele>310.4</ele><time>2026-05-01T11:47:18Z</time></trkpt><trkpt lat="39.548813387379745" lon="8.552868359558286"><ele>306.79999999999995</ele><time>2026-05-01T11:47:19Z</time></trkpt><trkpt lat="39.54878742954412" lon="8.552985129577364"><ele>303.20000000000005</ele><time>2026-05-01T11:47:20Z</time></trkpt><trkpt lat="39.54875341274163" lon="8.553111279814557"><ele>299.6</ele><time>2026-05-01T11:47:20.999Z</time></trkpt><trkpt lat="39.54875114686136" lon="8.553251318690078"><ele>296.0</ele><time>2026-05-01T11:47:21.999Z</time></trkpt><trkpt lat="39.54875750097524" lon="8.553393301873667"><ele>296.0</ele><time>2026-05-01T11:47:22.999Z</time></trkpt><trkpt lat="39.548786655229954" lon="8.553537125538003"><ele>296.0</ele><time>2026-05-01T11:47:23.999Z</time></trkpt><trkpt lat="39.54882701515504" lon="8.553677737044099"><ele>296.0</ele><time>2026-05-01T11:47:24.999Z</time></trkpt><trkpt lat="39.54888537331755" lon="8.553810083832584"><ele>296.0</ele><time>2026-05-01T11:47:25.999Z</time></trkpt><trkpt lat="39.548955914212705" lon="8.553935708091934"><ele>299.5</ele><time>2026-05-01T11:47:26.999Z</time></trkpt><trkpt lat="39.54904509547983" lon="8.554051635373234"><ele>303.0</ele><time>2026-05-01T11:47:27.999Z</time></trkpt><trkpt lat="39.54915075103378" lon="8.554134456743146"><ele>306.5</ele><time>2026-05-01T11:47:28.999Z</time></trkpt><trkpt lat="39.54925796353027" lon="8.554181476357408"><ele>310.0</ele><time>2026-05-01T11:47:29.999Z</time></trkpt><trkpt lat="39.54935622452319" lon="8.554228060880172"><ele>310.0</ele><time>2026-05-01T11:47:30.999Z</time></trkpt><trkpt lat="39.54944180948828" lon="8.554295206166287"><ele>310.0</ele><time>2026-05-01T11:47:31.999Z</time></trkpt><trkpt lat="39.54951580864821" lon="8.554399411930136"><ele>310.0</ele><time>2026-05-01T11:47:32.999Z</time></trkpt><trkpt lat="39.5495786738938" lon="8.55451887330701"><ele>310.0</ele><time>2026-05-01T11:47:33.999Z</time></trkpt><trkpt lat="39.549610260537946" lon="8.554652170975928"><ele>310.0</ele><time>2026-05-01T11:47:34.999Z</time></trkpt><trkpt lat="39.54964312746465" lon="8.554776700552699"><ele>306.6</ele><time>2026-05-01T11:47:35.999Z</time></trkpt><trkpt lat="39.54967423717627" lon="8.554909668283486"><ele>303.2</ele><time>2026-05-01T11:47:36.999Z</time></trkpt><trkpt lat="39.54971928279414" lon="8.555039161338764"><ele>299.8</ele><time>2026-05-01T11:47:37.999Z</time></trkpt><trkpt lat="39.5497388354039" lon="8.555168527167824"><ele>296.4</ele><time>2026-05-01T11:47:38.999Z</time></trkpt><trkpt lat="39.54972026885663" lon="8.555305627054992"><ele>293.0</ele><time>2026-05-01T11:47:39.999Z</time></trkpt><trkpt lat="39.54970868838053" lon="8.555439396039061"><ele>292.6</ele><time>2026-05-01T11:47:40.999Z</time></trkpt><trkpt lat="39.549671310006616" lon="8.555559225745986"><ele>292.20000000000005</ele><time>2026-05-01T11:47:41.999Z</time></trkpt><trkpt lat="39.54963633569126" lon="8.555673817267873"><ele>291.8</ele><time>2026-05-01T11:47:42.999Z</time></trkpt><trkpt lat="39.54961044519225" lon="8.555776049082914"><ele>291.40000000000003</ele><time>2026-05-01T11:47:43.999Z</time></trkpt><trkpt lat="39.54961163365504" lon="8.555886773629059"><ele>291.0</ele><time>2026-05-01T11:47:44.999Z</time></trkpt><trkpt lat="39.549651278570174" lon="8.555995078805454"><ele>291.0</ele><time>2026-05-01T11:47:45.999Z</time></trkpt><trkpt lat="39.54972207864792" lon="8.556086142611518"><ele>291.0</ele><time>2026-05-01T11:47:46.999Z</time></trkpt><trkpt lat="39.54977995728777" lon="8.556189195550132"><ele>291.0</ele><time>2026-05-01T11:47:47.999Z</time></trkpt><trkpt lat="39.54983507106033" lon="8.556303808482955"><ele>291.0</ele><time>2026-05-01T11:47:48.999Z</time></trkpt><trkpt lat="39.549856812043004" lon="8.556438703861016"><ele>291.0</ele><time>2026-05-01T11:47:49.999Z</time></trkpt><trkpt lat="39.54987218517743" lon="8.556563346694212"><ele>292.6666666666667</ele><time>2026-05-01T11:47:50.999Z</time></trkpt><trkpt lat="39.54988815505902" lon="8.556677157902874"><ele>294.3333333333333</ele><time>2026-05-01T11:47:51.999Z</time></trkpt><trkpt lat="39.54991730824577" lon="8.55677506865775"><ele>296.0</ele><time>2026-05-01T11:47:52.999Z</time></trkpt><trkpt lat="39.54996665421493" lon="8.556855291836383"><ele>297.66666666666663</ele><time>2026-05-01T11:47:53.999Z</time></trkpt><trkpt lat="39.550034852697536" lon="8.556917062830468"><ele>299.3333333333333</ele><time>2026-05-01T11:47:54.999Z</time></trkpt><trkpt lat="39.55011968027964" lon="8.556949928675106"><ele>301.0</ele><time>2026-05-01T11:47:55.999Z</time></trkpt><trkpt lat="39.55020838033183" lon="8.556974379821174"><ele>301.0</ele><time>2026-05-01T11:47:56.999Z</time></trkpt><trkpt lat="39.55029681906947" lon="8.556997136141142"><ele>301.0</ele><time>2026-05-01T11:47:57.999Z</time></trkpt><trkpt lat="39.550393785578294" lon="8.55701620047169"><ele>301.0</ele><time>2026-05-01T11:47:58.999Z</time></trkpt><trkpt lat="39.55049708215008" lon="8.5570446586058"><ele>301.0</ele><time>2026-05-01T11:47:59.999Z</time></trkpt><trkpt lat="39.55059985394265" lon="8.557071958833621"><ele>301.0</ele><time>2026-05-01T11:48:00.999Z</time></trkpt><trkpt lat="39.550694699526936" lon="8.557100204623216"><ele>301.3333333333333</ele><time>2026-05-01T11:48:01.999Z</time></trkpt><trkpt lat="39.55077592018616" lon="8.557144358515407"><ele>301.66666666666663</ele><time>2026-05-01T11:48:02.999Z</time></trkpt><trkpt lat="39.55083625496116" lon="8.55721732901494"><ele>302.0</ele><time>2026-05-01T11:48:03.999Z</time></trkpt><trkpt lat="39.550875285802974" lon="8.557302622052035"><ele>302.3333333333333</ele><time>2026-05-01T11:48:04.999Z</time></trkpt><trkpt lat="39.550875529074794" lon="8.557407739416124"><ele>302.6666666666667</ele><time>2026-05-01T11:48:05.999Z</time></trkpt><trkpt lat="39.55088240656879" lon="8.557519444215773"><ele>303.0</ele><time>2026-05-01T11:48:06.999Z</time></trkpt><trkpt lat="39.550888087078114" lon="8.557634129889472"><ele>303.0</ele><time>2026-05-01T11:48:07.999Z</time></trkpt><trkpt lat="39.550897391174296" lon="8.557754463157767"><ele>303.0</ele><time>2026-05-01T11:48:08.999Z</time></trkpt><trkpt lat="39.550944438340835" lon="8.557869098340301"><ele>303.0</ele><time>2026-05-01T11:48:09.999Z</time></trkpt><trkpt lat="39.55100034444794" lon="8.557966609293581"><ele>303.0</ele><time>2026-05-01T11:48:10.999Z</time></trkpt><trkpt lat="39.551072091036325" lon="8.558039246052413"><ele>303.0</ele><time>2026-05-01T11:48:11.999Z</time></trkpt><trkpt lat="39.55114573663574" lon="8.558098886733237"><ele>302.5</ele><time>2026-05-01T11:48:12.999Z</time></trkpt><trkpt lat="39.55120681543583" lon="8.558150018890077"><ele>302.0</ele><time>2026-05-01T11:48:13.999Z</time></trkpt><trkpt lat="39.55126656100024" lon="8.558193925328286"><ele>301.5</ele><time>2026-05-01T11:48:14.999Z</time></trkpt><trkpt lat="39.55136102439897" lon="8.558277796866324"><ele>301.0</ele><time>2026-05-01T11:48:16.999Z</time></trkpt><trkpt lat="39.551427408654526" lon="8.558308464223794"><ele>300.5</ele><time>2026-05-01T11:48:18.999Z</time></trkpt><trkpt lat="39.55147218403087" lon="8.558371896689689"><ele>300.0</ele><time>2026-05-01T11:48:20.999Z</time></trkpt><trkpt lat="39.551549098658136" lon="8.55845190613661"><ele>300.0</ele><time>2026-05-01T11:48:22.999Z</time></trkpt><trkpt lat="39.551616807936455" lon="8.558529164751137"><ele>300.0</ele><time>2026-05-01T11:48:24.999Z</time></trkpt><trkpt lat="39.55169264634658" lon="8.558599781195358"><ele>300.0</ele><time>2026-05-01T11:48:26.999Z</time></trkpt><trkpt lat="39.551760767355916" lon="8.55874181558136"><ele>300.0</ele><time>2026-05-01T11:48:28.999Z</time></trkpt><trkpt lat="39.55179224118097" lon="8.558861683730573"><ele>300.0</ele><time>2026-05-01T11:48:29.999Z</time></trkpt><trkpt lat="39.55180744750489" lon="8.559002992805876"><ele>301.0</ele><time>2026-05-01T11:48:30.999Z</time></trkpt><trkpt lat="39.55180641933479" lon="8.559152600489865"><ele>302.0</ele><time>2026-05-01T11:48:31.999Z</time></trkpt><trkpt lat="39.55179927235177" lon="8.559303734479563"><ele>303.0</ele><time>2026-05-01T11:48:32.999Z</time></trkpt><trkpt lat="39.55178619554885" lon="8.559454262252045"><ele>304.0</ele><time>2026-05-01T11:48:33.999Z</time></trkpt><trkpt lat="39.55177149941612" lon="8.55959230903828"><ele>304.0</ele><time>2026-05-01T11:48:34.999Z</time></trkpt><trkpt lat="39.55175005390305" lon="8.559717023559992"><ele>304.0</ele><time>2026-05-01T11:48:35.999Z</time></trkpt><trkpt lat="39.55171711058299" lon="8.559820128356025"><ele>304.0</ele><time>2026-05-01T11:48:36.999Z</time></trkpt><trkpt lat="39.551685916527425" lon="8.559912065975382"><ele>304.0</ele><time>2026-05-01T11:48:37.999Z</time></trkpt><trkpt lat="39.551669235800134" lon="8.560005286281362"><ele>304.0</ele><time>2026-05-01T11:48:38.998Z</time></trkpt><trkpt lat="39.55167820367729" lon="8.560099818027487"><ele>304.0</ele><time>2026-05-01T11:48:39.998Z</time></trkpt><trkpt lat="39.55170830112856" lon="8.560192780472926"><ele>304.0</ele><time>2026-05-01T11:48:40.998Z</time></trkpt><trkpt lat="39.551761828282494" lon="8.56026328376709"><ele>304.0</ele><time>2026-05-01T11:48:41.998Z</time></trkpt><trkpt lat="39.551836187092874" lon="8.560300293704948"><ele>304.0</ele><time>2026-05-01T11:48:42.998Z</time></trkpt><trkpt lat="39.55192522968173" lon="8.560303739678744"><ele>304.0</ele><time>2026-05-01T11:48:43.998Z</time></trkpt><trkpt lat="39.55201096348014" lon="8.560292995704662"><ele>304.0</ele><time>2026-05-01T11:48:44.998Z</time></trkpt><trkpt lat="39.55210172425403" lon="8.560270732971498"><ele>304.0</ele><time>2026-05-01T11:48:45.998Z</time></trkpt><trkpt lat="39.55219272647738" lon="8.560249513456945"><ele>303.5</ele><time>2026-05-01T11:48:46.998Z</time></trkpt><trkpt lat="39.55227635757552" lon="8.56025460191877"><ele>303.0</ele><time>2026-05-01T11:48:47.998Z</time></trkpt><trkpt lat="39.55234387403099" lon="8.56029027294939"><ele>302.5</ele><time>2026-05-01T11:48:48.998Z</time></trkpt><trkpt lat="39.55240782647742" lon="8.560353405920646"><ele>302.0</ele><time>2026-05-01T11:48:49.998Z</time></trkpt><trkpt lat="39.55244151907538" lon="8.560460531740626"><ele>301.5</ele><time>2026-05-01T11:48:51Z</time></trkpt><trkpt lat="39.55247225668018" lon="8.56057416034829"><ele>301.0</ele><time>2026-05-01T11:48:52Z</time></trkpt><trkpt lat="39.552490910305075" lon="8.560694705080452"><ele>301.0</ele><time>2026-05-01T11:48:53Z</time></trkpt><trkpt lat="39.55251030011739" lon="8.56081331877309"><ele>301.0</ele><time>2026-05-01T11:48:54Z</time></trkpt><trkpt lat="39.5524893689771" lon="8.56092726840924"><ele>301.0</ele><time>2026-05-01T11:48:55Z</time></trkpt><trkpt lat="39.5524456187519" lon="8.5610358565159"><ele>301.0</ele><time>2026-05-01T11:48:56Z</time></trkpt><trkpt lat="39.552376631500586" lon="8.561137554226404"><ele>301.0</ele><time>2026-05-01T11:48:57Z</time></trkpt><trkpt lat="39.55232163732462" lon="8.561272063460283"><ele>302.75</ele><time>2026-05-01T11:48:58Z</time></trkpt><trkpt lat="39.55222782136998" lon="8.561385814830983"><ele>304.5</ele><time>2026-05-01T11:48:59Z</time></trkpt><trkpt lat="39.55214428103756" lon="8.561514181026482"><ele>306.25</ele><time>2026-05-01T11:49:00Z</time></trkpt><trkpt lat="39.55208020756801" lon="8.561631355989805"><ele>308.0</ele><time>2026-05-01T11:49:01Z</time></trkpt><trkpt lat="39.55205451423568" lon="8.561742802583503"><ele>308.0</ele><time>2026-05-01T11:49:02Z</time></trkpt><trkpt lat="39.55203644935097" lon="8.561832723936298"><ele>308.0</ele><time>2026-05-01T11:49:03Z</time></trkpt><trkpt lat="39.5520795452991" lon="8.561918395165998"><ele>308.0</ele><time>2026-05-01T11:49:04Z</time></trkpt><trkpt lat="39.55213116881798" lon="8.561994817563848"><ele>308.0</ele><time>2026-05-01T11:49:05Z</time></trkpt><trkpt lat="39.55219989129357" lon="8.562066981915901"><ele>308.0</ele><time>2026-05-01T11:49:06Z</time></trkpt><trkpt lat="39.55229097449692" lon="8.562125775655861"><ele>308.0</ele><time>2026-05-01T11:49:07Z</time></trkpt><trkpt lat="39.55239564383656" lon="8.562179339322787"><ele>311.2</ele><time>2026-05-01T11:49:08Z</time></trkpt><trkpt lat="39.55249924072578" lon="8.562219417352416"><ele>314.4</ele><time>2026-05-01T11:49:09Z</time></trkpt><trkpt lat="39.552609759047016" lon="8.562230191385051"><ele>317.59999999999997</ele><time>2026-05-01T11:49:10Z</time></trkpt><trkpt lat="39.55272156915262" lon="8.562206774061147"><ele>320.8</ele><time>2026-05-01T11:49:11Z</time></trkpt><trkpt lat="39.552830779903516" lon="8.562155925696294"><ele>324.0</ele><time>2026-05-01T11:49:12Z</time></trkpt><trkpt lat="39.55294363373023" lon="8.562104434099314"><ele>324.0</ele><time>2026-05-01T11:49:13Z</time></trkpt><trkpt lat="39.55307003315343" lon="8.562080710897304"><ele>324.0</ele><time>2026-05-01T11:49:14Z</time></trkpt><trkpt lat="39.55319535115819" lon="8.562071258967352"><ele>324.0</ele><time>2026-05-01T11:49:15Z</time></trkpt><trkpt lat="39.553306455625716" lon="8.562078947711932"><ele>324.0</ele><time>2026-05-01T11:49:16Z</time></trkpt><trkpt lat="39.55339691805992" lon="8.562114917761958"><ele>324.0</ele><time>2026-05-01T11:49:17Z</time></trkpt><trkpt lat="39.55346079720047" lon="8.562178921238033"><ele>324.0</ele><time>2026-05-01T11:49:18Z</time></trkpt><trkpt lat="39.55349336943795" lon="8.562259511869094"><ele>324.0</ele><time>2026-05-01T11:49:19Z</time></trkpt><trkpt lat="39.55350257751924" lon="8.562361254455958"><ele>324.0</ele><time>2026-05-01T11:49:20Z</time></trkpt><trkpt lat="39.55345964722951" lon="8.562482352774612"><ele>324.0</ele><time>2026-05-01T11:49:20.999Z</time></trkpt><trkpt lat="39.553449479611885" lon="8.562624332516748"><ele>324.0</ele><time>2026-05-01T11:49:21.999Z</time></trkpt><trkpt lat="39.553444438089706" lon="8.56277444427876"><ele>320.75</ele><time>2026-05-01T11:49:22.999Z</time></trkpt><trkpt lat="39.553466915214685" lon="8.562929682844786"><ele>317.5</ele><time>2026-05-01T11:49:23.999Z</time></trkpt><trkpt lat="39.553536794031864" lon="8.563062405033945"><ele>314.25</ele><time>2026-05-01T11:49:24.999Z</time></trkpt><trkpt lat="39.55362566256031" lon="8.56316453641532"><ele>311.0</ele><time>2026-05-01T11:49:25.999Z</time></trkpt><trkpt lat="39.553708783205" lon="8.563265855406959"><ele>311.0</ele><time>2026-05-01T11:49:26.999Z</time></trkpt><trkpt lat="39.55376780217626" lon="8.563387643820766"><ele>311.0</ele><time>2026-05-01T11:49:27.999Z</time></trkpt><trkpt lat="39.55381239430307" lon="8.563498167090156"><ele>311.0</ele><time>2026-05-01T11:49:28.999Z</time></trkpt><trkpt lat="39.55383950855808" lon="8.563615135367701"><ele>311.0</ele><time>2026-05-01T11:49:29.999Z</time></trkpt><trkpt lat="39.553841612854065" lon="8.563739115541996"><ele>311.0</ele><time>2026-05-01T11:49:30.999Z</time></trkpt><trkpt lat="39.55386016527631" lon="8.563888068702559"><ele>312.6</ele><time>2026-05-01T11:49:31.999Z</time></trkpt><trkpt lat="39.55389789877912" lon="8.564032366418074"><ele>314.20000000000005</ele><time>2026-05-01T11:49:32.999Z</time></trkpt><trkpt lat="39.55390490638278" lon="8.564164582321343"><ele>315.79999999999995</ele><time>2026-05-01T11:49:33.999Z</time></trkpt><trkpt lat="39.55391186553511" lon="8.564257860236479"><ele>317.4</ele><time>2026-05-01T11:49:34.999Z</time></trkpt><trkpt lat="39.553848795496336" lon="8.564376157610582"><ele>319.0</ele><time>2026-05-01T11:49:36.999Z</time></trkpt><trkpt lat="39.55376229627663" lon="8.564404158275435"><ele>324.4</ele><time>2026-05-01T11:49:37.999Z</time></trkpt><trkpt lat="39.55368180976547" lon="8.564464182639588"><ele>329.79999999999995</ele><time>2026-05-01T11:49:38.999Z</time></trkpt><trkpt lat="39.55359235612681" lon="8.564530812236695"><ele>335.20000000000005</ele><time>2026-05-01T11:49:39.999Z</time></trkpt><trkpt lat="39.553487233751525" lon="8.564604081046305"><ele>340.6</ele><time>2026-05-01T11:49:40.999Z</time></trkpt><trkpt lat="39.55340367246954" lon="8.56469421383192"><ele>346.0</ele><time>2026-05-01T11:49:41.999Z</time></trkpt><trkpt lat="39.55332682056784" lon="8.564773151442798"><ele>346.0</ele><time>2026-05-01T11:49:42.999Z</time></trkpt><trkpt lat="39.55327262312433" lon="8.564861307130805"><ele>346.0</ele><time>2026-05-01T11:49:43.999Z</time></trkpt><trkpt lat="39.55323313281969" lon="8.564958571583512"><ele>346.0</ele><time>2026-05-01T11:49:44.999Z</time></trkpt><trkpt lat="39.55320482989717" lon="8.565059271937246"><ele>346.0</ele><time>2026-05-01T11:49:45.999Z</time></trkpt><trkpt lat="39.55317140060759" lon="8.565153196972926"><ele>346.0</ele><time>2026-05-01T11:49:46.999Z</time></trkpt><trkpt lat="39.55316348966395" lon="8.56525321180203"><ele>346.0</ele><time>2026-05-01T11:49:47.999Z</time></trkpt><trkpt lat="39.55318963850264" lon="8.565350420347666"><ele>348.5</ele><time>2026-05-01T11:49:48.999Z</time></trkpt><trkpt lat="39.553219100673225" lon="8.565428324185119"><ele>351.0</ele><time>2026-05-01T11:49:49.999Z</time></trkpt><trkpt lat="39.55327493881237" lon="8.565484639828108"><ele>353.5</ele><time>2026-05-01T11:49:50.999Z</time></trkpt><trkpt lat="39.55334909995121" lon="8.565508528292849"><ele>356.0</ele><time>2026-05-01T11:49:51.999Z</time></trkpt><trkpt lat="39.55345387886856" lon="8.565498783005452"><ele>358.5</ele><time>2026-05-01T11:49:53.999Z</time></trkpt><trkpt lat="39.55352552342755" lon="8.565488706428102"><ele>361.0</ele><time>2026-05-01T11:49:54.999Z</time></trkpt><trkpt lat="39.5536135808534" lon="8.565478961724022"><ele>361.0</ele><time>2026-05-01T11:49:55.999Z</time></trkpt><trkpt lat="39.55370046506202" lon="8.565471180499094"><ele>361.0</ele><time>2026-05-01T11:49:56.999Z</time></trkpt><trkpt lat="39.55378866021147" lon="8.565460056287172"><ele>361.0</ele><time>2026-05-01T11:49:57.999Z</time></trkpt><trkpt lat="39.55387554740312" lon="8.565460196631449"><ele>361.0</ele><time>2026-05-01T11:49:58.999Z</time></trkpt><trkpt lat="39.55396491599682" lon="8.565481831774028"><ele>361.0</ele><time>2026-05-01T11:49:59.999Z</time></trkpt><trkpt lat="39.55405244891824" lon="8.56551722404443"><ele>361.0</ele><time>2026-05-01T11:50:00.999Z</time></trkpt><trkpt lat="39.554136508803566" lon="8.56556344719578"><ele>359.8</ele><time>2026-05-01T11:50:01.999Z</time></trkpt><trkpt lat="39.554216830949606" lon="8.565626536314051"><ele>358.6</ele><time>2026-05-01T11:50:02.999Z</time></trkpt><trkpt lat="39.55428850452486" lon="8.565713502144867"><ele>357.4</ele><time>2026-05-01T11:50:03.999Z</time></trkpt><trkpt lat="39.55434987240951" lon="8.565813368649119"><ele>356.2</ele><time>2026-05-01T11:50:04.999Z</time></trkpt><trkpt lat="39.55437867822151" lon="8.565934701656813"><ele>355.0</ele><time>2026-05-01T11:50:05.999Z</time></trkpt><trkpt lat="39.554428487293876" lon="8.566041734187012"><ele>355.0</ele><time>2026-05-01T11:50:06.999Z</time></trkpt><trkpt lat="39.55444282047493" lon="8.566166875054366"><ele>355.0</ele><time>2026-05-01T11:50:07.999Z</time></trkpt><trkpt lat="39.55444030253977" lon="8.566300761794324"><ele>355.0</ele><time>2026-05-01T11:50:08.999Z</time></trkpt><trkpt lat="39.55446085667208" lon="8.566424213508142"><ele>355.0</ele><time>2026-05-01T11:50:09.999Z</time></trkpt><trkpt lat="39.55448820452839" lon="8.566545237758884"><ele>355.0</ele><time>2026-05-01T11:50:10.999Z</time></trkpt><trkpt lat="39.554498573079556" lon="8.566668702059271"><ele>354.6</ele><time>2026-05-01T11:50:11.999Z</time></trkpt><trkpt lat="39.55451934719016" lon="8.566798125698586"><ele>354.2</ele><time>2026-05-01T11:50:12.999Z</time></trkpt><trkpt lat="39.55453896622751" lon="8.566932298306373"><ele>353.79999999999995</ele><time>2026-05-01T11:50:13.999Z</time></trkpt><trkpt lat="39.554552891408385" lon="8.567061387441544"><ele>353.4</ele><time>2026-05-01T11:50:14.999Z</time></trkpt><trkpt lat="39.554559280721264" lon="8.567186594761381"><ele>353.0</ele><time>2026-05-01T11:50:15.999Z</time></trkpt><trkpt lat="39.554556366647695" lon="8.567308013589448"><ele>353.0</ele><time>2026-05-01T11:50:16.999Z</time></trkpt><trkpt lat="39.55454358846684" lon="8.567433537815242"><ele>353.0</ele><time>2026-05-01T11:50:17.999Z</time></trkpt><trkpt lat="39.554511164572325" lon="8.567558582907266"><ele>353.0</ele><time>2026-05-01T11:50:18.999Z</time></trkpt><trkpt lat="39.55449570344325" lon="8.567684539453019"><ele>353.0</ele><time>2026-05-01T11:50:19.999Z</time></trkpt><trkpt lat="39.554461318607956" lon="8.56780380318948"><ele>353.0</ele><time>2026-05-01T11:50:20.999Z</time></trkpt><trkpt lat="39.554429576263786" lon="8.567943756942414"><ele>354.79999999999995</ele><time>2026-05-01T11:50:21.999Z</time></trkpt><trkpt lat="39.554410856251025" lon="8.568077563033576"><ele>356.6</ele><time>2026-05-01T11:50:22.999Z</time></trkpt><trkpt lat="39.5544057720493" lon="8.568194087690397"><ele>358.4</ele><time>2026-05-01T11:50:23.999Z</time></trkpt><trkpt lat="39.55441880044827" lon="8.56831538725476"><ele>360.20000000000005</ele><time>2026-05-01T11:50:24.999Z</time></trkpt><trkpt lat="39.554469203558874" lon="8.5684342766621"><ele>362.0</ele><time>2026-05-01T11:50:25.999Z</time></trkpt><trkpt lat="39.55454021233562" lon="8.568546344667674"><ele>362.0</ele><time>2026-05-01T11:50:26.999Z</time></trkpt><trkpt lat="39.554614225526684" lon="8.56866437861489"><ele>362.0</ele><time>2026-05-01T11:50:27.999Z</time></trkpt><trkpt lat="39.55469152760322" lon="8.56878605841989"><ele>362.0</ele><time>2026-05-01T11:50:28.999Z</time></trkpt><trkpt lat="39.554771763507354" lon="8.568906007168696"><ele>362.0</ele><time>2026-05-01T11:50:29.999Z</time></trkpt><trkpt lat="39.55486009704663" lon="8.569028147438493"><ele>365.0</ele><time>2026-05-01T11:50:30.999Z</time></trkpt><trkpt lat="39.554950734312726" lon="8.56915302219455"><ele>368.0</ele><time>2026-05-01T11:50:31.999Z</time></trkpt><trkpt lat="39.55504481950559" lon="8.569280621095167"><ele>371.0</ele><time>2026-05-01T11:50:32.999Z</time></trkpt><trkpt lat="39.55513459545504" lon="8.56944185997639"><ele>374.0</ele><time>2026-05-01T11:50:33.999Z</time></trkpt><trkpt lat="39.55522648742114" lon="8.569551585875324"><ele>374.0</ele><time>2026-05-01T11:50:34.999Z</time></trkpt><trkpt lat="39.55530133408471" lon="8.569680545753743"><ele>374.0</ele><time>2026-05-01T11:50:35.999Z</time></trkpt><trkpt lat="39.55538253220216" lon="8.569798868971024"><ele>374.0</ele><time>2026-05-01T11:50:36.999Z</time></trkpt><trkpt lat="39.555452778116674" lon="8.569911076352446"><ele>374.0</ele><time>2026-05-01T11:50:37.999Z</time></trkpt><trkpt lat="39.555518446519805" lon="8.570002321732208"><ele>374.0</ele><time>2026-05-01T11:50:38.999Z</time></trkpt><trkpt lat="39.55556535423095" lon="8.570064521410153"><ele>374.0</ele><time>2026-05-01T11:50:39.999Z</time></trkpt><trkpt lat="39.55550093426588" lon="8.56996779051686"><ele>374.0</ele><time>2026-05-01T11:50:46.998Z</time></trkpt><trkpt lat="39.55546293440599" lon="8.569878841899133"><ele>374.0</ele><time>2026-05-01T11:50:47.998Z</time></trkpt><trkpt lat="39.5554954649211" lon="8.569740827080304"><ele>374.0</ele><time>2026-05-01T11:50:49.998Z</time></trkpt><trkpt lat="39.55557316921757" lon="8.569657771302742"><ele>374.0</ele><time>2026-05-01T11:50:50.998Z</time></trkpt><trkpt lat="39.555660389858566" lon="8.569574822258586"><ele>374.0</ele><time>2026-05-01T11:50:51.998Z</time></trkpt><trkpt lat="39.555739731314" lon="8.569469531882346"><ele>374.0</ele><time>2026-05-01T11:50:52.998Z</time></trkpt><trkpt lat="39.55580152546313" lon="8.569346444576185"><ele>374.0</ele><time>2026-05-01T11:50:53.998Z</time></trkpt><trkpt lat="39.55583623125503" lon="8.569191673919141"><ele>374.2</ele><time>2026-05-01T11:50:54.998Z</time></trkpt><trkpt lat="39.55586949035645" lon="8.569048381559424"><ele>374.4</ele><time>2026-05-01T11:50:55.998Z</time></trkpt><trkpt lat="39.555915694438205" lon="8.568926920546469"><ele>374.6</ele><time>2026-05-01T11:50:57Z</time></trkpt><trkpt lat="39.55596904019112" lon="8.568826508596683"><ele>374.8</ele><time>2026-05-01T11:50:58Z</time></trkpt><trkpt lat="39.556050434118085" lon="8.568770520692107"><ele>375.0</ele><time>2026-05-01T11:50:59Z</time></trkpt><trkpt lat="39.55614724491708" lon="8.568778336808574"><ele>373.75</ele><time>2026-05-01T11:51:00Z</time></trkpt><trkpt lat="39.556254380776515" lon="8.568829057306688"><ele>372.5</ele><time>2026-05-01T11:51:01Z</time></trkpt><trkpt lat="39.556309756594246" lon="8.568968692853396"><ele>371.25</ele><time>2026-05-01T11:51:02Z</time></trkpt><trkpt lat="39.556349659597636" lon="8.569131622184827"><ele>370.0</ele><time>2026-05-01T11:51:03Z</time></trkpt><trkpt lat="39.55642124499251" lon="8.569296923751683"><ele>370.0</ele><time>2026-05-01T11:51:04Z</time></trkpt><trkpt lat="39.556497479491895" lon="8.569441512417786"><ele>370.0</ele><time>2026-05-01T11:51:05Z</time></trkpt><trkpt lat="39.55656429201849" lon="8.569584161209903"><ele>370.0</ele><time>2026-05-01T11:51:06Z</time></trkpt><trkpt lat="39.55663846271574" lon="8.569723707214788"><ele>370.0</ele><time>2026-05-01T11:51:07Z</time></trkpt><trkpt lat="39.55670932191201" lon="8.569864034020966"><ele>370.6</ele><time>2026-05-01T11:51:08Z</time></trkpt><trkpt lat="39.55677910820833" lon="8.569954210814414"><ele>371.2</ele><time>2026-05-01T11:51:09Z</time></trkpt><trkpt lat="39.556861413855486" lon="8.570051352673127"><ele>371.79999999999995</ele><time>2026-05-01T11:51:10Z</time></trkpt><trkpt lat="39.556941442113164" lon="8.57014860583483"><ele>372.4</ele><time>2026-05-01T11:51:11Z</time></trkpt><trkpt lat="39.55699731994469" lon="8.570227875514313"><ele>373.0</ele><time>2026-05-01T11:51:12Z</time></trkpt><trkpt lat="39.5570435858817" lon="8.570331306813914"><ele>372.2</ele><time>2026-05-01T11:51:14Z</time></trkpt><trkpt lat="39.55708267895943" lon="8.570421314340372"><ele>371.4</ele><time>2026-05-01T11:51:17Z</time></trkpt><trkpt lat="39.55709704843139" lon="8.570522849120108"><ele>370.59999999999997</ele><time>2026-05-01T11:51:18.999Z</time></trkpt><trkpt lat="39.55711006035696" lon="8.570704860680285"><ele>369.79999999999995</ele><time>2026-05-01T11:51:20.999Z</time></trkpt><trkpt lat="39.5571096397918" lon="8.570856530494263"><ele>369.0</ele><time>2026-05-01T11:51:21.999Z</time></trkpt><trkpt lat="39.557123798849254" lon="8.57103813610231"><ele>369.0</ele><time>2026-05-01T11:51:22.999Z</time></trkpt><trkpt lat="39.557106394528745" lon="8.571178292826403"><ele>369.0</ele><time>2026-05-01T11:51:23.999Z</time></trkpt><trkpt lat="39.557030621981596" lon="8.571262776153167"><ele>369.0</ele><time>2026-05-01T11:51:24.999Z</time></trkpt><trkpt lat="39.556946918834235" lon="8.571331087923278"><ele>369.0</ele><time>2026-05-01T11:51:25.999Z</time></trkpt><trkpt lat="39.55685082893367" lon="8.571364928105732"><ele>369.0</ele><time>2026-05-01T11:51:26.999Z</time></trkpt><trkpt lat="39.55673051890304" lon="8.571320772160535"><ele>369.6</ele><time>2026-05-01T11:51:27.999Z</time></trkpt><trkpt lat="39.55664847823613" lon="8.571217532304557"><ele>370.2</ele><time>2026-05-01T11:51:28.999Z</time></trkpt><trkpt lat="39.55655368116202" lon="8.571167754921946"><ele>370.8</ele><time>2026-05-01T11:51:29.999Z</time></trkpt><trkpt lat="39.55647646209706" lon="8.571158022462184"><ele>371.40000000000003</ele><time>2026-05-01T11:51:30.999Z</time></trkpt><trkpt lat="39.556372640541525" lon="8.571220594239275"><ele>372.0</ele><time>2026-05-01T11:51:31.999Z</time></trkpt><trkpt lat="39.556263939085625" lon="8.571339626539322"><ele>372.25</ele><time>2026-05-01T11:51:32.999Z</time></trkpt><trkpt lat="39.55619509153886" lon="8.57149454942261"><ele>372.5</ele><time>2026-05-01T11:51:33.999Z</time></trkpt><trkpt lat="39.55614194734554" lon="8.571643881886333"><ele>372.75</ele><time>2026-05-01T11:51:34.999Z</time></trkpt><trkpt lat="39.5560901737817" lon="8.571759423672297"><ele>373.0</ele><time>2026-05-01T11:51:35.999Z</time></trkpt><trkpt lat="39.55606737180042" lon="8.571891076451724"><ele>371.75</ele><time>2026-05-01T11:51:36.999Z</time></trkpt><trkpt lat="39.55614301393134" lon="8.572066042164357"><ele>370.5</ele><time>2026-05-01T11:51:37.999Z</time></trkpt><trkpt lat="39.55618210654688" lon="8.572240711449737"><ele>369.25</ele><time>2026-05-01T11:51:38.999Z</time></trkpt><trkpt lat="39.55622309964408" lon="8.572409207979016"><ele>368.0</ele><time>2026-05-01T11:51:39.999Z</time></trkpt><trkpt lat="39.556233276222734" lon="8.5725856555596"><ele>360.0</ele><time>2026-05-01T11:51:40.999Z</time></trkpt><trkpt lat="39.55624291718188" lon="8.572788376709097"><ele>352.0</ele><time>2026-05-01T11:51:41.999Z</time></trkpt><trkpt lat="39.55623169838065" lon="8.572979209759158"><ele>344.0</ele><time>2026-05-01T11:51:42.999Z</time></trkpt><trkpt lat="39.556212347448266" lon="8.5731683330858"><ele>347.33333333333337</ele><time>2026-05-01T11:51:43.999Z</time></trkpt><trkpt lat="39.55618074384719" lon="8.573359812811319"><ele>350.6666666666667</ele><time>2026-05-01T11:51:44.999Z</time></trkpt><trkpt lat="39.55614312498974" lon="8.57355634979606"><ele>354.0</ele><time>2026-05-01T11:51:45.999Z</time></trkpt><trkpt lat="39.55610146312486" lon="8.573734085174266"><ele>354.0</ele><time>2026-05-01T11:51:46.999Z</time></trkpt><trkpt lat="39.556050331871155" lon="8.573908130592654"><ele>354.0</ele><time>2026-05-01T11:51:47.999Z</time></trkpt><trkpt lat="39.55603798045309" lon="8.574082801530354"><ele>354.0</ele><time>2026-05-01T11:51:48.999Z</time></trkpt><trkpt lat="39.55609229135265" lon="8.574252823737266"><ele>354.0</ele><time>2026-05-01T11:51:49.999Z</time></trkpt><trkpt lat="39.55615769471007" lon="8.57441766626068"><ele>351.25</ele><time>2026-05-01T11:51:50.999Z</time></trkpt><trkpt lat="39.5561755936926" lon="8.5745819695521"><ele>348.5</ele><time>2026-05-01T11:51:51.999Z</time></trkpt><trkpt lat="39.55617043813785" lon="8.574712205873343"><ele>345.75</ele><time>2026-05-01T11:51:52.999Z</time></trkpt><trkpt lat="39.556086441736696" lon="8.57485776111173"><ele>343.0</ele><time>2026-05-01T11:51:53.999Z</time></trkpt><trkpt lat="39.555989537197455" lon="8.574984384195309"><ele>343.0</ele><time>2026-05-01T11:51:54.999Z</time></trkpt><trkpt lat="39.555884848102345" lon="8.575129228686576"><ele>343.0</ele><time>2026-05-01T11:51:55.999Z</time></trkpt><trkpt lat="39.55576904936515" lon="8.5752426600508"><ele>343.0</ele><time>2026-05-01T11:51:56.999Z</time></trkpt><trkpt lat="39.55566493812561" lon="8.575391609456656"><ele>338.3333333333333</ele><time>2026-05-01T11:51:57.999Z</time></trkpt><trkpt lat="39.555537529519185" lon="8.575513844390532"><ele>333.6666666666667</ele><time>2026-05-01T11:51:58.999Z</time></trkpt><trkpt lat="39.55541523628297" lon="8.575632737913171"><ele>329.0</ele><time>2026-05-01T11:51:59.999Z</time></trkpt><trkpt lat="39.55529335653926" lon="8.575733871073867"><ele>329.0</ele><time>2026-05-01T11:52:00.999Z</time></trkpt><trkpt lat="39.555176084108446" lon="8.575813730946473"><ele>329.0</ele><time>2026-05-01T11:52:01.999Z</time></trkpt><trkpt lat="39.555068501734304" lon="8.575841798033943"><ele>329.0</ele><time>2026-05-01T11:52:02.999Z</time></trkpt><trkpt lat="39.55499543829804" lon="8.575893517476"><ele>329.0</ele><time>2026-05-01T11:52:03.999Z</time></trkpt><trkpt lat="39.554980780680445" lon="8.575985203975744"><ele>329.0</ele><time>2026-05-01T11:52:04.999Z</time></trkpt><trkpt lat="39.55502205060768" lon="8.576075431336342"><ele>329.0</ele><time>2026-05-01T11:52:05.999Z</time></trkpt><trkpt lat="39.555089070014546" lon="8.57612677109563"><ele>329.0</ele><time>2026-05-01T11:52:06.999Z</time></trkpt><trkpt lat="39.555187684182094" lon="8.576051093231046"><ele>329.0</ele><time>2026-05-01T11:52:07.999Z</time></trkpt><trkpt lat="39.5552790498032" lon="8.575960761913613"><ele>329.0</ele><time>2026-05-01T11:52:08.999Z</time></trkpt><trkpt lat="39.55539251135388" lon="8.575924357656504"><ele>329.0</ele><time>2026-05-01T11:52:09.999Z</time></trkpt><trkpt lat="39.55552418206903" lon="8.575896667019641"><ele>327.0</ele><time>2026-05-01T11:52:10.999Z</time></trkpt><trkpt lat="39.55566066717322" lon="8.575862400883421"><ele>325.0</ele><time>2026-05-01T11:52:11.999Z</time></trkpt><trkpt lat="39.55580732486299" lon="8.575833838600955"><ele>323.0</ele><time>2026-05-01T11:52:12.999Z</time></trkpt><trkpt lat="39.555944961481" lon="8.575777996399834"><ele>321.0</ele><time>2026-05-01T11:52:13.999Z</time></trkpt><trkpt lat="39.55607855239509" lon="8.575686031169102"><ele>321.0</ele><time>2026-05-01T11:52:14.999Z</time></trkpt><trkpt lat="39.556209491260056" lon="8.575567491741893"><ele>321.0</ele><time>2026-05-01T11:52:15.999Z</time></trkpt><trkpt lat="39.556329376904465" lon="8.575464759791014"><ele>321.0</ele><time>2026-05-01T11:52:16.999Z</time></trkpt><trkpt lat="39.55643974640712" lon="8.575367084764894"><ele>321.0</ele><time>2026-05-01T11:52:17.999Z</time></trkpt><trkpt lat="39.55654513890073" lon="8.575254543892857"><ele>321.0</ele><time>2026-05-01T11:52:18.999Z</time></trkpt><trkpt lat="39.55663872112437" lon="8.57511614786325"><ele>321.0</ele><time>2026-05-01T11:52:19.999Z</time></trkpt><trkpt lat="39.55669954849578" lon="8.57494022733354"><ele>321.0</ele><time>2026-05-01T11:52:20.999Z</time></trkpt><trkpt lat="39.556729921489904" lon="8.57475499658303"><ele>321.0</ele><time>2026-05-01T11:52:21.999Z</time></trkpt><trkpt lat="39.556750230844955" lon="8.574587694702043"><ele>322.20000000000005</ele><time>2026-05-01T11:52:22.999Z</time></trkpt><trkpt lat="39.5567972310561" lon="8.574455740064224"><ele>323.40000000000003</ele><time>2026-05-01T11:52:23.999Z</time></trkpt><trkpt lat="39.55686244509654" lon="8.574393342981663"><ele>324.6</ele><time>2026-05-01T11:52:24.999Z</time></trkpt><trkpt lat="39.556950706198144" lon="8.574387623075799"><ele>325.8</ele><time>2026-05-01T11:52:25.999Z</time></trkpt><trkpt lat="39.557032728746535" lon="8.57444682613042"><ele>327.0</ele><time>2026-05-01T11:52:26.999Z</time></trkpt><trkpt lat="39.557080031212486" lon="8.57456112661477"><ele>321.75</ele><time>2026-05-01T11:52:27.999Z</time></trkpt><trkpt lat="39.5570859900405" lon="8.574733337428547"><ele>316.5</ele><time>2026-05-01T11:52:28.999Z</time></trkpt><trkpt lat="39.55708224935242" lon="8.574914014272824"><ele>311.25</ele><time>2026-05-01T11:52:29.999Z</time></trkpt><trkpt lat="39.55708091054393" lon="8.575080887555401"><ele>306.0</ele><time>2026-05-01T11:52:30.999Z</time></trkpt><trkpt lat="39.55706437627535" lon="8.575294116002844"><ele>307.6666666666667</ele><time>2026-05-01T11:52:31.999Z</time></trkpt><trkpt lat="39.55702870403886" lon="8.575489548596007"><ele>309.33333333333337</ele><time>2026-05-01T11:52:32.999Z</time></trkpt><trkpt lat="39.556964885493535" lon="8.575684222854903"><ele>311.0</ele><time>2026-05-01T11:52:33.999Z</time></trkpt><trkpt lat="39.55684580889761" lon="8.575843998428745"><ele>311.0</ele><time>2026-05-01T11:52:34.999Z</time></trkpt><trkpt lat="39.55671712103175" lon="8.575965111374211"><ele>311.0</ele><time>2026-05-01T11:52:35.999Z</time></trkpt><trkpt lat="39.55658788195687" lon="8.576067425628688"><ele>311.0</ele><time>2026-05-01T11:52:36.999Z</time></trkpt><trkpt lat="39.556469954413686" lon="8.576169442133342"><ele>310.33333333333337</ele><time>2026-05-01T11:52:37.999Z</time></trkpt><trkpt lat="39.55639083348908" lon="8.576340213819252"><ele>309.6666666666667</ele><time>2026-05-01T11:52:38.999Z</time></trkpt><trkpt lat="39.556326848270295" lon="8.576539630678527"><ele>309.0</ele><time>2026-05-01T11:52:39.999Z</time></trkpt><trkpt lat="39.55624774880069" lon="8.57670874467508"><ele>305.3333333333333</ele><time>2026-05-01T11:52:40.999Z</time></trkpt><trkpt lat="39.55614126985219" lon="8.576843780289035"><ele>301.66666666666663</ele><time>2026-05-01T11:52:41.998Z</time></trkpt><trkpt lat="39.55604512999434" lon="8.576958741087381"><ele>298.0</ele><time>2026-05-01T11:52:42.998Z</time></trkpt><trkpt lat="39.555999025368195" lon="8.577205126121846"><ele>295.8</ele><time>2026-05-01T11:52:43.998Z</time></trkpt><trkpt lat="39.55600420113473" lon="8.577385395827445"><ele>293.6</ele><time>2026-05-01T11:52:44.998Z</time></trkpt><trkpt lat="39.55603447446547" lon="8.57752342835423"><ele>291.4</ele><time>2026-05-01T11:52:45.998Z</time></trkpt><trkpt lat="39.55602336872102" lon="8.577642767862185"><ele>289.2</ele><time>2026-05-01T11:52:46.998Z</time></trkpt><trkpt lat="39.555928661624115" lon="8.577667826494771"><ele>287.0</ele><time>2026-05-01T11:52:48.998Z</time></trkpt><trkpt lat="39.55586242502037" lon="8.577589080913814"><ele>287.0</ele><time>2026-05-01T11:52:49.998Z</time></trkpt><trkpt lat="39.55585298349435" lon="8.577448727769495"><ele>287.0</ele><time>2026-05-01T11:52:50.998Z</time></trkpt><trkpt lat="39.555892124878994" lon="8.577300981925983"><ele>287.0</ele><time>2026-05-01T11:52:51.998Z</time></trkpt><trkpt lat="39.55592783916957" lon="8.5771314722795"><ele>287.0</ele><time>2026-05-01T11:52:52.998Z</time></trkpt><trkpt lat="39.55597750554389" lon="8.576969631380852"><ele>289.2</ele><time>2026-05-01T11:52:53.998Z</time></trkpt><trkpt lat="39.55604446283182" lon="8.576826363397423"><ele>291.4</ele><time>2026-05-01T11:52:54.998Z</time></trkpt><trkpt lat="39.55611833625988" lon="8.576720441631537"><ele>293.6</ele><time>2026-05-01T11:52:55.998Z</time></trkpt><trkpt lat="39.55617838991614" lon="8.576658596520927"><ele>295.8</ele><time>2026-05-01T11:52:56.998Z</time></trkpt><trkpt lat="39.55616608809452" lon="8.576560426660336"><ele>298.0</ele><time>2026-05-01T11:52:57.998Z</time></trkpt><trkpt lat="39.5560844613479" lon="8.57649768746443"><ele>298.0</ele><time>2026-05-01T11:52:58.998Z</time></trkpt><trkpt lat="39.555970655444256" lon="8.576470352527764"><ele>298.0</ele><time>2026-05-01T11:52:59.998Z</time></trkpt><trkpt lat="39.555838719176776" lon="8.576548634199487"><ele>298.0</ele><time>2026-05-01T11:53:00.998Z</time></trkpt><trkpt lat="39.55570749224563" lon="8.57657090282863"><ele>298.0</ele><time>2026-05-01T11:53:01.998Z</time></trkpt><trkpt lat="39.55558809997706" lon="8.576675189531663"><ele>298.0</ele><time>2026-05-01T11:53:02.999Z</time></trkpt><trkpt lat="39.55547851841637" lon="8.576797998589756"><ele>298.0</ele><time>2026-05-01T11:53:03.999Z</time></trkpt><trkpt lat="39.55540765532935" lon="8.576962207533755"><ele>298.0</ele><time>2026-05-01T11:53:04.999Z</time></trkpt><trkpt lat="39.55532562802047" lon="8.57713249972409"><ele>298.0</ele><time>2026-05-01T11:53:05.999Z</time></trkpt><trkpt lat="39.55524825701516" lon="8.577298903820997"><ele>294.0</ele><time>2026-05-01T11:53:06.999Z</time></trkpt><trkpt lat="39.55515610751177" lon="8.577424096147794"><ele>290.0</ele><time>2026-05-01T11:53:07.999Z</time></trkpt><trkpt lat="39.5550507509483" lon="8.577521771326111"><ele>286.0</ele><time>2026-05-01T11:53:08.999Z</time></trkpt><trkpt lat="39.55494994280504" lon="8.577628081107665"><ele>282.0</ele><time>2026-05-01T11:53:10Z</time></trkpt><trkpt lat="39.55485715995285" lon="8.577756015600507"><ele>279.75</ele><time>2026-05-01T11:53:10.999Z</time></trkpt><trkpt lat="39.554801006796936" lon="8.577924706229256"><ele>277.5</ele><time>2026-05-01T11:53:12Z</time></trkpt><trkpt lat="39.55476069744142" lon="8.57809453600711"><ele>275.25</ele><time>2026-05-01T11:53:13Z</time></trkpt><trkpt lat="39.55470966175284" lon="8.578240797361902"><ele>273.0</ele><time>2026-05-01T11:53:14Z</time></trkpt><trkpt lat="39.5546583581339" lon="8.578382944565748"><ele>273.0</ele><time>2026-05-01T11:53:15Z</time></trkpt><trkpt lat="39.55462878413084" lon="8.57853116258465"><ele>273.0</ele><time>2026-05-01T11:53:16Z</time></trkpt><trkpt lat="39.5545999017607" lon="8.5786720338285"><ele>273.0</ele><time>2026-05-01T11:53:17Z</time></trkpt><trkpt lat="39.55466632181494" lon="8.578808741549551"><ele>273.0</ele><time>2026-05-01T11:53:18Z</time></trkpt><trkpt lat="39.554770619711036" lon="8.578903356657186"><ele>273.75</ele><time>2026-05-01T11:53:19Z</time></trkpt><trkpt lat="39.55489273259087" lon="8.578967210125269"><ele>274.5</ele><time>2026-05-01T11:53:19.999Z</time></trkpt><trkpt lat="39.555006521888885" lon="8.579036293527817"><ele>275.25</ele><time>2026-05-01T11:53:20.999Z</time></trkpt><trkpt lat="39.55510131816232" lon="8.579121627865527"><ele>276.0</ele><time>2026-05-01T11:53:21.999Z</time></trkpt><trkpt lat="39.55516659218912" lon="8.579243668504343"><ele>276.0</ele><time>2026-05-01T11:53:22.999Z</time></trkpt><trkpt lat="39.55521659027394" lon="8.57936390656184"><ele>276.0</ele><time>2026-05-01T11:53:23.999Z</time></trkpt><trkpt lat="39.555267164115435" lon="8.57949366905517"><ele>276.0</ele><time>2026-05-01T11:53:24.999Z</time></trkpt><trkpt lat="39.55532461418884" lon="8.579607153752276"><ele>276.0</ele><time>2026-05-01T11:53:25.999Z</time></trkpt><trkpt lat="39.55534890206881" lon="8.579731054688283"><ele>276.0</ele><time>2026-05-01T11:53:26.999Z</time></trkpt><trkpt lat="39.555368594542216" lon="8.579849647500481"><ele>276.2</ele><time>2026-05-01T11:53:27.999Z</time></trkpt><trkpt lat="39.55537861664909" lon="8.579972126462309"><ele>276.40000000000003</ele><time>2026-05-01T11:53:28.999Z</time></trkpt><trkpt lat="39.55537768780633" lon="8.580102370587028"><ele>276.6</ele><time>2026-05-01T11:53:29.999Z</time></trkpt><trkpt lat="39.555367458609574" lon="8.580244405879137"><ele>276.8</ele><time>2026-05-01T11:53:30.999Z</time></trkpt><trkpt lat="39.55533972990452" lon="8.580379706461441"><ele>277.0</ele><time>2026-05-01T11:53:31.999Z</time></trkpt><trkpt lat="39.5552976242534" lon="8.580500009858111"><ele>277.0</ele><time>2026-05-01T11:53:32.999Z</time></trkpt><trkpt lat="39.555238610253156" lon="8.580598031011935"><ele>277.0</ele><time>2026-05-01T11:53:33.999Z</time></trkpt><trkpt lat="39.55516829110214" lon="8.580687393546604"><ele>277.0</ele><time>2026-05-01T11:53:34.999Z</time></trkpt><trkpt lat="39.555096334919085" lon="8.58079340558911"><ele>277.0</ele><time>2026-05-01T11:53:35.999Z</time></trkpt><trkpt lat="39.555054753614364" lon="8.58091287524754"><ele>277.0</ele><time>2026-05-01T11:53:36.999Z</time></trkpt><trkpt lat="39.55505580912898" lon="8.581054234353802"><ele>277.25</ele><time>2026-05-01T11:53:37.999Z</time></trkpt><trkpt lat="39.55509232626437" lon="8.581200671765231"><ele>277.5</ele><time>2026-05-01T11:53:38.999Z</time></trkpt><trkpt lat="39.555153577540054" lon="8.58133717785492"><ele>277.75</ele><time>2026-05-01T11:53:39.999Z</time></trkpt><trkpt lat="39.5552424232997" lon="8.581450316047128"><ele>278.0</ele><time>2026-05-01T11:53:40.999Z</time></trkpt><trkpt lat="39.55533279488177" lon="8.58155101259792"><ele>271.25</ele><time>2026-05-01T11:53:41.999Z</time></trkpt><trkpt lat="39.555372056718184" lon="8.581683164014466"><ele>264.5</ele><time>2026-05-01T11:53:42.999Z</time></trkpt><trkpt lat="39.55537820081211" lon="8.58182081873771"><ele>257.75</ele><time>2026-05-01T11:53:43.999Z</time></trkpt><trkpt lat="39.55540641784024" lon="8.581967907598342"><ele>251.0</ele><time>2026-05-01T11:53:44.999Z</time></trkpt><trkpt lat="39.55544642376204" lon="8.582120604581135"><ele>251.0</ele><time>2026-05-01T11:53:45.999Z</time></trkpt><trkpt lat="39.555520314547124" lon="8.582259723454126"><ele>251.0</ele><time>2026-05-01T11:53:46.999Z</time></trkpt><trkpt lat="39.55558615097749" lon="8.58239558242557"><ele>251.0</ele><time>2026-05-01T11:53:47.999Z</time></trkpt><trkpt lat="39.55565225387853" lon="8.582518677495496"><ele>251.0</ele><time>2026-05-01T11:53:48.999Z</time></trkpt><trkpt lat="39.55570762929967" lon="8.582644534154513"><ele>251.0</ele><time>2026-05-01T11:53:49.999Z</time></trkpt><trkpt lat="39.55576316723299" lon="8.582769868718303"><ele>251.00000000000003</ele><time>2026-05-01T11:53:50.999Z</time></trkpt><trkpt lat="39.55578458765892" lon="8.582912968809266"><ele>251.00000000000003</ele><time>2026-05-01T11:53:51.999Z</time></trkpt><trkpt lat="39.555771218471754" lon="8.583060773966245"><ele>251.0</ele><time>2026-05-01T11:53:52.999Z</time></trkpt><trkpt lat="39.555804464435255" lon="8.58318813260887"><ele>251.0</ele><time>2026-05-01T11:53:53.999Z</time></trkpt><trkpt lat="39.55585924502062" lon="8.583316112272767"><ele>252.75</ele><time>2026-05-01T11:53:54.999Z</time></trkpt><trkpt lat="39.55595260599773" lon="8.583425517216803"><ele>254.5</ele><time>2026-05-01T11:53:55.999Z</time></trkpt><trkpt lat="39.55603368128995" lon="8.583538162217115"><ele>256.25</ele><time>2026-05-01T11:53:56.999Z</time></trkpt><trkpt lat="39.556093753002315" lon="8.583673072738424"><ele>258.0</ele><time>2026-05-01T11:53:57.999Z</time></trkpt><trkpt lat="39.556144211012636" lon="8.583818462602641"><ele>258.6</ele><time>2026-05-01T11:53:58.999Z</time></trkpt><trkpt lat="39.556178943186296" lon="8.583963536792766"><ele>259.20000000000005</ele><time>2026-05-01T11:53:59.999Z</time></trkpt><trkpt lat="39.556221453527776" lon="8.584096876464027"><ele>259.8</ele><time>2026-05-01T11:54:00.999Z</time></trkpt><trkpt lat="39.55625191396659" lon="8.584227835161679"><ele>260.40000000000003</ele><time>2026-05-01T11:54:01.999Z</time></trkpt><trkpt lat="39.55626757006887" lon="8.58435749449998"><ele>261.0</ele><time>2026-05-01T11:54:02.999Z</time></trkpt><trkpt lat="39.55626552860759" lon="8.58448632224856"><ele>259.8</ele><time>2026-05-01T11:54:03.999Z</time></trkpt><trkpt lat="39.55624628221592" lon="8.584611067644829"><ele>258.6</ele><time>2026-05-01T11:54:04.999Z</time></trkpt><trkpt lat="39.556222293672484" lon="8.584734899370705"><ele>257.4</ele><time>2026-05-01T11:54:05.999Z</time></trkpt><trkpt lat="39.55614352537815" lon="8.584820334775207"><ele>256.2</ele><time>2026-05-01T11:54:06.999Z</time></trkpt><trkpt lat="39.556101417167596" lon="8.58492994567575"><ele>255.0</ele><time>2026-05-01T11:54:07.999Z</time></trkpt><trkpt lat="39.55605378687331" lon="8.58503943854562"><ele>255.0</ele><time>2026-05-01T11:54:08.999Z</time></trkpt><trkpt lat="39.5560277807369" lon="8.585173532184989"><ele>255.0</ele><time>2026-05-01T11:54:09.999Z</time></trkpt><trkpt lat="39.55602316387796" lon="8.58531651890435"><ele>255.0</ele><time>2026-05-01T11:54:10.999Z</time></trkpt><trkpt lat="39.556031628910695" lon="8.585459359383266"><ele>255.0</ele><time>2026-05-01T11:54:11.999Z</time></trkpt><trkpt lat="39.556036728385365" lon="8.585598773300111"><ele>255.0</ele><time>2026-05-01T11:54:12.999Z</time></trkpt><trkpt lat="39.55603005721618" lon="8.585738130825554"><ele>253.4</ele><time>2026-05-01T11:54:13.999Z</time></trkpt><trkpt lat="39.5560161281011" lon="8.585882056560404"><ele>251.8</ele><time>2026-05-01T11:54:14.999Z</time></trkpt><trkpt lat="39.555998628020994" lon="8.586024670701308"><ele>250.2</ele><time>2026-05-01T11:54:15.999Z</time></trkpt><trkpt lat="39.55595857452297" lon="8.586160468620271"><ele>248.6</ele><time>2026-05-01T11:54:16.999Z</time></trkpt><trkpt lat="39.55594906930022" lon="8.586302415250804"><ele>247.0</ele><time>2026-05-01T11:54:17.999Z</time></trkpt><trkpt lat="39.555927808884256" lon="8.58643547158731"><ele>245.99999999999997</ele><time>2026-05-01T11:54:18.999Z</time></trkpt><trkpt lat="39.555921317635054" lon="8.586564841281712"><ele>245.0</ele><time>2026-05-01T11:54:19.999Z</time></trkpt><trkpt lat="39.55592425215063" lon="8.586692915746369"><ele>244.0</ele><time>2026-05-01T11:54:20.999Z</time></trkpt><trkpt lat="39.55592302300539" lon="8.586813335068504"><ele>243.0</ele><time>2026-05-01T11:54:21.999Z</time></trkpt><trkpt lat="39.55594142625964" lon="8.586905778129"><ele>241.99999999999997</ele><time>2026-05-01T11:54:22.999Z</time></trkpt><trkpt lat="39.5560022780872" lon="8.586960819807363"><ele>241.0</ele><time>2026-05-01T11:54:23.999Z</time></trkpt><trkpt lat="39.55607964738924" lon="8.586937679977169"><ele>241.0</ele><time>2026-05-01T11:54:24.999Z</time></trkpt><trkpt lat="39.55612371687629" lon="8.586842420448349"><ele>241.00000000000003</ele><time>2026-05-01T11:54:25.999Z</time></trkpt><trkpt lat="39.556120563743754" lon="8.58670971939948"><ele>241.00000000000003</ele><time>2026-05-01T11:54:26.999Z</time></trkpt><trkpt lat="39.55609540132645" lon="8.586557078415979"><ele>241.0</ele><time>2026-05-01T11:54:27.999Z</time></trkpt><trkpt lat="39.55609256353147" lon="8.586393969618157"><ele>241.0</ele><time>2026-05-01T11:54:28.999Z</time></trkpt><trkpt lat="39.556149648512694" lon="8.586224311625024"><ele>234.25</ele><time>2026-05-01T11:54:29.999Z</time></trkpt><trkpt lat="39.55620657827578" lon="8.586043814394651"><ele>227.5</ele><time>2026-05-01T11:54:30.999Z</time></trkpt><trkpt lat="39.55627390097297" lon="8.585873699500965"><ele>220.75</ele><time>2026-05-01T11:54:31.999Z</time></trkpt><trkpt lat="39.55632576666316" lon="8.585708111947593"><ele>214.0</ele><time>2026-05-01T11:54:32.999Z</time></trkpt><trkpt lat="39.556380818055466" lon="8.585552606345505"><ele>214.0</ele><time>2026-05-01T11:54:33.999Z</time></trkpt><trkpt lat="39.556431787004975" lon="8.585400816513236"><ele>214.0</ele><time>2026-05-01T11:54:34.999Z</time></trkpt><trkpt lat="39.55647602156808" lon="8.585253328563994"><ele>214.0</ele><time>2026-05-01T11:54:35.999Z</time></trkpt><trkpt lat="39.55653670914098" lon="8.585121165937531"><ele>214.0</ele><time>2026-05-01T11:54:36.999Z</time></trkpt><trkpt lat="39.556628532978344" lon="8.585020122716328"><ele>215.39999999999998</ele><time>2026-05-01T11:54:37.999Z</time></trkpt><trkpt lat="39.55671274354461" lon="8.584922612341792"><ele>216.79999999999998</ele><time>2026-05-01T11:54:38.999Z</time></trkpt><trkpt lat="39.55676824735407" lon="8.584794788480853"><ele>218.20000000000002</ele><time>2026-05-01T11:54:39.999Z</time></trkpt><trkpt lat="39.55679630703821" lon="8.584651883060928"><ele>219.60000000000002</ele><time>2026-05-01T11:54:40.999Z</time></trkpt><trkpt lat="39.55681625625183" lon="8.584514672616367"><ele>221.0</ele><time>2026-05-01T11:54:41.999Z</time></trkpt><trkpt lat="39.55683640038514" lon="8.584387125561507"><ele>222.16666666666669</ele><time>2026-05-01T11:54:42.999Z</time></trkpt><trkpt lat="39.55685336753943" lon="8.584267578341034"><ele>223.33333333333334</ele><time>2026-05-01T11:54:43.999Z</time></trkpt><trkpt lat="39.55685525730658" lon="8.584165461860843"><ele>224.5</ele><time>2026-05-01T11:54:44.999Z</time></trkpt><trkpt lat="39.556866954332726" lon="8.584041436248297"><ele>225.66666666666669</ele><time>2026-05-01T11:54:46.999Z</time></trkpt><trkpt lat="39.5569438609277" lon="8.584050075235467"><ele>226.83333333333334</ele><time>2026-05-01T11:54:48.998Z</time></trkpt><trkpt lat="39.55693649301916" lon="8.584182121214154"><ele>228.0</ele><time>2026-05-01T11:54:50.998Z</time></trkpt><trkpt lat="39.55691628607903" lon="8.584271693404865"><ele>228.0</ele><time>2026-05-01T11:54:51.998Z</time></trkpt><trkpt lat="39.55691175293891" lon="8.584398547716855"><ele>228.0</ele><time>2026-05-01T11:54:52.998Z</time></trkpt><trkpt lat="39.556877340667626" lon="8.584543477354089"><ele>228.0</ele><time>2026-05-01T11:54:53.998Z</time></trkpt><trkpt lat="39.55685796668306" lon="8.584709617185238"><ele>228.0</ele><time>2026-05-01T11:54:54.998Z</time></trkpt><trkpt lat="39.55683761936763" lon="8.584884103643429"><ele>226.25</ele><time>2026-05-01T11:54:55.998Z</time></trkpt><trkpt lat="39.55682736088996" lon="8.585073286341524"><ele>224.5</ele><time>2026-05-01T11:54:56.998Z</time></trkpt><trkpt lat="39.5568053904967" lon="8.585265934938537"><ele>222.75</ele><time>2026-05-01T11:54:57.998Z</time></trkpt><trkpt lat="39.556769496833894" lon="8.585454027208339"><ele>221.0</ele><time>2026-05-01T11:54:58.998Z</time></trkpt><trkpt lat="39.556767017346026" lon="8.58564428768017"><ele>218.66666666666669</ele><time>2026-05-01T11:54:59.998Z</time></trkpt><trkpt lat="39.55674966972778" lon="8.58584283931785"><ele>216.33333333333331</ele><time>2026-05-01T11:55:00.998Z</time></trkpt><trkpt lat="39.55674182733247" lon="8.586049984855292"><ele>214.0</ele><time>2026-05-01T11:55:01.998Z</time></trkpt><trkpt lat="39.55674303236838" lon="8.586262616498713"><ele>212.33333333333331</ele><time>2026-05-01T11:55:02.998Z</time></trkpt><trkpt lat="39.55672560230051" lon="8.586473569080983"><ele>210.66666666666669</ele><time>2026-05-01T11:55:03.998Z</time></trkpt><trkpt lat="39.55672073820987" lon="8.586686124549418"><ele>209.0</ele><time>2026-05-01T11:55:04.998Z</time></trkpt><trkpt lat="39.55673062957884" lon="8.586894102802294"><ele>208.5</ele><time>2026-05-01T11:55:05.998Z</time></trkpt><trkpt lat="39.55672155398727" lon="8.587089664381741"><ele>208.0</ele><time>2026-05-01T11:55:06.998Z</time></trkpt><trkpt lat="39.556713253833614" lon="8.587277017439343"><ele>207.5</ele><time>2026-05-01T11:55:07.998Z</time></trkpt><trkpt lat="39.55670929464849" lon="8.587459211379302"><ele>207.0</ele><time>2026-05-01T11:55:09Z</time></trkpt><trkpt lat="39.5567047369627" lon="8.5876401103411"><ele>207.0</ele><time>2026-05-01T11:55:10Z</time></trkpt><trkpt lat="39.55670155106233" lon="8.587813969640774"><ele>207.0</ele><time>2026-05-01T11:55:11Z</time></trkpt><trkpt lat="39.556715943335426" lon="8.58797443980146"><ele>207.0</ele><time>2026-05-01T11:55:12Z</time></trkpt><trkpt lat="39.55676115463646" lon="8.588123621101632"><ele>207.0</ele><time>2026-05-01T11:55:13Z</time></trkpt><trkpt lat="39.556829776234004" lon="8.588247454588133"><ele>206.6</ele><time>2026-05-01T11:55:14Z</time></trkpt><trkpt lat="39.556907570902126" lon="8.588345564110087"><ele>206.2</ele><time>2026-05-01T11:55:15Z</time></trkpt><trkpt lat="39.55698968145553" lon="8.588427261358708"><ele>205.8</ele><time>2026-05-01T11:55:16Z</time></trkpt><trkpt lat="39.557066263123254" lon="8.58850406349944"><ele>205.4</ele><time>2026-05-01T11:55:17Z</time></trkpt><trkpt lat="39.55713998103946" lon="8.588581328341204"><ele>205.0</ele><time>2026-05-01T11:55:18Z</time></trkpt><trkpt lat="39.55720685018747" lon="8.588661645661656"><ele>203.2</ele><time>2026-05-01T11:55:19Z</time></trkpt><trkpt lat="39.55726935199702" lon="8.588752128796216"><ele>201.4</ele><time>2026-05-01T11:55:20Z</time></trkpt><trkpt lat="39.557321758147985" lon="8.58885246178547"><ele>199.60000000000002</ele><time>2026-05-01T11:55:21Z</time></trkpt><trkpt lat="39.55736947054442" lon="8.58896223589466"><ele>197.8</ele><time>2026-05-01T11:55:22Z</time></trkpt><trkpt lat="39.557420807365155" lon="8.58907744681501"><ele>196.0</ele><time>2026-05-01T11:55:23Z</time></trkpt><trkpt lat="39.557474644521854" lon="8.589198984774931"><ele>196.0</ele><time>2026-05-01T11:55:24Z</time></trkpt><trkpt lat="39.55752687994316" lon="8.589332244422744"><ele>196.0</ele><time>2026-05-01T11:55:25Z</time></trkpt><trkpt lat="39.557579407005655" lon="8.589470946659375"><ele>196.0</ele><time>2026-05-01T11:55:25.999Z</time></trkpt><trkpt lat="39.55763801771546" lon="8.589612867909231"><ele>196.0</ele><time>2026-05-01T11:55:26.999Z</time></trkpt><trkpt lat="39.55769841572783" lon="8.589761348079357"><ele>196.5</ele><time>2026-05-01T11:55:27.999Z</time></trkpt><trkpt lat="39.557761282198506" lon="8.589914307352599"><ele>197.0</ele><time>2026-05-01T11:55:28.999Z</time></trkpt><trkpt lat="39.557823945983486" lon="8.590071354262212"><ele>197.5</ele><time>2026-05-01T11:55:29.999Z</time></trkpt><trkpt lat="39.557882542150935" lon="8.590235023176657"><ele>198.0</ele><time>2026-05-01T11:55:30.999Z</time></trkpt><trkpt lat="39.55793007759576" lon="8.590409115052326"><ele>194.25</ele><time>2026-05-01T11:55:31.999Z</time></trkpt><trkpt lat="39.55797122756221" lon="8.590589950579634"><ele>190.5</ele><time>2026-05-01T11:55:32.999Z</time></trkpt><trkpt lat="39.55800643509255" lon="8.590773491427269"><ele>186.75</ele><time>2026-05-01T11:55:33.999Z</time></trkpt><trkpt lat="39.558044936526365" lon="8.59095776370154"><ele>183.0</ele><time>2026-05-01T11:55:34.999Z</time></trkpt><trkpt lat="39.558089967535665" lon="8.591144070653964"><ele>182.66666666666666</ele><time>2026-05-01T11:55:35.999Z</time></trkpt><trkpt lat="39.55813323758437" lon="8.591335367894512"><ele>182.33333333333331</ele><time>2026-05-01T11:55:36.999Z</time></trkpt><trkpt lat="39.55818021447932" lon="8.591527447617223"><ele>182.0</ele><time>2026-05-01T11:55:37.999Z</time></trkpt><trkpt lat="39.55823034006435" lon="8.59171722552944"><ele>182.0</ele><time>2026-05-01T11:55:38.999Z</time></trkpt><trkpt lat="39.55827753974186" lon="8.591906562245232"><ele>182.0</ele><time>2026-05-01T11:55:39.999Z</time></trkpt><trkpt lat="39.558319124476796" lon="8.592091889870805"><ele>182.0</ele><time>2026-05-01T11:55:40.999Z</time></trkpt><trkpt lat="39.55835697925499" lon="8.59227086990611"><ele>182.0</ele><time>2026-05-01T11:55:41.999Z</time></trkpt><trkpt lat="39.55839279920564" lon="8.5924433914173"><ele>182.0</ele><time>2026-05-01T11:55:42.999Z</time></trkpt><trkpt lat="39.55842021744766" lon="8.59261359040172"><ele>182.0</ele><time>2026-05-01T11:55:43.999Z</time></trkpt><trkpt lat="39.5584282493811" lon="8.592791783658267"><ele>182.0</ele><time>2026-05-01T11:55:44.999Z</time></trkpt><trkpt lat="39.55841396446866" lon="8.592976068747973"><ele>182.0</ele><time>2026-05-01T11:55:45.999Z</time></trkpt><trkpt lat="39.558393498443245" lon="8.593170730434602"><ele>181.66666666666666</ele><time>2026-05-01T11:55:46.999Z</time></trkpt><trkpt lat="39.55838022441864" lon="8.593373669194724"><ele>181.33333333333334</ele><time>2026-05-01T11:55:47.999Z</time></trkpt><trkpt lat="39.55837422228083" lon="8.593579152536744"><ele>181.0</ele><time>2026-05-01T11:55:48.999Z</time></trkpt><trkpt lat="39.55837057010946" lon="8.593787634496952"><ele>179.66666666666669</ele><time>2026-05-01T11:55:49.999Z</time></trkpt><trkpt lat="39.55837445383754" lon="8.593995492556182"><ele>178.33333333333334</ele><time>2026-05-01T11:55:50.999Z</time></trkpt><trkpt lat="39.55839248446163" lon="8.594204167668108"><ele>177.0</ele><time>2026-05-01T11:55:51.999Z</time></trkpt><trkpt lat="39.55841266291726" lon="8.594405340542334"><ele>176.25</ele><time>2026-05-01T11:55:52.999Z</time></trkpt><trkpt lat="39.558439495138245" lon="8.594593276051159"><ele>175.5</ele><time>2026-05-01T11:55:53.999Z</time></trkpt><trkpt lat="39.55849781448517" lon="8.594765362570994"><ele>174.75</ele><time>2026-05-01T11:55:54.999Z</time></trkpt><trkpt lat="39.558585952390786" lon="8.594920691330504"><ele>174.0</ele><time>2026-05-01T11:55:55.999Z</time></trkpt><trkpt lat="39.558693706857284" lon="8.595057654040971"><ele>172.66666666666666</ele><time>2026-05-01T11:55:56.999Z</time></trkpt><trkpt lat="39.55880301200421" lon="8.595194795692441"><ele>171.33333333333331</ele><time>2026-05-01T11:55:57.999Z</time></trkpt><trkpt lat="39.55890961497183" lon="8.595343213562696"><ele>170.0</ele><time>2026-05-01T11:55:58.999Z</time></trkpt><trkpt lat="39.559018634420624" lon="8.595492511156662"><ele>170.0</ele><time>2026-05-01T11:55:59.999Z</time></trkpt><trkpt lat="39.55913258535499" lon="8.595638976499822"><ele>170.0</ele><time>2026-05-01T11:56:00.999Z</time></trkpt><trkpt lat="39.559250326835944" lon="8.595782218776238"><ele>170.0</ele><time>2026-05-01T11:56:01.999Z</time></trkpt><trkpt lat="39.55937067156004" lon="8.595924575191034"><ele>170.0</ele><time>2026-05-01T11:56:02.999Z</time></trkpt><trkpt lat="39.559488172281235" lon="8.596070026187643"><ele>170.0</ele><time>2026-05-01T11:56:03.999Z</time></trkpt><trkpt lat="39.55959894862631" lon="8.59621450375768"><ele>170.0</ele><time>2026-05-01T11:56:04.999Z</time></trkpt><trkpt lat="39.559704921514594" lon="8.596345061898829"><ele>169.25</ele><time>2026-05-01T11:56:05.999Z</time></trkpt><trkpt lat="39.5598101763253" lon="8.596464829738002"><ele>168.5</ele><time>2026-05-01T11:56:06.999Z</time></trkpt><trkpt lat="39.55991762740761" lon="8.596571156592232"><ele>167.75</ele><time>2026-05-01T11:56:07.999Z</time></trkpt><trkpt lat="39.560024082866285" lon="8.596664686022805"><ele>167.0</ele><time>2026-05-01T11:56:08.999Z</time></trkpt><trkpt lat="39.56012687282109" lon="8.596756255060187"><ele>167.0</ele><time>2026-05-01T11:56:09.999Z</time></trkpt><trkpt lat="39.560233944010434" lon="8.596852581120391"><ele>167.0</ele><time>2026-05-01T11:56:10.999Z</time></trkpt><trkpt lat="39.56034244899583" lon="8.596951121139707"><ele>167.0</ele><time>2026-05-01T11:56:11.999Z</time></trkpt><trkpt lat="39.56045643765899" lon="8.597050421354549"><ele>167.0</ele><time>2026-05-01T11:56:12.999Z</time></trkpt><trkpt lat="39.56057479943154" lon="8.597149227616972"><ele>165.0</ele><time>2026-05-01T11:56:13.999Z</time></trkpt><trkpt lat="39.560692460156915" lon="8.597251545061342"><ele>163.0</ele><time>2026-05-01T11:56:14.999Z</time></trkpt><trkpt lat="39.56081003570527" lon="8.5973519442471"><ele>161.0</ele><time>2026-05-01T11:56:15.999Z</time></trkpt><trkpt lat="39.56091689440399" lon="8.597457238050147"><ele>159.0</ele><time>2026-05-01T11:56:16.999Z</time></trkpt><trkpt lat="39.560995870476425" lon="8.597585376281708"><ele>159.0</ele><time>2026-05-01T11:56:17.999Z</time></trkpt><trkpt lat="39.561030299128014" lon="8.59773980635835"><ele>159.0</ele><time>2026-05-01T11:56:18.999Z</time></trkpt><trkpt lat="39.56098187361125" lon="8.597900653961966"><ele>159.0</ele><time>2026-05-01T11:56:19.999Z</time></trkpt><trkpt lat="39.560950907508385" lon="8.598072278127374"><ele>159.0</ele><time>2026-05-01T11:56:20.999Z</time></trkpt><trkpt lat="39.5608972147214" lon="8.598236186561536"><ele>158.6</ele><time>2026-05-01T11:56:21.999Z</time></trkpt><trkpt lat="39.56085688913557" lon="8.598382283255996"><ele>158.2</ele><time>2026-05-01T11:56:22.999Z</time></trkpt><trkpt lat="39.56082043647463" lon="8.598488088427708"><ele>157.79999999999998</ele><time>2026-05-01T11:56:23.999Z</time></trkpt><trkpt lat="39.56078185871258" lon="8.598607407958305"><ele>157.4</ele><time>2026-05-01T11:56:25.999Z</time></trkpt><trkpt lat="39.56086287413734" lon="8.598466431030774"><ele>157.0</ele><time>2026-05-01T11:56:30.999Z</time></trkpt><trkpt lat="39.560891269552506" lon="8.598348855957763"><ele>157.0</ele><time>2026-05-01T11:56:31.999Z</time></trkpt><trkpt lat="39.56093413226789" lon="8.598221823480873"><ele>157.0</ele><time>2026-05-01T11:56:32.999Z</time></trkpt><trkpt lat="39.560974884122146" lon="8.598083978346292"><ele>157.0</ele><time>2026-05-01T11:56:33.999Z</time></trkpt><trkpt lat="39.561009426838204" lon="8.597943099217947"><ele>157.0</ele><time>2026-05-01T11:56:34.999Z</time></trkpt><trkpt lat="39.561038312805785" lon="8.597785968617076"><ele>157.5</ele><time>2026-05-01T11:56:35.999Z</time></trkpt><trkpt lat="39.56104156369645" lon="8.597622555610585"><ele>158.0</ele><time>2026-05-01T11:56:36.999Z</time></trkpt><trkpt lat="39.56098733315749" lon="8.59746137170578"><ele>158.5</ele><time>2026-05-01T11:56:37.999Z</time></trkpt><trkpt lat="39.56088053699003" lon="8.597337825703729"><ele>159.0</ele><time>2026-05-01T11:56:38.999Z</time></trkpt><trkpt lat="39.56075187435863" lon="8.597245330741863"><ele>159.0</ele><time>2026-05-01T11:56:39.999Z</time></trkpt><trkpt lat="39.56063263766994" lon="8.597153336270644"><ele>159.0</ele><time>2026-05-01T11:56:40.999Z</time></trkpt><trkpt lat="39.56051251070022" lon="8.597052224190298"><ele>159.0</ele><time>2026-05-01T11:56:41.999Z</time></trkpt><trkpt lat="39.5603989446492" lon="8.596934242608047"><ele>159.0</ele><time>2026-05-01T11:56:42.999Z</time></trkpt><trkpt lat="39.560282151916816" lon="8.596833759330801"><ele>161.0</ele><time>2026-05-01T11:56:43.999Z</time></trkpt><trkpt lat="39.56015607481865" lon="8.596750230156776"><ele>163.0</ele><time>2026-05-01T11:56:44.999Z</time></trkpt><trkpt lat="39.56004033199104" lon="8.59664498492903"><ele>165.0</ele><time>2026-05-01T11:56:45.999Z</time></trkpt><trkpt lat="39.55992310280707" lon="8.596539938604328"><ele>167.0</ele><time>2026-05-01T11:56:46.999Z</time></trkpt><trkpt lat="39.5598043955157" lon="8.596425622615161"><ele>167.0</ele><time>2026-05-01T11:56:47.999Z</time></trkpt><trkpt lat="39.55969581431209" lon="8.596299657277443"><ele>167.0</ele><time>2026-05-01T11:56:48.999Z</time></trkpt><trkpt lat="39.55959220065107" lon="8.59616793672934"><ele>167.0</ele><time>2026-05-01T11:56:49.999Z</time></trkpt><trkpt lat="39.559485945574984" lon="8.596037812393227"><ele>167.0</ele><time>2026-05-01T11:56:50.999Z</time></trkpt><trkpt lat="39.55938226724478" lon="8.59590768684822"><ele>168.0</ele><time>2026-05-01T11:56:51.999Z</time></trkpt><trkpt lat="39.559282941991846" lon="8.595771559564664"><ele>169.0</ele><time>2026-05-01T11:56:52.999Z</time></trkpt><trkpt lat="39.5591741177338" lon="8.595633589672968"><ele>170.0</ele><time>2026-05-01T11:56:53.998Z</time></trkpt><trkpt lat="39.55906039853326" lon="8.595492108020865"><ele>170.0</ele><time>2026-05-01T11:56:54.998Z</time></trkpt><trkpt lat="39.55894618503987" lon="8.59534975064627"><ele>170.0</ele><time>2026-05-01T11:56:55.998Z</time></trkpt><trkpt lat="39.5588344439123" lon="8.595207712289893"><ele>170.0</ele><time>2026-05-01T11:56:56.998Z</time></trkpt><trkpt lat="39.558728297382885" lon="8.595065054918365"><ele>171.33333333333331</ele><time>2026-05-01T11:56:57.998Z</time></trkpt><trkpt lat="39.55862561463333" lon="8.59491948916692"><ele>172.66666666666666</ele><time>2026-05-01T11:56:58.998Z</time></trkpt><trkpt lat="39.55853364514991" lon="8.594765858650582"><ele>174.0</ele><time>2026-05-01T11:56:59.998Z</time></trkpt><trkpt lat="39.558465094475565" lon="8.59459169250261"><ele>175.0</ele><time>2026-05-01T11:57:00.998Z</time></trkpt><trkpt lat="39.55842710790274" lon="8.5943968964959"><ele>176.0</ele><time>2026-05-01T11:57:01.998Z</time></trkpt><trkpt lat="39.55841522679517" lon="8.594192386953083"><ele>177.0</ele><time>2026-05-01T11:57:02.998Z</time></trkpt><trkpt lat="39.558412532739" lon="8.593987535091381"><ele>177.0</ele><time>2026-05-01T11:57:03.998Z</time></trkpt><trkpt lat="39.55840684243941" lon="8.593779166703545"><ele>177.0</ele><time>2026-05-01T11:57:04.998Z</time></trkpt><trkpt lat="39.55840354029477" lon="8.59357081956577"><ele>177.0</ele><time>2026-05-01T11:57:05.998Z</time></trkpt><trkpt lat="39.558409800589196" lon="8.593365215131488"><ele>178.33333333333334</ele><time>2026-05-01T11:57:06.998Z</time></trkpt><trkpt lat="39.55842133325042" lon="8.593161653374533"><ele>179.66666666666669</ele><time>2026-05-01T11:57:07.998Z</time></trkpt><trkpt lat="39.55844389075477" lon="8.59296682165145"><ele>181.0</ele><time>2026-05-01T11:57:08.998Z</time></trkpt><trkpt lat="39.55846196111499" lon="8.59277923500346"><ele>181.25</ele><time>2026-05-01T11:57:09.998Z</time></trkpt><trkpt lat="39.55846818998502" lon="8.592597042606448"><ele>181.5</ele><time>2026-05-01T11:57:10.998Z</time></trkpt><trkpt lat="39.55845507829082" lon="8.592419513085883"><ele>181.75</ele><time>2026-05-01T11:57:11.998Z</time></trkpt><trkpt lat="39.55840033063882" lon="8.59224044095231"><ele>182.0</ele><time>2026-05-01T11:57:12.998Z</time></trkpt><trkpt lat="39.558344415889714" lon="8.59205809259463"><ele>182.0</ele><time>2026-05-01T11:57:13.998Z</time></trkpt><trkpt lat="39.558301357890805" lon="8.591860937023498"><ele>182.0</ele><time>2026-05-01T11:57:14.999Z</time></trkpt><trkpt lat="39.55826313257708" lon="8.591679512328373"><ele>182.0</ele><time>2026-05-01T11:57:15.999Z</time></trkpt><trkpt lat="39.55822419652789" lon="8.591523169590703"><ele>182.0</ele><time>2026-05-01T11:57:16.999Z</time></trkpt><trkpt lat="39.55818742675593" lon="8.59136474724539"><ele>182.0</ele><time>2026-05-01T11:57:17.999Z</time></trkpt><trkpt lat="39.55814800719949" lon="8.591200805106416"><ele>182.0</ele><time>2026-05-01T11:57:18.999Z</time></trkpt><trkpt lat="39.5581097341523" lon="8.591056908720981"><ele>182.0</ele><time>2026-05-01T11:57:19.999Z</time></trkpt><trkpt lat="39.55807460254538" lon="8.590935209137475"><ele>182.0</ele><time>2026-05-01T11:57:20.999Z</time></trkpt><trkpt lat="39.55805104272232" lon="8.590841216091196"><ele>182.0</ele><time>2026-05-01T11:57:21.999Z</time></trkpt><trkpt lat="39.558048708238225" lon="8.590709915173504"><ele>182.2</ele><time>2026-05-01T11:57:23.999Z</time></trkpt><trkpt lat="39.55812439560558" lon="8.590679805763578"><ele>182.39999999999998</ele><time>2026-05-01T11:57:25.999Z</time></trkpt><trkpt lat="39.558201733376016" lon="8.590596097605179"><ele>182.60000000000002</ele><time>2026-05-01T11:57:27.999Z</time></trkpt><trkpt lat="39.55827274662408" lon="8.590520711809821"><ele>182.8</ele><time>2026-05-01T11:57:29.999Z</time></trkpt><trkpt lat="39.55836178604496" lon="8.590550137033397"><ele>183.0</ele><time>2026-05-01T11:57:31.999Z</time></trkpt><trkpt lat="39.55842465309167" lon="8.590652030284044"><ele>183.0</ele><time>2026-05-01T11:57:33.999Z</time></trkpt><trkpt lat="39.55847438071273" lon="8.590724174199478"><ele>183.0</ele><time>2026-05-01T11:57:35.999Z</time></trkpt><trkpt lat="39.558525238942394" lon="8.590825889463142"><ele>183.0</ele><time>2026-05-01T11:57:38.999Z</time></trkpt><trkpt lat="39.558565622152116" lon="8.590943061883426"><ele>183.0</ele><time>2026-05-01T11:57:41.999Z</time></trkpt><trkpt lat="39.55860676144723" lon="8.591030138332766"><ele>183.0</ele><time>2026-05-01T11:57:43.999Z</time></trkpt><trkpt lat="39.558670628247995" lon="8.591117751670183"><ele>183.0</ele><time>2026-05-01T11:57:45.999Z</time></trkpt><trkpt lat="39.55871972110473" lon="8.591217681900295"><ele>182.0</ele><time>2026-05-01T11:57:47.999Z</time></trkpt><trkpt lat="39.558765773867066" lon="8.59131281844764"><ele>181.0</ele><time>2026-05-01T11:57:49.999Z</time></trkpt><trkpt lat="39.558808217344364" lon="8.591421777652226"><ele>180.0</ele><time>2026-05-01T11:57:51.999Z</time></trkpt><trkpt lat="39.5588735585871" lon="8.591560751147945"><ele>179.0</ele><time>2026-05-01T11:57:53.999Z</time></trkpt><trkpt lat="39.55891439689624" lon="8.591641948467661"><ele>178.0</ele><time>2026-05-01T11:57:54.999Z</time></trkpt><trkpt lat="39.55893856964998" lon="8.59173923677306"><ele>178.0</ele><time>2026-05-01T11:57:55.999Z</time></trkpt><trkpt lat="39.55899731378832" lon="8.591825385257271"><ele>178.0</ele><time>2026-05-01T11:57:56.999Z</time></trkpt><trkpt lat="39.55904545430396" lon="8.591927925488548"><ele>178.0</ele><time>2026-05-01T11:57:57.999Z</time></trkpt><trkpt lat="39.55909309407855" lon="8.59203336143946"><ele>178.0</ele><time>2026-05-01T11:57:58.999Z</time></trkpt><trkpt lat="39.55914152276662" lon="8.592140344452716"><ele>178.0</ele><time>2026-05-01T11:57:59.999Z</time></trkpt><trkpt lat="39.55919209812818" lon="8.592250838410601"><ele>177.2</ele><time>2026-05-01T11:58:00.999Z</time></trkpt><trkpt lat="39.5592451050405" lon="8.592361051666265"><ele>176.4</ele><time>2026-05-01T11:58:01.999Z</time></trkpt><trkpt lat="39.559298721749244" lon="8.592472565714907"><ele>175.6</ele><time>2026-05-01T11:58:02.999Z</time></trkpt><trkpt lat="39.55934933099306" lon="8.59258195582233"><ele>174.79999999999998</ele><time>2026-05-01T11:58:03.999Z</time></trkpt><trkpt lat="39.559401746814" lon="8.59269472951838"><ele>174.0</ele><time>2026-05-01T11:58:04.999Z</time></trkpt><trkpt lat="39.559453530682035" lon="8.592810884700835"><ele>174.2</ele><time>2026-05-01T11:58:05.999Z</time></trkpt><trkpt lat="39.55950528338555" lon="8.59292607830466"><ele>174.39999999999998</ele><time>2026-05-01T11:58:06.999Z</time></trkpt><trkpt lat="39.55956116394511" lon="8.593044965442509"><ele>174.6</ele><time>2026-05-01T11:58:07.999Z</time></trkpt><trkpt lat="39.55961985436095" lon="8.593165479067833"><ele>174.8</ele><time>2026-05-01T11:58:08.999Z</time></trkpt><trkpt lat="39.55967930323679" lon="8.593288226285411"><ele>175.0</ele><time>2026-05-01T11:58:09.999Z</time></trkpt><trkpt lat="39.55973741143143" lon="8.593415131585212"><ele>175.0</ele><time>2026-05-01T11:58:10.999Z</time></trkpt><trkpt lat="39.559795826495176" lon="8.593545905797075"><ele>175.0</ele><time>2026-05-01T11:58:11.999Z</time></trkpt><trkpt lat="39.55985800689151" lon="8.593668295521207"><ele>175.0</ele><time>2026-05-01T11:58:12.999Z</time></trkpt><trkpt lat="39.55991526465974" lon="8.593784003473138"><ele>175.0</ele><time>2026-05-01T11:58:13.999Z</time></trkpt><trkpt lat="39.55996857551816" lon="8.593900967684958"><ele>175.0</ele><time>2026-05-01T11:58:14.999Z</time></trkpt><trkpt lat="39.56002363020696" lon="8.594022142873301"><ele>174.2</ele><time>2026-05-01T11:58:15.999Z</time></trkpt><trkpt lat="39.5600738199024" lon="8.594145444569204"><ele>173.4</ele><time>2026-05-01T11:58:16.999Z</time></trkpt><trkpt lat="39.56013170745625" lon="8.59426585424116"><ele>172.60000000000002</ele><time>2026-05-01T11:58:17.999Z</time></trkpt><trkpt lat="39.560188973236365" lon="8.59438638079037"><ele>171.8</ele><time>2026-05-01T11:58:18.999Z</time></trkpt><trkpt lat="39.56025170820565" lon="8.594508765949778"><ele>171.0</ele><time>2026-05-01T11:58:19.999Z</time></trkpt><trkpt lat="39.5602993696459" lon="8.594642013649233"><ele>170.25</ele><time>2026-05-01T11:58:20.999Z</time></trkpt><trkpt lat="39.56035892344985" lon="8.59476963819573"><ele>169.5</ele><time>2026-05-01T11:58:21.999Z</time></trkpt><trkpt lat="39.560419612556075" lon="8.594900860316915"><ele>168.75</ele><time>2026-05-01T11:58:22.999Z</time></trkpt><trkpt lat="39.56048153055259" lon="8.595034739620326"><ele>168.0</ele><time>2026-05-01T11:58:23.999Z</time></trkpt><trkpt lat="39.56054359399436" lon="8.595168015659498"><ele>168.0</ele><time>2026-05-01T11:58:24.999Z</time></trkpt><trkpt lat="39.56062283448558" lon="8.595293016436527"><ele>168.0</ele><time>2026-05-01T11:58:25.999Z</time></trkpt><trkpt lat="39.56068955945726" lon="8.595430423276708"><ele>168.0</ele><time>2026-05-01T11:58:26.999Z</time></trkpt><trkpt lat="39.5607564358878" lon="8.595570080110662"><ele>168.0</ele><time>2026-05-01T11:58:27.999Z</time></trkpt><trkpt lat="39.560824131826976" lon="8.595710573664215"><ele>167.0</ele><time>2026-05-01T11:58:28.999Z</time></trkpt><trkpt lat="39.56088934859302" lon="8.595843199023737"><ele>166.0</ele><time>2026-05-01T11:58:29.999Z</time></trkpt><trkpt lat="39.56094563434426" lon="8.59595814004836"><ele>165.0</ele><time>2026-05-01T11:58:30.999Z</time></trkpt><trkpt lat="39.56098280106698" lon="8.596075666327344"><ele>164.0</ele><time>2026-05-01T11:58:31.999Z</time></trkpt><trkpt lat="39.5610414409566" lon="8.596163426905777"><ele>163.0</ele><time>2026-05-01T11:58:32.999Z</time></trkpt><trkpt lat="39.56109283127546" lon="8.596283112112483"><ele>162.0</ele><time>2026-05-01T11:58:33.999Z</time></trkpt><trkpt lat="39.56114984843868" lon="8.596411242488172"><ele>161.0</ele><time>2026-05-01T11:58:34.999Z</time></trkpt><trkpt lat="39.56121086195164" lon="8.59654221855094"><ele>160.0</ele><time>2026-05-01T11:58:35.999Z</time></trkpt><trkpt lat="39.56127330096872" lon="8.596676797742235"><ele>159.0</ele><time>2026-05-01T11:58:36.999Z</time></trkpt><trkpt lat="39.56132593210188" lon="8.596817094739196"><ele>159.25</ele><time>2026-05-01T11:58:37.999Z</time></trkpt><trkpt lat="39.56137476861053" lon="8.596962851322349"><ele>159.5</ele><time>2026-05-01T11:58:38.999Z</time></trkpt><trkpt lat="39.561408326438986" lon="8.597125130590005"><ele>159.75</ele><time>2026-05-01T11:58:39.999Z</time></trkpt><trkpt lat="39.56145281175463" lon="8.597288549529734"><ele>160.0</ele><time>2026-05-01T11:58:40.999Z</time></trkpt><trkpt lat="39.56149371833377" lon="8.597453521428045"><ele>160.0</ele><time>2026-05-01T11:58:41.999Z</time></trkpt><trkpt lat="39.561544928292435" lon="8.597619194509416"><ele>160.0</ele><time>2026-05-01T11:58:42.999Z</time></trkpt><trkpt lat="39.56157569978247" lon="8.597796540567566"><ele>160.0</ele><time>2026-05-01T11:58:43.999Z</time></trkpt><trkpt lat="39.56160322410236" lon="8.597974745270694"><ele>160.0</ele><time>2026-05-01T11:58:44.999Z</time></trkpt><trkpt lat="39.56160574342159" lon="8.598146673676336"><ele>159.0</ele><time>2026-05-01T11:58:45.999Z</time></trkpt><trkpt lat="39.56161725089284" lon="8.598318600474567"><ele>158.0</ele><time>2026-05-01T11:58:46.999Z</time></trkpt><trkpt lat="39.56163896155248" lon="8.598501779010249"><ele>157.0</ele><time>2026-05-01T11:58:47.999Z</time></trkpt><trkpt lat="39.56163632192433" lon="8.59868819604769"><ele>156.0</ele><time>2026-05-01T11:58:48.999Z</time></trkpt><trkpt lat="39.56163065171428" lon="8.598870954978963"><ele>156.0</ele><time>2026-05-01T11:58:49.999Z</time></trkpt><trkpt lat="39.56162070715705" lon="8.599053038675603"><ele>156.0</ele><time>2026-05-01T11:58:50.999Z</time></trkpt><trkpt lat="39.56160392562856" lon="8.599230886098296"><ele>156.0</ele><time>2026-05-01T11:58:51.999Z</time></trkpt><trkpt lat="39.56158088246595" lon="8.599394796124836"><ele>156.0</ele><time>2026-05-01T11:58:52.999Z</time></trkpt><trkpt lat="39.561532789283206" lon="8.599542105682218"><ele>156.5</ele><time>2026-05-01T11:58:53.999Z</time></trkpt><trkpt lat="39.56149166459875" lon="8.599702968443658"><ele>157.0</ele><time>2026-05-01T11:58:54.999Z</time></trkpt><trkpt lat="39.56145313025369" lon="8.599872556195029"><ele>157.5</ele><time>2026-05-01T11:58:55.999Z</time></trkpt><trkpt lat="39.561411809766156" lon="8.600043294794169"><ele>158.0</ele><time>2026-05-01T11:58:56.998Z</time></trkpt><trkpt lat="39.5613565246507" lon="8.600210915748432"><ele>158.5</ele><time>2026-05-01T11:58:57.998Z</time></trkpt><trkpt lat="39.56129926157444" lon="8.600377410639112"><ele>159.0</ele><time>2026-05-01T11:58:58.998Z</time></trkpt><trkpt lat="39.5612526394653" lon="8.600524520532835"><ele>159.5</ele><time>2026-05-01T11:58:59.998Z</time></trkpt><trkpt lat="39.56122264027823" lon="8.60065709301995"><ele>160.0</ele><time>2026-05-01T11:59:00.998Z</time></trkpt><trkpt lat="39.56118685484115" lon="8.600784003761095"><ele>157.5</ele><time>2026-05-01T11:59:01.998Z</time></trkpt><trkpt lat="39.561129194829704" lon="8.600910609919234"><ele>155.0</ele><time>2026-05-01T11:59:02.998Z</time></trkpt><trkpt lat="39.561078170331" lon="8.601056936078642"><ele>152.5</ele><time>2026-05-01T11:59:03.998Z</time></trkpt><trkpt lat="39.56102704613759" lon="8.601202589640476"><ele>150.0</ele><time>2026-05-01T11:59:04.998Z</time></trkpt><trkpt lat="39.560975353833875" lon="8.60134986193704"><ele>149.75</ele><time>2026-05-01T11:59:05.998Z</time></trkpt><trkpt lat="39.5609382379039" lon="8.601505024610317"><ele>149.5</ele><time>2026-05-01T11:59:06.998Z</time></trkpt><trkpt lat="39.560883096455406" lon="8.601658228094276"><ele>149.25</ele><time>2026-05-01T11:59:07.998Z</time></trkpt><trkpt lat="39.56082709886298" lon="8.601817757900486"><ele>149.0</ele><time>2026-05-01T11:59:08.998Z</time></trkpt><trkpt lat="39.56077191303519" lon="8.601981495536753"><ele>148.75</ele><time>2026-05-01T11:59:09.998Z</time></trkpt><trkpt lat="39.560717088207625" lon="8.60214846456807"><ele>148.5</ele><time>2026-05-01T11:59:10.998Z</time></trkpt><trkpt lat="39.56064694260664" lon="8.602306061406136"><ele>148.25</ele><time>2026-05-01T11:59:11.998Z</time></trkpt><trkpt lat="39.560591466494614" lon="8.60247260997747"><ele>148.0</ele><time>2026-05-01T11:59:12.998Z</time></trkpt><trkpt lat="39.56055066938624" lon="8.602644889970682"><ele>148.0</ele><time>2026-05-01T11:59:13.998Z</time></trkpt><trkpt lat="39.56050113251141" lon="8.602799290565097"><ele>148.0</ele><time>2026-05-01T11:59:14.998Z</time></trkpt><trkpt lat="39.56043737646069" lon="8.602947641097193"><ele>148.0</ele><time>2026-05-01T11:59:15.998Z</time></trkpt><trkpt lat="39.56038999959322" lon="8.603111637922122"><ele>148.0</ele><time>2026-05-01T11:59:16.998Z</time></trkpt><trkpt lat="39.56034359331208" lon="8.603278192841442"><ele>147.25</ele><time>2026-05-01T11:59:17.998Z</time></trkpt><trkpt lat="39.56029874451591" lon="8.603450871413061"><ele>146.5</ele><time>2026-05-01T11:59:18.998Z</time></trkpt><trkpt lat="39.56025678309134" lon="8.603626467966397"><ele>145.75</ele><time>2026-05-01T11:59:19.998Z</time></trkpt><trkpt lat="39.56021761444065" lon="8.603803357063542"><ele>145.0</ele><time>2026-05-01T11:59:20.999Z</time></trkpt><trkpt lat="39.56018336855014" lon="8.603969753872272"><ele>144.25</ele><time>2026-05-01T11:59:21.999Z</time></trkpt><trkpt lat="39.56015021796477" lon="8.604136791888108"><ele>143.5</ele><time>2026-05-01T11:59:22.999Z</time></trkpt><trkpt lat="39.5601177173858" lon="8.604304735828181"><ele>142.75</ele><time>2026-05-01T11:59:23.999Z</time></trkpt><trkpt lat="39.56008588463857" lon="8.604478502480319"><ele>142.0</ele><time>2026-05-01T11:59:24.999Z</time></trkpt><trkpt lat="39.56005748930606" lon="8.604651708501407"><ele>141.0</ele><time>2026-05-01T11:59:25.999Z</time></trkpt><trkpt lat="39.56003060429082" lon="8.604832775260153"><ele>140.0</ele><time>2026-05-01T11:59:26.999Z</time></trkpt><trkpt lat="39.56000707405491" lon="8.605010786157049"><ele>139.0</ele><time>2026-05-01T11:59:27.999Z</time></trkpt><trkpt lat="39.55998520695959" lon="8.605188763077587"><ele>138.0</ele><time>2026-05-01T11:59:28.999Z</time></trkpt><trkpt lat="39.55996547997015" lon="8.605369612691353"><ele>137.75</ele><time>2026-05-01T11:59:29.999Z</time></trkpt><trkpt lat="39.55994833265642" lon="8.605551496847148"><ele>137.5</ele><time>2026-05-01T11:59:30.999Z</time></trkpt><trkpt lat="39.55993240055927" lon="8.605730973104357"><ele>137.25</ele><time>2026-05-01T11:59:31.999Z</time></trkpt><trkpt lat="39.5599183987492" lon="8.605908160202969"><ele>137.0</ele><time>2026-05-01T11:59:32.999Z</time></trkpt><trkpt lat="39.559906084363405" lon="8.606088375619876"><ele>136.5</ele><time>2026-05-01T11:59:33.999Z</time></trkpt><trkpt lat="39.55989906621767" lon="8.606264990326743"><ele>136.0</ele><time>2026-05-01T11:59:34.999Z</time></trkpt><trkpt lat="39.55989464721158" lon="8.606424660820466"><ele>135.5</ele><time>2026-05-01T11:59:35.999Z</time></trkpt><trkpt lat="39.559891080595285" lon="8.606604296141763"><ele>135.0</ele><time>2026-05-01T11:59:36.999Z</time></trkpt><trkpt lat="39.55989042933904" lon="8.606776977057908"><ele>135.0</ele><time>2026-05-01T11:59:37.999Z</time></trkpt><trkpt lat="39.55989046972465" lon="8.606950481577401"><ele>135.0</ele><time>2026-05-01T11:59:38.999Z</time></trkpt><trkpt lat="39.55989257857202" lon="8.607127580786212"><ele>135.0</ele><time>2026-05-01T11:59:39.999Z</time></trkpt><trkpt lat="39.559897635640674" lon="8.60730559663335"><ele>135.0</ele><time>2026-05-01T11:59:40.999Z</time></trkpt><trkpt lat="39.559906449319726" lon="8.607484088424249"><ele>134.5</ele><time>2026-05-01T11:59:41.999Z</time></trkpt><trkpt lat="39.55991465572662" lon="8.607650484637398"><ele>134.0</ele><time>2026-05-01T11:59:42.999Z</time></trkpt><trkpt lat="39.559925026421844" lon="8.607826594884996"><ele>133.5</ele><time>2026-05-01T11:59:43.999Z</time></trkpt><trkpt lat="39.55993990994236" lon="8.6079977496877"><ele>133.0</ele><time>2026-05-01T11:59:44.999Z</time></trkpt><trkpt lat="39.55995976095212" lon="8.608174472078984"><ele>132.5</ele><time>2026-05-01T11:59:45.999Z</time></trkpt><trkpt lat="39.559981761677726" lon="8.60835248331859"><ele>132.0</ele><time>2026-05-01T11:59:46.999Z</time></trkpt><trkpt lat="39.56002258888644" lon="8.608532990160727"><ele>131.5</ele><time>2026-05-01T11:59:47.999Z</time></trkpt><trkpt lat="39.56004573046293" lon="8.608715638586164"><ele>131.0</ele><time>2026-05-01T11:59:48.999Z</time></trkpt><trkpt lat="39.5600715377729" lon="8.608900298059474"><ele>131.0</ele><time>2026-05-01T11:59:49.999Z</time></trkpt><trkpt lat="39.560100100272095" lon="8.609084750390151"><ele>131.0</ele><time>2026-05-01T11:59:50.999Z</time></trkpt><trkpt lat="39.560111667944305" lon="8.609276952370298"><ele>131.0</ele><time>2026-05-01T11:59:51.999Z</time></trkpt><trkpt lat="39.56014009151541" lon="8.609467380520243"><ele>131.0</ele><time>2026-05-01T11:59:52.999Z</time></trkpt><trkpt lat="39.56016827885048" lon="8.609656225987584"><ele>130.75</ele><time>2026-05-01T11:59:53.999Z</time></trkpt><trkpt lat="39.560195374274564" lon="8.609845155421935"><ele>130.5</ele><time>2026-05-01T11:59:54.999Z</time></trkpt><trkpt lat="39.56022214505614" lon="8.610035795802888"><ele>130.25</ele><time>2026-05-01T11:59:55.999Z</time></trkpt><trkpt lat="39.56024888837824" lon="8.610224671849439"><ele>130.0</ele><time>2026-05-01T11:59:56.999Z</time></trkpt><trkpt lat="39.5602795287901" lon="8.610415330854329"><ele>130.5</ele><time>2026-05-01T11:59:57.999Z</time></trkpt><trkpt lat="39.560309536666345" lon="8.610602054012706"><ele>131.0</ele><time>2026-05-01T11:59:58.999Z</time></trkpt><trkpt lat="39.560338842678455" lon="8.610785779162457"><ele>131.5</ele><time>2026-05-01T11:59:59.999Z</time></trkpt><trkpt lat="39.560380009589935" lon="8.610964091945666"><ele>132.0</ele><time>2026-05-01T12:00:00.999Z</time></trkpt><trkpt lat="39.56040678896323" lon="8.611151211210748"><ele>130.33333333333334</ele><time>2026-05-01T12:00:01.999Z</time></trkpt><trkpt lat="39.56041857720655" lon="8.611342781728112"><ele>128.66666666666669</ele><time>2026-05-01T12:00:02.999Z</time></trkpt><trkpt lat="39.560449412655366" lon="8.611533167282628"><ele>127.0</ele><time>2026-05-01T12:00:03.999Z</time></trkpt><trkpt lat="39.56049860843233" lon="8.611721898681514"><ele>127.0</ele><time>2026-05-01T12:00:04.999Z</time></trkpt><trkpt lat="39.56051137007277" lon="8.611922683474653"><ele>127.0</ele><time>2026-05-01T12:00:05.999Z</time></trkpt><trkpt lat="39.56053904753115" lon="8.612116005253627"><ele>127.0</ele><time>2026-05-01T12:00:06.999Z</time></trkpt><trkpt lat="39.56056439074929" lon="8.612293022910738"><ele>127.0</ele><time>2026-05-01T12:00:07.999Z</time></trkpt><trkpt lat="39.56058948477808" lon="8.612477645529006"><ele>126.75</ele><time>2026-05-01T12:00:08.999Z</time></trkpt><trkpt lat="39.5606126993749" lon="8.612650760099731"><ele>126.5</ele><time>2026-05-01T12:00:09.999Z</time></trkpt><trkpt lat="39.56063733106112" lon="8.612819125126347"><ele>126.25</ele><time>2026-05-01T12:00:10.999Z</time></trkpt><trkpt lat="39.5606634645626" lon="8.61299591389531"><ele>126.0</ele><time>2026-05-01T12:00:11.999Z</time></trkpt><trkpt lat="39.560689899088274" lon="8.613174739156499"><ele>125.5</ele><time>2026-05-01T12:00:12.999Z</time></trkpt><trkpt lat="39.56071523995309" lon="8.61334280138606"><ele>125.0</ele><time>2026-05-01T12:00:13.999Z</time></trkpt><trkpt lat="39.560738842827504" lon="8.613493636977354"><ele>124.5</ele><time>2026-05-01T12:00:14.999Z</time></trkpt><trkpt lat="39.56076273200587" lon="8.613646302598305"><ele>124.0</ele><time>2026-05-01T12:00:15.999Z</time></trkpt><trkpt lat="39.56078757735721" lon="8.613805078461594"><ele>123.75</ele><time>2026-05-01T12:00:16.999Z</time></trkpt><trkpt lat="39.560813598871" lon="8.613967402765994"><ele>123.5</ele><time>2026-05-01T12:00:17.999Z</time></trkpt><trkpt lat="39.56084067900578" lon="8.614136096242362"><ele>123.25</ele><time>2026-05-01T12:00:18.999Z</time></trkpt><trkpt lat="39.56086819822369" lon="8.614307524946014"><ele>123.0</ele><time>2026-05-01T12:00:19.999Z</time></trkpt><trkpt lat="39.56089643940956" lon="8.61448345096992"><ele>123.0</ele><time>2026-05-01T12:00:20.999Z</time></trkpt><trkpt lat="39.560924651774705" lon="8.614663445920439"><ele>123.0</ele><time>2026-05-01T12:00:21.999Z</time></trkpt><trkpt lat="39.56094842487879" lon="8.614836509015687"><ele>123.0</ele><time>2026-05-01T12:00:22.999Z</time></trkpt><trkpt lat="39.56096947313217" lon="8.614995387771238"><ele>123.0</ele><time>2026-05-01T12:00:23.999Z</time></trkpt><trkpt lat="39.5609945954843" lon="8.615168793661457"><ele>122.66666666666666</ele><time>2026-05-01T12:00:24.999Z</time></trkpt><trkpt lat="39.561035769941334" lon="8.615352259387661"><ele>122.33333333333333</ele><time>2026-05-01T12:00:25.999Z</time></trkpt><trkpt lat="39.56106473955522" lon="8.61554770367317"><ele>122.0</ele><time>2026-05-01T12:00:26.999Z</time></trkpt><trkpt lat="39.56108310895183" lon="8.615747435894196"><ele>122.0</ele><time>2026-05-01T12:00:27.999Z</time></trkpt><trkpt lat="39.56113020013272" lon="8.615941129611768"><ele>122.0</ele><time>2026-05-01T12:00:28.999Z</time></trkpt><trkpt lat="39.561158853651115" lon="8.61613852435448"><ele>122.0</ele><time>2026-05-01T12:00:29.999Z</time></trkpt><trkpt lat="39.5611724906058" lon="8.61634083872255"><ele>121.0</ele><time>2026-05-01T12:00:30.999Z</time></trkpt><trkpt lat="39.56120182308023" lon="8.616539438162862"><ele>120.0</ele><time>2026-05-01T12:00:31.999Z</time></trkpt><trkpt lat="39.5612310702108" lon="8.616737459767524"><ele>119.0</ele><time>2026-05-01T12:00:32.999Z</time></trkpt><trkpt lat="39.561260571680975" lon="8.616937203367549"><ele>118.66666666666666</ele><time>2026-05-01T12:00:33.999Z</time></trkpt><trkpt lat="39.561289987268765" lon="8.617136365534895"><ele>118.33333333333334</ele><time>2026-05-01T12:00:34.999Z</time></trkpt><trkpt lat="39.56131916668356" lon="8.617333926209787"><ele>118.0</ele><time>2026-05-01T12:00:35.999Z</time></trkpt><trkpt lat="39.56134978428615" lon="8.617533072496904"><ele>118.0</ele><time>2026-05-01T12:00:36.999Z</time></trkpt><trkpt lat="39.56138194778586" lon="8.617731800956014"><ele>118.0</ele><time>2026-05-01T12:00:37.999Z</time></trkpt><trkpt lat="39.561412865396306" lon="8.617926575215277"><ele>118.0</ele><time>2026-05-01T12:00:38.999Z</time></trkpt><trkpt lat="39.56145719163235" lon="8.618116199301666"><ele>117.66666666666667</ele><time>2026-05-01T12:00:39.999Z</time></trkpt><trkpt lat="39.56148435895751" lon="8.61831611525736"><ele>117.33333333333334</ele><time>2026-05-01T12:00:40.999Z</time></trkpt><trkpt lat="39.56149689623192" lon="8.618522905567401"><ele>117.0</ele><time>2026-05-01T12:00:41.999Z</time></trkpt><trkpt lat="39.56152578998871" lon="8.61872539690779"><ele>116.66666666666666</ele><time>2026-05-01T12:00:42.999Z</time></trkpt><trkpt lat="39.56155437121396" lon="8.61892394947686"><ele>116.33333333333333</ele><time>2026-05-01T12:00:43.999Z</time></trkpt><trkpt lat="39.561594456700654" lon="8.6191150172211"><ele>116.0</ele><time>2026-05-01T12:00:44.999Z</time></trkpt><trkpt lat="39.56159446727285" lon="8.61930930304577"><ele>115.75</ele><time>2026-05-01T12:00:45.999Z</time></trkpt><trkpt lat="39.5616018009576" lon="8.619489924339735"><ele>115.5</ele><time>2026-05-01T12:00:46.999Z</time></trkpt><trkpt lat="39.56160447611071" lon="8.619659401794907"><ele>115.25</ele><time>2026-05-01T12:00:47.999Z</time></trkpt><trkpt lat="39.561604459497865" lon="8.619838919226531"><ele>115.0</ele><time>2026-05-01T12:00:48.999Z</time></trkpt><trkpt lat="39.5616004722976" lon="8.620024158764348"><ele>115.0</ele><time>2026-05-01T12:00:49.999Z</time></trkpt><trkpt lat="39.56159191241101" lon="8.620217690373776"><ele>115.0</ele><time>2026-05-01T12:00:50.999Z</time></trkpt><trkpt lat="39.56157699816146" lon="8.620412104477083"><ele>115.0</ele><time>2026-05-01T12:00:51.999Z</time></trkpt><trkpt lat="39.561555142853855" lon="8.620608757754624"><ele>114.66666666666667</ele><time>2026-05-01T12:00:52.999Z</time></trkpt><trkpt lat="39.561526476704806" lon="8.620806499538642"><ele>114.33333333333334</ele><time>2026-05-01T12:00:53.999Z</time></trkpt><trkpt lat="39.56149379738133" lon="8.621005559510243"><ele>114.0</ele><time>2026-05-01T12:00:54.999Z</time></trkpt><trkpt lat="39.561458505396295" lon="8.621193632059521"><ele>113.6</ele><time>2026-05-01T12:00:55.999Z</time></trkpt><trkpt lat="39.561424095895894" lon="8.621361315103126"><ele>113.2</ele><time>2026-05-01T12:00:56.999Z</time></trkpt><trkpt lat="39.561395374864745" lon="8.621498882118129"><ele>112.79999999999998</ele><time>2026-05-01T12:00:57.999Z</time></trkpt><trkpt lat="39.56137431803045" lon="8.621599739379368"><ele>112.39999999999999</ele><time>2026-05-01T12:00:58.999Z</time></trkpt><trkpt lat="39.56136907398886" lon="8.621696767660579"><ele>112.0</ele><time>2026-05-01T12:01:00.999Z</time></trkpt><trkpt lat="39.56121455068429" lon="8.62167132357017"><ele>112.75</ele><time>2026-05-01T12:01:04.998Z</time></trkpt><trkpt lat="39.56112684209297" lon="8.621622275884992"><ele>113.5</ele><time>2026-05-01T12:01:05.998Z</time></trkpt><trkpt lat="39.56101060948887" lon="8.621593686499343"><ele>114.25</ele><time>2026-05-01T12:01:06.998Z</time></trkpt><trkpt lat="39.56089462031645" lon="8.621528241498009"><ele>115.0</ele><time>2026-05-01T12:01:07.998Z</time></trkpt><trkpt lat="39.560773182356904" lon="8.621462243743993"><ele>115.0</ele><time>2026-05-01T12:01:08.998Z</time></trkpt><trkpt lat="39.56064318155324" lon="8.621375391323983"><ele>115.0</ele><time>2026-05-01T12:01:09.998Z</time></trkpt><trkpt lat="39.56050501508019" lon="8.621272140507457"><ele>115.0</ele><time>2026-05-01T12:01:10.998Z</time></trkpt><trkpt lat="39.5603592952725" lon="8.621186051716546"><ele>116.33333333333334</ele><time>2026-05-01T12:01:11.998Z</time></trkpt><trkpt lat="39.56022390466489" lon="8.621063301892876"><ele>117.66666666666666</ele><time>2026-05-01T12:01:12.998Z</time></trkpt><trkpt lat="39.56007664407323" lon="8.620951107617762"><ele>119.0</ele><time>2026-05-01T12:01:13.998Z</time></trkpt><trkpt lat="39.559931882781" lon="8.62082922982811"><ele>119.0</ele><time>2026-05-01T12:01:14.998Z</time></trkpt><trkpt lat="39.55979085424477" lon="8.620699995274567"><ele>119.0</ele><time>2026-05-01T12:01:15.998Z</time></trkpt><trkpt lat="39.55965044098935" lon="8.620567556719203"><ele>119.0</ele><time>2026-05-01T12:01:16.998Z</time></trkpt><trkpt lat="39.55950183098287" lon="8.620445006215034"><ele>122.0</ele><time>2026-05-01T12:01:17.998Z</time></trkpt><trkpt lat="39.559378866891706" lon="8.620280170481177"><ele>125.0</ele><time>2026-05-01T12:01:18.998Z</time></trkpt><trkpt lat="39.55925239418187" lon="8.620123225707887"><ele>128.0</ele><time>2026-05-01T12:01:19.998Z</time></trkpt><trkpt lat="39.55911738395074" lon="8.619972334316683"><ele>128.0</ele><time>2026-05-01T12:01:20.998Z</time></trkpt><trkpt lat="39.55899561112849" lon="8.61980536988306"><ele>128.0</ele><time>2026-05-01T12:01:21.998Z</time></trkpt><trkpt lat="39.55887478124913" lon="8.619640309451865"><ele>128.0</ele><time>2026-05-01T12:01:22.998Z</time></trkpt><trkpt lat="39.558774415010824" lon="8.619463672274803"><ele>128.66666666666666</ele><time>2026-05-01T12:01:23.998Z</time></trkpt><trkpt lat="39.55867848775879" lon="8.619286806994431"><ele>129.33333333333334</ele><time>2026-05-01T12:01:24.998Z</time></trkpt><trkpt lat="39.55858127093603" lon="8.619115777857138"><ele>130.0</ele><time>2026-05-01T12:01:25.998Z</time></trkpt><trkpt lat="39.55850629888514" lon="8.6189354007203"><ele>130.0</ele><time>2026-05-01T12:01:26.999Z</time></trkpt><trkpt lat="39.5584203030342" lon="8.618770192968363"><ele>130.0</ele><time>2026-05-01T12:01:27.999Z</time></trkpt><trkpt lat="39.55832323419761" lon="8.618620153449719"><ele>130.0</ele><time>2026-05-01T12:01:28.999Z</time></trkpt><trkpt lat="39.55820733778334" lon="8.618491992064161"><ele>131.33333333333334</ele><time>2026-05-01T12:01:29.999Z</time></trkpt><trkpt lat="39.55808640421985" lon="8.618362059864149"><ele>132.66666666666666</ele><time>2026-05-01T12:01:30.999Z</time></trkpt><trkpt lat="39.55794382380624" lon="8.618254633897608"><ele>134.0</ele><time>2026-05-01T12:01:31.999Z</time></trkpt><trkpt lat="39.557801830131744" lon="8.618158867191664"><ele>134.0</ele><time>2026-05-01T12:01:32.999Z</time></trkpt><trkpt lat="39.55766288961548" lon="8.618059246862307"><ele>134.0</ele><time>2026-05-01T12:01:33.999Z</time></trkpt><trkpt lat="39.55753310398947" lon="8.61793998080504"><ele>134.0</ele><time>2026-05-01T12:01:34.999Z</time></trkpt><trkpt lat="39.557411449367635" lon="8.617803721419932"><ele>135.33333333333331</ele><time>2026-05-01T12:01:35.999Z</time></trkpt><trkpt lat="39.557300467750615" lon="8.617648300253782"><ele>136.66666666666666</ele><time>2026-05-01T12:01:36.999Z</time></trkpt><trkpt lat="39.55719278599125" lon="8.617491582735806"><ele>138.0</ele><time>2026-05-01T12:01:37.999Z</time></trkpt><trkpt lat="39.55707658118377" lon="8.617345677054669"><ele>137.8</ele><time>2026-05-01T12:01:38.999Z</time></trkpt><trkpt lat="39.557011385798056" lon="8.617218951959666"><ele>137.60000000000002</ele><time>2026-05-01T12:01:39.999Z</time></trkpt><trkpt lat="39.556968943122904" lon="8.617094615571943"><ele>137.39999999999998</ele><time>2026-05-01T12:01:49.999Z</time></trkpt><trkpt lat="39.556919037364345" lon="8.617025004538341"><ele>137.2</ele><time>2026-05-01T12:01:50.999Z</time></trkpt><trkpt lat="39.556833176642805" lon="8.616975961884433"><ele>137.0</ele><time>2026-05-01T12:01:51.999Z</time></trkpt><trkpt lat="39.55676316087326" lon="8.616877346402804"><ele>137.0</ele><time>2026-05-01T12:01:52.999Z</time></trkpt><trkpt lat="39.55670574293176" lon="8.616815429241798"><ele>137.0</ele><time>2026-05-01T12:01:53.999Z</time></trkpt><trkpt lat="39.55665211300081" lon="8.61676057280271"><ele>137.0</ele><time>2026-05-01T12:01:56.999Z</time></trkpt><trkpt lat="39.55683614301476" lon="8.617113977018683"><ele>137.0</ele><time>2026-05-01T12:02:01.999Z</time></trkpt><trkpt lat="39.556780027660785" lon="8.616919368254253"><ele>137.0</ele><time>2026-05-01T12:02:02.999Z</time></trkpt><trkpt lat="39.55684053509793" lon="8.616975992566516"><ele>137.0</ele><time>2026-05-01T12:02:03.999Z</time></trkpt><trkpt lat="39.556889861045974" lon="8.617032842012632"><ele>137.0</ele><time>2026-05-01T12:02:04.999Z</time></trkpt><trkpt lat="39.556947990099616" lon="8.617112361422897"><ele>137.0</ele><time>2026-05-01T12:02:06.999Z</time></trkpt><trkpt lat="39.556907603107106" lon="8.617191159666158"><ele>137.0</ele><time>2026-05-01T12:02:08.999Z</time></trkpt><trkpt lat="39.5568379602375" lon="8.617248038083886"><ele>137.0</ele><time>2026-05-01T12:02:09.999Z</time></trkpt><trkpt lat="39.55674670078644" lon="8.617322072188125"><ele>137.0</ele><time>2026-05-01T12:02:10.999Z</time></trkpt><trkpt lat="39.556653953912445" lon="8.61740036342528"><ele>137.0</ele><time>2026-05-01T12:02:11.999Z</time></trkpt><trkpt lat="39.5565629328653" lon="8.617475509171914"><ele>137.0</ele><time>2026-05-01T12:02:12.999Z</time></trkpt><trkpt lat="39.55646611293218" lon="8.617557946181197"><ele>137.0</ele><time>2026-05-01T12:02:13.999Z</time></trkpt><trkpt lat="39.556364969734716" lon="8.61765014956857"><ele>137.0</ele><time>2026-05-01T12:02:14.999Z</time></trkpt><trkpt lat="39.556279825130574" lon="8.617752029137295"><ele>137.0</ele><time>2026-05-01T12:02:15.999Z</time></trkpt><trkpt lat="39.55622148858143" lon="8.617883498954006"><ele>137.0</ele><time>2026-05-01T12:02:16.999Z</time></trkpt><trkpt lat="39.556198710054524" lon="8.618049554843203"><ele>136.0</ele><time>2026-05-01T12:02:17.999Z</time></trkpt><trkpt lat="39.5562078119465" lon="8.618238263521562"><ele>135.0</ele><time>2026-05-01T12:02:18.999Z</time></trkpt><trkpt lat="39.55620948338527" lon="8.618427665236746"><ele>134.0</ele><time>2026-05-01T12:02:19.999Z</time></trkpt><trkpt lat="39.55621677742746" lon="8.618603757822607"><ele>133.0</ele><time>2026-05-01T12:02:20.999Z</time></trkpt><trkpt lat="39.55622161090872" lon="8.618770421060749"><ele>132.5</ele><time>2026-05-01T12:02:21.999Z</time></trkpt><trkpt lat="39.556218560011445" lon="8.618930467592886"><ele>132.0</ele><time>2026-05-01T12:02:22.999Z</time></trkpt><trkpt lat="39.556196156195504" lon="8.619085330071396"><ele>131.5</ele><time>2026-05-01T12:02:23.999Z</time></trkpt><trkpt lat="39.55614734994297" lon="8.619242804031172"><ele>131.0</ele><time>2026-05-01T12:02:24.999Z</time></trkpt><trkpt lat="39.55607103502153" lon="8.619394138942937"><ele>129.66666666666666</ele><time>2026-05-01T12:02:25.999Z</time></trkpt><trkpt lat="39.55598616112601" lon="8.619552832596405"><ele>128.33333333333334</ele><time>2026-05-01T12:02:26.999Z</time></trkpt><trkpt lat="39.555896132081095" lon="8.619715613564972"><ele>127.0</ele><time>2026-05-01T12:02:27.999Z</time></trkpt><trkpt lat="39.55580325888052" lon="8.61988137581707"><ele>127.0</ele><time>2026-05-01T12:02:28.999Z</time></trkpt><trkpt lat="39.55571394326388" lon="8.620042490450619"><ele>127.0</ele><time>2026-05-01T12:02:29.999Z</time></trkpt><trkpt lat="39.55562521728156" lon="8.62020380490132"><ele>127.0</ele><time>2026-05-01T12:02:30.999Z</time></trkpt><trkpt lat="39.55552966664339" lon="8.620365740250717"><ele>125.66666666666667</ele><time>2026-05-01T12:02:31.999Z</time></trkpt><trkpt lat="39.55542791591326" lon="8.620521256519254"><ele>124.33333333333334</ele><time>2026-05-01T12:02:32.999Z</time></trkpt><trkpt lat="39.55531108138213" lon="8.620661474076465"><ele>123.0</ele><time>2026-05-01T12:02:33.999Z</time></trkpt><trkpt lat="39.55517928145302" lon="8.620790415924112"><ele>121.66666666666666</ele><time>2026-05-01T12:02:34.999Z</time></trkpt><trkpt lat="39.555046521382366" lon="8.620909761795177"><ele>120.33333333333333</ele><time>2026-05-01T12:02:35.999Z</time></trkpt><trkpt lat="39.55492310261865" lon="8.621046235412333"><ele>119.0</ele><time>2026-05-01T12:02:36.999Z</time></trkpt><trkpt lat="39.554781515789465" lon="8.621151374646555"><ele>119.33333333333333</ele><time>2026-05-01T12:02:37.999Z</time></trkpt><trkpt lat="39.55464475360359" lon="8.621274583832257"><ele>119.66666666666666</ele><time>2026-05-01T12:02:38.999Z</time></trkpt><trkpt lat="39.554512573977235" lon="8.621395292466095"><ele>120.0</ele><time>2026-05-01T12:02:39.999Z</time></trkpt><trkpt lat="39.55438409840567" lon="8.621522816149211"><ele>120.0</ele><time>2026-05-01T12:02:40.999Z</time></trkpt><trkpt lat="39.554276016260445" lon="8.621674616795268"><ele>120.0</ele><time>2026-05-01T12:02:41.999Z</time></trkpt><trkpt lat="39.5541651230285" lon="8.621818087648876"><ele>120.0</ele><time>2026-05-01T12:02:42.999Z</time></trkpt><trkpt lat="39.55406021081013" lon="8.621967379136708"><ele>119.5</ele><time>2026-05-01T12:02:43.999Z</time></trkpt><trkpt lat="39.55396292182811" lon="8.622109014232544"><ele>119.0</ele><time>2026-05-01T12:02:44.999Z</time></trkpt><trkpt lat="39.55387256799222" lon="8.622254682979895"><ele>118.5</ele><time>2026-05-01T12:02:45.999Z</time></trkpt><trkpt lat="39.55381169625872" lon="8.622427151010285"><ele>118.0</ele><time>2026-05-01T12:02:46.999Z</time></trkpt><trkpt lat="39.553781281709014" lon="8.622627209652297"><ele>117.66666666666667</ele><time>2026-05-01T12:02:47.999Z</time></trkpt><trkpt lat="39.553774387667495" lon="8.622838167486794"><ele>117.33333333333334</ele><time>2026-05-01T12:02:48.999Z</time></trkpt><trkpt lat="39.55374964042315" lon="8.623039258945946"><ele>117.0</ele><time>2026-05-01T12:02:49.999Z</time></trkpt><trkpt lat="39.553729775150636" lon="8.623225057249956"><ele>118.0</ele><time>2026-05-01T12:02:50.999Z</time></trkpt><trkpt lat="39.55369813147786" lon="8.623388017822748"><ele>119.0</ele><time>2026-05-01T12:02:51.999Z</time></trkpt><trkpt lat="39.55362826170694" lon="8.623526968772742"><ele>120.0</ele><time>2026-05-01T12:02:52.999Z</time></trkpt><trkpt lat="39.553504849242294" lon="8.623610193024138"><ele>121.0</ele><time>2026-05-01T12:02:53.999Z</time></trkpt><trkpt lat="39.553365446082466" lon="8.623705663712485"><ele>121.0</ele><time>2026-05-01T12:02:54.999Z</time></trkpt><trkpt lat="39.553228480058685" lon="8.623822817576652"><ele>121.0</ele><time>2026-05-01T12:02:55.999Z</time></trkpt><trkpt lat="39.553078949388336" lon="8.623920647238364"><ele>121.0</ele><time>2026-05-01T12:02:56.999Z</time></trkpt><trkpt lat="39.552930164926074" lon="8.62402107865929"><ele>121.33333333333334</ele><time>2026-05-01T12:02:57.999Z</time></trkpt><trkpt lat="39.552781390415404" lon="8.624124881482075"><ele>121.66666666666666</ele><time>2026-05-01T12:02:58.999Z</time></trkpt><trkpt lat="39.552624532870546" lon="8.624209441044066"><ele>122.0</ele><time>2026-05-01T12:02:59.999Z</time></trkpt><trkpt lat="39.552474363167235" lon="8.624301798977596"><ele>122.0</ele><time>2026-05-01T12:03:00.999Z</time></trkpt><trkpt lat="39.55232085089023" lon="8.624379812629655"><ele>122.0</ele><time>2026-05-01T12:03:01.999Z</time></trkpt><trkpt lat="39.552159040121346" lon="8.624436229563765"><ele>122.0</ele><time>2026-05-01T12:03:02.999Z</time></trkpt><trkpt lat="39.5519964664321" lon="8.62448614295931"><ele>120.66666666666666</ele><time>2026-05-01T12:03:03.999Z</time></trkpt><trkpt lat="39.551834418757025" lon="8.624535228888233"><ele>119.33333333333334</ele><time>2026-05-01T12:03:04.999Z</time></trkpt><trkpt lat="39.55166907305143" lon="8.624583834351679"><ele>118.0</ele><time>2026-05-01T12:03:05.999Z</time></trkpt><trkpt lat="39.55150218195044" lon="8.624653610455988"><ele>118.0</ele><time>2026-05-01T12:03:06.999Z</time></trkpt><trkpt lat="39.551325980387496" lon="8.62470623130261"><ele>118.0</ele><time>2026-05-01T12:03:07.999Z</time></trkpt><trkpt lat="39.55114877955197" lon="8.62473678137578"><ele>118.0</ele><time>2026-05-01T12:03:08.999Z</time></trkpt><trkpt lat="39.55097050995686" lon="8.624790437192983"><ele>118.0</ele><time>2026-05-01T12:03:09.999Z</time></trkpt><trkpt lat="39.550796567411936" lon="8.624846212061755"><ele>118.0</ele><time>2026-05-01T12:03:10.999Z</time></trkpt><trkpt lat="39.55063683498949" lon="8.624928262043852"><ele>118.0</ele><time>2026-05-01T12:03:11.998Z</time></trkpt><trkpt lat="39.55048309027357" lon="8.625002438527975"><ele>119.0</ele><time>2026-05-01T12:03:12.998Z</time></trkpt><trkpt lat="39.55033379157241" lon="8.625088204346499"><ele>120.0</ele><time>2026-05-01T12:03:13.998Z</time></trkpt><trkpt lat="39.55018284642978" lon="8.625182182449466"><ele>121.0</ele><time>2026-05-01T12:03:14.998Z</time></trkpt><trkpt lat="39.55002598100167" lon="8.625253776276063"><ele>119.0</ele><time>2026-05-01T12:03:15.998Z</time></trkpt><trkpt lat="39.54987378209127" lon="8.625345319447023"><ele>117.0</ele><time>2026-05-01T12:03:16.998Z</time></trkpt><trkpt lat="39.549721622696424" lon="8.6254368387922"><ele>115.0</ele><time>2026-05-01T12:03:17.998Z</time></trkpt><trkpt lat="39.54957683792985" lon="8.625549704417843"><ele>115.66666666666667</ele><time>2026-05-01T12:03:18.998Z</time></trkpt><trkpt lat="39.54942434312861" lon="8.625642106651858"><ele>116.33333333333334</ele><time>2026-05-01T12:03:19.998Z</time></trkpt><trkpt lat="39.549270484318015" lon="8.625733228354154"><ele>117.0</ele><time>2026-05-01T12:03:20.998Z</time></trkpt><trkpt lat="39.54911312299114" lon="8.625813531924477"><ele>117.0</ele><time>2026-05-01T12:03:21.998Z</time></trkpt><trkpt lat="39.54894594502334" lon="8.625843768614441"><ele>117.0</ele><time>2026-05-01T12:03:22.998Z</time></trkpt><trkpt lat="39.54878120276368" lon="8.625858070521675"><ele>117.0</ele><time>2026-05-01T12:03:23.998Z</time></trkpt><trkpt lat="39.548616159229006" lon="8.625862331834124"><ele>118.0</ele><time>2026-05-01T12:03:24.998Z</time></trkpt><trkpt lat="39.54845235314331" lon="8.625864552150906"><ele>119.0</ele><time>2026-05-01T12:03:25.998Z</time></trkpt><trkpt lat="39.54829136343301" lon="8.625866734288882"><ele>120.0</ele><time>2026-05-01T12:03:26.998Z</time></trkpt><trkpt lat="39.54813287590205" lon="8.625869976546456"><ele>120.0</ele><time>2026-05-01T12:03:27.998Z</time></trkpt><trkpt lat="39.54797944135371" lon="8.625874128350228"><ele>120.0</ele><time>2026-05-01T12:03:28.998Z</time></trkpt><trkpt lat="39.547833507259746" lon="8.625878613522508"><ele>120.0</ele><time>2026-05-01T12:03:29.998Z</time></trkpt><trkpt lat="39.54770029308833" lon="8.625889872342361"><ele>120.0</ele><time>2026-05-01T12:03:30.998Z</time></trkpt><trkpt lat="39.547579641951764" lon="8.62592886932696"><ele>120.0</ele><time>2026-05-01T12:03:31.998Z</time></trkpt><trkpt lat="39.54746399408313" lon="8.625964985044874"><ele>120.0</ele><time>2026-05-01T12:03:32.999Z</time></trkpt><trkpt lat="39.54734217340485" lon="8.625998634634044"><ele>120.0</ele><time>2026-05-01T12:03:33.999Z</time></trkpt><trkpt lat="39.54722499800502" lon="8.626054457632511"><ele>120.0</ele><time>2026-05-01T12:03:34.999Z</time></trkpt><trkpt lat="39.54711532073743" lon="8.62610926040065"><ele>119.5</ele><time>2026-05-01T12:03:35.999Z</time></trkpt><trkpt lat="39.54701041276755" lon="8.6261487007231"><ele>119.0</ele><time>2026-05-01T12:03:36.999Z</time></trkpt><trkpt lat="39.546893042591876" lon="8.626170601384322"><ele>118.5</ele><time>2026-05-01T12:03:37.999Z</time></trkpt><trkpt lat="39.546771798755096" lon="8.626174921501624"><ele>118.0</ele><time>2026-05-01T12:03:38.999Z</time></trkpt><trkpt lat="39.54665310002618" lon="8.626178829845122"><ele>118.0</ele><time>2026-05-01T12:03:39.999Z</time></trkpt><trkpt lat="39.54654376367568" lon="8.62618247439349"><ele>118.00000000000001</ele><time>2026-05-01T12:03:40.999Z</time></trkpt><trkpt lat="39.54644106618548" lon="8.626185897639465"><ele>118.00000000000001</ele><time>2026-05-01T12:03:41.999Z</time></trkpt><trkpt lat="39.54634393231504" lon="8.626189686639053"><ele>118.0</ele><time>2026-05-01T12:03:42.999Z</time></trkpt><trkpt lat="39.546254521741105" lon="8.626193397279666"><ele>118.0</ele><time>2026-05-01T12:03:43.999Z</time></trkpt><trkpt lat="39.546171444690515" lon="8.626196703485345"><ele>118.00000000000001</ele><time>2026-05-01T12:03:44.999Z</time></trkpt><trkpt lat="39.54609370810346" lon="8.62619911363951"><ele>118.0</ele><time>2026-05-01T12:03:45.999Z</time></trkpt><trkpt lat="39.54602109664723" lon="8.626201364903425"><ele>118.0</ele><time>2026-05-01T12:03:46.999Z</time></trkpt><trkpt lat="39.545952461288564" lon="8.626202977011333"><ele>118.0</ele><time>2026-05-01T12:03:47.999Z</time></trkpt><trkpt lat="39.54588648037151" lon="8.626201480405156"><ele>118.00000000000001</ele><time>2026-05-01T12:03:48.999Z</time></trkpt><trkpt lat="39.54581800378723" lon="8.626215949716096"><ele>118.0</ele><time>2026-05-01T12:03:49.999Z</time></trkpt><trkpt lat="39.54570477472383" lon="8.626173920208943"><ele>118.2</ele><time>2026-05-01T12:03:51.999Z</time></trkpt><trkpt lat="39.54560861334135" lon="8.626112766800771"><ele>118.4</ele><time>2026-05-01T12:03:53.999Z</time></trkpt><trkpt lat="39.54551713849506" lon="8.625986085899752"><ele>118.60000000000001</ele><time>2026-05-01T12:03:55.999Z</time></trkpt><trkpt lat="39.5454477698587" lon="8.625928551692795"><ele>118.80000000000001</ele><time>2026-05-01T12:03:56.999Z</time></trkpt><trkpt lat="39.54539389205207" lon="8.625861889334768"><ele>119.0</ele><time>2026-05-01T12:03:57.999Z</time></trkpt><trkpt lat="39.54534555096978" lon="8.625781297747883"><ele>118.99999999999999</ele><time>2026-05-01T12:03:58.999Z</time></trkpt><trkpt lat="39.54526957062183" lon="8.625724153114266"><ele>119.0</ele><time>2026-05-01T12:03:59.999Z</time></trkpt><trkpt lat="39.545172070613546" lon="8.625709684633858"><ele>119.0</ele><time>2026-05-01T12:04:00.999Z</time></trkpt><trkpt lat="39.54508766766537" lon="8.625702888789547"><ele>119.0</ele><time>2026-05-01T12:04:01.999Z</time></trkpt><trkpt lat="39.54501222937191" lon="8.625678098268631"><ele>118.99999999999999</ele><time>2026-05-01T12:04:02.999Z</time></trkpt><trkpt lat="39.54493142922937" lon="8.625668831140938"><ele>119.0</ele><time>2026-05-01T12:04:03.999Z</time></trkpt><trkpt lat="39.54483929276828" lon="8.625658849258846"><ele>119.0</ele><time>2026-05-01T12:04:04.999Z</time></trkpt><trkpt lat="39.5447385725561" lon="8.62565007977652"><ele>119.0</ele><time>2026-05-01T12:04:05.999Z</time></trkpt><trkpt lat="39.54463376540237" lon="8.625643373229368"><ele>119.0</ele><time>2026-05-01T12:04:06.999Z</time></trkpt><trkpt lat="39.54452931151742" lon="8.625645302455368"><ele>119.0</ele><time>2026-05-01T12:04:07.999Z</time></trkpt><trkpt lat="39.54443612046536" lon="8.625665397852742"><ele>119.0</ele><time>2026-05-01T12:04:08.999Z</time></trkpt><trkpt lat="39.544350280945416" lon="8.625724088680316"><ele>119.0</ele><time>2026-05-01T12:04:09.999Z</time></trkpt><trkpt lat="39.544256777939985" lon="8.625775669249485"><ele>119.0</ele><time>2026-05-01T12:04:10.999Z</time></trkpt><trkpt lat="39.544158100945936" lon="8.625828037921941"><ele>119.0</ele><time>2026-05-01T12:04:11.999Z</time></trkpt><trkpt lat="39.5440859434375" lon="8.625929665765197"><ele>119.0</ele><time>2026-05-01T12:04:12.999Z</time></trkpt><trkpt lat="39.54402563189489" lon="8.626035545159448"><ele>119.0</ele><time>2026-05-01T12:04:13.999Z</time></trkpt><trkpt lat="39.543975375769236" lon="8.626133476542364"><ele>118.6</ele><time>2026-05-01T12:04:14.999Z</time></trkpt><trkpt lat="39.543943924268" lon="8.626241097311993"><ele>118.2</ele><time>2026-05-01T12:04:15.999Z</time></trkpt><trkpt lat="39.543901849940035" lon="8.6263419628627"><ele>117.79999999999998</ele><time>2026-05-01T12:04:16.999Z</time></trkpt><trkpt lat="39.54384942596598" lon="8.626449670230343"><ele>117.39999999999999</ele><time>2026-05-01T12:04:17.999Z</time></trkpt><trkpt lat="39.543834477404666" lon="8.626579067608581"><ele>117.0</ele><time>2026-05-01T12:04:18.999Z</time></trkpt><trkpt lat="39.54380270164383" lon="8.62669020919161"><ele>117.0</ele><time>2026-05-01T12:04:19.999Z</time></trkpt><trkpt lat="39.543792869238246" lon="8.626798109837194"><ele>116.99999999999999</ele><time>2026-05-01T12:04:20.999Z</time></trkpt><trkpt lat="39.54380646261206" lon="8.626906718599212"><ele>116.99999999999999</ele><time>2026-05-01T12:04:21.999Z</time></trkpt><trkpt lat="39.54379962100022" lon="8.627025463602989"><ele>117.0</ele><time>2026-05-01T12:04:22.999Z</time></trkpt><trkpt lat="39.54379883862918" lon="8.62715468211805"><ele>117.0</ele><time>2026-05-01T12:04:23.999Z</time></trkpt><trkpt lat="39.543798935880595" lon="8.627282167284857"><ele>117.0</ele><time>2026-05-01T12:04:24.999Z</time></trkpt><trkpt lat="39.54379480938411" lon="8.62740226785846"><ele>117.0</ele><time>2026-05-01T12:04:25.999Z</time></trkpt><trkpt lat="39.54378458658545" lon="8.627515020753286"><ele>117.0</ele><time>2026-05-01T12:04:26.999Z</time></trkpt><trkpt lat="39.543766215244595" lon="8.627620833311543"><ele>117.0</ele><time>2026-05-01T12:04:27.999Z</time></trkpt><trkpt lat="39.543723865316345" lon="8.627713724841323"><ele>117.0</ele><time>2026-05-01T12:04:28.999Z</time></trkpt><trkpt lat="39.543693023030194" lon="8.627813974733277"><ele>117.0</ele><time>2026-05-01T12:04:29.999Z</time></trkpt><trkpt lat="39.54367228570968" lon="8.627929755483896"><ele>117.19999999999999</ele><time>2026-05-01T12:04:30.999Z</time></trkpt><trkpt lat="39.54363950673921" lon="8.628039632811616"><ele>117.39999999999999</ele><time>2026-05-01T12:04:31.999Z</time></trkpt><trkpt lat="39.54360272412677" lon="8.628157429454246"><ele>117.60000000000001</ele><time>2026-05-01T12:04:32.999Z</time></trkpt><trkpt lat="39.54356240239077" lon="8.628276252478772"><ele>117.80000000000001</ele><time>2026-05-01T12:04:33.999Z</time></trkpt><trkpt lat="39.54352472185546" lon="8.628398121922979"><ele>118.0</ele><time>2026-05-01T12:04:34.999Z</time></trkpt><trkpt lat="39.543490213053715" lon="8.628524386714144"><ele>117.60000000000001</ele><time>2026-05-01T12:04:35.999Z</time></trkpt><trkpt lat="39.543454703816245" lon="8.628647025174631"><ele>117.20000000000002</ele><time>2026-05-01T12:04:36.999Z</time></trkpt><trkpt lat="39.543419901952774" lon="8.628761049997685"><ele>116.8</ele><time>2026-05-01T12:04:37.999Z</time></trkpt><trkpt lat="39.543387731617564" lon="8.628870673197744"><ele>116.4</ele><time>2026-05-01T12:04:38.999Z</time></trkpt><trkpt lat="39.543341423951375" lon="8.62897086832332"><ele>116.0</ele><time>2026-05-01T12:04:39.999Z</time></trkpt><trkpt lat="39.54330921288098" lon="8.629074672611026"><ele>116.0</ele><time>2026-05-01T12:04:40.999Z</time></trkpt><trkpt lat="39.54327778141602" lon="8.629194189264652"><ele>116.0</ele><time>2026-05-01T12:04:41.999Z</time></trkpt><trkpt lat="39.543252198223314" lon="8.629320007272423"><ele>116.0</ele><time>2026-05-01T12:04:42.999Z</time></trkpt><trkpt lat="39.54324255707857" lon="8.629450534863166"><ele>116.0</ele><time>2026-05-01T12:04:43.999Z</time></trkpt><trkpt lat="39.54322792103269" lon="8.629581602079481"><ele>116.0</ele><time>2026-05-01T12:04:44.999Z</time></trkpt><trkpt lat="39.54322960991192" lon="8.629712229833334"><ele>116.0</ele><time>2026-05-01T12:04:45.999Z</time></trkpt><trkpt lat="39.54324434476895" lon="8.629831611872303"><ele>116.0</ele><time>2026-05-01T12:04:46.999Z</time></trkpt><trkpt lat="39.5432582857376" lon="8.62994572790093"><ele>116.0</ele><time>2026-05-01T12:04:47.999Z</time></trkpt><trkpt lat="39.54326461538275" lon="8.63005124516904"><ele>116.0</ele><time>2026-05-01T12:04:48.999Z</time></trkpt><trkpt lat="39.54326973170479" lon="8.630147653544029"><ele>116.0</ele><time>2026-05-01T12:04:49.999Z</time></trkpt><trkpt lat="39.543270545417776" lon="8.63029225052928"><ele>115.4</ele><time>2026-05-01T12:04:51.999Z</time></trkpt><trkpt lat="39.54326401958393" lon="8.630394250054579"><ele>114.8</ele><time>2026-05-01T12:04:52.999Z</time></trkpt><trkpt lat="39.543253804979" lon="8.630518749237165"><ele>114.20000000000002</ele><time>2026-05-01T12:04:53.999Z</time></trkpt><trkpt lat="39.54325560444912" lon="8.630660933281257"><ele>113.60000000000001</ele><time>2026-05-01T12:04:54.999Z</time></trkpt><trkpt lat="39.54323134266976" lon="8.630804366892702"><ele>113.0</ele><time>2026-05-01T12:04:55.999Z</time></trkpt><trkpt lat="39.54321570654194" lon="8.630952008378195"><ele>113.0</ele><time>2026-05-01T12:04:56.999Z</time></trkpt><trkpt lat="39.54320085967693" lon="8.631104660063034"><ele>113.0</ele><time>2026-05-01T12:04:57.999Z</time></trkpt><trkpt lat="39.54319009704679" lon="8.631262084556994"><ele>113.0</ele><time>2026-05-01T12:04:58.999Z</time></trkpt><trkpt lat="39.54317671600601" lon="8.63141845410962"><ele>113.0</ele><time>2026-05-01T12:04:59.999Z</time></trkpt><trkpt lat="39.54316119560749" lon="8.631571961464148"><ele>113.5</ele><time>2026-05-01T12:05:00.999Z</time></trkpt><trkpt lat="39.54314865023282" lon="8.631723637238034"><ele>114.0</ele><time>2026-05-01T12:05:01.999Z</time></trkpt><trkpt lat="39.54313361188821" lon="8.631873409935434"><ele>114.5</ele><time>2026-05-01T12:05:02.999Z</time></trkpt><trkpt lat="39.54310375318813" lon="8.6320209564531"><ele>115.0</ele><time>2026-05-01T12:05:03.999Z</time></trkpt><trkpt lat="39.543088218765334" lon="8.632171017310078"><ele>115.0</ele><time>2026-05-01T12:05:04.999Z</time></trkpt><trkpt lat="39.54307224491947" lon="8.632324284008948"><ele>115.0</ele><time>2026-05-01T12:05:05.999Z</time></trkpt><trkpt lat="39.54305680456038" lon="8.632472658385693"><ele>115.0</ele><time>2026-05-01T12:05:06.999Z</time></trkpt><trkpt lat="39.543042796419236" lon="8.632607269647721"><ele>115.0</ele><time>2026-05-01T12:05:07.999Z</time></trkpt><trkpt lat="39.54302930428566" lon="8.632730409832"><ele>115.0</ele><time>2026-05-01T12:05:08.999Z</time></trkpt><trkpt lat="39.54299900975743" lon="8.632824922249482"><ele>115.16666666666667</ele><time>2026-05-01T12:05:09.999Z</time></trkpt><trkpt lat="39.54295770525148" lon="8.632909648013877"><ele>115.33333333333334</ele><time>2026-05-01T12:05:10.999Z</time></trkpt><trkpt lat="39.54288645628559" lon="8.632955543428304"><ele>115.5</ele><time>2026-05-01T12:05:11.999Z</time></trkpt><trkpt lat="39.542834397375515" lon="8.633004796097111"><ele>115.66666666666666</ele><time>2026-05-01T12:05:12.999Z</time></trkpt><trkpt lat="39.542797809405634" lon="8.633155392541425"><ele>115.83333333333333</ele><time>2026-05-01T12:05:14.999Z</time></trkpt><trkpt lat="39.54285802717382" lon="8.633231307306502"><ele>116.0</ele><time>2026-05-01T12:05:15.999Z</time></trkpt><trkpt lat="39.542930813652504" lon="8.633291027567882"><ele>116.0</ele><time>2026-05-01T12:05:16.999Z</time></trkpt><trkpt lat="39.543021424119516" lon="8.633348961168084"><ele>116.0</ele><time>2026-05-01T12:05:17.998Z</time></trkpt><trkpt lat="39.54311381894018" lon="8.633431003037092"><ele>116.0</ele><time>2026-05-01T12:05:18.998Z</time></trkpt><trkpt lat="39.54320552124155" lon="8.633517827275346"><ele>116.0</ele><time>2026-05-01T12:05:19.998Z</time></trkpt><trkpt lat="39.543313367636905" lon="8.633602670711463"><ele>115.75</ele><time>2026-05-01T12:05:20.998Z</time></trkpt><trkpt lat="39.543433954170816" lon="8.63369476024069"><ele>115.5</ele><time>2026-05-01T12:05:21.998Z</time></trkpt><trkpt lat="39.54354985797922" lon="8.633792388900055"><ele>115.25</ele><time>2026-05-01T12:05:22.998Z</time></trkpt><trkpt lat="39.54366702884003" lon="8.633894766699667"><ele>115.0</ele><time>2026-05-01T12:05:23.998Z</time></trkpt><trkpt lat="39.54378815443455" lon="8.633994749453677"><ele>114.75</ele><time>2026-05-01T12:05:24.999Z</time></trkpt><trkpt lat="39.54390388858065" lon="8.634091279258335"><ele>114.5</ele><time>2026-05-01T12:05:25.999Z</time></trkpt><trkpt lat="39.544021457275036" lon="8.634188175668498"><ele>114.25</ele><time>2026-05-01T12:05:26.999Z</time></trkpt><trkpt lat="39.54413887166951" lon="8.634289302839935"><ele>114.0</ele><time>2026-05-01T12:05:27.999Z</time></trkpt><trkpt lat="39.544257108847646" lon="8.634385128411287"><ele>114.0</ele><time>2026-05-01T12:05:28.999Z</time></trkpt><trkpt lat="39.54436959244512" lon="8.634476251994462"><ele>114.0</ele><time>2026-05-01T12:05:29.999Z</time></trkpt><trkpt lat="39.54447766535199" lon="8.634567119504911"><ele>114.0</ele><time>2026-05-01T12:05:30.999Z</time></trkpt><trkpt lat="39.5445851760571" lon="8.634662784135081"><ele>114.0</ele><time>2026-05-01T12:05:31.999Z</time></trkpt><trkpt lat="39.54469337446331" lon="8.634761611794582"><ele>112.75</ele><time>2026-05-01T12:05:32.999Z</time></trkpt><trkpt lat="39.54480761514205" lon="8.63485654416006"><ele>111.5</ele><time>2026-05-01T12:05:33.999Z</time></trkpt><trkpt lat="39.54492834116864" lon="8.634948995967349"><ele>110.25</ele><time>2026-05-01T12:05:34.999Z</time></trkpt><trkpt lat="39.54505051024033" lon="8.635042028367298"><ele>109.0</ele><time>2026-05-01T12:05:35.999Z</time></trkpt><trkpt lat="39.54517086760563" lon="8.6351434346075"><ele>109.0</ele><time>2026-05-01T12:05:36.999Z</time></trkpt><trkpt lat="39.545288370164144" lon="8.635244051654233"><ele>109.0</ele><time>2026-05-01T12:05:37.999Z</time></trkpt><trkpt lat="39.54540651595776" lon="8.635347492770597"><ele>109.0</ele><time>2026-05-01T12:05:39Z</time></trkpt><trkpt lat="39.54552739800506" lon="8.635454261598236"><ele>109.0</ele><time>2026-05-01T12:05:40Z</time></trkpt><trkpt lat="39.5456500919606" lon="8.63555745851214"><ele>108.25</ele><time>2026-05-01T12:05:41Z</time></trkpt><trkpt lat="39.54577371398607" lon="8.635653907580934"><ele>107.5</ele><time>2026-05-01T12:05:42Z</time></trkpt><trkpt lat="39.5458983774031" lon="8.635750992901444"><ele>106.75</ele><time>2026-05-01T12:05:43Z</time></trkpt><trkpt lat="39.546023942523476" lon="8.635858256589163"><ele>106.0</ele><time>2026-05-01T12:05:44Z</time></trkpt><trkpt lat="39.54614987698844" lon="8.635969329577897"><ele>105.66666666666667</ele><time>2026-05-01T12:05:45Z</time></trkpt><trkpt lat="39.54628079002388" lon="8.636074968450387"><ele>105.33333333333334</ele><time>2026-05-01T12:05:46Z</time></trkpt><trkpt lat="39.54641487359301" lon="8.636177109268601"><ele>105.0</ele><time>2026-05-01T12:05:47Z</time></trkpt><trkpt lat="39.54654833402474" lon="8.636285433236202"><ele>105.0</ele><time>2026-05-01T12:05:48Z</time></trkpt><trkpt lat="39.546679422307896" lon="8.63639801886679"><ele>105.0</ele><time>2026-05-01T12:05:49Z</time></trkpt><trkpt lat="39.54681340356562" lon="8.63650799898738"><ele>105.0</ele><time>2026-05-01T12:05:50Z</time></trkpt><trkpt lat="39.54694943975861" lon="8.63661783837225"><ele>105.0</ele><time>2026-05-01T12:05:51Z</time></trkpt><trkpt lat="39.547080112020915" lon="8.63673149096618"><ele>105.0</ele><time>2026-05-01T12:05:52Z</time></trkpt><trkpt lat="39.54720291722942" lon="8.636841811706741"><ele>105.0</ele><time>2026-05-01T12:05:53Z</time></trkpt><trkpt lat="39.54731642103238" lon="8.63694196434925"><ele>105.0</ele><time>2026-05-01T12:05:54Z</time></trkpt><trkpt lat="39.54741752668367" lon="8.637038283655777"><ele>105.0</ele><time>2026-05-01T12:05:55Z</time></trkpt><trkpt lat="39.54749153804629" lon="8.637151694842041"><ele>105.0</ele><time>2026-05-01T12:05:56Z</time></trkpt><trkpt lat="39.54756019185938" lon="8.637233871628265"><ele>105.0</ele><time>2026-05-01T12:05:57Z</time></trkpt><trkpt lat="39.54755166185049" lon="8.637410370157253"><ele>105.0</ele><time>2026-05-01T12:05:58Z</time></trkpt><trkpt lat="39.5475760084527" lon="8.63751605327092"><ele>105.0</ele><time>2026-05-01T12:05:59Z</time></trkpt><trkpt lat="39.547769228396454" lon="8.637408374637424"><ele>105.0</ele><time>2026-05-01T12:06:00Z</time></trkpt><trkpt lat="39.54784688010234" lon="8.63747265752686"><ele>105.0</ele><time>2026-05-01T12:06:01Z</time></trkpt><trkpt lat="39.547917030010964" lon="8.637537887258237"><ele>105.0</ele><time>2026-05-01T12:06:02Z</time></trkpt><trkpt lat="39.54802811739138" lon="8.637560437309935"><ele>105.0</ele><time>2026-05-01T12:06:03Z</time></trkpt><trkpt lat="39.548142537565454" lon="8.637638612994541"><ele>105.0</ele><time>2026-05-01T12:06:04Z</time></trkpt><trkpt lat="39.548267201422995" lon="8.637730881494063"><ele>104.66666666666666</ele><time>2026-05-01T12:06:05Z</time></trkpt><trkpt lat="39.54839681828309" lon="8.637830727290106"><ele>104.33333333333333</ele><time>2026-05-01T12:06:06Z</time></trkpt><trkpt lat="39.54852697076343" lon="8.637934108757987"><ele>104.0</ele><time>2026-05-01T12:06:07Z</time></trkpt><trkpt lat="39.54865405011229" lon="8.638036915361221"><ele>102.33333333333333</ele><time>2026-05-01T12:06:08Z</time></trkpt><trkpt lat="39.548783915024416" lon="8.638149082854538"><ele>100.66666666666666</ele><time>2026-05-01T12:06:09Z</time></trkpt><trkpt lat="39.54891798534556" lon="8.638269894216059"><ele>99.0</ele><time>2026-05-01T12:06:10Z</time></trkpt><trkpt lat="39.54905501548775" lon="8.638390123886204"><ele>99.0</ele><time>2026-05-01T12:06:11Z</time></trkpt><trkpt lat="39.54919743880056" lon="8.638506027074056"><ele>99.0</ele><time>2026-05-01T12:06:12Z</time></trkpt><trkpt lat="39.54933944013731" lon="8.638619932824803"><ele>99.0</ele><time>2026-05-01T12:06:13Z</time></trkpt><trkpt lat="39.54948174198587" lon="8.63873938414687"><ele>98.66666666666666</ele><time>2026-05-01T12:06:14Z</time></trkpt><trkpt lat="39.54962449623784" lon="8.638860274950982"><ele>98.33333333333333</ele><time>2026-05-01T12:06:15Z</time></trkpt><trkpt lat="39.54976410274446" lon="8.638977685093382"><ele>98.0</ele><time>2026-05-01T12:06:16Z</time></trkpt><trkpt lat="39.54989384349732" lon="8.639087635557201"><ele>98.0</ele><time>2026-05-01T12:06:17Z</time></trkpt><trkpt lat="39.550012694799165" lon="8.63918748020079"><ele>98.0</ele><time>2026-05-01T12:06:18Z</time></trkpt><trkpt lat="39.55012600720341" lon="8.639282917545227"><ele>98.0</ele><time>2026-05-01T12:06:19Z</time></trkpt><trkpt lat="39.550229891632895" lon="8.639367341719378"><ele>98.0</ele><time>2026-05-01T12:06:20Z</time></trkpt><trkpt lat="39.55031954886279" lon="8.639450724946624"><ele>97.4</ele><time>2026-05-01T12:06:21Z</time></trkpt><trkpt lat="39.55039466865436" lon="8.639516825554876"><ele>96.80000000000001</ele><time>2026-05-01T12:06:22Z</time></trkpt><trkpt lat="39.55045038997424" lon="8.639557482494949"><ele>96.2</ele><time>2026-05-01T12:06:23Z</time></trkpt><trkpt lat="39.550545328324986" lon="8.639626308966685"><ele>95.6</ele><time>2026-05-01T12:06:25Z</time></trkpt><trkpt lat="39.55062980248782" lon="8.639716137844772"><ele>95.0</ele><time>2026-05-01T12:06:27Z</time></trkpt><trkpt lat="39.550714967917244" lon="8.639730525859374"><ele>95.0</ele><time>2026-05-01T12:06:29Z</time></trkpt><trkpt lat="39.55074855316205" lon="8.639637265696487"><ele>95.0</ele><time>2026-05-01T12:06:31Z</time></trkpt><trkpt lat="39.55077926876613" lon="8.63955475046473"><ele>95.0</ele><time>2026-05-01T12:06:33Z</time></trkpt><trkpt lat="39.550825290059265" lon="8.639382760396572"><ele>95.0</ele><time>2026-05-01T12:06:35Z</time></trkpt><trkpt lat="39.55086117734202" lon="8.639270922329658"><ele>95.0</ele><time>2026-05-01T12:06:36Z</time></trkpt><trkpt lat="39.55092247442286" lon="8.639163862586798"><ele>95.75</ele><time>2026-05-01T12:06:37Z</time></trkpt><trkpt lat="39.550992272521725" lon="8.639051225095079"><ele>96.5</ele><time>2026-05-01T12:06:38Z</time></trkpt><trkpt lat="39.5510538210956" lon="8.638918064577524"><ele>97.25</ele><time>2026-05-01T12:06:39Z</time></trkpt><trkpt lat="39.55110778584055" lon="8.638771799195293"><ele>98.0</ele><time>2026-05-01T12:06:40Z</time></trkpt><trkpt lat="39.55116438094529" lon="8.63863159549967"><ele>97.0</ele><time>2026-05-01T12:06:41Z</time></trkpt><trkpt lat="39.551223934785426" lon="8.638525131408864"><ele>96.0</ele><time>2026-05-01T12:06:42Z</time></trkpt><trkpt lat="39.551279715528736" lon="8.63842559727427"><ele>95.0</ele><time>2026-05-01T12:06:43Z</time></trkpt><trkpt lat="39.5513322812095" lon="8.638312240772642"><ele>94.0</ele><time>2026-05-01T12:06:44Z</time></trkpt><trkpt lat="39.55138820572554" lon="8.638191193311142"><ele>93.0</ele><time>2026-05-01T12:06:45Z</time></trkpt><trkpt lat="39.55144536624167" lon="8.638059579338279"><ele>93.0</ele><time>2026-05-01T12:06:46Z</time></trkpt><trkpt lat="39.55151718875588" lon="8.637929722396079"><ele>93.0</ele><time>2026-05-01T12:06:47Z</time></trkpt><trkpt lat="39.5515919627515" lon="8.637805399529668"><ele>93.0</ele><time>2026-05-01T12:06:48Z</time></trkpt><trkpt lat="39.55165938050304" lon="8.637691478599777"><ele>93.0</ele><time>2026-05-01T12:06:49Z</time></trkpt><trkpt lat="39.55171776924519" lon="8.637581460644943"><ele>93.0</ele><time>2026-05-01T12:06:50Z</time></trkpt><trkpt lat="39.551763787740164" lon="8.63746634345927"><ele>93.0</ele><time>2026-05-01T12:06:51Z</time></trkpt><trkpt lat="39.55181587362869" lon="8.637344471108374"><ele>93.0</ele><time>2026-05-01T12:06:52Z</time></trkpt><trkpt lat="39.55188221844711" lon="8.637230105167333"><ele>93.0</ele><time>2026-05-01T12:06:53Z</time></trkpt><trkpt lat="39.55195984693081" lon="8.6371193531616"><ele>93.0</ele><time>2026-05-01T12:06:54Z</time></trkpt><trkpt lat="39.55203605544139" lon="8.636992005129299"><ele>92.75</ele><time>2026-05-01T12:06:55Z</time></trkpt><trkpt lat="39.552105353779034" lon="8.636846688653291"><ele>92.5</ele><time>2026-05-01T12:06:56Z</time></trkpt><trkpt lat="39.55218304046993" lon="8.636709867269138"><ele>92.25</ele><time>2026-05-01T12:06:57Z</time></trkpt><trkpt lat="39.55227906352912" lon="8.636585092990039"><ele>92.0</ele><time>2026-05-01T12:06:58Z</time></trkpt><trkpt lat="39.55237302056246" lon="8.636460586551225"><ele>92.0</ele><time>2026-05-01T12:06:59Z</time></trkpt><trkpt lat="39.55246110497679" lon="8.636314953797465"><ele>92.0</ele><time>2026-05-01T12:07:00Z</time></trkpt><trkpt lat="39.552550814747136" lon="8.636170505656954"><ele>92.0</ele><time>2026-05-01T12:07:01Z</time></trkpt><trkpt lat="39.55264990056719" lon="8.636033361385188"><ele>92.0</ele><time>2026-05-01T12:07:02Z</time></trkpt><trkpt lat="39.55274061780827" lon="8.635897014630789"><ele>91.75</ele><time>2026-05-01T12:07:03Z</time></trkpt><trkpt lat="39.55282602842467" lon="8.635754061203707"><ele>91.5</ele><time>2026-05-01T12:07:04Z</time></trkpt><trkpt lat="39.5529094335339" lon="8.635619013447045"><ele>91.25</ele><time>2026-05-01T12:07:05Z</time></trkpt><trkpt lat="39.55300071833746" lon="8.635478689642314"><ele>91.0</ele><time>2026-05-01T12:07:06Z</time></trkpt><trkpt lat="39.55308201217463" lon="8.635325912301948"><ele>91.75</ele><time>2026-05-01T12:07:07Z</time></trkpt><trkpt lat="39.55316444105248" lon="8.635182127980158"><ele>92.5</ele><time>2026-05-01T12:07:08Z</time></trkpt><trkpt lat="39.55325306259826" lon="8.635050149449679"><ele>93.25</ele><time>2026-05-01T12:07:09Z</time></trkpt><trkpt lat="39.553321405749564" lon="8.634934064796134"><ele>94.0</ele><time>2026-05-01T12:07:10Z</time></trkpt><trkpt lat="39.55338678807766" lon="8.634825969738097"><ele>94.0</ele><time>2026-05-01T12:07:11Z</time></trkpt><trkpt lat="39.55345117668832" lon="8.634727406095267"><ele>94.0</ele><time>2026-05-01T12:07:12Z</time></trkpt><trkpt lat="39.55352045484514" lon="8.63463332536739"><ele>94.0</ele><time>2026-05-01T12:07:13Z</time></trkpt><trkpt lat="39.5535928864251" lon="8.634544500667204"><ele>94.0</ele><time>2026-05-01T12:07:14Z</time></trkpt><trkpt lat="39.55365668141349" lon="8.63446808970145"><ele>94.0</ele><time>2026-05-01T12:07:15Z</time></trkpt><trkpt lat="39.55370337539286" lon="8.634375893386594"><ele>94.2</ele><time>2026-05-01T12:07:16Z</time></trkpt><trkpt lat="39.55373152720501" lon="8.634286132773031"><ele>94.4</ele><time>2026-05-01T12:07:17Z</time></trkpt><trkpt lat="39.55377578507827" lon="8.634223384146855"><ele>94.6</ele><time>2026-05-01T12:07:18Z</time></trkpt><trkpt lat="39.55384987097876" lon="8.634150897064542"><ele>94.8</ele><time>2026-05-01T12:07:20Z</time></trkpt><trkpt lat="39.553963403099424" lon="8.63429802464397"><ele>95.0</ele><time>2026-05-01T12:07:22Z</time></trkpt><trkpt lat="39.55403919963228" lon="8.634387679285183"><ele>94.75</ele><time>2026-05-01T12:07:23Z</time></trkpt><trkpt lat="39.554104166102675" lon="8.634519784809537"><ele>94.5</ele><time>2026-05-01T12:07:24Z</time></trkpt><trkpt lat="39.554180120807274" lon="8.63464898181449"><ele>94.25</ele><time>2026-05-01T12:07:24.999Z</time></trkpt><trkpt lat="39.55425543708584" lon="8.63477712407093"><ele>94.0</ele><time>2026-05-01T12:07:25.999Z</time></trkpt><trkpt lat="39.55429569487597" lon="8.634911465810298"><ele>94.0</ele><time>2026-05-01T12:07:26.999Z</time></trkpt><trkpt lat="39.55433698708008" lon="8.635056738309896"><ele>94.0</ele><time>2026-05-01T12:07:27.999Z</time></trkpt><trkpt lat="39.55438457117937" lon="8.635212630671004"><ele>94.0</ele><time>2026-05-01T12:07:28.999Z</time></trkpt><trkpt lat="39.554422960461615" lon="8.6353811705556"><ele>94.0</ele><time>2026-05-01T12:07:29.999Z</time></trkpt><trkpt lat="39.55446313994556" lon="8.635528528166258"><ele>93.5</ele><time>2026-05-01T12:07:30.999Z</time></trkpt><trkpt lat="39.55449754012353" lon="8.63564473473232"><ele>93.0</ele><time>2026-05-01T12:07:31.999Z</time></trkpt><trkpt lat="39.55456240414678" lon="8.635750400955793"><ele>92.5</ele><time>2026-05-01T12:07:32.999Z</time></trkpt><trkpt lat="39.55465548781532" lon="8.635855066585638"><ele>92.0</ele><time>2026-05-01T12:07:33.999Z</time></trkpt><trkpt lat="39.55474561452216" lon="8.635976653800217"><ele>91.75</ele><time>2026-05-01T12:07:34.999Z</time></trkpt><trkpt lat="39.55483413917688" lon="8.636111227471664"><ele>91.5</ele><time>2026-05-01T12:07:35.999Z</time></trkpt><trkpt lat="39.554908321431654" lon="8.636237318777335"><ele>91.25</ele><time>2026-05-01T12:07:36.999Z</time></trkpt><trkpt lat="39.55499421539053" lon="8.636352001298436"><ele>91.0</ele><time>2026-05-01T12:07:37.999Z</time></trkpt><trkpt lat="39.555102167572144" lon="8.636463416851472"><ele>91.0</ele><time>2026-05-01T12:07:38.999Z</time></trkpt><trkpt lat="39.555218151309056" lon="8.636569109638161"><ele>91.0</ele><time>2026-05-01T12:07:39.999Z</time></trkpt><trkpt lat="39.55534218457718" lon="8.636677069724746"><ele>91.0</ele><time>2026-05-01T12:07:40.999Z</time></trkpt><trkpt lat="39.55547277590059" lon="8.636769179872164"><ele>91.0</ele><time>2026-05-01T12:07:41.999Z</time></trkpt><trkpt lat="39.555619269113606" lon="8.636848560342507"><ele>90.0</ele><time>2026-05-01T12:07:42.999Z</time></trkpt><trkpt lat="39.55576745064171" lon="8.63693636891702"><ele>89.0</ele><time>2026-05-01T12:07:43.999Z</time></trkpt><trkpt lat="39.55592658039334" lon="8.637018705641557"><ele>88.0</ele><time>2026-05-01T12:07:45Z</time></trkpt><trkpt lat="39.55609394448088" lon="8.637089498749841"><ele>86.66666666666666</ele><time>2026-05-01T12:07:46Z</time></trkpt><trkpt lat="39.55626721735197" lon="8.637158267310431"><ele>85.33333333333333</ele><time>2026-05-01T12:07:47Z</time></trkpt><trkpt lat="39.55642381654677" lon="8.637234609639057"><ele>84.0</ele><time>2026-05-01T12:07:48Z</time></trkpt><trkpt lat="39.55656490001476" lon="8.637304869816166"><ele>84.0</ele><time>2026-05-01T12:07:49Z</time></trkpt><trkpt lat="39.556699076816265" lon="8.637359547008616"><ele>84.0</ele><time>2026-05-01T12:07:50Z</time></trkpt><trkpt lat="39.55682040355739" lon="8.637414066561972"><ele>84.0</ele><time>2026-05-01T12:07:51Z</time></trkpt><trkpt lat="39.55693471315583" lon="8.637449896046851"><ele>84.0</ele><time>2026-05-01T12:07:52Z</time></trkpt><trkpt lat="39.55704258687037" lon="8.63746792373563"><ele>84.25</ele><time>2026-05-01T12:07:53Z</time></trkpt><trkpt lat="39.55716119053485" lon="8.637482921071951"><ele>84.5</ele><time>2026-05-01T12:07:54Z</time></trkpt><trkpt lat="39.55728305072029" lon="8.637489971406891"><ele>84.75</ele><time>2026-05-01T12:07:55Z</time></trkpt><trkpt lat="39.55742052501612" lon="8.637512926547199"><ele>85.0</ele><time>2026-05-01T12:07:56Z</time></trkpt><trkpt lat="39.557563253900085" lon="8.637565946288197"><ele>85.0</ele><time>2026-05-01T12:07:57Z</time></trkpt><trkpt lat="39.55770741163336" lon="8.637629518395558"><ele>85.0</ele><time>2026-05-01T12:07:58Z</time></trkpt><trkpt lat="39.557852845872" lon="8.637693069566224"><ele>85.0</ele><time>2026-05-01T12:07:59Z</time></trkpt><trkpt lat="39.55799585222525" lon="8.637770622176502"><ele>84.66666666666666</ele><time>2026-05-01T12:08:00Z</time></trkpt><trkpt lat="39.55813827342068" lon="8.63786322988493"><ele>84.33333333333333</ele><time>2026-05-01T12:08:01Z</time></trkpt><trkpt lat="39.558284876483285" lon="8.637956910715573"><ele>84.0</ele><time>2026-05-01T12:08:02Z</time></trkpt><trkpt lat="39.55843410388758" lon="8.638049915180316"><ele>84.0</ele><time>2026-05-01T12:08:03Z</time></trkpt><trkpt lat="39.558562952203204" lon="8.638161722044881"><ele>84.0</ele><time>2026-05-01T12:08:04Z</time></trkpt><trkpt lat="39.55868619824847" lon="8.638235572667229"><ele>84.0</ele><time>2026-05-01T12:08:05Z</time></trkpt><trkpt lat="39.558779143283694" lon="8.638355192899084"><ele>84.0</ele><time>2026-05-01T12:08:06Z</time></trkpt><trkpt lat="39.55889552830729" lon="8.638465862544717"><ele>84.25</ele><time>2026-05-01T12:08:07Z</time></trkpt><trkpt lat="39.558990595233105" lon="8.638605624264132"><ele>84.5</ele><time>2026-05-01T12:08:08Z</time></trkpt><trkpt lat="39.559095181782105" lon="8.638742860804413"><ele>84.75</ele><time>2026-05-01T12:08:09Z</time></trkpt><trkpt lat="39.55920356919417" lon="8.638870682019368"><ele>85.0</ele><time>2026-05-01T12:08:10Z</time></trkpt><trkpt lat="39.55931771616061" lon="8.638996511768841"><ele>85.0</ele><time>2026-05-01T12:08:11Z</time></trkpt><trkpt lat="39.559426344482155" lon="8.639113689847811"><ele>85.0</ele><time>2026-05-01T12:08:12Z</time></trkpt><trkpt lat="39.55951904474126" lon="8.639226520175479"><ele>85.0</ele><time>2026-05-01T12:08:13Z</time></trkpt><trkpt lat="39.55960830958581" lon="8.639328588886208"><ele>85.0</ele><time>2026-05-01T12:08:14Z</time></trkpt><trkpt lat="39.55971973611503" lon="8.639420592544834"><ele>85.25</ele><time>2026-05-01T12:08:15Z</time></trkpt><trkpt lat="39.55984174270587" lon="8.639513593361366"><ele>85.5</ele><time>2026-05-01T12:08:16Z</time></trkpt><trkpt lat="39.55997769559345" lon="8.639612129510082"><ele>85.75</ele><time>2026-05-01T12:08:17Z</time></trkpt><trkpt lat="39.560106423787644" lon="8.639706420488269"><ele>86.0</ele><time>2026-05-01T12:08:18Z</time></trkpt><trkpt lat="39.56021505483001" lon="8.639800143007637"><ele>86.0</ele><time>2026-05-01T12:08:19Z</time></trkpt><trkpt lat="39.560332562267014" lon="8.63988009151239"><ele>86.0</ele><time>2026-05-01T12:08:20Z</time></trkpt><trkpt lat="39.56046404232043" lon="8.639940822288237"><ele>86.0</ele><time>2026-05-01T12:08:21Z</time></trkpt><trkpt lat="39.56059109691752" lon="8.639968862404604"><ele>86.0</ele><time>2026-05-01T12:08:22Z</time></trkpt><trkpt lat="39.560699686611336" lon="8.640011416789303"><ele>86.0</ele><time>2026-05-01T12:08:23Z</time></trkpt><trkpt lat="39.560783932856296" lon="8.640101055145866"><ele>86.0</ele><time>2026-05-01T12:08:24Z</time></trkpt><trkpt lat="39.56087734052835" lon="8.640182288976044"><ele>86.0</ele><time>2026-05-01T12:08:25Z</time></trkpt><trkpt lat="39.560970272015254" lon="8.640299222892686"><ele>86.0</ele><time>2026-05-01T12:08:26Z</time></trkpt><trkpt lat="39.56106961109406" lon="8.640399601428642"><ele>85.25</ele><time>2026-05-01T12:08:27Z</time></trkpt><trkpt lat="39.56115955368291" lon="8.640480958709903"><ele>84.5</ele><time>2026-05-01T12:08:28Z</time></trkpt><trkpt lat="39.56125142827753" lon="8.640549065909678"><ele>83.75</ele><time>2026-05-01T12:08:29Z</time></trkpt><trkpt lat="39.56135697396674" lon="8.640614251627003"><ele>83.0</ele><time>2026-05-01T12:08:30Z</time></trkpt><trkpt lat="39.56146123002692" lon="8.64070715424615"><ele>82.60000000000001</ele><time>2026-05-01T12:08:31Z</time></trkpt><trkpt lat="39.561554805182105" lon="8.640803695368628"><ele>82.2</ele><time>2026-05-01T12:08:32Z</time></trkpt><trkpt lat="39.56163098492281" lon="8.640891211915395"><ele>81.8</ele><time>2026-05-01T12:08:33Z</time></trkpt><trkpt lat="39.56170394785526" lon="8.640965249994801"><ele>81.4</ele><time>2026-05-01T12:08:34Z</time></trkpt><trkpt lat="39.561797988840326" lon="8.641021795917789"><ele>81.0</ele><time>2026-05-01T12:08:35Z</time></trkpt><trkpt lat="39.56189681839627" lon="8.641074638657251"><ele>81.0</ele><time>2026-05-01T12:08:36Z</time></trkpt><trkpt lat="39.56197906162383" lon="8.641122096128221"><ele>81.0</ele><time>2026-05-01T12:08:37Z</time></trkpt><trkpt lat="39.56206037081465" lon="8.641140768164348"><ele>81.0</ele><time>2026-05-01T12:08:38Z</time></trkpt><trkpt lat="39.56214837345203" lon="8.641126889643804"><ele>81.0</ele><time>2026-05-01T12:08:39Z</time></trkpt><trkpt lat="39.56223882012349" lon="8.641072345211006"><ele>81.0</ele><time>2026-05-01T12:08:40Z</time></trkpt><trkpt lat="39.562333746211465" lon="8.641006699038373"><ele>80.75</ele><time>2026-05-01T12:08:41Z</time></trkpt><trkpt lat="39.56244107896199" lon="8.640960718744042"><ele>80.5</ele><time>2026-05-01T12:08:42Z</time></trkpt><trkpt lat="39.562548871894414" lon="8.6409221201825"><ele>80.25</ele><time>2026-05-01T12:08:43Z</time></trkpt><trkpt lat="39.562659372579226" lon="8.64088834712975"><ele>80.0</ele><time>2026-05-01T12:08:44Z</time></trkpt><trkpt lat="39.56277597375131" lon="8.640874553624688"><ele>80.25</ele><time>2026-05-01T12:08:45Z</time></trkpt><trkpt lat="39.56289763066405" lon="8.64090578212574"><ele>80.5</ele><time>2026-05-01T12:08:46Z</time></trkpt><trkpt lat="39.56302112846725" lon="8.640929933277526"><ele>80.75</ele><time>2026-05-01T12:08:47Z</time></trkpt><trkpt lat="39.56314883211585" lon="8.640958760890445"><ele>81.0</ele><time>2026-05-01T12:08:48Z</time></trkpt><trkpt lat="39.56328263929731" lon="8.640962967165406"><ele>81.0</ele><time>2026-05-01T12:08:49Z</time></trkpt><trkpt lat="39.56342129924048" lon="8.640976613410654"><ele>81.0</ele><time>2026-05-01T12:08:50Z</time></trkpt><trkpt lat="39.56356466321828" lon="8.640969898766418"><ele>81.0</ele><time>2026-05-01T12:08:51Z</time></trkpt><trkpt lat="39.56370458243532" lon="8.640970840055266"><ele>81.0</ele><time>2026-05-01T12:08:52Z</time></trkpt><trkpt lat="39.563812971148856" lon="8.640977142712021"><ele>80.6</ele><time>2026-05-01T12:08:53Z</time></trkpt><trkpt lat="39.56390864249994" lon="8.640993537975858"><ele>80.19999999999999</ele><time>2026-05-01T12:08:54Z</time></trkpt><trkpt lat="39.56400492783199" lon="8.641003991382613"><ele>79.80000000000001</ele><time>2026-05-01T12:08:55Z</time></trkpt><trkpt lat="39.56412547574002" lon="8.640991862577081"><ele>79.4</ele><time>2026-05-01T12:08:56Z</time></trkpt><trkpt lat="39.56424575366917" lon="8.640996617351615"><ele>79.0</ele><time>2026-05-01T12:08:57Z</time></trkpt><trkpt lat="39.56436291229404" lon="8.641032828388772"><ele>79.0</ele><time>2026-05-01T12:08:58Z</time></trkpt><trkpt lat="39.56447818898867" lon="8.641074559372923"><ele>79.0</ele><time>2026-05-01T12:08:59Z</time></trkpt><trkpt lat="39.564593031089885" lon="8.64110526727645"><ele>79.0</ele><time>2026-05-01T12:09:00Z</time></trkpt><trkpt lat="39.56471462940165" lon="8.641108844306068"><ele>79.0</ele><time>2026-05-01T12:09:01Z</time></trkpt><trkpt lat="39.564838953079004" lon="8.641107470950356"><ele>78.75</ele><time>2026-05-01T12:09:02Z</time></trkpt><trkpt lat="39.564958575131634" lon="8.64112355009579"><ele>78.5</ele><time>2026-05-01T12:09:03Z</time></trkpt><trkpt lat="39.56507652800962" lon="8.641158913342105"><ele>78.25</ele><time>2026-05-01T12:09:04Z</time></trkpt><trkpt lat="39.565193641449795" lon="8.641206675418118"><ele>78.0</ele><time>2026-05-01T12:09:05Z</time></trkpt><trkpt lat="39.56531098214658" lon="8.641253172273064"><ele>78.25</ele><time>2026-05-01T12:09:06Z</time></trkpt><trkpt lat="39.56543571092055" lon="8.641286454086918"><ele>78.5</ele><time>2026-05-01T12:09:07Z</time></trkpt><trkpt lat="39.56555754996505" lon="8.641328772226043"><ele>78.75</ele><time>2026-05-01T12:09:08Z</time></trkpt><trkpt lat="39.56565979387763" lon="8.641398752690778"><ele>79.0</ele><time>2026-05-01T12:09:09Z</time></trkpt><trkpt lat="39.565756411213" lon="8.641492158566017"><ele>79.0</ele><time>2026-05-01T12:09:10Z</time></trkpt><trkpt lat="39.56586244864879" lon="8.641599782436217"><ele>79.0</ele><time>2026-05-01T12:09:11Z</time></trkpt><trkpt lat="39.56597421505432" lon="8.641720595691504"><ele>79.0</ele><time>2026-05-01T12:09:12Z</time></trkpt><trkpt lat="39.56608926612111" lon="8.6418407823187"><ele>79.0</ele><time>2026-05-01T12:09:13Z</time></trkpt><trkpt lat="39.56619834699714" lon="8.641954774216414"><ele>78.5</ele><time>2026-05-01T12:09:14Z</time></trkpt><trkpt lat="39.56630034740026" lon="8.642051306488016"><ele>78.0</ele><time>2026-05-01T12:09:15Z</time></trkpt><trkpt lat="39.56641578552827" lon="8.642147663607"><ele>77.5</ele><time>2026-05-01T12:09:16Z</time></trkpt><trkpt lat="39.5665302566367" lon="8.642236800525309"><ele>77.0</ele><time>2026-05-01T12:09:17Z</time></trkpt><trkpt lat="39.566633057001695" lon="8.642310303779906"><ele>77.0</ele><time>2026-05-01T12:09:18Z</time></trkpt><trkpt lat="39.56673787838715" lon="8.642357108262535"><ele>77.0</ele><time>2026-05-01T12:09:19Z</time></trkpt><trkpt lat="39.56686091575604" lon="8.642379910444669"><ele>77.0</ele><time>2026-05-01T12:09:20Z</time></trkpt><trkpt lat="39.566993341352976" lon="8.64239058734316"><ele>77.0</ele><time>2026-05-01T12:09:21Z</time></trkpt><trkpt lat="39.567122225446596" lon="8.642396406399298"><ele>77.5</ele><time>2026-05-01T12:09:22Z</time></trkpt><trkpt lat="39.567240508303705" lon="8.642409239504342"><ele>78.0</ele><time>2026-05-01T12:09:23Z</time></trkpt><trkpt lat="39.56736036816371" lon="8.642426327496208"><ele>78.5</ele><time>2026-05-01T12:09:24Z</time></trkpt><trkpt lat="39.56747082578964" lon="8.642449296969936"><ele>79.0</ele><time>2026-05-01T12:09:25Z</time></trkpt><trkpt lat="39.567582334079496" lon="8.642466428223994"><ele>79.0</ele><time>2026-05-01T12:09:26Z</time></trkpt><trkpt lat="39.567692424029914" lon="8.642499092307284"><ele>79.0</ele><time>2026-05-01T12:09:27Z</time></trkpt><trkpt lat="39.567803587872504" lon="8.64255484928262"><ele>79.0</ele><time>2026-05-01T12:09:28Z</time></trkpt><trkpt lat="39.56791165744255" lon="8.642634546077023"><ele>79.0</ele><time>2026-05-01T12:09:28.999Z</time></trkpt><trkpt lat="39.56802361169425" lon="8.642720070508743"><ele>78.5</ele><time>2026-05-01T12:09:29.999Z</time></trkpt><trkpt lat="39.56813973660234" lon="8.642798651593074"><ele>78.0</ele><time>2026-05-01T12:09:30.999Z</time></trkpt><trkpt lat="39.56825924881225" lon="8.642878777661041"><ele>77.5</ele><time>2026-05-01T12:09:31.999Z</time></trkpt><trkpt lat="39.56837696379749" lon="8.64296674908268"><ele>77.0</ele><time>2026-05-01T12:09:32.999Z</time></trkpt><trkpt lat="39.56848751812181" lon="8.643073319132348"><ele>77.0</ele><time>2026-05-01T12:09:33.999Z</time></trkpt><trkpt lat="39.5685960866416" lon="8.64318796176975"><ele>77.0</ele><time>2026-05-01T12:09:34.999Z</time></trkpt><trkpt lat="39.56870742106112" lon="8.643298304343968"><ele>77.0</ele><time>2026-05-01T12:09:35.999Z</time></trkpt><trkpt lat="39.56879435097062" lon="8.643417920338713"><ele>77.0</ele><time>2026-05-01T12:09:36.999Z</time></trkpt><trkpt lat="39.56889064348713" lon="8.643502682612995"><ele>77.2</ele><time>2026-05-01T12:09:37.999Z</time></trkpt><trkpt lat="39.56897119563863" lon="8.643590366130779"><ele>77.4</ele><time>2026-05-01T12:09:38.999Z</time></trkpt><trkpt lat="39.56906125517308" lon="8.643658632967945"><ele>77.6</ele><time>2026-05-01T12:09:39.999Z</time></trkpt><trkpt lat="39.56917029313814" lon="8.643707012644558"><ele>77.8</ele><time>2026-05-01T12:09:40.999Z</time></trkpt><trkpt lat="39.569284463907216" lon="8.643742500778515"><ele>78.0</ele><time>2026-05-01T12:09:41.999Z</time></trkpt><trkpt lat="39.56939922491976" lon="8.6437969764481"><ele>77.25</ele><time>2026-05-01T12:09:42.999Z</time></trkpt><trkpt lat="39.56952027976627" lon="8.643869711775453"><ele>76.5</ele><time>2026-05-01T12:09:43.999Z</time></trkpt><trkpt lat="39.56964882933172" lon="8.643931560476245"><ele>75.75</ele><time>2026-05-01T12:09:44.999Z</time></trkpt><trkpt lat="39.56978351051611" lon="8.643990241884621"><ele>75.0</ele><time>2026-05-01T12:09:45.999Z</time></trkpt><trkpt lat="39.569912373784476" lon="8.644052807153763"><ele>75.0</ele><time>2026-05-01T12:09:46.999Z</time></trkpt><trkpt lat="39.570031062183105" lon="8.644112369120554"><ele>75.0</ele><time>2026-05-01T12:09:47.999Z</time></trkpt><trkpt lat="39.57014156309919" lon="8.644166478942143"><ele>75.0</ele><time>2026-05-01T12:09:48.999Z</time></trkpt><trkpt lat="39.570254332046495" lon="8.644208663747849"><ele>75.0</ele><time>2026-05-01T12:09:49.999Z</time></trkpt><trkpt lat="39.57036293760884" lon="8.644252479058064"><ele>75.2</ele><time>2026-05-01T12:09:51Z</time></trkpt><trkpt lat="39.57045999637217" lon="8.644301879107923"><ele>75.4</ele><time>2026-05-01T12:09:52Z</time></trkpt><trkpt lat="39.57054751596057" lon="8.644363607751007"><ele>75.6</ele><time>2026-05-01T12:09:53Z</time></trkpt><trkpt lat="39.570632091453426" lon="8.644448222923973"><ele>75.8</ele><time>2026-05-01T12:09:54Z</time></trkpt><trkpt lat="39.57072163904978" lon="8.644522040166365"><ele>76.0</ele><time>2026-05-01T12:09:55Z</time></trkpt><trkpt lat="39.57082023000799" lon="8.64456086120141"><ele>75.5</ele><time>2026-05-01T12:09:56Z</time></trkpt><trkpt lat="39.57093133916107" lon="8.64457155530906"><ele>75.0</ele><time>2026-05-01T12:09:57Z</time></trkpt><trkpt lat="39.571056338417854" lon="8.644566337467419"><ele>74.5</ele><time>2026-05-01T12:09:58Z</time></trkpt><trkpt lat="39.571193898048186" lon="8.644557806755106"><ele>74.0</ele><time>2026-05-01T12:09:59Z</time></trkpt><trkpt lat="39.571339565973474" lon="8.644566846864803"><ele>74.0</ele><time>2026-05-01T12:10:00Z</time></trkpt><trkpt lat="39.57148642617624" lon="8.644587215934703"><ele>74.0</ele><time>2026-05-01T12:10:01Z</time></trkpt><trkpt lat="39.57163355595988" lon="8.644618728646048"><ele>74.0</ele><time>2026-05-01T12:10:02Z</time></trkpt><trkpt lat="39.57177547561233" lon="8.644650356651006"><ele>74.0</ele><time>2026-05-01T12:10:03Z</time></trkpt><trkpt lat="39.57192203482244" lon="8.644683765147054"><ele>74.0</ele><time>2026-05-01T12:10:04Z</time></trkpt><trkpt lat="39.57207812109091" lon="8.644715960915219"><ele>74.0</ele><time>2026-05-01T12:10:05Z</time></trkpt><trkpt lat="39.57223691259648" lon="8.644749769584797"><ele>74.0</ele><time>2026-05-01T12:10:06Z</time></trkpt><trkpt lat="39.57238215704727" lon="8.644827451989535"><ele>74.0</ele><time>2026-05-01T12:10:07Z</time></trkpt><trkpt lat="39.57253360174519" lon="8.644870644346412"><ele>74.0</ele><time>2026-05-01T12:10:08Z</time></trkpt><trkpt lat="39.572679514460134" lon="8.64494067125171"><ele>74.0</ele><time>2026-05-01T12:10:09Z</time></trkpt><trkpt lat="39.5728341256563" lon="8.64500600301762"><ele>73.66666666666667</ele><time>2026-05-01T12:10:10Z</time></trkpt><trkpt lat="39.572990203709246" lon="8.6450779808367"><ele>73.33333333333333</ele><time>2026-05-01T12:10:11Z</time></trkpt><trkpt lat="39.573146875445524" lon="8.645159950263524"><ele>73.0</ele><time>2026-05-01T12:10:12Z</time></trkpt><trkpt lat="39.57329764777437" lon="8.645246558686633"><ele>73.33333333333333</ele><time>2026-05-01T12:10:13Z</time></trkpt><trkpt lat="39.57344258827092" lon="8.645336085240938"><ele>73.66666666666667</ele><time>2026-05-01T12:10:14Z</time></trkpt><trkpt lat="39.573595860466824" lon="8.645411298771458"><ele>74.0</ele><time>2026-05-01T12:10:15Z</time></trkpt><trkpt lat="39.57374228742322" lon="8.645489854233604"><ele>74.25</ele><time>2026-05-01T12:10:16Z</time></trkpt><trkpt lat="39.57386755952169" lon="8.645570570846022"><ele>74.5</ele><time>2026-05-01T12:10:17Z</time></trkpt><trkpt lat="39.57398810631936" lon="8.645646304894369"><ele>74.75</ele><time>2026-05-01T12:10:18Z</time></trkpt><trkpt lat="39.57411016588918" lon="8.645725501008524"><ele>75.0</ele><time>2026-05-01T12:10:19Z</time></trkpt><trkpt lat="39.57423499603555" lon="8.645815279611487"><ele>75.0</ele><time>2026-05-01T12:10:20Z</time></trkpt><trkpt lat="39.574361391003315" lon="8.645914013245344"><ele>75.0</ele><time>2026-05-01T12:10:21Z</time></trkpt><trkpt lat="39.57448573278212" lon="8.646024735225796"><ele>75.0</ele><time>2026-05-01T12:10:22Z</time></trkpt><trkpt lat="39.57460858262296" lon="8.646142047519461"><ele>74.33333333333333</ele><time>2026-05-01T12:10:23Z</time></trkpt><trkpt lat="39.57473566553091" lon="8.646258202484505"><ele>73.66666666666666</ele><time>2026-05-01T12:10:24Z</time></trkpt><trkpt lat="39.57487084137951" lon="8.646358603092121"><ele>73.0</ele><time>2026-05-01T12:10:25Z</time></trkpt><trkpt lat="39.57500349425763" lon="8.64646205150569"><ele>73.0</ele><time>2026-05-01T12:10:26Z</time></trkpt><trkpt lat="39.5751302337248" lon="8.646569305062474"><ele>73.0</ele><time>2026-05-01T12:10:27Z</time></trkpt><trkpt lat="39.57524621760901" lon="8.64665853798961"><ele>73.0</ele><time>2026-05-01T12:10:28Z</time></trkpt><trkpt lat="39.5753488627257" lon="8.646747092813001"><ele>73.0</ele><time>2026-05-01T12:10:29Z</time></trkpt><trkpt lat="39.57544981575417" lon="8.646830764018526"><ele>72.5</ele><time>2026-05-01T12:10:30Z</time></trkpt><trkpt lat="39.575563011155296" lon="8.64691119676953"><ele>72.0</ele><time>2026-05-01T12:10:31Z</time></trkpt><trkpt lat="39.57568061401074" lon="8.646991995312039"><ele>71.5</ele><time>2026-05-01T12:10:32Z</time></trkpt><trkpt lat="39.57577660248972" lon="8.647076499180214"><ele>71.0</ele><time>2026-05-01T12:10:33Z</time></trkpt><trkpt lat="39.575841945473094" lon="8.647151757672159"><ele>71.0</ele><time>2026-05-01T12:10:34Z</time></trkpt><trkpt lat="39.57584537136714" lon="8.647266069677945"><ele>71.0</ele><time>2026-05-01T12:10:36Z</time></trkpt><trkpt lat="39.57585712030185" lon="8.647380557974685"><ele>71.0</ele><time>2026-05-01T12:10:46Z</time></trkpt><trkpt lat="39.576014113211926" lon="8.647375093572885"><ele>71.0</ele><time>2026-05-01T12:10:47Z</time></trkpt><trkpt lat="39.57607738104479" lon="8.647369824145784"><ele>71.0</ele><time>2026-05-01T12:10:48Z</time></trkpt><trkpt lat="39.57615161301137" lon="8.647370307759621"><ele>70.8</ele><time>2026-05-01T12:10:49Z</time></trkpt><trkpt lat="39.57624987879563" lon="8.64737211588969"><ele>70.6</ele><time>2026-05-01T12:10:50Z</time></trkpt><trkpt lat="39.57635871054701" lon="8.647366310698027"><ele>70.4</ele><time>2026-05-01T12:10:51Z</time></trkpt><trkpt lat="39.576453306963614" lon="8.647351240371153"><ele>70.2</ele><time>2026-05-01T12:10:52Z</time></trkpt><trkpt lat="39.57653310306289" lon="8.64739092349312"><ele>70.0</ele><time>2026-05-01T12:10:54Z</time></trkpt><trkpt lat="39.57649012510845" lon="8.647458535084494"><ele>70.0</ele><time>2026-05-01T12:10:55Z</time></trkpt><trkpt lat="39.57648739584126" lon="8.647547104580603"><ele>70.0</ele><time>2026-05-01T12:10:56Z</time></trkpt><trkpt lat="39.57648757329459" lon="8.647632694264692"><ele>70.0</ele><time>2026-05-01T12:10:57Z</time></trkpt><trkpt lat="39.576550170870945" lon="8.647769893746117"><ele>70.0</ele><time>2026-05-01T12:10:59Z</time></trkpt><trkpt lat="39.57663643757367" lon="8.647825311524949"><ele>70.0</ele><time>2026-05-01T12:11:00Z</time></trkpt><trkpt lat="39.576749026389045" lon="8.647868960181263"><ele>69.75</ele><time>2026-05-01T12:11:01Z</time></trkpt><trkpt lat="39.576881309027016" lon="8.647930284999688"><ele>69.5</ele><time>2026-05-01T12:11:02Z</time></trkpt><trkpt lat="39.57701792695413" lon="8.648011953704374"><ele>69.25</ele><time>2026-05-01T12:11:03Z</time></trkpt><trkpt lat="39.57715695775874" lon="8.648095349884942"><ele>69.0</ele><time>2026-05-01T12:11:04Z</time></trkpt><trkpt lat="39.57730316493731" lon="8.64820609573264"><ele>68.66666666666667</ele><time>2026-05-01T12:11:05Z</time></trkpt><trkpt lat="39.57745250044342" lon="8.64829703572358"><ele>68.33333333333334</ele><time>2026-05-01T12:11:06Z</time></trkpt><trkpt lat="39.57759657389682" lon="8.648385888090633"><ele>68.0</ele><time>2026-05-01T12:11:07Z</time></trkpt><trkpt lat="39.57774052709769" lon="8.648460222092988"><ele>68.0</ele><time>2026-05-01T12:11:08Z</time></trkpt><trkpt lat="39.57788495212889" lon="8.648544248605537"><ele>68.0</ele><time>2026-05-01T12:11:09Z</time></trkpt><trkpt lat="39.578025343522" lon="8.64864737533239"><ele>68.0</ele><time>2026-05-01T12:11:10Z</time></trkpt><trkpt lat="39.57815821576911" lon="8.648761172944297"><ele>68.0</ele><time>2026-05-01T12:11:11Z</time></trkpt><trkpt lat="39.57829222507858" lon="8.648880117071057"><ele>68.0</ele><time>2026-05-01T12:11:12Z</time></trkpt><trkpt lat="39.578428372613374" lon="8.648993781477728"><ele>68.0</ele><time>2026-05-01T12:11:13Z</time></trkpt><trkpt lat="39.57856112381776" lon="8.649098556851923"><ele>68.0</ele><time>2026-05-01T12:11:14Z</time></trkpt><trkpt lat="39.57868202434787" lon="8.649189513838225"><ele>68.0</ele><time>2026-05-01T12:11:15Z</time></trkpt><trkpt lat="39.578790901976134" lon="8.649264463933072"><ele>68.0</ele><time>2026-05-01T12:11:16Z</time></trkpt><trkpt lat="39.5789063558454" lon="8.649325039426042"><ele>68.0</ele><time>2026-05-01T12:11:17Z</time></trkpt><trkpt lat="39.57903571397236" lon="8.649372147072295"><ele>68.0</ele><time>2026-05-01T12:11:18Z</time></trkpt><trkpt lat="39.579176663446816" lon="8.649386995335036"><ele>68.0</ele><time>2026-05-01T12:11:19Z</time></trkpt><trkpt lat="39.579295844870124" lon="8.649410644662362"><ele>68.0</ele><time>2026-05-01T12:11:20Z</time></trkpt><trkpt lat="39.57941490494612" lon="8.649452977261868"><ele>68.0</ele><time>2026-05-01T12:11:21Z</time></trkpt><trkpt lat="39.57953617444205" lon="8.649510032465116"><ele>68.0</ele><time>2026-05-01T12:11:22Z</time></trkpt><trkpt lat="39.57965762091395" lon="8.649589072857111"><ele>68.0</ele><time>2026-05-01T12:11:23Z</time></trkpt><trkpt lat="39.57977649241017" lon="8.649688477073102"><ele>68.0</ele><time>2026-05-01T12:11:24Z</time></trkpt><trkpt lat="39.579895818167266" lon="8.649801551898483"><ele>68.0</ele><time>2026-05-01T12:11:25Z</time></trkpt><trkpt lat="39.58002305830809" lon="8.649907417999934"><ele>68.0</ele><time>2026-05-01T12:11:26Z</time></trkpt><trkpt lat="39.58016085398166" lon="8.649997308729505"><ele>68.0</ele><time>2026-05-01T12:11:27Z</time></trkpt><trkpt lat="39.58030218996818" lon="8.650088024902116"><ele>68.0</ele><time>2026-05-01T12:11:28Z</time></trkpt><trkpt lat="39.58043531462511" lon="8.650182670328984"><ele>67.5</ele><time>2026-05-01T12:11:29Z</time></trkpt><trkpt lat="39.58054795356266" lon="8.650269801941594"><ele>67.0</ele><time>2026-05-01T12:11:30Z</time></trkpt><trkpt lat="39.580659384296375" lon="8.650361588013359"><ele>66.5</ele><time>2026-05-01T12:11:31Z</time></trkpt><trkpt lat="39.580774648264494" lon="8.65046057944356"><ele>66.0</ele><time>2026-05-01T12:11:32Z</time></trkpt><trkpt lat="39.580890948658215" lon="8.650567644908419"><ele>66.0</ele><time>2026-05-01T12:11:32.999Z</time></trkpt><trkpt lat="39.581002451546084" lon="8.65067758002692"><ele>66.0</ele><time>2026-05-01T12:11:33.999Z</time></trkpt><trkpt lat="39.581096571883705" lon="8.650782748434361"><ele>66.0</ele><time>2026-05-01T12:11:34.999Z</time></trkpt><trkpt lat="39.5811832661762" lon="8.650883946748744"><ele>66.0</ele><time>2026-05-01T12:11:35.999Z</time></trkpt><trkpt lat="39.58127447797398" lon="8.650971840543956"><ele>66.0</ele><time>2026-05-01T12:11:36.999Z</time></trkpt><trkpt lat="39.581377296659035" lon="8.651048575682799"><ele>66.0</ele><time>2026-05-01T12:11:37.999Z</time></trkpt><trkpt lat="39.581479095785845" lon="8.651104388543063"><ele>66.0</ele><time>2026-05-01T12:11:38.999Z</time></trkpt><trkpt lat="39.581583915411436" lon="8.651169281135884"><ele>66.0</ele><time>2026-05-01T12:11:39.999Z</time></trkpt><trkpt lat="39.581697640400265" lon="8.651229481297111"><ele>66.0</ele><time>2026-05-01T12:11:40.999Z</time></trkpt><trkpt lat="39.58181517309247" lon="8.651278795928864"><ele>66.0</ele><time>2026-05-01T12:11:41.999Z</time></trkpt><trkpt lat="39.58192946597183" lon="8.65133831066631"><ele>66.0</ele><time>2026-05-01T12:11:42.999Z</time></trkpt><trkpt lat="39.58204201593393" lon="8.651408134680517"><ele>66.0</ele><time>2026-05-01T12:11:43.999Z</time></trkpt><trkpt lat="39.582154054280224" lon="8.651484393362491"><ele>65.25</ele><time>2026-05-01T12:11:44.999Z</time></trkpt><trkpt lat="39.58226414541145" lon="8.65156706941171"><ele>64.5</ele><time>2026-05-01T12:11:45.999Z</time></trkpt><trkpt lat="39.58237257010956" lon="8.651654632930883"><ele>63.75</ele><time>2026-05-01T12:11:46.999Z</time></trkpt><trkpt lat="39.58248188969648" lon="8.651742773479844"><ele>63.0</ele><time>2026-05-01T12:11:47.999Z</time></trkpt><trkpt lat="39.582591363915185" lon="8.651832182257186"><ele>63.0</ele><time>2026-05-01T12:11:48.999Z</time></trkpt><trkpt lat="39.58270954993739" lon="8.65191799456463"><ele>63.0</ele><time>2026-05-01T12:11:49.999Z</time></trkpt><trkpt lat="39.58282875589505" lon="8.651994601657265"><ele>63.0</ele><time>2026-05-01T12:11:50.999Z</time></trkpt><trkpt lat="39.582953256429754" lon="8.652064775126274"><ele>63.0</ele><time>2026-05-01T12:11:51.999Z</time></trkpt><trkpt lat="39.58307937864022" lon="8.652131151226621"><ele>62.75</ele><time>2026-05-01T12:11:52.999Z</time></trkpt><trkpt lat="39.58319174682932" lon="8.652196880404892"><ele>62.5</ele><time>2026-05-01T12:11:53.999Z</time></trkpt><trkpt lat="39.58329617123633" lon="8.652277195924206"><ele>62.25</ele><time>2026-05-01T12:11:54.999Z</time></trkpt><trkpt lat="39.583397812227155" lon="8.652371414887789"><ele>62.0</ele><time>2026-05-01T12:11:55.999Z</time></trkpt><trkpt lat="39.5835022561748" lon="8.652459459797667"><ele>62.0</ele><time>2026-05-01T12:11:57Z</time></trkpt><trkpt lat="39.583604884562575" lon="8.652539689162374"><ele>62.0</ele><time>2026-05-01T12:11:58Z</time></trkpt><trkpt lat="39.58369912919102" lon="8.652606228703638"><ele>62.0</ele><time>2026-05-01T12:11:59Z</time></trkpt><trkpt lat="39.583770439981485" lon="8.652681143423322"><ele>62.0</ele><time>2026-05-01T12:12:00Z</time></trkpt><trkpt lat="39.58382885082563" lon="8.652748574752426"><ele>62.0</ele><time>2026-05-01T12:12:01Z</time></trkpt><trkpt lat="39.58387936761736" lon="8.652822079650779"><ele>62.0</ele><time>2026-05-01T12:12:02Z</time></trkpt><trkpt lat="39.583944493966676" lon="8.652909263785656"><ele>62.0</ele><time>2026-05-01T12:12:03Z</time></trkpt><trkpt lat="39.584006807303986" lon="8.653018570752469"><ele>62.0</ele><time>2026-05-01T12:12:04Z</time></trkpt><trkpt lat="39.58406288599922" lon="8.653115609853119"><ele>62.0</ele><time>2026-05-01T12:12:05Z</time></trkpt><trkpt lat="39.58411628691963" lon="8.653215034722269"><ele>62.0</ele><time>2026-05-01T12:12:06Z</time></trkpt><trkpt lat="39.58416840137318" lon="8.653336726248964"><ele>62.0</ele><time>2026-05-01T12:12:07Z</time></trkpt><trkpt lat="39.58423192026576" lon="8.653451542253269"><ele>62.0</ele><time>2026-05-01T12:12:08Z</time></trkpt><trkpt lat="39.58430180446941" lon="8.653572180037951"><ele>62.0</ele><time>2026-05-01T12:12:09Z</time></trkpt><trkpt lat="39.58437311854355" lon="8.653693948767964"><ele>62.0</ele><time>2026-05-01T12:12:10Z</time></trkpt><trkpt lat="39.584446511454345" lon="8.653818408675658"><ele>63.0</ele><time>2026-05-01T12:12:11Z</time></trkpt><trkpt lat="39.58452163165515" lon="8.653945520661194"><ele>64.0</ele><time>2026-05-01T12:12:12Z</time></trkpt><trkpt lat="39.58459758401465" lon="8.654073308080893"><ele>65.0</ele><time>2026-05-01T12:12:13Z</time></trkpt><trkpt lat="39.5846747524086" lon="8.65420209712313"><ele>66.0</ele><time>2026-05-01T12:12:14Z</time></trkpt><trkpt lat="39.58475539934746" lon="8.654334262002607"><ele>65.0</ele><time>2026-05-01T12:12:15Z</time></trkpt><trkpt lat="39.58483553776204" lon="8.65446559342881"><ele>64.0</ele><time>2026-05-01T12:12:16Z</time></trkpt><trkpt lat="39.58491580169787" lon="8.654602767894142"><ele>63.0</ele><time>2026-05-01T12:12:17Z</time></trkpt><trkpt lat="39.5849964094916" lon="8.654743103873972"><ele>62.0</ele><time>2026-05-01T12:12:18Z</time></trkpt><trkpt lat="39.585072855907164" lon="8.654889125865727"><ele>62.0</ele><time>2026-05-01T12:12:19Z</time></trkpt><trkpt lat="39.58513997929541" lon="8.65503445256641"><ele>62.0</ele><time>2026-05-01T12:12:20Z</time></trkpt><trkpt lat="39.585203455810365" lon="8.655190129002467"><ele>62.0</ele><time>2026-05-01T12:12:21Z</time></trkpt><trkpt lat="39.58526294861709" lon="8.655336532430512"><ele>62.0</ele><time>2026-05-01T12:12:22Z</time></trkpt><trkpt lat="39.585315080070316" lon="8.655464820551902"><ele>62.75</ele><time>2026-05-01T12:12:23Z</time></trkpt><trkpt lat="39.58536701672681" lon="8.655592629278466"><ele>63.5</ele><time>2026-05-01T12:12:24Z</time></trkpt><trkpt lat="39.585426538011866" lon="8.655735543302649"><ele>64.25</ele><time>2026-05-01T12:12:25Z</time></trkpt><trkpt lat="39.58549158538352" lon="8.655888808879979"><ele>65.0</ele><time>2026-05-01T12:12:26Z</time></trkpt><trkpt lat="39.585555795145744" lon="8.656040101139514"><ele>64.6</ele><time>2026-05-01T12:12:27Z</time></trkpt><trkpt lat="39.5856236778143" lon="8.656160853217989"><ele>64.2</ele><time>2026-05-01T12:12:28Z</time></trkpt><trkpt lat="39.5856705697075" lon="8.656270949223817"><ele>63.8</ele><time>2026-05-01T12:12:29Z</time></trkpt><trkpt lat="39.5857297512583" lon="8.656367232873507"><ele>63.4</ele><time>2026-05-01T12:12:30Z</time></trkpt><trkpt lat="39.58578835672163" lon="8.656484226646322"><ele>63.0</ele><time>2026-05-01T12:12:31Z</time></trkpt><trkpt lat="39.58585400279806" lon="8.656606318205382"><ele>63.0</ele><time>2026-05-01T12:12:32Z</time></trkpt><trkpt lat="39.5859156129551" lon="8.656728234954295"><ele>63.0</ele><time>2026-05-01T12:12:33Z</time></trkpt><trkpt lat="39.58595439346628" lon="8.656822376556644"><ele>63.0</ele><time>2026-05-01T12:12:34Z</time></trkpt><trkpt lat="39.58592329329843" lon="8.656932854974004"><ele>63.0</ele><time>2026-05-01T12:12:36Z</time></trkpt><trkpt lat="39.585889837510045" lon="8.657102878072022"><ele>63.0</ele><time>2026-05-01T12:12:38Z</time></trkpt><trkpt lat="39.58590177880948" lon="8.657207833343042"><ele>62.833333333333336</ele><time>2026-05-01T12:12:39Z</time></trkpt><trkpt lat="39.58591945300742" lon="8.657303863954942"><ele>62.66666666666667</ele><time>2026-05-01T12:12:40Z</time></trkpt><trkpt lat="39.58595117192275" lon="8.657377136191197"><ele>62.5</ele><time>2026-05-01T12:12:41Z</time></trkpt><trkpt lat="39.58601611217848" lon="8.65739259313204"><ele>62.333333333333336</ele><time>2026-05-01T12:12:42Z</time></trkpt><trkpt lat="39.58611547551397" lon="8.657384146045612"><ele>62.16666666666667</ele><time>2026-05-01T12:12:44Z</time></trkpt><trkpt lat="39.5862036800206" lon="8.657329771501187"><ele>62.0</ele><time>2026-05-01T12:12:46Z</time></trkpt><trkpt lat="39.586332938962606" lon="8.657311569730819"><ele>62.0</ele><time>2026-05-01T12:12:48Z</time></trkpt><trkpt lat="39.586424180216554" lon="8.65728735722931"><ele>62.0</ele><time>2026-05-01T12:12:49Z</time></trkpt><trkpt lat="39.58651713508032" lon="8.657281322570446"><ele>62.0</ele><time>2026-05-01T12:12:50Z</time></trkpt><trkpt lat="39.586609220495454" lon="8.65726413357365"><ele>62.0</ele><time>2026-05-01T12:12:51Z</time></trkpt><trkpt lat="39.58671279415502" lon="8.657231394440334"><ele>62.0</ele><time>2026-05-01T12:12:52Z</time></trkpt><trkpt lat="39.58681356984383" lon="8.657194305272995"><ele>62.00000000000001</ele><time>2026-05-01T12:12:53Z</time></trkpt><trkpt lat="39.58689868004292" lon="8.657153111282769"><ele>62.0</ele><time>2026-05-01T12:12:54Z</time></trkpt><trkpt lat="39.586971611097816" lon="8.657130016814179"><ele>62.0</ele><time>2026-05-01T12:12:55Z</time></trkpt><trkpt lat="39.587034730425486" lon="8.657107147561065"><ele>62.0</ele><time>2026-05-01T12:12:56Z</time></trkpt><trkpt lat="39.58712374725264" lon="8.657114881194296"><ele>62.00000000000001</ele><time>2026-05-01T12:12:58Z</time></trkpt><trkpt lat="39.587174570915984" lon="8.657216010994414"><ele>62.0</ele><time>2026-05-01T12:13:00Z</time></trkpt><trkpt lat="39.58728980245781" lon="8.657302305125333"><ele>61.8</ele><time>2026-05-01T12:13:02Z</time></trkpt><trkpt lat="39.58738533996559" lon="8.657386532409465"><ele>61.6</ele><time>2026-05-01T12:13:03Z</time></trkpt><trkpt lat="39.58749094697811" lon="8.657417359103817"><ele>61.39999999999999</ele><time>2026-05-01T12:13:04Z</time></trkpt><trkpt lat="39.58758532481172" lon="8.657454946489842"><ele>61.199999999999996</ele><time>2026-05-01T12:13:05Z</time></trkpt><trkpt lat="39.587682595768264" lon="8.657483913428846"><ele>61.0</ele><time>2026-05-01T12:13:06Z</time></trkpt><trkpt lat="39.58777907659577" lon="8.65750001836799"><ele>61.166666666666664</ele><time>2026-05-01T12:13:07Z</time></trkpt><trkpt lat="39.58786495904585" lon="8.657512030796141"><ele>61.33333333333333</ele><time>2026-05-01T12:13:08Z</time></trkpt><trkpt lat="39.58794416517465" lon="8.65752972051822"><ele>61.5</ele><time>2026-05-01T12:13:09Z</time></trkpt><trkpt lat="39.588017613579446" lon="8.657558929819444"><ele>61.66666666666667</ele><time>2026-05-01T12:13:10Z</time></trkpt><trkpt lat="39.588090617782605" lon="8.657595639291653"><ele>61.833333333333336</ele><time>2026-05-01T12:13:11Z</time></trkpt><trkpt lat="39.588172679490434" lon="8.65763351354455"><ele>62.0</ele><time>2026-05-01T12:13:12Z</time></trkpt><trkpt lat="39.58824957280513" lon="8.65767052612542"><ele>62.00000000000001</ele><time>2026-05-01T12:13:13Z</time></trkpt><trkpt lat="39.58831730462814" lon="8.657689287375437"><ele>62.0</ele><time>2026-05-01T12:13:14Z</time></trkpt><trkpt lat="39.58841872015629" lon="8.657693720813928"><ele>62.0</ele><time>2026-05-01T12:13:16Z</time></trkpt><trkpt lat="39.58850197607723" lon="8.657654467848431"><ele>62.0</ele><time>2026-05-01T12:13:18Z</time></trkpt><trkpt lat="39.588586367083174" lon="8.657637458241878"><ele>62.00000000000001</ele><time>2026-05-01T12:13:20Z</time></trkpt><trkpt lat="39.58867514741727" lon="8.657649290760139"><ele>62.0</ele><time>2026-05-01T12:13:22Z</time></trkpt><trkpt lat="39.588743150042426" lon="8.657652872851296"><ele>61.833333333333336</ele><time>2026-05-01T12:13:23Z</time></trkpt><trkpt lat="39.588813646578686" lon="8.6576658542354"><ele>61.66666666666667</ele><time>2026-05-01T12:13:24Z</time></trkpt><trkpt lat="39.58888618874482" lon="8.657686764019616"><ele>61.5</ele><time>2026-05-01T12:13:25Z</time></trkpt><trkpt lat="39.58895236150669" lon="8.657714312834646"><ele>61.33333333333333</ele><time>2026-05-01T12:13:26Z</time></trkpt><trkpt lat="39.58902004603118" lon="8.657758450158454"><ele>61.166666666666664</ele><time>2026-05-01T12:13:27Z</time></trkpt><trkpt lat="39.58909421019329" lon="8.65782054015448"><ele>61.0</ele><time>2026-05-01T12:13:28Z</time></trkpt><trkpt lat="39.589162052996585" lon="8.657882533370028"><ele>61.0</ele><time>2026-05-01T12:13:29Z</time></trkpt><trkpt lat="39.58923254603451" lon="8.657933362387082"><ele>60.99999999999999</ele><time>2026-05-01T12:13:30Z</time></trkpt><trkpt lat="39.589320397525015" lon="8.657985274796381"><ele>60.99999999999999</ele><time>2026-05-01T12:13:31Z</time></trkpt><trkpt lat="39.58940653896554" lon="8.658054481371174"><ele>61.0</ele><time>2026-05-01T12:13:32Z</time></trkpt><trkpt lat="39.58949390525712" lon="8.658127235595432"><ele>61.0</ele><time>2026-05-01T12:13:33Z</time></trkpt><trkpt lat="39.589571634304214" lon="8.65819477715856"><ele>60.83333333333333</ele><time>2026-05-01T12:13:34Z</time></trkpt><trkpt lat="39.589645935943686" lon="8.658256958836489"><ele>60.666666666666664</ele><time>2026-05-01T12:13:34.999Z</time></trkpt><trkpt lat="39.58972580781725" lon="8.658323385484215"><ele>60.5</ele><time>2026-05-01T12:13:35.999Z</time></trkpt><trkpt lat="39.58979949321723" lon="8.658385548264162"><ele>60.33333333333333</ele><time>2026-05-01T12:13:36.999Z</time></trkpt><trkpt lat="39.589867945399654" lon="8.658419514797682"><ele>60.166666666666664</ele><time>2026-05-01T12:13:37.999Z</time></trkpt><trkpt lat="39.58993951025142" lon="8.658410973204656"><ele>60.0</ele><time>2026-05-01T12:13:38.999Z</time></trkpt><trkpt lat="39.5900237246399" lon="8.658380290294758"><ele>60.0</ele><time>2026-05-01T12:13:39.999Z</time></trkpt><trkpt lat="39.59012558644357" lon="8.6583776787444"><ele>60.0</ele><time>2026-05-01T12:13:40.999Z</time></trkpt><trkpt lat="39.59023869000719" lon="8.658399066607917"><ele>60.0</ele><time>2026-05-01T12:13:41.999Z</time></trkpt><trkpt lat="39.59035862035838" lon="8.658426823661413"><ele>60.0</ele><time>2026-05-01T12:13:42.999Z</time></trkpt><trkpt lat="39.590475674530566" lon="8.658447656992783"><ele>59.4</ele><time>2026-05-01T12:13:43.999Z</time></trkpt><trkpt lat="39.59058254363535" lon="8.658446906017081"><ele>58.8</ele><time>2026-05-01T12:13:44.999Z</time></trkpt><trkpt lat="39.590684733686636" lon="8.658422348410244"><ele>58.2</ele><time>2026-05-01T12:13:45.999Z</time></trkpt><trkpt lat="39.59079537991568" lon="8.658385459436385"><ele>57.6</ele><time>2026-05-01T12:13:46.999Z</time></trkpt><trkpt lat="39.590910335268525" lon="8.658354014302374"><ele>57.0</ele><time>2026-05-01T12:13:47.999Z</time></trkpt><trkpt lat="39.59102095249763" lon="8.658334236143512"><ele>57.0</ele><time>2026-05-01T12:13:48.999Z</time></trkpt><trkpt lat="39.5911220937619" lon="8.65832304473584"><ele>57.0</ele><time>2026-05-01T12:13:49.999Z</time></trkpt><trkpt lat="39.59121642281832" lon="8.65832371552954"><ele>57.0</ele><time>2026-05-01T12:13:50.999Z</time></trkpt><trkpt lat="39.591320808384324" lon="8.658330133079339"><ele>57.0</ele><time>2026-05-01T12:13:51.999Z</time></trkpt><trkpt lat="39.591434873948685" lon="8.658337686801646"><ele>57.0</ele><time>2026-05-01T12:13:52.999Z</time></trkpt><trkpt lat="39.591555555129695" lon="8.658336394955638"><ele>56.75</ele><time>2026-05-01T12:13:53.999Z</time></trkpt><trkpt lat="39.59167458725852" lon="8.65833088971996"><ele>56.5</ele><time>2026-05-01T12:13:54.999Z</time></trkpt><trkpt lat="39.591782004026626" lon="8.658336510112711"><ele>56.25</ele><time>2026-05-01T12:13:55.999Z</time></trkpt><trkpt lat="39.59189185899477" lon="8.65835679786149"><ele>56.0</ele><time>2026-05-01T12:13:56.999Z</time></trkpt><trkpt lat="39.59200895534037" lon="8.658383577516714"><ele>55.5</ele><time>2026-05-01T12:13:57.999Z</time></trkpt><trkpt lat="39.592130990829105" lon="8.658401444237164"><ele>55.0</ele><time>2026-05-01T12:13:58.999Z</time></trkpt><trkpt lat="39.5922541299027" lon="8.658404887373292"><ele>54.5</ele><time>2026-05-01T12:13:59.999Z</time></trkpt><trkpt lat="39.592380095669895" lon="8.658398136931773"><ele>54.0</ele><time>2026-05-01T12:14:00.999Z</time></trkpt><trkpt lat="39.59250514342039" lon="8.658392705909414"><ele>54.0</ele><time>2026-05-01T12:14:01.999Z</time></trkpt><trkpt lat="39.5926234101651" lon="8.658385462357916"><ele>54.0</ele><time>2026-05-01T12:14:03Z</time></trkpt><trkpt lat="39.59273488596752" lon="8.658372837832651"><ele>54.0</ele><time>2026-05-01T12:14:04Z</time></trkpt><trkpt lat="39.59285880163842" lon="8.65834108743358"><ele>54.0</ele><time>2026-05-01T12:14:05Z</time></trkpt><trkpt lat="39.59298139765726" lon="8.658297689327616"><ele>54.0</ele><time>2026-05-01T12:14:06Z</time></trkpt><trkpt lat="39.59311210348374" lon="8.65825745037515"><ele>54.0</ele><time>2026-05-01T12:14:07Z</time></trkpt><trkpt lat="39.5932443489453" lon="8.658220864568682"><ele>54.0</ele><time>2026-05-01T12:14:08Z</time></trkpt><trkpt lat="39.59337611023784" lon="8.658178276169197"><ele>54.0</ele><time>2026-05-01T12:14:09Z</time></trkpt><trkpt lat="39.59351171474291" lon="8.658145476898136"><ele>54.0</ele><time>2026-05-01T12:14:10Z</time></trkpt><trkpt lat="39.593657285175155" lon="8.658118186191215"><ele>54.0</ele><time>2026-05-01T12:14:11Z</time></trkpt><trkpt lat="39.59380068897489" lon="8.658100597486953"><ele>54.0</ele><time>2026-05-01T12:14:12Z</time></trkpt><trkpt lat="39.59394255289033" lon="8.658085570902452"><ele>54.0</ele><time>2026-05-01T12:14:13Z</time></trkpt><trkpt lat="39.59408171183243" lon="8.658063926876089"><ele>54.0</ele><time>2026-05-01T12:14:14Z</time></trkpt><trkpt lat="39.594212516810416" lon="8.658034753976994"><ele>54.0</ele><time>2026-05-01T12:14:15Z</time></trkpt><trkpt lat="39.59434059024379" lon="8.657998662679256"><ele>54.0</ele><time>2026-05-01T12:14:16Z</time></trkpt><trkpt lat="39.5944684926735" lon="8.657963700830233"><ele>54.0</ele><time>2026-05-01T12:14:17Z</time></trkpt><trkpt lat="39.59459289872007" lon="8.65792580425044"><ele>54.0</ele><time>2026-05-01T12:14:18Z</time></trkpt><trkpt lat="39.59471568291025" lon="8.65789171607618"><ele>54.0</ele><time>2026-05-01T12:14:19Z</time></trkpt><trkpt lat="39.59484109707531" lon="8.657862548935304"><ele>54.0</ele><time>2026-05-01T12:14:20Z</time></trkpt><trkpt lat="39.594971672104876" lon="8.657841848945385"><ele>54.0</ele><time>2026-05-01T12:14:21Z</time></trkpt><trkpt lat="39.59510959676974" lon="8.657824525365976"><ele>54.0</ele><time>2026-05-01T12:14:22Z</time></trkpt><trkpt lat="39.59524317016389" lon="8.657806915078256"><ele>54.0</ele><time>2026-05-01T12:14:23Z</time></trkpt><trkpt lat="39.59538090645321" lon="8.657786770386325"><ele>54.0</ele><time>2026-05-01T12:14:24Z</time></trkpt><trkpt lat="39.595521827194595" lon="8.65776497824634"><ele>54.0</ele><time>2026-05-01T12:14:25Z</time></trkpt><trkpt lat="39.59565800485871" lon="8.657745885138876"><ele>54.25</ele><time>2026-05-01T12:14:26Z</time></trkpt><trkpt lat="39.59579490138294" lon="8.657742702677497"><ele>54.5</ele><time>2026-05-01T12:14:27Z</time></trkpt><trkpt lat="39.595940852749784" lon="8.657757463614486"><ele>54.75</ele><time>2026-05-01T12:14:28Z</time></trkpt><trkpt lat="39.59608727692774" lon="8.65777271547907"><ele>55.0</ele><time>2026-05-01T12:14:29Z</time></trkpt><trkpt lat="39.59623852116402" lon="8.657779714660808"><ele>55.0</ele><time>2026-05-01T12:14:30Z</time></trkpt><trkpt lat="39.59638896105704" lon="8.657779967221337"><ele>55.0</ele><time>2026-05-01T12:14:31Z</time></trkpt><trkpt lat="39.596534025544884" lon="8.657771674469656"><ele>55.0</ele><time>2026-05-01T12:14:32Z</time></trkpt><trkpt lat="39.59667689471375" lon="8.657779090350118"><ele>55.0</ele><time>2026-05-01T12:14:33Z</time></trkpt><trkpt lat="39.596802649059796" lon="8.657799737654132"><ele>54.75</ele><time>2026-05-01T12:14:34Z</time></trkpt><trkpt lat="39.59692627835871" lon="8.657830207503517"><ele>54.5</ele><time>2026-05-01T12:14:35Z</time></trkpt><trkpt lat="39.59705777691306" lon="8.657861174774991"><ele>54.25</ele><time>2026-05-01T12:14:36Z</time></trkpt><trkpt lat="39.59719563885841" lon="8.657895846085209"><ele>54.0</ele><time>2026-05-01T12:14:37Z</time></trkpt><trkpt lat="39.59733542973591" lon="8.657929409557397"><ele>53.33333333333333</ele><time>2026-05-01T12:14:38Z</time></trkpt><trkpt lat="39.597483141039056" lon="8.657968293594472"><ele>52.666666666666664</ele><time>2026-05-01T12:14:39Z</time></trkpt><trkpt lat="39.597634868469115" lon="8.65800828057997"><ele>52.0</ele><time>2026-05-01T12:14:40Z</time></trkpt><trkpt lat="39.597789125869504" lon="8.658053220387378"><ele>52.33333333333333</ele><time>2026-05-01T12:14:41Z</time></trkpt><trkpt lat="39.597944670940656" lon="8.658103780881502"><ele>52.66666666666667</ele><time>2026-05-01T12:14:42Z</time></trkpt><trkpt lat="39.59810185340827" lon="8.658159176954555"><ele>53.0</ele><time>2026-05-01T12:14:43Z</time></trkpt><trkpt lat="39.59825853079452" lon="8.65821255474464"><ele>53.0</ele><time>2026-05-01T12:14:44Z</time></trkpt><trkpt lat="39.59840864794907" lon="8.658256592752297"><ele>53.0</ele><time>2026-05-01T12:14:45Z</time></trkpt><trkpt lat="39.59854741588316" lon="8.65829745870187"><ele>53.0</ele><time>2026-05-01T12:14:46Z</time></trkpt><trkpt lat="39.59869808351526" lon="8.658339778909612"><ele>52.75</ele><time>2026-05-01T12:14:47Z</time></trkpt><trkpt lat="39.598836498404005" lon="8.658382600043623"><ele>52.5</ele><time>2026-05-01T12:14:48Z</time></trkpt><trkpt lat="39.59896278566435" lon="8.658429914599655"><ele>52.25</ele><time>2026-05-01T12:14:49Z</time></trkpt><trkpt lat="39.59907874982801" lon="8.658467409761464"><ele>52.0</ele><time>2026-05-01T12:14:50Z</time></trkpt><trkpt lat="39.59918847381703" lon="8.658499990982522"><ele>52.0</ele><time>2026-05-01T12:14:51Z</time></trkpt><trkpt lat="39.59928429396416" lon="8.658551231360518"><ele>52.0</ele><time>2026-05-01T12:14:52Z</time></trkpt><trkpt lat="39.599370255642214" lon="8.658590134481218"><ele>52.0</ele><time>2026-05-01T12:14:53Z</time></trkpt><trkpt lat="39.59945260979465" lon="8.658689352466066"><ele>52.0</ele><time>2026-05-01T12:14:54Z</time></trkpt><trkpt lat="39.59954292331011" lon="8.658770288975933"><ele>52.0</ele><time>2026-05-01T12:14:55Z</time></trkpt><trkpt lat="39.59964773925885" lon="8.658846502853608"><ele>51.25</ele><time>2026-05-01T12:14:56Z</time></trkpt><trkpt lat="39.599766124454696" lon="8.658925568368915"><ele>50.5</ele><time>2026-05-01T12:14:57Z</time></trkpt><trkpt lat="39.59989367824368" lon="8.659012400819066"><ele>49.75</ele><time>2026-05-01T12:14:58Z</time></trkpt><trkpt lat="39.60002923150673" lon="8.659106912757785"><ele>49.0</ele><time>2026-05-01T12:14:59Z</time></trkpt><trkpt lat="39.60016999407499" lon="8.659206870956137"><ele>49.0</ele><time>2026-05-01T12:15:00Z</time></trkpt><trkpt lat="39.60031563112492" lon="8.659312459272607"><ele>49.0</ele><time>2026-05-01T12:15:01Z</time></trkpt><trkpt lat="39.60046344368349" lon="8.659426907354788"><ele>49.0</ele><time>2026-05-01T12:15:02Z</time></trkpt><trkpt lat="39.60059261318407" lon="8.659544899025772"><ele>49.0</ele><time>2026-05-01T12:15:03Z</time></trkpt><trkpt lat="39.600710805868545" lon="8.65967306872101"><ele>49.0</ele><time>2026-05-01T12:15:04Z</time></trkpt><trkpt lat="39.60082766994886" lon="8.659824942115286"><ele>49.0</ele><time>2026-05-01T12:15:05Z</time></trkpt><trkpt lat="39.600955930073255" lon="8.65998471911563"><ele>49.0</ele><time>2026-05-01T12:15:06Z</time></trkpt><trkpt lat="39.60109624438267" lon="8.660128959139618"><ele>49.0</ele><time>2026-05-01T12:15:07Z</time></trkpt><trkpt lat="39.60123781570575" lon="8.660270433430561"><ele>49.0</ele><time>2026-05-01T12:15:08Z</time></trkpt><trkpt lat="39.60138880561992" lon="8.660423908898744"><ele>49.0</ele><time>2026-05-01T12:15:09Z</time></trkpt><trkpt lat="39.6015426538309" lon="8.660561375120466"><ele>49.0</ele><time>2026-05-01T12:15:10Z</time></trkpt><trkpt lat="39.60171645516243" lon="8.660690547806091"><ele>49.0</ele><time>2026-05-01T12:15:11Z</time></trkpt><trkpt lat="39.60187119450946" lon="8.660783413535448"><ele>49.0</ele><time>2026-05-01T12:15:12Z</time></trkpt><trkpt lat="39.6020058746379" lon="8.660875972729034"><ele>49.0</ele><time>2026-05-01T12:15:13Z</time></trkpt><trkpt lat="39.602129842096396" lon="8.660971400875411"><ele>49.0</ele><time>2026-05-01T12:15:14Z</time></trkpt><trkpt lat="39.6022547003291" lon="8.661063228179218"><ele>49.0</ele><time>2026-05-01T12:15:15Z</time></trkpt><trkpt lat="39.602375319272596" lon="8.661131725081749"><ele>49.0</ele><time>2026-05-01T12:15:16Z</time></trkpt><trkpt lat="39.60248352357412" lon="8.661192537949976"><ele>49.0</ele><time>2026-05-01T12:15:17Z</time></trkpt><trkpt lat="39.60258032638962" lon="8.661257971543426"><ele>49.0</ele><time>2026-05-01T12:15:18Z</time></trkpt><trkpt lat="39.602669958769305" lon="8.661313287583043"><ele>49.0</ele><time>2026-05-01T12:15:19Z</time></trkpt><trkpt lat="39.60274443109281" lon="8.661375070003267"><ele>49.0</ele><time>2026-05-01T12:15:21Z</time></trkpt><trkpt lat="39.602710337427965" lon="8.661453323177321"><ele>49.0</ele><time>2026-05-01T12:15:24Z</time></trkpt><trkpt lat="39.60262600952759" lon="8.661431577203016"><ele>49.0</ele><time>2026-05-01T12:15:25Z</time></trkpt><trkpt lat="39.602523153363705" lon="8.66147259936904"><ele>49.0</ele><time>2026-05-01T12:15:26Z</time></trkpt><trkpt lat="39.60240222409438" lon="8.66147762630254"><ele>49.0</ele><time>2026-05-01T12:15:27Z</time></trkpt><trkpt lat="39.602261731369765" lon="8.661506536057331"><ele>49.0</ele><time>2026-05-01T12:15:28Z</time></trkpt><trkpt lat="39.60210717805844" lon="8.661538338988136"><ele>49.0</ele><time>2026-05-01T12:15:29Z</time></trkpt><trkpt lat="39.6019506967766" lon="8.661570538633685"><ele>49.0</ele><time>2026-05-01T12:15:30Z</time></trkpt><trkpt lat="39.60177950431124" lon="8.661605765529647"><ele>49.0</ele><time>2026-05-01T12:15:31Z</time></trkpt><trkpt lat="39.60159186519816" lon="8.661644376697781"><ele>49.0</ele><time>2026-05-01T12:15:32Z</time></trkpt><trkpt lat="39.60140020196156" lon="8.661683815848788"><ele>49.0</ele><time>2026-05-01T12:15:33Z</time></trkpt><trkpt lat="39.601209279491705" lon="8.661723217222749"><ele>49.33333333333333</ele><time>2026-05-01T12:15:34Z</time></trkpt><trkpt lat="39.60100450608287" lon="8.661765785229159"><ele>49.66666666666667</ele><time>2026-05-01T12:15:35Z</time></trkpt><trkpt lat="39.60079946918189" lon="8.661808408992224"><ele>50.0</ele><time>2026-05-01T12:15:36Z</time></trkpt><trkpt lat="39.60059107793458" lon="8.66185173006182"><ele>50.0</ele><time>2026-05-01T12:15:37Z</time></trkpt><trkpt lat="39.6003867799549" lon="8.661894200222362"><ele>50.0</ele><time>2026-05-01T12:15:37.999Z</time></trkpt><trkpt lat="39.60018661061898" lon="8.661935812102971"><ele>50.0</ele><time>2026-05-01T12:15:38.999Z</time></trkpt><trkpt lat="39.59998340341726" lon="8.661978055495412"><ele>50.333333333333336</ele><time>2026-05-01T12:15:39.999Z</time></trkpt><trkpt lat="39.599781888802596" lon="8.66201994703492"><ele>50.66666666666667</ele><time>2026-05-01T12:15:40.999Z</time></trkpt><trkpt lat="39.59957868463994" lon="8.662062189798775"><ele>51.0</ele><time>2026-05-01T12:15:41.999Z</time></trkpt><trkpt lat="39.599375172925825" lon="8.662104357268833"><ele>51.0</ele><time>2026-05-01T12:15:42.999Z</time></trkpt><trkpt lat="39.599173189808006" lon="8.662145573718783"><ele>51.0</ele><time>2026-05-01T12:15:43.999Z</time></trkpt><trkpt lat="39.59897026932865" lon="8.662186981456168"><ele>51.0</ele><time>2026-05-01T12:15:44.999Z</time></trkpt><trkpt lat="39.598767117452184" lon="8.662228436405577"><ele>51.33333333333333</ele><time>2026-05-01T12:15:45.999Z</time></trkpt><trkpt lat="39.598561925165434" lon="8.662270455175133"><ele>51.666666666666664</ele><time>2026-05-01T12:15:46.999Z</time></trkpt><trkpt lat="39.59835555094362" lon="8.662313299892888"><ele>52.0</ele><time>2026-05-01T12:15:47.999Z</time></trkpt><trkpt lat="39.598146762616615" lon="8.662356647369919"><ele>52.0</ele><time>2026-05-01T12:15:48.999Z</time></trkpt><trkpt lat="39.59793501690876" lon="8.662400607315822"><ele>52.0</ele><time>2026-05-01T12:15:49.999Z</time></trkpt><trkpt lat="39.597723425457055" lon="8.662444535211812"><ele>52.0</ele><time>2026-05-01T12:15:50.999Z</time></trkpt><trkpt lat="39.59750958895155" lon="8.662488929220558"><ele>52.0</ele><time>2026-05-01T12:15:51.999Z</time></trkpt><trkpt lat="39.59729756483307" lon="8.662532946948678"><ele>52.0</ele><time>2026-05-01T12:15:52.999Z</time></trkpt><trkpt lat="39.59708526925101" lon="8.662576897145824"><ele>52.0</ele><time>2026-05-01T12:15:53.999Z</time></trkpt><trkpt lat="39.596876683018785" lon="8.662641520452329"><ele>51.33333333333333</ele><time>2026-05-01T12:15:54.999Z</time></trkpt><trkpt lat="39.596664874202716" lon="8.662682392732606"><ele>50.66666666666667</ele><time>2026-05-01T12:15:55.999Z</time></trkpt><trkpt lat="39.59645187993767" lon="8.662707813252075"><ele>50.0</ele><time>2026-05-01T12:15:56.999Z</time></trkpt><trkpt lat="39.59623873241864" lon="8.662751869006263"><ele>51.0</ele><time>2026-05-01T12:15:57.999Z</time></trkpt><trkpt lat="39.596027055278114" lon="8.66279621253636"><ele>52.0</ele><time>2026-05-01T12:15:58.999Z</time></trkpt><trkpt lat="39.59581534103777" lon="8.662840716381528"><ele>53.0</ele><time>2026-05-01T12:15:59.999Z</time></trkpt><trkpt lat="39.59560452434156" lon="8.66288303263957"><ele>53.0</ele><time>2026-05-01T12:16:00.999Z</time></trkpt><trkpt lat="39.59541073930329" lon="8.662921781831086"><ele>53.0</ele><time>2026-05-01T12:16:01.999Z</time></trkpt><trkpt lat="39.595233194863916" lon="8.6629577837004"><ele>53.0</ele><time>2026-05-01T12:16:02.999Z</time></trkpt><trkpt lat="39.595069017802935" lon="8.66299178026779"><ele>53.25</ele><time>2026-05-01T12:16:03.999Z</time></trkpt><trkpt lat="39.59491765988281" lon="8.663023122341311"><ele>53.5</ele><time>2026-05-01T12:16:04.999Z</time></trkpt><trkpt lat="39.59478755879876" lon="8.663071656680266"><ele>53.75</ele><time>2026-05-01T12:16:05.999Z</time></trkpt><trkpt lat="39.59467126810325" lon="8.66307414338912"><ele>54.0</ele><time>2026-05-01T12:16:06.999Z</time></trkpt><trkpt lat="39.594580480745684" lon="8.663109083180759"><ele>54.0</ele><time>2026-05-01T12:16:07.999Z</time></trkpt><trkpt lat="39.5944974109575" lon="8.663110144435954"><ele>54.0</ele><time>2026-05-01T12:16:10Z</time></trkpt><trkpt lat="39.594537289882155" lon="8.663318884196956"><ele>54.0</ele><time>2026-05-01T12:16:12Z</time></trkpt><trkpt lat="39.59456327134162" lon="8.663440465565545"><ele>54.0</ele><time>2026-05-01T12:16:13Z</time></trkpt><trkpt lat="39.5946130801563" lon="8.66359044379211"><ele>53.5</ele><time>2026-05-01T12:16:14Z</time></trkpt><trkpt lat="39.59466834710853" lon="8.663746236563354"><ele>53.0</ele><time>2026-05-01T12:16:15Z</time></trkpt><trkpt lat="39.59473318496304" lon="8.663921348165943"><ele>52.5</ele><time>2026-05-01T12:16:16Z</time></trkpt><trkpt lat="39.594805686761326" lon="8.66411710295644"><ele>52.0</ele><time>2026-05-01T12:16:17Z</time></trkpt><trkpt lat="39.59488023819451" lon="8.66432496786865"><ele>52.0</ele><time>2026-05-01T12:16:18Z</time></trkpt><trkpt lat="39.594956657710846" lon="8.664544821001192"><ele>52.0</ele><time>2026-05-01T12:16:19Z</time></trkpt><trkpt lat="39.59503521530844" lon="8.664776766587837"><ele>52.0</ele><time>2026-05-01T12:16:20Z</time></trkpt><trkpt lat="39.59510262381646" lon="8.664975794599117"><ele>52.0</ele><time>2026-05-01T12:16:21Z</time></trkpt><trkpt lat="39.595162223482774" lon="8.665151765885403"><ele>52.0</ele><time>2026-05-01T12:16:22Z</time></trkpt><trkpt lat="39.59522335791163" lon="8.665309206302345"><ele>52.0</ele><time>2026-05-01T12:16:23Z</time></trkpt><trkpt lat="39.595273251314524" lon="8.665432733603762"><ele>52.0</ele><time>2026-05-01T12:16:24Z</time></trkpt><trkpt lat="39.595310266285225" lon="8.665528133859729"><ele>52.0</ele><time>2026-05-01T12:16:25Z</time></trkpt><trkpt lat="39.59531933750612" lon="8.665659849822708"><ele>52.0</ele><time>2026-05-01T12:16:27Z</time></trkpt><trkpt lat="39.59522592162074" lon="8.665712750298631"><ele>52.0</ele><time>2026-05-01T12:16:29Z</time></trkpt><trkpt lat="39.59515525989928" lon="8.665749718783703"><ele>52.0</ele><time>2026-05-01T12:16:30Z</time></trkpt><trkpt lat="39.59505945728567" lon="8.665811788503316"><ele>52.0</ele><time>2026-05-01T12:16:31Z</time></trkpt><trkpt lat="39.59495452286206" lon="8.665879209591544"><ele>52.0</ele><time>2026-05-01T12:16:32Z</time></trkpt><trkpt lat="39.59483930951092" lon="8.665948340874607"><ele>52.0</ele><time>2026-05-01T12:16:33Z</time></trkpt><trkpt lat="39.59472616683677" lon="8.666043090718551"><ele>52.0</ele><time>2026-05-01T12:16:34Z</time></trkpt><trkpt lat="39.59461145283012" lon="8.666158824425573"><ele>52.0</ele><time>2026-05-01T12:16:35Z</time></trkpt><trkpt lat="39.59451456305326" lon="8.666283402522314"><ele>52.0</ele><time>2026-05-01T12:16:36Z</time></trkpt><trkpt lat="39.59443622590904" lon="8.666405804464098"><ele>52.0</ele><time>2026-05-01T12:16:37Z</time></trkpt><trkpt lat="39.59439447164059" lon="8.66649274008073"><ele>52.0</ele><time>2026-05-01T12:16:38Z</time></trkpt><trkpt lat="39.594519300382046" lon="8.666661236976609"><ele>52.0</ele><time>2026-05-01T12:16:42Z</time></trkpt><trkpt lat="39.59461697405888" lon="8.666713171488873"><ele>52.0</ele><time>2026-05-01T12:16:43Z</time></trkpt><trkpt lat="39.5947339813" lon="8.66679607787504"><ele>52.0</ele><time>2026-05-01T12:16:44Z</time></trkpt><trkpt lat="39.59486427012154" lon="8.666913279957337"><ele>52.0</ele><time>2026-05-01T12:16:45Z</time></trkpt><trkpt lat="39.595008876544064" lon="8.667038090477988"><ele>52.0</ele><time>2026-05-01T12:16:46Z</time></trkpt><trkpt lat="39.59516232056914" lon="8.667170505878255"><ele>52.0</ele><time>2026-05-01T12:16:47Z</time></trkpt><trkpt lat="39.595325479202884" lon="8.667317285479823"><ele>52.0</ele><time>2026-05-01T12:16:48Z</time></trkpt><trkpt lat="39.59550589113617" lon="8.667472686527589"><ele>52.0</ele><time>2026-05-01T12:16:49Z</time></trkpt><trkpt lat="39.595691816391835" lon="8.667625270533115"><ele>52.0</ele><time>2026-05-01T12:16:50Z</time></trkpt><trkpt lat="39.5958880487291" lon="8.667785755083825"><ele>52.0</ele><time>2026-05-01T12:16:51Z</time></trkpt><trkpt lat="39.596085411458574" lon="8.667940914298665"><ele>52.0</ele><time>2026-05-01T12:16:52Z</time></trkpt><trkpt lat="39.59627863090406" lon="8.668089241855283"><ele>51.666666666666664</ele><time>2026-05-01T12:16:53Z</time></trkpt><trkpt lat="39.59646830607401" lon="8.668236864408346"><ele>51.33333333333333</ele><time>2026-05-01T12:16:54Z</time></trkpt><trkpt lat="39.59664052240103" lon="8.668372318781532"><ele>51.0</ele><time>2026-05-01T12:16:55Z</time></trkpt><trkpt lat="39.59680138532197" lon="8.66850084409614"><ele>51.0</ele><time>2026-05-01T12:16:56Z</time></trkpt><trkpt lat="39.59696065116564" lon="8.66863298300831"><ele>51.0</ele><time>2026-05-01T12:16:57Z</time></trkpt><trkpt lat="39.59712157820542" lon="8.66876441750044"><ele>51.0</ele><time>2026-05-01T12:16:58Z</time></trkpt><trkpt lat="39.597283452603705" lon="8.668887087190777"><ele>50.66666666666667</ele><time>2026-05-01T12:16:59Z</time></trkpt><trkpt lat="39.59744403257371" lon="8.669009578069206"><ele>50.333333333333336</ele><time>2026-05-01T12:17:00Z</time></trkpt><trkpt lat="39.597610730076134" lon="8.669122379804076"><ele>50.0</ele><time>2026-05-01T12:17:01Z</time></trkpt><trkpt lat="39.59778029836049" lon="8.66922615081078"><ele>50.0</ele><time>2026-05-01T12:17:02Z</time></trkpt><trkpt lat="39.597953259697995" lon="8.669319619308723"><ele>50.0</ele><time>2026-05-01T12:17:03Z</time></trkpt><trkpt lat="39.59812743949213" lon="8.669413425776852"><ele>50.0</ele><time>2026-05-01T12:17:04Z</time></trkpt><trkpt lat="39.59830172795825" lon="8.669503877491646"><ele>50.0</ele><time>2026-05-01T12:17:05Z</time></trkpt><trkpt lat="39.598476172953916" lon="8.669590780062052"><ele>50.0</ele><time>2026-05-01T12:17:06Z</time></trkpt><trkpt lat="39.598653167275714" lon="8.66967101455443"><ele>50.0</ele><time>2026-05-01T12:17:07Z</time></trkpt><trkpt lat="39.59882918900693" lon="8.669764708780724"><ele>50.0</ele><time>2026-05-01T12:17:08Z</time></trkpt><trkpt lat="39.59900448125165" lon="8.669861188727698"><ele>50.0</ele><time>2026-05-01T12:17:09Z</time></trkpt><trkpt lat="39.599177061216416" lon="8.66995978020616"><ele>50.0</ele><time>2026-05-01T12:17:10Z</time></trkpt><trkpt lat="39.59935134416992" lon="8.670062262973163"><ele>49.66666666666667</ele><time>2026-05-01T12:17:11Z</time></trkpt><trkpt lat="39.59952787382855" lon="8.67016148428284"><ele>49.33333333333333</ele><time>2026-05-01T12:17:12Z</time></trkpt><trkpt lat="39.59970730862645" lon="8.670258796878459"><ele>49.0</ele><time>2026-05-01T12:17:13Z</time></trkpt><trkpt lat="39.59989010315709" lon="8.670356794311386"><ele>49.0</ele><time>2026-05-01T12:17:14Z</time></trkpt><trkpt lat="39.60007388746164" lon="8.670454184127504"><ele>49.0</ele><time>2026-05-01T12:17:15Z</time></trkpt><trkpt lat="39.60025728172341" lon="8.670555772477565"><ele>49.0</ele><time>2026-05-01T12:17:16Z</time></trkpt><trkpt lat="39.60044110476024" lon="8.670654901993238"><ele>48.33333333333333</ele><time>2026-05-01T12:17:17Z</time></trkpt><trkpt lat="39.6006199315713" lon="8.670755652397503"><ele>47.666666666666664</ele><time>2026-05-01T12:17:18Z</time></trkpt><trkpt lat="39.600795307644475" lon="8.670852408275119"><ele>47.0</ele><time>2026-05-01T12:17:19Z</time></trkpt><trkpt lat="39.6009707193492" lon="8.670946720859103"><ele>47.0</ele><time>2026-05-01T12:17:20Z</time></trkpt><trkpt lat="39.601142534150256" lon="8.67103517709616"><ele>47.0</ele><time>2026-05-01T12:17:21Z</time></trkpt><trkpt lat="39.6013141727149" lon="8.671123264562036"><ele>47.0</ele><time>2026-05-01T12:17:22Z</time></trkpt><trkpt lat="39.601484899592954" lon="8.671208948418162"><ele>47.0</ele><time>2026-05-01T12:17:23Z</time></trkpt><trkpt lat="39.60165505455726" lon="8.671290663856155"><ele>47.0</ele><time>2026-05-01T12:17:24Z</time></trkpt><trkpt lat="39.601813043370704" lon="8.671363881385368"><ele>47.0</ele><time>2026-05-01T12:17:25Z</time></trkpt><trkpt lat="39.601954379173584" lon="8.671426238500445"><ele>47.0</ele><time>2026-05-01T12:17:26Z</time></trkpt><trkpt lat="39.602086416073774" lon="8.671482742471262"><ele>47.0</ele><time>2026-05-01T12:17:27Z</time></trkpt><trkpt lat="39.6022028373836" lon="8.671545447944672"><ele>47.0</ele><time>2026-05-01T12:17:28Z</time></trkpt><trkpt lat="39.602311812178584" lon="8.67161641345456"><ele>47.0</ele><time>2026-05-01T12:17:29Z</time></trkpt><trkpt lat="39.60243176405998" lon="8.671691693753267"><ele>47.0</ele><time>2026-05-01T12:17:30Z</time></trkpt><trkpt lat="39.60254939775423" lon="8.671760591095678"><ele>47.0</ele><time>2026-05-01T12:17:31Z</time></trkpt><trkpt lat="39.60266813410689" lon="8.67182932072774"><ele>47.0</ele><time>2026-05-01T12:17:32Z</time></trkpt><trkpt lat="39.60278622931058" lon="8.671895763642688"><ele>47.0</ele><time>2026-05-01T12:17:33Z</time></trkpt><trkpt lat="39.60290334545719" lon="8.67196055788016"><ele>46.25</ele><time>2026-05-01T12:17:34Z</time></trkpt><trkpt lat="39.603023280413005" lon="8.672024152700102"><ele>45.5</ele><time>2026-05-01T12:17:35Z</time></trkpt><trkpt lat="39.603144389239084" lon="8.672080354779082"><ele>44.75</ele><time>2026-05-01T12:17:36Z</time></trkpt><trkpt lat="39.603268116326994" lon="8.672136406164695"><ele>44.0</ele><time>2026-05-01T12:17:37Z</time></trkpt><trkpt lat="39.603393168263594" lon="8.672192859221083"><ele>44.0</ele><time>2026-05-01T12:17:38Z</time></trkpt><trkpt lat="39.60351731718022" lon="8.672250359888826"><ele>44.0</ele><time>2026-05-01T12:17:39Z</time></trkpt><trkpt lat="39.60363389423663" lon="8.672307673653908"><ele>44.0</ele><time>2026-05-01T12:17:40Z</time></trkpt><trkpt lat="39.60374270805595" lon="8.672358192182472"><ele>44.0</ele><time>2026-05-01T12:17:40.999Z</time></trkpt><trkpt lat="39.60385598610235" lon="8.672412981343049"><ele>44.25</ele><time>2026-05-01T12:17:41.999Z</time></trkpt><trkpt lat="39.603969668033265" lon="8.672479814518368"><ele>44.5</ele><time>2026-05-01T12:17:42.999Z</time></trkpt><trkpt lat="39.60410028861784" lon="8.672550390183947"><ele>44.75</ele><time>2026-05-01T12:17:43.999Z</time></trkpt><trkpt lat="39.60423988081382" lon="8.672629282704543"><ele>45.0</ele><time>2026-05-01T12:17:44.999Z</time></trkpt><trkpt lat="39.604387222513644" lon="8.672711418912074"><ele>45.333333333333336</ele><time>2026-05-01T12:17:45.999Z</time></trkpt><trkpt lat="39.60453593452743" lon="8.672794578193585"><ele>45.66666666666667</ele><time>2026-05-01T12:17:46.999Z</time></trkpt><trkpt lat="39.604687990565864" lon="8.672896295459564"><ele>46.0</ele><time>2026-05-01T12:17:47.999Z</time></trkpt><trkpt lat="39.60485028957215" lon="8.672980487518187"><ele>46.0</ele><time>2026-05-01T12:17:48.999Z</time></trkpt><trkpt lat="39.60500717794011" lon="8.673061888935361"><ele>46.0</ele><time>2026-05-01T12:17:49.999Z</time></trkpt><trkpt lat="39.60517005605786" lon="8.673131212094155"><ele>46.0</ele><time>2026-05-01T12:17:50.999Z</time></trkpt><trkpt lat="39.60532544888409" lon="8.673221489150537"><ele>45.66666666666667</ele><time>2026-05-01T12:17:51.999Z</time></trkpt><trkpt lat="39.605486687188396" lon="8.673310512740882"><ele>45.333333333333336</ele><time>2026-05-01T12:17:52.999Z</time></trkpt><trkpt lat="39.60565394556032" lon="8.67339281261819"><ele>45.0</ele><time>2026-05-01T12:17:53.999Z</time></trkpt><trkpt lat="39.605819457591316" lon="8.673477488521797"><ele>45.0</ele><time>2026-05-01T12:17:54.999Z</time></trkpt><trkpt lat="39.605983023957805" lon="8.673566193653429"><ele>45.0</ele><time>2026-05-01T12:17:55.999Z</time></trkpt><trkpt lat="39.60614857196739" lon="8.673650466386151"><ele>45.0</ele><time>2026-05-01T12:17:56.999Z</time></trkpt><trkpt lat="39.606314878006636" lon="8.673735983682917"><ele>45.333333333333336</ele><time>2026-05-01T12:17:57.999Z</time></trkpt><trkpt lat="39.606478745725596" lon="8.673823440315878"><ele>45.66666666666667</ele><time>2026-05-01T12:17:58.999Z</time></trkpt><trkpt lat="39.606655638722515" lon="8.673917557109016"><ele>46.0</ele><time>2026-05-01T12:17:59.999Z</time></trkpt><trkpt lat="39.60683315301547" lon="8.67401263615805"><ele>45.0</ele><time>2026-05-01T12:18:00.999Z</time></trkpt><trkpt lat="39.606998095328144" lon="8.674091017184583"><ele>44.0</ele><time>2026-05-01T12:18:01.999Z</time></trkpt><trkpt lat="39.60717242444828" lon="8.674181590668542"><ele>43.0</ele><time>2026-05-01T12:18:02.999Z</time></trkpt><trkpt lat="39.60734960531519" lon="8.674267035710589"><ele>43.0</ele><time>2026-05-01T12:18:03.999Z</time></trkpt><trkpt lat="39.60751867411568" lon="8.674354196376461"><ele>43.0</ele><time>2026-05-01T12:18:04.999Z</time></trkpt><trkpt lat="39.60766682875223" lon="8.674435828342368"><ele>43.0</ele><time>2026-05-01T12:18:05.999Z</time></trkpt><trkpt lat="39.60779212742395" lon="8.674502771223997"><ele>44.0</ele><time>2026-05-01T12:18:06.999Z</time></trkpt><trkpt lat="39.60792960542571" lon="8.67457965908319"><ele>45.0</ele><time>2026-05-01T12:18:07.999Z</time></trkpt><trkpt lat="39.60808080377522" lon="8.674671497243287"><ele>46.0</ele><time>2026-05-01T12:18:08.999Z</time></trkpt><trkpt lat="39.6082376526672" lon="8.674788397574961"><ele>46.0</ele><time>2026-05-01T12:18:09.999Z</time></trkpt><trkpt lat="39.60841075834623" lon="8.67489342580692"><ele>46.0</ele><time>2026-05-01T12:18:10.999Z</time></trkpt><trkpt lat="39.60858911628475" lon="8.674975086293141"><ele>46.0</ele><time>2026-05-01T12:18:11.999Z</time></trkpt><trkpt lat="39.60875673583202" lon="8.67506927090025"><ele>45.333333333333336</ele><time>2026-05-01T12:18:12.999Z</time></trkpt><trkpt lat="39.60891846872629" lon="8.675152219016095"><ele>44.666666666666664</ele><time>2026-05-01T12:18:13.999Z</time></trkpt><trkpt lat="39.60907506016792" lon="8.67523170751747"><ele>44.0</ele><time>2026-05-01T12:18:15Z</time></trkpt><trkpt lat="39.60923580246323" lon="8.675328122452777"><ele>44.0</ele><time>2026-05-01T12:18:16Z</time></trkpt><trkpt lat="39.60939068180784" lon="8.675407552643852"><ele>44.0</ele><time>2026-05-01T12:18:17Z</time></trkpt><trkpt lat="39.60955690246144" lon="8.675474026174278"><ele>44.0</ele><time>2026-05-01T12:18:18Z</time></trkpt><trkpt lat="39.609731012612585" lon="8.675577495744934"><ele>43.666666666666664</ele><time>2026-05-01T12:18:19Z</time></trkpt><trkpt lat="39.60990090610813" lon="8.67565381616232"><ele>43.333333333333336</ele><time>2026-05-01T12:18:20Z</time></trkpt><trkpt lat="39.61004642743577" lon="8.675746366114424"><ele>43.0</ele><time>2026-05-01T12:18:21Z</time></trkpt><trkpt lat="39.61019061525218" lon="8.67582725641295"><ele>42.66666666666667</ele><time>2026-05-01T12:18:22Z</time></trkpt><trkpt lat="39.610336598900965" lon="8.6759153971599"><ele>42.333333333333336</ele><time>2026-05-01T12:18:23Z</time></trkpt><trkpt lat="39.61048637034633" lon="8.676016843494281"><ele>42.0</ele><time>2026-05-01T12:18:24Z</time></trkpt><trkpt lat="39.61064328623108" lon="8.67611043370342"><ele>42.0</ele><time>2026-05-01T12:18:25Z</time></trkpt><trkpt lat="39.6107657204732" lon="8.676235285966703"><ele>42.0</ele><time>2026-05-01T12:18:26Z</time></trkpt><trkpt lat="39.6108870291214" lon="8.676336877599436"><ele>42.0</ele><time>2026-05-01T12:18:27Z</time></trkpt><trkpt lat="39.61100865592356" lon="8.676436588828917"><ele>42.0</ele><time>2026-05-01T12:18:28Z</time></trkpt><trkpt lat="39.61112647227227" lon="8.676532054409424"><ele>42.0</ele><time>2026-05-01T12:18:29Z</time></trkpt><trkpt lat="39.61125018501484" lon="8.676613202752261"><ele>42.0</ele><time>2026-05-01T12:18:30Z</time></trkpt><trkpt lat="39.61135827470491" lon="8.676704043040727"><ele>42.0</ele><time>2026-05-01T12:18:31Z</time></trkpt><trkpt lat="39.61146919836805" lon="8.676797795770783"><ele>42.0</ele><time>2026-05-01T12:18:32Z</time></trkpt><trkpt lat="39.61159176054103" lon="8.67689460425065"><ele>41.75</ele><time>2026-05-01T12:18:33Z</time></trkpt><trkpt lat="39.61171847334493" lon="8.67699599676018"><ele>41.5</ele><time>2026-05-01T12:18:34Z</time></trkpt><trkpt lat="39.61184423241254" lon="8.677101378651484"><ele>41.25</ele><time>2026-05-01T12:18:35Z</time></trkpt><trkpt lat="39.61195632529053" lon="8.677199928668632"><ele>41.0</ele><time>2026-05-01T12:18:36Z</time></trkpt><trkpt lat="39.61205230453004" lon="8.67730207287565"><ele>41.0</ele><time>2026-05-01T12:18:37Z</time></trkpt><trkpt lat="39.61214547240144" lon="8.67738038601308"><ele>41.0</ele><time>2026-05-01T12:18:38Z</time></trkpt><trkpt lat="39.612243344570274" lon="8.67743843781774"><ele>41.0</ele><time>2026-05-01T12:18:39Z</time></trkpt><trkpt lat="39.612340377447" lon="8.677543834905329"><ele>41.0</ele><time>2026-05-01T12:18:40Z</time></trkpt><trkpt lat="39.61245748005895" lon="8.677626616193775"><ele>41.0</ele><time>2026-05-01T12:18:41Z</time></trkpt><trkpt lat="39.612583985223864" lon="8.677737349586323"><ele>41.0</ele><time>2026-05-01T12:18:42Z</time></trkpt><trkpt lat="39.61271669227657" lon="8.677843305911324"><ele>41.0</ele><time>2026-05-01T12:18:43Z</time></trkpt><trkpt lat="39.61283518798141" lon="8.677939886148758"><ele>41.0</ele><time>2026-05-01T12:18:44Z</time></trkpt><trkpt lat="39.61294366496906" lon="8.678028453004549"><ele>40.75</ele><time>2026-05-01T12:18:45Z</time></trkpt><trkpt lat="39.61304078408494" lon="8.67811017445594"><ele>40.5</ele><time>2026-05-01T12:18:46Z</time></trkpt><trkpt lat="39.613137935234285" lon="8.678190162303128"><ele>40.25</ele><time>2026-05-01T12:18:47Z</time></trkpt><trkpt lat="39.61324928202817" lon="8.678275479302286"><ele>40.0</ele><time>2026-05-01T12:18:48Z</time></trkpt><trkpt lat="39.61336763480469" lon="8.678370975638456"><ele>40.0</ele><time>2026-05-01T12:18:49Z</time></trkpt><trkpt lat="39.61348854094855" lon="8.678474931161004"><ele>40.0</ele><time>2026-05-01T12:18:50Z</time></trkpt><trkpt lat="39.61361199170993" lon="8.678569175496579"><ele>40.0</ele><time>2026-05-01T12:18:51Z</time></trkpt><trkpt lat="39.613718920768896" lon="8.678660013410832"><ele>40.0</ele><time>2026-05-01T12:18:52Z</time></trkpt><trkpt lat="39.613820884949796" lon="8.678750539365057"><ele>40.2</ele><time>2026-05-01T12:18:53Z</time></trkpt><trkpt lat="39.6139233350041" lon="8.6788478369384"><ele>40.4</ele><time>2026-05-01T12:18:54Z</time></trkpt><trkpt lat="39.61401778441763" lon="8.678926717603666"><ele>40.599999999999994</ele><time>2026-05-01T12:18:55Z</time></trkpt><trkpt lat="39.61410632171029" lon="8.678999560619895"><ele>40.8</ele><time>2026-05-01T12:18:56Z</time></trkpt><trkpt lat="39.61419365299285" lon="8.679044207518386"><ele>41.0</ele><time>2026-05-01T12:18:57Z</time></trkpt><trkpt lat="39.61425076626259" lon="8.679101145101667"><ele>41.0</ele><time>2026-05-01T12:18:58Z</time></trkpt><trkpt lat="39.61430136028192" lon="8.67918657005093"><ele>41.0</ele><time>2026-05-01T12:19:01Z</time></trkpt><trkpt lat="39.61418946200376" lon="8.679289430633185"><ele>41.0</ele><time>2026-05-01T12:19:02Z</time></trkpt><trkpt lat="39.61412909285504" lon="8.679410732219516"><ele>41.0</ele><time>2026-05-01T12:19:03Z</time></trkpt><trkpt lat="39.614063612189675" lon="8.679544279554355"><ele>40.75</ele><time>2026-05-01T12:19:04Z</time></trkpt><trkpt lat="39.613992132825665" lon="8.679690817897445"><ele>40.5</ele><time>2026-05-01T12:19:05Z</time></trkpt><trkpt lat="39.61391634681668" lon="8.679846184758224"><ele>40.25</ele><time>2026-05-01T12:19:06Z</time></trkpt><trkpt lat="39.61383367805363" lon="8.680015812241892"><ele>40.0</ele><time>2026-05-01T12:19:07Z</time></trkpt><trkpt lat="39.61374572274732" lon="8.680197076491416"><ele>39.66666666666667</ele><time>2026-05-01T12:19:08Z</time></trkpt><trkpt lat="39.61365689505351" lon="8.680378194387451"><ele>39.333333333333336</ele><time>2026-05-01T12:19:09Z</time></trkpt><trkpt lat="39.61356097946167" lon="8.680558895381143"><ele>39.0</ele><time>2026-05-01T12:19:10Z</time></trkpt><trkpt lat="39.61345521452817" lon="8.680736622159424"><ele>39.333333333333336</ele><time>2026-05-01T12:19:11Z</time></trkpt><trkpt lat="39.61334204404098" lon="8.68090976488377"><ele>39.66666666666667</ele><time>2026-05-01T12:19:12Z</time></trkpt><trkpt lat="39.61322311228258" lon="8.681084453376197"><ele>40.0</ele><time>2026-05-01T12:19:13Z</time></trkpt><trkpt lat="39.613102524174266" lon="8.681256789040408"><ele>40.0</ele><time>2026-05-01T12:19:14Z</time></trkpt><trkpt lat="39.61298038453258" lon="8.681432576466651"><ele>40.0</ele><time>2026-05-01T12:19:15Z</time></trkpt><trkpt lat="39.61286128499098" lon="8.681607850515737"><ele>40.0</ele><time>2026-05-01T12:19:16Z</time></trkpt><trkpt lat="39.6127383081757" lon="8.681788830498816"><ele>40.66666666666667</ele><time>2026-05-01T12:19:17Z</time></trkpt><trkpt lat="39.61261309521487" lon="8.681973101436533"><ele>41.333333333333336</ele><time>2026-05-01T12:19:18Z</time></trkpt><trkpt lat="39.61248719007568" lon="8.682158798822172"><ele>42.0</ele><time>2026-05-01T12:19:19Z</time></trkpt><trkpt lat="39.61236246337151" lon="8.68234375673892"><ele>42.0</ele><time>2026-05-01T12:19:20Z</time></trkpt><trkpt lat="39.61223754320665" lon="8.682529001426108"><ele>42.0</ele><time>2026-05-01T12:19:21Z</time></trkpt><trkpt lat="39.61211269216786" lon="8.682714143783137"><ele>42.0</ele><time>2026-05-01T12:19:22Z</time></trkpt><trkpt lat="39.61199161411188" lon="8.682893691037169"><ele>41.75</ele><time>2026-05-01T12:19:23Z</time></trkpt><trkpt lat="39.61187592005105" lon="8.683062222661254"><ele>41.5</ele><time>2026-05-01T12:19:24Z</time></trkpt><trkpt lat="39.6117833021928" lon="8.683200884847816"><ele>41.25</ele><time>2026-05-01T12:19:25Z</time></trkpt><trkpt lat="39.61172913519971" lon="8.683321807564244"><ele>41.0</ele><time>2026-05-01T12:19:26Z</time></trkpt><trkpt lat="39.61170692616959" lon="8.683398668460935"><ele>41.0</ele><time>2026-05-01T12:19:27Z</time></trkpt><trkpt lat="39.61172801780907" lon="8.683476996541984"><ele>41.0</ele><time>2026-05-01T12:19:29Z</time></trkpt><trkpt lat="39.611801651301704" lon="8.683500704886763"><ele>41.0</ele><time>2026-05-01T12:19:31Z</time></trkpt><trkpt lat="39.611852611745725" lon="8.6835585267676"><ele>41.0</ele><time>2026-05-01T12:19:32Z</time></trkpt><trkpt lat="39.61193922371062" lon="8.683642189564573"><ele>41.0</ele><time>2026-05-01T12:19:33Z</time></trkpt><trkpt lat="39.61204283369565" lon="8.68374269894426"><ele>41.0</ele><time>2026-05-01T12:19:34Z</time></trkpt><trkpt lat="39.61216262170288" lon="8.68385890228709"><ele>40.666666666666664</ele><time>2026-05-01T12:19:35Z</time></trkpt><trkpt lat="39.6122965967263" lon="8.683988476479733"><ele>40.333333333333336</ele><time>2026-05-01T12:19:36Z</time></trkpt><trkpt lat="39.612434836069816" lon="8.684119043266469"><ele>40.0</ele><time>2026-05-01T12:19:37Z</time></trkpt><trkpt lat="39.61257813435949" lon="8.684254388218138"><ele>40.0</ele><time>2026-05-01T12:19:38Z</time></trkpt><trkpt lat="39.61272348066949" lon="8.6843916676606"><ele>40.0</ele><time>2026-05-01T12:19:39Z</time></trkpt><trkpt lat="39.61287328432014" lon="8.684533156952151"><ele>40.0</ele><time>2026-05-01T12:19:40Z</time></trkpt><trkpt lat="39.613028600044736" lon="8.684679852425326"><ele>40.333333333333336</ele><time>2026-05-01T12:19:41Z</time></trkpt><trkpt lat="39.61318753841938" lon="8.684829969470865"><ele>40.666666666666664</ele><time>2026-05-01T12:19:42Z</time></trkpt><trkpt lat="39.613349230929394" lon="8.684982687822016"><ele>41.0</ele><time>2026-05-01T12:19:43Z</time></trkpt><trkpt lat="39.6135125220481" lon="8.685136915936301"><ele>40.0</ele><time>2026-05-01T12:19:44Z</time></trkpt><trkpt lat="39.61367659720196" lon="8.685291884669395"><ele>39.0</ele><time>2026-05-01T12:19:44.999Z</time></trkpt><trkpt lat="39.61385087856929" lon="8.685432209325382"><ele>38.0</ele><time>2026-05-01T12:19:45.999Z</time></trkpt><trkpt lat="39.614007065142765" lon="8.685606371794123"><ele>38.0</ele><time>2026-05-01T12:19:46.999Z</time></trkpt><trkpt lat="39.61417383612468" lon="8.685765177131394"><ele>38.0</ele><time>2026-05-01T12:19:47.999Z</time></trkpt><trkpt lat="39.614342142935854" lon="8.685924998442273"><ele>38.0</ele><time>2026-05-01T12:19:48.999Z</time></trkpt><trkpt lat="39.614520213768856" lon="8.686068151684099"><ele>38.33333333333333</ele><time>2026-05-01T12:19:49.999Z</time></trkpt><trkpt lat="39.614687069544296" lon="8.686227666048667"><ele>38.666666666666664</ele><time>2026-05-01T12:19:50.999Z</time></trkpt><trkpt lat="39.614855380929015" lon="8.686387301326366"><ele>39.0</ele><time>2026-05-01T12:19:51.999Z</time></trkpt><trkpt lat="39.61502091861248" lon="8.686550805979383"><ele>39.0</ele><time>2026-05-01T12:19:52.999Z</time></trkpt><trkpt lat="39.615182806275506" lon="8.68670568751851"><ele>39.0</ele><time>2026-05-01T12:19:53.999Z</time></trkpt><trkpt lat="39.61535148557677" lon="8.68686663966495"><ele>39.0</ele><time>2026-05-01T12:19:54.999Z</time></trkpt><trkpt lat="39.615517305093604" lon="8.687019946492876"><ele>38.0</ele><time>2026-05-01T12:19:55.999Z</time></trkpt><trkpt lat="39.61567751324397" lon="8.687175655064177"><ele>37.0</ele><time>2026-05-01T12:19:56.999Z</time></trkpt><trkpt lat="39.61583810402492" lon="8.687334796384352"><ele>36.0</ele><time>2026-05-01T12:19:57.999Z</time></trkpt><trkpt lat="39.616000856345366" lon="8.687490411961758"><ele>36.333333333333336</ele><time>2026-05-01T12:19:58.999Z</time></trkpt><trkpt lat="39.616163521165106" lon="8.687648951946919"><ele>36.66666666666667</ele><time>2026-05-01T12:19:59.999Z</time></trkpt><trkpt lat="39.616327859040005" lon="8.687805411258893"><ele>37.0</ele><time>2026-05-01T12:20:00.999Z</time></trkpt><trkpt lat="39.61649266665768" lon="8.687961185937398"><ele>37.0</ele><time>2026-05-01T12:20:01.999Z</time></trkpt><trkpt lat="39.616658544147825" lon="8.68811641180771"><ele>37.0</ele><time>2026-05-01T12:20:02.999Z</time></trkpt><trkpt lat="39.61682307482081" lon="8.688274338783344"><ele>37.0</ele><time>2026-05-01T12:20:03.999Z</time></trkpt><trkpt lat="39.61698730329448" lon="8.688432228650957"><ele>37.0</ele><time>2026-05-01T12:20:04.999Z</time></trkpt><trkpt lat="39.61715268333473" lon="8.68858850436812"><ele>37.0</ele><time>2026-05-01T12:20:05.999Z</time></trkpt><trkpt lat="39.6173195644081" lon="8.688744762977263"><ele>37.0</ele><time>2026-05-01T12:20:06.999Z</time></trkpt><trkpt lat="39.617485641105894" lon="8.688905316962366"><ele>36.66666666666667</ele><time>2026-05-01T12:20:07.999Z</time></trkpt><trkpt lat="39.617652782875155" lon="8.68906819928106"><ele>36.333333333333336</ele><time>2026-05-01T12:20:08.999Z</time></trkpt><trkpt lat="39.61782644301555" lon="8.68922503976339"><ele>36.0</ele><time>2026-05-01T12:20:09.999Z</time></trkpt><trkpt lat="39.61799675979949" lon="8.68938796700168"><ele>36.0</ele><time>2026-05-01T12:20:10.999Z</time></trkpt><trkpt lat="39.618168646297896" lon="8.689549419431717"><ele>36.0</ele><time>2026-05-01T12:20:11.999Z</time></trkpt><trkpt lat="39.618340071246465" lon="8.689712175723399"><ele>36.0</ele><time>2026-05-01T12:20:12.999Z</time></trkpt><trkpt lat="39.61851082065392" lon="8.689874955465909"><ele>36.0</ele><time>2026-05-01T12:20:13.999Z</time></trkpt><trkpt lat="39.61868409498043" lon="8.690038402148737"><ele>36.0</ele><time>2026-05-01T12:20:14.999Z</time></trkpt><trkpt lat="39.61885568908809" lon="8.69020264515847"><ele>36.0</ele><time>2026-05-01T12:20:15.999Z</time></trkpt><trkpt lat="39.619026963097674" lon="8.690368140443178"><ele>35.333333333333336</ele><time>2026-05-01T12:20:16.999Z</time></trkpt><trkpt lat="39.61919739619634" lon="8.690536780651431"><ele>34.66666666666667</ele><time>2026-05-01T12:20:17.999Z</time></trkpt><trkpt lat="39.61937156223635" lon="8.690698866528423"><ele>34.0</ele><time>2026-05-01T12:20:18.999Z</time></trkpt><trkpt lat="39.6195458640916" lon="8.690855590766493"><ele>33.66666666666667</ele><time>2026-05-01T12:20:19.999Z</time></trkpt><trkpt lat="39.61970559283411" lon="8.690998551198046"><ele>33.333333333333336</ele><time>2026-05-01T12:20:21Z</time></trkpt><trkpt lat="39.619852517305134" lon="8.691136815221906"><ele>33.0</ele><time>2026-05-01T12:20:22Z</time></trkpt><trkpt lat="39.61998825379198" lon="8.691269515840785"><ele>33.0</ele><time>2026-05-01T12:20:23Z</time></trkpt><trkpt lat="39.620116141473446" lon="8.691396174343119"><ele>33.0</ele><time>2026-05-01T12:20:24Z</time></trkpt><trkpt lat="39.62023869630916" lon="8.691512782977249"><ele>33.0</ele><time>2026-05-01T12:20:25Z</time></trkpt><trkpt lat="39.62035490920059" lon="8.691621188947648"><ele>33.0</ele><time>2026-05-01T12:20:26Z</time></trkpt><trkpt lat="39.620458950340435" lon="8.691717173053988"><ele>33.0</ele><time>2026-05-01T12:20:27Z</time></trkpt><trkpt lat="39.620544222831256" lon="8.691797370837788"><ele>33.0</ele><time>2026-05-01T12:20:28Z</time></trkpt><trkpt lat="39.62060995753714" lon="8.691855595496213"><ele>33.0</ele><time>2026-05-01T12:20:29Z</time></trkpt><trkpt lat="39.62068219272499" lon="8.691925828519704"><ele>33.0</ele><time>2026-05-01T12:20:31Z</time></trkpt><trkpt lat="39.62074752339543" lon="8.691996970178266"><ele>33.0</ele><time>2026-05-01T12:20:37Z</time></trkpt><trkpt lat="39.62092876350814" lon="8.691757717844014"><ele>33.0</ele><time>2026-05-01T12:20:39Z</time></trkpt><trkpt lat="39.62100008900336" lon="8.691670620637224"><ele>33.0</ele><time>2026-05-01T12:20:40Z</time></trkpt><trkpt lat="39.6210791278385" lon="8.691579963127682"><ele>32.8</ele><time>2026-05-01T12:20:41Z</time></trkpt><trkpt lat="39.62115753293326" lon="8.691491512948147"><ele>32.599999999999994</ele><time>2026-05-01T12:20:42Z</time></trkpt><trkpt lat="39.621226456387944" lon="8.691414542595188"><ele>32.400000000000006</ele><time>2026-05-01T12:20:43Z</time></trkpt><trkpt lat="39.62128519720035" lon="8.691347411456348"><ele>32.2</ele><time>2026-05-01T12:20:44Z</time></trkpt><trkpt lat="39.621341731583094" lon="8.691293656482989"><ele>32.0</ele><time>2026-05-01T12:20:45Z</time></trkpt><trkpt lat="39.62144518291917" lon="8.691258036870133"><ele>32.0</ele><time>2026-05-01T12:20:47Z</time></trkpt><trkpt lat="39.621514699101425" lon="8.691270635750591"><ele>32.0</ele><time>2026-05-01T12:20:48Z</time></trkpt><trkpt lat="39.621601966203436" lon="8.691272020593045"><ele>32.0</ele><time>2026-05-01T12:20:49Z</time></trkpt><trkpt lat="39.62170449403525" lon="8.691244709662103"><ele>32.0</ele><time>2026-05-01T12:20:50Z</time></trkpt><trkpt lat="39.621808644176774" lon="8.691195125309966"><ele>32.0</ele><time>2026-05-01T12:20:51Z</time></trkpt><trkpt lat="39.621922118563944" lon="8.691156249352243"><ele>32.0</ele><time>2026-05-01T12:20:52Z</time></trkpt><trkpt lat="39.622039448550524" lon="8.691134891533734"><ele>32.0</ele><time>2026-05-01T12:20:53Z</time></trkpt><trkpt lat="39.62216119730869" lon="8.691125034470744"><ele>32.0</ele><time>2026-05-01T12:20:54Z</time></trkpt><trkpt lat="39.62228898009853" lon="8.691113676732813"><ele>32.0</ele><time>2026-05-01T12:20:55Z</time></trkpt><trkpt lat="39.622418489702895" lon="8.691100502724286"><ele>32.25</ele><time>2026-05-01T12:20:56Z</time></trkpt><trkpt lat="39.62255121039976" lon="8.691077666773849"><ele>32.5</ele><time>2026-05-01T12:20:57Z</time></trkpt><trkpt lat="39.62268780546767" lon="8.69106152784474"><ele>32.75</ele><time>2026-05-01T12:20:58Z</time></trkpt><trkpt lat="39.62282387443361" lon="8.691055755101075"><ele>33.0</ele><time>2026-05-01T12:20:59Z</time></trkpt><trkpt lat="39.622961204363506" lon="8.691052986234922"><ele>32.5</ele><time>2026-05-01T12:21:00Z</time></trkpt><trkpt lat="39.62309804862843" lon="8.691045086506426"><ele>32.0</ele><time>2026-05-01T12:21:01Z</time></trkpt><trkpt lat="39.623236863574505" lon="8.691028659803044"><ele>31.5</ele><time>2026-05-01T12:21:02Z</time></trkpt><trkpt lat="39.623364434524596" lon="8.691003103304539"><ele>31.0</ele><time>2026-05-01T12:21:03Z</time></trkpt><trkpt lat="39.623474994554776" lon="8.690961564353843"><ele>31.0</ele><time>2026-05-01T12:21:04Z</time></trkpt><trkpt lat="39.62357612922633" lon="8.690908918887121"><ele>31.0</ele><time>2026-05-01T12:21:05Z</time></trkpt><trkpt lat="39.623669127633825" lon="8.69083795036661"><ele>31.0</ele><time>2026-05-01T12:21:06Z</time></trkpt><trkpt lat="39.62374903873282" lon="8.69074593050136"><ele>31.0</ele><time>2026-05-01T12:21:07Z</time></trkpt><trkpt lat="39.623813076935654" lon="8.690657724030242"><ele>31.0</ele><time>2026-05-01T12:21:08Z</time></trkpt><trkpt lat="39.623864491131144" lon="8.690587709654565"><ele>31.4</ele><time>2026-05-01T12:21:09Z</time></trkpt><trkpt lat="39.62394515671305" lon="8.690554428271344"><ele>31.8</ele><time>2026-05-01T12:21:11Z</time></trkpt><trkpt lat="39.6240465066582" lon="8.69064546849427"><ele>32.199999999999996</ele><time>2026-05-01T12:21:13Z</time></trkpt><trkpt lat="39.62411410861748" lon="8.690748439019075"><ele>32.6</ele><time>2026-05-01T12:21:14Z</time></trkpt><trkpt lat="39.624184880751095" lon="8.69085293452494"><ele>33.0</ele><time>2026-05-01T12:21:15Z</time></trkpt><trkpt lat="39.62426532212036" lon="8.690919525568267"><ele>33.0</ele><time>2026-05-01T12:21:16Z</time></trkpt><trkpt lat="39.62435343796589" lon="8.690973910513232"><ele>33.0</ele><time>2026-05-01T12:21:17Z</time></trkpt><trkpt lat="39.62443534896274" lon="8.691060260618032"><ele>33.0</ele><time>2026-05-01T12:21:18Z</time></trkpt><trkpt lat="39.62450859850946" lon="8.691177486592112"><ele>33.0</ele><time>2026-05-01T12:21:19Z</time></trkpt><trkpt lat="39.62457318912593" lon="8.691312453483112"><ele>33.0</ele><time>2026-05-01T12:21:20Z</time></trkpt><trkpt lat="39.62463098456597" lon="8.691447417762962"><ele>33.0</ele><time>2026-05-01T12:21:21Z</time></trkpt><trkpt lat="39.62469820150854" lon="8.69157140775293"><ele>33.0</ele><time>2026-05-01T12:21:22Z</time></trkpt><trkpt lat="39.62477197169136" lon="8.691704502046885"><ele>33.0</ele><time>2026-05-01T12:21:23Z</time></trkpt><trkpt lat="39.62484518629035" lon="8.691845477980914"><ele>33.0</ele><time>2026-05-01T12:21:24Z</time></trkpt><trkpt lat="39.62492359249284" lon="8.691983837071035"><ele>33.0</ele><time>2026-05-01T12:21:25Z</time></trkpt><trkpt lat="39.625004652598" lon="8.692123094175377"><ele>33.0</ele><time>2026-05-01T12:21:26Z</time></trkpt><trkpt lat="39.625080743293104" lon="8.692266585935373"><ele>33.0</ele><time>2026-05-01T12:21:27Z</time></trkpt><trkpt lat="39.625156060377506" lon="8.692405991723007"><ele>33.0</ele><time>2026-05-01T12:21:28Z</time></trkpt><trkpt lat="39.62523043957408" lon="8.692540074309221"><ele>33.0</ele><time>2026-05-01T12:21:29Z</time></trkpt><trkpt lat="39.62529813315473" lon="8.692684658256912"><ele>33.0</ele><time>2026-05-01T12:21:30Z</time></trkpt><trkpt lat="39.625371514628206" lon="8.692825180887693"><ele>33.0</ele><time>2026-05-01T12:21:31Z</time></trkpt><trkpt lat="39.625445395713925" lon="8.692958140506708"><ele>33.0</ele><time>2026-05-01T12:21:32Z</time></trkpt><trkpt lat="39.62552827513862" lon="8.693079373479806"><ele>32.5</ele><time>2026-05-01T12:21:33Z</time></trkpt><trkpt lat="39.62561521659136" lon="8.693204503613623"><ele>32.0</ele><time>2026-05-01T12:21:34Z</time></trkpt><trkpt lat="39.62570000873404" lon="8.693336464129587"><ele>31.5</ele><time>2026-05-01T12:21:35Z</time></trkpt><trkpt lat="39.625772172954434" lon="8.693459152015048"><ele>31.0</ele><time>2026-05-01T12:21:36Z</time></trkpt><trkpt lat="39.62584076707797" lon="8.693584421361237"><ele>30.75</ele><time>2026-05-01T12:21:37Z</time></trkpt><trkpt lat="39.62590536999217" lon="8.693724786861017"><ele>30.5</ele><time>2026-05-01T12:21:38Z</time></trkpt><trkpt lat="39.625976141356055" lon="8.693867548248587"><ele>30.25</ele><time>2026-05-01T12:21:39Z</time></trkpt><trkpt lat="39.626063257958094" lon="8.694004454053083"><ele>30.0</ele><time>2026-05-01T12:21:40Z</time></trkpt><trkpt lat="39.626155058114286" lon="8.694145500375706"><ele>30.0</ele><time>2026-05-01T12:21:41Z</time></trkpt><trkpt lat="39.626244731308034" lon="8.694294720829157"><ele>30.0</ele><time>2026-05-01T12:21:42Z</time></trkpt><trkpt lat="39.626329587520935" lon="8.694443804613643"><ele>30.0</ele><time>2026-05-01T12:21:43Z</time></trkpt><trkpt lat="39.62641204442244" lon="8.694583534068114"><ele>30.0</ele><time>2026-05-01T12:21:44Z</time></trkpt><trkpt lat="39.62649518751756" lon="8.6947179307468"><ele>29.75</ele><time>2026-05-01T12:21:44.999Z</time></trkpt><trkpt lat="39.62657196678102" lon="8.694850266949064"><ele>29.5</ele><time>2026-05-01T12:21:45.999Z</time></trkpt><trkpt lat="39.626632026709274" lon="8.694979353339585"><ele>29.25</ele><time>2026-05-01T12:21:46.999Z</time></trkpt><trkpt lat="39.6266789484035" lon="8.69511730672705"><ele>29.0</ele><time>2026-05-01T12:21:47.999Z</time></trkpt><trkpt lat="39.626715691098426" lon="8.69524730444225"><ele>29.0</ele><time>2026-05-01T12:21:48.999Z</time></trkpt><trkpt lat="39.62677165610072" lon="8.695374666971405"><ele>29.0</ele><time>2026-05-01T12:21:49.999Z</time></trkpt><trkpt lat="39.626850508876196" lon="8.695516690637538"><ele>29.0</ele><time>2026-05-01T12:21:50.999Z</time></trkpt><trkpt lat="39.62692548352387" lon="8.695669501498902"><ele>29.0</ele><time>2026-05-01T12:21:51.999Z</time></trkpt><trkpt lat="39.626987948350354" lon="8.695808686802438"><ele>29.0</ele><time>2026-05-01T12:21:52.999Z</time></trkpt><trkpt lat="39.627034253787855" lon="8.695955443265103"><ele>29.0</ele><time>2026-05-01T12:21:53.999Z</time></trkpt><trkpt lat="39.627055641911404" lon="8.696129786718563"><ele>29.0</ele><time>2026-05-01T12:21:54.999Z</time></trkpt><trkpt lat="39.627063675959434" lon="8.696318211535116"><ele>29.0</ele><time>2026-05-01T12:21:55.999Z</time></trkpt><trkpt lat="39.62705658992349" lon="8.696517602256366"><ele>29.0</ele><time>2026-05-01T12:21:56.999Z</time></trkpt><trkpt lat="39.627043640922956" lon="8.696712092145129"><ele>29.0</ele><time>2026-05-01T12:21:57.999Z</time></trkpt><trkpt lat="39.62704966597021" lon="8.696895657095755"><ele>29.0</ele><time>2026-05-01T12:21:58.999Z</time></trkpt><trkpt lat="39.627078816156775" lon="8.697074668764294"><ele>29.0</ele><time>2026-05-01T12:21:59.999Z</time></trkpt><trkpt lat="39.627106266746104" lon="8.697255951845287"><ele>29.0</ele><time>2026-05-01T12:22:00.999Z</time></trkpt><trkpt lat="39.62712340304528" lon="8.697438898349386"><ele>29.0</ele><time>2026-05-01T12:22:01.999Z</time></trkpt><trkpt lat="39.62713752342105" lon="8.697624765328822"><ele>29.0</ele><time>2026-05-01T12:22:02.999Z</time></trkpt><trkpt lat="39.62713592800844" lon="8.697818611682209"><ele>29.0</ele><time>2026-05-01T12:22:03.999Z</time></trkpt><trkpt lat="39.62713573267081" lon="8.698005021154524"><ele>29.0</ele><time>2026-05-01T12:22:04.999Z</time></trkpt><trkpt lat="39.62716219719747" lon="8.698176788943995"><ele>29.0</ele><time>2026-05-01T12:22:05.999Z</time></trkpt><trkpt lat="39.62721501542394" lon="8.698354437700578"><ele>29.0</ele><time>2026-05-01T12:22:06.999Z</time></trkpt><trkpt lat="39.62728462652856" lon="8.69852998523617"><ele>29.0</ele><time>2026-05-01T12:22:07.999Z</time></trkpt><trkpt lat="39.627354680581306" lon="8.698688126889191"><ele>29.0</ele><time>2026-05-01T12:22:08.999Z</time></trkpt><trkpt lat="39.62741169701168" lon="8.6988302202412"><ele>29.0</ele><time>2026-05-01T12:22:09.999Z</time></trkpt><trkpt lat="39.62745458850598" lon="8.698946101444783"><ele>29.0</ele><time>2026-05-01T12:22:10.999Z</time></trkpt><trkpt lat="39.62748298550892" lon="8.699025567718472"><ele>29.0</ele><time>2026-05-01T12:22:11.999Z</time></trkpt><trkpt lat="39.62753526041303" lon="8.699076988274689"><ele>29.0</ele><time>2026-05-01T12:22:15.999Z</time></trkpt><trkpt lat="39.627677999843996" lon="8.698984625653544"><ele>29.0</ele><time>2026-05-01T12:22:17.999Z</time></trkpt><trkpt lat="39.62776469673184" lon="8.698888492441833"><ele>29.0</ele><time>2026-05-01T12:22:18.999Z</time></trkpt><trkpt lat="39.627858075081186" lon="8.698790417742439"><ele>29.0</ele><time>2026-05-01T12:22:19.999Z</time></trkpt><trkpt lat="39.627965621332045" lon="8.698675860661702"><ele>29.0</ele><time>2026-05-01T12:22:20.999Z</time></trkpt><trkpt lat="39.62807302276782" lon="8.698557150824728"><ele>29.0</ele><time>2026-05-01T12:22:21.999Z</time></trkpt><trkpt lat="39.62818582974002" lon="8.698427883030085"><ele>29.0</ele><time>2026-05-01T12:22:22.999Z</time></trkpt><trkpt lat="39.628306238194405" lon="8.698289237097368"><ele>29.0</ele><time>2026-05-01T12:22:23.999Z</time></trkpt><trkpt lat="39.62844186185175" lon="8.698149946857484"><ele>29.0</ele><time>2026-05-01T12:22:24.999Z</time></trkpt><trkpt lat="39.62858450767092" lon="8.698005879367146"><ele>29.0</ele><time>2026-05-01T12:22:25.999Z</time></trkpt><trkpt lat="39.628723617096405" lon="8.697860919242636"><ele>29.0</ele><time>2026-05-01T12:22:27Z</time></trkpt><trkpt lat="39.628872176137456" lon="8.69771163184954"><ele>29.0</ele><time>2026-05-01T12:22:28Z</time></trkpt><trkpt lat="39.62903749068316" lon="8.69756705028882"><ele>29.0</ele><time>2026-05-01T12:22:29Z</time></trkpt><trkpt lat="39.62921193338008" lon="8.6974366496335"><ele>29.0</ele><time>2026-05-01T12:22:30Z</time></trkpt><trkpt lat="39.62939202964691" lon="8.697316871438613"><ele>28.666666666666664</ele><time>2026-05-01T12:22:31Z</time></trkpt><trkpt lat="39.62957508778097" lon="8.697205971499363"><ele>28.333333333333336</ele><time>2026-05-01T12:22:32Z</time></trkpt><trkpt lat="39.629759929515274" lon="8.697099976707259"><ele>28.0</ele><time>2026-05-01T12:22:33Z</time></trkpt><trkpt lat="39.629947632313986" lon="8.69699572921671"><ele>28.0</ele><time>2026-05-01T12:22:34Z</time></trkpt><trkpt lat="39.63013586668375" lon="8.69688712721642"><ele>28.0</ele><time>2026-05-01T12:22:35Z</time></trkpt><trkpt lat="39.630326468320995" lon="8.69677790253307"><ele>28.0</ele><time>2026-05-01T12:22:36Z</time></trkpt><trkpt lat="39.630519083524234" lon="8.696669743929167"><ele>28.333333333333336</ele><time>2026-05-01T12:22:37Z</time></trkpt><trkpt lat="39.630713103594935" lon="8.696558209871707"><ele>28.666666666666664</ele><time>2026-05-01T12:22:38Z</time></trkpt><trkpt lat="39.630908821665095" lon="8.696442288959569"><ele>29.0</ele><time>2026-05-01T12:22:39Z</time></trkpt><trkpt lat="39.63110470445057" lon="8.696324011036591"><ele>29.0</ele><time>2026-05-01T12:22:40Z</time></trkpt><trkpt lat="39.63130186656706" lon="8.69620916653014"><ele>29.0</ele><time>2026-05-01T12:22:41Z</time></trkpt><trkpt lat="39.63150038169679" lon="8.69609248725238"><ele>29.0</ele><time>2026-05-01T12:22:42Z</time></trkpt><trkpt lat="39.631701675772774" lon="8.69597662959554"><ele>28.666666666666664</ele><time>2026-05-01T12:22:43Z</time></trkpt><trkpt lat="39.631900629772325" lon="8.695864102208589"><ele>28.333333333333336</ele><time>2026-05-01T12:22:44Z</time></trkpt><trkpt lat="39.63209919518237" lon="8.695754520182023"><ele>28.0</ele><time>2026-05-01T12:22:45Z</time></trkpt><trkpt lat="39.63229395617603" lon="8.695644496737689"><ele>28.0</ele><time>2026-05-01T12:22:46Z</time></trkpt><trkpt lat="39.63248276936391" lon="8.69553060132015"><ele>28.0</ele><time>2026-05-01T12:22:47Z</time></trkpt><trkpt lat="39.632668101286725" lon="8.695408881771042"><ele>28.0</ele><time>2026-05-01T12:22:48Z</time></trkpt><trkpt lat="39.63284375946003" lon="8.695264060273615"><ele>27.666666666666668</ele><time>2026-05-01T12:22:49Z</time></trkpt><trkpt lat="39.633007453886364" lon="8.695098184670524"><ele>27.333333333333336</ele><time>2026-05-01T12:22:50Z</time></trkpt><trkpt lat="39.63316114124847" lon="8.694915901678534"><ele>27.0</ele><time>2026-05-01T12:22:51Z</time></trkpt><trkpt lat="39.63331051636188" lon="8.694727113179876"><ele>27.0</ele><time>2026-05-01T12:22:52Z</time></trkpt><trkpt lat="39.63345764954388" lon="8.694531369068605"><ele>27.0</ele><time>2026-05-01T12:22:53Z</time></trkpt><trkpt lat="39.63360434289293" lon="8.694331845448406"><ele>27.0</ele><time>2026-05-01T12:22:54Z</time></trkpt><trkpt lat="39.63375185861888" lon="8.694129429041663"><ele>27.0</ele><time>2026-05-01T12:22:55Z</time></trkpt><trkpt lat="39.63390069250917" lon="8.69392736257701"><ele>27.0</ele><time>2026-05-01T12:22:56Z</time></trkpt><trkpt lat="39.63405113681973" lon="8.693728660198667"><ele>27.0</ele><time>2026-05-01T12:22:57Z</time></trkpt><trkpt lat="39.63420361273231" lon="8.693532522613696"><ele>27.0</ele><time>2026-05-01T12:22:58Z</time></trkpt><trkpt lat="39.63435624755614" lon="8.693332551817436"><ele>27.0</ele><time>2026-05-01T12:22:59Z</time></trkpt><trkpt lat="39.63450997667332" lon="8.693128145718333"><ele>27.0</ele><time>2026-05-01T12:23:00Z</time></trkpt><trkpt lat="39.63466412814781" lon="8.692922031954021"><ele>27.0</ele><time>2026-05-01T12:23:01Z</time></trkpt><trkpt lat="39.63482025375697" lon="8.69271512589298"><ele>27.0</ele><time>2026-05-01T12:23:02Z</time></trkpt><trkpt lat="39.63497776821804" lon="8.692505321442024"><ele>27.0</ele><time>2026-05-01T12:23:03Z</time></trkpt><trkpt lat="39.635135688738714" lon="8.69229395692939"><ele>27.0</ele><time>2026-05-01T12:23:04Z</time></trkpt><trkpt lat="39.63529638633913" lon="8.69208400196107"><ele>27.0</ele><time>2026-05-01T12:23:05Z</time></trkpt><trkpt lat="39.63545905489347" lon="8.691877106986688"><ele>26.5</ele><time>2026-05-01T12:23:06Z</time></trkpt><trkpt lat="39.63561930386745" lon="8.691667177550288"><ele>26.0</ele><time>2026-05-01T12:23:07Z</time></trkpt><trkpt lat="39.635777916528255" lon="8.691453370565231"><ele>26.0</ele><time>2026-05-01T12:23:08Z</time></trkpt><trkpt lat="39.63593563909961" lon="8.691240299045301"><ele>26.0</ele><time>2026-05-01T12:23:09Z</time></trkpt><trkpt lat="39.63609464914879" lon="8.691029195123173"><ele>26.0</ele><time>2026-05-01T12:23:10Z</time></trkpt><trkpt lat="39.636253284244546" lon="8.690820667483063"><ele>26.0</ele><time>2026-05-01T12:23:11Z</time></trkpt><trkpt lat="39.63641224196441" lon="8.69061185920234"><ele>26.0</ele><time>2026-05-01T12:23:12Z</time></trkpt><trkpt lat="39.636572822900675" lon="8.690405690433826"><ele>26.0</ele><time>2026-05-01T12:23:13Z</time></trkpt><trkpt lat="39.63673983340179" lon="8.690212673013432"><ele>26.0</ele><time>2026-05-01T12:23:14Z</time></trkpt><trkpt lat="39.63691590216934" lon="8.690038945850874"><ele>25.5</ele><time>2026-05-01T12:23:15Z</time></trkpt><trkpt lat="39.63710095853796" lon="8.689878567237812"><ele>25.0</ele><time>2026-05-01T12:23:16Z</time></trkpt><trkpt lat="39.637295946044894" lon="8.689720812218654"><ele>25.0</ele><time>2026-05-01T12:23:17Z</time></trkpt><trkpt lat="39.637509699187255" lon="8.689555888353071"><ele>25.0</ele><time>2026-05-01T12:23:18Z</time></trkpt><trkpt lat="39.6377423394627" lon="8.689376716214847"><ele>24.5</ele><time>2026-05-01T12:23:19Z</time></trkpt><trkpt lat="39.637990322734474" lon="8.689184886694417"><ele>24.0</ele><time>2026-05-01T12:23:20Z</time></trkpt><trkpt lat="39.638250856994695" lon="8.688981641337033"><ele>24.0</ele><time>2026-05-01T12:23:21Z</time></trkpt><trkpt lat="39.63852190457842" lon="8.688767877071834"><ele>24.0</ele><time>2026-05-01T12:23:22Z</time></trkpt><trkpt lat="39.638802135012895" lon="8.688549394606046"><ele>24.5</ele><time>2026-05-01T12:23:23Z</time></trkpt><trkpt lat="39.639084017055346" lon="8.6883292277321"><ele>25.0</ele><time>2026-05-01T12:23:24Z</time></trkpt><trkpt lat="39.639353634034215" lon="8.688112947342876"><ele>24.5</ele><time>2026-05-01T12:23:25Z</time></trkpt><trkpt lat="39.63961259816847" lon="8.687911541323652"><ele>24.0</ele><time>2026-05-01T12:23:26Z</time></trkpt><trkpt lat="39.63984904285473" lon="8.687723414823616"><ele>24.0</ele><time>2026-05-01T12:23:27Z</time></trkpt><trkpt lat="39.64006798979371" lon="8.687548290391312"><ele>24.0</ele><time>2026-05-01T12:23:28Z</time></trkpt><trkpt lat="39.64027133846881" lon="8.687385834545431"><ele>24.666666666666664</ele><time>2026-05-01T12:23:29Z</time></trkpt><trkpt lat="39.64046577060761" lon="8.687235061511641"><ele>25.333333333333332</ele><time>2026-05-01T12:23:30Z</time></trkpt><trkpt lat="39.64064461152531" lon="8.687100861900356"><ele>26.0</ele><time>2026-05-01T12:23:31Z</time></trkpt><trkpt lat="39.64081446062976" lon="8.686974563093758"><ele>26.0</ele><time>2026-05-01T12:23:32Z</time></trkpt><trkpt lat="39.64097945538301" lon="8.686844707947742"><ele>26.0</ele><time>2026-05-01T12:23:33Z</time></trkpt><trkpt lat="39.641142396164085" lon="8.686716304538425"><ele>26.0</ele><time>2026-05-01T12:23:34Z</time></trkpt><trkpt lat="39.641301560096586" lon="8.68658877072488"><ele>25.666666666666664</ele><time>2026-05-01T12:23:35Z</time></trkpt><trkpt lat="39.641463302998126" lon="8.686465704875914"><ele>25.333333333333336</ele><time>2026-05-01T12:23:36Z</time></trkpt><trkpt lat="39.64162439645861" lon="8.68634427602858"><ele>25.0</ele><time>2026-05-01T12:23:37Z</time></trkpt><trkpt lat="39.64178421703577" lon="8.686222229445251"><ele>25.0</ele><time>2026-05-01T12:23:38Z</time></trkpt><trkpt lat="39.64194046475928" lon="8.68609699423302"><ele>25.0</ele><time>2026-05-01T12:23:39Z</time></trkpt><trkpt lat="39.64209412094792" lon="8.685964540024727"><ele>25.0</ele><time>2026-05-01T12:23:40Z</time></trkpt><trkpt lat="39.642240922817805" lon="8.68582156821092"><ele>25.0</ele><time>2026-05-01T12:23:41Z</time></trkpt><trkpt lat="39.6423780801402" lon="8.685659776429613"><ele>25.0</ele><time>2026-05-01T12:23:42Z</time></trkpt><trkpt lat="39.64250442172228" lon="8.68547887858088"><ele>25.0</ele><time>2026-05-01T12:23:43Z</time></trkpt><trkpt lat="39.64261691482872" lon="8.685280418339598"><ele>25.0</ele><time>2026-05-01T12:23:44Z</time></trkpt><trkpt lat="39.6427145555236" lon="8.685065560171147"><ele>25.0</ele><time>2026-05-01T12:23:45Z</time></trkpt><trkpt lat="39.64279290614591" lon="8.684836773531636"><ele>25.0</ele><time>2026-05-01T12:23:46Z</time></trkpt><trkpt lat="39.6428521188279" lon="8.684597673608353"><ele>25.0</ele><time>2026-05-01T12:23:47Z</time></trkpt><trkpt lat="39.642892535911535" lon="8.68435041055387"><ele>25.0</ele><time>2026-05-01T12:23:47.999Z</time></trkpt><trkpt lat="39.64291593343967" lon="8.684097826898476"><ele>25.0</ele><time>2026-05-01T12:23:48.999Z</time></trkpt><trkpt lat="39.64292299989097" lon="8.68384181147691"><ele>24.333333333333336</ele><time>2026-05-01T12:23:49.999Z</time></trkpt><trkpt lat="39.64290905066136" lon="8.683585535408703"><ele>23.666666666666668</ele><time>2026-05-01T12:23:50.999Z</time></trkpt><trkpt lat="39.64287478185567" lon="8.683332580209488"><ele>23.0</ele><time>2026-05-01T12:23:51.999Z</time></trkpt><trkpt lat="39.642828711646615" lon="8.683084167624381"><ele>23.333333333333336</ele><time>2026-05-01T12:23:52.999Z</time></trkpt><trkpt lat="39.64278401696573" lon="8.682835006028482"><ele>23.666666666666668</ele><time>2026-05-01T12:23:53.999Z</time></trkpt><trkpt lat="39.64274398360081" lon="8.682584784263417"><ele>24.0</ele><time>2026-05-01T12:23:54.999Z</time></trkpt><trkpt lat="39.64270393950122" lon="8.682331791711153"><ele>24.0</ele><time>2026-05-01T12:23:55.999Z</time></trkpt><trkpt lat="39.64266461797608" lon="8.682077309327846"><ele>24.0</ele><time>2026-05-01T12:23:56.999Z</time></trkpt><trkpt lat="39.64262435604298" lon="8.681822879709117"><ele>24.0</ele><time>2026-05-01T12:23:57.999Z</time></trkpt><trkpt lat="39.642583097005584" lon="8.681569886793087"><ele>24.0</ele><time>2026-05-01T12:23:58.999Z</time></trkpt><trkpt lat="39.64254134846832" lon="8.681314810564778"><ele>24.0</ele><time>2026-05-01T12:23:59.999Z</time></trkpt><trkpt lat="39.64250005507044" lon="8.681063713319336"><ele>24.0</ele><time>2026-05-01T12:24:00.999Z</time></trkpt><trkpt lat="39.64245926759289" lon="8.680814729642165"><ele>24.0</ele><time>2026-05-01T12:24:01.999Z</time></trkpt><trkpt lat="39.64241929768865" lon="8.680563370544272"><ele>24.0</ele><time>2026-05-01T12:24:02.999Z</time></trkpt><trkpt lat="39.64237769049201" lon="8.680309517923357"><ele>24.0</ele><time>2026-05-01T12:24:03.999Z</time></trkpt><trkpt lat="39.64233505661766" lon="8.680054989430513"><ele>24.0</ele><time>2026-05-01T12:24:04.999Z</time></trkpt><trkpt lat="39.64229280134699" lon="8.67980021217587"><ele>24.0</ele><time>2026-05-01T12:24:05.999Z</time></trkpt><trkpt lat="39.642249914635926" lon="8.679544169330185"><ele>24.0</ele><time>2026-05-01T12:24:06.999Z</time></trkpt><trkpt lat="39.642208312335896" lon="8.67928678759544"><ele>24.666666666666664</ele><time>2026-05-01T12:24:07.999Z</time></trkpt><trkpt lat="39.64216577106439" lon="8.679029558239934"><ele>25.333333333333332</ele><time>2026-05-01T12:24:08.999Z</time></trkpt><trkpt lat="39.64212467924393" lon="8.678770723218355"><ele>26.0</ele><time>2026-05-01T12:24:09.999Z</time></trkpt><trkpt lat="39.64208483538902" lon="8.678512352059679"><ele>26.0</ele><time>2026-05-01T12:24:10.999Z</time></trkpt><trkpt lat="39.64204251084268" lon="8.678255290090712"><ele>26.0</ele><time>2026-05-01T12:24:11.999Z</time></trkpt><trkpt lat="39.64199894819704" lon="8.677998873661277"><ele>26.0</ele><time>2026-05-01T12:24:12.999Z</time></trkpt><trkpt lat="39.6419558934694" lon="8.677743201213856"><ele>26.0</ele><time>2026-05-01T12:24:13.999Z</time></trkpt><trkpt lat="39.6419141179566" lon="8.677486214844933"><ele>26.0</ele><time>2026-05-01T12:24:14.999Z</time></trkpt><trkpt lat="39.64187324933046" lon="8.677227181467087"><ele>26.0</ele><time>2026-05-01T12:24:15.999Z</time></trkpt><trkpt lat="39.64183422988917" lon="8.676967251150897"><ele>26.0</ele><time>2026-05-01T12:24:16.999Z</time></trkpt><trkpt lat="39.64179379524084" lon="8.676710112939002"><ele>26.0</ele><time>2026-05-01T12:24:17.999Z</time></trkpt><trkpt lat="39.641751495602804" lon="8.676453681521139"><ele>26.0</ele><time>2026-05-01T12:24:18.999Z</time></trkpt><trkpt lat="39.641708446643364" lon="8.67619699300929"><ele>26.0</ele><time>2026-05-01T12:24:19.999Z</time></trkpt><trkpt lat="39.64166775158882" lon="8.675941086705379"><ele>26.0</ele><time>2026-05-01T12:24:20.999Z</time></trkpt><trkpt lat="39.641628110887474" lon="8.675682500047865"><ele>26.0</ele><time>2026-05-01T12:24:21.999Z</time></trkpt><trkpt lat="39.64158905690471" lon="8.675422916838817"><ele>26.0</ele><time>2026-05-01T12:24:22.999Z</time></trkpt><trkpt lat="39.641549227976626" lon="8.675166408004797"><ele>26.0</ele><time>2026-05-01T12:24:23.999Z</time></trkpt><trkpt lat="39.64150690370132" lon="8.674909333690344"><ele>26.0</ele><time>2026-05-01T12:24:24.999Z</time></trkpt><trkpt lat="39.64146404448791" lon="8.674652413621068"><ele>26.0</ele><time>2026-05-01T12:24:25.999Z</time></trkpt><trkpt lat="39.64142132175728" lon="8.674394450570933"><ele>26.0</ele><time>2026-05-01T12:24:26.999Z</time></trkpt><trkpt lat="39.6413801486694" lon="8.674136860189453"><ele>26.0</ele><time>2026-05-01T12:24:27.999Z</time></trkpt><trkpt lat="39.6413391944037" lon="8.67388020094901"><ele>26.0</ele><time>2026-05-01T12:24:28.999Z</time></trkpt><trkpt lat="39.64129844297863" lon="8.673623719685377"><ele>26.0</ele><time>2026-05-01T12:24:29.999Z</time></trkpt><trkpt lat="39.64125737670794" lon="8.673368005251517"><ele>26.0</ele><time>2026-05-01T12:24:30.999Z</time></trkpt><trkpt lat="39.64121839835556" lon="8.67311029311166"><ele>26.0</ele><time>2026-05-01T12:24:32Z</time></trkpt><trkpt lat="39.64117807368938" lon="8.672853051101391"><ele>26.0</ele><time>2026-05-01T12:24:33Z</time></trkpt><trkpt lat="39.64113691679403" lon="8.672594873674248"><ele>26.0</ele><time>2026-05-01T12:24:34Z</time></trkpt><trkpt lat="39.64109282642325" lon="8.672335454857699"><ele>26.0</ele><time>2026-05-01T12:24:35Z</time></trkpt><trkpt lat="39.641048140046045" lon="8.672074907419882"><ele>26.0</ele><time>2026-05-01T12:24:36Z</time></trkpt><trkpt lat="39.64100468027975" lon="8.671815690072775"><ele>26.0</ele><time>2026-05-01T12:24:37Z</time></trkpt><trkpt lat="39.640962862075305" lon="8.671555707712061"><ele>26.0</ele><time>2026-05-01T12:24:38Z</time></trkpt><trkpt lat="39.64092002794355" lon="8.671296759521"><ele>26.0</ele><time>2026-05-01T12:24:39Z</time></trkpt><trkpt lat="39.640877763602035" lon="8.671037959747746"><ele>26.0</ele><time>2026-05-01T12:24:40Z</time></trkpt><trkpt lat="39.640836045968804" lon="8.670778856948479"><ele>25.666666666666664</ele><time>2026-05-01T12:24:41Z</time></trkpt><trkpt lat="39.6407950222837" lon="8.670519453283749"><ele>25.333333333333336</ele><time>2026-05-01T12:24:42Z</time></trkpt><trkpt lat="39.64075551067459" lon="8.670261404599922"><ele>25.0</ele><time>2026-05-01T12:24:43Z</time></trkpt><trkpt lat="39.640714887552235" lon="8.67000232922614"><ele>25.0</ele><time>2026-05-01T12:24:44Z</time></trkpt><trkpt lat="39.64067271267545" lon="8.669744081835642"><ele>25.0</ele><time>2026-05-01T12:24:45Z</time></trkpt><trkpt lat="39.640631571018226" lon="8.669485350719398"><ele>25.0</ele><time>2026-05-01T12:24:46Z</time></trkpt><trkpt lat="39.64059162523473" lon="8.669226422087359"><ele>25.333333333333336</ele><time>2026-05-01T12:24:47Z</time></trkpt><trkpt lat="39.64055163583285" lon="8.66896795980326"><ele>25.666666666666664</ele><time>2026-05-01T12:24:48Z</time></trkpt><trkpt lat="39.640511323635195" lon="8.6687088858266"><ele>26.0</ele><time>2026-05-01T12:24:49Z</time></trkpt><trkpt lat="39.64046942581841" lon="8.668448627518375"><ele>26.0</ele><time>2026-05-01T12:24:50Z</time></trkpt><trkpt lat="39.6404265240141" lon="8.668187697803258"><ele>26.0</ele><time>2026-05-01T12:24:51Z</time></trkpt><trkpt lat="39.64038838622588" lon="8.667927005601491"><ele>26.0</ele><time>2026-05-01T12:24:52Z</time></trkpt><trkpt lat="39.64034003760929" lon="8.667657943631967"><ele>26.0</ele><time>2026-05-01T12:24:53Z</time></trkpt><trkpt lat="39.64029378790212" lon="8.667395859313546"><ele>26.0</ele><time>2026-05-01T12:24:54Z</time></trkpt><trkpt lat="39.64024925184744" lon="8.667129131080157"><ele>26.0</ele><time>2026-05-01T12:24:55Z</time></trkpt><trkpt lat="39.640206216693855" lon="8.666865110800442"><ele>26.0</ele><time>2026-05-01T12:24:56Z</time></trkpt><trkpt lat="39.640166412045915" lon="8.666601221655352"><ele>26.0</ele><time>2026-05-01T12:24:57Z</time></trkpt><trkpt lat="39.64013012884107" lon="8.666340415006644"><ele>26.0</ele><time>2026-05-01T12:24:58Z</time></trkpt><trkpt lat="39.640093611189485" lon="8.66608147936491"><ele>26.0</ele><time>2026-05-01T12:24:59Z</time></trkpt><trkpt lat="39.640052217815736" lon="8.66582460071192"><ele>26.0</ele><time>2026-05-01T12:25:00Z</time></trkpt><trkpt lat="39.64000886250399" lon="8.66557016251149"><ele>26.0</ele><time>2026-05-01T12:25:01Z</time></trkpt><trkpt lat="39.63996579153571" lon="8.665316075836587"><ele>26.333333333333332</ele><time>2026-05-01T12:25:02Z</time></trkpt><trkpt lat="39.63992364798725" lon="8.665061768602861"><ele>26.666666666666664</ele><time>2026-05-01T12:25:03Z</time></trkpt><trkpt lat="39.6398828165249" lon="8.664806111274768"><ele>27.0</ele><time>2026-05-01T12:25:04Z</time></trkpt><trkpt lat="39.63984073434327" lon="8.66455113549436"><ele>26.666666666666664</ele><time>2026-05-01T12:25:05Z</time></trkpt><trkpt lat="39.63979648182283" lon="8.664295857770492"><ele>26.333333333333332</ele><time>2026-05-01T12:25:06Z</time></trkpt><trkpt lat="39.63975444329229" lon="8.664039374650418"><ele>26.0</ele><time>2026-05-01T12:25:07Z</time></trkpt><trkpt lat="39.6397180521463" lon="8.663779308932423"><ele>26.0</ele><time>2026-05-01T12:25:08Z</time></trkpt><trkpt lat="39.63967313273103" lon="8.663524011619558"><ele>26.0</ele><time>2026-05-01T12:25:09Z</time></trkpt><trkpt lat="39.63962227532784" lon="8.663272462483727"><ele>26.0</ele><time>2026-05-01T12:25:10Z</time></trkpt><trkpt lat="39.63957473379719" lon="8.663019178362767"><ele>26.0</ele><time>2026-05-01T12:25:11Z</time></trkpt><trkpt lat="39.63953959710318" lon="8.662765423832289"><ele>26.0</ele><time>2026-05-01T12:25:12Z</time></trkpt><trkpt lat="39.63950185716879" lon="8.662511606095602"><ele>26.0</ele><time>2026-05-01T12:25:13Z</time></trkpt><trkpt lat="39.63946092024238" lon="8.662258251770615"><ele>26.333333333333332</ele><time>2026-05-01T12:25:14Z</time></trkpt><trkpt lat="39.6394180699469" lon="8.662003902274872"><ele>26.666666666666664</ele><time>2026-05-01T12:25:15Z</time></trkpt><trkpt lat="39.63937866745521" lon="8.661750239810173"><ele>27.0</ele><time>2026-05-01T12:25:16Z</time></trkpt><trkpt lat="39.63934297741446" lon="8.661497094363321"><ele>27.666666666666664</ele><time>2026-05-01T12:25:17Z</time></trkpt><trkpt lat="39.6393068863197" lon="8.661244196387553"><ele>28.333333333333332</ele><time>2026-05-01T12:25:18Z</time></trkpt><trkpt lat="39.63926884801014" lon="8.660995824792884"><ele>29.0</ele><time>2026-05-01T12:25:19Z</time></trkpt><trkpt lat="39.639230108432216" lon="8.660749796574787"><ele>30.0</ele><time>2026-05-01T12:25:20Z</time></trkpt><trkpt lat="39.63919021351427" lon="8.660509199016351"><ele>31.0</ele><time>2026-05-01T12:25:21Z</time></trkpt><trkpt lat="39.63915062381506" lon="8.660270931407663"><ele>32.0</ele><time>2026-05-01T12:25:22Z</time></trkpt><trkpt lat="39.63910949341586" lon="8.660030250352198"><ele>32.0</ele><time>2026-05-01T12:25:23Z</time></trkpt><trkpt lat="39.63906857994562" lon="8.659782906558565"><ele>32.0</ele><time>2026-05-01T12:25:24Z</time></trkpt><trkpt lat="39.63902719013056" lon="8.659529999118726"><ele>32.0</ele><time>2026-05-01T12:25:25Z</time></trkpt><trkpt lat="39.63898732286667" lon="8.659273875518673"><ele>32.0</ele><time>2026-05-01T12:25:26Z</time></trkpt><trkpt lat="39.63894599784003" lon="8.659013654599152"><ele>32.0</ele><time>2026-05-01T12:25:27Z</time></trkpt><trkpt lat="39.638901569752484" lon="8.658750868241032"><ele>32.0</ele><time>2026-05-01T12:25:28Z</time></trkpt><trkpt lat="39.63885457077706" lon="8.658486908929317"><ele>31.666666666666664</ele><time>2026-05-01T12:25:29Z</time></trkpt><trkpt lat="39.638809951435796" lon="8.658223929114639"><ele>31.333333333333336</ele><time>2026-05-01T12:25:30Z</time></trkpt><trkpt lat="39.63877106813208" lon="8.657964873058368"><ele>31.0</ele><time>2026-05-01T12:25:31Z</time></trkpt><trkpt lat="39.63873713662717" lon="8.657716383680246"><ele>31.0</ele><time>2026-05-01T12:25:32Z</time></trkpt><trkpt lat="39.63869749513114" lon="8.6574778656217"><ele>31.0</ele><time>2026-05-01T12:25:33Z</time></trkpt><trkpt lat="39.63866071245723" lon="8.657248829463574"><ele>31.0</ele><time>2026-05-01T12:25:34Z</time></trkpt><trkpt lat="39.63862222773119" lon="8.65701799874845"><ele>30.666666666666668</ele><time>2026-05-01T12:25:35Z</time></trkpt><trkpt lat="39.63858094109398" lon="8.65678712092823"><ele>30.333333333333336</ele><time>2026-05-01T12:25:36Z</time></trkpt><trkpt lat="39.638548249416395" lon="8.656572458361463"><ele>30.0</ele><time>2026-05-01T12:25:37Z</time></trkpt><trkpt lat="39.638523983156844" lon="8.656368851130505"><ele>30.0</ele><time>2026-05-01T12:25:38Z</time></trkpt><trkpt lat="39.63848804612783" lon="8.656180861778637"><ele>30.0</ele><time>2026-05-01T12:25:39Z</time></trkpt><trkpt lat="39.638458737798224" lon="8.656004267968221"><ele>30.0</ele><time>2026-05-01T12:25:40Z</time></trkpt><trkpt lat="39.638449761697075" lon="8.655834201419056"><ele>30.0</ele><time>2026-05-01T12:25:41Z</time></trkpt><trkpt lat="39.63846336226242" lon="8.65568261791971"><ele>30.0</ele><time>2026-05-01T12:25:42Z</time></trkpt><trkpt lat="39.638474396925105" lon="8.655555304250926"><ele>30.0</ele><time>2026-05-01T12:25:43Z</time></trkpt><trkpt lat="39.638465318871624" lon="8.655458878577134"><ele>30.0</ele><time>2026-05-01T12:25:44Z</time></trkpt><trkpt lat="39.63843921811583" lon="8.65535838401063"><ele>30.0</ele><time>2026-05-01T12:25:46Z</time></trkpt><trkpt lat="39.638413624425425" lon="8.655256498022483"><ele>30.0</ele><time>2026-05-01T12:25:48Z</time></trkpt><trkpt lat="39.6384372725761" lon="8.655159368882499"><ele>30.0</ele><time>2026-05-01T12:25:49Z</time></trkpt><trkpt lat="39.6384314757103" lon="8.655038136180442"><ele>30.0</ele><time>2026-05-01T12:25:50Z</time></trkpt><trkpt lat="39.6383866994579" lon="8.654888955658244"><ele>30.0</ele><time>2026-05-01T12:25:51Z</time></trkpt><trkpt lat="39.63834173143041" lon="8.654719094844697"><ele>30.0</ele><time>2026-05-01T12:25:51.999Z</time></trkpt><trkpt lat="39.63832541025876" lon="8.654514255066575"><ele>30.0</ele><time>2026-05-01T12:25:52.999Z</time></trkpt><trkpt lat="39.638339101166245" lon="8.654277072036438"><ele>30.0</ele><time>2026-05-01T12:25:53.999Z</time></trkpt><trkpt lat="39.638354009492545" lon="8.654029961593853"><ele>30.0</ele><time>2026-05-01T12:25:54.999Z</time></trkpt><trkpt lat="39.63836040442583" lon="8.653782656187628"><ele>30.0</ele><time>2026-05-01T12:25:55.999Z</time></trkpt><trkpt lat="39.63836144202609" lon="8.6535240356611"><ele>30.0</ele><time>2026-05-01T12:25:56.999Z</time></trkpt><trkpt lat="39.63836477239543" lon="8.653254536245905"><ele>30.0</ele><time>2026-05-01T12:25:57.999Z</time></trkpt><trkpt lat="39.63836662863466" lon="8.652988244731192"><ele>30.0</ele><time>2026-05-01T12:25:58.999Z</time></trkpt><trkpt lat="39.63836813498244" lon="8.652716419855443"><ele>30.0</ele><time>2026-05-01T12:25:59.999Z</time></trkpt><trkpt lat="39.63836919762777" lon="8.652435348261067"><ele>30.0</ele><time>2026-05-01T12:26:00.999Z</time></trkpt><trkpt lat="39.63836833735701" lon="8.652152471454235"><ele>30.0</ele><time>2026-05-01T12:26:01.999Z</time></trkpt><trkpt lat="39.63836010819296" lon="8.651874970733731"><ele>30.0</ele><time>2026-05-01T12:26:02.999Z</time></trkpt><trkpt lat="39.63834032569619" lon="8.651598920929327"><ele>30.0</ele><time>2026-05-01T12:26:03.999Z</time></trkpt><trkpt lat="39.638318695970895" lon="8.651325156992394"><ele>30.0</ele><time>2026-05-01T12:26:04.999Z</time></trkpt><trkpt lat="39.638296860022876" lon="8.651052927259657"><ele>30.0</ele><time>2026-05-01T12:26:05.999Z</time></trkpt><trkpt lat="39.638284618458634" lon="8.650781024047431"><ele>30.0</ele><time>2026-05-01T12:26:06.999Z</time></trkpt><trkpt lat="39.638273273211716" lon="8.650508999196036"><ele>30.0</ele><time>2026-05-01T12:26:07.999Z</time></trkpt><trkpt lat="39.638256373961305" lon="8.650233549500333"><ele>30.0</ele><time>2026-05-01T12:26:08.999Z</time></trkpt><trkpt lat="39.638236746511346" lon="8.649953864802265"><ele>30.0</ele><time>2026-05-01T12:26:09.999Z</time></trkpt><trkpt lat="39.63821827271782" lon="8.649670836805337"><ele>30.0</ele><time>2026-05-01T12:26:10.999Z</time></trkpt><trkpt lat="39.63819986057524" lon="8.649387649074974"><ele>29.666666666666664</ele><time>2026-05-01T12:26:11.999Z</time></trkpt><trkpt lat="39.63818340937684" lon="8.649103627716912"><ele>29.333333333333332</ele><time>2026-05-01T12:26:12.999Z</time></trkpt><trkpt lat="39.63816676535657" lon="8.648821223646328"><ele>29.0</ele><time>2026-05-01T12:26:13.999Z</time></trkpt><trkpt lat="39.6381481706218" lon="8.648543106369223"><ele>28.666666666666664</ele><time>2026-05-01T12:26:14.999Z</time></trkpt><trkpt lat="39.63813078791472" lon="8.648265092745785"><ele>28.333333333333336</ele><time>2026-05-01T12:26:15.999Z</time></trkpt><trkpt lat="39.63811400942947" lon="8.647985124467631"><ele>28.0</ele><time>2026-05-01T12:26:16.999Z</time></trkpt><trkpt lat="39.63809642632243" lon="8.64770471625389"><ele>28.0</ele><time>2026-05-01T12:26:17.999Z</time></trkpt><trkpt lat="39.638078250989416" lon="8.647425647834162"><ele>28.0</ele><time>2026-05-01T12:26:18.999Z</time></trkpt><trkpt lat="39.638059804166176" lon="8.647149582292215"><ele>28.0</ele><time>2026-05-01T12:26:19.999Z</time></trkpt><trkpt lat="39.638040331410416" lon="8.64687499265235"><ele>28.333333333333336</ele><time>2026-05-01T12:26:20.999Z</time></trkpt><trkpt lat="39.638021402063146" lon="8.646605823406704"><ele>28.666666666666664</ele><time>2026-05-01T12:26:21.999Z</time></trkpt><trkpt lat="39.638004321468294" lon="8.64633533465021"><ele>29.0</ele><time>2026-05-01T12:26:22.999Z</time></trkpt><trkpt lat="39.63798644287101" lon="8.646067550229573"><ele>28.666666666666664</ele><time>2026-05-01T12:26:23.999Z</time></trkpt><trkpt lat="39.637969232113214" lon="8.645801372849967"><ele>28.333333333333336</ele><time>2026-05-01T12:26:24.999Z</time></trkpt><trkpt lat="39.63795424958978" lon="8.64553483754348"><ele>28.0</ele><time>2026-05-01T12:26:25.999Z</time></trkpt><trkpt lat="39.63793851580472" lon="8.645265348214936"><ele>28.0</ele><time>2026-05-01T12:26:26.999Z</time></trkpt><trkpt lat="39.637921847432274" lon="8.644995674667996"><ele>28.0</ele><time>2026-05-01T12:26:27.999Z</time></trkpt><trkpt lat="39.63790473558261" lon="8.644725124023456"><ele>28.0</ele><time>2026-05-01T12:26:28.999Z</time></trkpt><trkpt lat="39.63788726615887" lon="8.644452045008741"><ele>28.0</ele><time>2026-05-01T12:26:29.999Z</time></trkpt><trkpt lat="39.63787215016477" lon="8.64417850162047"><ele>28.0</ele><time>2026-05-01T12:26:30.999Z</time></trkpt><trkpt lat="39.63785726565831" lon="8.643904587518954"><ele>28.0</ele><time>2026-05-01T12:26:31.999Z</time></trkpt><trkpt lat="39.63784211529042" lon="8.643631161368273"><ele>28.0</ele><time>2026-05-01T12:26:32.999Z</time></trkpt><trkpt lat="39.637826166904844" lon="8.643359183663572"><ele>28.0</ele><time>2026-05-01T12:26:33.999Z</time></trkpt><trkpt lat="39.63780580018168" lon="8.64308791131579"><ele>28.0</ele><time>2026-05-01T12:26:34.999Z</time></trkpt><trkpt lat="39.63778680981706" lon="8.642816601105016"><ele>27.333333333333336</ele><time>2026-05-01T12:26:35.999Z</time></trkpt><trkpt lat="39.63776696989448" lon="8.642546280433624"><ele>26.666666666666664</ele><time>2026-05-01T12:26:36.999Z</time></trkpt><trkpt lat="39.63774241007381" lon="8.642277139522571"><ele>26.0</ele><time>2026-05-01T12:26:38Z</time></trkpt><trkpt lat="39.637711049417995" lon="8.642009906984166"><ele>26.0</ele><time>2026-05-01T12:26:39Z</time></trkpt><trkpt lat="39.63766726374809" lon="8.641745232391395"><ele>26.0</ele><time>2026-05-01T12:26:40Z</time></trkpt><trkpt lat="39.63761639273289" lon="8.641482660921845"><ele>26.0</ele><time>2026-05-01T12:26:41Z</time></trkpt><trkpt lat="39.63755798036739" lon="8.641218850032923"><ele>26.0</ele><time>2026-05-01T12:26:42Z</time></trkpt><trkpt lat="39.63749308175045" lon="8.640958014209245"><ele>26.0</ele><time>2026-05-01T12:26:43Z</time></trkpt><trkpt lat="39.63741901063017" lon="8.640700149244601"><ele>26.0</ele><time>2026-05-01T12:26:44Z</time></trkpt><trkpt lat="39.637337413206964" lon="8.640444367225886"><ele>26.0</ele><time>2026-05-01T12:26:45Z</time></trkpt><trkpt lat="39.637252411343965" lon="8.640189325754347"><ele>26.0</ele><time>2026-05-01T12:26:46Z</time></trkpt><trkpt lat="39.637157844694734" lon="8.639940928213717"><ele>26.0</ele><time>2026-05-01T12:26:47Z</time></trkpt><trkpt lat="39.63706435315939" lon="8.639688392936076"><ele>26.0</ele><time>2026-05-01T12:26:48Z</time></trkpt><trkpt lat="39.63697952297077" lon="8.639435361250884"><ele>26.0</ele><time>2026-05-01T12:26:49Z</time></trkpt><trkpt lat="39.636892608482505" lon="8.639181927738447"><ele>26.0</ele><time>2026-05-01T12:26:50Z</time></trkpt><trkpt lat="39.63680539373459" lon="8.63893114849199"><ele>26.0</ele><time>2026-05-01T12:26:51Z</time></trkpt><trkpt lat="39.63671962250314" lon="8.638675477491724"><ele>26.0</ele><time>2026-05-01T12:26:52Z</time></trkpt><trkpt lat="39.636635582771866" lon="8.638428626048789"><ele>26.0</ele><time>2026-05-01T12:26:53Z</time></trkpt><trkpt lat="39.63654531373922" lon="8.638188279663433"><ele>27.0</ele><time>2026-05-01T12:26:54Z</time></trkpt><trkpt lat="39.6364560008172" lon="8.637948927012186"><ele>28.0</ele><time>2026-05-01T12:26:55Z</time></trkpt><trkpt lat="39.6363713546246" lon="8.637708272014173"><ele>29.0</ele><time>2026-05-01T12:26:56Z</time></trkpt><trkpt lat="39.636287377085736" lon="8.637463957394681"><ele>29.0</ele><time>2026-05-01T12:26:57Z</time></trkpt><trkpt lat="39.63620296934361" lon="8.637222078728863"><ele>29.0</ele><time>2026-05-01T12:26:58Z</time></trkpt><trkpt lat="39.6361182519669" lon="8.636978028798941"><ele>29.0</ele><time>2026-05-01T12:26:59Z</time></trkpt><trkpt lat="39.63603669769483" lon="8.636736597502614"><ele>28.333333333333332</ele><time>2026-05-01T12:27:00Z</time></trkpt><trkpt lat="39.6359532999112" lon="8.636495736322724"><ele>27.666666666666664</ele><time>2026-05-01T12:27:01Z</time></trkpt><trkpt lat="39.63586951613175" lon="8.636257444361519"><ele>27.0</ele><time>2026-05-01T12:27:02Z</time></trkpt><trkpt lat="39.63578704350921" lon="8.636016629385667"><ele>27.0</ele><time>2026-05-01T12:27:03Z</time></trkpt><trkpt lat="39.63570603003541" lon="8.63577666737828"><ele>27.0</ele><time>2026-05-01T12:27:04Z</time></trkpt><trkpt lat="39.63562611074073" lon="8.635534204939999"><ele>27.0</ele><time>2026-05-01T12:27:05Z</time></trkpt><trkpt lat="39.63554280333073" lon="8.635294965769063"><ele>27.0</ele><time>2026-05-01T12:27:06Z</time></trkpt><trkpt lat="39.63545924037927" lon="8.635058004499939"><ele>27.0</ele><time>2026-05-01T12:27:07Z</time></trkpt><trkpt lat="39.63538419726437" lon="8.634826237329236"><ele>27.0</ele><time>2026-05-01T12:27:08Z</time></trkpt><trkpt lat="39.63530575353635" lon="8.634597729503792"><ele>26.333333333333336</ele><time>2026-05-01T12:27:09Z</time></trkpt><trkpt lat="39.63522069910725" lon="8.63437441893475"><ele>25.666666666666668</ele><time>2026-05-01T12:27:10Z</time></trkpt><trkpt lat="39.63514254691814" lon="8.634152128195439"><ele>25.0</ele><time>2026-05-01T12:27:11Z</time></trkpt><trkpt lat="39.63507145926248" lon="8.633938727940544"><ele>25.0</ele><time>2026-05-01T12:27:12Z</time></trkpt><trkpt lat="39.63501549146731" lon="8.633770979417873"><ele>25.0</ele><time>2026-05-01T12:27:13Z</time></trkpt><trkpt lat="39.634979318510254" lon="8.633640369885194"><ele>25.0</ele><time>2026-05-01T12:27:14Z</time></trkpt><trkpt lat="39.6349522203431" lon="8.633545065806567"><ele>25.0</ele><time>2026-05-01T12:27:15Z</time></trkpt><trkpt lat="39.63492156381336" lon="8.633445618819966"><ele>25.0</ele><time>2026-05-01T12:27:17Z</time></trkpt><trkpt lat="39.634933178540386" lon="8.633543600017015"><ele>25.0</ele><time>2026-05-01T12:27:20Z</time></trkpt><trkpt lat="39.634943031318684" lon="8.63365841628985"><ele>25.0</ele><time>2026-05-01T12:27:21Z</time></trkpt><trkpt lat="39.63499604878734" lon="8.633773174495397"><ele>25.0</ele><time>2026-05-01T12:27:22Z</time></trkpt><trkpt lat="39.635055635632035" lon="8.63391325486427"><ele>25.0</ele><time>2026-05-01T12:27:23Z</time></trkpt><trkpt lat="39.63508457295301" lon="8.634083741910501"><ele>25.0</ele><time>2026-05-01T12:27:24Z</time></trkpt><trkpt lat="39.635142299229635" lon="8.634250649143134"><ele>25.0</ele><time>2026-05-01T12:27:25Z</time></trkpt><trkpt lat="39.63522195983258" lon="8.634429156500701"><ele>25.0</ele><time>2026-05-01T12:27:26Z</time></trkpt><trkpt lat="39.63527014088426" lon="8.63462028421476"><ele>25.4</ele><time>2026-05-01T12:27:27Z</time></trkpt><trkpt lat="39.635335500574556" lon="8.634766391200934"><ele>25.8</ele><time>2026-05-01T12:27:28Z</time></trkpt><trkpt lat="39.635376016474716" lon="8.634893767860023"><ele>26.200000000000003</ele><time>2026-05-01T12:27:29Z</time></trkpt><trkpt lat="39.635405668598366" lon="8.634985484663211"><ele>26.6</ele><time>2026-05-01T12:27:30Z</time></trkpt><trkpt lat="39.6354358786258" lon="8.635087289531798"><ele>27.0</ele><time>2026-05-01T12:27:32Z</time></trkpt><trkpt lat="39.63549245901324" lon="8.635035344314458"><ele>27.0</ele><time>2026-05-01T12:27:40Z</time></trkpt><trkpt lat="39.63561581939342" lon="8.634960766993295"><ele>27.0</ele><time>2026-05-01T12:27:42Z</time></trkpt><trkpt lat="39.63572001523004" lon="8.634921364133763"><ele>27.0</ele><time>2026-05-01T12:27:43Z</time></trkpt><trkpt lat="39.63582278762988" lon="8.634876822140702"><ele>27.0</ele><time>2026-05-01T12:27:44Z</time></trkpt><trkpt lat="39.63594473490169" lon="8.634816368973741"><ele>27.0</ele><time>2026-05-01T12:27:45Z</time></trkpt><trkpt lat="39.6360660505937" lon="8.634752740553079"><ele>27.0</ele><time>2026-05-01T12:27:46Z</time></trkpt><trkpt lat="39.63619449063826" lon="8.634681918147924"><ele>27.0</ele><time>2026-05-01T12:27:47Z</time></trkpt><trkpt lat="39.63632779413282" lon="8.634604952328642"><ele>27.0</ele><time>2026-05-01T12:27:48Z</time></trkpt><trkpt lat="39.63646307992581" lon="8.634523618678779"><ele>26.5</ele><time>2026-05-01T12:27:49Z</time></trkpt><trkpt lat="39.63659300963266" lon="8.63444915936329"><ele>26.0</ele><time>2026-05-01T12:27:50Z</time></trkpt><trkpt lat="39.63671161277681" lon="8.634380539403349"><ele>25.5</ele><time>2026-05-01T12:27:51Z</time></trkpt><trkpt lat="39.63683493352259" lon="8.6343085571603"><ele>25.0</ele><time>2026-05-01T12:27:52Z</time></trkpt><trkpt lat="39.636959325939166" lon="8.634236100625762"><ele>25.25</ele><time>2026-05-01T12:27:53Z</time></trkpt><trkpt lat="39.6370912300224" lon="8.63416127063409"><ele>25.5</ele><time>2026-05-01T12:27:54Z</time></trkpt><trkpt lat="39.63722399385739" lon="8.634079862847956"><ele>25.75</ele><time>2026-05-01T12:27:55Z</time></trkpt><trkpt lat="39.63735847375282" lon="8.633993491389555"><ele>26.0</ele><time>2026-05-01T12:27:56Z</time></trkpt><trkpt lat="39.63749332415681" lon="8.633909488998034"><ele>26.0</ele><time>2026-05-01T12:27:56.999Z</time></trkpt><trkpt lat="39.63762309991284" lon="8.633818852537953"><ele>26.0</ele><time>2026-05-01T12:27:57.999Z</time></trkpt><trkpt lat="39.637746411457535" lon="8.633715318181046"><ele>26.0</ele><time>2026-05-01T12:27:58.999Z</time></trkpt><trkpt lat="39.637871488017666" lon="8.633611926313566"><ele>26.0</ele><time>2026-05-01T12:27:59.999Z</time></trkpt><trkpt lat="39.63799288114662" lon="8.633500471587412"><ele>25.75</ele><time>2026-05-01T12:28:00.999Z</time></trkpt><trkpt lat="39.63811261900917" lon="8.633384963958513"><ele>25.5</ele><time>2026-05-01T12:28:01.999Z</time></trkpt><trkpt lat="39.63823296838109" lon="8.633275312056943"><ele>25.25</ele><time>2026-05-01T12:28:02.999Z</time></trkpt><trkpt lat="39.638353225964885" lon="8.63316908383603"><ele>25.0</ele><time>2026-05-01T12:28:03.999Z</time></trkpt><trkpt lat="39.638464807726464" lon="8.633084045697112"><ele>25.0</ele><time>2026-05-01T12:28:04.999Z</time></trkpt><trkpt lat="39.63856192160481" lon="8.633015851625577"><ele>25.0</ele><time>2026-05-01T12:28:05.999Z</time></trkpt><trkpt lat="39.63864118259325" lon="8.632978212912294"><ele>25.0</ele><time>2026-05-01T12:28:06.999Z</time></trkpt><trkpt lat="39.63873633734491" lon="8.632971921739621"><ele>25.0</ele><time>2026-05-01T12:28:07.999Z</time></trkpt><trkpt lat="39.63885785938296" lon="8.632986299503688"><ele>25.0</ele><time>2026-05-01T12:28:08.999Z</time></trkpt><trkpt lat="39.6389906528969" lon="8.63299814981423"><ele>25.0</ele><time>2026-05-01T12:28:09.999Z</time></trkpt><trkpt lat="39.639123965490725" lon="8.632995453258523"><ele>25.0</ele><time>2026-05-01T12:28:10.999Z</time></trkpt><trkpt lat="39.63925356375652" lon="8.632989035644444"><ele>25.0</ele><time>2026-05-01T12:28:11.999Z</time></trkpt><trkpt lat="39.63937605806758" lon="8.632956838036863"><ele>25.0</ele><time>2026-05-01T12:28:12.999Z</time></trkpt><trkpt lat="39.63946635148504" lon="8.632904906095842"><ele>25.0</ele><time>2026-05-01T12:28:13.999Z</time></trkpt><trkpt lat="39.6395426026288" lon="8.632832487657671"><ele>25.0</ele><time>2026-05-01T12:28:14.999Z</time></trkpt><trkpt lat="39.63962841698797" lon="8.632744184078275"><ele>25.0</ele><time>2026-05-01T12:28:15.999Z</time></trkpt><trkpt lat="39.63973175639315" lon="8.632668741034978"><ele>25.0</ele><time>2026-05-01T12:28:16.999Z</time></trkpt><trkpt lat="39.63983460203404" lon="8.632603602310699"><ele>25.0</ele><time>2026-05-01T12:28:17.999Z</time></trkpt><trkpt lat="39.63992982165833" lon="8.632545595743428"><ele>25.0</ele><time>2026-05-01T12:28:18.999Z</time></trkpt><trkpt lat="39.64003072975186" lon="8.632464154595722"><ele>25.0</ele><time>2026-05-01T12:28:19.999Z</time></trkpt><trkpt lat="39.640128691082076" lon="8.632366598990044"><ele>25.0</ele><time>2026-05-01T12:28:20.999Z</time></trkpt><trkpt lat="39.64023092881907" lon="8.63226265618914"><ele>25.0</ele><time>2026-05-01T12:28:21.999Z</time></trkpt><trkpt lat="39.64033172843632" lon="8.632146222486925"><ele>25.0</ele><time>2026-05-01T12:28:22.999Z</time></trkpt><trkpt lat="39.64042689134262" lon="8.632031132226983"><ele>25.0</ele><time>2026-05-01T12:28:23.999Z</time></trkpt><trkpt lat="39.64050671939561" lon="8.631919997836418"><ele>25.0</ele><time>2026-05-01T12:28:24.999Z</time></trkpt><trkpt lat="39.640561571750354" lon="8.631841958668076"><ele>25.0</ele><time>2026-05-01T12:28:25.999Z</time></trkpt><trkpt lat="39.640609726346405" lon="8.631772792450459"><ele>25.0</ele><time>2026-05-01T12:28:26.999Z</time></trkpt><trkpt lat="39.640700705097125" lon="8.631700409828847"><ele>25.0</ele><time>2026-05-01T12:28:27.999Z</time></trkpt><trkpt lat="39.64082475786592" lon="8.631630211455125"><ele>25.0</ele><time>2026-05-01T12:28:28.999Z</time></trkpt><trkpt lat="39.64096170387796" lon="8.631563792342794"><ele>25.0</ele><time>2026-05-01T12:28:29.999Z</time></trkpt><trkpt lat="39.641099435545755" lon="8.6315051416619"><ele>25.0</ele><time>2026-05-01T12:28:30.999Z</time></trkpt><trkpt lat="39.6412284006582" lon="8.63145067547172"><ele>25.0</ele><time>2026-05-01T12:28:31.999Z</time></trkpt><trkpt lat="39.64132915114919" lon="8.631368455342109"><ele>25.0</ele><time>2026-05-01T12:28:32.999Z</time></trkpt><trkpt lat="39.641415446058936" lon="8.631271027825031"><ele>25.0</ele><time>2026-05-01T12:28:33.999Z</time></trkpt><trkpt lat="39.641475367716886" lon="8.63116620760388"><ele>25.0</ele><time>2026-05-01T12:28:34.999Z</time></trkpt><trkpt lat="39.641514634867804" lon="8.631074905514522"><ele>25.0</ele><time>2026-05-01T12:28:35.999Z</time></trkpt><trkpt lat="39.64167833545653" lon="8.631067772731123"><ele>25.0</ele><time>2026-05-01T12:28:36.999Z</time></trkpt><trkpt lat="39.641817382821614" lon="8.63102937959862"><ele>25.0</ele><time>2026-05-01T12:28:37.999Z</time></trkpt><trkpt lat="39.64197199105149" lon="8.631003917450515"><ele>25.0</ele><time>2026-05-01T12:28:38.999Z</time></trkpt><trkpt lat="39.64214293846437" lon="8.630976190615126"><ele>25.0</ele><time>2026-05-01T12:28:39.999Z</time></trkpt><trkpt lat="39.64231644456548" lon="8.630939820565244"><ele>25.0</ele><time>2026-05-01T12:28:40.999Z</time></trkpt><trkpt lat="39.642494127974345" lon="8.630902711677265"><ele>25.0</ele><time>2026-05-01T12:28:41.999Z</time></trkpt><trkpt lat="39.64266517568705" lon="8.630870532149737"><ele>25.0</ele><time>2026-05-01T12:28:42.999Z</time></trkpt><trkpt lat="39.64281833511234" lon="8.630843181229434"><ele>25.0</ele><time>2026-05-01T12:28:44Z</time></trkpt><trkpt lat="39.64297485324239" lon="8.630816056785413"><ele>25.0</ele><time>2026-05-01T12:28:45Z</time></trkpt><trkpt lat="39.64313233795517" lon="8.630778860833896"><ele>25.0</ele><time>2026-05-01T12:28:46Z</time></trkpt><trkpt lat="39.6432889761628" lon="8.630719712256816"><ele>25.0</ele><time>2026-05-01T12:28:47Z</time></trkpt><trkpt lat="39.64344671170334" lon="8.630647731031305"><ele>25.0</ele><time>2026-05-01T12:28:48Z</time></trkpt><trkpt lat="39.64360379224618" lon="8.630574385775903"><ele>24.0</ele><time>2026-05-01T12:28:49Z</time></trkpt><trkpt lat="39.64376046511114" lon="8.630494370014958"><ele>23.0</ele><time>2026-05-01T12:28:50Z</time></trkpt><trkpt lat="39.64391427311842" lon="8.630416068692934"><ele>22.0</ele><time>2026-05-01T12:28:51Z</time></trkpt><trkpt lat="39.64406389990946" lon="8.63032570363782"><ele>22.0</ele><time>2026-05-01T12:28:52Z</time></trkpt><trkpt lat="39.64421097137557" lon="8.630218501921133"><ele>22.0</ele><time>2026-05-01T12:28:53Z</time></trkpt><trkpt lat="39.64435898499982" lon="8.630106933091374"><ele>22.0</ele><time>2026-05-01T12:28:54Z</time></trkpt><trkpt lat="39.64450790871271" lon="8.629999891602223"><ele>22.333333333333332</ele><time>2026-05-01T12:28:55Z</time></trkpt><trkpt lat="39.64466075553659" lon="8.629899660904032"><ele>22.666666666666668</ele><time>2026-05-01T12:28:56Z</time></trkpt><trkpt lat="39.644816007594635" lon="8.62981089826563"><ele>23.0</ele><time>2026-05-01T12:28:57Z</time></trkpt><trkpt lat="39.644963006900696" lon="8.62972086631697"><ele>23.0</ele><time>2026-05-01T12:28:58Z</time></trkpt><trkpt lat="39.64509772649521" lon="8.629595444227594"><ele>23.0</ele><time>2026-05-01T12:28:59Z</time></trkpt><trkpt lat="39.64522702191995" lon="8.629453558309287"><ele>23.0</ele><time>2026-05-01T12:29:00Z</time></trkpt><trkpt lat="39.645351764833656" lon="8.62930076496483"><ele>23.333333333333336</ele><time>2026-05-01T12:29:01Z</time></trkpt><trkpt lat="39.64548100669393" lon="8.62914673672443"><ele>23.666666666666668</ele><time>2026-05-01T12:29:02Z</time></trkpt><trkpt lat="39.645610597430604" lon="8.629004334890597"><ele>24.0</ele><time>2026-05-01T12:29:03Z</time></trkpt><trkpt lat="39.6457344588852" lon="8.628866682463304"><ele>24.0</ele><time>2026-05-01T12:29:04Z</time></trkpt><trkpt lat="39.645850818322344" lon="8.62872471083216"><ele>24.0</ele><time>2026-05-01T12:29:05Z</time></trkpt><trkpt lat="39.6459599341394" lon="8.628592794497722"><ele>24.0</ele><time>2026-05-01T12:29:06Z</time></trkpt><trkpt lat="39.64607541981877" lon="8.628478520050795"><ele>23.4</ele><time>2026-05-01T12:29:07Z</time></trkpt><trkpt lat="39.64618492922859" lon="8.628369258537152"><ele>22.799999999999997</ele><time>2026-05-01T12:29:08Z</time></trkpt><trkpt lat="39.64627597848326" lon="8.628280827417656"><ele>22.200000000000003</ele><time>2026-05-01T12:29:09Z</time></trkpt><trkpt lat="39.64633978223698" lon="8.628217060758383"><ele>21.6</ele><time>2026-05-01T12:29:10Z</time></trkpt><trkpt lat="39.64641063213235" lon="8.62811169278579"><ele>21.0</ele><time>2026-05-01T12:29:12Z</time></trkpt><trkpt lat="39.64642622433802" lon="8.627988791176286"><ele>21.0</ele><time>2026-05-01T12:29:14Z</time></trkpt><trkpt lat="39.64643523299851" lon="8.627880901588027"><ele>21.0</ele><time>2026-05-01T12:29:16Z</time></trkpt><trkpt lat="39.646481681634434" lon="8.627791108573906"><ele>21.0</ele><time>2026-05-01T12:29:18Z</time></trkpt><trkpt lat="39.64654489281143" lon="8.627764580338404"><ele>21.0</ele><time>2026-05-01T12:29:24Z</time></trkpt><trkpt lat="39.64666617092059" lon="8.627717570088791"><ele>21.0</ele><time>2026-05-01T12:29:26Z</time></trkpt><trkpt lat="39.64674279561241" lon="8.62770014362764"><ele>21.0</ele><time>2026-05-01T12:29:27Z</time></trkpt><trkpt lat="39.646826655662174" lon="8.62765870945436"><ele>21.200000000000003</ele><time>2026-05-01T12:29:28Z</time></trkpt><trkpt lat="39.646909358433646" lon="8.627599376592517"><ele>21.400000000000002</ele><time>2026-05-01T12:29:29Z</time></trkpt><trkpt lat="39.64699213362768" lon="8.627523762473414"><ele>21.6</ele><time>2026-05-01T12:29:30Z</time></trkpt><trkpt lat="39.64707292805507" lon="8.627433668714122"><ele>21.8</ele><time>2026-05-01T12:29:31Z</time></trkpt><trkpt lat="39.64713730099843" lon="8.627345736781301"><ele>22.0</ele><time>2026-05-01T12:29:32Z</time></trkpt><trkpt lat="39.64718560356668" lon="8.62726576584234"><ele>22.0</ele><time>2026-05-01T12:29:33Z</time></trkpt><trkpt lat="39.647225216697144" lon="8.627169739159395"><ele>22.0</ele><time>2026-05-01T12:29:34Z</time></trkpt><trkpt lat="39.647250193346125" lon="8.627063385585556"><ele>22.0</ele><time>2026-05-01T12:29:35Z</time></trkpt><trkpt lat="39.64727882871206" lon="8.626982409476536"><ele>22.0</ele><time>2026-05-01T12:29:38Z</time></trkpt><trkpt lat="39.64730344505214" lon="8.62687430744239"><ele>22.0</ele><time>2026-05-01T12:29:41Z</time></trkpt><trkpt lat="39.64737802684298" lon="8.626703932770985"><ele>22.0</ele><time>2026-05-01T12:29:43Z</time></trkpt><trkpt lat="39.6474372610686" lon="8.626601942869799"><ele>22.0</ele><time>2026-05-01T12:29:44Z</time></trkpt><trkpt lat="39.64750637867203" lon="8.626471130044717"><ele>22.0</ele><time>2026-05-01T12:29:45Z</time></trkpt><trkpt lat="39.64758102393537" lon="8.626323958959786"><ele>22.0</ele><time>2026-05-01T12:29:46Z</time></trkpt><trkpt lat="39.6476604893059" lon="8.626169903901543"><ele>22.0</ele><time>2026-05-01T12:29:47Z</time></trkpt><trkpt lat="39.64773965251616" lon="8.62600868952174"><ele>22.0</ele><time>2026-05-01T12:29:48Z</time></trkpt><trkpt lat="39.64781819765443" lon="8.62585233065895"><ele>22.0</ele><time>2026-05-01T12:29:49Z</time></trkpt><trkpt lat="39.64789493617887" lon="8.625699638875098"><ele>22.0</ele><time>2026-05-01T12:29:50Z</time></trkpt><trkpt lat="39.64797227291564" lon="8.625537412812117"><ele>22.0</ele><time>2026-05-01T12:29:51Z</time></trkpt><trkpt lat="39.64804940411845" lon="8.625368972064384"><ele>22.0</ele><time>2026-05-01T12:29:52Z</time></trkpt><trkpt lat="39.64812791031989" lon="8.625209046974547"><ele>22.0</ele><time>2026-05-01T12:29:53Z</time></trkpt><trkpt lat="39.6482061208274" lon="8.625050663130827"><ele>22.0</ele><time>2026-05-01T12:29:54Z</time></trkpt><trkpt lat="39.648286039679384" lon="8.624900664949317"><ele>22.0</ele><time>2026-05-01T12:29:55Z</time></trkpt><trkpt lat="39.64837143478287" lon="8.624768995618766"><ele>22.0</ele><time>2026-05-01T12:29:56Z</time></trkpt><trkpt lat="39.64846753698255" lon="8.62464662338167"><ele>22.0</ele><time>2026-05-01T12:29:57Z</time></trkpt><trkpt lat="39.64857323169227" lon="8.624528762444337"><ele>22.0</ele><time>2026-05-01T12:29:57.999Z</time></trkpt><trkpt lat="39.648688365783116" lon="8.624403129051617"><ele>21.75</ele><time>2026-05-01T12:29:58.999Z</time></trkpt><trkpt lat="39.64879693308804" lon="8.624263952920064"><ele>21.5</ele><time>2026-05-01T12:29:59.999Z</time></trkpt><trkpt lat="39.64889906778943" lon="8.624122610319986"><ele>21.25</ele><time>2026-05-01T12:30:00.999Z</time></trkpt><trkpt lat="39.64899709079714" lon="8.623984788317014"><ele>21.0</ele><time>2026-05-01T12:30:01.999Z</time></trkpt><trkpt lat="39.649087795304226" lon="8.623841643596979"><ele>21.0</ele><time>2026-05-01T12:30:02.999Z</time></trkpt><trkpt lat="39.649162939054186" lon="8.623692889098978"><ele>21.0</ele><time>2026-05-01T12:30:03.999Z</time></trkpt><trkpt lat="39.64922152007826" lon="8.623557706445403"><ele>21.0</ele><time>2026-05-01T12:30:04.999Z</time></trkpt><trkpt lat="39.64927504284963" lon="8.623436087616714"><ele>21.0</ele><time>2026-05-01T12:30:05.999Z</time></trkpt><trkpt lat="39.649326378072764" lon="8.623325991522794"><ele>21.0</ele><time>2026-05-01T12:30:06.999Z</time></trkpt><trkpt lat="39.649381326641134" lon="8.623206726770903"><ele>21.0</ele><time>2026-05-01T12:30:07.999Z</time></trkpt><trkpt lat="39.649442536034464" lon="8.623089889369643"><ele>21.0</ele><time>2026-05-01T12:30:08.999Z</time></trkpt><trkpt lat="39.64951065691043" lon="8.622969657614616"><ele>21.0</ele><time>2026-05-01T12:30:09.999Z</time></trkpt><trkpt lat="39.64958926260911" lon="8.622846817787822"><ele>21.0</ele><time>2026-05-01T12:30:10.999Z</time></trkpt><trkpt lat="39.64968027942224" lon="8.622718140054841"><ele>21.0</ele><time>2026-05-01T12:30:11.999Z</time></trkpt><trkpt lat="39.64977620829934" lon="8.622578885128803"><ele>21.0</ele><time>2026-05-01T12:30:12.999Z</time></trkpt><trkpt lat="39.64987598693845" lon="8.622435150531977"><ele>21.0</ele><time>2026-05-01T12:30:13.999Z</time></trkpt><trkpt lat="39.64997851555245" lon="8.622288077681294"><ele>21.0</ele><time>2026-05-01T12:30:14.999Z</time></trkpt><trkpt lat="39.65008578136267" lon="8.622135259215362"><ele>21.0</ele><time>2026-05-01T12:30:15.999Z</time></trkpt><trkpt lat="39.650194549489115" lon="8.621979719499103"><ele>21.0</ele><time>2026-05-01T12:30:16.999Z</time></trkpt><trkpt lat="39.650301502670985" lon="8.62181801735005"><ele>21.0</ele><time>2026-05-01T12:30:17.999Z</time></trkpt><trkpt lat="39.65040665763155" lon="8.621656321276678"><ele>21.0</ele><time>2026-05-01T12:30:18.999Z</time></trkpt><trkpt lat="39.65050991006785" lon="8.621496403245112"><ele>21.0</ele><time>2026-05-01T12:30:19.999Z</time></trkpt><trkpt lat="39.65061126636815" lon="8.621332678914781"><ele>21.0</ele><time>2026-05-01T12:30:20.999Z</time></trkpt><trkpt lat="39.650720263708486" lon="8.621166043712357"><ele>21.0</ele><time>2026-05-01T12:30:21.999Z</time></trkpt><trkpt lat="39.65083860944304" lon="8.620982996851895"><ele>21.0</ele><time>2026-05-01T12:30:22.999Z</time></trkpt><trkpt lat="39.65096740531271" lon="8.620792797433083"><ele>20.75</ele><time>2026-05-01T12:30:23.999Z</time></trkpt><trkpt lat="39.6510801850829" lon="8.620628998737581"><ele>20.5</ele><time>2026-05-01T12:30:24.999Z</time></trkpt><trkpt lat="39.6511664926669" lon="8.620486951840107"><ele>20.25</ele><time>2026-05-01T12:30:25.999Z</time></trkpt><trkpt lat="39.65124183242725" lon="8.620341251640355"><ele>20.0</ele><time>2026-05-01T12:30:26.999Z</time></trkpt><trkpt lat="39.65131833952579" lon="8.62018132535724"><ele>20.0</ele><time>2026-05-01T12:30:27.999Z</time></trkpt><trkpt lat="39.651398955748256" lon="8.619998991794652"><ele>20.0</ele><time>2026-05-01T12:30:28.999Z</time></trkpt><trkpt lat="39.651475790518184" lon="8.619832307247258"><ele>20.0</ele><time>2026-05-01T12:30:29.999Z</time></trkpt><trkpt lat="39.65154893366842" lon="8.619684878552025"><ele>20.0</ele><time>2026-05-01T12:30:30.999Z</time></trkpt><trkpt lat="39.651628370538404" lon="8.61956726876056"><ele>20.0</ele><time>2026-05-01T12:30:31.999Z</time></trkpt><trkpt lat="39.65172757714557" lon="8.619458627582437"><ele>20.0</ele><time>2026-05-01T12:30:32.999Z</time></trkpt><trkpt lat="39.65184134129511" lon="8.619355073948983"><ele>20.0</ele><time>2026-05-01T12:30:33.999Z</time></trkpt><trkpt lat="39.65196217584994" lon="8.619254532749036"><ele>20.0</ele><time>2026-05-01T12:30:34.999Z</time></trkpt><trkpt lat="39.65208994997294" lon="8.619146349704149"><ele>20.0</ele><time>2026-05-01T12:30:35.999Z</time></trkpt><trkpt lat="39.652201987416525" lon="8.619040894351437"><ele>20.0</ele><time>2026-05-01T12:30:36.999Z</time></trkpt><trkpt lat="39.652307711698825" lon="8.618920711833747"><ele>20.0</ele><time>2026-05-01T12:30:37.999Z</time></trkpt><trkpt lat="39.65242614373797" lon="8.618797786823668"><ele>20.0</ele><time>2026-05-01T12:30:38.999Z</time></trkpt><trkpt lat="39.65254935866943" lon="8.618669374751951"><ele>20.0</ele><time>2026-05-01T12:30:39.999Z</time></trkpt><trkpt lat="39.652657696963814" lon="8.618550039235807"><ele>20.0</ele><time>2026-05-01T12:30:40.999Z</time></trkpt><trkpt lat="39.65275539454776" lon="8.618441364617032"><ele>20.0</ele><time>2026-05-01T12:30:41.999Z</time></trkpt><trkpt lat="39.65285428668544" lon="8.618346905410245"><ele>20.0</ele><time>2026-05-01T12:30:42.999Z</time></trkpt><trkpt lat="39.652960234178444" lon="8.618244522493024"><ele>20.0</ele><time>2026-05-01T12:30:43.999Z</time></trkpt><trkpt lat="39.653075466280605" lon="8.618139346778369"><ele>20.0</ele><time>2026-05-01T12:30:44.999Z</time></trkpt><trkpt lat="39.65318239580609" lon="8.618040713914153"><ele>20.0</ele><time>2026-05-01T12:30:45.999Z</time></trkpt><trkpt lat="39.65327653892708" lon="8.617953192536321"><ele>20.0</ele><time>2026-05-01T12:30:46.999Z</time></trkpt><trkpt lat="39.653362114556174" lon="8.617861500878067"><ele>20.0</ele><time>2026-05-01T12:30:47.999Z</time></trkpt><trkpt lat="39.65345640050536" lon="8.617757288399675"><ele>20.0</ele><time>2026-05-01T12:30:48.999Z</time></trkpt><trkpt lat="39.65355658535912" lon="8.61765351661958"><ele>20.0</ele><time>2026-05-01T12:30:50Z</time></trkpt><trkpt lat="39.65366633116914" lon="8.617544826626583"><ele>20.0</ele><time>2026-05-01T12:30:51Z</time></trkpt><trkpt lat="39.65377549759351" lon="8.617432406441583"><ele>20.5</ele><time>2026-05-01T12:30:52Z</time></trkpt><trkpt lat="39.653886751175484" lon="8.617317891136592"><ele>21.0</ele><time>2026-05-01T12:30:53Z</time></trkpt><trkpt lat="39.65400078152889" lon="8.617195203443865"><ele>21.5</ele><time>2026-05-01T12:30:54Z</time></trkpt><trkpt lat="39.65411033232296" lon="8.61706389387689"><ele>22.0</ele><time>2026-05-01T12:30:55Z</time></trkpt><trkpt lat="39.654220976169164" lon="8.61692251283591"><ele>22.0</ele><time>2026-05-01T12:30:56Z</time></trkpt><trkpt lat="39.6543309770479" lon="8.61678068219887"><ele>22.0</ele><time>2026-05-01T12:30:57Z</time></trkpt><trkpt lat="39.65443782263993" lon="8.616631912191613"><ele>22.0</ele><time>2026-05-01T12:30:58Z</time></trkpt><trkpt lat="39.6545312661569" lon="8.616479796135492"><ele>22.0</ele><time>2026-05-01T12:30:59Z</time></trkpt><trkpt lat="39.65461128644613" lon="8.616344006666395"><ele>22.0</ele><time>2026-05-01T12:31:00Z</time></trkpt><trkpt lat="39.65468482821018" lon="8.616217090254905"><ele>22.0</ele><time>2026-05-01T12:31:01Z</time></trkpt><trkpt lat="39.65474144252365" lon="8.616090081461563"><ele>22.0</ele><time>2026-05-01T12:31:02Z</time></trkpt><trkpt lat="39.65477554231715" lon="8.615960607997712"><ele>22.0</ele><time>2026-05-01T12:31:03Z</time></trkpt><trkpt lat="39.654800766256514" lon="8.615802066162887"><ele>22.0</ele><time>2026-05-01T12:31:04Z</time></trkpt><trkpt lat="39.65483660378901" lon="8.615638694964861"><ele>22.0</ele><time>2026-05-01T12:31:05Z</time></trkpt><trkpt lat="39.65486651420517" lon="8.615471229368534"><ele>22.0</ele><time>2026-05-01T12:31:06Z</time></trkpt><trkpt lat="39.65489089818667" lon="8.615323503022452"><ele>22.0</ele><time>2026-05-01T12:31:07Z</time></trkpt><trkpt lat="39.654918357267164" lon="8.615191765682408"><ele>22.0</ele><time>2026-05-01T12:31:08Z</time></trkpt><trkpt lat="39.65495174971411" lon="8.615071339523492"><ele>22.0</ele><time>2026-05-01T12:31:09Z</time></trkpt><trkpt lat="39.655000116412886" lon="8.614964143380707"><ele>22.0</ele><time>2026-05-01T12:31:10Z</time></trkpt><trkpt lat="39.65506448170009" lon="8.614880395080473"><ele>22.0</ele><time>2026-05-01T12:31:11Z</time></trkpt><trkpt lat="39.65514543548584" lon="8.61478804082148"><ele>22.0</ele><time>2026-05-01T12:31:12Z</time></trkpt><trkpt lat="39.65523980461262" lon="8.614686663391367"><ele>22.0</ele><time>2026-05-01T12:31:13Z</time></trkpt><trkpt lat="39.65534140067479" lon="8.614573985194092"><ele>22.0</ele><time>2026-05-01T12:31:14Z</time></trkpt><trkpt lat="39.65545528535788" lon="8.614471134572497"><ele>22.0</ele><time>2026-05-01T12:31:15Z</time></trkpt><trkpt lat="39.65558328256745" lon="8.61435380916885"><ele>21.666666666666664</ele><time>2026-05-01T12:31:16Z</time></trkpt><trkpt lat="39.65571667289929" lon="8.614238324878807"><ele>21.333333333333332</ele><time>2026-05-01T12:31:17Z</time></trkpt><trkpt lat="39.65584848814758" lon="8.614104585817156"><ele>21.0</ele><time>2026-05-01T12:31:18Z</time></trkpt><trkpt lat="39.65596774719509" lon="8.61397965464106"><ele>21.0</ele><time>2026-05-01T12:31:19Z</time></trkpt><trkpt lat="39.65608937259356" lon="8.613852273935857"><ele>21.0</ele><time>2026-05-01T12:31:20Z</time></trkpt><trkpt lat="39.6562067927559" lon="8.613725783993724"><ele>21.0</ele><time>2026-05-01T12:31:21Z</time></trkpt><trkpt lat="39.65633030730061" lon="8.613600889808705"><ele>21.666666666666668</ele><time>2026-05-01T12:31:22Z</time></trkpt><trkpt lat="39.65644648090975" lon="8.6134842379392"><ele>22.333333333333336</ele><time>2026-05-01T12:31:23Z</time></trkpt><trkpt lat="39.656570325662656" lon="8.613364993633335"><ele>23.0</ele><time>2026-05-01T12:31:24Z</time></trkpt><trkpt lat="39.65669384054222" lon="8.613240081882351"><ele>23.0</ele><time>2026-05-01T12:31:25Z</time></trkpt><trkpt lat="39.656814724423576" lon="8.61311891404238"><ele>23.0</ele><time>2026-05-01T12:31:26Z</time></trkpt><trkpt lat="39.656938650589545" lon="8.612995645013342"><ele>23.0</ele><time>2026-05-01T12:31:27Z</time></trkpt><trkpt lat="39.65706978993105" lon="8.612874748303447"><ele>23.333333333333336</ele><time>2026-05-01T12:31:28Z</time></trkpt><trkpt lat="39.65720277202162" lon="8.612750044100519"><ele>23.666666666666668</ele><time>2026-05-01T12:31:29Z</time></trkpt><trkpt lat="39.657326664095976" lon="8.612630549150264"><ele>24.0</ele><time>2026-05-01T12:31:30Z</time></trkpt><trkpt lat="39.657436908647725" lon="8.612520544608156"><ele>24.0</ele><time>2026-05-01T12:31:31Z</time></trkpt><trkpt lat="39.6575517338607" lon="8.612404818505256"><ele>24.0</ele><time>2026-05-01T12:31:32Z</time></trkpt><trkpt lat="39.657666545475706" lon="8.612281800682167"><ele>24.0</ele><time>2026-05-01T12:31:33Z</time></trkpt><trkpt lat="39.65778318425888" lon="8.61216165879473"><ele>24.0</ele><time>2026-05-01T12:31:34Z</time></trkpt><trkpt lat="39.65790714535518" lon="8.612041558668626"><ele>23.333333333333332</ele><time>2026-05-01T12:31:35Z</time></trkpt><trkpt lat="39.65802551862611" lon="8.611920362545177"><ele>22.666666666666664</ele><time>2026-05-01T12:31:36Z</time></trkpt><trkpt lat="39.658142782439626" lon="8.61179319418434"><ele>22.0</ele><time>2026-05-01T12:31:37Z</time></trkpt><trkpt lat="39.65825907747814" lon="8.611663578907132"><ele>22.0</ele><time>2026-05-01T12:31:38Z</time></trkpt><trkpt lat="39.65836932570456" lon="8.611539511061357"><ele>22.0</ele><time>2026-05-01T12:31:39Z</time></trkpt><trkpt lat="39.65846749191745" lon="8.611429349248535"><ele>22.0</ele><time>2026-05-01T12:31:40Z</time></trkpt><trkpt lat="39.65855928635561" lon="8.6113168261318"><ele>22.0</ele><time>2026-05-01T12:31:41Z</time></trkpt><trkpt lat="39.658645386742364" lon="8.61121432417268"><ele>22.25</ele><time>2026-05-01T12:31:42Z</time></trkpt><trkpt lat="39.65873543502918" lon="8.611098482387089"><ele>22.5</ele><time>2026-05-01T12:31:43Z</time></trkpt><trkpt lat="39.658823013881026" lon="8.610971980885514"><ele>22.75</ele><time>2026-05-01T12:31:44Z</time></trkpt><trkpt lat="39.658904833336926" lon="8.610857990329349"><ele>23.0</ele><time>2026-05-01T12:31:45Z</time></trkpt><trkpt lat="39.65899371041853" lon="8.610747728048217"><ele>23.0</ele><time>2026-05-01T12:31:46Z</time></trkpt><trkpt lat="39.659087941298665" lon="8.610634735739014"><ele>23.0</ele><time>2026-05-01T12:31:47Z</time></trkpt><trkpt lat="39.659178755621284" lon="8.610510736575014"><ele>23.0</ele><time>2026-05-01T12:31:48Z</time></trkpt><trkpt lat="39.65927252253273" lon="8.61038763978992"><ele>23.0</ele><time>2026-05-01T12:31:49Z</time></trkpt><trkpt lat="39.65936583559754" lon="8.610278718240592"><ele>22.75</ele><time>2026-05-01T12:31:50Z</time></trkpt><trkpt lat="39.65945111908679" lon="8.61018247438728"><ele>22.5</ele><time>2026-05-01T12:31:51Z</time></trkpt><trkpt lat="39.659538911783564" lon="8.610061039442689"><ele>22.25</ele><time>2026-05-01T12:31:52Z</time></trkpt><trkpt lat="39.659616090427534" lon="8.609942081205883"><ele>22.0</ele><time>2026-05-01T12:31:53Z</time></trkpt><trkpt lat="39.65968406896058" lon="8.609828868072343"><ele>22.0</ele><time>2026-05-01T12:31:54Z</time></trkpt><trkpt lat="39.65975612802928" lon="8.609701147072178"><ele>22.0</ele><time>2026-05-01T12:31:55Z</time></trkpt><trkpt lat="39.65982587509528" lon="8.609567264626383"><ele>22.0</ele><time>2026-05-01T12:31:56Z</time></trkpt><trkpt lat="39.65989516015449" lon="8.609439309663609"><ele>22.0</ele><time>2026-05-01T12:31:57Z</time></trkpt><trkpt lat="39.65997134559259" lon="8.609329676766556"><ele>22.0</ele><time>2026-05-01T12:31:58Z</time></trkpt><trkpt lat="39.66006140490185" lon="8.609219439410571"><ele>22.0</ele><time>2026-05-01T12:31:59Z</time></trkpt><trkpt lat="39.66016374250514" lon="8.609114475163409"><ele>22.0</ele><time>2026-05-01T12:32:00Z</time></trkpt><trkpt lat="39.660276511260875" lon="8.608999637692742"><ele>22.0</ele><time>2026-05-01T12:32:01Z</time></trkpt><trkpt lat="39.660377956173484" lon="8.608890295411141"><ele>22.333333333333332</ele><time>2026-05-01T12:32:01.999Z</time></trkpt><trkpt lat="39.660492377719045" lon="8.60877162843731"><ele>22.666666666666668</ele><time>2026-05-01T12:32:02.999Z</time></trkpt><trkpt lat="39.66061681035388" lon="8.608650743695119"><ele>23.0</ele><time>2026-05-01T12:32:03.999Z</time></trkpt><trkpt lat="39.66073307097816" lon="8.60853173049397"><ele>23.25</ele><time>2026-05-01T12:32:04.999Z</time></trkpt><trkpt lat="39.660835022938066" lon="8.608422843472441"><ele>23.5</ele><time>2026-05-01T12:32:05.999Z</time></trkpt><trkpt lat="39.66093669522467" lon="8.60831647944672"><ele>23.75</ele><time>2026-05-01T12:32:06.999Z</time></trkpt><trkpt lat="39.66104690148942" lon="8.608197972087124"><ele>24.0</ele><time>2026-05-01T12:32:07.999Z</time></trkpt><trkpt lat="39.66115842952562" lon="8.60806821108745"><ele>24.333333333333336</ele><time>2026-05-01T12:32:08.999Z</time></trkpt><trkpt lat="39.661274039107326" lon="8.607941584196883"><ele>24.666666666666668</ele><time>2026-05-01T12:32:09.999Z</time></trkpt><trkpt lat="39.66140256728864" lon="8.607826849387525"><ele>25.0</ele><time>2026-05-01T12:32:10.999Z</time></trkpt><trkpt lat="39.661533539850204" lon="8.607723013064899"><ele>25.0</ele><time>2026-05-01T12:32:11.999Z</time></trkpt><trkpt lat="39.661656381153904" lon="8.607611711945552"><ele>25.0</ele><time>2026-05-01T12:32:12.999Z</time></trkpt><trkpt lat="39.661764337579136" lon="8.607480138821012"><ele>25.0</ele><time>2026-05-01T12:32:13.999Z</time></trkpt><trkpt lat="39.661861165271624" lon="8.607338669846577"><ele>25.0</ele><time>2026-05-01T12:32:14.999Z</time></trkpt><trkpt lat="39.661957926379706" lon="8.607204900975475"><ele>25.0</ele><time>2026-05-01T12:32:15.999Z</time></trkpt><trkpt lat="39.662055730092405" lon="8.60707954787695"><ele>25.0</ele><time>2026-05-01T12:32:16.999Z</time></trkpt><trkpt lat="39.662160049228575" lon="8.606961992767756"><ele>25.0</ele><time>2026-05-01T12:32:17.999Z</time></trkpt><trkpt lat="39.662269964411145" lon="8.606851234538638"><ele>25.0</ele><time>2026-05-01T12:32:18.999Z</time></trkpt><trkpt lat="39.662381541801345" lon="8.606738761606323"><ele>25.0</ele><time>2026-05-01T12:32:19.999Z</time></trkpt><trkpt lat="39.66249371408009" lon="8.606621443346798"><ele>25.0</ele><time>2026-05-01T12:32:20.999Z</time></trkpt><trkpt lat="39.66260507715489" lon="8.606510088711211"><ele>25.0</ele><time>2026-05-01T12:32:21.999Z</time></trkpt><trkpt lat="39.66271707960577" lon="8.606418082101289"><ele>25.0</ele><time>2026-05-01T12:32:22.999Z</time></trkpt><trkpt lat="39.6628368930303" lon="8.606328563687399"><ele>25.0</ele><time>2026-05-01T12:32:23.999Z</time></trkpt><trkpt lat="39.662967018162405" lon="8.606243641755858"><ele>25.0</ele><time>2026-05-01T12:32:24.999Z</time></trkpt><trkpt lat="39.66309334643182" lon="8.606170761490377"><ele>25.0</ele><time>2026-05-01T12:32:25.999Z</time></trkpt><trkpt lat="39.66320923719202" lon="8.606102195903366"><ele>25.0</ele><time>2026-05-01T12:32:26.999Z</time></trkpt><trkpt lat="39.66333094986182" lon="8.60603615188576"><ele>25.0</ele><time>2026-05-01T12:32:27.999Z</time></trkpt><trkpt lat="39.66345364160588" lon="8.605983114790195"><ele>25.0</ele><time>2026-05-01T12:32:28.999Z</time></trkpt><trkpt lat="39.66356607005517" lon="8.605947438796512"><ele>25.0</ele><time>2026-05-01T12:32:29.999Z</time></trkpt><trkpt lat="39.66365966649618" lon="8.60590535764237"><ele>25.0</ele><time>2026-05-01T12:32:30.999Z</time></trkpt><trkpt lat="39.66373888803783" lon="8.605853904022277"><ele>25.0</ele><time>2026-05-01T12:32:31.999Z</time></trkpt><trkpt lat="39.66381376276408" lon="8.60577342733708"><ele>24.75</ele><time>2026-05-01T12:32:32.999Z</time></trkpt><trkpt lat="39.66391635352734" lon="8.605709779387482"><ele>24.5</ele><time>2026-05-01T12:32:33.999Z</time></trkpt><trkpt lat="39.664012790811555" lon="8.605618943011914"><ele>24.25</ele><time>2026-05-01T12:32:34.999Z</time></trkpt><trkpt lat="39.66410971702171" lon="8.605516428981742"><ele>24.0</ele><time>2026-05-01T12:32:35.999Z</time></trkpt><trkpt lat="39.66421907831236" lon="8.60541798826836"><ele>23.75</ele><time>2026-05-01T12:32:36.999Z</time></trkpt><trkpt lat="39.66434270697705" lon="8.605327473667879"><ele>23.5</ele><time>2026-05-01T12:32:37.999Z</time></trkpt><trkpt lat="39.664467461576734" lon="8.605235958726842"><ele>23.25</ele><time>2026-05-01T12:32:38.999Z</time></trkpt><trkpt lat="39.66458665412575" lon="8.605134499949477"><ele>23.0</ele><time>2026-05-01T12:32:39.999Z</time></trkpt><trkpt lat="39.6647013795786" lon="8.605029236061911"><ele>23.0</ele><time>2026-05-01T12:32:40.999Z</time></trkpt><trkpt lat="39.66480669801229" lon="8.604928520282554"><ele>23.0</ele><time>2026-05-01T12:32:41.999Z</time></trkpt><trkpt lat="39.66490393567065" lon="8.604826686147508"><ele>23.0</ele><time>2026-05-01T12:32:42.999Z</time></trkpt><trkpt lat="39.66501085797468" lon="8.604714623251438"><ele>23.0</ele><time>2026-05-01T12:32:43.999Z</time></trkpt><trkpt lat="39.66512583926589" lon="8.604618987737805"><ele>23.0</ele><time>2026-05-01T12:32:44.999Z</time></trkpt><trkpt lat="39.6652555668631" lon="8.604548009973398"><ele>23.0</ele><time>2026-05-01T12:32:45.999Z</time></trkpt><trkpt lat="39.66536966708587" lon="8.604495419756995"><ele>23.0</ele><time>2026-05-01T12:32:46.999Z</time></trkpt><trkpt lat="39.66546581475575" lon="8.604441593758443"><ele>23.0</ele><time>2026-05-01T12:32:47.999Z</time></trkpt><trkpt lat="39.66553709027744" lon="8.604395265539962"><ele>23.0</ele><time>2026-05-01T12:32:48.999Z</time></trkpt><trkpt lat="39.66561328093124" lon="8.60433989103809"><ele>23.2</ele><time>2026-05-01T12:32:50.999Z</time></trkpt><trkpt lat="39.6656057065081" lon="8.604247145206118"><ele>23.4</ele><time>2026-05-01T12:32:52.999Z</time></trkpt><trkpt lat="39.66548811687104" lon="8.604161181903955"><ele>23.599999999999998</ele><time>2026-05-01T12:32:54.999Z</time></trkpt><trkpt lat="39.66539157060618" lon="8.604110857023734"><ele>23.799999999999997</ele><time>2026-05-01T12:32:56Z</time></trkpt><trkpt lat="39.665291568866344" lon="8.603998902745932"><ele>24.0</ele><time>2026-05-01T12:32:57Z</time></trkpt><trkpt lat="39.665164069448664" lon="8.603906871705034"><ele>24.0</ele><time>2026-05-01T12:32:58Z</time></trkpt><trkpt lat="39.66503391351347" lon="8.603819076576457"><ele>24.0</ele><time>2026-05-01T12:32:59Z</time></trkpt><trkpt lat="39.66491093105003" lon="8.603736372215392"><ele>24.0</ele><time>2026-05-01T12:33:00Z</time></trkpt><trkpt lat="39.6648051311007" lon="8.60366745712721"><ele>24.0</ele><time>2026-05-01T12:33:01Z</time></trkpt><trkpt lat="39.6647104600815" lon="8.603599039210032"><ele>24.0</ele><time>2026-05-01T12:33:02Z</time></trkpt><trkpt lat="39.66462105027221" lon="8.60352117396897"><ele>24.0</ele><time>2026-05-01T12:33:03Z</time></trkpt><trkpt lat="39.66452819069261" lon="8.603423766680727"><ele>24.0</ele><time>2026-05-01T12:33:04Z</time></trkpt><trkpt lat="39.66443481330953" lon="8.6033158918702"><ele>24.0</ele><time>2026-05-01T12:33:05Z</time></trkpt><trkpt lat="39.664337973251236" lon="8.603196557398824"><ele>24.333333333333336</ele><time>2026-05-01T12:33:06Z</time></trkpt><trkpt lat="39.664218081335456" lon="8.603100221998496"><ele>24.666666666666668</ele><time>2026-05-01T12:33:07Z</time></trkpt><trkpt lat="39.66409055693027" lon="8.603001496116782"><ele>25.0</ele><time>2026-05-01T12:33:08Z</time></trkpt><trkpt lat="39.66395421576688" lon="8.60289110694807"><ele>25.0</ele><time>2026-05-01T12:33:09Z</time></trkpt><trkpt lat="39.663808357699665" lon="8.602783848261119"><ele>25.0</ele><time>2026-05-01T12:33:10Z</time></trkpt><trkpt lat="39.663651955126795" lon="8.602668066655205"><ele>25.0</ele><time>2026-05-01T12:33:11Z</time></trkpt><trkpt lat="39.66347074403836" lon="8.602547059267348"><ele>25.0</ele><time>2026-05-01T12:33:12Z</time></trkpt><trkpt lat="39.663277937838" lon="8.602429339562184"><ele>25.0</ele><time>2026-05-01T12:33:13Z</time></trkpt><trkpt lat="39.66308949016149" lon="8.602322632960407"><ele>25.0</ele><time>2026-05-01T12:33:14Z</time></trkpt><trkpt lat="39.66292881198604" lon="8.602228466422652"><ele>25.0</ele><time>2026-05-01T12:33:15Z</time></trkpt><trkpt lat="39.66278508544154" lon="8.602139216413345"><ele>25.0</ele><time>2026-05-01T12:33:16Z</time></trkpt><trkpt lat="39.66266050687728" lon="8.602059037637602"><ele>25.0</ele><time>2026-05-01T12:33:17Z</time></trkpt><trkpt lat="39.66254154633456" lon="8.601976599404207"><ele>25.0</ele><time>2026-05-01T12:33:18Z</time></trkpt><trkpt lat="39.662427168410055" lon="8.601878293520688"><ele>25.5</ele><time>2026-05-01T12:33:19Z</time></trkpt><trkpt lat="39.66231442201842" lon="8.601772007368265"><ele>26.0</ele><time>2026-05-01T12:33:20Z</time></trkpt><trkpt lat="39.662206255751705" lon="8.60166775196879"><ele>26.5</ele><time>2026-05-01T12:33:21Z</time></trkpt><trkpt lat="39.6621031661212" lon="8.601583236592358"><ele>27.0</ele><time>2026-05-01T12:33:22Z</time></trkpt><trkpt lat="39.6619959499441" lon="8.601512267237014"><ele>27.25</ele><time>2026-05-01T12:33:23Z</time></trkpt><trkpt lat="39.66187124534219" lon="8.601457435808022"><ele>27.5</ele><time>2026-05-01T12:33:24Z</time></trkpt><trkpt lat="39.661736037709915" lon="8.60143203794957"><ele>27.75</ele><time>2026-05-01T12:33:25Z</time></trkpt><trkpt lat="39.661603126919175" lon="8.60141553094423"><ele>28.0</ele><time>2026-05-01T12:33:26Z</time></trkpt><trkpt lat="39.661484603538106" lon="8.601399306815027"><ele>28.0</ele><time>2026-05-01T12:33:27Z</time></trkpt><trkpt lat="39.66137181189413" lon="8.601366688972734"><ele>28.0</ele><time>2026-05-01T12:33:28Z</time></trkpt><trkpt lat="39.66125259814895" lon="8.601290480208318"><ele>28.0</ele><time>2026-05-01T12:33:29Z</time></trkpt><trkpt lat="39.66110639605376" lon="8.60119995659175"><ele>28.0</ele><time>2026-05-01T12:33:30Z</time></trkpt><trkpt lat="39.66094574957994" lon="8.601100489478943"><ele>28.666666666666668</ele><time>2026-05-01T12:33:31Z</time></trkpt><trkpt lat="39.66077943234772" lon="8.601001773861896"><ele>29.333333333333336</ele><time>2026-05-01T12:33:32Z</time></trkpt><trkpt lat="39.66061053927134" lon="8.600901589558541"><ele>30.0</ele><time>2026-05-01T12:33:33Z</time></trkpt><trkpt lat="39.66045839112801" lon="8.600811338045768"><ele>30.0</ele><time>2026-05-01T12:33:34Z</time></trkpt><trkpt lat="39.660330041714474" lon="8.600733690620636"><ele>30.0</ele><time>2026-05-01T12:33:35Z</time></trkpt><trkpt lat="39.660215426485735" lon="8.600659498080653"><ele>30.0</ele><time>2026-05-01T12:33:36Z</time></trkpt><trkpt lat="39.66010708249688" lon="8.600574323993445"><ele>30.0</ele><time>2026-05-01T12:33:37Z</time></trkpt><trkpt lat="39.66000289427267" lon="8.600461495274786"><ele>30.0</ele><time>2026-05-01T12:33:38Z</time></trkpt><trkpt lat="39.65987587719478" lon="8.600361577605314"><ele>30.0</ele><time>2026-05-01T12:33:39Z</time></trkpt><trkpt lat="39.65973820872457" lon="8.60026958237896"><ele>30.0</ele><time>2026-05-01T12:33:40Z</time></trkpt><trkpt lat="39.659584840427726" lon="8.600176871815517"><ele>31.0</ele><time>2026-05-01T12:33:41Z</time></trkpt><trkpt lat="39.659426226928844" lon="8.600088514661827"><ele>32.0</ele><time>2026-05-01T12:33:42Z</time></trkpt><trkpt lat="39.65926769997998" lon="8.600013040167811"><ele>33.0</ele><time>2026-05-01T12:33:43Z</time></trkpt><trkpt lat="39.6591277475769" lon="8.599952957768975"><ele>33.0</ele><time>2026-05-01T12:33:44Z</time></trkpt><trkpt lat="39.658998105131005" lon="8.599897301510076"><ele>33.0</ele><time>2026-05-01T12:33:45Z</time></trkpt><trkpt lat="39.6588792890818" lon="8.599844254457667"><ele>33.0</ele><time>2026-05-01T12:33:46Z</time></trkpt><trkpt lat="39.65876589756965" lon="8.599775813189387"><ele>33.0</ele><time>2026-05-01T12:33:47Z</time></trkpt><trkpt lat="39.6586435426793" lon="8.599668639081637"><ele>33.0</ele><time>2026-05-01T12:33:48Z</time></trkpt><trkpt lat="39.65850336433609" lon="8.599563637008039"><ele>33.0</ele><time>2026-05-01T12:33:49Z</time></trkpt><trkpt lat="39.65836362604793" lon="8.599461816575339"><ele>33.0</ele><time>2026-05-01T12:33:50Z</time></trkpt><trkpt lat="39.65823527305708" lon="8.599366242282168"><ele>33.0</ele><time>2026-05-01T12:33:51Z</time></trkpt><trkpt lat="39.65812026165583" lon="8.599271001093435"><ele>33.0</ele><time>2026-05-01T12:33:52Z</time></trkpt><trkpt lat="39.65801645155265" lon="8.599181448239923"><ele>33.0</ele><time>2026-05-01T12:33:53Z</time></trkpt><trkpt lat="39.657926610244445" lon="8.599082536499118"><ele>33.0</ele><time>2026-05-01T12:33:54Z</time></trkpt><trkpt lat="39.657849783278614" lon="8.59895615358168"><ele>33.25</ele><time>2026-05-01T12:33:55Z</time></trkpt><trkpt lat="39.65775642774133" lon="8.598820188137362"><ele>33.5</ele><time>2026-05-01T12:33:56Z</time></trkpt><trkpt lat="39.65768337826936" lon="8.598675054305954"><ele>33.75</ele><time>2026-05-01T12:33:57Z</time></trkpt><trkpt lat="39.657620216913" lon="8.598547740210329"><ele>34.0</ele><time>2026-05-01T12:33:58Z</time></trkpt><trkpt lat="39.65757097282122" lon="8.598396163053463"><ele>34.0</ele><time>2026-05-01T12:33:59Z</time></trkpt><trkpt lat="39.65750880518374" lon="8.598244999074371"><ele>34.0</ele><time>2026-05-01T12:34:00Z</time></trkpt><trkpt lat="39.65743436775102" lon="8.598097369531425"><ele>34.0</ele><time>2026-05-01T12:34:01Z</time></trkpt><trkpt lat="39.6573685147492" lon="8.597936728185784"><ele>34.0</ele><time>2026-05-01T12:34:02Z</time></trkpt><trkpt lat="39.65727938816531" lon="8.597778320478294"><ele>34.0</ele><time>2026-05-01T12:34:03Z</time></trkpt><trkpt lat="39.65717607207016" lon="8.597625774764374"><ele>34.0</ele><time>2026-05-01T12:34:03.999Z</time></trkpt><trkpt lat="39.65708597435926" lon="8.597451198076772"><ele>34.0</ele><time>2026-05-01T12:34:04.999Z</time></trkpt><trkpt lat="39.656981107994675" lon="8.597293228580767"><ele>34.0</ele><time>2026-05-01T12:34:05.999Z</time></trkpt><trkpt lat="39.65688477329058" lon="8.597141436798616"><ele>34.0</ele><time>2026-05-01T12:34:06.999Z</time></trkpt><trkpt lat="39.656802328657555" lon="8.597006703570743"><ele>34.0</ele><time>2026-05-01T12:34:07.999Z</time></trkpt><trkpt lat="39.65672595513017" lon="8.5968815632303"><ele>34.0</ele><time>2026-05-01T12:34:08.999Z</time></trkpt><trkpt lat="39.65665542435561" lon="8.596764119512141"><ele>34.2</ele><time>2026-05-01T12:34:09.999Z</time></trkpt><trkpt lat="39.656592049898784" lon="8.596653780055336"><ele>34.4</ele><time>2026-05-01T12:34:10.999Z</time></trkpt><trkpt lat="39.65653484836212" lon="8.596554188096851"><ele>34.6</ele><time>2026-05-01T12:34:11.999Z</time></trkpt><trkpt lat="39.65647970335975" lon="8.596468863574948"><ele>34.8</ele><time>2026-05-01T12:34:12.999Z</time></trkpt><trkpt lat="39.656403920377514" lon="8.596377875392449"><ele>35.0</ele><time>2026-05-01T12:34:14.999Z</time></trkpt><trkpt lat="39.65634072261419" lon="8.596317776372754"><ele>35.0</ele><time>2026-05-01T12:34:16.999Z</time></trkpt><trkpt lat="39.65643997343143" lon="8.596204568342424"><ele>35.0</ele><time>2026-05-01T12:34:19.999Z</time></trkpt><trkpt lat="39.656522899635696" lon="8.59611935169224"><ele>35.0</ele><time>2026-05-01T12:34:20.999Z</time></trkpt><trkpt lat="39.65660969216807" lon="8.596019152579766"><ele>35.0</ele><time>2026-05-01T12:34:21.999Z</time></trkpt><trkpt lat="39.6566938281208" lon="8.595919953487387"><ele>35.25</ele><time>2026-05-01T12:34:22.999Z</time></trkpt><trkpt lat="39.656790854571575" lon="8.595815307310144"><ele>35.5</ele><time>2026-05-01T12:34:23.999Z</time></trkpt><trkpt lat="39.65690001150576" lon="8.595702700581045"><ele>35.75</ele><time>2026-05-01T12:34:24.999Z</time></trkpt><trkpt lat="39.657007981260854" lon="8.595588343058782"><ele>36.0</ele><time>2026-05-01T12:34:25.999Z</time></trkpt><trkpt lat="39.65711643448867" lon="8.595466338144144"><ele>35.666666666666664</ele><time>2026-05-01T12:34:26.999Z</time></trkpt><trkpt lat="39.65723395967964" lon="8.595334135984169"><ele>35.33333333333333</ele><time>2026-05-01T12:34:27.999Z</time></trkpt><trkpt lat="39.657358315075726" lon="8.595197899325186"><ele>35.0</ele><time>2026-05-01T12:34:28.999Z</time></trkpt><trkpt lat="39.65748589978931" lon="8.595060283353048"><ele>35.0</ele><time>2026-05-01T12:34:29.999Z</time></trkpt><trkpt lat="39.65761134359939" lon="8.594928538014422"><ele>35.0</ele><time>2026-05-01T12:34:30.999Z</time></trkpt><trkpt lat="39.6577359235119" lon="8.594800495733868"><ele>35.0</ele><time>2026-05-01T12:34:31.999Z</time></trkpt><trkpt lat="39.65786098032806" lon="8.594671365020577"><ele>34.666666666666664</ele><time>2026-05-01T12:34:32.999Z</time></trkpt><trkpt lat="39.65798389091024" lon="8.594538716269112"><ele>34.333333333333336</ele><time>2026-05-01T12:34:33.999Z</time></trkpt><trkpt lat="39.658109584048304" lon="8.594405211238607"><ele>34.0</ele><time>2026-05-01T12:34:34.999Z</time></trkpt><trkpt lat="39.65823265892168" lon="8.594266454207364"><ele>34.66666666666667</ele><time>2026-05-01T12:34:35.999Z</time></trkpt><trkpt lat="39.658356292106056" lon="8.594133275562486"><ele>35.333333333333336</ele><time>2026-05-01T12:34:36.999Z</time></trkpt><trkpt lat="39.658484060755335" lon="8.594000344073217"><ele>36.0</ele><time>2026-05-01T12:34:37.999Z</time></trkpt><trkpt lat="39.65860866530076" lon="8.593872285743798"><ele>36.5</ele><time>2026-05-01T12:34:38.999Z</time></trkpt><trkpt lat="39.65873310378696" lon="8.593759642251504"><ele>37.0</ele><time>2026-05-01T12:34:39.999Z</time></trkpt><trkpt lat="39.65884674368046" lon="8.593662674770364"><ele>37.5</ele><time>2026-05-01T12:34:40.999Z</time></trkpt><trkpt lat="39.658959799989894" lon="8.593593505385416"><ele>38.0</ele><time>2026-05-01T12:34:41.999Z</time></trkpt><trkpt lat="39.6590565816793" lon="8.593549494636896"><ele>38.199999999999996</ele><time>2026-05-01T12:34:42.999Z</time></trkpt><trkpt lat="39.659121135952816" lon="8.593510391409254"><ele>38.4</ele><time>2026-05-01T12:34:43.999Z</time></trkpt><trkpt lat="39.6591212577393" lon="8.593319491301994"><ele>38.599999999999994</ele><time>2026-05-01T12:34:46.999Z</time></trkpt><trkpt lat="39.65907788010087" lon="8.593225924545946"><ele>38.8</ele><time>2026-05-01T12:34:47.999Z</time></trkpt><trkpt lat="39.659041055798475" lon="8.593108109559127"><ele>39.0</ele><time>2026-05-01T12:34:48.999Z</time></trkpt><trkpt lat="39.65899269736946" lon="8.592966251683197"><ele>39.25</ele><time>2026-05-01T12:34:49.999Z</time></trkpt><trkpt lat="39.65894358452635" lon="8.592805320551726"><ele>39.5</ele><time>2026-05-01T12:34:50.999Z</time></trkpt><trkpt lat="39.658885956765694" lon="8.592633244308802"><ele>39.75</ele><time>2026-05-01T12:34:51.999Z</time></trkpt><trkpt lat="39.65882898621802" lon="8.592446342075746"><ele>40.0</ele><time>2026-05-01T12:34:52.999Z</time></trkpt><trkpt lat="39.65877378986519" lon="8.592262533998044"><ele>40.0</ele><time>2026-05-01T12:34:53.999Z</time></trkpt><trkpt lat="39.65871703928582" lon="8.592067946639805"><ele>40.0</ele><time>2026-05-01T12:34:54.999Z</time></trkpt><trkpt lat="39.658655779324356" lon="8.591859595914197"><ele>40.0</ele><time>2026-05-01T12:34:55.999Z</time></trkpt><trkpt lat="39.65859007059729" lon="8.591649188000968"><ele>39.66666666666667</ele><time>2026-05-01T12:34:56.999Z</time></trkpt><trkpt lat="39.65852009338614" lon="8.591437477369572"><ele>39.333333333333336</ele><time>2026-05-01T12:34:57.999Z</time></trkpt><trkpt lat="39.65844850481328" lon="8.591224375759658"><ele>39.0</ele><time>2026-05-01T12:34:58.999Z</time></trkpt><trkpt lat="39.65837629029513" lon="8.59100915047407"><ele>39.666666666666664</ele><time>2026-05-01T12:34:59.999Z</time></trkpt><trkpt lat="39.658307424103945" lon="8.590793597316303"><ele>40.33333333333333</ele><time>2026-05-01T12:35:00.999Z</time></trkpt><trkpt lat="39.65824520677389" lon="8.59057156630178"><ele>41.0</ele><time>2026-05-01T12:35:02Z</time></trkpt><trkpt lat="39.65818699590411" lon="8.590348736747417"><ele>41.33333333333333</ele><time>2026-05-01T12:35:03Z</time></trkpt><trkpt lat="39.658131919152794" lon="8.590122801455234"><ele>41.666666666666664</ele><time>2026-05-01T12:35:04Z</time></trkpt><trkpt lat="39.65807784950542" lon="8.589886128101453"><ele>42.0</ele><time>2026-05-01T12:35:05Z</time></trkpt><trkpt lat="39.65802212775434" lon="8.589646873048718"><ele>42.333333333333336</ele><time>2026-05-01T12:35:06Z</time></trkpt><trkpt lat="39.657962152619966" lon="8.58940365365641"><ele>42.66666666666667</ele><time>2026-05-01T12:35:07Z</time></trkpt><trkpt lat="39.65790082256716" lon="8.589163390095164"><ele>43.0</ele><time>2026-05-01T12:35:08Z</time></trkpt><trkpt lat="39.65784322713101" lon="8.588916992078486"><ele>43.66666666666667</ele><time>2026-05-01T12:35:09Z</time></trkpt><trkpt lat="39.6577856554907" lon="8.588671557770402"><ele>44.333333333333336</ele><time>2026-05-01T12:35:10Z</time></trkpt><trkpt lat="39.65772805682662" lon="8.588427324730903"><ele>45.0</ele><time>2026-05-01T12:35:11Z</time></trkpt><trkpt lat="39.657667755955984" lon="8.588186550039945"><ele>44.333333333333336</ele><time>2026-05-01T12:35:12Z</time></trkpt><trkpt lat="39.65760036981976" lon="8.587948096919776"><ele>43.66666666666667</ele><time>2026-05-01T12:35:13Z</time></trkpt><trkpt lat="39.6575207558564" lon="8.587714589536029"><ele>43.0</ele><time>2026-05-01T12:35:14Z</time></trkpt><trkpt lat="39.657436394995656" lon="8.587488068333023"><ele>43.0</ele><time>2026-05-01T12:35:15Z</time></trkpt><trkpt lat="39.657351797802285" lon="8.587271571273758"><ele>43.0</ele><time>2026-05-01T12:35:16Z</time></trkpt><trkpt lat="39.657271339876246" lon="8.587046968130943"><ele>43.0</ele><time>2026-05-01T12:35:17Z</time></trkpt><trkpt lat="39.65719950068419" lon="8.58683384254929"><ele>43.333333333333336</ele><time>2026-05-01T12:35:18Z</time></trkpt><trkpt lat="39.6571376144614" lon="8.586637177314797"><ele>43.666666666666664</ele><time>2026-05-01T12:35:19Z</time></trkpt><trkpt lat="39.65710069827193" lon="8.586429410510778"><ele>44.0</ele><time>2026-05-01T12:35:20Z</time></trkpt><trkpt lat="39.65709236549177" lon="8.58621178973267"><ele>44.666666666666664</ele><time>2026-05-01T12:35:21Z</time></trkpt><trkpt lat="39.657090928729524" lon="8.585989624251074"><ele>45.333333333333336</ele><time>2026-05-01T12:35:22Z</time></trkpt><trkpt lat="39.65708613287176" lon="8.585766402130277"><ele>46.0</ele><time>2026-05-01T12:35:23Z</time></trkpt><trkpt lat="39.65707797681443" lon="8.585542666350687"><ele>46.0</ele><time>2026-05-01T12:35:24Z</time></trkpt><trkpt lat="39.65707032222798" lon="8.58531880674361"><ele>46.0</ele><time>2026-05-01T12:35:25Z</time></trkpt><trkpt lat="39.657064152975906" lon="8.585090717395747"><ele>46.0</ele><time>2026-05-01T12:35:26Z</time></trkpt><trkpt lat="39.6570591986327" lon="8.584867585453235"><ele>46.0</ele><time>2026-05-01T12:35:27Z</time></trkpt><trkpt lat="39.65705283785716" lon="8.584666213257574"><ele>46.0</ele><time>2026-05-01T12:35:28Z</time></trkpt><trkpt lat="39.657039096783244" lon="8.584488190224572"><ele>46.0</ele><time>2026-05-01T12:35:29Z</time></trkpt><trkpt lat="39.65699673445313" lon="8.584325401965394"><ele>46.0</ele><time>2026-05-01T12:35:30Z</time></trkpt><trkpt lat="39.656920141147644" lon="8.584181435690567"><ele>46.25</ele><time>2026-05-01T12:35:31Z</time></trkpt><trkpt lat="39.65682518775315" lon="8.584071492539916"><ele>46.5</ele><time>2026-05-01T12:35:32Z</time></trkpt><trkpt lat="39.656754494099204" lon="8.583948326911056"><ele>46.75</ele><time>2026-05-01T12:35:33Z</time></trkpt><trkpt lat="39.656723583248315" lon="8.583795881220583"><ele>47.0</ele><time>2026-05-01T12:35:34Z</time></trkpt><trkpt lat="39.65673568016754" lon="8.583648163940119"><ele>47.0</ele><time>2026-05-01T12:35:35Z</time></trkpt><trkpt lat="39.656739077914146" lon="8.583483030628603"><ele>47.0</ele><time>2026-05-01T12:35:36Z</time></trkpt><trkpt lat="39.65673256703137" lon="8.583335838796724"><ele>47.0</ele><time>2026-05-01T12:35:37Z</time></trkpt><trkpt lat="39.65670094058456" lon="8.583195211990807"><ele>47.0</ele><time>2026-05-01T12:35:38Z</time></trkpt><trkpt lat="39.656633042642106" lon="8.58305283685552"><ele>47.0</ele><time>2026-05-01T12:35:39Z</time></trkpt><trkpt lat="39.6565329268291" lon="8.582923154276484"><ele>47.0</ele><time>2026-05-01T12:35:40Z</time></trkpt><trkpt lat="39.65643852981907" lon="8.582776574579533"><ele>47.0</ele><time>2026-05-01T12:35:41Z</time></trkpt><trkpt lat="39.656327662811115" lon="8.58263379335593"><ele>47.0</ele><time>2026-05-01T12:35:42Z</time></trkpt><trkpt lat="39.65621394192556" lon="8.582482060719313"><ele>47.0</ele><time>2026-05-01T12:35:43Z</time></trkpt><trkpt lat="39.65609421927365" lon="8.582321156501154"><ele>47.0</ele><time>2026-05-01T12:35:44Z</time></trkpt><trkpt lat="39.655976897886866" lon="8.58216142650856"><ele>47.0</ele><time>2026-05-01T12:35:45Z</time></trkpt><trkpt lat="39.6558555079736" lon="8.582026352080666"><ele>47.666666666666664</ele><time>2026-05-01T12:35:46Z</time></trkpt><trkpt lat="39.65577632269418" lon="8.58184318580779"><ele>48.33333333333333</ele><time>2026-05-01T12:35:47Z</time></trkpt><trkpt lat="39.65570758036064" lon="8.58164653715237"><ele>49.0</ele><time>2026-05-01T12:35:48Z</time></trkpt><trkpt lat="39.65563561026841" lon="8.581452933078035"><ele>49.0</ele><time>2026-05-01T12:35:49Z</time></trkpt><trkpt lat="39.65556751288077" lon="8.581261645734697"><ele>49.0</ele><time>2026-05-01T12:35:50Z</time></trkpt><trkpt lat="39.65552443330763" lon="8.581065289185634"><ele>49.0</ele><time>2026-05-01T12:35:51Z</time></trkpt><trkpt lat="39.65550328748683" lon="8.580855649375978"><ele>50.0</ele><time>2026-05-01T12:35:52Z</time></trkpt><trkpt lat="39.65550073147011" lon="8.58063902266384"><ele>51.0</ele><time>2026-05-01T12:35:53Z</time></trkpt><trkpt lat="39.65549753550915" lon="8.5804244359086"><ele>52.0</ele><time>2026-05-01T12:35:54Z</time></trkpt><trkpt lat="39.65549416324273" lon="8.580204973996468"><ele>52.33333333333333</ele><time>2026-05-01T12:35:55Z</time></trkpt><trkpt lat="39.65548970702945" lon="8.579994646607663"><ele>52.66666666666667</ele><time>2026-05-01T12:35:56Z</time></trkpt><trkpt lat="39.65547769495361" lon="8.579801241394168"><ele>53.0</ele><time>2026-05-01T12:35:57Z</time></trkpt><trkpt lat="39.65543711526392" lon="8.579614421736354"><ele>53.0</ele><time>2026-05-01T12:35:58Z</time></trkpt><trkpt lat="39.65535809390941" lon="8.579435192080279"><ele>53.0</ele><time>2026-05-01T12:35:59Z</time></trkpt><trkpt lat="39.65526348732884" lon="8.57925242432782"><ele>53.0</ele><time>2026-05-01T12:36:00Z</time></trkpt><trkpt lat="39.65517204491869" lon="8.57905541348761"><ele>53.0</ele><time>2026-05-01T12:36:01Z</time></trkpt><trkpt lat="39.655084625710856" lon="8.578855490147237"><ele>53.0</ele><time>2026-05-01T12:36:02Z</time></trkpt><trkpt lat="39.654997579842764" lon="8.578659625113072"><ele>53.0</ele><time>2026-05-01T12:36:03Z</time></trkpt><trkpt lat="39.65490914999779" lon="8.578473370492622"><ele>54.0</ele><time>2026-05-01T12:36:04Z</time></trkpt><trkpt lat="39.65481061233509" lon="8.57831113830434"><ele>55.0</ele><time>2026-05-01T12:36:05Z</time></trkpt><trkpt lat="39.654711513239555" lon="8.578155959823764"><ele>56.0</ele><time>2026-05-01T12:36:06Z</time></trkpt><trkpt lat="39.654608401278374" lon="8.578016429854275"><ele>56.0</ele><time>2026-05-01T12:36:07Z</time></trkpt><trkpt lat="39.65450223899398" lon="8.57787455506747"><ele>56.0</ele><time>2026-05-01T12:36:07.999Z</time></trkpt><trkpt lat="39.65439534484697" lon="8.577733299590347"><ele>56.0</ele><time>2026-05-01T12:36:08.999Z</time></trkpt><trkpt lat="39.654284659054696" lon="8.57759099534146"><ele>56.0</ele><time>2026-05-01T12:36:09.999Z</time></trkpt><trkpt lat="39.65416954051548" lon="8.577443370562655"><ele>56.0</ele><time>2026-05-01T12:36:10.999Z</time></trkpt><trkpt lat="39.65405391866344" lon="8.577294570081865"><ele>56.0</ele><time>2026-05-01T12:36:11.999Z</time></trkpt><trkpt lat="39.65393722499861" lon="8.577144190712296"><ele>56.66666666666667</ele><time>2026-05-01T12:36:12.999Z</time></trkpt><trkpt lat="39.65381778964614" lon="8.576991510969666"><ele>57.33333333333333</ele><time>2026-05-01T12:36:13.999Z</time></trkpt><trkpt lat="39.65369049627609" lon="8.576850983603494"><ele>58.0</ele><time>2026-05-01T12:36:14.999Z</time></trkpt><trkpt lat="39.6535901758882" lon="8.576704252000194"><ele>58.0</ele><time>2026-05-01T12:36:15.999Z</time></trkpt><trkpt lat="39.65350834728266" lon="8.576583382551265"><ele>58.0</ele><time>2026-05-01T12:36:16.999Z</time></trkpt><trkpt lat="39.653390559930216" lon="8.576527519249082"><ele>58.0</ele><time>2026-05-01T12:36:17.999Z</time></trkpt><trkpt lat="39.653271018659964" lon="8.57649175667568"><ele>58.0</ele><time>2026-05-01T12:36:18.999Z</time></trkpt><trkpt lat="39.653148437026786" lon="8.576441549372905"><ele>58.0</ele><time>2026-05-01T12:36:19.999Z</time></trkpt><trkpt lat="39.653035802688635" lon="8.576357929123823"><ele>58.0</ele><time>2026-05-01T12:36:20.999Z</time></trkpt><trkpt lat="39.6529415667039" lon="8.576238098412666"><ele>58.0</ele><time>2026-05-01T12:36:21.999Z</time></trkpt><trkpt lat="39.65285417408888" lon="8.576094806732476"><ele>58.0</ele><time>2026-05-01T12:36:22.999Z</time></trkpt><trkpt lat="39.652790017710274" lon="8.575918093407108"><ele>58.666666666666664</ele><time>2026-05-01T12:36:23.999Z</time></trkpt><trkpt lat="39.65272106849376" lon="8.575736220825016"><ele>59.33333333333333</ele><time>2026-05-01T12:36:24.999Z</time></trkpt><trkpt lat="39.6526519384199" lon="8.575547959886785"><ele>60.0</ele><time>2026-05-01T12:36:25.999Z</time></trkpt><trkpt lat="39.652579665124264" lon="8.575354643286271"><ele>60.33333333333333</ele><time>2026-05-01T12:36:26.999Z</time></trkpt><trkpt lat="39.65250630420296" lon="8.57515754072634"><ele>60.666666666666664</ele><time>2026-05-01T12:36:27.999Z</time></trkpt><trkpt lat="39.65243264612741" lon="8.57495761432713"><ele>61.0</ele><time>2026-05-01T12:36:28.999Z</time></trkpt><trkpt lat="39.65236025233455" lon="8.574761945854588"><ele>61.0</ele><time>2026-05-01T12:36:29.999Z</time></trkpt><trkpt lat="39.65228713731529" lon="8.574561955095474"><ele>61.0</ele><time>2026-05-01T12:36:30.999Z</time></trkpt><trkpt lat="39.6522126435647" lon="8.574358893978516"><ele>61.0</ele><time>2026-05-01T12:36:31.999Z</time></trkpt><trkpt lat="39.652136258923875" lon="8.57415114411132"><ele>61.33333333333333</ele><time>2026-05-01T12:36:32.999Z</time></trkpt><trkpt lat="39.652062885604984" lon="8.573940810620801"><ele>61.66666666666667</ele><time>2026-05-01T12:36:33.999Z</time></trkpt><trkpt lat="39.65199266761668" lon="8.573729185003202"><ele>62.0</ele><time>2026-05-01T12:36:34.999Z</time></trkpt><trkpt lat="39.65193099739661" lon="8.57351579760748"><ele>63.0</ele><time>2026-05-01T12:36:35.999Z</time></trkpt><trkpt lat="39.65189098501265" lon="8.573296333527573"><ele>64.0</ele><time>2026-05-01T12:36:36.999Z</time></trkpt><trkpt lat="39.651872744776796" lon="8.573072071522894"><ele>65.0</ele><time>2026-05-01T12:36:37.999Z</time></trkpt><trkpt lat="39.65186753909459" lon="8.572847303304243"><ele>65.0</ele><time>2026-05-01T12:36:38.999Z</time></trkpt><trkpt lat="39.651870066543815" lon="8.572619364501715"><ele>65.0</ele><time>2026-05-01T12:36:39.999Z</time></trkpt><trkpt lat="39.651879005076026" lon="8.572390299713865"><ele>65.0</ele><time>2026-05-01T12:36:40.999Z</time></trkpt><trkpt lat="39.65188570860685" lon="8.572176744310196"><ele>65.66666666666667</ele><time>2026-05-01T12:36:41.999Z</time></trkpt><trkpt lat="39.651881006258876" lon="8.571977088187408"><ele>66.33333333333333</ele><time>2026-05-01T12:36:42.999Z</time></trkpt><trkpt lat="39.65185639764551" lon="8.571789467226436"><ele>67.0</ele><time>2026-05-01T12:36:43.999Z</time></trkpt><trkpt lat="39.65179800249691" lon="8.571605608369858"><ele>67.0</ele><time>2026-05-01T12:36:44.999Z</time></trkpt><trkpt lat="39.65171800545175" lon="8.571418492161964"><ele>67.0</ele><time>2026-05-01T12:36:45.999Z</time></trkpt><trkpt lat="39.65162740130822" lon="8.571225170014033"><ele>67.0</ele><time>2026-05-01T12:36:46.999Z</time></trkpt><trkpt lat="39.65153400673059" lon="8.571020182088432"><ele>67.66666666666666</ele><time>2026-05-01T12:36:47.999Z</time></trkpt><trkpt lat="39.651440469417835" lon="8.57081010753498"><ele>68.33333333333333</ele><time>2026-05-01T12:36:48.999Z</time></trkpt><trkpt lat="39.65134314027582" lon="8.570603142061877"><ele>69.0</ele><time>2026-05-01T12:36:49.999Z</time></trkpt><trkpt lat="39.651261535477296" lon="8.57040244165254"><ele>69.66666666666667</ele><time>2026-05-01T12:36:50.999Z</time></trkpt><trkpt lat="39.651214369552086" lon="8.570200211403163"><ele>70.33333333333334</ele><time>2026-05-01T12:36:51.999Z</time></trkpt><trkpt lat="39.65119468302736" lon="8.56998774624576"><ele>71.0</ele><time>2026-05-01T12:36:52.999Z</time></trkpt><trkpt lat="39.65118413795676" lon="8.569767732334485"><ele>71.0</ele><time>2026-05-01T12:36:53.999Z</time></trkpt><trkpt lat="39.65118064794306" lon="8.569542592324826"><ele>71.0</ele><time>2026-05-01T12:36:54.999Z</time></trkpt><trkpt lat="39.651190524728214" lon="8.56932294936943"><ele>71.0</ele><time>2026-05-01T12:36:55.999Z</time></trkpt><trkpt lat="39.65120967214455" lon="8.569139997257082"><ele>71.25</ele><time>2026-05-01T12:36:56.999Z</time></trkpt><trkpt lat="39.65121703546229" lon="8.568978429771837"><ele>71.5</ele><time>2026-05-01T12:36:57.999Z</time></trkpt><trkpt lat="39.65118891431716" lon="8.568829051058728"><ele>71.75</ele><time>2026-05-01T12:36:58.999Z</time></trkpt><trkpt lat="39.65111852456851" lon="8.568682264947524"><ele>72.0</ele><time>2026-05-01T12:36:59.999Z</time></trkpt><trkpt lat="39.65103861968969" lon="8.568524823022605"><ele>73.66666666666667</ele><time>2026-05-01T12:37:00.999Z</time></trkpt><trkpt lat="39.65098050869792" lon="8.56834584061831"><ele>75.33333333333334</ele><time>2026-05-01T12:37:01.999Z</time></trkpt><trkpt lat="39.65090291578498" lon="8.568160974138909"><ele>77.0</ele><time>2026-05-01T12:37:02.999Z</time></trkpt><trkpt lat="39.650819773372994" lon="8.567967299855034"><ele>78.0</ele><time>2026-05-01T12:37:03.999Z</time></trkpt><trkpt lat="39.650735472638296" lon="8.567771887888188"><ele>79.0</ele><time>2026-05-01T12:37:04.999Z</time></trkpt><trkpt lat="39.65065225369642" lon="8.567580449688244"><ele>80.0</ele><time>2026-05-01T12:37:05.999Z</time></trkpt><trkpt lat="39.65056980911235" lon="8.56739079296445"><ele>80.0</ele><time>2026-05-01T12:37:06.999Z</time></trkpt><trkpt lat="39.650487329584564" lon="8.567201055816973"><ele>80.0</ele><time>2026-05-01T12:37:08Z</time></trkpt><trkpt lat="39.65040359927104" lon="8.567008441416844"><ele>80.0</ele><time>2026-05-01T12:37:09Z</time></trkpt><trkpt lat="39.650321739546264" lon="8.566816772702966"><ele>81.66666666666667</ele><time>2026-05-01T12:37:10Z</time></trkpt><trkpt lat="39.65023966277176" lon="8.566624323470975"><ele>83.33333333333333</ele><time>2026-05-01T12:37:11Z</time></trkpt><trkpt lat="39.650158042065875" lon="8.566432942900331"><ele>85.0</ele><time>2026-05-01T12:37:12Z</time></trkpt><trkpt lat="39.65007474714312" lon="8.566239501751669"><ele>86.0</ele><time>2026-05-01T12:37:13Z</time></trkpt><trkpt lat="39.649990111563916" lon="8.566045352562972"><ele>87.0</ele><time>2026-05-01T12:37:14Z</time></trkpt><trkpt lat="39.6499036668397" lon="8.565849078062543"><ele>88.0</ele><time>2026-05-01T12:37:15Z</time></trkpt><trkpt lat="39.64980496837082" lon="8.56566376751496"><ele>88.0</ele><time>2026-05-01T12:37:16Z</time></trkpt><trkpt lat="39.64972015640636" lon="8.565469233598359"><ele>88.0</ele><time>2026-05-01T12:37:17Z</time></trkpt><trkpt lat="39.6496361608508" lon="8.56527288158471"><ele>88.0</ele><time>2026-05-01T12:37:18Z</time></trkpt><trkpt lat="39.64955208356537" lon="8.56507504482801"><ele>89.0</ele><time>2026-05-01T12:37:19Z</time></trkpt><trkpt lat="39.64946689950922" lon="8.56487708843499"><ele>90.0</ele><time>2026-05-01T12:37:20Z</time></trkpt><trkpt lat="39.649382998820286" lon="8.5646800623112"><ele>91.0</ele><time>2026-05-01T12:37:21Z</time></trkpt><trkpt lat="39.649304599288484" lon="8.564483793901115"><ele>92.33333333333333</ele><time>2026-05-01T12:37:22Z</time></trkpt><trkpt lat="39.64923112620136" lon="8.564282608177418"><ele>93.66666666666667</ele><time>2026-05-01T12:37:23Z</time></trkpt><trkpt lat="39.64916250828589" lon="8.564082553066692"><ele>95.0</ele><time>2026-05-01T12:37:24Z</time></trkpt><trkpt lat="39.649093340244065" lon="8.563887710705945"><ele>95.66666666666667</ele><time>2026-05-01T12:37:25Z</time></trkpt><trkpt lat="39.64902617585805" lon="8.563689668412737"><ele>96.33333333333334</ele><time>2026-05-01T12:37:26Z</time></trkpt><trkpt lat="39.648961566758175" lon="8.56349306642908"><ele>97.0</ele><time>2026-05-01T12:37:27Z</time></trkpt><trkpt lat="39.648890924836216" lon="8.563296774908533"><ele>97.0</ele><time>2026-05-01T12:37:28Z</time></trkpt><trkpt lat="39.64881748349043" lon="8.56309957299444"><ele>97.0</ele><time>2026-05-01T12:37:29Z</time></trkpt><trkpt lat="39.648736523386624" lon="8.562902300962564"><ele>97.0</ele><time>2026-05-01T12:37:30Z</time></trkpt><trkpt lat="39.648644702729165" lon="8.562697914667881"><ele>97.66666666666667</ele><time>2026-05-01T12:37:31Z</time></trkpt><trkpt lat="39.64855024755486" lon="8.562494741689845"><ele>98.33333333333334</ele><time>2026-05-01T12:37:32Z</time></trkpt><trkpt lat="39.64846875405668" lon="8.562282402674088"><ele>99.0</ele><time>2026-05-01T12:37:33Z</time></trkpt><trkpt lat="39.64837550261814" lon="8.56208106634003"><ele>99.33333333333334</ele><time>2026-05-01T12:37:34Z</time></trkpt><trkpt lat="39.648267031083904" lon="8.561888806049199"><ele>99.66666666666667</ele><time>2026-05-01T12:37:35Z</time></trkpt><trkpt lat="39.64817575950097" lon="8.561684623155022"><ele>100.0</ele><time>2026-05-01T12:37:36Z</time></trkpt><trkpt lat="39.6480827445804" lon="8.561481671186163"><ele>100.0</ele><time>2026-05-01T12:37:37Z</time></trkpt><trkpt lat="39.647987674904904" lon="8.56128134249469"><ele>100.0</ele><time>2026-05-01T12:37:38Z</time></trkpt><trkpt lat="39.64789179069352" lon="8.561081591296597"><ele>100.0</ele><time>2026-05-01T12:37:39Z</time></trkpt><trkpt lat="39.64781308225409" lon="8.560876807256285"><ele>102.33333333333334</ele><time>2026-05-01T12:37:40Z</time></trkpt><trkpt lat="39.64772629947904" lon="8.560690038188206"><ele>104.66666666666666</ele><time>2026-05-01T12:37:41Z</time></trkpt><trkpt lat="39.6476478348029" lon="8.560517486577957"><ele>107.0</ele><time>2026-05-01T12:37:42Z</time></trkpt><trkpt lat="39.64757669685704" lon="8.560361047185895"><ele>107.66666666666666</ele><time>2026-05-01T12:37:43Z</time></trkpt><trkpt lat="39.647504999736796" lon="8.560240643216204"><ele>108.33333333333333</ele><time>2026-05-01T12:37:44Z</time></trkpt><trkpt lat="39.64746706485393" lon="8.56013977787389"><ele>109.0</ele><time>2026-05-01T12:37:45Z</time></trkpt><trkpt lat="39.647427501413176" lon="8.560042602038873"><ele>109.66666666666666</ele><time>2026-05-01T12:37:47Z</time></trkpt><trkpt lat="39.64734723879681" lon="8.560045371418854"><ele>110.33333333333333</ele><time>2026-05-01T12:37:50Z</time></trkpt><trkpt lat="39.64727516080986" lon="8.560056928592077"><ele>111.0</ele><time>2026-05-01T12:37:52Z</time></trkpt><trkpt lat="39.64719283831213" lon="8.560086923637963"><ele>111.0</ele><time>2026-05-01T12:37:54Z</time></trkpt><trkpt lat="39.64711156824555" lon="8.5600403615794"><ele>111.0</ele><time>2026-05-01T12:37:56Z</time></trkpt><trkpt lat="39.64702759366626" lon="8.55991746567716"><ele>111.0</ele><time>2026-05-01T12:37:58Z</time></trkpt><trkpt lat="39.646997951189434" lon="8.559835565926468"><ele>111.0</ele><time>2026-05-01T12:37:59Z</time></trkpt><trkpt lat="39.64694389267924" lon="8.559733998847614"><ele>111.0</ele><time>2026-05-01T12:38:01Z</time></trkpt><trkpt lat="39.64690206069076" lon="8.559651469423633"><ele>113.6</ele><time>2026-05-01T12:38:03Z</time></trkpt><trkpt lat="39.64687093276374" lon="8.559551806332658"><ele>116.19999999999999</ele><time>2026-05-01T12:38:05Z</time></trkpt><trkpt lat="39.64682552476371" lon="8.559438374216825"><ele>118.80000000000001</ele><time>2026-05-01T12:38:07Z</time></trkpt><trkpt lat="39.646769125893854" lon="8.55931940675126"><ele>121.4</ele><time>2026-05-01T12:38:09Z</time></trkpt><trkpt lat="39.64673908316702" lon="8.55918889457377"><ele>124.0</ele><time>2026-05-01T12:38:11Z</time></trkpt><trkpt lat="39.64669485580219" lon="8.559079339733549"><ele>124.00000000000001</ele><time>2026-05-01T12:38:12.999Z</time></trkpt><trkpt lat="39.646635099915954" lon="8.55903664095191"><ele>124.0</ele><time>2026-05-01T12:38:13.999Z</time></trkpt><trkpt lat="39.64655167592461" lon="8.559053535172655"><ele>124.0</ele><time>2026-05-01T12:38:14.999Z</time></trkpt><trkpt lat="39.64648721641562" lon="8.559116018487675"><ele>124.0</ele><time>2026-05-01T12:38:15.999Z</time></trkpt><trkpt lat="39.646456834832314" lon="8.559232801002409"><ele>124.00000000000001</ele><time>2026-05-01T12:38:16.999Z</time></trkpt><trkpt lat="39.64645075800212" lon="8.55932637406835"><ele>124.0</ele><time>2026-05-01T12:38:17.999Z</time></trkpt><trkpt lat="39.6464691486374" lon="8.559439533892686"><ele>124.2</ele><time>2026-05-01T12:38:18.999Z</time></trkpt><trkpt lat="39.64648513441374" lon="8.559551311386626"><ele>124.4</ele><time>2026-05-01T12:38:19.999Z</time></trkpt><trkpt lat="39.64649631077825" lon="8.559662678614984"><ele>124.6</ele><time>2026-05-01T12:38:20.999Z</time></trkpt><trkpt lat="39.64650309163462" lon="8.559793639216299"><ele>124.8</ele><time>2026-05-01T12:38:21.999Z</time></trkpt><trkpt lat="39.646507731709" lon="8.559949447110142"><ele>125.0</ele><time>2026-05-01T12:38:22.999Z</time></trkpt><trkpt lat="39.64651193545218" lon="8.560102169546328"><ele>125.0</ele><time>2026-05-01T12:38:23.999Z</time></trkpt><trkpt lat="39.64651617959802" lon="8.560290061007226"><ele>125.0</ele><time>2026-05-01T12:38:24.999Z</time></trkpt><trkpt lat="39.646519881415614" lon="8.560485869217773"><ele>125.0</ele><time>2026-05-01T12:38:25.999Z</time></trkpt><trkpt lat="39.64652351457724" lon="8.560678045917722"><ele>125.0</ele><time>2026-05-01T12:38:26.999Z</time></trkpt><trkpt lat="39.64652647240954" lon="8.56084360455433"><ele>125.6</ele><time>2026-05-01T12:38:27.999Z</time></trkpt><trkpt lat="39.64652232787179" lon="8.560989915627903"><ele>126.2</ele><time>2026-05-01T12:38:28.999Z</time></trkpt><trkpt lat="39.64650600080964" lon="8.561104592614027"><ele>126.80000000000001</ele><time>2026-05-01T12:38:29.999Z</time></trkpt><trkpt lat="39.64648330154306" lon="8.56120129525295"><ele>127.4</ele><time>2026-05-01T12:38:30.999Z</time></trkpt><trkpt lat="39.646421557320394" lon="8.561313082079833"><ele>128.0</ele><time>2026-05-01T12:38:32.999Z</time></trkpt><trkpt lat="39.646303417163395" lon="8.561279154894118"><ele>128.0</ele><time>2026-05-01T12:38:34.999Z</time></trkpt><trkpt lat="39.646239503060016" lon="8.561139726620018"><ele>128.0</ele><time>2026-05-01T12:38:36.999Z</time></trkpt><trkpt lat="39.64622819790863" lon="8.561048364841795"><ele>128.0</ele><time>2026-05-01T12:38:37.999Z</time></trkpt><trkpt lat="39.64623646024573" lon="8.560931523430574"><ele>128.0</ele><time>2026-05-01T12:38:38.999Z</time></trkpt><trkpt lat="39.64624481864072" lon="8.560785097837263"><ele>128.0</ele><time>2026-05-01T12:38:39.999Z</time></trkpt><trkpt lat="39.646252463492985" lon="8.560636236257203"><ele>128.0</ele><time>2026-05-01T12:38:40.999Z</time></trkpt><trkpt lat="39.64624950419288" lon="8.560445447000113"><ele>128.0</ele><time>2026-05-01T12:38:41.999Z</time></trkpt><trkpt lat="39.64623741436881" lon="8.56027612350933"><ele>128.0</ele><time>2026-05-01T12:38:42.999Z</time></trkpt><trkpt lat="39.64622318470415" lon="8.560148998511453"><ele>128.0</ele><time>2026-05-01T12:38:43.999Z</time></trkpt><trkpt lat="39.64619405118729" lon="8.560052837414096"><ele>127.49999999999999</ele><time>2026-05-01T12:38:44.999Z</time></trkpt><trkpt lat="39.6461492707348" lon="8.559955882526973"><ele>127.0</ele><time>2026-05-01T12:38:45.999Z</time></trkpt><trkpt lat="39.646095545271066" lon="8.559874931464936"><ele>126.5</ele><time>2026-05-01T12:38:46.999Z</time></trkpt><trkpt lat="39.64604802594152" lon="8.559783701664754"><ele>126.0</ele><time>2026-05-01T12:38:47.999Z</time></trkpt><trkpt lat="39.64602710859289" lon="8.559675670667355"><ele>125.49999999999999</ele><time>2026-05-01T12:38:48.999Z</time></trkpt><trkpt lat="39.64601854218772" lon="8.559566342990736"><ele>125.0</ele><time>2026-05-01T12:38:49.999Z</time></trkpt><trkpt lat="39.646011835715434" lon="8.559457907522132"><ele>130.0</ele><time>2026-05-01T12:38:50.999Z</time></trkpt><trkpt lat="39.64599610602216" lon="8.55936105888219"><ele>135.0</ele><time>2026-05-01T12:38:51.999Z</time></trkpt><trkpt lat="39.64596043729371" lon="8.559265121249993"><ele>140.0</ele><time>2026-05-01T12:38:52.999Z</time></trkpt><trkpt lat="39.64591619712106" lon="8.55917389441798"><ele>145.0</ele><time>2026-05-01T12:38:53.999Z</time></trkpt><trkpt lat="39.645869834659955" lon="8.55909124013355"><ele>150.0</ele><time>2026-05-01T12:38:54.999Z</time></trkpt><trkpt lat="39.645827957295026" lon="8.559015104439792"><ele>155.0</ele><time>2026-05-01T12:38:55.999Z</time></trkpt><trkpt lat="39.64579204520945" lon="8.55894053027134"><ele>155.0</ele><time>2026-05-01T12:38:56.999Z</time></trkpt><trkpt lat="39.645751667795466" lon="8.558874336363674"><ele>155.0</ele><time>2026-05-01T12:38:57.999Z</time></trkpt><trkpt lat="39.64570366014959" lon="8.558818602389696"><ele>155.0</ele><time>2026-05-01T12:38:58.999Z</time></trkpt><trkpt lat="39.64560454098991" lon="8.558725433982938"><ele>155.0</ele><time>2026-05-01T12:39:00.999Z</time></trkpt><trkpt lat="39.64548758652697" lon="8.55866804078927"><ele>155.0</ele><time>2026-05-01T12:39:02.999Z</time></trkpt><trkpt lat="39.645378402161086" lon="8.55859631129909"><ele>153.6</ele><time>2026-05-01T12:39:04.999Z</time></trkpt><trkpt lat="39.64530317230232" lon="8.558483381333138"><ele>152.2</ele><time>2026-05-01T12:39:06.999Z</time></trkpt><trkpt lat="39.64524245358068" lon="8.558352764528614"><ele>150.8</ele><time>2026-05-01T12:39:08.999Z</time></trkpt><trkpt lat="39.645196901841665" lon="8.558208513325408"><ele>149.4</ele><time>2026-05-01T12:39:10.999Z</time></trkpt><trkpt lat="39.64516861045691" lon="8.558133229404595"><ele>148.0</ele><time>2026-05-01T12:39:11.999Z</time></trkpt><trkpt lat="39.64513218248891" lon="8.558028613169911"><ele>153.2</ele><time>2026-05-01T12:39:14Z</time></trkpt><trkpt lat="39.64508431968868" lon="8.557963942576949"><ele>158.4</ele><time>2026-05-01T12:39:26Z</time></trkpt><trkpt lat="39.6449786088308" lon="8.55786737569301"><ele>163.6</ele><time>2026-05-01T12:39:28Z</time></trkpt><trkpt lat="39.64491488463775" lon="8.557779142192706"><ele>168.79999999999998</ele><time>2026-05-01T12:39:29Z</time></trkpt><trkpt lat="39.6448717753482" lon="8.557664805961272"><ele>174.0</ele><time>2026-05-01T12:39:30Z</time></trkpt><trkpt lat="39.64481155857795" lon="8.557572690068751"><ele>174.0</ele><time>2026-05-01T12:39:31Z</time></trkpt><trkpt lat="39.64475824628169" lon="8.55749291293092"><ele>174.0</ele><time>2026-05-01T12:39:32Z</time></trkpt><trkpt lat="39.64473806894205" lon="8.557392342507555"><ele>174.0</ele><time>2026-05-01T12:39:33Z</time></trkpt><trkpt lat="39.64473108527339" lon="8.557279193194082"><ele>174.0</ele><time>2026-05-01T12:39:34Z</time></trkpt><trkpt lat="39.64472472350141" lon="8.557162560613536"><ele>174.0</ele><time>2026-05-01T12:39:35Z</time></trkpt><trkpt lat="39.644709544892514" lon="8.557055661796452"><ele>174.0</ele><time>2026-05-01T12:39:36Z</time></trkpt><trkpt lat="39.64467373528023" lon="8.556954507903843"><ele>173.0</ele><time>2026-05-01T12:39:37Z</time></trkpt><trkpt lat="39.64462702836832" lon="8.556851881311944"><ele>172.0</ele><time>2026-05-01T12:39:38Z</time></trkpt><trkpt lat="39.64456808408297" lon="8.556760697558085"><ele>171.0</ele><time>2026-05-01T12:39:39Z</time></trkpt><trkpt lat="39.64449847648346" lon="8.556681669586188"><ele>170.0</ele><time>2026-05-01T12:39:40Z</time></trkpt><trkpt lat="39.64442939945074" lon="8.556589975920113"><ele>169.0</ele><time>2026-05-01T12:39:41Z</time></trkpt><trkpt lat="39.64434066885661" lon="8.556534582654788"><ele>172.39999999999998</ele><time>2026-05-01T12:39:42Z</time></trkpt><trkpt lat="39.64426167873666" lon="8.556457437867214"><ele>175.8</ele><time>2026-05-01T12:39:43Z</time></trkpt><trkpt lat="39.644173776184815" lon="8.556376982146643"><ele>179.2</ele><time>2026-05-01T12:39:44Z</time></trkpt><trkpt lat="39.64408005658239" lon="8.55630498050224"><ele>182.60000000000002</ele><time>2026-05-01T12:39:45Z</time></trkpt><trkpt lat="39.64399752649643" lon="8.556222620434244"><ele>186.0</ele><time>2026-05-01T12:39:46Z</time></trkpt><trkpt lat="39.64391132616087" lon="8.55616119388268"><ele>186.0</ele><time>2026-05-01T12:39:47Z</time></trkpt><trkpt lat="39.643832040371194" lon="8.556100955754777"><ele>186.0</ele><time>2026-05-01T12:39:48Z</time></trkpt><trkpt lat="39.64376298432519" lon="8.55603023098956"><ele>186.0</ele><time>2026-05-01T12:39:49Z</time></trkpt><trkpt lat="39.64369265595093" lon="8.555946319250657"><ele>186.0</ele><time>2026-05-01T12:39:50Z</time></trkpt><trkpt lat="39.64362820209949" lon="8.555863337484457"><ele>186.0</ele><time>2026-05-01T12:39:51Z</time></trkpt><trkpt lat="39.643588334818986" lon="8.555773390416327"><ele>186.0</ele><time>2026-05-01T12:39:52Z</time></trkpt><trkpt lat="39.64359801596879" lon="8.555675762404237"><ele>186.0</ele><time>2026-05-01T12:39:53Z</time></trkpt><trkpt lat="39.643611401209846" lon="8.555586907053312"><ele>186.0</ele><time>2026-05-01T12:39:54Z</time></trkpt><trkpt lat="39.6436685587249" lon="8.555490670059426"><ele>186.0</ele><time>2026-05-01T12:39:55Z</time></trkpt><trkpt lat="39.64373850592343" lon="8.555388539547128"><ele>186.0</ele><time>2026-05-01T12:39:56Z</time></trkpt><trkpt lat="39.6438138036371" lon="8.555277841024699"><ele>186.0</ele><time>2026-05-01T12:39:57Z</time></trkpt><trkpt lat="39.64386754745337" lon="8.555160730159873"><ele>187.60000000000002</ele><time>2026-05-01T12:39:58Z</time></trkpt><trkpt lat="39.64391058546533" lon="8.555031565318139"><ele>189.2</ele><time>2026-05-01T12:39:59Z</time></trkpt><trkpt lat="39.643941940963074" lon="8.554900110749024"><ele>190.8</ele><time>2026-05-01T12:40:00Z</time></trkpt><trkpt lat="39.643969253887406" lon="8.554757393151473"><ele>192.39999999999998</ele><time>2026-05-01T12:40:01Z</time></trkpt><trkpt lat="39.643957761789146" lon="8.554601193155412"><ele>194.0</ele><time>2026-05-01T12:40:02Z</time></trkpt><trkpt lat="39.643936821075016" lon="8.554447862303917"><ele>196.0</ele><time>2026-05-01T12:40:03Z</time></trkpt><trkpt lat="39.64392447023558" lon="8.55429195526577"><ele>198.0</ele><time>2026-05-01T12:40:04Z</time></trkpt><trkpt lat="39.6439144472177" lon="8.554128942420226"><ele>200.0</ele><time>2026-05-01T12:40:05Z</time></trkpt><trkpt lat="39.6439036525084" lon="8.553954662796073"><ele>202.0</ele><time>2026-05-01T12:40:06Z</time></trkpt><trkpt lat="39.6438761776864" lon="8.553775898628931"><ele>202.0</ele><time>2026-05-01T12:40:07Z</time></trkpt><trkpt lat="39.643852990083104" lon="8.5536119756827"><ele>202.0</ele><time>2026-05-01T12:40:08Z</time></trkpt><trkpt lat="39.643823963038976" lon="8.553470561716834"><ele>202.0</ele><time>2026-05-01T12:40:09Z</time></trkpt><trkpt lat="39.6438014868508" lon="8.553327409313782"><ele>202.0</ele><time>2026-05-01T12:40:10Z</time></trkpt><trkpt lat="39.64373589329696" lon="8.553196308021539"><ele>202.0</ele><time>2026-05-01T12:40:11Z</time></trkpt><trkpt lat="39.64367452115356" lon="8.553073606657186"><ele>202.0</ele><time>2026-05-01T12:40:12Z</time></trkpt><trkpt lat="39.64362419973505" lon="8.55296748126653"><ele>202.0</ele><time>2026-05-01T12:40:13Z</time></trkpt><trkpt lat="39.643598836956336" lon="8.552865746852655"><ele>202.0</ele><time>2026-05-01T12:40:14Z</time></trkpt><trkpt lat="39.64360083952876" lon="8.552751394044826"><ele>202.0</ele><time>2026-05-01T12:40:15Z</time></trkpt><trkpt lat="39.64359217109842" lon="8.552635878285965"><ele>208.8</ele><time>2026-05-01T12:40:15.999Z</time></trkpt><trkpt lat="39.64358231742422" lon="8.552506463574359"><ele>215.6</ele><time>2026-05-01T12:40:16.999Z</time></trkpt><trkpt lat="39.643546768114135" lon="8.552373437701291"><ele>222.40000000000003</ele><time>2026-05-01T12:40:17.999Z</time></trkpt><trkpt lat="39.64351916827405" lon="8.552255050181403"><ele>229.20000000000002</ele><time>2026-05-01T12:40:18.999Z</time></trkpt><trkpt lat="39.643530824048895" lon="8.5521499598594"><ele>236.0</ele><time>2026-05-01T12:40:19.999Z</time></trkpt><trkpt lat="39.64357490399618" lon="8.552054227036075"><ele>233.8</ele><time>2026-05-01T12:40:20.999Z</time></trkpt><trkpt lat="39.643650905197006" lon="8.551962511215292"><ele>231.60000000000002</ele><time>2026-05-01T12:40:21.999Z</time></trkpt><trkpt lat="39.64370402310579" lon="8.55184911394848"><ele>229.4</ele><time>2026-05-01T12:40:22.999Z</time></trkpt><trkpt lat="39.6437598910958" lon="8.551750899850534"><ele>227.2</ele><time>2026-05-01T12:40:23.999Z</time></trkpt><trkpt lat="39.643801057266124" lon="8.55165041553906"><ele>225.0</ele><time>2026-05-01T12:40:24.999Z</time></trkpt><trkpt lat="39.64383059167054" lon="8.55153879090541"><ele>225.0</ele><time>2026-05-01T12:40:25.999Z</time></trkpt><trkpt lat="39.64382288009813" lon="8.551408133077638"><ele>225.0</ele><time>2026-05-01T12:40:26.999Z</time></trkpt><trkpt lat="39.64382173996246" lon="8.551273496928655"><ele>225.0</ele><time>2026-05-01T12:40:27.999Z</time></trkpt><trkpt lat="39.643804104866845" lon="8.55115910792658"><ele>225.0</ele><time>2026-05-01T12:40:28.999Z</time></trkpt><trkpt lat="39.643805695061076" lon="8.55125018470399"><ele>225.0</ele><time>2026-05-01T12:40:34.999Z</time></trkpt><trkpt lat="39.64367276296495" lon="8.551349828067751"><ele>229.2</ele><time>2026-05-01T12:40:35.999Z</time></trkpt><trkpt lat="39.643623264012895" lon="8.551411922768652"><ele>233.4</ele><time>2026-05-01T12:40:36.999Z</time></trkpt><trkpt lat="39.643546534114336" lon="8.551464525917517"><ele>237.60000000000002</ele><time>2026-05-01T12:40:37.999Z</time></trkpt><trkpt lat="39.64345453090505" lon="8.551475285677476"><ele>241.8</ele><time>2026-05-01T12:40:38.999Z</time></trkpt><trkpt lat="39.64335153768148" lon="8.551490019365625"><ele>246.0</ele><time>2026-05-01T12:40:39.999Z</time></trkpt><trkpt lat="39.64324563881757" lon="8.551550522150578"><ele>246.0</ele><time>2026-05-01T12:40:40.999Z</time></trkpt><trkpt lat="39.64313134207041" lon="8.551596873934034"><ele>246.00000000000003</ele><time>2026-05-01T12:40:41.999Z</time></trkpt><trkpt lat="39.64302711191792" lon="8.551638784544261"><ele>246.00000000000003</ele><time>2026-05-01T12:40:42.999Z</time></trkpt><trkpt lat="39.64296017250298" lon="8.551681968139624"><ele>246.0</ele><time>2026-05-01T12:40:43.999Z</time></trkpt><trkpt lat="39.642907921418185" lon="8.55175579317329"><ele>246.0</ele><time>2026-05-01T12:40:44.999Z</time></trkpt><trkpt lat="39.64289099614703" lon="8.551865994780881"><ele>246.0</ele><time>2026-05-01T12:40:45.999Z</time></trkpt><trkpt lat="39.642877248461325" lon="8.552004861931138"><ele>246.00000000000003</ele><time>2026-05-01T12:40:46.999Z</time></trkpt><trkpt lat="39.642839763703414" lon="8.552130875332155"><ele>246.00000000000003</ele><time>2026-05-01T12:40:47.999Z</time></trkpt><trkpt lat="39.6427774968643" lon="8.552247100100702"><ele>246.0</ele><time>2026-05-01T12:40:48.999Z</time></trkpt><trkpt lat="39.64269826785682" lon="8.552362268857705"><ele>246.0</ele><time>2026-05-01T12:40:49.999Z</time></trkpt><trkpt lat="39.64261604627146" lon="8.55246854734578"><ele>248.5</ele><time>2026-05-01T12:40:50.999Z</time></trkpt><trkpt lat="39.64253959154476" lon="8.552577194002243"><ele>251.0</ele><time>2026-05-01T12:40:51.999Z</time></trkpt><trkpt lat="39.64247388175305" lon="8.552703037925335"><ele>253.5</ele><time>2026-05-01T12:40:52.999Z</time></trkpt><trkpt lat="39.64242328243317" lon="8.552837160423538"><ele>256.0</ele><time>2026-05-01T12:40:53.999Z</time></trkpt><trkpt lat="39.64238262233248" lon="8.552974552523755"><ele>256.0</ele><time>2026-05-01T12:40:54.999Z</time></trkpt><trkpt lat="39.64235194035334" lon="8.553116922231672"><ele>256.0</ele><time>2026-05-01T12:40:55.999Z</time></trkpt><trkpt lat="39.64232584535605" lon="8.55325657515795"><ele>256.0</ele><time>2026-05-01T12:40:56.999Z</time></trkpt><trkpt lat="39.642325607673236" lon="8.553405976013545"><ele>256.0</ele><time>2026-05-01T12:40:57.999Z</time></trkpt><trkpt lat="39.64233075958184" lon="8.553546400692884"><ele>256.0</ele><time>2026-05-01T12:40:58.999Z</time></trkpt><trkpt lat="39.642326731204385" lon="8.553680929706298"><ele>255.99999999999997</ele><time>2026-05-01T12:40:59.999Z</time></trkpt><trkpt lat="39.642311592798" lon="8.553790751757957"><ele>256.0</ele><time>2026-05-01T12:41:00.999Z</time></trkpt><trkpt lat="39.64226203861248" lon="8.553891341350738"><ele>256.0</ele><time>2026-05-01T12:41:01.999Z</time></trkpt><trkpt lat="39.64222338181943" lon="8.553998649273005"><ele>256.0</ele><time>2026-05-01T12:41:02.999Z</time></trkpt><trkpt lat="39.64221117074925" lon="8.554110219964068"><ele>255.99999999999997</ele><time>2026-05-01T12:41:03.999Z</time></trkpt><trkpt lat="39.64223180727579" lon="8.554222757418822"><ele>256.0</ele><time>2026-05-01T12:41:04.999Z</time></trkpt><trkpt lat="39.64227384437714" lon="8.554340512925165"><ele>256.0</ele><time>2026-05-01T12:41:05.999Z</time></trkpt><trkpt lat="39.64228128836181" lon="8.554446923252723"><ele>256.0</ele><time>2026-05-01T12:41:06.999Z</time></trkpt><trkpt lat="39.64227055503866" lon="8.554560896201185"><ele>256.0</ele><time>2026-05-01T12:41:07.999Z</time></trkpt><trkpt lat="39.64221909350325" lon="8.554657514762486"><ele>256.0</ele><time>2026-05-01T12:41:08.999Z</time></trkpt><trkpt lat="39.64214299588337" lon="8.554740225352882"><ele>256.0</ele><time>2026-05-01T12:41:09.999Z</time></trkpt><trkpt lat="39.642077017699314" lon="8.554821904403857"><ele>255.60000000000002</ele><time>2026-05-01T12:41:10.999Z</time></trkpt><trkpt lat="39.64202347699933" lon="8.554935030476052"><ele>255.20000000000002</ele><time>2026-05-01T12:41:11.999Z</time></trkpt><trkpt lat="39.641988769067765" lon="8.555061029796915"><ele>254.79999999999998</ele><time>2026-05-01T12:41:12.999Z</time></trkpt><trkpt lat="39.641966850478" lon="8.555194052298162"><ele>254.39999999999998</ele><time>2026-05-01T12:41:13.999Z</time></trkpt><trkpt lat="39.641955790823246" lon="8.55533485564039"><ele>254.0</ele><time>2026-05-01T12:41:14.999Z</time></trkpt><trkpt lat="39.6419498197449" lon="8.555477630887731"><ele>258.4</ele><time>2026-05-01T12:41:15.999Z</time></trkpt><trkpt lat="39.64194307418028" lon="8.55562854047201"><ele>262.79999999999995</ele><time>2026-05-01T12:41:16.999Z</time></trkpt><trkpt lat="39.64192144150269" lon="8.555773641453928"><ele>267.20000000000005</ele><time>2026-05-01T12:41:17.999Z</time></trkpt><trkpt lat="39.641881655221354" lon="8.555910529579965"><ele>271.6</ele><time>2026-05-01T12:41:18.999Z</time></trkpt><trkpt lat="39.641850936170755" lon="8.556041945304163"><ele>276.0</ele><time>2026-05-01T12:41:20Z</time></trkpt><trkpt lat="39.641829955677395" lon="8.556151657962474"><ele>276.0</ele><time>2026-05-01T12:41:21Z</time></trkpt><trkpt lat="39.64180681388625" lon="8.556260245861942"><ele>276.0</ele><time>2026-05-01T12:41:23Z</time></trkpt><trkpt lat="39.641733881592266" lon="8.55625825178581"><ele>276.0</ele><time>2026-05-01T12:41:25Z</time></trkpt><trkpt lat="39.64165981829477" lon="8.55613913721844"><ele>276.0</ele><time>2026-05-01T12:41:27Z</time></trkpt><trkpt lat="39.64161961297965" lon="8.556063169475008"><ele>276.0</ele><time>2026-05-01T12:41:28Z</time></trkpt><trkpt lat="39.641566154019834" lon="8.555980614154878"><ele>276.0</ele><time>2026-05-01T12:41:29Z</time></trkpt><trkpt lat="39.64150572011684" lon="8.555902087158138"><ele>276.0</ele><time>2026-05-01T12:41:30Z</time></trkpt><trkpt lat="39.64145103018222" lon="8.555826443564618"><ele>276.0</ele><time>2026-05-01T12:41:31Z</time></trkpt><trkpt lat="39.641416956069186" lon="8.555753851534517"><ele>276.0</ele><time>2026-05-01T12:41:32Z</time></trkpt><trkpt lat="39.641332878157584" lon="8.555624331269868"><ele>276.0</ele><time>2026-05-01T12:41:34Z</time></trkpt><trkpt lat="39.641287813087985" lon="8.555544331576534"><ele>276.0</ele><time>2026-05-01T12:41:35Z</time></trkpt><trkpt lat="39.641249046992506" lon="8.555457278134435"><ele>276.0</ele><time>2026-05-01T12:41:36Z</time></trkpt><trkpt lat="39.64121234112911" lon="8.555355974280594"><ele>277.0</ele><time>2026-05-01T12:41:37Z</time></trkpt><trkpt lat="39.64117501725114" lon="8.555252780857108"><ele>278.0</ele><time>2026-05-01T12:41:38Z</time></trkpt><trkpt lat="39.64113802832296" lon="8.555160808563514"><ele>279.0</ele><time>2026-05-01T12:41:39Z</time></trkpt><trkpt lat="39.641120322205964" lon="8.555070460438762"><ele>280.0</ele><time>2026-05-01T12:41:40Z</time></trkpt><trkpt lat="39.641134309260075" lon="8.554966355347617"><ele>281.0</ele><time>2026-05-01T12:41:41Z</time></trkpt><trkpt lat="39.64114803849225" lon="8.554861433100863"><ele>282.0</ele><time>2026-05-01T12:41:42Z</time></trkpt><trkpt lat="39.64113709361978" lon="8.554778262980992"><ele>282.8333333333333</ele><time>2026-05-01T12:41:43Z</time></trkpt><trkpt lat="39.64111010854735" lon="8.554697266534887"><ele>283.6666666666667</ele><time>2026-05-01T12:41:44Z</time></trkpt><trkpt lat="39.64110281070542" lon="8.554615244459061"><ele>284.5</ele><time>2026-05-01T12:41:45Z</time></trkpt><trkpt lat="39.641086181061866" lon="8.554468155286669"><ele>285.33333333333337</ele><time>2026-05-01T12:41:47Z</time></trkpt><trkpt lat="39.641041756089336" lon="8.554343571106706"><ele>286.1666666666667</ele><time>2026-05-01T12:41:49Z</time></trkpt><trkpt lat="39.641032310666645" lon="8.554249869182273"><ele>287.0</ele><time>2026-05-01T12:41:50Z</time></trkpt><trkpt lat="39.6410342808045" lon="8.554145108846793"><ele>289.6</ele><time>2026-05-01T12:41:51Z</time></trkpt><trkpt lat="39.641026419063905" lon="8.554055363317978"><ele>292.2</ele><time>2026-05-01T12:41:52Z</time></trkpt><trkpt lat="39.6409548102404" lon="8.553904840744027"><ele>294.8</ele><time>2026-05-01T12:41:54Z</time></trkpt><trkpt lat="39.640927244164956" lon="8.553818062446826"><ele>297.4</ele><time>2026-05-01T12:41:55Z</time></trkpt><trkpt lat="39.64088360840436" lon="8.553664102767181"><ele>300.0</ele><time>2026-05-01T12:41:57Z</time></trkpt><trkpt lat="39.64082806111693" lon="8.553599418580779"><ele>301.99999999999994</ele><time>2026-05-01T12:41:58Z</time></trkpt><trkpt lat="39.640777018703616" lon="8.553519638430007"><ele>304.0</ele><time>2026-05-01T12:41:59Z</time></trkpt><trkpt lat="39.640747373479904" lon="8.553428640076529"><ele>306.0</ele><time>2026-05-01T12:42:00Z</time></trkpt><trkpt lat="39.64072799866772" lon="8.553341289824482"><ele>308.0</ele><time>2026-05-01T12:42:01Z</time></trkpt><trkpt lat="39.64071214844863" lon="8.55325241574549"><ele>310.0</ele><time>2026-05-01T12:42:02Z</time></trkpt><trkpt lat="39.6406956458512" lon="8.5531698921522"><ele>311.99999999999994</ele><time>2026-05-01T12:42:03Z</time></trkpt><trkpt lat="39.640674107305536" lon="8.55308841627439"><ele>314.0</ele><time>2026-05-01T12:42:04Z</time></trkpt><trkpt lat="39.64064846078226" lon="8.552995540407801"><ele>315.6666666666667</ele><time>2026-05-01T12:42:05Z</time></trkpt><trkpt lat="39.640661399133954" lon="8.552858809337131"><ele>317.33333333333337</ele><time>2026-05-01T12:42:07Z</time></trkpt><trkpt lat="39.64070158628611" lon="8.552777501533903"><ele>319.0</ele><time>2026-05-01T12:42:09Z</time></trkpt><trkpt lat="39.640710071987314" lon="8.552646839680213"><ele>320.6666666666667</ele><time>2026-05-01T12:42:11Z</time></trkpt><trkpt lat="39.640681346140596" lon="8.552556772124818"><ele>322.3333333333333</ele><time>2026-05-01T12:42:12Z</time></trkpt><trkpt lat="39.64068001926894" lon="8.552465994788882"><ele>324.0</ele><time>2026-05-01T12:42:12.999Z</time></trkpt><trkpt lat="39.640678716791484" lon="8.552349181823413"><ele>324.0</ele><time>2026-05-01T12:42:13.999Z</time></trkpt><trkpt lat="39.64066492791671" lon="8.552242779699341"><ele>324.0</ele><time>2026-05-01T12:42:14.999Z</time></trkpt><trkpt lat="39.64064960404438" lon="8.55212363104599"><ele>324.0</ele><time>2026-05-01T12:42:15.999Z</time></trkpt><trkpt lat="39.640657304045696" lon="8.552030704654122"><ele>324.0</ele><time>2026-05-01T12:42:16.999Z</time></trkpt><trkpt lat="39.640700965575405" lon="8.55194222968853"><ele>324.0</ele><time>2026-05-01T12:42:18.999Z</time></trkpt><trkpt lat="39.64067796500695" lon="8.551784113881833"><ele>324.6666666666667</ele><time>2026-05-01T12:42:20.999Z</time></trkpt><trkpt lat="39.640690583234885" lon="8.551695518670721"><ele>325.3333333333333</ele><time>2026-05-01T12:42:21.999Z</time></trkpt><trkpt lat="39.640761110925794" lon="8.551555014943872"><ele>326.0</ele><time>2026-05-01T12:42:23.999Z</time></trkpt><trkpt lat="39.64077890172419" lon="8.551469296736323"><ele>326.66666666666663</ele><time>2026-05-01T12:42:24.999Z</time></trkpt><trkpt lat="39.64077894041546" lon="8.551359812393377"><ele>327.3333333333333</ele><time>2026-05-01T12:42:25.999Z</time></trkpt><trkpt lat="39.640786941179066" lon="8.551242563052279"><ele>328.0</ele><time>2026-05-01T12:42:26.999Z</time></trkpt><trkpt lat="39.64080635537767" lon="8.551105083605275"><ele>329.0</ele><time>2026-05-01T12:42:27.999Z</time></trkpt><trkpt lat="39.64082811816745" lon="8.550960731747415"><ele>330.0</ele><time>2026-05-01T12:42:28.999Z</time></trkpt><trkpt lat="39.64083994416936" lon="8.550815938246423"><ele>331.0</ele><time>2026-05-01T12:42:29.999Z</time></trkpt><trkpt lat="39.64085355722331" lon="8.550656478211614"><ele>332.0</ele><time>2026-05-01T12:42:30.999Z</time></trkpt><trkpt lat="39.64088223892687" lon="8.550524975174842"><ele>332.0</ele><time>2026-05-01T12:42:31.999Z</time></trkpt><trkpt lat="39.640889111906596" lon="8.550405107017465"><ele>332.0</ele><time>2026-05-01T12:42:32.999Z</time></trkpt><trkpt lat="39.64090499110384" lon="8.55028963902116"><ele>332.0</ele><time>2026-05-01T12:42:33.999Z</time></trkpt><trkpt lat="39.64092506444864" lon="8.550154473846069"><ele>332.0</ele><time>2026-05-01T12:42:34.999Z</time></trkpt><trkpt lat="39.64094117363278" lon="8.550011296116839"><ele>332.0</ele><time>2026-05-01T12:42:35.999Z</time></trkpt><trkpt lat="39.64095509858744" lon="8.54988457669537"><ele>333.6666666666667</ele><time>2026-05-01T12:42:36.999Z</time></trkpt><trkpt lat="39.640973643587316" lon="8.54980096851146"><ele>335.33333333333337</ele><time>2026-05-01T12:42:37.999Z</time></trkpt><trkpt lat="39.64101789016938" lon="8.549725101222752"><ele>337.0</ele><time>2026-05-01T12:42:38.999Z</time></trkpt><trkpt lat="39.64105202004538" lon="8.549635422115628"><ele>338.6666666666667</ele><time>2026-05-01T12:42:39.999Z</time></trkpt><trkpt lat="39.64106865837027" lon="8.549526771351264"><ele>340.3333333333333</ele><time>2026-05-01T12:42:40.999Z</time></trkpt><trkpt lat="39.64107955379458" lon="8.549419971752164"><ele>342.0</ele><time>2026-05-01T12:42:41.999Z</time></trkpt><trkpt lat="39.64106739408418" lon="8.549317519141225"><ele>342.8333333333333</ele><time>2026-05-01T12:42:42.999Z</time></trkpt><trkpt lat="39.64107932701733" lon="8.549231343692243"><ele>343.6666666666667</ele><time>2026-05-01T12:42:43.999Z</time></trkpt><trkpt lat="39.64111631270857" lon="8.549138268562928"><ele>344.5</ele><time>2026-05-01T12:42:44.999Z</time></trkpt><trkpt lat="39.64115631734342" lon="8.549051999112985"><ele>345.33333333333337</ele><time>2026-05-01T12:42:45.999Z</time></trkpt><trkpt lat="39.64118526355728" lon="8.548952442589771"><ele>346.1666666666667</ele><time>2026-05-01T12:42:46.999Z</time></trkpt><trkpt lat="39.641208744730555" lon="8.548843923941435"><ele>347.0</ele><time>2026-05-01T12:42:47.999Z</time></trkpt><trkpt lat="39.64122813990569" lon="8.548723253219288"><ele>348.6</ele><time>2026-05-01T12:42:48.999Z</time></trkpt><trkpt lat="39.64124162155489" lon="8.548606647990283"><ele>350.20000000000005</ele><time>2026-05-01T12:42:49.999Z</time></trkpt><trkpt lat="39.64123516331686" lon="8.548495790544484"><ele>351.8</ele><time>2026-05-01T12:42:50.999Z</time></trkpt><trkpt lat="39.64121859629323" lon="8.54836341528888"><ele>353.4</ele><time>2026-05-01T12:42:51.999Z</time></trkpt><trkpt lat="39.64121429363925" lon="8.548214107532818"><ele>355.0</ele><time>2026-05-01T12:42:52.999Z</time></trkpt><trkpt lat="39.641215058399716" lon="8.548072670876083"><ele>355.0</ele><time>2026-05-01T12:42:53.999Z</time></trkpt><trkpt lat="39.64119861969973" lon="8.547918818034693"><ele>355.0</ele><time>2026-05-01T12:42:54.999Z</time></trkpt><trkpt lat="39.6411844862024" lon="8.547782670247772"><ele>355.0</ele><time>2026-05-01T12:42:55.999Z</time></trkpt><trkpt lat="39.641175521576294" lon="8.547664678973193"><ele>355.0</ele><time>2026-05-01T12:42:56.999Z</time></trkpt><trkpt lat="39.641153091884185" lon="8.547528404830201"><ele>355.0</ele><time>2026-05-01T12:42:57.999Z</time></trkpt><trkpt lat="39.641125904401285" lon="8.54736747521256"><ele>356.0</ele><time>2026-05-01T12:42:58.999Z</time></trkpt><trkpt lat="39.64108694158002" lon="8.547202270942158"><ele>357.0</ele><time>2026-05-01T12:42:59.999Z</time></trkpt><trkpt lat="39.64106320272305" lon="8.54704450848219"><ele>358.0</ele><time>2026-05-01T12:43:00.999Z</time></trkpt><trkpt lat="39.64104908388823" lon="8.546880357806199"><ele>359.0</ele><time>2026-05-01T12:43:01.999Z</time></trkpt><trkpt lat="39.64104582369279" lon="8.546725364754524"><ele>360.75</ele><time>2026-05-01T12:43:02.999Z</time></trkpt><trkpt lat="39.64105277371771" lon="8.546571916967967"><ele>362.5</ele><time>2026-05-01T12:43:03.999Z</time></trkpt><trkpt lat="39.641062175722034" lon="8.546419171948179"><ele>364.25</ele><time>2026-05-01T12:43:04.999Z</time></trkpt><trkpt lat="39.64106748356583" lon="8.546250596090532"><ele>366.0</ele><time>2026-05-01T12:43:05.999Z</time></trkpt><trkpt lat="39.64106643097408" lon="8.546065903053197"><ele>366.75</ele><time>2026-05-01T12:43:06.999Z</time></trkpt><trkpt lat="39.64107873423369" lon="8.54587836769053"><ele>367.5</ele><time>2026-05-01T12:43:07.999Z</time></trkpt><trkpt lat="39.641102891643236" lon="8.54571201557598"><ele>368.25</ele><time>2026-05-01T12:43:08.999Z</time></trkpt><trkpt lat="39.64113639831058" lon="8.545555920308992"><ele>369.0</ele><time>2026-05-01T12:43:09.999Z</time></trkpt><trkpt lat="39.641166639559614" lon="8.545421134368011"><ele>368.2</ele><time>2026-05-01T12:43:10.999Z</time></trkpt><trkpt lat="39.64117054267535" lon="8.54532562145255"><ele>367.4</ele><time>2026-05-01T12:43:11.999Z</time></trkpt><trkpt lat="39.64117488161037" lon="8.545240662205758"><ele>366.6</ele><time>2026-05-01T12:43:12.999Z</time></trkpt><trkpt lat="39.64120292871775" lon="8.545096682127138"><ele>365.8</ele><time>2026-05-01T12:43:13.999Z</time></trkpt><trkpt lat="39.64123963590619" lon="8.544920525850301"><ele>365.0</ele><time>2026-05-01T12:43:14.999Z</time></trkpt><trkpt lat="39.64127913760081" lon="8.544727361673345"><ele>368.0</ele><time>2026-05-01T12:43:15.999Z</time></trkpt><trkpt lat="39.64131430370527" lon="8.544543033981395"><ele>371.0</ele><time>2026-05-01T12:43:16.999Z</time></trkpt><trkpt lat="39.641357209731304" lon="8.544356267605478"><ele>374.0</ele><time>2026-05-01T12:43:17.999Z</time></trkpt><trkpt lat="39.64140411335197" lon="8.544173670523842"><ele>377.0</ele><time>2026-05-01T12:43:18.999Z</time></trkpt><trkpt lat="39.64144916212134" lon="8.543995755872476"><ele>377.0</ele><time>2026-05-01T12:43:19.999Z</time></trkpt><trkpt lat="39.64147987635493" lon="8.543829641596886"><ele>377.0</ele><time>2026-05-01T12:43:20.999Z</time></trkpt><trkpt lat="39.64147996287734" lon="8.54368528310986"><ele>377.0</ele><time>2026-05-01T12:43:21.999Z</time></trkpt><trkpt lat="39.64148438121506" lon="8.543555734838058"><ele>377.0</ele><time>2026-05-01T12:43:22.999Z</time></trkpt><trkpt lat="39.641501414582685" lon="8.543426132316734"><ele>377.0</ele><time>2026-05-01T12:43:23.999Z</time></trkpt><trkpt lat="39.64152298638482" lon="8.543310574381849"><ele>380.0</ele><time>2026-05-01T12:43:24.999Z</time></trkpt><trkpt lat="39.64155518960809" lon="8.54318993464557"><ele>383.0</ele><time>2026-05-01T12:43:26Z</time></trkpt><trkpt lat="39.64158165845729" lon="8.543056487208567"><ele>386.0</ele><time>2026-05-01T12:43:27Z</time></trkpt><trkpt lat="39.641611824001714" lon="8.542915653172876"><ele>389.0</ele><time>2026-05-01T12:43:28Z</time></trkpt><trkpt lat="39.64162055785403" lon="8.54282739590344"><ele>392.0</ele><time>2026-05-01T12:43:29Z</time></trkpt><trkpt lat="39.6416282710203" lon="8.542744764917964"><ele>394.8</ele><time>2026-05-01T12:43:30Z</time></trkpt><trkpt lat="39.64165712828728" lon="8.542655577407519"><ele>397.6</ele><time>2026-05-01T12:43:31Z</time></trkpt><trkpt lat="39.64170288451013" lon="8.542536215848028"><ele>400.40000000000003</ele><time>2026-05-01T12:43:32Z</time></trkpt><trkpt lat="39.64174726898135" lon="8.542401675800225"><ele>403.20000000000005</ele><time>2026-05-01T12:43:33Z</time></trkpt><trkpt lat="39.64178149881879" lon="8.542279238047742"><ele>406.0</ele><time>2026-05-01T12:43:34Z</time></trkpt><trkpt lat="39.64182397705233" lon="8.542159185195084"><ele>406.33333333333337</ele><time>2026-05-01T12:43:35Z</time></trkpt><trkpt lat="39.641859508786816" lon="8.542037529569162"><ele>406.6666666666667</ele><time>2026-05-01T12:43:36Z</time></trkpt><trkpt lat="39.641889220616314" lon="8.541926128554943"><ele>407.0</ele><time>2026-05-01T12:43:37Z</time></trkpt><trkpt lat="39.64191356565334" lon="8.541829236138403"><ele>407.33333333333337</ele><time>2026-05-01T12:43:38Z</time></trkpt><trkpt lat="39.64192938703382" lon="8.541740699901892"><ele>407.6666666666667</ele><time>2026-05-01T12:43:39Z</time></trkpt><trkpt lat="39.64194270492215" lon="8.541653996494091"><ele>408.0</ele><time>2026-05-01T12:43:40Z</time></trkpt><trkpt lat="39.64196582703104" lon="8.541558823464083"><ele>408.0</ele><time>2026-05-01T12:43:41Z</time></trkpt><trkpt lat="39.642012045367295" lon="8.541467062687756"><ele>408.0</ele><time>2026-05-01T12:43:42Z</time></trkpt><trkpt lat="39.642067873520034" lon="8.541375166941899"><ele>408.0</ele><time>2026-05-01T12:43:43Z</time></trkpt><trkpt lat="39.64211465444744" lon="8.54126701140409"><ele>408.0</ele><time>2026-05-01T12:43:44Z</time></trkpt><trkpt lat="39.64215052953288" lon="8.541140045487445"><ele>408.0</ele><time>2026-05-01T12:43:45Z</time></trkpt><trkpt lat="39.64218739848514" lon="8.541024758361932"><ele>411.5</ele><time>2026-05-01T12:43:46Z</time></trkpt><trkpt lat="39.64222908186225" lon="8.540920101787622"><ele>415.0</ele><time>2026-05-01T12:43:47Z</time></trkpt><trkpt lat="39.64226787505485" lon="8.540831844801904"><ele>418.5</ele><time>2026-05-01T12:43:48Z</time></trkpt><trkpt lat="39.642302440802595" lon="8.540752042258005"><ele>422.0</ele><time>2026-05-01T12:43:49Z</time></trkpt><trkpt lat="39.64233415509732" lon="8.54064996853846"><ele>425.5</ele><time>2026-05-01T12:43:50Z</time></trkpt><trkpt lat="39.64236912503348" lon="8.540542660433815"><ele>429.0</ele><time>2026-05-01T12:43:51Z</time></trkpt><trkpt lat="39.64241727404594" lon="8.54042704517122"><ele>431.6</ele><time>2026-05-01T12:43:52Z</time></trkpt><trkpt lat="39.6424658348686" lon="8.540313510752998"><ele>434.2</ele><time>2026-05-01T12:43:53Z</time></trkpt><trkpt lat="39.642507430475966" lon="8.540208441636583"><ele>436.80000000000007</ele><time>2026-05-01T12:43:54Z</time></trkpt><trkpt lat="39.64254675540047" lon="8.540103012875285"><ele>439.40000000000003</ele><time>2026-05-01T12:43:55Z</time></trkpt><trkpt lat="39.64257768295257" lon="8.540016319651999"><ele>442.0</ele><time>2026-05-01T12:43:56Z</time></trkpt><trkpt lat="39.64262773431268" lon="8.539896246146515"><ele>442.00000000000006</ele><time>2026-05-01T12:43:58Z</time></trkpt><trkpt lat="39.64263862098377" lon="8.539790817710657"><ele>442.0</ele><time>2026-05-01T12:44:00Z</time></trkpt><trkpt lat="39.64262115477559" lon="8.539674088247494"><ele>442.0</ele><time>2026-05-01T12:44:02Z</time></trkpt><trkpt lat="39.64260362632042" lon="8.53953666233217"><ele>442.0</ele><time>2026-05-01T12:44:03.999Z</time></trkpt><trkpt lat="39.642597283086474" lon="8.539441804332426"><ele>442.00000000000006</ele><time>2026-05-01T12:44:04.999Z</time></trkpt><trkpt lat="39.64259076267258" lon="8.539327295556834"><ele>442.0</ele><time>2026-05-01T12:44:05.999Z</time></trkpt><trkpt lat="39.64259586599207" lon="8.539196686015728"><ele>442.8</ele><time>2026-05-01T12:44:06.999Z</time></trkpt><trkpt lat="39.64261335205848" lon="8.539054101881575"><ele>443.6</ele><time>2026-05-01T12:44:07.999Z</time></trkpt><trkpt lat="39.64263138029351" lon="8.5389085153672"><ele>444.40000000000003</ele><time>2026-05-01T12:44:08.999Z</time></trkpt><trkpt lat="39.642643706159326" lon="8.538775295979455"><ele>445.20000000000005</ele><time>2026-05-01T12:44:09.999Z</time></trkpt><trkpt lat="39.64265876277713" lon="8.538649650873925"><ele>446.0</ele><time>2026-05-01T12:44:10.999Z</time></trkpt><trkpt lat="39.642681008549" lon="8.538521644955244"><ele>447.0</ele><time>2026-05-01T12:44:11.999Z</time></trkpt><trkpt lat="39.64269578714164" lon="8.538396124236003"><ele>448.0</ele><time>2026-05-01T12:44:12.999Z</time></trkpt><trkpt lat="39.642710257375064" lon="8.538261037884238"><ele>449.0</ele><time>2026-05-01T12:44:13.999Z</time></trkpt><trkpt lat="39.64272064145989" lon="8.538116592495733"><ele>450.0</ele><time>2026-05-01T12:44:14.999Z</time></trkpt><trkpt lat="39.64271334366208" lon="8.537965393205535"><ele>451.0</ele><time>2026-05-01T12:44:15.999Z</time></trkpt><trkpt lat="39.64270402214869" lon="8.53782719009663"><ele>451.20000000000005</ele><time>2026-05-01T12:44:16.999Z</time></trkpt><trkpt lat="39.64271770867284" lon="8.537709074634632"><ele>451.40000000000003</ele><time>2026-05-01T12:44:17.999Z</time></trkpt><trkpt lat="39.64275527399402" lon="8.53757782155115"><ele>451.6</ele><time>2026-05-01T12:44:18.999Z</time></trkpt><trkpt lat="39.64279096724503" lon="8.537438600361778"><ele>451.8</ele><time>2026-05-01T12:44:19.999Z</time></trkpt><trkpt lat="39.64282299573155" lon="8.53729759036778"><ele>452.0</ele><time>2026-05-01T12:44:20.999Z</time></trkpt><trkpt lat="39.64286064764936" lon="8.537156528292913"><ele>452.75</ele><time>2026-05-01T12:44:21.999Z</time></trkpt><trkpt lat="39.642896231900124" lon="8.537008195114728"><ele>453.5</ele><time>2026-05-01T12:44:22.999Z</time></trkpt><trkpt lat="39.64292786078886" lon="8.536865768287653"><ele>454.25</ele><time>2026-05-01T12:44:23.999Z</time></trkpt><trkpt lat="39.642949812656504" lon="8.536719891719672"><ele>455.0</ele><time>2026-05-01T12:44:24.999Z</time></trkpt><trkpt lat="39.64297284187379" lon="8.536565484032838"><ele>455.0</ele><time>2026-05-01T12:44:25.999Z</time></trkpt><trkpt lat="39.64299512598936" lon="8.536418232926307"><ele>455.0</ele><time>2026-05-01T12:44:26.999Z</time></trkpt><trkpt lat="39.6430232867679" lon="8.53628001455206"><ele>455.0</ele><time>2026-05-01T12:44:27.999Z</time></trkpt><trkpt lat="39.643051970265226" lon="8.536142198972573"><ele>455.0</ele><time>2026-05-01T12:44:28.999Z</time></trkpt><trkpt lat="39.64308489247291" lon="8.536010440435428"><ele>455.0</ele><time>2026-05-01T12:44:29.999Z</time></trkpt><trkpt lat="39.64311882624926" lon="8.53589540397823"><ele>458.8333333333333</ele><time>2026-05-01T12:44:30.999Z</time></trkpt><trkpt lat="39.64314465975066" lon="8.535786913757514"><ele>462.66666666666663</ele><time>2026-05-01T12:44:31.999Z</time></trkpt><trkpt lat="39.64315790830052" lon="8.535683576735744"><ele>466.5</ele><time>2026-05-01T12:44:32.999Z</time></trkpt><trkpt lat="39.64318148360765" lon="8.535584741915983"><ele>470.33333333333337</ele><time>2026-05-01T12:44:33.999Z</time></trkpt><trkpt lat="39.643209518661294" lon="8.535494719814986"><ele>474.1666666666667</ele><time>2026-05-01T12:44:34.999Z</time></trkpt><trkpt lat="39.64323360735182" lon="8.535411820108985"><ele>478.0</ele><time>2026-05-01T12:44:35.999Z</time></trkpt><trkpt lat="39.643246569592215" lon="8.535317792416928"><ele>480.6666666666667</ele><time>2026-05-01T12:44:36.999Z</time></trkpt><trkpt lat="39.64326484800191" lon="8.535232326342008"><ele>483.33333333333337</ele><time>2026-05-01T12:44:37.999Z</time></trkpt><trkpt lat="39.64328254909328" lon="8.535149202785213"><ele>486.0</ele><time>2026-05-01T12:44:38.999Z</time></trkpt><trkpt lat="39.64328501438914" lon="8.535041567408387"><ele>488.66666666666663</ele><time>2026-05-01T12:44:39.999Z</time></trkpt><trkpt lat="39.64328797548571" lon="8.53491899099119"><ele>491.3333333333333</ele><time>2026-05-01T12:44:40.999Z</time></trkpt><trkpt lat="39.64329823163974" lon="8.534809703553325"><ele>494.0</ele><time>2026-05-01T12:44:41.999Z</time></trkpt><trkpt lat="39.64331678969511" lon="8.534709531746955"><ele>494.0</ele><time>2026-05-01T12:44:42.999Z</time></trkpt><trkpt lat="39.64333575208204" lon="8.534612420962127"><ele>494.0</ele><time>2026-05-01T12:44:43.999Z</time></trkpt><trkpt lat="39.64337031735073" lon="8.534534119014836"><ele>494.0</ele><time>2026-05-01T12:44:44.999Z</time></trkpt><trkpt lat="39.64344945723465" lon="8.534441796496678"><ele>494.0</ele><time>2026-05-01T12:44:45.999Z</time></trkpt><trkpt lat="39.64355391270083" lon="8.534347347124351"><ele>494.0</ele><time>2026-05-01T12:44:46.999Z</time></trkpt><trkpt lat="39.643670687596135" lon="8.534229364796197"><ele>498.3333333333333</ele><time>2026-05-01T12:44:47.999Z</time></trkpt><trkpt lat="39.64379530553362" lon="8.534097133198948"><ele>502.66666666666663</ele><time>2026-05-01T12:44:48.999Z</time></trkpt><trkpt lat="39.64392926313183" lon="8.533964687026742"><ele>507.0</ele><time>2026-05-01T12:44:49.999Z</time></trkpt><trkpt lat="39.64405799971897" lon="8.533849561857625"><ele>507.0</ele><time>2026-05-01T12:44:50.999Z</time></trkpt><trkpt lat="39.644171936448814" lon="8.533723148273907"><ele>507.0</ele><time>2026-05-01T12:44:51.999Z</time></trkpt><trkpt lat="39.64426005188467" lon="8.533615486327651"><ele>507.0</ele><time>2026-05-01T12:44:52.999Z</time></trkpt><trkpt lat="39.64433672355358" lon="8.533536437759032"><ele>507.0</ele><time>2026-05-01T12:44:53.999Z</time></trkpt><trkpt lat="39.644416424430055" lon="8.533452068159445"><ele>508.8</ele><time>2026-05-01T12:44:54.999Z</time></trkpt><trkpt lat="39.644497430021346" lon="8.53336605696306"><ele>510.6</ele><time>2026-05-01T12:44:55.999Z</time></trkpt><trkpt lat="39.64455481366877" lon="8.533312320506194"><ele>512.4000000000001</ele><time>2026-05-01T12:44:56.999Z</time></trkpt><trkpt lat="39.64464421569607" lon="8.533225023765704"><ele>514.2</ele><time>2026-05-01T12:44:58.999Z</time></trkpt><trkpt lat="39.64474697120393" lon="8.533133471609494"><ele>516.0</ele><time>2026-05-01T12:45:00.999Z</time></trkpt><trkpt lat="39.644882872910166" lon="8.533107688349775"><ele>516.0</ele><time>2026-05-01T12:45:02.999Z</time></trkpt><trkpt lat="39.64500743725897" lon="8.533100331033754"><ele>516.0</ele><time>2026-05-01T12:45:03.999Z</time></trkpt><trkpt lat="39.64512296490358" lon="8.533083452064373"><ele>516.0</ele><time>2026-05-01T12:45:04.999Z</time></trkpt><trkpt lat="39.64520783366773" lon="8.533052338889345"><ele>516.0</ele><time>2026-05-01T12:45:05.999Z</time></trkpt><trkpt lat="39.64530451381193" lon="8.533025013794814"><ele>516.0</ele><time>2026-05-01T12:45:06.999Z</time></trkpt><trkpt lat="39.645448570401605" lon="8.532996838597892"><ele>515.25</ele><time>2026-05-01T12:45:07.999Z</time></trkpt><trkpt lat="39.645586073853295" lon="8.532982273399657"><ele>514.5</ele><time>2026-05-01T12:45:08.999Z</time></trkpt><trkpt lat="39.64570184893283" lon="8.532967308898451"><ele>513.75</ele><time>2026-05-01T12:45:09.999Z</time></trkpt><trkpt lat="39.645806366167456" lon="8.532953137300332"><ele>513.0</ele><time>2026-05-01T12:45:10.999Z</time></trkpt><trkpt lat="39.64590042254316" lon="8.532930074263595"><ele>513.0</ele><time>2026-05-01T12:45:11.999Z</time></trkpt><trkpt lat="39.645987817715124" lon="8.532912531719719"><ele>513.0</ele><time>2026-05-01T12:45:12.999Z</time></trkpt><trkpt lat="39.64608757380501" lon="8.532902157150408"><ele>513.0</ele><time>2026-05-01T12:45:13.999Z</time></trkpt><trkpt lat="39.64621144226339" lon="8.532897495764358"><ele>513.0</ele><time>2026-05-01T12:45:14.999Z</time></trkpt><trkpt lat="39.64633031663262" lon="8.532894172864975"><ele>513.0</ele><time>2026-05-01T12:45:15.999Z</time></trkpt><trkpt lat="39.64643828358639" lon="8.53287553955885"><ele>515.4</ele><time>2026-05-01T12:45:16.999Z</time></trkpt><trkpt lat="39.646543138743596" lon="8.532833170698053"><ele>517.8</ele><time>2026-05-01T12:45:17.999Z</time></trkpt><trkpt lat="39.6466559344458" lon="8.532777021764705"><ele>520.2</ele><time>2026-05-01T12:45:18.999Z</time></trkpt><trkpt lat="39.64676609485656" lon="8.532745815020752"><ele>522.6</ele><time>2026-05-01T12:45:19.999Z</time></trkpt><trkpt lat="39.64686267849466" lon="8.53273464060544"><ele>525.0</ele><time>2026-05-01T12:45:20.999Z</time></trkpt><trkpt lat="39.64696051513196" lon="8.53273533116693"><ele>525.6</ele><time>2026-05-01T12:45:21.999Z</time></trkpt><trkpt lat="39.64708947192157" lon="8.532727198115554"><ele>526.2</ele><time>2026-05-01T12:45:22.999Z</time></trkpt><trkpt lat="39.64719984115811" lon="8.532722412435113"><ele>526.8</ele><time>2026-05-01T12:45:23.999Z</time></trkpt><trkpt lat="39.64727293142369" lon="8.532719643033928"><ele>527.4</ele><time>2026-05-01T12:45:24.999Z</time></trkpt><trkpt lat="39.647349052804984" lon="8.532732846364727"><ele>528.0</ele><time>2026-05-01T12:45:25.999Z</time></trkpt><trkpt lat="39.64746584092964" lon="8.532749890061568"><ele>528.0</ele><time>2026-05-01T12:45:26.999Z</time></trkpt><trkpt lat="39.647599499684574" lon="8.532770113313795"><ele>528.0</ele><time>2026-05-01T12:45:27.999Z</time></trkpt><trkpt lat="39.647730003202895" lon="8.5327979174228"><ele>528.0</ele><time>2026-05-01T12:45:28.999Z</time></trkpt><trkpt lat="39.64785124695778" lon="8.5328193253241"><ele>528.0</ele><time>2026-05-01T12:45:29.999Z</time></trkpt><trkpt lat="39.647950962506314" lon="8.532839350759142"><ele>529.0</ele><time>2026-05-01T12:45:30.999Z</time></trkpt><trkpt lat="39.648019659729805" lon="8.532840435388156"><ele>530.0</ele><time>2026-05-01T12:45:32Z</time></trkpt><trkpt lat="39.648103072829365" lon="8.53284011269382"><ele>531.0</ele><time>2026-05-01T12:45:33Z</time></trkpt><trkpt lat="39.64820524949832" lon="8.532852664684718"><ele>532.0</ele><time>2026-05-01T12:45:34Z</time></trkpt><trkpt lat="39.64830522918782" lon="8.5328720210432"><ele>533.0</ele><time>2026-05-01T12:45:35Z</time></trkpt><trkpt lat="39.64841629240528" lon="8.532889270702869"><ele>532.8333333333333</ele><time>2026-05-01T12:45:36Z</time></trkpt><trkpt lat="39.648533847420474" lon="8.532905387511624"><ele>532.6666666666666</ele><time>2026-05-01T12:45:37Z</time></trkpt><trkpt lat="39.64863716890743" lon="8.532908592341238"><ele>532.5</ele><time>2026-05-01T12:45:38Z</time></trkpt><trkpt lat="39.64871399686479" lon="8.532911539382303"><ele>532.3333333333334</ele><time>2026-05-01T12:45:39Z</time></trkpt><trkpt lat="39.648788108636985" lon="8.53292870407106"><ele>532.1666666666667</ele><time>2026-05-01T12:45:40Z</time></trkpt><trkpt lat="39.64885128128544" lon="8.532973928145026"><ele>532.0</ele><time>2026-05-01T12:45:41Z</time></trkpt><trkpt lat="39.64891327582546" lon="8.533005701896043"><ele>532.6</ele><time>2026-05-01T12:45:42Z</time></trkpt><trkpt lat="39.64898978223593" lon="8.533012984035915"><ele>533.2</ele><time>2026-05-01T12:45:43Z</time></trkpt><trkpt lat="39.64907674442225" lon="8.532993501491474"><ele>533.8</ele><time>2026-05-01T12:45:44Z</time></trkpt><trkpt lat="39.649172235394786" lon="8.53294282028632"><ele>534.4</ele><time>2026-05-01T12:45:45Z</time></trkpt><trkpt lat="39.64929828315893" lon="8.532871369575183"><ele>535.0</ele><time>2026-05-01T12:45:46Z</time></trkpt><trkpt lat="39.649440545422394" lon="8.53281038543109"><ele>535.25</ele><time>2026-05-01T12:45:47Z</time></trkpt><trkpt lat="39.64957379468364" lon="8.53277389694503"><ele>535.5</ele><time>2026-05-01T12:45:48Z</time></trkpt><trkpt lat="39.64972096267186" lon="8.532746865618458"><ele>535.75</ele><time>2026-05-01T12:45:49Z</time></trkpt><trkpt lat="39.649871739314094" lon="8.532697631854669"><ele>536.0</ele><time>2026-05-01T12:45:50Z</time></trkpt><trkpt lat="39.65001769954965" lon="8.532654167822168"><ele>536.0</ele><time>2026-05-01T12:45:51Z</time></trkpt><trkpt lat="39.6501511834358" lon="8.532621125491051"><ele>536.0</ele><time>2026-05-01T12:45:52Z</time></trkpt><trkpt lat="39.650278291214065" lon="8.532589979549495"><ele>536.0</ele><time>2026-05-01T12:45:53Z</time></trkpt><trkpt lat="39.65040736754715" lon="8.532538550740792"><ele>536.0</ele><time>2026-05-01T12:45:54Z</time></trkpt><trkpt lat="39.65054412128609" lon="8.532449804981981"><ele>537.0</ele><time>2026-05-01T12:45:55Z</time></trkpt><trkpt lat="39.650688768972" lon="8.532371168936965"><ele>538.0</ele><time>2026-05-01T12:45:56Z</time></trkpt><trkpt lat="39.65083911362809" lon="8.532311567140649"><ele>539.0</ele><time>2026-05-01T12:45:57Z</time></trkpt><trkpt lat="39.650986297541564" lon="8.532257925712116"><ele>539.25</ele><time>2026-05-01T12:45:58Z</time></trkpt><trkpt lat="39.65112911030675" lon="8.532213305433276"><ele>539.5</ele><time>2026-05-01T12:45:59Z</time></trkpt><trkpt lat="39.65127057979761" lon="8.532171356635844"><ele>539.75</ele><time>2026-05-01T12:46:00Z</time></trkpt><trkpt lat="39.65139212953939" lon="8.532132111001332"><ele>540.0</ele><time>2026-05-01T12:46:01Z</time></trkpt><trkpt lat="39.651485974295994" lon="8.53209873175041"><ele>540.0</ele><time>2026-05-01T12:46:02Z</time></trkpt><trkpt lat="39.65157956903015" lon="8.532076641751523"><ele>540.0</ele><time>2026-05-01T12:46:03Z</time></trkpt><trkpt lat="39.6516784230753" lon="8.532055852272642"><ele>540.0</ele><time>2026-05-01T12:46:04Z</time></trkpt><trkpt lat="39.65180758014397" lon="8.53200825935732"><ele>540.0</ele><time>2026-05-01T12:46:05Z</time></trkpt><trkpt lat="39.651932295048766" lon="8.531958740294911"><ele>539.25</ele><time>2026-05-01T12:46:06Z</time></trkpt><trkpt lat="39.65205941886064" lon="8.531910525045857"><ele>538.5</ele><time>2026-05-01T12:46:07Z</time></trkpt><trkpt lat="39.65218103604532" lon="8.531875342067433"><ele>537.75</ele><time>2026-05-01T12:46:08Z</time></trkpt><trkpt lat="39.652304082039684" lon="8.531841603588799"><ele>537.0</ele><time>2026-05-01T12:46:09Z</time></trkpt><trkpt lat="39.65243056923766" lon="8.531790352069933"><ele>537.0</ele><time>2026-05-01T12:46:10Z</time></trkpt><trkpt lat="39.65257724939116" lon="8.531710435536375"><ele>537.0</ele><time>2026-05-01T12:46:11Z</time></trkpt><trkpt lat="39.65270922250201" lon="8.53163955710579"><ele>537.0</ele><time>2026-05-01T12:46:12Z</time></trkpt><trkpt lat="39.65283734628445" lon="8.531574105486502"><ele>537.0</ele><time>2026-05-01T12:46:13Z</time></trkpt><trkpt lat="39.65296172354107" lon="8.53150369745773"><ele>536.25</ele><time>2026-05-01T12:46:14Z</time></trkpt><trkpt lat="39.653093247495555" lon="8.531415487029696"><ele>535.5</ele><time>2026-05-01T12:46:15Z</time></trkpt><trkpt lat="39.6532175237885" lon="8.531330058641512"><ele>534.75</ele><time>2026-05-01T12:46:15.999Z</time></trkpt><trkpt lat="39.653329456557636" lon="8.531264155655888"><ele>534.0</ele><time>2026-05-01T12:46:16.999Z</time></trkpt><trkpt lat="39.65341980025572" lon="8.531189756781252"><ele>534.0</ele><time>2026-05-01T12:46:17.999Z</time></trkpt><trkpt lat="39.65348025314222" lon="8.531105068745893"><ele>534.0</ele><time>2026-05-01T12:46:18.999Z</time></trkpt><trkpt lat="39.65351255821099" lon="8.531021692122849"><ele>534.0</ele><time>2026-05-01T12:46:19.999Z</time></trkpt><trkpt lat="39.65352736629322" lon="8.530938301823857"><ele>534.0</ele><time>2026-05-01T12:46:20.999Z</time></trkpt><trkpt lat="39.65352860297509" lon="8.530842806646824"><ele>534.0</ele><time>2026-05-01T12:46:21.999Z</time></trkpt><trkpt lat="39.6535271106222" lon="8.530705554637551"><ele>534.0</ele><time>2026-05-01T12:46:22.999Z</time></trkpt><trkpt lat="39.65354485590454" lon="8.53054246308102"><ele>532.0</ele><time>2026-05-01T12:46:23.999Z</time></trkpt><trkpt lat="39.65357087908839" lon="8.530356980046667"><ele>530.0</ele><time>2026-05-01T12:46:24.999Z</time></trkpt><trkpt lat="39.65360120015356" lon="8.5301667666691"><ele>528.0</ele><time>2026-05-01T12:46:25.999Z</time></trkpt><trkpt lat="39.653635654573115" lon="8.530008113467668"><ele>526.0</ele><time>2026-05-01T12:46:26.999Z</time></trkpt><trkpt lat="39.65366952957997" lon="8.529862787441937"><ele>523.75</ele><time>2026-05-01T12:46:27.999Z</time></trkpt><trkpt lat="39.65369375807088" lon="8.529721183247265"><ele>521.5</ele><time>2026-05-01T12:46:28.999Z</time></trkpt><trkpt lat="39.65371000946811" lon="8.529571907318616"><ele>519.25</ele><time>2026-05-01T12:46:29.999Z</time></trkpt><trkpt lat="39.65372575468698" lon="8.529406805740502"><ele>517.0</ele><time>2026-05-01T12:46:30.999Z</time></trkpt><trkpt lat="39.65374864313024" lon="8.52923224959221"><ele>516.0</ele><time>2026-05-01T12:46:31.999Z</time></trkpt><trkpt lat="39.65377715728938" lon="8.529058950544055"><ele>515.0</ele><time>2026-05-01T12:46:32.999Z</time></trkpt><trkpt lat="39.65381103832596" lon="8.528901034247113"><ele>514.0</ele><time>2026-05-01T12:46:33.999Z</time></trkpt><trkpt lat="39.65383656472603" lon="8.528750230759108"><ele>513.0</ele><time>2026-05-01T12:46:34.999Z</time></trkpt><trkpt lat="39.653855208243996" lon="8.528607506090204"><ele>513.0</ele><time>2026-05-01T12:46:35.999Z</time></trkpt><trkpt lat="39.653878280689284" lon="8.528476631520283"><ele>513.0</ele><time>2026-05-01T12:46:36.999Z</time></trkpt><trkpt lat="39.65391315508382" lon="8.528361730320912"><ele>513.0</ele><time>2026-05-01T12:46:37.999Z</time></trkpt><trkpt lat="39.653946492466495" lon="8.528230743026237"><ele>513.0</ele><time>2026-05-01T12:46:38.999Z</time></trkpt><trkpt lat="39.653977023984915" lon="8.528077884286835"><ele>513.0</ele><time>2026-05-01T12:46:39.999Z</time></trkpt><trkpt lat="39.65400458301867" lon="8.527963705132603"><ele>513.0</ele><time>2026-05-01T12:46:40.999Z</time></trkpt><trkpt lat="39.6540476567593" lon="8.527896044348159"><ele>513.0</ele><time>2026-05-01T12:46:42.999Z</time></trkpt><trkpt lat="39.6540809960758" lon="8.528000825927238"><ele>513.0</ele><time>2026-05-01T12:46:45.999Z</time></trkpt><trkpt lat="39.65405831194019" lon="8.52810630002761"><ele>513.0</ele><time>2026-05-01T12:46:47.999Z</time></trkpt><trkpt lat="39.65410680080481" lon="8.52828035986495"><ele>513.0</ele><time>2026-05-01T12:46:49.999Z</time></trkpt><trkpt lat="39.654143394472" lon="8.528391409898052"><ele>513.0</ele><time>2026-05-01T12:46:50.999Z</time></trkpt><trkpt lat="39.65417447647003" lon="8.52848592453412"><ele>513.0</ele><time>2026-05-01T12:46:51.999Z</time></trkpt><trkpt lat="39.65419978123348" lon="8.528585380823767"><ele>513.0</ele><time>2026-05-01T12:46:52.999Z</time></trkpt><trkpt lat="39.65421089934518" lon="8.52869566564616"><ele>513.0</ele><time>2026-05-01T12:46:53.999Z</time></trkpt><trkpt lat="39.654214967590946" lon="8.528803656456654"><ele>513.0</ele><time>2026-05-01T12:46:54.999Z</time></trkpt><trkpt lat="39.65421503643971" lon="8.528915122512378"><ele>513.0</ele><time>2026-05-01T12:46:55.999Z</time></trkpt><trkpt lat="39.65421208055685" lon="8.529027218754138"><ele>513.0</ele><time>2026-05-01T12:46:56.999Z</time></trkpt><trkpt lat="39.65421876762778" lon="8.529137462486961"><ele>513.0</ele><time>2026-05-01T12:46:57.999Z</time></trkpt><trkpt lat="39.6542409565158" lon="8.529245528674574"><ele>513.0</ele><time>2026-05-01T12:46:58.999Z</time></trkpt><trkpt lat="39.6542647667035" lon="8.529351220875453"><ele>513.0</ele><time>2026-05-01T12:46:59.999Z</time></trkpt><trkpt lat="39.65427579927379" lon="8.529456555762215"><ele>513.0</ele><time>2026-05-01T12:47:00.999Z</time></trkpt><trkpt lat="39.65431108636636" lon="8.52956447970069"><ele>513.0</ele><time>2026-05-01T12:47:01.999Z</time></trkpt><trkpt lat="39.65436360158378" lon="8.529654796988485"><ele>513.6666666666666</ele><time>2026-05-01T12:47:02.999Z</time></trkpt><trkpt lat="39.654423459915776" lon="8.52974440049097"><ele>514.3333333333334</ele><time>2026-05-01T12:47:03.999Z</time></trkpt><trkpt lat="39.654483399822404" lon="8.529822499221625"><ele>515.0</ele><time>2026-05-01T12:47:04.999Z</time></trkpt><trkpt lat="39.654559812588474" lon="8.529876623615845"><ele>515.6666666666667</ele><time>2026-05-01T12:47:05.999Z</time></trkpt><trkpt lat="39.654626065252586" lon="8.529949628669161"><ele>516.3333333333334</ele><time>2026-05-01T12:47:06.999Z</time></trkpt><trkpt lat="39.65467362963452" lon="8.530051564437478"><ele>517.0</ele><time>2026-05-01T12:47:07.999Z</time></trkpt><trkpt lat="39.6547011079698" lon="8.530149221999714"><ele>512.1666666666667</ele><time>2026-05-01T12:47:08.999Z</time></trkpt><trkpt lat="39.654736827873265" lon="8.530237599922003"><ele>507.33333333333337</ele><time>2026-05-01T12:47:09.999Z</time></trkpt><trkpt lat="39.654773607823515" lon="8.530312765138675"><ele>502.5</ele><time>2026-05-01T12:47:10.999Z</time></trkpt><trkpt lat="39.654816006017974" lon="8.530385858607659"><ele>497.66666666666663</ele><time>2026-05-01T12:47:11.999Z</time></trkpt><trkpt lat="39.65488620801483" lon="8.530450953093315"><ele>492.8333333333333</ele><time>2026-05-01T12:47:12.999Z</time></trkpt><trkpt lat="39.65495472000363" lon="8.530522710323604"><ele>488.0</ele><time>2026-05-01T12:47:13.999Z</time></trkpt><trkpt lat="39.65499924944949" lon="8.530628220019173"><ele>487.79999999999995</ele><time>2026-05-01T12:47:14.999Z</time></trkpt><trkpt lat="39.65503082324231" lon="8.530736120401494"><ele>487.59999999999997</ele><time>2026-05-01T12:47:15.999Z</time></trkpt><trkpt lat="39.655045955140686" lon="8.530859710672754"><ele>487.40000000000003</ele><time>2026-05-01T12:47:16.999Z</time></trkpt><trkpt lat="39.65504833548316" lon="8.530984362536481"><ele>487.20000000000005</ele><time>2026-05-01T12:47:17.999Z</time></trkpt><trkpt lat="39.65503593690247" lon="8.531102536641683"><ele>487.0</ele><time>2026-05-01T12:47:18.999Z</time></trkpt><trkpt lat="39.65501181884865" lon="8.531218529802908"><ele>486.50000000000006</ele><time>2026-05-01T12:47:19.999Z</time></trkpt><trkpt lat="39.654970303858974" lon="8.531324026387178"><ele>486.0</ele><time>2026-05-01T12:47:20.999Z</time></trkpt><trkpt lat="39.65493638775819" lon="8.531419414386786"><ele>485.5</ele><time>2026-05-01T12:47:21.999Z</time></trkpt><trkpt lat="39.65493308164817" lon="8.53151898991225"><ele>485.0</ele><time>2026-05-01T12:47:22.999Z</time></trkpt><trkpt lat="39.65495229442482" lon="8.531614054081073"><ele>484.50000000000006</ele><time>2026-05-01T12:47:23.999Z</time></trkpt><trkpt lat="39.65499095691517" lon="8.531700424541407"><ele>484.0</ele><time>2026-05-01T12:47:24.999Z</time></trkpt><trkpt lat="39.6550507306924" lon="8.53177423415629"><ele>484.0</ele><time>2026-05-01T12:47:25.999Z</time></trkpt><trkpt lat="39.65511604477256" lon="8.531867120348773"><ele>484.0</ele><time>2026-05-01T12:47:26.999Z</time></trkpt><trkpt lat="39.65515603183785" lon="8.531981291057734"><ele>484.0</ele><time>2026-05-01T12:47:27.999Z</time></trkpt><trkpt lat="39.65518793446735" lon="8.532097640202416"><ele>484.0</ele><time>2026-05-01T12:47:28.999Z</time></trkpt><trkpt lat="39.65521914773357" lon="8.532210998496506"><ele>484.0</ele><time>2026-05-01T12:47:29.999Z</time></trkpt><trkpt lat="39.65525878806702" lon="8.53231536730986"><ele>479.00000000000006</ele><time>2026-05-01T12:47:30.999Z</time></trkpt><trkpt lat="39.65530332676061" lon="8.532418562705798"><ele>474.0</ele><time>2026-05-01T12:47:31.999Z</time></trkpt><trkpt lat="39.65534531646521" lon="8.532522347068424"><ele>469.0</ele><time>2026-05-01T12:47:32.999Z</time></trkpt><trkpt lat="39.65539143380367" lon="8.532622443829352"><ele>464.0</ele><time>2026-05-01T12:47:33.999Z</time></trkpt><trkpt lat="39.65543734789031" lon="8.532714623334956"><ele>459.00000000000006</ele><time>2026-05-01T12:47:34.999Z</time></trkpt><trkpt lat="39.65548625473174" lon="8.53280897267479"><ele>454.0</ele><time>2026-05-01T12:47:35.999Z</time></trkpt><trkpt lat="39.65553238488397" lon="8.532899417799547"><ele>454.00000000000006</ele><time>2026-05-01T12:47:36.999Z</time></trkpt><trkpt lat="39.65558190579164" lon="8.532987293548178"><ele>454.0</ele><time>2026-05-01T12:47:38Z</time></trkpt><trkpt lat="39.65562858392492" lon="8.53307716577037"><ele>454.0</ele><time>2026-05-01T12:47:39Z</time></trkpt><trkpt lat="39.65566477040429" lon="8.533174127529186"><ele>454.0</ele><time>2026-05-01T12:47:40Z</time></trkpt><trkpt lat="39.655694623528106" lon="8.533277624933703"><ele>454.00000000000006</ele><time>2026-05-01T12:47:41Z</time></trkpt><trkpt lat="39.655720650300246" lon="8.533380880614049"><ele>454.0</ele><time>2026-05-01T12:47:42Z</time></trkpt><trkpt lat="39.655744495851046" lon="8.533483830951617"><ele>454.00000000000006</ele><time>2026-05-01T12:47:43Z</time></trkpt><trkpt lat="39.65576123732379" lon="8.533587413291054"><ele>454.0</ele><time>2026-05-01T12:47:44Z</time></trkpt><trkpt lat="39.65576285591301" lon="8.533693940717272"><ele>454.0</ele><time>2026-05-01T12:47:45Z</time></trkpt><trkpt lat="39.655746060657314" lon="8.533803481049091"><ele>454.0</ele><time>2026-05-01T12:47:46Z</time></trkpt><trkpt lat="39.65574423011618" lon="8.533906419988993"><ele>454.00000000000006</ele><time>2026-05-01T12:47:47Z</time></trkpt><trkpt lat="39.655769198733395" lon="8.53400875420503"><ele>454.0</ele><time>2026-05-01T12:47:48Z</time></trkpt><trkpt lat="39.6558183304291" lon="8.534107587369371"><ele>454.00000000000006</ele><time>2026-05-01T12:47:49Z</time></trkpt><trkpt lat="39.655863152717025" lon="8.534202840843443"><ele>454.0</ele><time>2026-05-01T12:47:50Z</time></trkpt><trkpt lat="39.65589882302034" lon="8.534298492199705"><ele>454.0</ele><time>2026-05-01T12:47:51Z</time></trkpt><trkpt lat="39.65592220160406" lon="8.534402618310265"><ele>454.0</ele><time>2026-05-01T12:47:52Z</time></trkpt><trkpt lat="39.655938083154446" lon="8.534510455631034"><ele>454.00000000000006</ele><time>2026-05-01T12:47:53Z</time></trkpt><trkpt lat="39.65594950775488" lon="8.53461690772732"><ele>454.0</ele><time>2026-05-01T12:47:54Z</time></trkpt><trkpt lat="39.655955488629736" lon="8.534720293472313"><ele>452.28571428571433</ele><time>2026-05-01T12:47:55Z</time></trkpt><trkpt lat="39.65594889382493" lon="8.534817945008992"><ele>450.5714285714286</ele><time>2026-05-01T12:47:56Z</time></trkpt><trkpt lat="39.655933633657185" lon="8.534906814259529"><ele>448.8571428571429</ele><time>2026-05-01T12:47:57Z</time></trkpt><trkpt lat="39.655905593376126" lon="8.534984650396646"><ele>447.14285714285717</ele><time>2026-05-01T12:47:58Z</time></trkpt><trkpt lat="39.65585645960631" lon="8.535041621099703"><ele>445.42857142857144</ele><time>2026-05-01T12:47:59Z</time></trkpt><trkpt lat="39.65578458817985" lon="8.5350759392611"><ele>443.7142857142858</ele><time>2026-05-01T12:48:00Z</time></trkpt><trkpt lat="39.6556984879106" lon="8.535099671009709"><ele>442.0</ele><time>2026-05-01T12:48:01Z</time></trkpt><trkpt lat="39.65561019368425" lon="8.535135163332225"><ele>442.00000000000006</ele><time>2026-05-01T12:48:02Z</time></trkpt><trkpt lat="39.65553242120383" lon="8.535184719835645"><ele>442.0</ele><time>2026-05-01T12:48:03Z</time></trkpt><trkpt lat="39.65546246608385" lon="8.535251162865155"><ele>442.0</ele><time>2026-05-01T12:48:04Z</time></trkpt><trkpt lat="39.65539660521398" lon="8.535321581987075"><ele>442.0</ele><time>2026-05-01T12:48:05Z</time></trkpt><trkpt lat="39.65532870840935" lon="8.5353861248289"><ele>442.00000000000006</ele><time>2026-05-01T12:48:06Z</time></trkpt><trkpt lat="39.65526340894944" lon="8.535457059932405"><ele>442.0</ele><time>2026-05-01T12:48:07Z</time></trkpt><trkpt lat="39.655210358813356" lon="8.535538254371284"><ele>440.40000000000003</ele><time>2026-05-01T12:48:08Z</time></trkpt><trkpt lat="39.65517054718447" lon="8.535635511876043"><ele>438.80000000000007</ele><time>2026-05-01T12:48:09Z</time></trkpt><trkpt lat="39.65513959752244" lon="8.535737229952437"><ele>437.2</ele><time>2026-05-01T12:48:10Z</time></trkpt><trkpt lat="39.65510766145014" lon="8.535840771438941"><ele>435.6</ele><time>2026-05-01T12:48:11Z</time></trkpt><trkpt lat="39.65505804124312" lon="8.535956153438887"><ele>434.0</ele><time>2026-05-01T12:48:12Z</time></trkpt><trkpt lat="39.655014433593955" lon="8.536073369996751"><ele>433.99999999999994</ele><time>2026-05-01T12:48:13Z</time></trkpt><trkpt lat="39.65497453958578" lon="8.536185731492028"><ele>434.0</ele><time>2026-05-01T12:48:14Z</time></trkpt><trkpt lat="39.65494539417463" lon="8.53628399002736"><ele>434.0</ele><time>2026-05-01T12:48:15Z</time></trkpt><trkpt lat="39.65492947803411" lon="8.53637797011635"><ele>434.0</ele><time>2026-05-01T12:48:16Z</time></trkpt><trkpt lat="39.65493044320056" lon="8.53648478944221"><ele>433.99999999999994</ele><time>2026-05-01T12:48:17Z</time></trkpt><trkpt lat="39.654940056576926" lon="8.536603640512185"><ele>434.0</ele><time>2026-05-01T12:48:18Z</time></trkpt><trkpt lat="39.65492890836655" lon="8.536733987698627"><ele>431.6</ele><time>2026-05-01T12:48:19Z</time></trkpt><trkpt lat="39.65490493666703" lon="8.536858866446845"><ele>429.2</ele><time>2026-05-01T12:48:20Z</time></trkpt><trkpt lat="39.654872467340375" lon="8.536981195816205"><ele>426.8</ele><time>2026-05-01T12:48:21Z</time></trkpt><trkpt lat="39.6548332123913" lon="8.537117000256245"><ele>424.40000000000003</ele><time>2026-05-01T12:48:22Z</time></trkpt><trkpt lat="39.654793288303836" lon="8.537241402370256"><ele>422.0</ele><time>2026-05-01T12:48:23Z</time></trkpt><trkpt lat="39.654744760388986" lon="8.537356551938315"><ele>420.3333333333333</ele><time>2026-05-01T12:48:24Z</time></trkpt><trkpt lat="39.654685184143254" lon="8.537475056280908"><ele>418.66666666666663</ele><time>2026-05-01T12:48:25Z</time></trkpt><trkpt lat="39.65462203197109" lon="8.537580569146645"><ele>417.0</ele><time>2026-05-01T12:48:26Z</time></trkpt><trkpt lat="39.65456619398141" lon="8.53766731868161"><ele>415.33333333333337</ele><time>2026-05-01T12:48:27Z</time></trkpt><trkpt lat="39.65451150988788" lon="8.537725470215175"><ele>413.6666666666667</ele><time>2026-05-01T12:48:28Z</time></trkpt><trkpt lat="39.654456610209614" lon="8.537773901757708"><ele>412.0</ele><time>2026-05-01T12:48:28.999Z</time></trkpt><trkpt lat="39.65440243730736" lon="8.537837502650623"><ele>410.83333333333337</ele><time>2026-05-01T12:48:29.999Z</time></trkpt><trkpt lat="39.65435338917577" lon="8.537913640230274"><ele>409.6666666666667</ele><time>2026-05-01T12:48:30.999Z</time></trkpt><trkpt lat="39.65430219395688" lon="8.53799516783392"><ele>408.5</ele><time>2026-05-01T12:48:31.999Z</time></trkpt><trkpt lat="39.65423882499697" lon="8.538068221131173"><ele>407.33333333333337</ele><time>2026-05-01T12:48:32.999Z</time></trkpt><trkpt lat="39.65418314152542" lon="8.538143526523495"><ele>406.1666666666667</ele><time>2026-05-01T12:48:33.999Z</time></trkpt><trkpt lat="39.65413286455941" lon="8.538229868110358"><ele>405.0</ele><time>2026-05-01T12:48:34.999Z</time></trkpt><trkpt lat="39.65408225788881" lon="8.538321390602903"><ele>405.0</ele><time>2026-05-01T12:48:35.999Z</time></trkpt><trkpt lat="39.654030512803516" lon="8.538416641088812"><ele>405.0</ele><time>2026-05-01T12:48:36.999Z</time></trkpt><trkpt lat="39.653975884661584" lon="8.538502733073011"><ele>405.0</ele><time>2026-05-01T12:48:37.999Z</time></trkpt><trkpt lat="39.653917678950805" lon="8.53859398986401"><ele>405.0</ele><time>2026-05-01T12:48:38.999Z</time></trkpt><trkpt lat="39.65386400614358" lon="8.538681126086113"><ele>405.0</ele><time>2026-05-01T12:48:39.999Z</time></trkpt><trkpt lat="39.653814230474296" lon="8.538777379100514"><ele>405.0</ele><time>2026-05-01T12:48:40.999Z</time></trkpt><trkpt lat="39.65377108318277" lon="8.53887844225208"><ele>404.0</ele><time>2026-05-01T12:48:41.999Z</time></trkpt><trkpt lat="39.65373346537017" lon="8.538980495210748"><ele>403.0</ele><time>2026-05-01T12:48:42.999Z</time></trkpt><trkpt lat="39.65369326511252" lon="8.539080601630477"><ele>402.0</ele><time>2026-05-01T12:48:43.999Z</time></trkpt><trkpt lat="39.653662106634876" lon="8.539181436660183"><ele>401.0</ele><time>2026-05-01T12:48:44.999Z</time></trkpt><trkpt lat="39.653636290985865" lon="8.539279865182946"><ele>400.0</ele><time>2026-05-01T12:48:45.999Z</time></trkpt><trkpt lat="39.65361297927393" lon="8.539388627459305"><ele>399.0</ele><time>2026-05-01T12:48:46.999Z</time></trkpt><trkpt lat="39.65360201292011" lon="8.539502342056172"><ele>396.1666666666667</ele><time>2026-05-01T12:48:47.999Z</time></trkpt><trkpt lat="39.6535844174079" lon="8.539608821386086"><ele>393.3333333333333</ele><time>2026-05-01T12:48:48.999Z</time></trkpt><trkpt lat="39.65357898606178" lon="8.539717692168615"><ele>390.5</ele><time>2026-05-01T12:48:49.999Z</time></trkpt><trkpt lat="39.65359377635186" lon="8.539824478278714"><ele>387.66666666666663</ele><time>2026-05-01T12:48:50.999Z</time></trkpt><trkpt lat="39.6536341264341" lon="8.539919099342479"><ele>384.8333333333333</ele><time>2026-05-01T12:48:51.999Z</time></trkpt><trkpt lat="39.65369230111085" lon="8.54001541059644"><ele>382.0</ele><time>2026-05-01T12:48:52.999Z</time></trkpt><trkpt lat="39.65375418866263" lon="8.540105804686906"><ele>382.0</ele><time>2026-05-01T12:48:53.999Z</time></trkpt><trkpt lat="39.65381603018241" lon="8.540175187075437"><ele>382.0</ele><time>2026-05-01T12:48:54.999Z</time></trkpt><trkpt lat="39.65389204969507" lon="8.540208435635614"><ele>382.0</ele><time>2026-05-01T12:48:55.999Z</time></trkpt><trkpt lat="39.65397526512549" lon="8.540204825937575"><ele>382.0</ele><time>2026-05-01T12:48:56.999Z</time></trkpt><trkpt lat="39.654056412085694" lon="8.540163859576847"><ele>382.0</ele><time>2026-05-01T12:48:57.999Z</time></trkpt><trkpt lat="39.65412549446732" lon="8.540110726629896"><ele>382.0</ele><time>2026-05-01T12:48:58.999Z</time></trkpt><trkpt lat="39.6541892684921" lon="8.540094745666396"><ele>382.0</ele><time>2026-05-01T12:48:59.999Z</time></trkpt><trkpt lat="39.65424775436271" lon="8.540140650661424"><ele>382.0</ele><time>2026-05-01T12:49:00.999Z</time></trkpt><trkpt lat="39.65429653505468" lon="8.54020591129322"><ele>382.0</ele><time>2026-05-01T12:49:01.999Z</time></trkpt><trkpt lat="39.65436060767403" lon="8.540240742884093"><ele>382.0</ele><time>2026-05-01T12:49:02.999Z</time></trkpt><trkpt lat="39.65445459810099" lon="8.54025190131084"><ele>382.0</ele><time>2026-05-01T12:49:03.999Z</time></trkpt><trkpt lat="39.654561513190366" lon="8.540251625085377"><ele>382.0</ele><time>2026-05-01T12:49:04.999Z</time></trkpt><trkpt lat="39.654654323128206" lon="8.54026824256564"><ele>380.7142857142857</ele><time>2026-05-01T12:49:05.999Z</time></trkpt><trkpt lat="39.65473069125184" lon="8.540290860210682"><ele>379.4285714285714</ele><time>2026-05-01T12:49:06.999Z</time></trkpt><trkpt lat="39.65480406279171" lon="8.54029720561104"><ele>378.1428571428571</ele><time>2026-05-01T12:49:07.999Z</time></trkpt><trkpt lat="39.65487633762584" lon="8.540282208828366"><ele>376.8571428571429</ele><time>2026-05-01T12:49:08.999Z</time></trkpt><trkpt lat="39.654951891481204" lon="8.540263336540109"><ele>375.57142857142856</ele><time>2026-05-01T12:49:09.999Z</time></trkpt><trkpt lat="39.655026596419304" lon="8.54025770496694"><ele>374.2857142857143</ele><time>2026-05-01T12:49:10.999Z</time></trkpt><trkpt lat="39.65509885636551" lon="8.540264552173799"><ele>373.0</ele><time>2026-05-01T12:49:11.999Z</time></trkpt><trkpt lat="39.6551735278458" lon="8.540267513724705"><ele>373.0</ele><time>2026-05-01T12:49:12.999Z</time></trkpt><trkpt lat="39.65524849691272" lon="8.540268993437671"><ele>373.0</ele><time>2026-05-01T12:49:13.999Z</time></trkpt><trkpt lat="39.65532474201186" lon="8.540262839179892"><ele>373.0</ele><time>2026-05-01T12:49:14.999Z</time></trkpt><trkpt lat="39.655399167240574" lon="8.540254901274752"><ele>373.0</ele><time>2026-05-01T12:49:15.999Z</time></trkpt><trkpt lat="39.65547452658575" lon="8.540257079070159"><ele>373.0</ele><time>2026-05-01T12:49:16.999Z</time></trkpt><trkpt lat="39.655547438494246" lon="8.540258085513557"><ele>373.0</ele><time>2026-05-01T12:49:17.999Z</time></trkpt><trkpt lat="39.655611036483045" lon="8.540235558369483"><ele>373.0</ele><time>2026-05-01T12:49:18.999Z</time></trkpt><trkpt lat="39.65567321315621" lon="8.540192638882985"><ele>369.3333333333333</ele><time>2026-05-01T12:49:19.999Z</time></trkpt><trkpt lat="39.655720624271225" lon="8.54012972584379"><ele>365.66666666666663</ele><time>2026-05-01T12:49:20.999Z</time></trkpt><trkpt lat="39.65578995307865" lon="8.54004359475636"><ele>362.0</ele><time>2026-05-01T12:49:22.999Z</time></trkpt><trkpt lat="39.655856835249324" lon="8.540126748037183"><ele>358.3333333333333</ele><time>2026-05-01T12:49:24.999Z</time></trkpt><trkpt lat="39.65586355815098" lon="8.540208115515002"><ele>354.6666666666667</ele><time>2026-05-01T12:49:25.999Z</time></trkpt><trkpt lat="39.655845503086006" lon="8.540299390344938"><ele>351.0</ele><time>2026-05-01T12:49:26.999Z</time></trkpt><trkpt lat="39.655807013187214" lon="8.540397308692773"><ele>348.4</ele><time>2026-05-01T12:49:27.999Z</time></trkpt><trkpt lat="39.655750331078444" lon="8.540488288420619"><ele>345.8</ele><time>2026-05-01T12:49:28.999Z</time></trkpt><trkpt lat="39.65568204149835" lon="8.54058630008237"><ele>343.2</ele><time>2026-05-01T12:49:29.999Z</time></trkpt><trkpt lat="39.65561563689479" lon="8.540676646678572"><ele>340.59999999999997</ele><time>2026-05-01T12:49:30.999Z</time></trkpt><trkpt lat="39.65554568909798" lon="8.540750122192417"><ele>338.0</ele><time>2026-05-01T12:49:31.999Z</time></trkpt><trkpt lat="39.65546954123221" lon="8.540793015538675"><ele>338.0</ele><time>2026-05-01T12:49:32.999Z</time></trkpt><trkpt lat="39.65539150338101" lon="8.540803884247644"><ele>338.0</ele><time>2026-05-01T12:49:33.999Z</time></trkpt><trkpt lat="39.655319689500935" lon="8.540806937212682"><ele>338.0</ele><time>2026-05-01T12:49:34.999Z</time></trkpt><trkpt lat="39.655263308154375" lon="8.540934490182703"><ele>338.0</ele><time>2026-05-01T12:49:36.999Z</time></trkpt><trkpt lat="39.65526452567779" lon="8.54104659268333"><ele>338.0</ele><time>2026-05-01T12:49:37.999Z</time></trkpt><trkpt lat="39.65524459038578" lon="8.541175901305403"><ele>338.0</ele><time>2026-05-01T12:49:38.999Z</time></trkpt><trkpt lat="39.65520479666778" lon="8.54131582663487"><ele>338.0</ele><time>2026-05-01T12:49:39.999Z</time></trkpt><trkpt lat="39.65515937460803" lon="8.541438859543886"><ele>338.0</ele><time>2026-05-01T12:49:40.999Z</time></trkpt><trkpt lat="39.65510882065697" lon="8.541550769988357"><ele>338.0</ele><time>2026-05-01T12:49:41.999Z</time></trkpt><trkpt lat="39.65504634974834" lon="8.541643558124012"><ele>338.0</ele><time>2026-05-01T12:49:42.999Z</time></trkpt><trkpt lat="39.65497412905549" lon="8.54172214665233"><ele>338.0</ele><time>2026-05-01T12:49:44Z</time></trkpt><trkpt lat="39.65488889146632" lon="8.541794672112777"><ele>338.0</ele><time>2026-05-01T12:49:45Z</time></trkpt><trkpt lat="39.654798327012756" lon="8.541858713437463"><ele>338.0</ele><time>2026-05-01T12:49:46Z</time></trkpt><trkpt lat="39.654713071975" lon="8.54190594456076"><ele>338.0</ele><time>2026-05-01T12:49:47Z</time></trkpt><trkpt lat="39.654632999658155" lon="8.541911944334384"><ele>338.0</ele><time>2026-05-01T12:49:48Z</time></trkpt><trkpt lat="39.65456960008314" lon="8.541900537373607"><ele>338.0</ele><time>2026-05-01T12:49:49Z</time></trkpt><trkpt lat="39.65450391658809" lon="8.541982451038889"><ele>335.0</ele><time>2026-05-01T12:49:51Z</time></trkpt><trkpt lat="39.65451782331735" lon="8.542082921331321"><ele>332.0</ele><time>2026-05-01T12:49:52Z</time></trkpt><trkpt lat="39.65453994932046" lon="8.54220523802822"><ele>329.0</ele><time>2026-05-01T12:49:53Z</time></trkpt><trkpt lat="39.65456611134669" lon="8.542322248607988"><ele>326.0</ele><time>2026-05-01T12:49:54Z</time></trkpt><trkpt lat="39.654603739697805" lon="8.542427113906031"><ele>323.0</ele><time>2026-05-01T12:49:55Z</time></trkpt><trkpt lat="39.65464518483613" lon="8.542529994088195"><ele>320.0</ele><time>2026-05-01T12:49:56Z</time></trkpt><trkpt lat="39.654673452940955" lon="8.542626899608175"><ele>320.0</ele><time>2026-05-01T12:49:57Z</time></trkpt><trkpt lat="39.6546763114516" lon="8.542736256544408"><ele>320.0</ele><time>2026-05-01T12:49:58Z</time></trkpt><trkpt lat="39.65464166513077" lon="8.5428335805216"><ele>320.0</ele><time>2026-05-01T12:49:59Z</time></trkpt><trkpt lat="39.65458985499792" lon="8.542921450583282"><ele>320.0</ele><time>2026-05-01T12:50:00Z</time></trkpt><trkpt lat="39.65452602532351" lon="8.543022350856624"><ele>320.0</ele><time>2026-05-01T12:50:01Z</time></trkpt><trkpt lat="39.654464619670605" lon="8.543121396578465"><ele>319.83333333333337</ele><time>2026-05-01T12:50:02Z</time></trkpt><trkpt lat="39.65440869362852" lon="8.543217311679056"><ele>319.6666666666667</ele><time>2026-05-01T12:50:03Z</time></trkpt><trkpt lat="39.654349186764" lon="8.543304635402157"><ele>319.5</ele><time>2026-05-01T12:50:04Z</time></trkpt><trkpt lat="39.65428513745448" lon="8.543377953028605"><ele>319.3333333333333</ele><time>2026-05-01T12:50:05Z</time></trkpt><trkpt lat="39.65422610239652" lon="8.543459253019842"><ele>319.16666666666663</ele><time>2026-05-01T12:50:06Z</time></trkpt><trkpt lat="39.65418371881274" lon="8.54356328639573"><ele>319.0</ele><time>2026-05-01T12:50:07Z</time></trkpt><trkpt lat="39.65416101725974" lon="8.5436630881637"><ele>317.0</ele><time>2026-05-01T12:50:08Z</time></trkpt><trkpt lat="39.65413452228076" lon="8.543747332301946"><ele>315.0</ele><time>2026-05-01T12:50:09Z</time></trkpt><trkpt lat="39.65411132572085" lon="8.543824432646327"><ele>313.0</ele><time>2026-05-01T12:50:10Z</time></trkpt><trkpt lat="39.65410269176581" lon="8.543911536548693"><ele>311.0</ele><time>2026-05-01T12:50:11Z</time></trkpt><trkpt lat="39.654108047832" lon="8.544004799026908"><ele>309.0</ele><time>2026-05-01T12:50:12Z</time></trkpt><trkpt lat="39.65412150319488" lon="8.544101537415441"><ele>307.0</ele><time>2026-05-01T12:50:13Z</time></trkpt><trkpt lat="39.65414857254715" lon="8.544190305276429"><ele>305.0</ele><time>2026-05-01T12:50:14Z</time></trkpt><trkpt lat="39.65423177048531" lon="8.544289858395492"><ele>305.0</ele><time>2026-05-01T12:50:16Z</time></trkpt><trkpt lat="39.65433845464193" lon="8.54421504909409"><ele>305.0</ele><time>2026-05-01T12:50:18Z</time></trkpt><trkpt lat="39.6543863180017" lon="8.544126581436474"><ele>305.0</ele><time>2026-05-01T12:50:19Z</time></trkpt><trkpt lat="39.654454381510995" lon="8.544029067017568"><ele>305.0</ele><time>2026-05-01T12:50:20Z</time></trkpt><trkpt lat="39.65451806232193" lon="8.543946676016532"><ele>305.0</ele><time>2026-05-01T12:50:21Z</time></trkpt><trkpt lat="39.65456881184303" lon="8.543891025282374"><ele>302.6666666666667</ele><time>2026-05-01T12:50:22Z</time></trkpt><trkpt lat="39.65464749629857" lon="8.5438940795444"><ele>300.33333333333337</ele><time>2026-05-01T12:50:24Z</time></trkpt><trkpt lat="39.654650418774224" lon="8.54403289039528"><ele>298.0</ele><time>2026-05-01T12:50:26Z</time></trkpt><trkpt lat="39.65461694265501" lon="8.544134669667303"><ele>295.6666666666667</ele><time>2026-05-01T12:50:27Z</time></trkpt><trkpt lat="39.654588251650296" lon="8.544234109260845"><ele>293.3333333333333</ele><time>2026-05-01T12:50:28Z</time></trkpt><trkpt lat="39.65459698767143" lon="8.54432314098053"><ele>291.0</ele><time>2026-05-01T12:50:29Z</time></trkpt><trkpt lat="39.65463648768633" lon="8.544416991819292"><ele>291.0</ele><time>2026-05-01T12:50:30Z</time></trkpt><trkpt lat="39.65471105554491" lon="8.544519636511076"><ele>291.0</ele><time>2026-05-01T12:50:31Z</time></trkpt><trkpt lat="39.654785352086684" lon="8.544628934900665"><ele>291.0</ele><time>2026-05-01T12:50:32Z</time></trkpt><trkpt lat="39.6548482970226" lon="8.544733139976458"><ele>291.0</ele><time>2026-05-01T12:50:32.999Z</time></trkpt><trkpt lat="39.654907959475786" lon="8.544837077205544"><ele>291.0</ele><time>2026-05-01T12:50:33.999Z</time></trkpt><trkpt lat="39.654964188009025" lon="8.544939661383106"><ele>289.8333333333333</ele><time>2026-05-01T12:50:34.999Z</time></trkpt><trkpt lat="39.655014461509694" lon="8.545048589678057"><ele>288.6666666666667</ele><time>2026-05-01T12:50:35.999Z</time></trkpt><trkpt lat="39.65506397140305" lon="8.54514765960269"><ele>287.5</ele><time>2026-05-01T12:50:36.999Z</time></trkpt><trkpt lat="39.65510882920699" lon="8.545242018259902"><ele>286.33333333333337</ele><time>2026-05-01T12:50:37.999Z</time></trkpt><trkpt lat="39.655132067856265" lon="8.545335642438856"><ele>285.1666666666667</ele><time>2026-05-01T12:50:38.999Z</time></trkpt><trkpt lat="39.65513998902739" lon="8.545446698816066"><ele>284.0</ele><time>2026-05-01T12:50:39.999Z</time></trkpt><trkpt lat="39.65512277570978" lon="8.545543951106856"><ele>282.1666666666667</ele><time>2026-05-01T12:50:40.999Z</time></trkpt><trkpt lat="39.65508710089356" lon="8.545646193693349"><ele>280.33333333333337</ele><time>2026-05-01T12:50:41.999Z</time></trkpt><trkpt lat="39.6550361422869" lon="8.545750766064796"><ele>278.5</ele><time>2026-05-01T12:50:42.999Z</time></trkpt><trkpt lat="39.65498939799647" lon="8.545845794522958"><ele>276.6666666666667</ele><time>2026-05-01T12:50:43.999Z</time></trkpt><trkpt lat="39.65495604983828" lon="8.545935443941756"><ele>274.8333333333333</ele><time>2026-05-01T12:50:44.999Z</time></trkpt><trkpt lat="39.65495145915851" lon="8.54603849256706"><ele>273.0</ele><time>2026-05-01T12:50:45.999Z</time></trkpt><trkpt lat="39.65494329673432" lon="8.546140274008776"><ele>271.4</ele><time>2026-05-01T12:50:46.999Z</time></trkpt><trkpt lat="39.65490427618412" lon="8.546244073133318"><ele>269.8</ele><time>2026-05-01T12:50:47.999Z</time></trkpt><trkpt lat="39.654848956274414" lon="8.54637149332856"><ele>268.2</ele><time>2026-05-01T12:50:48.999Z</time></trkpt><trkpt lat="39.65480705665101" lon="8.54650231531799"><ele>266.6</ele><time>2026-05-01T12:50:49.999Z</time></trkpt><trkpt lat="39.65478366231988" lon="8.54662482492616"><ele>265.0</ele><time>2026-05-01T12:50:50.999Z</time></trkpt><trkpt lat="39.654764274666036" lon="8.54674166539069"><ele>265.0</ele><time>2026-05-01T12:50:51.999Z</time></trkpt><trkpt lat="39.654714502846964" lon="8.546849224246634"><ele>265.0</ele><time>2026-05-01T12:50:52.999Z</time></trkpt><trkpt lat="39.654652896999124" lon="8.546960470364791"><ele>265.0</ele><time>2026-05-01T12:50:53.999Z</time></trkpt><trkpt lat="39.65458785088091" lon="8.547053814507915"><ele>265.0</ele><time>2026-05-01T12:50:54.999Z</time></trkpt><trkpt lat="39.65451628643673" lon="8.547117049527316"><ele>265.0</ele><time>2026-05-01T12:50:55.999Z</time></trkpt><trkpt lat="39.654435669429226" lon="8.547154885783693"><ele>262.0</ele><time>2026-05-01T12:50:56.999Z</time></trkpt><trkpt lat="39.65433584977832" lon="8.547172152769729"><ele>259.0</ele><time>2026-05-01T12:50:57.999Z</time></trkpt><trkpt lat="39.65422521150472" lon="8.547210298612775"><ele>256.0</ele><time>2026-05-01T12:50:58.999Z</time></trkpt><trkpt lat="39.65413372458665" lon="8.547276023993561"><ele>253.0</ele><time>2026-05-01T12:50:59.999Z</time></trkpt><trkpt lat="39.65404552231244" lon="8.547331308926585"><ele>250.0</ele><time>2026-05-01T12:51:00.999Z</time></trkpt><trkpt lat="39.65395864826384" lon="8.547374329121283"><ele>250.0</ele><time>2026-05-01T12:51:01.999Z</time></trkpt><trkpt lat="39.65387226676465" lon="8.547423787313209"><ele>250.0</ele><time>2026-05-01T12:51:02.999Z</time></trkpt><trkpt lat="39.65379506164061" lon="8.54749013416914"><ele>250.0</ele><time>2026-05-01T12:51:03.999Z</time></trkpt><trkpt lat="39.653726680384345" lon="8.547562554753235"><ele>250.0</ele><time>2026-05-01T12:51:04.999Z</time></trkpt><trkpt lat="39.6536689805534" lon="8.547644084997719"><ele>250.0</ele><time>2026-05-01T12:51:05.999Z</time></trkpt><trkpt lat="39.653619101444235" lon="8.547757798384117"><ele>248.0</ele><time>2026-05-01T12:51:06.999Z</time></trkpt><trkpt lat="39.65357975095419" lon="8.547894593046028"><ele>246.0</ele><time>2026-05-01T12:51:07.999Z</time></trkpt><trkpt lat="39.6535379304059" lon="8.548012593983682"><ele>244.0</ele><time>2026-05-01T12:51:08.999Z</time></trkpt><trkpt lat="39.65349120004727" lon="8.548118410382498"><ele>242.0</ele><time>2026-05-01T12:51:09.999Z</time></trkpt><trkpt lat="39.65344931029362" lon="8.548214176483214"><ele>240.0</ele><time>2026-05-01T12:51:10.999Z</time></trkpt><trkpt lat="39.6534299563528" lon="8.548317654692443"><ele>240.0</ele><time>2026-05-01T12:51:12.999Z</time></trkpt><trkpt lat="39.65349911598065" lon="8.54834319163394"><ele>240.0</ele><time>2026-05-01T12:51:14.999Z</time></trkpt><trkpt lat="39.65355832686267" lon="8.548291990626273"><ele>240.0</ele><time>2026-05-01T12:51:15.999Z</time></trkpt><trkpt lat="39.653617905128286" lon="8.548210435098962"><ele>240.0</ele><time>2026-05-01T12:51:16.999Z</time></trkpt><trkpt lat="39.65368558779044" lon="8.548105483695766"><ele>240.0</ele><time>2026-05-01T12:51:17.999Z</time></trkpt><trkpt lat="39.65376576156984" lon="8.547995037748155"><ele>242.5</ele><time>2026-05-01T12:51:18.999Z</time></trkpt><trkpt lat="39.65386478754274" lon="8.547887745370554"><ele>245.0</ele><time>2026-05-01T12:51:19.999Z</time></trkpt><trkpt lat="39.65397388457153" lon="8.547800967953604"><ele>247.5</ele><time>2026-05-01T12:51:20.999Z</time></trkpt><trkpt lat="39.65408399966846" lon="8.547739125630516"><ele>250.0</ele><time>2026-05-01T12:51:21.999Z</time></trkpt><trkpt lat="39.65419869623767" lon="8.547712210358883"><ele>250.0</ele><time>2026-05-01T12:51:22.999Z</time></trkpt><trkpt lat="39.65432427418317" lon="8.547697224179023"><ele>250.0</ele><time>2026-05-01T12:51:23.999Z</time></trkpt><trkpt lat="39.65445871746072" lon="8.547691649698779"><ele>250.0</ele><time>2026-05-01T12:51:24.999Z</time></trkpt><trkpt lat="39.654595786932084" lon="8.547685610422105"><ele>250.0</ele><time>2026-05-01T12:51:25.999Z</time></trkpt><trkpt lat="39.65471956349888" lon="8.547680205187403"><ele>249.4</ele><time>2026-05-01T12:51:26.999Z</time></trkpt><trkpt lat="39.65483370936873" lon="8.547673592007225"><ele>248.8</ele><time>2026-05-01T12:51:27.999Z</time></trkpt><trkpt lat="39.65494407740258" lon="8.54768031442996"><ele>248.2</ele><time>2026-05-01T12:51:28.999Z</time></trkpt><trkpt lat="39.655051313903996" lon="8.547695976869313"><ele>247.6</ele><time>2026-05-01T12:51:29.999Z</time></trkpt><trkpt lat="39.65515896985341" lon="8.547696292340644"><ele>247.0</ele><time>2026-05-01T12:51:30.999Z</time></trkpt><trkpt lat="39.655273277653876" lon="8.547674017533057"><ele>242.39999999999998</ele><time>2026-05-01T12:51:31.999Z</time></trkpt><trkpt lat="39.655382579758374" lon="8.547637089170566"><ele>237.79999999999998</ele><time>2026-05-01T12:51:32.999Z</time></trkpt><trkpt lat="39.65548294153005" lon="8.547592137355045"><ele>233.2</ele><time>2026-05-01T12:51:33.999Z</time></trkpt><trkpt lat="39.65557026496396" lon="8.547531670413404"><ele>228.6</ele><time>2026-05-01T12:51:34.999Z</time></trkpt><trkpt lat="39.65564159792191" lon="8.547447708560115"><ele>224.0</ele><time>2026-05-01T12:51:35.999Z</time></trkpt><trkpt lat="39.65570318728055" lon="8.547337326964655"><ele>224.0</ele><time>2026-05-01T12:51:36.999Z</time></trkpt><trkpt lat="39.655755800110164" lon="8.54720497699742"><ele>224.0</ele><time>2026-05-01T12:51:37.999Z</time></trkpt><trkpt lat="39.65580125872744" lon="8.547043258610858"><ele>224.0</ele><time>2026-05-01T12:51:38.999Z</time></trkpt><trkpt lat="39.65585235111769" lon="8.546874624593066"><ele>224.0</ele><time>2026-05-01T12:51:39.999Z</time></trkpt><trkpt lat="39.655911078890135" lon="8.546733785664786"><ele>222.0</ele><time>2026-05-01T12:51:40.999Z</time></trkpt><trkpt lat="39.655979204574805" lon="8.546618932468059"><ele>220.0</ele><time>2026-05-01T12:51:41.999Z</time></trkpt><trkpt lat="39.65606113096887" lon="8.546523970018317"><ele>218.0</ele><time>2026-05-01T12:51:42.999Z</time></trkpt><trkpt lat="39.65616296367318" lon="8.5464563953352"><ele>216.0</ele><time>2026-05-01T12:51:43.999Z</time></trkpt><trkpt lat="39.65625586760158" lon="8.54636850446445"><ele>216.0</ele><time>2026-05-01T12:51:44.999Z</time></trkpt><trkpt lat="39.656343693403095" lon="8.54626958406859"><ele>216.0</ele><time>2026-05-01T12:51:45.999Z</time></trkpt><trkpt lat="39.6564134771916" lon="8.546162725189163"><ele>216.0</ele><time>2026-05-01T12:51:46.999Z</time></trkpt><trkpt lat="39.65648518162187" lon="8.546038245621348"><ele>216.0</ele><time>2026-05-01T12:51:47.999Z</time></trkpt><trkpt lat="39.65655310844017" lon="8.545888376906898"><ele>218.0</ele><time>2026-05-01T12:51:49Z</time></trkpt><trkpt lat="39.65662022893147" lon="8.545744554648383"><ele>220.00000000000003</ele><time>2026-05-01T12:51:50Z</time></trkpt><trkpt lat="39.65666808428539" lon="8.545615964821929"><ele>222.00000000000003</ele><time>2026-05-01T12:51:51Z</time></trkpt><trkpt lat="39.65670694355773" lon="8.545517803816669"><ele>224.0</ele><time>2026-05-01T12:51:52Z</time></trkpt><trkpt lat="39.656747015282264" lon="8.545454665076393"><ele>226.0</ele><time>2026-05-01T12:51:53Z</time></trkpt><trkpt lat="39.656865807020935" lon="8.545439647408754"><ele>225.99999999999997</ele><time>2026-05-01T12:51:55Z</time></trkpt><trkpt lat="39.65693051115356" lon="8.545495502486094"><ele>226.0</ele><time>2026-05-01T12:51:56Z</time></trkpt><trkpt lat="39.65698866564544" lon="8.54558692046651"><ele>226.0</ele><time>2026-05-01T12:51:57Z</time></trkpt><trkpt lat="39.65705410361061" lon="8.545686694252193"><ele>226.0</ele><time>2026-05-01T12:51:58Z</time></trkpt><trkpt lat="39.65713495521977" lon="8.54573099261111"><ele>225.99999999999997</ele><time>2026-05-01T12:51:59Z</time></trkpt><trkpt lat="39.65720310079547" lon="8.545774626882237"><ele>226.0</ele><time>2026-05-01T12:52:00Z</time></trkpt><trkpt lat="39.657284730856716" lon="8.545713688470558"><ele>226.75</ele><time>2026-05-01T12:52:01Z</time></trkpt><trkpt lat="39.657359239690074" lon="8.545641943667453"><ele>227.5</ele><time>2026-05-01T12:52:02Z</time></trkpt><trkpt lat="39.65743515269418" lon="8.545540300445507"><ele>228.25</ele><time>2026-05-01T12:52:03Z</time></trkpt><trkpt lat="39.657529347677304" lon="8.545415493568282"><ele>229.0</ele><time>2026-05-01T12:52:04Z</time></trkpt><trkpt lat="39.65763571635486" lon="8.545261341486524"><ele>229.0</ele><time>2026-05-01T12:52:05Z</time></trkpt><trkpt lat="39.657750150862164" lon="8.545121371927777"><ele>229.0</ele><time>2026-05-01T12:52:06Z</time></trkpt><trkpt lat="39.65783971473653" lon="8.545002914817784"><ele>229.0</ele><time>2026-05-01T12:52:07Z</time></trkpt><trkpt lat="39.657907446142005" lon="8.544885787249928"><ele>229.0</ele><time>2026-05-01T12:52:08Z</time></trkpt><trkpt lat="39.65794534912011" lon="8.544750574695879"><ele>224.75</ele><time>2026-05-01T12:52:09Z</time></trkpt><trkpt lat="39.657959765111876" lon="8.544607139992864"><ele>220.5</ele><time>2026-05-01T12:52:10Z</time></trkpt><trkpt lat="39.65794176498827" lon="8.544443188638244"><ele>216.25</ele><time>2026-05-01T12:52:11Z</time></trkpt><trkpt lat="39.657944344401905" lon="8.544259614116134"><ele>212.0</ele><time>2026-05-01T12:52:12Z</time></trkpt><trkpt lat="39.65794427362304" lon="8.544106470255576"><ele>212.0</ele><time>2026-05-01T12:52:13Z</time></trkpt><trkpt lat="39.65795177608196" lon="8.543959706412217"><ele>212.0</ele><time>2026-05-01T12:52:14Z</time></trkpt><trkpt lat="39.65793807447923" lon="8.543815648053165"><ele>212.0</ele><time>2026-05-01T12:52:15Z</time></trkpt><trkpt lat="39.65794708050922" lon="8.543691633392102"><ele>212.0</ele><time>2026-05-01T12:52:16Z</time></trkpt><trkpt lat="39.65791269404638" lon="8.54356106777558"><ele>212.0</ele><time>2026-05-01T12:52:17Z</time></trkpt><trkpt lat="39.65786476324257" lon="8.54345328436376"><ele>212.2</ele><time>2026-05-01T12:52:18Z</time></trkpt><trkpt lat="39.65784081006148" lon="8.543372434699743"><ele>212.39999999999998</ele><time>2026-05-01T12:52:19Z</time></trkpt><trkpt lat="39.657837262015995" lon="8.54325291732018"><ele>212.60000000000002</ele><time>2026-05-01T12:52:21Z</time></trkpt><trkpt lat="39.65790186767236" lon="8.543194947079062"><ele>212.8</ele><time>2026-05-01T12:52:22Z</time></trkpt><trkpt lat="39.657982361275494" lon="8.543126981211538"><ele>213.0</ele><time>2026-05-01T12:52:23Z</time></trkpt><trkpt lat="39.65805516444413" lon="8.543008554582348"><ele>213.0</ele><time>2026-05-01T12:52:24Z</time></trkpt><trkpt lat="39.65813048594403" lon="8.542900094992403"><ele>213.0</ele><time>2026-05-01T12:52:25Z</time></trkpt><trkpt lat="39.65819630713836" lon="8.54279020631479"><ele>213.0</ele><time>2026-05-01T12:52:26Z</time></trkpt><trkpt lat="39.65824964932668" lon="8.542678478674972"><ele>213.0</ele><time>2026-05-01T12:52:27Z</time></trkpt><trkpt lat="39.65828686811168" lon="8.542550303822406"><ele>213.0</ele><time>2026-05-01T12:52:28Z</time></trkpt><trkpt lat="39.658296735769056" lon="8.542412797632966"><ele>214.4</ele><time>2026-05-01T12:52:29Z</time></trkpt><trkpt lat="39.65828204244729" lon="8.542270466855422"><ele>215.8</ele><time>2026-05-01T12:52:30Z</time></trkpt><trkpt lat="39.65825029740112" lon="8.542134906248755"><ele>217.2</ele><time>2026-05-01T12:52:31Z</time></trkpt><trkpt lat="39.658231108127914" lon="8.542000688847368"><ele>218.6</ele><time>2026-05-01T12:52:32Z</time></trkpt><trkpt lat="39.658224079572946" lon="8.541900972292044"><ele>220.0</ele><time>2026-05-01T12:52:33Z</time></trkpt><trkpt lat="39.65828946177307" lon="8.541823013668528"><ele>219.5</ele><time>2026-05-01T12:52:36Z</time></trkpt><trkpt lat="39.6583663277409" lon="8.541845323979917"><ele>219.0</ele><time>2026-05-01T12:52:37Z</time></trkpt><trkpt lat="39.658474408708074" lon="8.5418905777514"><ele>218.5</ele><time>2026-05-01T12:52:37.999Z</time></trkpt><trkpt lat="39.65858771169303" lon="8.541981304547638"><ele>218.0</ele><time>2026-05-01T12:52:38.999Z</time></trkpt><trkpt lat="39.65870491867174" lon="8.542067620432215"><ele>218.0</ele><time>2026-05-01T12:52:39.999Z</time></trkpt><trkpt lat="39.65882080098247" lon="8.542154867617583"><ele>218.0</ele><time>2026-05-01T12:52:40.999Z</time></trkpt><trkpt lat="39.6589201877217" lon="8.542253585605259"><ele>218.0</ele><time>2026-05-01T12:52:41.999Z</time></trkpt><trkpt lat="39.658991361034886" lon="8.542371677574334"><ele>218.0</ele><time>2026-05-01T12:52:42.999Z</time></trkpt><trkpt lat="39.659056701134006" lon="8.542484494744945"><ele>218.0</ele><time>2026-05-01T12:52:43.999Z</time></trkpt><trkpt lat="39.6591103490219" lon="8.542596705350046"><ele>218.0</ele><time>2026-05-01T12:52:44.999Z</time></trkpt><trkpt lat="39.65918571762832" lon="8.542681310113036"><ele>218.0</ele><time>2026-05-01T12:52:45.999Z</time></trkpt><trkpt lat="39.659249478916465" lon="8.542770322022884"><ele>218.0</ele><time>2026-05-01T12:52:46.999Z</time></trkpt><trkpt lat="39.65931438730828" lon="8.54285521755793"><ele>218.0</ele><time>2026-05-01T12:52:47.999Z</time></trkpt><trkpt lat="39.659381625900934" lon="8.54290871867904"><ele>213.2</ele><time>2026-05-01T12:52:48.999Z</time></trkpt><trkpt lat="39.65945865758935" lon="8.542942060585135"><ele>208.4</ele><time>2026-05-01T12:52:49.999Z</time></trkpt><trkpt lat="39.65955462966403" lon="8.54295712668354"><ele>203.6</ele><time>2026-05-01T12:52:50.999Z</time></trkpt><trkpt lat="39.65966310452133" lon="8.542956420333557"><ele>198.79999999999998</ele><time>2026-05-01T12:52:51.999Z</time></trkpt><trkpt lat="39.65977427899867" lon="8.542930209419266"><ele>194.0</ele><time>2026-05-01T12:52:52.999Z</time></trkpt><trkpt lat="39.659877706261994" lon="8.542891774430034"><ele>197.2</ele><time>2026-05-01T12:52:53.999Z</time></trkpt><trkpt lat="39.65996565436282" lon="8.542838426795523"><ele>200.39999999999998</ele><time>2026-05-01T12:52:54.999Z</time></trkpt><trkpt lat="39.66005276871376" lon="8.542771674861184"><ele>203.6</ele><time>2026-05-01T12:52:55.999Z</time></trkpt><trkpt lat="39.660149761019134" lon="8.542687871992214"><ele>206.8</ele><time>2026-05-01T12:52:56.999Z</time></trkpt><trkpt lat="39.66024116558482" lon="8.542570299489356"><ele>210.0</ele><time>2026-05-01T12:52:57.999Z</time></trkpt><trkpt lat="39.660334145019206" lon="8.542466226740826"><ele>210.0</ele><time>2026-05-01T12:52:58.999Z</time></trkpt><trkpt lat="39.66041510935809" lon="8.542402207535519"><ele>210.0</ele><time>2026-05-01T12:52:59.999Z</time></trkpt><trkpt lat="39.660487190925025" lon="8.542375388504441"><ele>210.0</ele><time>2026-05-01T12:53:00.999Z</time></trkpt><trkpt lat="39.66055942502864" lon="8.542390102598093"><ele>210.0</ele><time>2026-05-01T12:53:01.999Z</time></trkpt><trkpt lat="39.66064448889622" lon="8.542496666524718"><ele>210.0</ele><time>2026-05-01T12:53:03.999Z</time></trkpt><trkpt lat="39.66067066700905" lon="8.54261162369475"><ele>210.0</ele><time>2026-05-01T12:53:04.999Z</time></trkpt><trkpt lat="39.660699877604856" lon="8.542725891134037"><ele>210.0</ele><time>2026-05-01T12:53:05.999Z</time></trkpt><trkpt lat="39.66073923198837" lon="8.542819687115706"><ele>210.0</ele><time>2026-05-01T12:53:06.999Z</time></trkpt><trkpt lat="39.660797145327095" lon="8.542882946472437"><ele>210.0</ele><time>2026-05-01T12:53:07.999Z</time></trkpt><trkpt lat="39.660866939898746" lon="8.54292865987176"><ele>210.0</ele><time>2026-05-01T12:53:08.999Z</time></trkpt><trkpt lat="39.66096174474154" lon="8.542959968452237"><ele>210.0</ele><time>2026-05-01T12:53:09.999Z</time></trkpt><trkpt lat="39.661085167817106" lon="8.542983290799098"><ele>205.5</ele><time>2026-05-01T12:53:10.999Z</time></trkpt><trkpt lat="39.66121486250939" lon="8.543004740410197"><ele>201.0</ele><time>2026-05-01T12:53:11.999Z</time></trkpt><trkpt lat="39.66132840862718" lon="8.543047463375837"><ele>196.5</ele><time>2026-05-01T12:53:12.999Z</time></trkpt><trkpt lat="39.66144499549811" lon="8.543045389235514"><ele>192.0</ele><time>2026-05-01T12:53:13.999Z</time></trkpt><trkpt lat="39.661552554906244" lon="8.543045857003294"><ele>192.0</ele><time>2026-05-01T12:53:14.999Z</time></trkpt><trkpt lat="39.66165867420421" lon="8.543018144087108"><ele>192.0</ele><time>2026-05-01T12:53:15.999Z</time></trkpt><trkpt lat="39.661765050693575" lon="8.542991220826876"><ele>192.0</ele><time>2026-05-01T12:53:16.999Z</time></trkpt><trkpt lat="39.661876937413446" lon="8.542934688268533"><ele>192.0</ele><time>2026-05-01T12:53:17.999Z</time></trkpt><trkpt lat="39.66200280264517" lon="8.542901839907135"><ele>193.39999999999998</ele><time>2026-05-01T12:53:18.999Z</time></trkpt><trkpt lat="39.66213931464099" lon="8.542869104091455"><ele>194.79999999999998</ele><time>2026-05-01T12:53:19.999Z</time></trkpt><trkpt lat="39.66225792270725" lon="8.542823097203275"><ele>196.2</ele><time>2026-05-01T12:53:20.999Z</time></trkpt><trkpt lat="39.66235993901657" lon="8.542816572928038"><ele>197.6</ele><time>2026-05-01T12:53:21.999Z</time></trkpt><trkpt lat="39.662440046975306" lon="8.542801656193106"><ele>199.0</ele><time>2026-05-01T12:53:22.999Z</time></trkpt><trkpt lat="39.66249170423991" lon="8.542623106240626"><ele>199.0</ele><time>2026-05-01T12:53:23.999Z</time></trkpt><trkpt lat="39.66256097841583" lon="8.542541033234388"><ele>199.0</ele><time>2026-05-01T12:53:24.999Z</time></trkpt><trkpt lat="39.662655429085035" lon="8.542467849248965"><ele>199.0</ele><time>2026-05-01T12:53:25.999Z</time></trkpt><trkpt lat="39.66275735409574" lon="8.54240809687851"><ele>199.0</ele><time>2026-05-01T12:53:26.999Z</time></trkpt><trkpt lat="39.66284129324959" lon="8.542336154010213"><ele>199.0</ele><time>2026-05-01T12:53:27.999Z</time></trkpt><trkpt lat="39.662906906657184" lon="8.542244498610717"><ele>199.2</ele><time>2026-05-01T12:53:28.999Z</time></trkpt><trkpt lat="39.662977518569875" lon="8.542138612746323"><ele>199.39999999999998</ele><time>2026-05-01T12:53:29.999Z</time></trkpt><trkpt lat="39.66304710039453" lon="8.542032320929794"><ele>199.6</ele><time>2026-05-01T12:53:30.999Z</time></trkpt><trkpt lat="39.663112094638834" lon="8.541931762074128"><ele>199.8</ele><time>2026-05-01T12:53:31.999Z</time></trkpt><trkpt lat="39.663178831305814" lon="8.541831389409015"><ele>200.0</ele><time>2026-05-01T12:53:32.999Z</time></trkpt><trkpt lat="39.66324602315365" lon="8.541735405412355"><ele>198.2</ele><time>2026-05-01T12:53:33.999Z</time></trkpt><trkpt lat="39.66331017889135" lon="8.541635394964938"><ele>196.4</ele><time>2026-05-01T12:53:34.999Z</time></trkpt><trkpt lat="39.6633756066868" lon="8.541542769836292"><ele>194.60000000000002</ele><time>2026-05-01T12:53:35.999Z</time></trkpt><trkpt lat="39.66345379363138" lon="8.541461471868123"><ele>192.8</ele><time>2026-05-01T12:53:36.999Z</time></trkpt><trkpt lat="39.663531191344525" lon="8.541382300507447"><ele>191.0</ele><time>2026-05-01T12:53:37.999Z</time></trkpt><trkpt lat="39.66360755433681" lon="8.541305815168018"><ele>189.8</ele><time>2026-05-01T12:53:38.999Z</time></trkpt><trkpt lat="39.66368951105713" lon="8.541242746289205"><ele>188.60000000000002</ele><time>2026-05-01T12:53:39.999Z</time></trkpt><trkpt lat="39.66376306740797" lon="8.54116919153358"><ele>187.4</ele><time>2026-05-01T12:53:40.999Z</time></trkpt><trkpt lat="39.663828685073476" lon="8.54108556103559"><ele>186.2</ele><time>2026-05-01T12:53:41.999Z</time></trkpt><trkpt lat="39.66389984760713" lon="8.541001524791081"><ele>185.0</ele><time>2026-05-01T12:53:42.999Z</time></trkpt><trkpt lat="39.663975606036146" lon="8.54092629467987"><ele>182.6</ele><time>2026-05-01T12:53:43.999Z</time></trkpt><trkpt lat="39.66404790414745" lon="8.540839180559642"><ele>180.2</ele><time>2026-05-01T12:53:44.999Z</time></trkpt><trkpt lat="39.66411073574449" lon="8.54074184363985"><ele>177.8</ele><time>2026-05-01T12:53:45.999Z</time></trkpt><trkpt lat="39.6641690751013" lon="8.540632734303973"><ele>175.4</ele><time>2026-05-01T12:53:46.999Z</time></trkpt><trkpt lat="39.664220509536825" lon="8.540514364066205"><ele>173.0</ele><time>2026-05-01T12:53:47.999Z</time></trkpt><trkpt lat="39.664253607361346" lon="8.540385505830029"><ele>172.25</ele><time>2026-05-01T12:53:48.999Z</time></trkpt><trkpt lat="39.664272179491356" lon="8.54027997982195"><ele>171.5</ele><time>2026-05-01T12:53:49.999Z</time></trkpt><trkpt lat="39.664301683589635" lon="8.540139296899527"><ele>170.75</ele><time>2026-05-01T12:53:51.999Z</time></trkpt><trkpt lat="39.664381927723205" lon="8.539986011505036"><ele>170.0</ele><time>2026-05-01T12:53:54Z</time></trkpt><trkpt lat="39.664462928458846" lon="8.53987428241571"><ele>168.0</ele><time>2026-05-01T12:53:55Z</time></trkpt><trkpt lat="39.66455088717516" lon="8.53976252172056"><ele>166.0</ele><time>2026-05-01T12:53:56Z</time></trkpt><trkpt lat="39.66463409014329" lon="8.539668805266503"><ele>164.0</ele><time>2026-05-01T12:53:57Z</time></trkpt><trkpt lat="39.66471595761126" lon="8.539599330450407"><ele>162.0</ele><time>2026-05-01T12:53:58Z</time></trkpt><trkpt lat="39.664806568432766" lon="8.539563805148775"><ele>160.0</ele><time>2026-05-01T12:53:59Z</time></trkpt><trkpt lat="39.66489132713966" lon="8.539513120071298"><ele>159.4</ele><time>2026-05-01T12:54:00Z</time></trkpt><trkpt lat="39.66493390134972" lon="8.53940062654974"><ele>158.8</ele><time>2026-05-01T12:54:01Z</time></trkpt><trkpt lat="39.664963746126936" lon="8.539266912018393"><ele>158.2</ele><time>2026-05-01T12:54:02Z</time></trkpt><trkpt lat="39.665001551167535" lon="8.539165597780173"><ele>157.6</ele><time>2026-05-01T12:54:03Z</time></trkpt><trkpt lat="39.66504152193949" lon="8.539102059201895"><ele>157.0</ele><time>2026-05-01T12:54:04Z</time></trkpt><trkpt lat="39.66516856023716" lon="8.539056010032668"><ele>157.0</ele><time>2026-05-01T12:54:06Z</time></trkpt><trkpt lat="39.6652560395543" lon="8.53904117308742"><ele>157.0</ele><time>2026-05-01T12:54:07Z</time></trkpt><trkpt lat="39.66533953679506" lon="8.53898039441748"><ele>157.0</ele><time>2026-05-01T12:54:08Z</time></trkpt><trkpt lat="39.665396938332194" lon="8.53888162681578"><ele>157.0</ele><time>2026-05-01T12:54:09Z</time></trkpt><trkpt lat="39.66544569334205" lon="8.53875675232729"><ele>157.0</ele><time>2026-05-01T12:54:10Z</time></trkpt><trkpt lat="39.66551762355521" lon="8.538641231391622"><ele>154.6</ele><time>2026-05-01T12:54:11Z</time></trkpt><trkpt lat="39.66560816897889" lon="8.538548058755012"><ele>152.2</ele><time>2026-05-01T12:54:12Z</time></trkpt><trkpt lat="39.66570229856508" lon="8.538471330470788"><ele>149.8</ele><time>2026-05-01T12:54:13Z</time></trkpt><trkpt lat="39.6657984785903" lon="8.538441146662253"><ele>147.4</ele><time>2026-05-01T12:54:14Z</time></trkpt><trkpt lat="39.66588668125296" lon="8.5384454334726"><ele>145.0</ele><time>2026-05-01T12:54:15Z</time></trkpt><trkpt lat="39.66597361903583" lon="8.538464940578743"><ele>145.0</ele><time>2026-05-01T12:54:16Z</time></trkpt><trkpt lat="39.666054826861334" lon="8.538459116032355"><ele>145.0</ele><time>2026-05-01T12:54:17Z</time></trkpt><trkpt lat="39.66613594257563" lon="8.53840855456757"><ele>145.0</ele><time>2026-05-01T12:54:18Z</time></trkpt><trkpt lat="39.66621249589092" lon="8.538316802701344"><ele>145.0</ele><time>2026-05-01T12:54:19Z</time></trkpt><trkpt lat="39.666283856894964" lon="8.538200336567764"><ele>145.0</ele><time>2026-05-01T12:54:20Z</time></trkpt><trkpt lat="39.66635115935283" lon="8.538085955308242"><ele>142.0</ele><time>2026-05-01T12:54:21Z</time></trkpt><trkpt lat="39.666402444964575" lon="8.53796899886526"><ele>139.0</ele><time>2026-05-01T12:54:22Z</time></trkpt><trkpt lat="39.666470241476944" lon="8.53787657601045"><ele>136.0</ele><time>2026-05-01T12:54:23Z</time></trkpt><trkpt lat="39.666565028197795" lon="8.537794478403912"><ele>133.0</ele><time>2026-05-01T12:54:24Z</time></trkpt><trkpt lat="39.666654629209724" lon="8.537707181633207"><ele>130.0</ele><time>2026-05-01T12:54:25Z</time></trkpt><trkpt lat="39.66672785896175" lon="8.537587418534306"><ele>129.75</ele><time>2026-05-01T12:54:26Z</time></trkpt><trkpt lat="39.66682117915777" lon="8.537447044472316"><ele>129.5</ele><time>2026-05-01T12:54:27Z</time></trkpt><trkpt lat="39.66692472855896" lon="8.537306614568918"><ele>129.25</ele><time>2026-05-01T12:54:28Z</time></trkpt><trkpt lat="39.66700465101638" lon="8.537190490751309"><ele>129.0</ele><time>2026-05-01T12:54:29Z</time></trkpt><trkpt lat="39.667074172211166" lon="8.537077638024595"><ele>127.0</ele><time>2026-05-01T12:54:30Z</time></trkpt><trkpt lat="39.66716501932003" lon="8.536973833876365"><ele>125.0</ele><time>2026-05-01T12:54:31Z</time></trkpt><trkpt lat="39.667277009192674" lon="8.536863772464606"><ele>123.0</ele><time>2026-05-01T12:54:32Z</time></trkpt><trkpt lat="39.66737555529588" lon="8.536747849925387"><ele>121.0</ele><time>2026-05-01T12:54:33Z</time></trkpt><trkpt lat="39.667447658944255" lon="8.536603239002707"><ele>121.0</ele><time>2026-05-01T12:54:34Z</time></trkpt><trkpt lat="39.66751921297196" lon="8.536432673265097"><ele>121.0</ele><time>2026-05-01T12:54:35Z</time></trkpt><trkpt lat="39.66760239251573" lon="8.53627041760175"><ele>121.0</ele><time>2026-05-01T12:54:36Z</time></trkpt><trkpt lat="39.66770341427268" lon="8.536130574726146"><ele>121.0</ele><time>2026-05-01T12:54:37Z</time></trkpt><trkpt lat="39.66782012571626" lon="8.53598788378633"><ele>119.66666666666667</ele><time>2026-05-01T12:54:38Z</time></trkpt><trkpt lat="39.667940405976445" lon="8.535832493531112"><ele>118.33333333333334</ele><time>2026-05-01T12:54:39Z</time></trkpt><trkpt lat="39.6680603892516" lon="8.53569708967017"><ele>117.0</ele><time>2026-05-01T12:54:40Z</time></trkpt><trkpt lat="39.668182221433355" lon="8.535578726129156"><ele>117.0</ele><time>2026-05-01T12:54:41Z</time></trkpt><trkpt lat="39.668294637371424" lon="8.535461461156087"><ele>117.0</ele><time>2026-05-01T12:54:42Z</time></trkpt><trkpt lat="39.66839968029269" lon="8.535351484224936"><ele>117.0</ele><time>2026-05-01T12:54:43Z</time></trkpt><trkpt lat="39.66851866630128" lon="8.535242868615791"><ele>117.0</ele><time>2026-05-01T12:54:44Z</time></trkpt><trkpt lat="39.6686635130336" lon="8.535136057919125"><ele>114.0</ele><time>2026-05-01T12:54:44.999Z</time></trkpt><trkpt lat="39.66881752474476" lon="8.535035416896141"><ele>111.0</ele><time>2026-05-01T12:54:45.999Z</time></trkpt><trkpt lat="39.6689364539332" lon="8.534949345114747"><ele>108.0</ele><time>2026-05-01T12:54:46.999Z</time></trkpt><trkpt lat="39.66901655547105" lon="8.5348623301499"><ele>105.0</ele><time>2026-05-01T12:54:47.999Z</time></trkpt><trkpt lat="39.66909496604567" lon="8.534757240548485"><ele>105.0</ele><time>2026-05-01T12:54:48.999Z</time></trkpt><trkpt lat="39.66922243390541" lon="8.534622704621706"><ele>105.0</ele><time>2026-05-01T12:54:49.999Z</time></trkpt><trkpt lat="39.66935561225314" lon="8.534503792118896"><ele>105.0</ele><time>2026-05-01T12:54:50.999Z</time></trkpt><trkpt lat="39.66945624619978" lon="8.534420289102432"><ele>105.0</ele><time>2026-05-01T12:54:51.999Z</time></trkpt><trkpt lat="39.66955377164118" lon="8.534356839327286"><ele>104.5</ele><time>2026-05-01T12:54:52.999Z</time></trkpt><trkpt lat="39.66965423868293" lon="8.534297819169346"><ele>104.0</ele><time>2026-05-01T12:54:53.999Z</time></trkpt><trkpt lat="39.66974598496308" lon="8.534204781007714"><ele>103.5</ele><time>2026-05-01T12:54:54.999Z</time></trkpt><trkpt lat="39.66982977268941" lon="8.534084922375904"><ele>103.0</ele><time>2026-05-01T12:54:55.999Z</time></trkpt><trkpt lat="39.669904448819864" lon="8.533958504951519"><ele>103.0</ele><time>2026-05-01T12:54:56.999Z</time></trkpt><trkpt lat="39.669979600621495" lon="8.533869598415215"><ele>103.0</ele><time>2026-05-01T12:54:57.999Z</time></trkpt><trkpt lat="39.67006311572159" lon="8.533794872764966"><ele>103.0</ele><time>2026-05-01T12:54:58.999Z</time></trkpt><trkpt lat="39.6701581374672" lon="8.533748006385883"><ele>103.0</ele><time>2026-05-01T12:54:59.999Z</time></trkpt><trkpt lat="39.670286393529835" lon="8.533713622441143"><ele>103.0</ele><time>2026-05-01T12:55:00.999Z</time></trkpt><trkpt lat="39.67042277189032" lon="8.53366212894429"><ele>100.66666666666667</ele><time>2026-05-01T12:55:01.999Z</time></trkpt><trkpt lat="39.670584693261986" lon="8.533577742231088"><ele>98.33333333333334</ele><time>2026-05-01T12:55:02.999Z</time></trkpt><trkpt lat="39.67074251565107" lon="8.533470265276891"><ele>96.0</ele><time>2026-05-01T12:55:03.999Z</time></trkpt><trkpt lat="39.67085075221542" lon="8.533375360765149"><ele>96.0</ele><time>2026-05-01T12:55:04.999Z</time></trkpt><trkpt lat="39.67093855396335" lon="8.533265999455224"><ele>96.0</ele><time>2026-05-01T12:55:05.999Z</time></trkpt><trkpt lat="39.670995335182205" lon="8.533131118144421"><ele>96.0</ele><time>2026-05-01T12:55:06.999Z</time></trkpt><trkpt lat="39.67105574304609" lon="8.532974124381187"><ele>96.0</ele><time>2026-05-01T12:55:07.999Z</time></trkpt><trkpt lat="39.67113601224391" lon="8.532817555718252"><ele>95.0</ele><time>2026-05-01T12:55:08.999Z</time></trkpt><trkpt lat="39.67121612613872" lon="8.532641729533072"><ele>94.0</ele><time>2026-05-01T12:55:09.999Z</time></trkpt><trkpt lat="39.67128727314805" lon="8.532475773585263"><ele>93.0</ele><time>2026-05-01T12:55:10.999Z</time></trkpt><trkpt lat="39.67137110523888" lon="8.532339364062702"><ele>92.0</ele><time>2026-05-01T12:55:11.999Z</time></trkpt><trkpt lat="39.671490918758636" lon="8.532218803110222"><ele>92.0</ele><time>2026-05-01T12:55:12.999Z</time></trkpt><trkpt lat="39.67162413608759" lon="8.532098647099014"><ele>92.0</ele><time>2026-05-01T12:55:13.999Z</time></trkpt><trkpt lat="39.671744076265504" lon="8.531996117088239"><ele>92.0</ele><time>2026-05-01T12:55:14.999Z</time></trkpt><trkpt lat="39.67183850363991" lon="8.53189161392239"><ele>92.0</ele><time>2026-05-01T12:55:15.999Z</time></trkpt><trkpt lat="39.67191933097692" lon="8.531762952842046"><ele>89.33333333333334</ele><time>2026-05-01T12:55:16.999Z</time></trkpt><trkpt lat="39.67198600706279" lon="8.531580625456433"><ele>86.66666666666667</ele><time>2026-05-01T12:55:17.999Z</time></trkpt><trkpt lat="39.67206454057769" lon="8.531370861137415"><ele>84.0</ele><time>2026-05-01T12:55:18.999Z</time></trkpt><trkpt lat="39.67216810538723" lon="8.531170986217116"><ele>82.0</ele><time>2026-05-01T12:55:19.999Z</time></trkpt><trkpt lat="39.67229258540542" lon="8.53095566140371"><ele>80.0</ele><time>2026-05-01T12:55:20.999Z</time></trkpt><trkpt lat="39.67238898606788" lon="8.530774077875304"><ele>78.0</ele><time>2026-05-01T12:55:21.999Z</time></trkpt><trkpt lat="39.67248803135946" lon="8.530629922035727"><ele>78.0</ele><time>2026-05-01T12:55:22.999Z</time></trkpt><trkpt lat="39.67261584653856" lon="8.530493322084494"><ele>78.0</ele><time>2026-05-01T12:55:23.999Z</time></trkpt><trkpt lat="39.672790350922924" lon="8.530359063010877"><ele>78.0</ele><time>2026-05-01T12:55:24.999Z</time></trkpt><trkpt lat="39.6729903816483" lon="8.530195236120827"><ele>75.66666666666667</ele><time>2026-05-01T12:55:25.999Z</time></trkpt><trkpt lat="39.673175254336876" lon="8.530023266033986"><ele>73.33333333333334</ele><time>2026-05-01T12:55:26.999Z</time></trkpt><trkpt lat="39.67333179018202" lon="8.529870127793126"><ele>71.0</ele><time>2026-05-01T12:55:27.999Z</time></trkpt><trkpt lat="39.67346564051504" lon="8.529756541958095"><ele>71.0</ele><time>2026-05-01T12:55:28.999Z</time></trkpt><trkpt lat="39.67359355455269" lon="8.52963792880504"><ele>71.0</ele><time>2026-05-01T12:55:29.999Z</time></trkpt><trkpt lat="39.67373285357267" lon="8.52951751876957"><ele>71.0</ele><time>2026-05-01T12:55:30.999Z</time></trkpt><trkpt lat="39.67390066955542" lon="8.529416702746206"><ele>70.33333333333334</ele><time>2026-05-01T12:55:31.999Z</time></trkpt><trkpt lat="39.674094822675514" lon="8.52931324612553"><ele>69.66666666666667</ele><time>2026-05-01T12:55:32.999Z</time></trkpt><trkpt lat="39.67427151691905" lon="8.529223644100478"><ele>69.0</ele><time>2026-05-01T12:55:33.999Z</time></trkpt><trkpt lat="39.67442470092084" lon="8.52914176183893"><ele>68.33333333333333</ele><time>2026-05-01T12:55:34.999Z</time></trkpt><trkpt lat="39.67457596179186" lon="8.529062623606928"><ele>67.66666666666666</ele><time>2026-05-01T12:55:35.999Z</time></trkpt><trkpt lat="39.67472244917605" lon="8.529015784981892"><ele>67.0</ele><time>2026-05-01T12:55:36.999Z</time></trkpt><trkpt lat="39.6748663072356" lon="8.528997780641681"><ele>67.0</ele><time>2026-05-01T12:55:37.999Z</time></trkpt><trkpt lat="39.675012930094105" lon="8.528949883603849"><ele>67.0</ele><time>2026-05-01T12:55:38.999Z</time></trkpt><trkpt lat="39.675141850085666" lon="8.528862142741817"><ele>67.0</ele><time>2026-05-01T12:55:39.999Z</time></trkpt><trkpt lat="39.67525745080145" lon="8.528761607465848"><ele>67.0</ele><time>2026-05-01T12:55:40.999Z</time></trkpt><trkpt lat="39.675357333404406" lon="8.528670162817832"><ele>67.0</ele><time>2026-05-01T12:55:41.999Z</time></trkpt><trkpt lat="39.67546828475566" lon="8.528564474107345"><ele>67.0</ele><time>2026-05-01T12:55:42.999Z</time></trkpt><trkpt lat="39.67558908186745" lon="8.528461023457684"><ele>67.0</ele><time>2026-05-01T12:55:43.999Z</time></trkpt><trkpt lat="39.67570962834564" lon="8.528402051452954"><ele>67.0</ele><time>2026-05-01T12:55:44.999Z</time></trkpt><trkpt lat="39.67584907210194" lon="8.528362927793147"><ele>67.0</ele><time>2026-05-01T12:55:45.999Z</time></trkpt><trkpt lat="39.67598245945183" lon="8.528348841097088"><ele>67.0</ele><time>2026-05-01T12:55:46.999Z</time></trkpt><trkpt lat="39.67609766850577" lon="8.528357396541587"><ele>67.0</ele><time>2026-05-01T12:55:47.999Z</time></trkpt><trkpt lat="39.67618846774894" lon="8.528392699939285"><ele>67.0</ele><time>2026-05-01T12:55:48.999Z</time></trkpt><trkpt lat="39.67627374594155" lon="8.528458803823169"><ele>67.0</ele><time>2026-05-01T12:55:49.999Z</time></trkpt><trkpt lat="39.67637292052634" lon="8.52856360221674"><ele>66.5</ele><time>2026-05-01T12:55:50.999Z</time></trkpt><trkpt lat="39.67648382490759" lon="8.528694508586856"><ele>66.0</ele><time>2026-05-01T12:55:51.999Z</time></trkpt><trkpt lat="39.67660606045829" lon="8.528818669230334"><ele>65.5</ele><time>2026-05-01T12:55:52.999Z</time></trkpt><trkpt lat="39.676716017631406" lon="8.528904677100302"><ele>65.0</ele><time>2026-05-01T12:55:53.999Z</time></trkpt><trkpt lat="39.67678675416109" lon="8.528974230856681"><ele>64.8</ele><time>2026-05-01T12:55:54.999Z</time></trkpt><trkpt lat="39.676809009923" lon="8.529075223216235"><ele>64.6</ele><time>2026-05-01T12:55:55.999Z</time></trkpt><trkpt lat="39.676849076316444" lon="8.529195927595602"><ele>64.4</ele><time>2026-05-01T12:55:56.999Z</time></trkpt><trkpt lat="39.67689156589272" lon="8.529370992410163"><ele>64.2</ele><time>2026-05-01T12:55:57.999Z</time></trkpt><trkpt lat="39.676960181941546" lon="8.529508025458783"><ele>64.0</ele><time>2026-05-01T12:55:58.999Z</time></trkpt><trkpt lat="39.6770305137363" lon="8.52960695435557"><ele>63.0</ele><time>2026-05-01T12:56:00Z</time></trkpt><trkpt lat="39.677140612299986" lon="8.529587317191792"><ele>62.0</ele><time>2026-05-01T12:56:01Z</time></trkpt><trkpt lat="39.677260262907325" lon="8.529616805560073"><ele>61.0</ele><time>2026-05-01T12:56:02Z</time></trkpt><trkpt lat="39.67743015678395" lon="8.529703092851818"><ele>60.0</ele><time>2026-05-01T12:56:03Z</time></trkpt><trkpt lat="39.677626993303655" lon="8.52978714933324"><ele>59.0</ele><time>2026-05-01T12:56:04Z</time></trkpt><trkpt lat="39.67785552770667" lon="8.529882291782114"><ele>58.0</ele><time>2026-05-01T12:56:05Z</time></trkpt><trkpt lat="39.678070662583806" lon="8.529986349168745"><ele>58.0</ele><time>2026-05-01T12:56:06Z</time></trkpt><trkpt lat="39.678232201041205" lon="8.530114188107614"><ele>58.0</ele><time>2026-05-01T12:56:07Z</time></trkpt><trkpt lat="39.67837804743049" lon="8.530229870937234"><ele>58.0</ele><time>2026-05-01T12:56:08Z</time></trkpt><trkpt lat="39.67850948906274" lon="8.530373612382038"><ele>56.666666666666664</ele><time>2026-05-01T12:56:09Z</time></trkpt><trkpt lat="39.678629369012704" lon="8.530541432589796"><ele>55.33333333333333</ele><time>2026-05-01T12:56:10Z</time></trkpt><trkpt lat="39.6787507290658" lon="8.530667050055381"><ele>54.0</ele><time>2026-05-01T12:56:11Z</time></trkpt><trkpt lat="39.67885593737535" lon="8.530781108651249"><ele>54.0</ele><time>2026-05-01T12:56:12Z</time></trkpt><trkpt lat="39.678940338388415" lon="8.530850206831236"><ele>54.00000000000001</ele><time>2026-05-01T12:56:13Z</time></trkpt><trkpt lat="39.67900661006632" lon="8.530890709561467"><ele>54.00000000000001</ele><time>2026-05-01T12:56:14Z</time></trkpt><trkpt lat="39.67909566402554" lon="8.530891256017272"><ele>54.0</ele><time>2026-05-01T12:56:16Z</time></trkpt><trkpt lat="39.679111746105065" lon="8.53074282671279"><ele>54.0</ele><time>2026-05-01T12:56:18Z</time></trkpt><trkpt lat="39.679104858951234" lon="8.530588902287352"><ele>54.0</ele><time>2026-05-01T12:56:19Z</time></trkpt><trkpt lat="39.67909437349193" lon="8.530391715329703"><ele>54.0</ele><time>2026-05-01T12:56:20Z</time></trkpt><trkpt lat="39.67906490021731" lon="8.530156583226136"><ele>54.0</ele><time>2026-05-01T12:56:21Z</time></trkpt><trkpt lat="39.67906474143843" lon="8.529888683095397"><ele>54.33333333333333</ele><time>2026-05-01T12:56:22Z</time></trkpt><trkpt lat="39.679060411910065" lon="8.529613581784641"><ele>54.666666666666664</ele><time>2026-05-01T12:56:23Z</time></trkpt><trkpt lat="39.679047101408656" lon="8.529379181864794"><ele>55.0</ele><time>2026-05-01T12:56:24Z</time></trkpt><trkpt lat="39.67906335614298" lon="8.52917029760854"><ele>55.33333333333333</ele><time>2026-05-01T12:56:25Z</time></trkpt><trkpt lat="39.679095634253784" lon="8.528967854089446"><ele>55.66666666666667</ele><time>2026-05-01T12:56:26Z</time></trkpt><trkpt lat="39.67912438320124" lon="8.528748158695636"><ele>56.0</ele><time>2026-05-01T12:56:27Z</time></trkpt><trkpt lat="39.67913925713533" lon="8.528503604859578"><ele>55.5</ele><time>2026-05-01T12:56:28Z</time></trkpt><trkpt lat="39.67913374876935" lon="8.52829582067815"><ele>55.0</ele><time>2026-05-01T12:56:29Z</time></trkpt><trkpt lat="39.679127407571315" lon="8.528135236032973"><ele>54.5</ele><time>2026-05-01T12:56:30Z</time></trkpt><trkpt lat="39.67910954593709" lon="8.52799641029611"><ele>54.0</ele><time>2026-05-01T12:56:31Z</time></trkpt><trkpt lat="39.679076346774714" lon="8.527856658842774"><ele>53.0</ele><time>2026-05-01T12:56:32Z</time></trkpt><trkpt lat="39.67903981286639" lon="8.527701235612517"><ele>52.0</ele><time>2026-05-01T12:56:33Z</time></trkpt><trkpt lat="39.67901882284057" lon="8.527529722871009"><ele>51.0</ele><time>2026-05-01T12:56:34Z</time></trkpt><trkpt lat="39.679035661424045" lon="8.52733919214248"><ele>50.0</ele><time>2026-05-01T12:56:35Z</time></trkpt><trkpt lat="39.67902060515748" lon="8.52713791131692"><ele>49.6</ele><time>2026-05-01T12:56:36Z</time></trkpt><trkpt lat="39.67900851211727" lon="8.526950439335502"><ele>49.2</ele><time>2026-05-01T12:56:37Z</time></trkpt><trkpt lat="39.67899847740998" lon="8.526804165443936"><ele>48.8</ele><time>2026-05-01T12:56:38Z</time></trkpt><trkpt lat="39.67899543954745" lon="8.526693440312838"><ele>48.4</ele><time>2026-05-01T12:56:39Z</time></trkpt><trkpt lat="39.679032268863175" lon="8.526605613954473"><ele>48.0</ele><time>2026-05-01T12:56:40Z</time></trkpt><trkpt lat="39.679099118699774" lon="8.5265432527464"><ele>48.0</ele><time>2026-05-01T12:56:40.999Z</time></trkpt><trkpt lat="39.67918244855509" lon="8.526507776232869"><ele>48.0</ele><time>2026-05-01T12:56:41.999Z</time></trkpt><trkpt lat="39.679281439311794" lon="8.526509603129917"><ele>48.0</ele><time>2026-05-01T12:56:42.999Z</time></trkpt><trkpt lat="39.679409610550174" lon="8.52652555640675"><ele>48.0</ele><time>2026-05-01T12:56:43.999Z</time></trkpt><trkpt lat="39.679555983340734" lon="8.526509092846242"><ele>47.5</ele><time>2026-05-01T12:56:44.999Z</time></trkpt><trkpt lat="39.67970837934464" lon="8.526484746376081"><ele>47.0</ele><time>2026-05-01T12:56:45.999Z</time></trkpt><trkpt lat="39.679832083247284" lon="8.526434114218363"><ele>46.5</ele><time>2026-05-01T12:56:46.999Z</time></trkpt><trkpt lat="39.679922170958385" lon="8.526397813842099"><ele>46.0</ele><time>2026-05-01T12:56:47.999Z</time></trkpt><trkpt lat="39.67999062173283" lon="8.526339342856454"><ele>46.0</ele><time>2026-05-01T12:56:48.999Z</time></trkpt><trkpt lat="39.680055577454425" lon="8.526237479141011"><ele>46.0</ele><time>2026-05-01T12:56:49.999Z</time></trkpt><trkpt lat="39.680152618343634" lon="8.526108053726059"><ele>46.0</ele><time>2026-05-01T12:56:50.999Z</time></trkpt><trkpt lat="39.68025574628122" lon="8.525989650191658"><ele>46.0</ele><time>2026-05-01T12:56:51.999Z</time></trkpt><trkpt lat="39.68037132954064" lon="8.525921940523244"><ele>44.333333333333336</ele><time>2026-05-01T12:56:52.999Z</time></trkpt><trkpt lat="39.68051577585543" lon="8.525896571210279"><ele>42.666666666666664</ele><time>2026-05-01T12:56:53.999Z</time></trkpt><trkpt lat="39.68066068792736" lon="8.525794614879512"><ele>41.0</ele><time>2026-05-01T12:56:54.999Z</time></trkpt><trkpt lat="39.68080843650999" lon="8.525688038368282"><ele>41.0</ele><time>2026-05-01T12:56:55.999Z</time></trkpt><trkpt lat="39.68092822672193" lon="8.525571338927323"><ele>41.0</ele><time>2026-05-01T12:56:56.999Z</time></trkpt><trkpt lat="39.68105628148613" lon="8.525475141735205"><ele>41.0</ele><time>2026-05-01T12:56:57.999Z</time></trkpt><trkpt lat="39.681177094890955" lon="8.525377465306672"><ele>41.0</ele><time>2026-05-01T12:56:58.999Z</time></trkpt><trkpt lat="39.68132845819756" lon="8.525296191690837"><ele>38.33333333333333</ele><time>2026-05-01T12:56:59.999Z</time></trkpt><trkpt lat="39.681486199112406" lon="8.5252110408353"><ele>35.666666666666664</ele><time>2026-05-01T12:57:00.999Z</time></trkpt><trkpt lat="39.68163361203265" lon="8.52510854434007"><ele>33.0</ele><time>2026-05-01T12:57:01.999Z</time></trkpt><trkpt lat="39.68175315121663" lon="8.524969475080406"><ele>33.0</ele><time>2026-05-01T12:57:02.999Z</time></trkpt><trkpt lat="39.68191122370846" lon="8.524897532128275"><ele>33.0</ele><time>2026-05-01T12:57:03.999Z</time></trkpt><trkpt lat="39.682066330788246" lon="8.524810198002548"><ele>33.0</ele><time>2026-05-01T12:57:04.999Z</time></trkpt><trkpt lat="39.682195620469955" lon="8.52470144346487"><ele>31.333333333333336</ele><time>2026-05-01T12:57:05.999Z</time></trkpt><trkpt lat="39.68232273277417" lon="8.524595915919686"><ele>29.666666666666668</ele><time>2026-05-01T12:57:06.999Z</time></trkpt><trkpt lat="39.68244221830257" lon="8.524468251089514"><ele>28.0</ele><time>2026-05-01T12:57:07.999Z</time></trkpt><trkpt lat="39.68257287515114" lon="8.524388583067893"><ele>28.0</ele><time>2026-05-01T12:57:08.999Z</time></trkpt><trkpt lat="39.68272023569871" lon="8.524363187022741"><ele>28.0</ele><time>2026-05-01T12:57:09.999Z</time></trkpt><trkpt lat="39.682885968639596" lon="8.524296033492078"><ele>28.0</ele><time>2026-05-01T12:57:10.999Z</time></trkpt><trkpt lat="39.68306517620882" lon="8.524215195429552"><ele>27.666666666666668</ele><time>2026-05-01T12:57:11.999Z</time></trkpt><trkpt lat="39.68325899605475" lon="8.524092255193592"><ele>27.333333333333336</ele><time>2026-05-01T12:57:12.999Z</time></trkpt><trkpt lat="39.68345069045918" lon="8.523968770825588"><ele>27.0</ele><time>2026-05-01T12:57:13.999Z</time></trkpt><trkpt lat="39.6836252840326" lon="8.523914180590916"><ele>27.666666666666664</ele><time>2026-05-01T12:57:14.999Z</time></trkpt><trkpt lat="39.683785598210605" lon="8.523859999951949"><ele>28.333333333333332</ele><time>2026-05-01T12:57:15.999Z</time></trkpt><trkpt lat="39.683955880133155" lon="8.523789821447567"><ele>29.0</ele><time>2026-05-01T12:57:16.999Z</time></trkpt><trkpt lat="39.68411664183753" lon="8.523746512667046"><ele>29.0</ele><time>2026-05-01T12:57:17.999Z</time></trkpt><trkpt lat="39.684263343276825" lon="8.52372161956379"><ele>29.0</ele><time>2026-05-01T12:57:18.999Z</time></trkpt><trkpt lat="39.68442188891586" lon="8.523664770177982"><ele>29.0</ele><time>2026-05-01T12:57:19.999Z</time></trkpt><trkpt lat="39.68461594808729" lon="8.523574657791535"><ele>29.0</ele><time>2026-05-01T12:57:20.999Z</time></trkpt><trkpt lat="39.684829439109464" lon="8.523478575858713"><ele>29.0</ele><time>2026-05-01T12:57:21.999Z</time></trkpt><trkpt lat="39.68500984579849" lon="8.523399533885922"><ele>29.0</ele><time>2026-05-01T12:57:22.999Z</time></trkpt><trkpt lat="39.68516906666865" lon="8.523343811412715"><ele>28.0</ele><time>2026-05-01T12:57:23.999Z</time></trkpt><trkpt lat="39.685294815856686" lon="8.523318222073646"><ele>27.0</ele><time>2026-05-01T12:57:24.999Z</time></trkpt><trkpt lat="39.6854468324945" lon="8.523349937349334"><ele>26.0</ele><time>2026-05-01T12:57:25.999Z</time></trkpt><trkpt lat="39.685625476563686" lon="8.523379828346831"><ele>26.0</ele><time>2026-05-01T12:57:26.999Z</time></trkpt><trkpt lat="39.68581931553347" lon="8.523429787878934"><ele>26.0</ele><time>2026-05-01T12:57:27.999Z</time></trkpt><trkpt lat="39.68602574582935" lon="8.52348524887336"><ele>26.0</ele><time>2026-05-01T12:57:28.999Z</time></trkpt><trkpt lat="39.68623163823849" lon="8.523513437861466"><ele>26.0</ele><time>2026-05-01T12:57:29.999Z</time></trkpt><trkpt lat="39.686405379129916" lon="8.523554412451375"><ele>26.0</ele><time>2026-05-01T12:57:30.999Z</time></trkpt><trkpt lat="39.68656246601515" lon="8.5235863640913"><ele>26.0</ele><time>2026-05-01T12:57:31.999Z</time></trkpt><trkpt lat="39.68670950803657" lon="8.523635309733685"><ele>26.0</ele><time>2026-05-01T12:57:32.999Z</time></trkpt><trkpt lat="39.68686884747986" lon="8.523654677291994"><ele>26.0</ele><time>2026-05-01T12:57:33.999Z</time></trkpt><trkpt lat="39.68704161498306" lon="8.523671697906268"><ele>26.0</ele><time>2026-05-01T12:57:34.999Z</time></trkpt><trkpt lat="39.687221161843866" lon="8.523645294347308"><ele>25.666666666666664</ele><time>2026-05-01T12:57:35.999Z</time></trkpt><trkpt lat="39.68739102645514" lon="8.52362238257371"><ele>25.333333333333336</ele><time>2026-05-01T12:57:36.999Z</time></trkpt><trkpt lat="39.68755175462035" lon="8.523587157274484"><ele>25.0</ele><time>2026-05-01T12:57:37.999Z</time></trkpt><trkpt lat="39.68771247705427" lon="8.5235359217012"><ele>23.666666666666668</ele><time>2026-05-01T12:57:38.999Z</time></trkpt><trkpt lat="39.687890176008274" lon="8.523462905630929"><ele>22.333333333333336</ele><time>2026-05-01T12:57:39.999Z</time></trkpt><trkpt lat="39.688082714808324" lon="8.523387539869619"><ele>21.0</ele><time>2026-05-01T12:57:40.999Z</time></trkpt><trkpt lat="39.688291589400144" lon="8.52332778248415"><ele>21.0</ele><time>2026-05-01T12:57:41.999Z</time></trkpt><trkpt lat="39.6885046879075" lon="8.523225204462346"><ele>21.0</ele><time>2026-05-01T12:57:42.999Z</time></trkpt><trkpt lat="39.68873092175128" lon="8.523137832371336"><ele>19.666666666666668</ele><time>2026-05-01T12:57:43.999Z</time></trkpt><trkpt lat="39.68893677258984" lon="8.523058332250832"><ele>18.333333333333336</ele><time>2026-05-01T12:57:44.999Z</time></trkpt><trkpt lat="39.689132799436344" lon="8.522982626182024"><ele>17.0</ele><time>2026-05-01T12:57:45.999Z</time></trkpt><trkpt lat="39.68933724417951" lon="8.522925758433232"><ele>17.333333333333336</ele><time>2026-05-01T12:57:46.999Z</time></trkpt><trkpt lat="39.68954153589243" lon="8.522844435314124"><ele>17.666666666666668</ele><time>2026-05-01T12:57:47.999Z</time></trkpt><trkpt lat="39.68971788201654" lon="8.522757446181693"><ele>18.0</ele><time>2026-05-01T12:57:48.999Z</time></trkpt><trkpt lat="39.6898631712487" lon="8.52273536284857"><ele>18.0</ele><time>2026-05-01T12:57:49.999Z</time></trkpt><trkpt lat="39.68997714880587" lon="8.522710426561872"><ele>18.0</ele><time>2026-05-01T12:57:50.999Z</time></trkpt><trkpt lat="39.69007421517705" lon="8.522706658637293"><ele>18.0</ele><time>2026-05-01T12:57:51.999Z</time></trkpt><trkpt lat="39.69016856555443" lon="8.522745273824546"><ele>18.0</ele><time>2026-05-01T12:57:52.999Z</time></trkpt><trkpt lat="39.690246782332075" lon="8.522819678431784"><ele>18.0</ele><time>2026-05-01T12:57:53.999Z</time></trkpt><trkpt lat="39.69031712503852" lon="8.522886938898088"><ele>18.2</ele><time>2026-05-01T12:57:54.999Z</time></trkpt><trkpt lat="39.69040401260152" lon="8.522891633196451"><ele>18.4</ele><time>2026-05-01T12:57:55.999Z</time></trkpt><trkpt lat="39.690507383543334" lon="8.522915230496782"><ele>18.599999999999998</ele><time>2026-05-01T12:57:56.999Z</time></trkpt><trkpt lat="39.69064253355624" lon="8.522933458163312"><ele>18.8</ele><time>2026-05-01T12:57:57.999Z</time></trkpt><trkpt lat="39.69076250935774" lon="8.522936062958456"><ele>19.0</ele><time>2026-05-01T12:57:58.999Z</time></trkpt><trkpt lat="39.69085932913135" lon="8.522922740630406"><ele>19.0</ele><time>2026-05-01T12:57:59.999Z</time></trkpt><trkpt lat="39.690944921910095" lon="8.522889671233683"><ele>19.0</ele><time>2026-05-01T12:58:00.999Z</time></trkpt><trkpt lat="39.69101952705241" lon="8.522843466150002"><ele>19.0</ele><time>2026-05-01T12:58:01.999Z</time></trkpt><trkpt lat="39.691083964271876" lon="8.522818517023966"><ele>19.0</ele><time>2026-05-01T12:58:02.999Z</time></trkpt><trkpt lat="39.69115508798131" lon="8.522848223310103"><ele>19.0</ele><time>2026-05-01T12:58:03.999Z</time></trkpt><trkpt lat="39.6912090599398" lon="8.522959309730961"><ele>19.0</ele><time>2026-05-01T12:58:04.999Z</time></trkpt><trkpt lat="39.69126812280292" lon="8.523084153852318"><ele>17.599999999999998</ele><time>2026-05-01T12:58:06Z</time></trkpt><trkpt lat="39.69133320590785" lon="8.523218940089208"><ele>16.2</ele><time>2026-05-01T12:58:07Z</time></trkpt><trkpt lat="39.691406231461535" lon="8.523342570299668"><ele>14.799999999999999</ele><time>2026-05-01T12:58:08Z</time></trkpt><trkpt lat="39.69146014058593" lon="8.523431977321998"><ele>13.399999999999999</ele><time>2026-05-01T12:58:09Z</time></trkpt><trkpt lat="39.69151446640535" lon="8.523524395826355"><ele>12.0</ele><time>2026-05-01T12:58:11Z</time></trkpt><trkpt lat="39.691586588532125" lon="8.523378485793092"><ele>12.0</ele><time>2026-05-01T12:58:15Z</time></trkpt><trkpt lat="39.69158495855147" lon="8.523229207527429"><ele>12.0</ele><time>2026-05-01T12:58:16Z</time></trkpt><trkpt lat="39.69158264034419" lon="8.52306420754478"><ele>12.0</ele><time>2026-05-01T12:58:17Z</time></trkpt><trkpt lat="39.69158093112333" lon="8.522897859856116"><ele>12.0</ele><time>2026-05-01T12:58:18Z</time></trkpt><trkpt lat="39.69158344067977" lon="8.522709261242829"><ele>11.333333333333334</ele><time>2026-05-01T12:58:19Z</time></trkpt><trkpt lat="39.69158908719601" lon="8.52249912809489"><ele>10.666666666666668</ele><time>2026-05-01T12:58:20Z</time></trkpt><trkpt lat="39.69159523719153" lon="8.522281924583737"><ele>10.0</ele><time>2026-05-01T12:58:21Z</time></trkpt><trkpt lat="39.6916040726982" lon="8.522063874071057"><ele>10.0</ele><time>2026-05-01T12:58:22Z</time></trkpt><trkpt lat="39.69162616779958" lon="8.521829502195505"><ele>10.0</ele><time>2026-05-01T12:58:23Z</time></trkpt><trkpt lat="39.691661565085056" lon="8.52158316323816"><ele>10.0</ele><time>2026-05-01T12:58:24Z</time></trkpt><trkpt lat="39.69171439286882" lon="8.521329055608748"><ele>7.0</ele><time>2026-05-01T12:58:25Z</time></trkpt><trkpt lat="39.69178033016803" lon="8.521084040953799"><ele>4.0</ele><time>2026-05-01T12:58:26Z</time></trkpt><trkpt lat="39.6918595369892" lon="8.520835455477828"><ele>1.0</ele><time>2026-05-01T12:58:27Z</time></trkpt><trkpt lat="39.69193564000105" lon="8.520584695309443"><ele>1.0</ele><time>2026-05-01T12:58:28Z</time></trkpt><trkpt lat="39.69201113483822" lon="8.52033118239471"><ele>1.0</ele><time>2026-05-01T12:58:29Z</time></trkpt><trkpt lat="39.69208430506902" lon="8.520072482727636"><ele>1.0</ele><time>2026-05-01T12:58:30Z</time></trkpt><trkpt lat="39.69215600796165" lon="8.519816079344515"><ele>1.6666666666666665</ele><time>2026-05-01T12:58:31Z</time></trkpt><trkpt lat="39.69222934094751" lon="8.519557559695016"><ele>2.3333333333333335</ele><time>2026-05-01T12:58:32Z</time></trkpt><trkpt lat="39.69230475708883" lon="8.519299291857951"><ele>3.0</ele><time>2026-05-01T12:58:33Z</time></trkpt><trkpt lat="39.69237989302914" lon="8.519040563812931"><ele>3.0</ele><time>2026-05-01T12:58:34Z</time></trkpt><trkpt lat="39.692457687335775" lon="8.51877864702366"><ele>3.0</ele><time>2026-05-01T12:58:35Z</time></trkpt><trkpt lat="39.69253531757971" lon="8.518516654443115"><ele>3.0</ele><time>2026-05-01T12:58:36Z</time></trkpt><trkpt lat="39.69261090511262" lon="8.518254861862786"><ele>3.333333333333333</ele><time>2026-05-01T12:58:37Z</time></trkpt><trkpt lat="39.69268581176944" lon="8.51799399519607"><ele>3.6666666666666665</ele><time>2026-05-01T12:58:38Z</time></trkpt><trkpt lat="39.69275856457449" lon="8.517734697996088"><ele>4.0</ele><time>2026-05-01T12:58:39Z</time></trkpt><trkpt lat="39.692830934545135" lon="8.51748320978411"><ele>4.0</ele><time>2026-05-01T12:58:40Z</time></trkpt><trkpt lat="39.69290501087129" lon="8.517239649211666"><ele>4.0</ele><time>2026-05-01T12:58:41Z</time></trkpt><trkpt lat="39.692990223957956" lon="8.51700710184118"><ele>4.0</ele><time>2026-05-01T12:58:42Z</time></trkpt><trkpt lat="39.693103061263706" lon="8.51679563788826"><ele>4.0</ele><time>2026-05-01T12:58:43Z</time></trkpt><trkpt lat="39.693250965794185" lon="8.516617017125522"><ele>4.0</ele><time>2026-05-01T12:58:44Z</time></trkpt><trkpt lat="39.69340392799736" lon="8.516454673668076"><ele>4.0</ele><time>2026-05-01T12:58:45Z</time></trkpt><trkpt lat="39.693568057708816" lon="8.51629232099926"><ele>3.6666666666666665</ele><time>2026-05-01T12:58:46Z</time></trkpt><trkpt lat="39.69373149164174" lon="8.516129438751976"><ele>3.333333333333333</ele><time>2026-05-01T12:58:46.999Z</time></trkpt><trkpt lat="39.69389137820105" lon="8.51595998241817"><ele>3.0</ele><time>2026-05-01T12:58:47.999Z</time></trkpt><trkpt lat="39.694052861580936" lon="8.515789443767844"><ele>3.0</ele><time>2026-05-01T12:58:48.999Z</time></trkpt><trkpt lat="39.694217531704766" lon="8.515619055818805"><ele>3.0</ele><time>2026-05-01T12:58:49.999Z</time></trkpt><trkpt lat="39.6943842892282" lon="8.515450830777231"><ele>3.0</ele><time>2026-05-01T12:58:50.999Z</time></trkpt><trkpt lat="39.69455370634695" lon="8.515278615497943"><ele>4.0</ele><time>2026-05-01T12:58:51.999Z</time></trkpt><trkpt lat="39.694721677377345" lon="8.51510333070627"><ele>5.0</ele><time>2026-05-01T12:58:52.999Z</time></trkpt><trkpt lat="39.69488919864951" lon="8.514929399417833"><ele>6.0</ele><time>2026-05-01T12:58:53.999Z</time></trkpt><trkpt lat="39.695054616042995" lon="8.514755590382206"><ele>6.0</ele><time>2026-05-01T12:58:54.999Z</time></trkpt><trkpt lat="39.69521993980323" lon="8.514581515854555"><ele>6.0</ele><time>2026-05-01T12:58:55.999Z</time></trkpt><trkpt lat="39.69538202379403" lon="8.514409014886375"><ele>6.0</ele><time>2026-05-01T12:58:56.999Z</time></trkpt><trkpt lat="39.695546052148345" lon="8.514233871481341"><ele>6.0</ele><time>2026-05-01T12:58:57.999Z</time></trkpt><trkpt lat="39.6957119084066" lon="8.51405764272212"><ele>6.0</ele><time>2026-05-01T12:58:58.999Z</time></trkpt><trkpt lat="39.695880629765405" lon="8.51388691243358"><ele>6.0</ele><time>2026-05-01T12:58:59.999Z</time></trkpt><trkpt lat="39.696052573805474" lon="8.513710117877993"><ele>6.333333333333334</ele><time>2026-05-01T12:59:00.999Z</time></trkpt><trkpt lat="39.69621752667265" lon="8.513526634580913"><ele>6.666666666666667</ele><time>2026-05-01T12:59:01.999Z</time></trkpt><trkpt lat="39.69638609104604" lon="8.513357557002069"><ele>7.0</ele><time>2026-05-01T12:59:02.999Z</time></trkpt><trkpt lat="39.69656387261698" lon="8.51319965161569"><ele>7.0</ele><time>2026-05-01T12:59:03.999Z</time></trkpt><trkpt lat="39.696746191352105" lon="8.513056900545557"><ele>7.0</ele><time>2026-05-01T12:59:04.999Z</time></trkpt><trkpt lat="39.696935163676386" lon="8.51293198415163"><ele>7.0</ele><time>2026-05-01T12:59:05.999Z</time></trkpt><trkpt lat="39.69713255633292" lon="8.512832320360609"><ele>7.0</ele><time>2026-05-01T12:59:06.999Z</time></trkpt><trkpt lat="39.697333421547086" lon="8.512738500081777"><ele>7.0</ele><time>2026-05-01T12:59:07.999Z</time></trkpt><trkpt lat="39.697531747225504" lon="8.512642358166268"><ele>7.0</ele><time>2026-05-01T12:59:08.999Z</time></trkpt><trkpt lat="39.697727158645634" lon="8.512538184883097"><ele>7.333333333333334</ele><time>2026-05-01T12:59:09.999Z</time></trkpt><trkpt lat="39.697922595525554" lon="8.512435753578771"><ele>7.666666666666666</ele><time>2026-05-01T12:59:10.999Z</time></trkpt><trkpt lat="39.6981208384253" lon="8.512337840765953"><ele>8.0</ele><time>2026-05-01T12:59:11.999Z</time></trkpt><trkpt lat="39.69831946808988" lon="8.512237479172944"><ele>8.0</ele><time>2026-05-01T12:59:12.999Z</time></trkpt><trkpt lat="39.69851598546865" lon="8.512136537119488"><ele>8.0</ele><time>2026-05-01T12:59:13.999Z</time></trkpt><trkpt lat="39.6987123614626" lon="8.512032603408212"><ele>8.0</ele><time>2026-05-01T12:59:14.999Z</time></trkpt><trkpt lat="39.69890790739566" lon="8.511926057180387"><ele>9.0</ele><time>2026-05-01T12:59:15.999Z</time></trkpt><trkpt lat="39.69910458494877" lon="8.51182283764501"><ele>10.0</ele><time>2026-05-01T12:59:16.999Z</time></trkpt><trkpt lat="39.69929847139538" lon="8.511715188617961"><ele>11.0</ele><time>2026-05-01T12:59:17.999Z</time></trkpt><trkpt lat="39.69949649723715" lon="8.511616323860501"><ele>11.0</ele><time>2026-05-01T12:59:18.999Z</time></trkpt><trkpt lat="39.69969565994482" lon="8.511522927090155"><ele>11.0</ele><time>2026-05-01T12:59:19.999Z</time></trkpt><trkpt lat="39.69989067964542" lon="8.511421449359682"><ele>11.0</ele><time>2026-05-01T12:59:20.999Z</time></trkpt><trkpt lat="39.700081300871446" lon="8.511309791691072"><ele>10.0</ele><time>2026-05-01T12:59:21.999Z</time></trkpt><trkpt lat="39.70026376780329" lon="8.511178980642878"><ele>9.0</ele><time>2026-05-01T12:59:22.999Z</time></trkpt><trkpt lat="39.70042902096435" lon="8.511008507445633"><ele>8.0</ele><time>2026-05-01T12:59:23.999Z</time></trkpt><trkpt lat="39.70057763800279" lon="8.510812847772039"><ele>8.0</ele><time>2026-05-01T12:59:24.999Z</time></trkpt><trkpt lat="39.70070123767211" lon="8.510587577696839"><ele>8.0</ele><time>2026-05-01T12:59:25.999Z</time></trkpt><trkpt lat="39.700809530343555" lon="8.510350681241045"><ele>8.0</ele><time>2026-05-01T12:59:26.999Z</time></trkpt><trkpt lat="39.700913831670995" lon="8.510114608192389"><ele>7.666666666666666</ele><time>2026-05-01T12:59:27.999Z</time></trkpt><trkpt lat="39.70102144851637" lon="8.509882203507498"><ele>7.333333333333334</ele><time>2026-05-01T12:59:28.999Z</time></trkpt><trkpt lat="39.70112960792731" lon="8.509650884314409"><ele>7.0</ele><time>2026-05-01T12:59:29.999Z</time></trkpt><trkpt lat="39.70124303749627" lon="8.509423991886623"><ele>7.666666666666667</ele><time>2026-05-01T12:59:30.999Z</time></trkpt><trkpt lat="39.7013579239193" lon="8.509196686219596"><ele>8.333333333333334</ele><time>2026-05-01T12:59:31.999Z</time></trkpt><trkpt lat="39.70147485301923" lon="8.508967409900201"><ele>9.0</ele><time>2026-05-01T12:59:32.999Z</time></trkpt><trkpt lat="39.70158889031462" lon="8.508737983096784"><ele>9.0</ele><time>2026-05-01T12:59:33.999Z</time></trkpt><trkpt lat="39.70170314295032" lon="8.508506934557857"><ele>9.0</ele><time>2026-05-01T12:59:34.999Z</time></trkpt><trkpt lat="39.701813884321886" lon="8.508273666942753"><ele>9.0</ele><time>2026-05-01T12:59:35.999Z</time></trkpt><trkpt lat="39.70192502886012" lon="8.508041451924372"><ele>10.0</ele><time>2026-05-01T12:59:36.999Z</time></trkpt><trkpt lat="39.702038551424415" lon="8.507810499416316"><ele>11.0</ele><time>2026-05-01T12:59:37.999Z</time></trkpt><trkpt lat="39.7021529046242" lon="8.507582009238835"><ele>12.0</ele><time>2026-05-01T12:59:38.999Z</time></trkpt><trkpt lat="39.702268042725926" lon="8.507355483913141"><ele>12.0</ele><time>2026-05-01T12:59:39.999Z</time></trkpt><trkpt lat="39.7023814550061" lon="8.507130046221565"><ele>12.0</ele><time>2026-05-01T12:59:40.999Z</time></trkpt><trkpt lat="39.70248930684325" lon="8.506900603822212"><ele>12.0</ele><time>2026-05-01T12:59:41.999Z</time></trkpt><trkpt lat="39.702597829360286" lon="8.506672298096351"><ele>12.0</ele><time>2026-05-01T12:59:42.999Z</time></trkpt><trkpt lat="39.702707735877866" lon="8.506444605502232"><ele>12.0</ele><time>2026-05-01T12:59:43.999Z</time></trkpt><trkpt lat="39.702819908177005" lon="8.506218793123258"><ele>12.0</ele><time>2026-05-01T12:59:44.999Z</time></trkpt><trkpt lat="39.70293358147496" lon="8.505990726388656"><ele>10.666666666666666</ele><time>2026-05-01T12:59:45.999Z</time></trkpt><trkpt lat="39.703047494541316" lon="8.505759223254575"><ele>9.333333333333332</ele><time>2026-05-01T12:59:46.999Z</time></trkpt><trkpt lat="39.703164798137195" lon="8.505525445546253"><ele>8.0</ele><time>2026-05-01T12:59:47.999Z</time></trkpt><trkpt lat="39.70328123232588" lon="8.505291243130946"><ele>8.0</ele><time>2026-05-01T12:59:48.999Z</time></trkpt><trkpt lat="39.70339303683395" lon="8.505052049659326"><ele>8.0</ele><time>2026-05-01T12:59:49.999Z</time></trkpt><trkpt lat="39.703507129933705" lon="8.504814102212798"><ele>8.0</ele><time>2026-05-01T12:59:50.999Z</time></trkpt><trkpt lat="39.70362271802401" lon="8.504579550961626"><ele>8.666666666666666</ele><time>2026-05-01T12:59:51.999Z</time></trkpt><trkpt lat="39.703736483965905" lon="8.504340901860454"><ele>9.333333333333334</ele><time>2026-05-01T12:59:52.999Z</time></trkpt><trkpt lat="39.70384963726" lon="8.504105914278279"><ele>10.0</ele><time>2026-05-01T12:59:53.999Z</time></trkpt><trkpt lat="39.703964599637786" lon="8.503873581506392"><ele>10.666666666666668</ele><time>2026-05-01T12:59:54.999Z</time></trkpt><trkpt lat="39.70407921715998" lon="8.50363841127271"><ele>11.333333333333334</ele><time>2026-05-01T12:59:55.999Z</time></trkpt><trkpt lat="39.704190924557906" lon="8.503408228440287"><ele>12.0</ele><time>2026-05-01T12:59:56.999Z</time></trkpt><trkpt lat="39.7043024427967" lon="8.503179032072914"><ele>12.333333333333332</ele><time>2026-05-01T12:59:57.999Z</time></trkpt><trkpt lat="39.70441581033615" lon="8.502951823689259"><ele>12.666666666666666</ele><time>2026-05-01T12:59:58.999Z</time></trkpt><trkpt lat="39.704521097144564" lon="8.502729342621084"><ele>13.0</ele><time>2026-05-01T12:59:59.999Z</time></trkpt><trkpt lat="39.70463423178348" lon="8.502515755416809"><ele>13.0</ele><time>2026-05-01T13:00:00.999Z</time></trkpt><trkpt lat="39.70476126778357" lon="8.502316615832132"><ele>13.0</ele><time>2026-05-01T13:00:01.999Z</time></trkpt><trkpt lat="39.70490878877776" lon="8.502142707678624"><ele>13.0</ele><time>2026-05-01T13:00:02.999Z</time></trkpt><trkpt lat="39.7050725639914" lon="8.501993108307115"><ele>15.0</ele><time>2026-05-01T13:00:03.999Z</time></trkpt><trkpt lat="39.7052568734999" lon="8.501892608944145"><ele>17.0</ele><time>2026-05-01T13:00:04.999Z</time></trkpt><trkpt lat="39.70545706016429" lon="8.50184703116913"><ele>19.0</ele><time>2026-05-01T13:00:05.999Z</time></trkpt><trkpt lat="39.705658519551356" lon="8.50181250173494"><ele>19.0</ele><time>2026-05-01T13:00:06.999Z</time></trkpt><trkpt lat="39.70585867221165" lon="8.501759213157946"><ele>19.0</ele><time>2026-05-01T13:00:07.999Z</time></trkpt><trkpt lat="39.70605030665631" lon="8.501688926255834"><ele>19.0</ele><time>2026-05-01T13:00:08.999Z</time></trkpt><trkpt lat="39.70622264527578" lon="8.50158710574692"><ele>18.0</ele><time>2026-05-01T13:00:09.999Z</time></trkpt><trkpt lat="39.70637598253624" lon="8.50144254248473"><ele>17.0</ele><time>2026-05-01T13:00:10.999Z</time></trkpt><trkpt lat="39.70650692521057" lon="8.501260879488497"><ele>16.0</ele><time>2026-05-01T13:00:12Z</time></trkpt><trkpt lat="39.70660560484678" lon="8.501043229111357"><ele>16.0</ele><time>2026-05-01T13:00:13Z</time></trkpt><trkpt lat="39.706678379485716" lon="8.50081095257942"><ele>16.0</ele><time>2026-05-01T13:00:14Z</time></trkpt><trkpt lat="39.70675035381435" lon="8.50058180019178"><ele>16.0</ele><time>2026-05-01T13:00:15Z</time></trkpt><trkpt lat="39.70685166778914" lon="8.500375694842493"><ele>13.333333333333332</ele><time>2026-05-01T13:00:16Z</time></trkpt><trkpt lat="39.70698877616428" lon="8.50019729906874"><ele>10.666666666666666</ele><time>2026-05-01T13:00:17Z</time></trkpt><trkpt lat="39.707143137402426" lon="8.50004688028368"><ele>8.0</ele><time>2026-05-01T13:00:18Z</time></trkpt><trkpt lat="39.707316033111965" lon="8.499931914877816"><ele>8.0</ele><time>2026-05-01T13:00:19Z</time></trkpt><trkpt lat="39.70751097233654" lon="8.499865532857271"><ele>8.0</ele><time>2026-05-01T13:00:20Z</time></trkpt><trkpt lat="39.70771250880847" lon="8.499846363729066"><ele>8.0</ele><time>2026-05-01T13:00:21Z</time></trkpt><trkpt lat="39.70791048608272" lon="8.499824895781058"><ele>6.666666666666666</ele><time>2026-05-01T13:00:22Z</time></trkpt><trkpt lat="39.70810422161223" lon="8.499786612360976"><ele>5.333333333333333</ele><time>2026-05-01T13:00:23Z</time></trkpt><trkpt lat="39.70829280631428" lon="8.499727088829113"><ele>4.0</ele><time>2026-05-01T13:00:24Z</time></trkpt><trkpt lat="39.70847784864265" lon="8.49965196763024"><ele>5.0</ele><time>2026-05-01T13:00:25Z</time></trkpt><trkpt lat="39.70865555213171" lon="8.499553774473103"><ele>6.0</ele><time>2026-05-01T13:00:26Z</time></trkpt><trkpt lat="39.70882495310841" lon="8.499422664138077"><ele>7.0</ele><time>2026-05-01T13:00:27Z</time></trkpt><trkpt lat="39.70898939299252" lon="8.499273496366005"><ele>7.0</ele><time>2026-05-01T13:00:28Z</time></trkpt><trkpt lat="39.70915897295527" lon="8.499130739404945"><ele>7.0</ele><time>2026-05-01T13:00:29Z</time></trkpt><trkpt lat="39.70933085470838" lon="8.498992032082706"><ele>7.0</ele><time>2026-05-01T13:00:30Z</time></trkpt><trkpt lat="39.70950258439519" lon="8.498851742243309"><ele>8.0</ele><time>2026-05-01T13:00:31Z</time></trkpt><trkpt lat="39.70967325204284" lon="8.498711660663433"><ele>9.0</ele><time>2026-05-01T13:00:32Z</time></trkpt><trkpt lat="39.709843355217366" lon="8.49857181539391"><ele>10.0</ele><time>2026-05-01T13:00:33Z</time></trkpt><trkpt lat="39.71001308640591" lon="8.498431315053121"><ele>10.0</ele><time>2026-05-01T13:00:34Z</time></trkpt><trkpt lat="39.71018277110951" lon="8.498290157783174"><ele>10.0</ele><time>2026-05-01T13:00:35Z</time></trkpt><trkpt lat="39.71035340493777" lon="8.49814955929412"><ele>10.0</ele><time>2026-05-01T13:00:36Z</time></trkpt><trkpt lat="39.71052419423199" lon="8.498009707246874"><ele>10.333333333333334</ele><time>2026-05-01T13:00:37Z</time></trkpt><trkpt lat="39.710695538491784" lon="8.49787209484804"><ele>10.666666666666666</ele><time>2026-05-01T13:00:38Z</time></trkpt><trkpt lat="39.7108669624961" lon="8.497734089337763"><ele>11.0</ele><time>2026-05-01T13:00:39Z</time></trkpt><trkpt lat="39.711038099355825" lon="8.49759203296178"><ele>9.333333333333332</ele><time>2026-05-01T13:00:40Z</time></trkpt><trkpt lat="39.71120870042167" lon="8.497448401253864"><ele>7.666666666666666</ele><time>2026-05-01T13:00:41Z</time></trkpt><trkpt lat="39.71137918058871" lon="8.497305413518907"><ele>6.0</ele><time>2026-05-01T13:00:42Z</time></trkpt><trkpt lat="39.711548901872476" lon="8.497165452382466"><ele>6.333333333333334</ele><time>2026-05-01T13:00:43Z</time></trkpt><trkpt lat="39.711713596504566" lon="8.497035421098676"><ele>6.666666666666667</ele><time>2026-05-01T13:00:44Z</time></trkpt><trkpt lat="39.71185966347048" lon="8.496912518104478"><ele>7.0</ele><time>2026-05-01T13:00:45Z</time></trkpt><trkpt lat="39.71199632675571" lon="8.49679197225993"><ele>6.25</ele><time>2026-05-01T13:00:46Z</time></trkpt><trkpt lat="39.71212615630225" lon="8.496685251741415"><ele>5.5</ele><time>2026-05-01T13:00:47Z</time></trkpt><trkpt lat="39.7122478464119" lon="8.496587782785165"><ele>4.75</ele><time>2026-05-01T13:00:48Z</time></trkpt><trkpt lat="39.71235953019701" lon="8.496492276941762"><ele>4.0</ele><time>2026-05-01T13:00:49Z</time></trkpt><trkpt lat="39.712455116809714" lon="8.496388902765398"><ele>4.0</ele><time>2026-05-01T13:00:50Z</time></trkpt><trkpt lat="39.71253133733732" lon="8.496289519184408"><ele>4.0</ele><time>2026-05-01T13:00:51Z</time></trkpt><trkpt lat="39.71258572570295" lon="8.49621033748684"><ele>4.0</ele><time>2026-05-01T13:00:52Z</time></trkpt><trkpt lat="39.71265262387529" lon="8.49618124025713"><ele>4.0</ele><time>2026-05-01T13:00:54Z</time></trkpt><trkpt lat="39.712795329935524" lon="8.496243414887676"><ele>4.0</ele><time>2026-05-01T13:00:59.999Z</time></trkpt><trkpt lat="39.712930267426245" lon="8.496260743907158"><ele>3.8000000000000003</ele><time>2026-05-01T13:01:01.999Z</time></trkpt><trkpt lat="39.71301308073361" lon="8.49626663681574"><ele>3.6000000000000005</ele><time>2026-05-01T13:01:02.999Z</time></trkpt><trkpt lat="39.71310585860859" lon="8.496265093718934"><ele>3.4</ele><time>2026-05-01T13:01:03.999Z</time></trkpt><trkpt lat="39.713207424204214" lon="8.496251626970217"><ele>3.2</ele><time>2026-05-01T13:01:04.999Z</time></trkpt><trkpt lat="39.713317876486364" lon="8.496249206452784"><ele>3.0</ele><time>2026-05-01T13:01:05.999Z</time></trkpt><trkpt lat="39.71343389566161" lon="8.496286672967672"><ele>3.0</ele><time>2026-05-01T13:01:06.999Z</time></trkpt><trkpt lat="39.71355096248866" lon="8.496355263164201"><ele>3.0</ele><time>2026-05-01T13:01:07.999Z</time></trkpt><trkpt lat="39.713669144567604" lon="8.496431883085288"><ele>3.0</ele><time>2026-05-01T13:01:08.999Z</time></trkpt><trkpt lat="39.71378036365396" lon="8.496525236871847"><ele>3.0</ele><time>2026-05-01T13:01:09.999Z</time></trkpt><trkpt lat="39.713867566731764" lon="8.496642020188087"><ele>2.5</ele><time>2026-05-01T13:01:10.999Z</time></trkpt><trkpt lat="39.71389102512276" lon="8.496794416279267"><ele>2.0</ele><time>2026-05-01T13:01:11.999Z</time></trkpt><trkpt lat="39.71389298205604" lon="8.49695755558428"><ele>1.5</ele><time>2026-05-01T13:01:12.999Z</time></trkpt><trkpt lat="39.71387951830972" lon="8.497141513370394"><ele>1.0</ele><time>2026-05-01T13:01:13.999Z</time></trkpt><trkpt lat="39.71386271265572" lon="8.497326478644016"><ele>1.0</ele><time>2026-05-01T13:01:14.999Z</time></trkpt><trkpt lat="39.71384050323647" lon="8.497514988772405"><ele>1.0</ele><time>2026-05-01T13:01:15.999Z</time></trkpt><trkpt lat="39.71382019741735" lon="8.497713039306117"><ele>1.0</ele><time>2026-05-01T13:01:16.999Z</time></trkpt><trkpt lat="39.71381856963639" lon="8.497918903898771"><ele>1.0</ele><time>2026-05-01T13:01:17.999Z</time></trkpt><trkpt lat="39.71383016325746" lon="8.498124693183605"><ele>1.0</ele><time>2026-05-01T13:01:18.999Z</time></trkpt><trkpt lat="39.71383863772042" lon="8.49833135571027"><ele>1.0</ele><time>2026-05-01T13:01:19.999Z</time></trkpt><trkpt lat="39.713826816070664" lon="8.498520722985015"><ele>1.0</ele><time>2026-05-01T13:01:20.999Z</time></trkpt><trkpt lat="39.71379411371085" lon="8.498684810011111"><ele>1.0</ele><time>2026-05-01T13:01:21.999Z</time></trkpt><trkpt lat="39.71373927857119" lon="8.49886482593768"><ele>1.0</ele><time>2026-05-01T13:01:22.999Z</time></trkpt><trkpt lat="39.71367232703532" lon="8.499044052793725"><ele>1.0</ele><time>2026-05-01T13:01:23.999Z</time></trkpt><trkpt lat="39.71359721976493" lon="8.499227086274425"><ele>2.0</ele><time>2026-05-01T13:01:24.999Z</time></trkpt><trkpt lat="39.71351373180497" lon="8.49941160127061"><ele>3.0</ele><time>2026-05-01T13:01:25.999Z</time></trkpt><trkpt lat="39.713417553692835" lon="8.499588965970556"><ele>4.0</ele><time>2026-05-01T13:01:26.999Z</time></trkpt><trkpt lat="39.71331324223075" lon="8.49977033931759"><ele>4.0</ele><time>2026-05-01T13:01:27.999Z</time></trkpt><trkpt lat="39.71320614138116" lon="8.499950339648"><ele>4.0</ele><time>2026-05-01T13:01:28.999Z</time></trkpt><trkpt lat="39.71310712069155" lon="8.500143094202194"><ele>4.0</ele><time>2026-05-01T13:01:29.999Z</time></trkpt><trkpt lat="39.71299669327795" lon="8.500323689278208"><ele>3.333333333333333</ele><time>2026-05-01T13:01:30.999Z</time></trkpt><trkpt lat="39.712880839405166" lon="8.500493512645884"><ele>2.6666666666666665</ele><time>2026-05-01T13:01:31.999Z</time></trkpt><trkpt lat="39.71277553879089" lon="8.500690221619719"><ele>2.0</ele><time>2026-05-01T13:01:32.999Z</time></trkpt><trkpt lat="39.71267646426254" lon="8.500889550738503"><ele>2.0</ele><time>2026-05-01T13:01:33.999Z</time></trkpt><trkpt lat="39.712592242168085" lon="8.501079744433687"><ele>2.0</ele><time>2026-05-01T13:01:34.999Z</time></trkpt><trkpt lat="39.7125268073462" lon="8.501276118955854"><ele>2.0</ele><time>2026-05-01T13:01:35.999Z</time></trkpt><trkpt lat="39.71248705475621" lon="8.501480468521212"><ele>2.2</ele><time>2026-05-01T13:01:36.999Z</time></trkpt><trkpt lat="39.71247754081732" lon="8.501663311601698"><ele>2.4000000000000004</ele><time>2026-05-01T13:01:37.999Z</time></trkpt><trkpt lat="39.71247353772018" lon="8.50179998282686"><ele>2.5999999999999996</ele><time>2026-05-01T13:01:38.999Z</time></trkpt><trkpt lat="39.712483578893305" lon="8.501904302898527"><ele>2.8</ele><time>2026-05-01T13:01:39.999Z</time></trkpt><trkpt lat="39.712524488255916" lon="8.501972741903987"><ele>3.0</ele><time>2026-05-01T13:01:41.999Z</time></trkpt><trkpt lat="39.71258074215241" lon="8.502018715697542"><ele>2.8</ele><time>2026-05-01T13:01:43.999Z</time></trkpt><trkpt lat="39.71268277136022" lon="8.502087162192172"><ele>2.5999999999999996</ele><time>2026-05-01T13:01:45.999Z</time></trkpt><trkpt lat="39.71275496202909" lon="8.502137020950885"><ele>2.4000000000000004</ele><time>2026-05-01T13:04:19.999Z</time></trkpt><trkpt lat="39.71282701622551" lon="8.502193078737628"><ele>2.2</ele><time>2026-05-01T13:04:20.999Z</time></trkpt><trkpt lat="39.71291700309892" lon="8.502238293630462"><ele>2.0</ele><time>2026-05-01T13:04:21.999Z</time></trkpt><trkpt lat="39.71300616833629" lon="8.502281726156607"><ele>1.8</ele><time>2026-05-01T13:04:23Z</time></trkpt><trkpt lat="39.713085934914595" lon="8.502339568052815"><ele>1.6</ele><time>2026-05-01T13:04:24Z</time></trkpt><trkpt lat="39.713161371443135" lon="8.502395786053093"><ele>1.4000000000000001</ele><time>2026-05-01T13:04:25Z</time></trkpt><trkpt lat="39.713250320914184" lon="8.502458595748125"><ele>1.2000000000000002</ele><time>2026-05-01T13:04:26Z</time></trkpt><trkpt lat="39.71334682664201" lon="8.502520422674543"><ele>1.0</ele><time>2026-05-01T13:04:27Z</time></trkpt><trkpt lat="39.71344058060932" lon="8.50257812539734"><ele>1.0</ele><time>2026-05-01T13:04:28Z</time></trkpt><trkpt lat="39.7135323983576" lon="8.502636029333289"><ele>1.0</ele><time>2026-05-01T13:04:29Z</time></trkpt><trkpt lat="39.7136241533882" lon="8.50270353587067"><ele>1.0</ele><time>2026-05-01T13:04:30Z</time></trkpt><trkpt lat="39.71373288152822" lon="8.50277889719297"><ele>1.0</ele><time>2026-05-01T13:04:31Z</time></trkpt><trkpt lat="39.713840121183765" lon="8.50284119716064"><ele>1.0</ele><time>2026-05-01T13:04:32Z</time></trkpt><trkpt lat="39.71394358766425" lon="8.502907424991918"><ele>1.0</ele><time>2026-05-01T13:04:33Z</time></trkpt><trkpt lat="39.71404588280535" lon="8.502977620593965"><ele>1.0</ele><time>2026-05-01T13:04:34Z</time></trkpt><trkpt lat="39.714150245853304" lon="8.503047606584918"><ele>1.0</ele><time>2026-05-01T13:04:35Z</time></trkpt><trkpt lat="39.714254293927326" lon="8.503112539598147"><ele>1.0</ele><time>2026-05-01T13:04:36Z</time></trkpt><trkpt lat="39.71435852991659" lon="8.503178346469321"><ele>0.75</ele><time>2026-05-01T13:04:37Z</time></trkpt><trkpt lat="39.71446522579255" lon="8.503250278360815"><ele>0.5</ele><time>2026-05-01T13:04:38Z</time></trkpt><trkpt lat="39.71457203626271" lon="8.503324606211368"><ele>0.25</ele><time>2026-05-01T13:04:39Z</time></trkpt><trkpt lat="39.71467998907172" lon="8.50339302918009"><ele>0.0</ele><time>2026-05-01T13:04:40Z</time></trkpt><trkpt lat="39.71479144959588" lon="8.5034601299254"><ele>0.0</ele><time>2026-05-01T13:04:41Z</time></trkpt><trkpt lat="39.71490829018459" lon="8.503533772088545"><ele>0.0</ele><time>2026-05-01T13:04:42Z</time></trkpt><trkpt lat="39.715025343593254" lon="8.503613830332045"><ele>0.0</ele><time>2026-05-01T13:04:43Z</time></trkpt><trkpt lat="39.71514463275545" lon="8.50369557806648"><ele>0.0</ele><time>2026-05-01T13:04:44Z</time></trkpt><trkpt lat="39.71526579564282" lon="8.503771392937479"><ele>0.0</ele><time>2026-05-01T13:04:45Z</time></trkpt><trkpt lat="39.715385792886124" lon="8.50384641904669"><ele>0.0</ele><time>2026-05-01T13:04:46Z</time></trkpt><trkpt lat="39.71550415984236" lon="8.503924626206526"><ele>0.0</ele><time>2026-05-01T13:04:47Z</time></trkpt><trkpt lat="39.715623669788435" lon="8.504008206902677"><ele>0.0</ele><time>2026-05-01T13:04:48Z</time></trkpt><trkpt lat="39.715744484023745" lon="8.504087888679333"><ele>0.0</ele><time>2026-05-01T13:04:49Z</time></trkpt><trkpt lat="39.71586333134323" lon="8.504164399197238"><ele>0.0</ele><time>2026-05-01T13:04:50Z</time></trkpt><trkpt lat="39.715982494658135" lon="8.50424096791727"><ele>0.0</ele><time>2026-05-01T13:04:51Z</time></trkpt><trkpt lat="39.71610228300407" lon="8.50432033048769"><ele>0.0</ele><time>2026-05-01T13:04:52Z</time></trkpt><trkpt lat="39.71622320898546" lon="8.504399801584773"><ele>0.0</ele><time>2026-05-01T13:04:53Z</time></trkpt><trkpt lat="39.71634801358999" lon="8.504484469715626"><ele>0.0</ele><time>2026-05-01T13:04:54Z</time></trkpt><trkpt lat="39.716475194769615" lon="8.504567528066913"><ele>0.0</ele><time>2026-05-01T13:04:55Z</time></trkpt><trkpt lat="39.71660256801984" lon="8.504649772497393"><ele>0.0</ele><time>2026-05-01T13:04:56Z</time></trkpt><trkpt lat="39.71673041607545" lon="8.50473223679293"><ele>0.0</ele><time>2026-05-01T13:04:57Z</time></trkpt><trkpt lat="39.71685308247742" lon="8.504811742853523"><ele>0.0</ele><time>2026-05-01T13:04:58Z</time></trkpt><trkpt lat="39.716973855296516" lon="8.504889985718023"><ele>0.0</ele><time>2026-05-01T13:04:59Z</time></trkpt><trkpt lat="39.717097592856184" lon="8.504969476936273"><ele>0.0</ele><time>2026-05-01T13:05:00Z</time></trkpt><trkpt lat="39.7172215567105" lon="8.505051513465835"><ele>0.0</ele><time>2026-05-01T13:05:01Z</time></trkpt><trkpt lat="39.71734456794474" lon="8.505133511690987"><ele>0.0</ele><time>2026-05-01T13:05:02Z</time></trkpt><trkpt lat="39.71746608448339" lon="8.505215581845047"><ele>0.0</ele><time>2026-05-01T13:05:03Z</time></trkpt><trkpt lat="39.717585137838974" lon="8.505297602381518"><ele>0.0</ele><time>2026-05-01T13:05:04Z</time></trkpt><trkpt lat="39.717707210523535" lon="8.505378827595733"><ele>0.0</ele><time>2026-05-01T13:05:05Z</time></trkpt><trkpt lat="39.71783243674159" lon="8.505459550283534"><ele>0.0</ele><time>2026-05-01T13:05:06Z</time></trkpt><trkpt lat="39.71795463492868" lon="8.505538380075194"><ele>0.0</ele><time>2026-05-01T13:05:07Z</time></trkpt><trkpt lat="39.71807325607961" lon="8.50561720162656"><ele>0.0</ele><time>2026-05-01T13:05:07.999Z</time></trkpt><trkpt lat="39.718193219708546" lon="8.505697906055902"><ele>0.0</ele><time>2026-05-01T13:05:08.999Z</time></trkpt><trkpt lat="39.718316083339985" lon="8.505778843710498"><ele>0.0</ele><time>2026-05-01T13:05:09.999Z</time></trkpt><trkpt lat="39.71843886708657" lon="8.505862390078175"><ele>0.0</ele><time>2026-05-01T13:05:10.999Z</time></trkpt><trkpt lat="39.71856179037744" lon="8.505945227355582"><ele>0.0</ele><time>2026-05-01T13:05:11.999Z</time></trkpt><trkpt lat="39.71868581468734" lon="8.506025461561261"><ele>0.0</ele><time>2026-05-01T13:05:12.999Z</time></trkpt><trkpt lat="39.7188099443106" lon="8.506107574847922"><ele>0.0</ele><time>2026-05-01T13:05:13.999Z</time></trkpt><trkpt lat="39.71893423757794" lon="8.506188055534846"><ele>0.0</ele><time>2026-05-01T13:05:14.999Z</time></trkpt><trkpt lat="39.719057989391246" lon="8.50627022024185"><ele>0.0</ele><time>2026-05-01T13:05:15.999Z</time></trkpt><trkpt lat="39.71918047908648" lon="8.506355039473437"><ele>0.0</ele><time>2026-05-01T13:05:16.999Z</time></trkpt><trkpt lat="39.71929834314346" lon="8.506438747265088"><ele>0.0</ele><time>2026-05-01T13:05:17.999Z</time></trkpt><trkpt lat="39.719403289796226" lon="8.506512153345177"><ele>0.0</ele><time>2026-05-01T13:05:18.999Z</time></trkpt><trkpt lat="39.71950073104869" lon="8.50657471995973"><ele>0.0</ele><time>2026-05-01T13:05:19.999Z</time></trkpt><trkpt lat="39.719591069761414" lon="8.506632548536366"><ele>0.16666666666666666</ele><time>2026-05-01T13:05:20.999Z</time></trkpt><trkpt lat="39.719665208303276" lon="8.50667779474519"><ele>0.3333333333333333</ele><time>2026-05-01T13:05:21.999Z</time></trkpt><trkpt lat="39.71972455941695" lon="8.506714405712936"><ele>0.5</ele><time>2026-05-01T13:05:22.999Z</time></trkpt><trkpt lat="39.71981589639892" lon="8.506784258783586"><ele>0.6666666666666666</ele><time>2026-05-01T13:05:24.999Z</time></trkpt><trkpt lat="39.71987314772199" lon="8.506833085690603"><ele>0.8333333333333333</ele><time>2026-05-01T13:05:26.999Z</time></trkpt><trkpt lat="39.71987038319328" lon="8.50695819917376"><ele>1.0</ele><time>2026-05-01T13:05:28.999Z</time></trkpt><trkpt lat="39.71992696036407" lon="8.50708609483088"><ele>1.3333333333333333</ele><time>2026-05-01T13:05:30.999Z</time></trkpt><trkpt lat="39.71998211947429" lon="8.507152686850604"><ele>1.6666666666666665</ele><time>2026-05-01T13:05:31.999Z</time></trkpt><trkpt lat="39.72003674171588" lon="8.507237447247567"><ele>2.0</ele><time>2026-05-01T13:05:32.999Z</time></trkpt><trkpt lat="39.72010441340565" lon="8.50731079210776"><ele>2.3333333333333335</ele><time>2026-05-01T13:05:33.999Z</time></trkpt><trkpt lat="39.72016398260785" lon="8.507383604511112"><ele>2.6666666666666665</ele><time>2026-05-01T13:05:34.999Z</time></trkpt><trkpt lat="39.72022543243796" lon="8.507469583474155"><ele>3.0</ele><time>2026-05-01T13:05:35.999Z</time></trkpt><trkpt lat="39.720277153952246" lon="8.50757001538077"><ele>3.0</ele><time>2026-05-01T13:05:36.999Z</time></trkpt><trkpt lat="39.72032465914873" lon="8.50766963741354"><ele>3.0</ele><time>2026-05-01T13:05:37.999Z</time></trkpt><trkpt lat="39.72037266631609" lon="8.507763944157338"><ele>3.0</ele><time>2026-05-01T13:05:38.999Z</time></trkpt><trkpt lat="39.720417437803725" lon="8.507845744793174"><ele>3.0</ele><time>2026-05-01T13:05:39.999Z</time></trkpt><trkpt lat="39.72046053807476" lon="8.507925776747388"><ele>3.0</ele><time>2026-05-01T13:05:40.999Z</time></trkpt><trkpt lat="39.72050773723024" lon="8.50801668865333"><ele>3.0</ele><time>2026-05-01T13:05:41.999Z</time></trkpt><trkpt lat="39.72054505875053" lon="8.508096593474487"><ele>3.0</ele><time>2026-05-01T13:05:42.999Z</time></trkpt><trkpt lat="39.72057662873741" lon="8.508170009866049"><ele>3.0</ele><time>2026-05-01T13:05:43.999Z</time></trkpt><trkpt lat="39.72062549458464" lon="8.508298683595008"><ele>3.0</ele><time>2026-05-01T13:05:45.999Z</time></trkpt><trkpt lat="39.7206577003807" lon="8.508386653461024"><ele>3.0</ele><time>2026-05-01T13:05:47.999Z</time></trkpt><trkpt lat="39.72067882197935" lon="8.508464166223204"><ele>3.0</ele><time>2026-05-01T13:05:51.999Z</time></trkpt><trkpt lat="39.720643163208436" lon="8.508378729391286"><ele>3.0</ele><time>2026-05-01T13:06:11.999Z</time></trkpt><trkpt lat="39.72070312301022" lon="8.50841602059066"><ele>3.0</ele><time>2026-05-01T13:06:56Z</time></trkpt></trkseg></trk></gpx>